<?xml version="1.0" encoding="UTF-8"?>
<gpx version="1.1" creator="https://www.youtrack.es" xsi:schemaLocation="http://www.topografix.com/GPX/1/1 http://www.topografix.com/GPX/1/1/gpx.xsd http://www.garmin.com/xmlschemas/GpxExtensions/v3 http://www.garmin.com/xmlschemas/GpxExtensionsv3.xsd http://www.garmin.com/xmlschemas/TrackPointExtension/v1 http://www.garmin.com/xmlschemas/TrackPointExtensionv1.xsd" xmlns:gpxtpx="http://www.garmin.com/xmlschemas/TrackPointExtension/v1" xmlns:gpxx="http://www.garmin.com/xmlschemas/GpxExtensions/v3" xmlns:xsi="http://www.w3.org/2001/XMLSchema-instance">
  <metadata>
    <author>
      <name>Josu  Alberdi</name>
      <email id="indica990" domain="gmail.com"/>
    </author>
    <link href="https://www.youtrack.es">
      <text>YouTrack.es</text>
    </link>
    <time>2026-05-08T04:47:19Z</time>
  </metadata>
  <trk>
    <src>https://www.youtrack.es</src>
    <link href="https://www.youtrack.es/ruta/26525-karoo-morning-ride-oct-09-2021-100249">
      <text>YouTrack.es</text>
    </link>
    <trkseg>
      <trkpt lat="40.68794" lon="-2.17867">
        <ele>1341.6</ele>
        <time>2021-10-09 10:02:49</time>
      </trkpt>
      <trkpt lat="40.68794" lon="-2.17869">
        <ele>1341.6</ele>
        <time>2021-10-09 10:02:50</time>
      </trkpt>
      <trkpt lat="40.68794" lon="-2.17872">
        <ele>1341.6</ele>
        <time>2021-10-09 10:02:51</time>
      </trkpt>
      <trkpt lat="40.68794" lon="-2.17875">
        <ele>1341.4</ele>
        <time>2021-10-09 10:02:52</time>
      </trkpt>
      <trkpt lat="40.68795" lon="-2.17877">
        <ele>1341.4</ele>
        <time>2021-10-09 10:02:53</time>
      </trkpt>
      <trkpt lat="40.68795" lon="-2.17879">
        <ele>1341.4</ele>
        <time>2021-10-09 10:02:54</time>
      </trkpt>
      <trkpt lat="40.68794" lon="-2.17881">
        <ele>1341.4</ele>
        <time>2021-10-09 10:02:55</time>
      </trkpt>
      <trkpt lat="40.68793" lon="-2.17883">
        <ele>1341.4</ele>
        <time>2021-10-09 10:02:56</time>
      </trkpt>
      <trkpt lat="40.6879" lon="-2.17886">
        <ele>1341.4</ele>
        <time>2021-10-09 10:02:57</time>
      </trkpt>
      <trkpt lat="40.68788" lon="-2.17888">
        <ele>1341.4</ele>
        <time>2021-10-09 10:02:58</time>
      </trkpt>
      <trkpt lat="40.68785" lon="-2.1789">
        <ele>1341.4</ele>
        <time>2021-10-09 10:02:59</time>
      </trkpt>
      <trkpt lat="40.68782" lon="-2.17892">
        <ele>1341.4</ele>
        <time>2021-10-09 10:03:00</time>
      </trkpt>
      <trkpt lat="40.68779" lon="-2.17894">
        <ele>1341.4</ele>
        <time>2021-10-09 10:03:01</time>
      </trkpt>
      <trkpt lat="40.68776" lon="-2.17897">
        <ele>1341.4</ele>
        <time>2021-10-09 10:03:02</time>
      </trkpt>
      <trkpt lat="40.68773" lon="-2.17899">
        <ele>1341.4</ele>
        <time>2021-10-09 10:03:03</time>
      </trkpt>
      <trkpt lat="40.6877" lon="-2.17902">
        <ele>1341.4</ele>
        <time>2021-10-09 10:03:04</time>
      </trkpt>
      <trkpt lat="40.68767" lon="-2.17905">
        <ele>1341.4</ele>
        <time>2021-10-09 10:03:05</time>
      </trkpt>
      <trkpt lat="40.68764" lon="-2.17909">
        <ele>1341.4</ele>
        <time>2021-10-09 10:03:06</time>
      </trkpt>
      <trkpt lat="40.68761" lon="-2.17912">
        <ele>1341.4</ele>
        <time>2021-10-09 10:03:07</time>
      </trkpt>
      <trkpt lat="40.68758" lon="-2.17915">
        <ele>1341.4</ele>
        <time>2021-10-09 10:03:08</time>
      </trkpt>
      <trkpt lat="40.68755" lon="-2.17918">
        <ele>1341.2</ele>
        <time>2021-10-09 10:03:09</time>
      </trkpt>
      <trkpt lat="40.68752" lon="-2.17922">
        <ele>1341.2</ele>
        <time>2021-10-09 10:03:10</time>
      </trkpt>
      <trkpt lat="40.68749" lon="-2.17925">
        <ele>1341.2</ele>
        <time>2021-10-09 10:03:11</time>
      </trkpt>
      <trkpt lat="40.68745" lon="-2.17928">
        <ele>1341.2</ele>
        <time>2021-10-09 10:03:12</time>
      </trkpt>
      <trkpt lat="40.68742" lon="-2.17932">
        <ele>1341.2</ele>
        <time>2021-10-09 10:03:13</time>
      </trkpt>
      <trkpt lat="40.68738" lon="-2.17936">
        <ele>1341.2</ele>
        <time>2021-10-09 10:03:14</time>
      </trkpt>
      <trkpt lat="40.68735" lon="-2.1794">
        <ele>1340.6</ele>
        <time>2021-10-09 10:03:15</time>
      </trkpt>
      <trkpt lat="40.68731" lon="-2.17944">
        <ele>1340.6</ele>
        <time>2021-10-09 10:03:16</time>
      </trkpt>
      <trkpt lat="40.68727" lon="-2.17948">
        <ele>1340.6</ele>
        <time>2021-10-09 10:03:17</time>
      </trkpt>
      <trkpt lat="40.68723" lon="-2.17953">
        <ele>1340.6</ele>
        <time>2021-10-09 10:03:18</time>
      </trkpt>
      <trkpt lat="40.6872" lon="-2.17957">
        <ele>1340.6</ele>
        <time>2021-10-09 10:03:19</time>
      </trkpt>
      <trkpt lat="40.68716" lon="-2.17959">
        <ele>1340.4</ele>
        <time>2021-10-09 10:03:20</time>
      </trkpt>
      <trkpt lat="40.68713" lon="-2.17963">
        <ele>1340.4</ele>
        <time>2021-10-09 10:03:21</time>
      </trkpt>
      <trkpt lat="40.68711" lon="-2.17965">
        <ele>1340.2</ele>
        <time>2021-10-09 10:03:22</time>
      </trkpt>
      <trkpt lat="40.68706" lon="-2.17969">
        <ele>1340</ele>
        <time>2021-10-09 10:03:23</time>
      </trkpt>
      <trkpt lat="40.68703" lon="-2.17972">
        <ele>1339.8</ele>
        <time>2021-10-09 10:03:24</time>
      </trkpt>
      <trkpt lat="40.68699" lon="-2.17975">
        <ele>1339.8</ele>
        <time>2021-10-09 10:03:25</time>
      </trkpt>
      <trkpt lat="40.68696" lon="-2.17978">
        <ele>1339.4</ele>
        <time>2021-10-09 10:03:26</time>
      </trkpt>
      <trkpt lat="40.68692" lon="-2.17982">
        <ele>1339.4</ele>
        <time>2021-10-09 10:03:27</time>
      </trkpt>
      <trkpt lat="40.68688" lon="-2.17985">
        <ele>1339.2</ele>
        <time>2021-10-09 10:03:28</time>
      </trkpt>
      <trkpt lat="40.68685" lon="-2.17987">
        <ele>1339.2</ele>
        <time>2021-10-09 10:03:29</time>
      </trkpt>
      <trkpt lat="40.68682" lon="-2.1799">
        <ele>1339.2</ele>
        <time>2021-10-09 10:03:30</time>
      </trkpt>
      <trkpt lat="40.68679" lon="-2.17993">
        <ele>1339.2</ele>
        <time>2021-10-09 10:03:31</time>
      </trkpt>
      <trkpt lat="40.68676" lon="-2.17996">
        <ele>1339.2</ele>
        <time>2021-10-09 10:03:32</time>
      </trkpt>
      <trkpt lat="40.68673" lon="-2.18">
        <ele>1339</ele>
        <time>2021-10-09 10:03:33</time>
      </trkpt>
      <trkpt lat="40.68672" lon="-2.18005">
        <ele>1339</ele>
        <time>2021-10-09 10:03:34</time>
      </trkpt>
      <trkpt lat="40.68672" lon="-2.18009">
        <ele>1339</ele>
        <time>2021-10-09 10:03:35</time>
      </trkpt>
      <trkpt lat="40.68674" lon="-2.18014">
        <ele>1339</ele>
        <time>2021-10-09 10:03:36</time>
      </trkpt>
      <trkpt lat="40.68676" lon="-2.18018">
        <ele>1338.6</ele>
        <time>2021-10-09 10:03:37</time>
      </trkpt>
      <trkpt lat="40.68678" lon="-2.18023">
        <ele>1338.6</ele>
        <time>2021-10-09 10:03:38</time>
      </trkpt>
      <trkpt lat="40.6868" lon="-2.18027">
        <ele>1338.6</ele>
        <time>2021-10-09 10:03:39</time>
      </trkpt>
      <trkpt lat="40.68682" lon="-2.18032">
        <ele>1338.6</ele>
        <time>2021-10-09 10:03:40</time>
      </trkpt>
      <trkpt lat="40.68683" lon="-2.18037">
        <ele>1338.6</ele>
        <time>2021-10-09 10:03:41</time>
      </trkpt>
      <trkpt lat="40.68685" lon="-2.18042">
        <ele>1339</ele>
        <time>2021-10-09 10:03:42</time>
      </trkpt>
      <trkpt lat="40.68687" lon="-2.18047">
        <ele>1339</ele>
        <time>2021-10-09 10:03:43</time>
      </trkpt>
      <trkpt lat="40.68689" lon="-2.18053">
        <ele>1339</ele>
        <time>2021-10-09 10:03:44</time>
      </trkpt>
      <trkpt lat="40.6869" lon="-2.18057">
        <ele>1339</ele>
        <time>2021-10-09 10:03:45</time>
      </trkpt>
      <trkpt lat="40.68692" lon="-2.18063">
        <ele>1339</ele>
        <time>2021-10-09 10:03:46</time>
      </trkpt>
      <trkpt lat="40.68693" lon="-2.18069">
        <ele>1338.2</ele>
        <time>2021-10-09 10:03:47</time>
      </trkpt>
      <trkpt lat="40.68695" lon="-2.18075">
        <ele>1337.8</ele>
        <time>2021-10-09 10:03:48</time>
      </trkpt>
      <trkpt lat="40.68697" lon="-2.1808">
        <ele>1336</ele>
        <time>2021-10-09 10:03:49</time>
      </trkpt>
      <trkpt lat="40.687" lon="-2.18086">
        <ele>1336.8</ele>
        <time>2021-10-09 10:03:50</time>
      </trkpt>
      <trkpt lat="40.68702" lon="-2.18091">
        <ele>1337.4</ele>
        <time>2021-10-09 10:03:51</time>
      </trkpt>
      <trkpt lat="40.68705" lon="-2.18097">
        <ele>1337.8</ele>
        <time>2021-10-09 10:03:52</time>
      </trkpt>
      <trkpt lat="40.68707" lon="-2.18103">
        <ele>1338</ele>
        <time>2021-10-09 10:03:53</time>
      </trkpt>
      <trkpt lat="40.68709" lon="-2.1811">
        <ele>1338.2</ele>
        <time>2021-10-09 10:03:54</time>
      </trkpt>
      <trkpt lat="40.68711" lon="-2.18115">
        <ele>1338.2</ele>
        <time>2021-10-09 10:03:55</time>
      </trkpt>
      <trkpt lat="40.68713" lon="-2.18121">
        <ele>1338.2</ele>
        <time>2021-10-09 10:03:56</time>
      </trkpt>
      <trkpt lat="40.68715" lon="-2.18128">
        <ele>1338.4</ele>
        <time>2021-10-09 10:03:57</time>
      </trkpt>
      <trkpt lat="40.68717" lon="-2.18134">
        <ele>1338.4</ele>
        <time>2021-10-09 10:03:58</time>
      </trkpt>
      <trkpt lat="40.68718" lon="-2.1814">
        <ele>1338.4</ele>
        <time>2021-10-09 10:03:59</time>
      </trkpt>
      <trkpt lat="40.68721" lon="-2.18146">
        <ele>1338.4</ele>
        <time>2021-10-09 10:04:00</time>
      </trkpt>
      <trkpt lat="40.68722" lon="-2.18153">
        <ele>1338.4</ele>
        <time>2021-10-09 10:04:01</time>
      </trkpt>
      <trkpt lat="40.68725" lon="-2.18159">
        <ele>1338.4</ele>
        <time>2021-10-09 10:04:02</time>
      </trkpt>
      <trkpt lat="40.68727" lon="-2.18165">
        <ele>1338.4</ele>
        <time>2021-10-09 10:04:03</time>
      </trkpt>
      <trkpt lat="40.68728" lon="-2.18171">
        <ele>1338.4</ele>
        <time>2021-10-09 10:04:04</time>
      </trkpt>
      <trkpt lat="40.6873" lon="-2.18177">
        <ele>1338.4</ele>
        <time>2021-10-09 10:04:05</time>
      </trkpt>
      <trkpt lat="40.68731" lon="-2.18183">
        <ele>1338.4</ele>
        <time>2021-10-09 10:04:06</time>
      </trkpt>
      <trkpt lat="40.68734" lon="-2.1819">
        <ele>1338.4</ele>
        <time>2021-10-09 10:04:07</time>
      </trkpt>
      <trkpt lat="40.68735" lon="-2.18196">
        <ele>1338.4</ele>
        <time>2021-10-09 10:04:08</time>
      </trkpt>
      <trkpt lat="40.68737" lon="-2.18202">
        <ele>1338.2</ele>
        <time>2021-10-09 10:04:09</time>
      </trkpt>
      <trkpt lat="40.68739" lon="-2.18208">
        <ele>1338.2</ele>
        <time>2021-10-09 10:04:10</time>
      </trkpt>
      <trkpt lat="40.6874" lon="-2.18214">
        <ele>1338.2</ele>
        <time>2021-10-09 10:04:11</time>
      </trkpt>
      <trkpt lat="40.68742" lon="-2.18221">
        <ele>1338.2</ele>
        <time>2021-10-09 10:04:12</time>
      </trkpt>
      <trkpt lat="40.68744" lon="-2.18227">
        <ele>1338.2</ele>
        <time>2021-10-09 10:04:13</time>
      </trkpt>
      <trkpt lat="40.68745" lon="-2.18233">
        <ele>1338.2</ele>
        <time>2021-10-09 10:04:14</time>
      </trkpt>
      <trkpt lat="40.68746" lon="-2.18239">
        <ele>1338.2</ele>
        <time>2021-10-09 10:04:15</time>
      </trkpt>
      <trkpt lat="40.68748" lon="-2.18246">
        <ele>1338</ele>
        <time>2021-10-09 10:04:16</time>
      </trkpt>
      <trkpt lat="40.6875" lon="-2.18252">
        <ele>1338</ele>
        <time>2021-10-09 10:04:17</time>
      </trkpt>
      <trkpt lat="40.68752" lon="-2.18258">
        <ele>1337.8</ele>
        <time>2021-10-09 10:04:18</time>
      </trkpt>
      <trkpt lat="40.68754" lon="-2.18265">
        <ele>1337.8</ele>
        <time>2021-10-09 10:04:19</time>
      </trkpt>
      <trkpt lat="40.68755" lon="-2.18271">
        <ele>1337.8</ele>
        <time>2021-10-09 10:04:20</time>
      </trkpt>
      <trkpt lat="40.68757" lon="-2.18277">
        <ele>1337.6</ele>
        <time>2021-10-09 10:04:21</time>
      </trkpt>
      <trkpt lat="40.68759" lon="-2.18284">
        <ele>1337.6</ele>
        <time>2021-10-09 10:04:22</time>
      </trkpt>
      <trkpt lat="40.6876" lon="-2.1829">
        <ele>1337.6</ele>
        <time>2021-10-09 10:04:23</time>
      </trkpt>
      <trkpt lat="40.68763" lon="-2.18296">
        <ele>1337.6</ele>
        <time>2021-10-09 10:04:24</time>
      </trkpt>
      <trkpt lat="40.68764" lon="-2.18303">
        <ele>1337.6</ele>
        <time>2021-10-09 10:04:25</time>
      </trkpt>
      <trkpt lat="40.68766" lon="-2.1831">
        <ele>1337.6</ele>
        <time>2021-10-09 10:04:26</time>
      </trkpt>
      <trkpt lat="40.68768" lon="-2.18317">
        <ele>1337.6</ele>
        <time>2021-10-09 10:04:27</time>
      </trkpt>
      <trkpt lat="40.6877" lon="-2.18323">
        <ele>1337.6</ele>
        <time>2021-10-09 10:04:28</time>
      </trkpt>
      <trkpt lat="40.68772" lon="-2.18329">
        <ele>1337.4</ele>
        <time>2021-10-09 10:04:29</time>
      </trkpt>
      <trkpt lat="40.68773" lon="-2.18334">
        <ele>1337.4</ele>
        <time>2021-10-09 10:04:30</time>
      </trkpt>
      <trkpt lat="40.68775" lon="-2.18338">
        <ele>1337.4</ele>
        <time>2021-10-09 10:04:31</time>
      </trkpt>
      <trkpt lat="40.68776" lon="-2.18341">
        <ele>1337</ele>
        <time>2021-10-09 10:04:32</time>
      </trkpt>
      <trkpt lat="40.68776" lon="-2.18343">
        <ele>1337</ele>
        <time>2021-10-09 10:04:33</time>
      </trkpt>
      <trkpt lat="40.68776" lon="-2.18344">
        <ele>1336.8</ele>
        <time>2021-10-09 10:04:34</time>
      </trkpt>
      <trkpt lat="40.68777" lon="-2.18344">
        <ele>1336.8</ele>
        <time>2021-10-09 10:04:35</time>
      </trkpt>
      <trkpt lat="40.68777" lon="-2.18343">
        <ele>1336.8</ele>
        <time>2021-10-09 10:04:36</time>
      </trkpt>
      <trkpt lat="40.68777" lon="-2.18343">
        <ele>1336.8</ele>
        <time>2021-10-09 10:04:37</time>
      </trkpt>
      <trkpt lat="40.68779" lon="-2.18343">
        <ele>1336</ele>
        <time>2021-10-09 10:06:41</time>
      </trkpt>
      <trkpt lat="40.68779" lon="-2.18345">
        <ele>1336</ele>
        <time>2021-10-09 10:06:42</time>
      </trkpt>
      <trkpt lat="40.6878" lon="-2.18348">
        <ele>1336</ele>
        <time>2021-10-09 10:06:43</time>
      </trkpt>
      <trkpt lat="40.68781" lon="-2.1835">
        <ele>1335.8</ele>
        <time>2021-10-09 10:06:44</time>
      </trkpt>
      <trkpt lat="40.68781" lon="-2.18353">
        <ele>1335.8</ele>
        <time>2021-10-09 10:06:45</time>
      </trkpt>
      <trkpt lat="40.68782" lon="-2.18357">
        <ele>1335.8</ele>
        <time>2021-10-09 10:06:46</time>
      </trkpt>
      <trkpt lat="40.68783" lon="-2.1836">
        <ele>1335.8</ele>
        <time>2021-10-09 10:06:47</time>
      </trkpt>
      <trkpt lat="40.68784" lon="-2.18364">
        <ele>1335.8</ele>
        <time>2021-10-09 10:06:48</time>
      </trkpt>
      <trkpt lat="40.68785" lon="-2.18368">
        <ele>1335.8</ele>
        <time>2021-10-09 10:06:49</time>
      </trkpt>
      <trkpt lat="40.68786" lon="-2.18373">
        <ele>1335.8</ele>
        <time>2021-10-09 10:06:50</time>
      </trkpt>
      <trkpt lat="40.68787" lon="-2.18377">
        <ele>1335.8</ele>
        <time>2021-10-09 10:06:51</time>
      </trkpt>
      <trkpt lat="40.68788" lon="-2.18381">
        <ele>1335.8</ele>
        <time>2021-10-09 10:06:52</time>
      </trkpt>
      <trkpt lat="40.6879" lon="-2.18386">
        <ele>1335.8</ele>
        <time>2021-10-09 10:06:53</time>
      </trkpt>
      <trkpt lat="40.68791" lon="-2.1839">
        <ele>1335.8</ele>
        <time>2021-10-09 10:06:54</time>
      </trkpt>
      <trkpt lat="40.68792" lon="-2.18395">
        <ele>1336</ele>
        <time>2021-10-09 10:06:55</time>
      </trkpt>
      <trkpt lat="40.68794" lon="-2.184">
        <ele>1336</ele>
        <time>2021-10-09 10:06:56</time>
      </trkpt>
      <trkpt lat="40.68796" lon="-2.18405">
        <ele>1336</ele>
        <time>2021-10-09 10:06:57</time>
      </trkpt>
      <trkpt lat="40.68798" lon="-2.1841">
        <ele>1336</ele>
        <time>2021-10-09 10:06:58</time>
      </trkpt>
      <trkpt lat="40.688" lon="-2.18415">
        <ele>1336.2</ele>
        <time>2021-10-09 10:06:59</time>
      </trkpt>
      <trkpt lat="40.68802" lon="-2.18421">
        <ele>1336.2</ele>
        <time>2021-10-09 10:07:00</time>
      </trkpt>
      <trkpt lat="40.68804" lon="-2.18426">
        <ele>1336.2</ele>
        <time>2021-10-09 10:07:01</time>
      </trkpt>
      <trkpt lat="40.68806" lon="-2.18431">
        <ele>1336.2</ele>
        <time>2021-10-09 10:07:02</time>
      </trkpt>
      <trkpt lat="40.68809" lon="-2.18436">
        <ele>1336.6</ele>
        <time>2021-10-09 10:07:03</time>
      </trkpt>
      <trkpt lat="40.68811" lon="-2.18442">
        <ele>1336.6</ele>
        <time>2021-10-09 10:07:04</time>
      </trkpt>
      <trkpt lat="40.68813" lon="-2.18447">
        <ele>1336.6</ele>
        <time>2021-10-09 10:07:05</time>
      </trkpt>
      <trkpt lat="40.68815" lon="-2.18453">
        <ele>1336.6</ele>
        <time>2021-10-09 10:07:06</time>
      </trkpt>
      <trkpt lat="40.68817" lon="-2.18458">
        <ele>1336.6</ele>
        <time>2021-10-09 10:07:07</time>
      </trkpt>
      <trkpt lat="40.6882" lon="-2.18464">
        <ele>1336.6</ele>
        <time>2021-10-09 10:07:08</time>
      </trkpt>
      <trkpt lat="40.68823" lon="-2.1847">
        <ele>1336.6</ele>
        <time>2021-10-09 10:07:09</time>
      </trkpt>
      <trkpt lat="40.68826" lon="-2.18475">
        <ele>1336.6</ele>
        <time>2021-10-09 10:07:10</time>
      </trkpt>
      <trkpt lat="40.68828" lon="-2.18481">
        <ele>1336.6</ele>
        <time>2021-10-09 10:07:11</time>
      </trkpt>
      <trkpt lat="40.68831" lon="-2.18487">
        <ele>1336.6</ele>
        <time>2021-10-09 10:07:12</time>
      </trkpt>
      <trkpt lat="40.68833" lon="-2.18493">
        <ele>1336.6</ele>
        <time>2021-10-09 10:07:13</time>
      </trkpt>
      <trkpt lat="40.68836" lon="-2.18498">
        <ele>1336.6</ele>
        <time>2021-10-09 10:07:14</time>
      </trkpt>
      <trkpt lat="40.68838" lon="-2.18504">
        <ele>1336.6</ele>
        <time>2021-10-09 10:07:15</time>
      </trkpt>
      <trkpt lat="40.6884" lon="-2.1851">
        <ele>1336.2</ele>
        <time>2021-10-09 10:07:16</time>
      </trkpt>
      <trkpt lat="40.6884" lon="-2.18516">
        <ele>1336.2</ele>
        <time>2021-10-09 10:07:17</time>
      </trkpt>
      <trkpt lat="40.68838" lon="-2.18521">
        <ele>1336.2</ele>
        <time>2021-10-09 10:07:18</time>
      </trkpt>
      <trkpt lat="40.68835" lon="-2.18526">
        <ele>1336.2</ele>
        <time>2021-10-09 10:07:19</time>
      </trkpt>
      <trkpt lat="40.68832" lon="-2.18528">
        <ele>1336</ele>
        <time>2021-10-09 10:07:20</time>
      </trkpt>
      <trkpt lat="40.68827" lon="-2.18529">
        <ele>1336</ele>
        <time>2021-10-09 10:07:21</time>
      </trkpt>
      <trkpt lat="40.68823" lon="-2.18529">
        <ele>1335.8</ele>
        <time>2021-10-09 10:07:22</time>
      </trkpt>
      <trkpt lat="40.68819" lon="-2.18528">
        <ele>1335.8</ele>
        <time>2021-10-09 10:07:23</time>
      </trkpt>
      <trkpt lat="40.68814" lon="-2.18527">
        <ele>1335.6</ele>
        <time>2021-10-09 10:07:24</time>
      </trkpt>
      <trkpt lat="40.68809" lon="-2.18525">
        <ele>1335.6</ele>
        <time>2021-10-09 10:07:25</time>
      </trkpt>
      <trkpt lat="40.68804" lon="-2.18523">
        <ele>1335.6</ele>
        <time>2021-10-09 10:07:26</time>
      </trkpt>
      <trkpt lat="40.68799" lon="-2.18521">
        <ele>1335.6</ele>
        <time>2021-10-09 10:07:27</time>
      </trkpt>
      <trkpt lat="40.68794" lon="-2.1852">
        <ele>1335.6</ele>
        <time>2021-10-09 10:07:28</time>
      </trkpt>
      <trkpt lat="40.68789" lon="-2.18518">
        <ele>1335.6</ele>
        <time>2021-10-09 10:07:29</time>
      </trkpt>
      <trkpt lat="40.68784" lon="-2.18516">
        <ele>1335.6</ele>
        <time>2021-10-09 10:07:30</time>
      </trkpt>
      <trkpt lat="40.68779" lon="-2.18515">
        <ele>1335.6</ele>
        <time>2021-10-09 10:07:31</time>
      </trkpt>
      <trkpt lat="40.68774" lon="-2.18513">
        <ele>1335.6</ele>
        <time>2021-10-09 10:07:32</time>
      </trkpt>
      <trkpt lat="40.68769" lon="-2.18512">
        <ele>1335.8</ele>
        <time>2021-10-09 10:07:33</time>
      </trkpt>
      <trkpt lat="40.68764" lon="-2.1851">
        <ele>1335.8</ele>
        <time>2021-10-09 10:07:34</time>
      </trkpt>
      <trkpt lat="40.68758" lon="-2.18508">
        <ele>1335.8</ele>
        <time>2021-10-09 10:07:35</time>
      </trkpt>
      <trkpt lat="40.68753" lon="-2.18507">
        <ele>1335.8</ele>
        <time>2021-10-09 10:07:36</time>
      </trkpt>
      <trkpt lat="40.68748" lon="-2.18505">
        <ele>1335.8</ele>
        <time>2021-10-09 10:07:37</time>
      </trkpt>
      <trkpt lat="40.68744" lon="-2.18505">
        <ele>1335.8</ele>
        <time>2021-10-09 10:07:38</time>
      </trkpt>
      <trkpt lat="40.68739" lon="-2.18504">
        <ele>1335.8</ele>
        <time>2021-10-09 10:07:39</time>
      </trkpt>
      <trkpt lat="40.68734" lon="-2.18502">
        <ele>1336.2</ele>
        <time>2021-10-09 10:07:40</time>
      </trkpt>
      <trkpt lat="40.68728" lon="-2.18502">
        <ele>1336.2</ele>
        <time>2021-10-09 10:07:41</time>
      </trkpt>
      <trkpt lat="40.68722" lon="-2.18501">
        <ele>1336.2</ele>
        <time>2021-10-09 10:07:42</time>
      </trkpt>
      <trkpt lat="40.68716" lon="-2.185">
        <ele>1336.2</ele>
        <time>2021-10-09 10:07:43</time>
      </trkpt>
      <trkpt lat="40.6871" lon="-2.185">
        <ele>1336.2</ele>
        <time>2021-10-09 10:07:44</time>
      </trkpt>
      <trkpt lat="40.68705" lon="-2.18499">
        <ele>1336.2</ele>
        <time>2021-10-09 10:07:45</time>
      </trkpt>
      <trkpt lat="40.68699" lon="-2.185">
        <ele>1336.2</ele>
        <time>2021-10-09 10:07:46</time>
      </trkpt>
      <trkpt lat="40.68693" lon="-2.18499">
        <ele>1336.2</ele>
        <time>2021-10-09 10:07:47</time>
      </trkpt>
      <trkpt lat="40.68687" lon="-2.18499">
        <ele>1336.2</ele>
        <time>2021-10-09 10:07:48</time>
      </trkpt>
      <trkpt lat="40.68682" lon="-2.18497">
        <ele>1336</ele>
        <time>2021-10-09 10:07:49</time>
      </trkpt>
      <trkpt lat="40.68677" lon="-2.18498">
        <ele>1336</ele>
        <time>2021-10-09 10:07:50</time>
      </trkpt>
      <trkpt lat="40.68672" lon="-2.18498">
        <ele>1336</ele>
        <time>2021-10-09 10:07:51</time>
      </trkpt>
      <trkpt lat="40.68667" lon="-2.18497">
        <ele>1336</ele>
        <time>2021-10-09 10:07:52</time>
      </trkpt>
      <trkpt lat="40.68661" lon="-2.18496">
        <ele>1336</ele>
        <time>2021-10-09 10:07:53</time>
      </trkpt>
      <trkpt lat="40.68655" lon="-2.18495">
        <ele>1336</ele>
        <time>2021-10-09 10:07:54</time>
      </trkpt>
      <trkpt lat="40.68649" lon="-2.18495">
        <ele>1336.4</ele>
        <time>2021-10-09 10:07:55</time>
      </trkpt>
      <trkpt lat="40.68644" lon="-2.18494">
        <ele>1336.4</ele>
        <time>2021-10-09 10:07:56</time>
      </trkpt>
      <trkpt lat="40.68639" lon="-2.18493">
        <ele>1336.4</ele>
        <time>2021-10-09 10:07:57</time>
      </trkpt>
      <trkpt lat="40.68633" lon="-2.18492">
        <ele>1336.4</ele>
        <time>2021-10-09 10:07:58</time>
      </trkpt>
      <trkpt lat="40.68627" lon="-2.18491">
        <ele>1336</ele>
        <time>2021-10-09 10:07:59</time>
      </trkpt>
      <trkpt lat="40.68621" lon="-2.1849">
        <ele>1336</ele>
        <time>2021-10-09 10:08:00</time>
      </trkpt>
      <trkpt lat="40.68616" lon="-2.18489">
        <ele>1336.2</ele>
        <time>2021-10-09 10:08:01</time>
      </trkpt>
      <trkpt lat="40.6861" lon="-2.18487">
        <ele>1336.2</ele>
        <time>2021-10-09 10:08:02</time>
      </trkpt>
      <trkpt lat="40.68603" lon="-2.18484">
        <ele>1336</ele>
        <time>2021-10-09 10:08:03</time>
      </trkpt>
      <trkpt lat="40.68598" lon="-2.18481">
        <ele>1336</ele>
        <time>2021-10-09 10:08:04</time>
      </trkpt>
      <trkpt lat="40.68594" lon="-2.18477">
        <ele>1335.8</ele>
        <time>2021-10-09 10:08:05</time>
      </trkpt>
      <trkpt lat="40.68589" lon="-2.18474">
        <ele>1335.4</ele>
        <time>2021-10-09 10:08:06</time>
      </trkpt>
      <trkpt lat="40.68584" lon="-2.18469">
        <ele>1335</ele>
        <time>2021-10-09 10:08:07</time>
      </trkpt>
      <trkpt lat="40.68582" lon="-2.18466">
        <ele>1334.8</ele>
        <time>2021-10-09 10:08:08</time>
      </trkpt>
      <trkpt lat="40.68581" lon="-2.18464">
        <ele>1334.8</ele>
        <time>2021-10-09 10:08:09</time>
      </trkpt>
      <trkpt lat="40.68582" lon="-2.18464">
        <ele>1334.8</ele>
        <time>2021-10-09 10:08:10</time>
      </trkpt>
      <trkpt lat="40.68582" lon="-2.18464">
        <ele>1334.8</ele>
        <time>2021-10-09 10:08:11</time>
      </trkpt>
      <trkpt lat="40.68582" lon="-2.18464">
        <ele>1334.8</ele>
        <time>2021-10-09 10:08:12</time>
      </trkpt>
      <trkpt lat="40.6858" lon="-2.18464">
        <ele>1333.8</ele>
        <time>2021-10-09 10:11:25</time>
      </trkpt>
      <trkpt lat="40.68579" lon="-2.18462">
        <ele>1333.8</ele>
        <time>2021-10-09 10:11:26</time>
      </trkpt>
      <trkpt lat="40.68577" lon="-2.18459">
        <ele>1333.8</ele>
        <time>2021-10-09 10:11:27</time>
      </trkpt>
      <trkpt lat="40.68576" lon="-2.18457">
        <ele>1333.8</ele>
        <time>2021-10-09 10:11:28</time>
      </trkpt>
      <trkpt lat="40.68574" lon="-2.18453">
        <ele>1333.8</ele>
        <time>2021-10-09 10:11:29</time>
      </trkpt>
      <trkpt lat="40.68572" lon="-2.1845">
        <ele>1333.8</ele>
        <time>2021-10-09 10:11:30</time>
      </trkpt>
      <trkpt lat="40.6857" lon="-2.18446">
        <ele>1333.8</ele>
        <time>2021-10-09 10:11:31</time>
      </trkpt>
      <trkpt lat="40.68567" lon="-2.18442">
        <ele>1333.8</ele>
        <time>2021-10-09 10:11:32</time>
      </trkpt>
      <trkpt lat="40.68564" lon="-2.18438">
        <ele>1334.2</ele>
        <time>2021-10-09 10:11:33</time>
      </trkpt>
      <trkpt lat="40.68561" lon="-2.18433">
        <ele>1334.2</ele>
        <time>2021-10-09 10:11:34</time>
      </trkpt>
      <trkpt lat="40.68558" lon="-2.18429">
        <ele>1334.2</ele>
        <time>2021-10-09 10:11:35</time>
      </trkpt>
      <trkpt lat="40.68555" lon="-2.18424">
        <ele>1334.2</ele>
        <time>2021-10-09 10:11:36</time>
      </trkpt>
      <trkpt lat="40.68552" lon="-2.18419">
        <ele>1334.2</ele>
        <time>2021-10-09 10:11:37</time>
      </trkpt>
      <trkpt lat="40.68549" lon="-2.18414">
        <ele>1334.2</ele>
        <time>2021-10-09 10:11:38</time>
      </trkpt>
      <trkpt lat="40.68546" lon="-2.18409">
        <ele>1334.2</ele>
        <time>2021-10-09 10:11:39</time>
      </trkpt>
      <trkpt lat="40.68543" lon="-2.18404">
        <ele>1334.2</ele>
        <time>2021-10-09 10:11:40</time>
      </trkpt>
      <trkpt lat="40.68541" lon="-2.18399">
        <ele>1334.4</ele>
        <time>2021-10-09 10:11:41</time>
      </trkpt>
      <trkpt lat="40.68538" lon="-2.18394">
        <ele>1334.4</ele>
        <time>2021-10-09 10:11:42</time>
      </trkpt>
      <trkpt lat="40.68535" lon="-2.1839">
        <ele>1334.4</ele>
        <time>2021-10-09 10:11:43</time>
      </trkpt>
      <trkpt lat="40.68533" lon="-2.18385">
        <ele>1334.4</ele>
        <time>2021-10-09 10:11:44</time>
      </trkpt>
      <trkpt lat="40.6853" lon="-2.1838">
        <ele>1334.4</ele>
        <time>2021-10-09 10:11:45</time>
      </trkpt>
      <trkpt lat="40.68527" lon="-2.18376">
        <ele>1334.4</ele>
        <time>2021-10-09 10:11:46</time>
      </trkpt>
      <trkpt lat="40.68524" lon="-2.18371">
        <ele>1334.4</ele>
        <time>2021-10-09 10:11:47</time>
      </trkpt>
      <trkpt lat="40.68521" lon="-2.18366">
        <ele>1334.4</ele>
        <time>2021-10-09 10:11:48</time>
      </trkpt>
      <trkpt lat="40.68518" lon="-2.18361">
        <ele>1334.4</ele>
        <time>2021-10-09 10:11:49</time>
      </trkpt>
      <trkpt lat="40.68515" lon="-2.18357">
        <ele>1334.4</ele>
        <time>2021-10-09 10:11:50</time>
      </trkpt>
      <trkpt lat="40.68512" lon="-2.18352">
        <ele>1334.4</ele>
        <time>2021-10-09 10:11:51</time>
      </trkpt>
      <trkpt lat="40.68509" lon="-2.18347">
        <ele>1334.6</ele>
        <time>2021-10-09 10:11:52</time>
      </trkpt>
      <trkpt lat="40.68505" lon="-2.18342">
        <ele>1334.6</ele>
        <time>2021-10-09 10:11:53</time>
      </trkpt>
      <trkpt lat="40.68502" lon="-2.18337">
        <ele>1334.6</ele>
        <time>2021-10-09 10:11:54</time>
      </trkpt>
      <trkpt lat="40.68499" lon="-2.18332">
        <ele>1334.6</ele>
        <time>2021-10-09 10:11:55</time>
      </trkpt>
      <trkpt lat="40.68496" lon="-2.18327">
        <ele>1334.6</ele>
        <time>2021-10-09 10:11:56</time>
      </trkpt>
      <trkpt lat="40.68493" lon="-2.18322">
        <ele>1334.6</ele>
        <time>2021-10-09 10:11:57</time>
      </trkpt>
      <trkpt lat="40.6849" lon="-2.18317">
        <ele>1334.6</ele>
        <time>2021-10-09 10:11:58</time>
      </trkpt>
      <trkpt lat="40.68487" lon="-2.18312">
        <ele>1334.6</ele>
        <time>2021-10-09 10:11:59</time>
      </trkpt>
      <trkpt lat="40.68484" lon="-2.18307">
        <ele>1335</ele>
        <time>2021-10-09 10:12:00</time>
      </trkpt>
      <trkpt lat="40.68481" lon="-2.18302">
        <ele>1335</ele>
        <time>2021-10-09 10:12:01</time>
      </trkpt>
      <trkpt lat="40.68479" lon="-2.18298">
        <ele>1335</ele>
        <time>2021-10-09 10:12:02</time>
      </trkpt>
      <trkpt lat="40.68476" lon="-2.18293">
        <ele>1335</ele>
        <time>2021-10-09 10:12:03</time>
      </trkpt>
      <trkpt lat="40.68473" lon="-2.18288">
        <ele>1335</ele>
        <time>2021-10-09 10:12:04</time>
      </trkpt>
      <trkpt lat="40.6847" lon="-2.18283">
        <ele>1335</ele>
        <time>2021-10-09 10:12:05</time>
      </trkpt>
      <trkpt lat="40.68467" lon="-2.18277">
        <ele>1335</ele>
        <time>2021-10-09 10:12:06</time>
      </trkpt>
      <trkpt lat="40.68464" lon="-2.18272">
        <ele>1335.2</ele>
        <time>2021-10-09 10:12:07</time>
      </trkpt>
      <trkpt lat="40.68461" lon="-2.18267">
        <ele>1335.2</ele>
        <time>2021-10-09 10:12:08</time>
      </trkpt>
      <trkpt lat="40.68458" lon="-2.18261">
        <ele>1335.2</ele>
        <time>2021-10-09 10:12:09</time>
      </trkpt>
      <trkpt lat="40.68455" lon="-2.18256">
        <ele>1335.2</ele>
        <time>2021-10-09 10:12:10</time>
      </trkpt>
      <trkpt lat="40.68451" lon="-2.1825">
        <ele>1335.2</ele>
        <time>2021-10-09 10:12:11</time>
      </trkpt>
      <trkpt lat="40.68449" lon="-2.18244">
        <ele>1335.2</ele>
        <time>2021-10-09 10:12:12</time>
      </trkpt>
      <trkpt lat="40.68446" lon="-2.18239">
        <ele>1335.2</ele>
        <time>2021-10-09 10:12:13</time>
      </trkpt>
      <trkpt lat="40.68443" lon="-2.18233">
        <ele>1335.4</ele>
        <time>2021-10-09 10:12:14</time>
      </trkpt>
      <trkpt lat="40.6844" lon="-2.18227">
        <ele>1335.4</ele>
        <time>2021-10-09 10:12:15</time>
      </trkpt>
      <trkpt lat="40.68437" lon="-2.18221">
        <ele>1335.4</ele>
        <time>2021-10-09 10:12:16</time>
      </trkpt>
      <trkpt lat="40.68435" lon="-2.18216">
        <ele>1335.4</ele>
        <time>2021-10-09 10:12:17</time>
      </trkpt>
      <trkpt lat="40.68431" lon="-2.1821">
        <ele>1335.4</ele>
        <time>2021-10-09 10:12:18</time>
      </trkpt>
      <trkpt lat="40.68429" lon="-2.18205">
        <ele>1335.6</ele>
        <time>2021-10-09 10:12:19</time>
      </trkpt>
      <trkpt lat="40.68426" lon="-2.182">
        <ele>1335.6</ele>
        <time>2021-10-09 10:12:20</time>
      </trkpt>
      <trkpt lat="40.68423" lon="-2.18194">
        <ele>1335.6</ele>
        <time>2021-10-09 10:12:21</time>
      </trkpt>
      <trkpt lat="40.68421" lon="-2.18189">
        <ele>1335.6</ele>
        <time>2021-10-09 10:12:22</time>
      </trkpt>
      <trkpt lat="40.68418" lon="-2.18184">
        <ele>1335.6</ele>
        <time>2021-10-09 10:12:23</time>
      </trkpt>
      <trkpt lat="40.68415" lon="-2.18178">
        <ele>1335.6</ele>
        <time>2021-10-09 10:12:24</time>
      </trkpt>
      <trkpt lat="40.68412" lon="-2.18173">
        <ele>1335.6</ele>
        <time>2021-10-09 10:12:25</time>
      </trkpt>
      <trkpt lat="40.68409" lon="-2.18168">
        <ele>1335.6</ele>
        <time>2021-10-09 10:12:26</time>
      </trkpt>
      <trkpt lat="40.68406" lon="-2.18163">
        <ele>1335.6</ele>
        <time>2021-10-09 10:12:27</time>
      </trkpt>
      <trkpt lat="40.68403" lon="-2.18158">
        <ele>1335.6</ele>
        <time>2021-10-09 10:12:28</time>
      </trkpt>
      <trkpt lat="40.684" lon="-2.18153">
        <ele>1335.6</ele>
        <time>2021-10-09 10:12:29</time>
      </trkpt>
      <trkpt lat="40.68397" lon="-2.18148">
        <ele>1335.6</ele>
        <time>2021-10-09 10:12:30</time>
      </trkpt>
      <trkpt lat="40.68394" lon="-2.18143">
        <ele>1335.6</ele>
        <time>2021-10-09 10:12:31</time>
      </trkpt>
      <trkpt lat="40.68391" lon="-2.18137">
        <ele>1335.6</ele>
        <time>2021-10-09 10:12:32</time>
      </trkpt>
      <trkpt lat="40.68388" lon="-2.18133">
        <ele>1335.6</ele>
        <time>2021-10-09 10:12:33</time>
      </trkpt>
      <trkpt lat="40.68386" lon="-2.18127">
        <ele>1335.6</ele>
        <time>2021-10-09 10:12:34</time>
      </trkpt>
      <trkpt lat="40.68383" lon="-2.18122">
        <ele>1335.6</ele>
        <time>2021-10-09 10:12:35</time>
      </trkpt>
      <trkpt lat="40.6838" lon="-2.18116">
        <ele>1335.6</ele>
        <time>2021-10-09 10:12:36</time>
      </trkpt>
      <trkpt lat="40.68378" lon="-2.18111">
        <ele>1335.6</ele>
        <time>2021-10-09 10:12:37</time>
      </trkpt>
      <trkpt lat="40.68375" lon="-2.18106">
        <ele>1335.6</ele>
        <time>2021-10-09 10:12:38</time>
      </trkpt>
      <trkpt lat="40.68373" lon="-2.181">
        <ele>1335.8</ele>
        <time>2021-10-09 10:12:39</time>
      </trkpt>
      <trkpt lat="40.6837" lon="-2.18095">
        <ele>1335.8</ele>
        <time>2021-10-09 10:12:40</time>
      </trkpt>
      <trkpt lat="40.68368" lon="-2.1809">
        <ele>1335.8</ele>
        <time>2021-10-09 10:12:41</time>
      </trkpt>
      <trkpt lat="40.68365" lon="-2.18085">
        <ele>1335.8</ele>
        <time>2021-10-09 10:12:42</time>
      </trkpt>
      <trkpt lat="40.68362" lon="-2.1808">
        <ele>1335.8</ele>
        <time>2021-10-09 10:12:43</time>
      </trkpt>
      <trkpt lat="40.68359" lon="-2.18074">
        <ele>1335.8</ele>
        <time>2021-10-09 10:12:44</time>
      </trkpt>
      <trkpt lat="40.68356" lon="-2.18069">
        <ele>1335.8</ele>
        <time>2021-10-09 10:12:45</time>
      </trkpt>
      <trkpt lat="40.68353" lon="-2.18063">
        <ele>1335.8</ele>
        <time>2021-10-09 10:12:46</time>
      </trkpt>
      <trkpt lat="40.6835" lon="-2.18058">
        <ele>1335.8</ele>
        <time>2021-10-09 10:12:47</time>
      </trkpt>
      <trkpt lat="40.68347" lon="-2.18053">
        <ele>1336</ele>
        <time>2021-10-09 10:12:48</time>
      </trkpt>
      <trkpt lat="40.68344" lon="-2.18048">
        <ele>1336</ele>
        <time>2021-10-09 10:12:49</time>
      </trkpt>
      <trkpt lat="40.68341" lon="-2.18043">
        <ele>1336</ele>
        <time>2021-10-09 10:12:50</time>
      </trkpt>
      <trkpt lat="40.68338" lon="-2.18038">
        <ele>1336</ele>
        <time>2021-10-09 10:12:51</time>
      </trkpt>
      <trkpt lat="40.68335" lon="-2.18033">
        <ele>1336</ele>
        <time>2021-10-09 10:12:52</time>
      </trkpt>
      <trkpt lat="40.68333" lon="-2.18028">
        <ele>1336</ele>
        <time>2021-10-09 10:12:53</time>
      </trkpt>
      <trkpt lat="40.6833" lon="-2.18022">
        <ele>1336.2</ele>
        <time>2021-10-09 10:12:54</time>
      </trkpt>
      <trkpt lat="40.68327" lon="-2.18017">
        <ele>1336.2</ele>
        <time>2021-10-09 10:12:55</time>
      </trkpt>
      <trkpt lat="40.68325" lon="-2.18012">
        <ele>1336.2</ele>
        <time>2021-10-09 10:12:56</time>
      </trkpt>
      <trkpt lat="40.68322" lon="-2.18007">
        <ele>1336.6</ele>
        <time>2021-10-09 10:12:57</time>
      </trkpt>
      <trkpt lat="40.68319" lon="-2.18002">
        <ele>1336.6</ele>
        <time>2021-10-09 10:12:58</time>
      </trkpt>
      <trkpt lat="40.68316" lon="-2.17998">
        <ele>1336.6</ele>
        <time>2021-10-09 10:12:59</time>
      </trkpt>
      <trkpt lat="40.68313" lon="-2.17993">
        <ele>1337</ele>
        <time>2021-10-09 10:13:00</time>
      </trkpt>
      <trkpt lat="40.68311" lon="-2.17988">
        <ele>1337.2</ele>
        <time>2021-10-09 10:13:01</time>
      </trkpt>
      <trkpt lat="40.68308" lon="-2.17983">
        <ele>1337</ele>
        <time>2021-10-09 10:13:02</time>
      </trkpt>
      <trkpt lat="40.68305" lon="-2.17978">
        <ele>1337</ele>
        <time>2021-10-09 10:13:03</time>
      </trkpt>
      <trkpt lat="40.68302" lon="-2.17974">
        <ele>1337</ele>
        <time>2021-10-09 10:13:04</time>
      </trkpt>
      <trkpt lat="40.683" lon="-2.17969">
        <ele>1337</ele>
        <time>2021-10-09 10:13:05</time>
      </trkpt>
      <trkpt lat="40.68298" lon="-2.17965">
        <ele>1337</ele>
        <time>2021-10-09 10:13:06</time>
      </trkpt>
      <trkpt lat="40.68295" lon="-2.1796">
        <ele>1337</ele>
        <time>2021-10-09 10:13:07</time>
      </trkpt>
      <trkpt lat="40.68293" lon="-2.17956">
        <ele>1337</ele>
        <time>2021-10-09 10:13:08</time>
      </trkpt>
      <trkpt lat="40.6829" lon="-2.17951">
        <ele>1337.2</ele>
        <time>2021-10-09 10:13:09</time>
      </trkpt>
      <trkpt lat="40.68288" lon="-2.17947">
        <ele>1337.6</ele>
        <time>2021-10-09 10:13:10</time>
      </trkpt>
      <trkpt lat="40.68285" lon="-2.17943">
        <ele>1337.6</ele>
        <time>2021-10-09 10:13:11</time>
      </trkpt>
      <trkpt lat="40.68283" lon="-2.17939">
        <ele>1337.8</ele>
        <time>2021-10-09 10:13:12</time>
      </trkpt>
      <trkpt lat="40.68281" lon="-2.17935">
        <ele>1338</ele>
        <time>2021-10-09 10:13:13</time>
      </trkpt>
      <trkpt lat="40.68278" lon="-2.17932">
        <ele>1338</ele>
        <time>2021-10-09 10:13:14</time>
      </trkpt>
      <trkpt lat="40.68276" lon="-2.17928">
        <ele>1337.8</ele>
        <time>2021-10-09 10:13:15</time>
      </trkpt>
      <trkpt lat="40.68274" lon="-2.17924">
        <ele>1337.8</ele>
        <time>2021-10-09 10:13:16</time>
      </trkpt>
      <trkpt lat="40.68272" lon="-2.1792">
        <ele>1337.8</ele>
        <time>2021-10-09 10:13:17</time>
      </trkpt>
      <trkpt lat="40.68269" lon="-2.17916">
        <ele>1337.8</ele>
        <time>2021-10-09 10:13:18</time>
      </trkpt>
      <trkpt lat="40.68267" lon="-2.17912">
        <ele>1337.8</ele>
        <time>2021-10-09 10:13:19</time>
      </trkpt>
      <trkpt lat="40.68265" lon="-2.17908">
        <ele>1337.8</ele>
        <time>2021-10-09 10:13:20</time>
      </trkpt>
      <trkpt lat="40.68263" lon="-2.17904">
        <ele>1338.2</ele>
        <time>2021-10-09 10:13:21</time>
      </trkpt>
      <trkpt lat="40.68261" lon="-2.17901">
        <ele>1338.2</ele>
        <time>2021-10-09 10:13:22</time>
      </trkpt>
      <trkpt lat="40.68258" lon="-2.17897">
        <ele>1338.2</ele>
        <time>2021-10-09 10:13:23</time>
      </trkpt>
      <trkpt lat="40.68256" lon="-2.17893">
        <ele>1338.2</ele>
        <time>2021-10-09 10:13:24</time>
      </trkpt>
      <trkpt lat="40.68253" lon="-2.17889">
        <ele>1338.2</ele>
        <time>2021-10-09 10:13:25</time>
      </trkpt>
      <trkpt lat="40.68251" lon="-2.17885">
        <ele>1338.4</ele>
        <time>2021-10-09 10:13:26</time>
      </trkpt>
      <trkpt lat="40.68248" lon="-2.17881">
        <ele>1338.4</ele>
        <time>2021-10-09 10:13:27</time>
      </trkpt>
      <trkpt lat="40.68246" lon="-2.17876">
        <ele>1338.4</ele>
        <time>2021-10-09 10:13:28</time>
      </trkpt>
      <trkpt lat="40.68243" lon="-2.17873">
        <ele>1338.8</ele>
        <time>2021-10-09 10:13:29</time>
      </trkpt>
      <trkpt lat="40.6824" lon="-2.17869">
        <ele>1338.8</ele>
        <time>2021-10-09 10:13:30</time>
      </trkpt>
      <trkpt lat="40.68238" lon="-2.17865">
        <ele>1339</ele>
        <time>2021-10-09 10:13:31</time>
      </trkpt>
      <trkpt lat="40.68235" lon="-2.1786">
        <ele>1339</ele>
        <time>2021-10-09 10:13:32</time>
      </trkpt>
      <trkpt lat="40.68233" lon="-2.17856">
        <ele>1339</ele>
        <time>2021-10-09 10:13:33</time>
      </trkpt>
      <trkpt lat="40.6823" lon="-2.17852">
        <ele>1339.4</ele>
        <time>2021-10-09 10:13:34</time>
      </trkpt>
      <trkpt lat="40.68228" lon="-2.17848">
        <ele>1339.4</ele>
        <time>2021-10-09 10:13:35</time>
      </trkpt>
      <trkpt lat="40.68225" lon="-2.17844">
        <ele>1339.4</ele>
        <time>2021-10-09 10:13:36</time>
      </trkpt>
      <trkpt lat="40.68223" lon="-2.1784">
        <ele>1339.4</ele>
        <time>2021-10-09 10:13:37</time>
      </trkpt>
      <trkpt lat="40.68221" lon="-2.17835">
        <ele>1339.6</ele>
        <time>2021-10-09 10:13:38</time>
      </trkpt>
      <trkpt lat="40.68218" lon="-2.17831">
        <ele>1339.6</ele>
        <time>2021-10-09 10:13:39</time>
      </trkpt>
      <trkpt lat="40.68216" lon="-2.17827">
        <ele>1339.8</ele>
        <time>2021-10-09 10:13:40</time>
      </trkpt>
      <trkpt lat="40.68214" lon="-2.17823">
        <ele>1339.8</ele>
        <time>2021-10-09 10:13:41</time>
      </trkpt>
      <trkpt lat="40.68211" lon="-2.17818">
        <ele>1340.2</ele>
        <time>2021-10-09 10:13:42</time>
      </trkpt>
      <trkpt lat="40.68209" lon="-2.17814">
        <ele>1340.2</ele>
        <time>2021-10-09 10:13:43</time>
      </trkpt>
      <trkpt lat="40.68207" lon="-2.17809">
        <ele>1340.2</ele>
        <time>2021-10-09 10:13:44</time>
      </trkpt>
      <trkpt lat="40.68205" lon="-2.17805">
        <ele>1340.2</ele>
        <time>2021-10-09 10:13:45</time>
      </trkpt>
      <trkpt lat="40.68202" lon="-2.178">
        <ele>1340.2</ele>
        <time>2021-10-09 10:13:46</time>
      </trkpt>
      <trkpt lat="40.682" lon="-2.17796">
        <ele>1340.2</ele>
        <time>2021-10-09 10:13:47</time>
      </trkpt>
      <trkpt lat="40.68198" lon="-2.17792">
        <ele>1340.2</ele>
        <time>2021-10-09 10:13:48</time>
      </trkpt>
      <trkpt lat="40.68195" lon="-2.17787">
        <ele>1340.4</ele>
        <time>2021-10-09 10:13:49</time>
      </trkpt>
      <trkpt lat="40.68192" lon="-2.17783">
        <ele>1340.2</ele>
        <time>2021-10-09 10:13:50</time>
      </trkpt>
      <trkpt lat="40.6819" lon="-2.17778">
        <ele>1340.2</ele>
        <time>2021-10-09 10:13:51</time>
      </trkpt>
      <trkpt lat="40.68188" lon="-2.17774">
        <ele>1340.2</ele>
        <time>2021-10-09 10:13:52</time>
      </trkpt>
      <trkpt lat="40.68186" lon="-2.1777">
        <ele>1340.2</ele>
        <time>2021-10-09 10:13:53</time>
      </trkpt>
      <trkpt lat="40.68184" lon="-2.17766">
        <ele>1340.2</ele>
        <time>2021-10-09 10:13:54</time>
      </trkpt>
      <trkpt lat="40.68181" lon="-2.17761">
        <ele>1340.4</ele>
        <time>2021-10-09 10:13:55</time>
      </trkpt>
      <trkpt lat="40.68179" lon="-2.17757">
        <ele>1340.4</ele>
        <time>2021-10-09 10:13:56</time>
      </trkpt>
      <trkpt lat="40.68177" lon="-2.17753">
        <ele>1340.4</ele>
        <time>2021-10-09 10:13:57</time>
      </trkpt>
      <trkpt lat="40.68175" lon="-2.17749">
        <ele>1340.4</ele>
        <time>2021-10-09 10:13:58</time>
      </trkpt>
      <trkpt lat="40.68173" lon="-2.17745">
        <ele>1340.6</ele>
        <time>2021-10-09 10:13:59</time>
      </trkpt>
      <trkpt lat="40.68171" lon="-2.17741">
        <ele>1340.6</ele>
        <time>2021-10-09 10:14:00</time>
      </trkpt>
      <trkpt lat="40.68169" lon="-2.17738">
        <ele>1340.6</ele>
        <time>2021-10-09 10:14:01</time>
      </trkpt>
      <trkpt lat="40.68167" lon="-2.17732">
        <ele>1340.6</ele>
        <time>2021-10-09 10:14:02</time>
      </trkpt>
      <trkpt lat="40.68165" lon="-2.17728">
        <ele>1340.6</ele>
        <time>2021-10-09 10:14:03</time>
      </trkpt>
      <trkpt lat="40.68163" lon="-2.17724">
        <ele>1340.6</ele>
        <time>2021-10-09 10:14:04</time>
      </trkpt>
      <trkpt lat="40.6816" lon="-2.1772">
        <ele>1340.6</ele>
        <time>2021-10-09 10:14:05</time>
      </trkpt>
      <trkpt lat="40.68158" lon="-2.17715">
        <ele>1340.8</ele>
        <time>2021-10-09 10:14:06</time>
      </trkpt>
      <trkpt lat="40.68156" lon="-2.17711">
        <ele>1340.8</ele>
        <time>2021-10-09 10:14:07</time>
      </trkpt>
      <trkpt lat="40.68153" lon="-2.17706">
        <ele>1340.8</ele>
        <time>2021-10-09 10:14:08</time>
      </trkpt>
      <trkpt lat="40.68151" lon="-2.17702">
        <ele>1340.8</ele>
        <time>2021-10-09 10:14:09</time>
      </trkpt>
      <trkpt lat="40.68149" lon="-2.17699">
        <ele>1340.8</ele>
        <time>2021-10-09 10:14:10</time>
      </trkpt>
      <trkpt lat="40.68147" lon="-2.17694">
        <ele>1341.2</ele>
        <time>2021-10-09 10:14:11</time>
      </trkpt>
      <trkpt lat="40.68146" lon="-2.1769">
        <ele>1341.2</ele>
        <time>2021-10-09 10:14:12</time>
      </trkpt>
      <trkpt lat="40.68143" lon="-2.17686">
        <ele>1341.4</ele>
        <time>2021-10-09 10:14:13</time>
      </trkpt>
      <trkpt lat="40.68141" lon="-2.17682">
        <ele>1341.4</ele>
        <time>2021-10-09 10:14:14</time>
      </trkpt>
      <trkpt lat="40.68138" lon="-2.17678">
        <ele>1341.4</ele>
        <time>2021-10-09 10:14:15</time>
      </trkpt>
      <trkpt lat="40.68136" lon="-2.17674">
        <ele>1341.4</ele>
        <time>2021-10-09 10:14:16</time>
      </trkpt>
      <trkpt lat="40.68133" lon="-2.17669">
        <ele>1341.4</ele>
        <time>2021-10-09 10:14:17</time>
      </trkpt>
      <trkpt lat="40.68131" lon="-2.17665">
        <ele>1341.4</ele>
        <time>2021-10-09 10:14:18</time>
      </trkpt>
      <trkpt lat="40.68129" lon="-2.17661">
        <ele>1341.6</ele>
        <time>2021-10-09 10:14:19</time>
      </trkpt>
      <trkpt lat="40.68127" lon="-2.17656">
        <ele>1341.6</ele>
        <time>2021-10-09 10:14:20</time>
      </trkpt>
      <trkpt lat="40.68125" lon="-2.17651">
        <ele>1341.6</ele>
        <time>2021-10-09 10:14:21</time>
      </trkpt>
      <trkpt lat="40.68123" lon="-2.17646">
        <ele>1341.6</ele>
        <time>2021-10-09 10:14:22</time>
      </trkpt>
      <trkpt lat="40.6812" lon="-2.17642">
        <ele>1341.8</ele>
        <time>2021-10-09 10:14:23</time>
      </trkpt>
      <trkpt lat="40.68118" lon="-2.17637">
        <ele>1341.8</ele>
        <time>2021-10-09 10:14:24</time>
      </trkpt>
      <trkpt lat="40.68115" lon="-2.17633">
        <ele>1341.8</ele>
        <time>2021-10-09 10:14:25</time>
      </trkpt>
      <trkpt lat="40.68112" lon="-2.17629">
        <ele>1342</ele>
        <time>2021-10-09 10:14:26</time>
      </trkpt>
      <trkpt lat="40.6811" lon="-2.17625">
        <ele>1342</ele>
        <time>2021-10-09 10:14:27</time>
      </trkpt>
      <trkpt lat="40.68108" lon="-2.17621">
        <ele>1342</ele>
        <time>2021-10-09 10:14:28</time>
      </trkpt>
      <trkpt lat="40.68105" lon="-2.17616">
        <ele>1342</ele>
        <time>2021-10-09 10:14:29</time>
      </trkpt>
      <trkpt lat="40.68104" lon="-2.17612">
        <ele>1342</ele>
        <time>2021-10-09 10:14:30</time>
      </trkpt>
      <trkpt lat="40.68101" lon="-2.17607">
        <ele>1342</ele>
        <time>2021-10-09 10:14:31</time>
      </trkpt>
      <trkpt lat="40.68098" lon="-2.17603">
        <ele>1342</ele>
        <time>2021-10-09 10:14:32</time>
      </trkpt>
      <trkpt lat="40.68097" lon="-2.17598">
        <ele>1342</ele>
        <time>2021-10-09 10:14:33</time>
      </trkpt>
      <trkpt lat="40.68094" lon="-2.17594">
        <ele>1342</ele>
        <time>2021-10-09 10:14:34</time>
      </trkpt>
      <trkpt lat="40.68092" lon="-2.17589">
        <ele>1342.6</ele>
        <time>2021-10-09 10:14:35</time>
      </trkpt>
      <trkpt lat="40.68089" lon="-2.17585">
        <ele>1342.6</ele>
        <time>2021-10-09 10:14:36</time>
      </trkpt>
      <trkpt lat="40.68088" lon="-2.17581">
        <ele>1342.6</ele>
        <time>2021-10-09 10:14:37</time>
      </trkpt>
      <trkpt lat="40.68085" lon="-2.17576">
        <ele>1342.6</ele>
        <time>2021-10-09 10:14:38</time>
      </trkpt>
      <trkpt lat="40.68083" lon="-2.17572">
        <ele>1342.6</ele>
        <time>2021-10-09 10:14:39</time>
      </trkpt>
      <trkpt lat="40.6808" lon="-2.17568">
        <ele>1342.6</ele>
        <time>2021-10-09 10:14:40</time>
      </trkpt>
      <trkpt lat="40.68078" lon="-2.17563">
        <ele>1342.6</ele>
        <time>2021-10-09 10:14:41</time>
      </trkpt>
      <trkpt lat="40.68074" lon="-2.17559">
        <ele>1342.6</ele>
        <time>2021-10-09 10:14:42</time>
      </trkpt>
      <trkpt lat="40.68073" lon="-2.17555">
        <ele>1342.6</ele>
        <time>2021-10-09 10:14:43</time>
      </trkpt>
      <trkpt lat="40.6807" lon="-2.17551">
        <ele>1342.6</ele>
        <time>2021-10-09 10:14:44</time>
      </trkpt>
      <trkpt lat="40.68069" lon="-2.17547">
        <ele>1342.6</ele>
        <time>2021-10-09 10:14:45</time>
      </trkpt>
      <trkpt lat="40.68067" lon="-2.17543">
        <ele>1342.6</ele>
        <time>2021-10-09 10:14:46</time>
      </trkpt>
      <trkpt lat="40.68064" lon="-2.17539">
        <ele>1343.4</ele>
        <time>2021-10-09 10:14:47</time>
      </trkpt>
      <trkpt lat="40.68063" lon="-2.17534">
        <ele>1343.4</ele>
        <time>2021-10-09 10:14:48</time>
      </trkpt>
      <trkpt lat="40.6806" lon="-2.1753">
        <ele>1343.4</ele>
        <time>2021-10-09 10:14:49</time>
      </trkpt>
      <trkpt lat="40.68058" lon="-2.17525">
        <ele>1343</ele>
        <time>2021-10-09 10:14:50</time>
      </trkpt>
      <trkpt lat="40.68056" lon="-2.17521">
        <ele>1343</ele>
        <time>2021-10-09 10:14:51</time>
      </trkpt>
      <trkpt lat="40.68053" lon="-2.17518">
        <ele>1343</ele>
        <time>2021-10-09 10:14:52</time>
      </trkpt>
      <trkpt lat="40.68051" lon="-2.17513">
        <ele>1343</ele>
        <time>2021-10-09 10:14:53</time>
      </trkpt>
      <trkpt lat="40.68048" lon="-2.17509">
        <ele>1343.4</ele>
        <time>2021-10-09 10:14:54</time>
      </trkpt>
      <trkpt lat="40.68046" lon="-2.17504">
        <ele>1343.4</ele>
        <time>2021-10-09 10:14:55</time>
      </trkpt>
      <trkpt lat="40.68043" lon="-2.175">
        <ele>1343.6</ele>
        <time>2021-10-09 10:14:56</time>
      </trkpt>
      <trkpt lat="40.68041" lon="-2.17496">
        <ele>1343.6</ele>
        <time>2021-10-09 10:14:57</time>
      </trkpt>
      <trkpt lat="40.68038" lon="-2.17492">
        <ele>1343.6</ele>
        <time>2021-10-09 10:14:58</time>
      </trkpt>
      <trkpt lat="40.68036" lon="-2.17487">
        <ele>1343.8</ele>
        <time>2021-10-09 10:14:59</time>
      </trkpt>
      <trkpt lat="40.68033" lon="-2.17483">
        <ele>1343.8</ele>
        <time>2021-10-09 10:15:00</time>
      </trkpt>
      <trkpt lat="40.6803" lon="-2.17479">
        <ele>1343.8</ele>
        <time>2021-10-09 10:15:01</time>
      </trkpt>
      <trkpt lat="40.68027" lon="-2.17475">
        <ele>1343.8</ele>
        <time>2021-10-09 10:15:02</time>
      </trkpt>
      <trkpt lat="40.68025" lon="-2.1747">
        <ele>1344</ele>
        <time>2021-10-09 10:15:03</time>
      </trkpt>
      <trkpt lat="40.68022" lon="-2.17466">
        <ele>1344</ele>
        <time>2021-10-09 10:15:04</time>
      </trkpt>
      <trkpt lat="40.68019" lon="-2.17462">
        <ele>1344</ele>
        <time>2021-10-09 10:15:05</time>
      </trkpt>
      <trkpt lat="40.68016" lon="-2.17458">
        <ele>1344</ele>
        <time>2021-10-09 10:15:06</time>
      </trkpt>
      <trkpt lat="40.68013" lon="-2.17454">
        <ele>1344</ele>
        <time>2021-10-09 10:15:07</time>
      </trkpt>
      <trkpt lat="40.6801" lon="-2.1745">
        <ele>1344</ele>
        <time>2021-10-09 10:15:08</time>
      </trkpt>
      <trkpt lat="40.68008" lon="-2.17445">
        <ele>1344.2</ele>
        <time>2021-10-09 10:15:09</time>
      </trkpt>
      <trkpt lat="40.68005" lon="-2.17441">
        <ele>1344.2</ele>
        <time>2021-10-09 10:15:10</time>
      </trkpt>
      <trkpt lat="40.68002" lon="-2.17437">
        <ele>1344.2</ele>
        <time>2021-10-09 10:15:11</time>
      </trkpt>
      <trkpt lat="40.67999" lon="-2.17433">
        <ele>1344.2</ele>
        <time>2021-10-09 10:15:12</time>
      </trkpt>
      <trkpt lat="40.67996" lon="-2.17428">
        <ele>1344.2</ele>
        <time>2021-10-09 10:15:13</time>
      </trkpt>
      <trkpt lat="40.67993" lon="-2.17424">
        <ele>1344.2</ele>
        <time>2021-10-09 10:15:14</time>
      </trkpt>
      <trkpt lat="40.6799" lon="-2.1742">
        <ele>1344.4</ele>
        <time>2021-10-09 10:15:15</time>
      </trkpt>
      <trkpt lat="40.67987" lon="-2.17416">
        <ele>1344.4</ele>
        <time>2021-10-09 10:15:16</time>
      </trkpt>
      <trkpt lat="40.67984" lon="-2.17412">
        <ele>1344.4</ele>
        <time>2021-10-09 10:15:17</time>
      </trkpt>
      <trkpt lat="40.67981" lon="-2.17407">
        <ele>1344.4</ele>
        <time>2021-10-09 10:15:18</time>
      </trkpt>
      <trkpt lat="40.67978" lon="-2.17404">
        <ele>1344.4</ele>
        <time>2021-10-09 10:15:19</time>
      </trkpt>
      <trkpt lat="40.67975" lon="-2.17399">
        <ele>1344.4</ele>
        <time>2021-10-09 10:15:20</time>
      </trkpt>
      <trkpt lat="40.67972" lon="-2.17395">
        <ele>1344.4</ele>
        <time>2021-10-09 10:15:21</time>
      </trkpt>
      <trkpt lat="40.67968" lon="-2.17392">
        <ele>1344.4</ele>
        <time>2021-10-09 10:15:22</time>
      </trkpt>
      <trkpt lat="40.67964" lon="-2.17389">
        <ele>1344.4</ele>
        <time>2021-10-09 10:15:23</time>
      </trkpt>
      <trkpt lat="40.67961" lon="-2.17385">
        <ele>1344.4</ele>
        <time>2021-10-09 10:15:24</time>
      </trkpt>
      <trkpt lat="40.67958" lon="-2.1738">
        <ele>1344.4</ele>
        <time>2021-10-09 10:15:25</time>
      </trkpt>
      <trkpt lat="40.67955" lon="-2.17376">
        <ele>1344.2</ele>
        <time>2021-10-09 10:15:26</time>
      </trkpt>
      <trkpt lat="40.67951" lon="-2.17371">
        <ele>1344.2</ele>
        <time>2021-10-09 10:15:27</time>
      </trkpt>
      <trkpt lat="40.67948" lon="-2.17367">
        <ele>1344.2</ele>
        <time>2021-10-09 10:15:28</time>
      </trkpt>
      <trkpt lat="40.67944" lon="-2.17362">
        <ele>1344.2</ele>
        <time>2021-10-09 10:15:29</time>
      </trkpt>
      <trkpt lat="40.67941" lon="-2.17358">
        <ele>1344.2</ele>
        <time>2021-10-09 10:15:30</time>
      </trkpt>
      <trkpt lat="40.67938" lon="-2.17353">
        <ele>1344.2</ele>
        <time>2021-10-09 10:15:31</time>
      </trkpt>
      <trkpt lat="40.67935" lon="-2.17348">
        <ele>1344.4</ele>
        <time>2021-10-09 10:15:32</time>
      </trkpt>
      <trkpt lat="40.67932" lon="-2.17343">
        <ele>1344.4</ele>
        <time>2021-10-09 10:15:33</time>
      </trkpt>
      <trkpt lat="40.67928" lon="-2.17339">
        <ele>1344.8</ele>
        <time>2021-10-09 10:15:34</time>
      </trkpt>
      <trkpt lat="40.67925" lon="-2.17334">
        <ele>1344.8</ele>
        <time>2021-10-09 10:15:35</time>
      </trkpt>
      <trkpt lat="40.67922" lon="-2.1733">
        <ele>1344.8</ele>
        <time>2021-10-09 10:15:36</time>
      </trkpt>
      <trkpt lat="40.67919" lon="-2.17325">
        <ele>1344.8</ele>
        <time>2021-10-09 10:15:37</time>
      </trkpt>
      <trkpt lat="40.67916" lon="-2.17321">
        <ele>1344.8</ele>
        <time>2021-10-09 10:15:38</time>
      </trkpt>
      <trkpt lat="40.67913" lon="-2.17317">
        <ele>1345.2</ele>
        <time>2021-10-09 10:15:39</time>
      </trkpt>
      <trkpt lat="40.6791" lon="-2.17313">
        <ele>1345.2</ele>
        <time>2021-10-09 10:15:40</time>
      </trkpt>
      <trkpt lat="40.67907" lon="-2.17307">
        <ele>1345.2</ele>
        <time>2021-10-09 10:15:41</time>
      </trkpt>
      <trkpt lat="40.67904" lon="-2.17303">
        <ele>1345.2</ele>
        <time>2021-10-09 10:15:42</time>
      </trkpt>
      <trkpt lat="40.67901" lon="-2.17298">
        <ele>1345.2</ele>
        <time>2021-10-09 10:15:43</time>
      </trkpt>
      <trkpt lat="40.67898" lon="-2.17294">
        <ele>1345.4</ele>
        <time>2021-10-09 10:15:44</time>
      </trkpt>
      <trkpt lat="40.67895" lon="-2.17289">
        <ele>1345.8</ele>
        <time>2021-10-09 10:15:45</time>
      </trkpt>
      <trkpt lat="40.67892" lon="-2.17285">
        <ele>1345.8</ele>
        <time>2021-10-09 10:15:46</time>
      </trkpt>
      <trkpt lat="40.67889" lon="-2.17281">
        <ele>1345.8</ele>
        <time>2021-10-09 10:15:47</time>
      </trkpt>
      <trkpt lat="40.67886" lon="-2.17277">
        <ele>1345.8</ele>
        <time>2021-10-09 10:15:48</time>
      </trkpt>
      <trkpt lat="40.67882" lon="-2.17272">
        <ele>1346</ele>
        <time>2021-10-09 10:15:49</time>
      </trkpt>
      <trkpt lat="40.6788" lon="-2.17268">
        <ele>1346</ele>
        <time>2021-10-09 10:15:50</time>
      </trkpt>
      <trkpt lat="40.67876" lon="-2.17263">
        <ele>1346</ele>
        <time>2021-10-09 10:15:51</time>
      </trkpt>
      <trkpt lat="40.67873" lon="-2.17259">
        <ele>1346.4</ele>
        <time>2021-10-09 10:15:52</time>
      </trkpt>
      <trkpt lat="40.6787" lon="-2.17255">
        <ele>1346.4</ele>
        <time>2021-10-09 10:15:53</time>
      </trkpt>
      <trkpt lat="40.67867" lon="-2.17251">
        <ele>1346.4</ele>
        <time>2021-10-09 10:15:54</time>
      </trkpt>
      <trkpt lat="40.67864" lon="-2.17246">
        <ele>1346.4</ele>
        <time>2021-10-09 10:15:55</time>
      </trkpt>
      <trkpt lat="40.6786" lon="-2.17242">
        <ele>1346.4</ele>
        <time>2021-10-09 10:15:56</time>
      </trkpt>
      <trkpt lat="40.67856" lon="-2.17238">
        <ele>1346.4</ele>
        <time>2021-10-09 10:15:57</time>
      </trkpt>
      <trkpt lat="40.67853" lon="-2.17233">
        <ele>1346.4</ele>
        <time>2021-10-09 10:15:58</time>
      </trkpt>
      <trkpt lat="40.67848" lon="-2.17229">
        <ele>1346.4</ele>
        <time>2021-10-09 10:15:59</time>
      </trkpt>
      <trkpt lat="40.67845" lon="-2.17226">
        <ele>1346.6</ele>
        <time>2021-10-09 10:16:00</time>
      </trkpt>
      <trkpt lat="40.67841" lon="-2.17222">
        <ele>1346.6</ele>
        <time>2021-10-09 10:16:01</time>
      </trkpt>
      <trkpt lat="40.67837" lon="-2.17218">
        <ele>1346.6</ele>
        <time>2021-10-09 10:16:02</time>
      </trkpt>
      <trkpt lat="40.67833" lon="-2.17214">
        <ele>1346.6</ele>
        <time>2021-10-09 10:16:03</time>
      </trkpt>
      <trkpt lat="40.67829" lon="-2.17209">
        <ele>1346.6</ele>
        <time>2021-10-09 10:16:04</time>
      </trkpt>
      <trkpt lat="40.67825" lon="-2.17205">
        <ele>1346.6</ele>
        <time>2021-10-09 10:16:05</time>
      </trkpt>
      <trkpt lat="40.67821" lon="-2.17201">
        <ele>1346.6</ele>
        <time>2021-10-09 10:16:06</time>
      </trkpt>
      <trkpt lat="40.67817" lon="-2.17197">
        <ele>1346.6</ele>
        <time>2021-10-09 10:16:07</time>
      </trkpt>
      <trkpt lat="40.67813" lon="-2.17194">
        <ele>1346.8</ele>
        <time>2021-10-09 10:16:08</time>
      </trkpt>
      <trkpt lat="40.67809" lon="-2.1719">
        <ele>1346.8</ele>
        <time>2021-10-09 10:16:09</time>
      </trkpt>
      <trkpt lat="40.67804" lon="-2.17185">
        <ele>1346.8</ele>
        <time>2021-10-09 10:16:10</time>
      </trkpt>
      <trkpt lat="40.67799" lon="-2.17181">
        <ele>1346.8</ele>
        <time>2021-10-09 10:16:11</time>
      </trkpt>
      <trkpt lat="40.67795" lon="-2.17176">
        <ele>1346.8</ele>
        <time>2021-10-09 10:16:12</time>
      </trkpt>
      <trkpt lat="40.6779" lon="-2.17171">
        <ele>1346.8</ele>
        <time>2021-10-09 10:16:13</time>
      </trkpt>
      <trkpt lat="40.67785" lon="-2.17167">
        <ele>1346.8</ele>
        <time>2021-10-09 10:16:14</time>
      </trkpt>
      <trkpt lat="40.67782" lon="-2.17163">
        <ele>1346.8</ele>
        <time>2021-10-09 10:16:15</time>
      </trkpt>
      <trkpt lat="40.67777" lon="-2.17158">
        <ele>1346.8</ele>
        <time>2021-10-09 10:16:16</time>
      </trkpt>
      <trkpt lat="40.67773" lon="-2.17154">
        <ele>1346.6</ele>
        <time>2021-10-09 10:16:17</time>
      </trkpt>
      <trkpt lat="40.67768" lon="-2.1715">
        <ele>1346.6</ele>
        <time>2021-10-09 10:16:18</time>
      </trkpt>
      <trkpt lat="40.67764" lon="-2.17146">
        <ele>1346.6</ele>
        <time>2021-10-09 10:16:19</time>
      </trkpt>
      <trkpt lat="40.6776" lon="-2.1714">
        <ele>1346.4</ele>
        <time>2021-10-09 10:16:20</time>
      </trkpt>
      <trkpt lat="40.67755" lon="-2.17136">
        <ele>1346.4</ele>
        <time>2021-10-09 10:16:21</time>
      </trkpt>
      <trkpt lat="40.6775" lon="-2.17132">
        <ele>1346.4</ele>
        <time>2021-10-09 10:16:22</time>
      </trkpt>
      <trkpt lat="40.67746" lon="-2.17127">
        <ele>1346.2</ele>
        <time>2021-10-09 10:16:23</time>
      </trkpt>
      <trkpt lat="40.67741" lon="-2.17123">
        <ele>1346.2</ele>
        <time>2021-10-09 10:16:24</time>
      </trkpt>
      <trkpt lat="40.67737" lon="-2.17119">
        <ele>1346.2</ele>
        <time>2021-10-09 10:16:25</time>
      </trkpt>
      <trkpt lat="40.67733" lon="-2.17115">
        <ele>1346.2</ele>
        <time>2021-10-09 10:16:26</time>
      </trkpt>
      <trkpt lat="40.67728" lon="-2.17111">
        <ele>1346.2</ele>
        <time>2021-10-09 10:16:27</time>
      </trkpt>
      <trkpt lat="40.67723" lon="-2.17107">
        <ele>1346.2</ele>
        <time>2021-10-09 10:16:28</time>
      </trkpt>
      <trkpt lat="40.67719" lon="-2.17102">
        <ele>1346.2</ele>
        <time>2021-10-09 10:16:29</time>
      </trkpt>
      <trkpt lat="40.67714" lon="-2.17098">
        <ele>1346.2</ele>
        <time>2021-10-09 10:16:30</time>
      </trkpt>
      <trkpt lat="40.67709" lon="-2.17093">
        <ele>1346.2</ele>
        <time>2021-10-09 10:16:31</time>
      </trkpt>
      <trkpt lat="40.67704" lon="-2.17089">
        <ele>1346.2</ele>
        <time>2021-10-09 10:16:32</time>
      </trkpt>
      <trkpt lat="40.67699" lon="-2.17084">
        <ele>1346</ele>
        <time>2021-10-09 10:16:33</time>
      </trkpt>
      <trkpt lat="40.67694" lon="-2.17079">
        <ele>1346</ele>
        <time>2021-10-09 10:16:34</time>
      </trkpt>
      <trkpt lat="40.67689" lon="-2.17074">
        <ele>1345.8</ele>
        <time>2021-10-09 10:16:35</time>
      </trkpt>
      <trkpt lat="40.67684" lon="-2.1707">
        <ele>1345.8</ele>
        <time>2021-10-09 10:16:36</time>
      </trkpt>
      <trkpt lat="40.67679" lon="-2.17065">
        <ele>1345.8</ele>
        <time>2021-10-09 10:16:37</time>
      </trkpt>
      <trkpt lat="40.67675" lon="-2.1706">
        <ele>1345.8</ele>
        <time>2021-10-09 10:16:38</time>
      </trkpt>
      <trkpt lat="40.6767" lon="-2.17055">
        <ele>1345.6</ele>
        <time>2021-10-09 10:16:39</time>
      </trkpt>
      <trkpt lat="40.67665" lon="-2.1705">
        <ele>1345.6</ele>
        <time>2021-10-09 10:16:40</time>
      </trkpt>
      <trkpt lat="40.6766" lon="-2.17045">
        <ele>1345.2</ele>
        <time>2021-10-09 10:16:41</time>
      </trkpt>
      <trkpt lat="40.67655" lon="-2.17041">
        <ele>1345.2</ele>
        <time>2021-10-09 10:16:42</time>
      </trkpt>
      <trkpt lat="40.6765" lon="-2.17036">
        <ele>1345.2</ele>
        <time>2021-10-09 10:16:43</time>
      </trkpt>
      <trkpt lat="40.67645" lon="-2.17031">
        <ele>1345.2</ele>
        <time>2021-10-09 10:16:44</time>
      </trkpt>
      <trkpt lat="40.67641" lon="-2.17027">
        <ele>1345.2</ele>
        <time>2021-10-09 10:16:45</time>
      </trkpt>
      <trkpt lat="40.67636" lon="-2.17023">
        <ele>1345</ele>
        <time>2021-10-09 10:16:46</time>
      </trkpt>
      <trkpt lat="40.67631" lon="-2.17019">
        <ele>1345</ele>
        <time>2021-10-09 10:16:47</time>
      </trkpt>
      <trkpt lat="40.67626" lon="-2.17015">
        <ele>1345</ele>
        <time>2021-10-09 10:16:48</time>
      </trkpt>
      <trkpt lat="40.67621" lon="-2.1701">
        <ele>1345</ele>
        <time>2021-10-09 10:16:49</time>
      </trkpt>
      <trkpt lat="40.67616" lon="-2.17006">
        <ele>1345</ele>
        <time>2021-10-09 10:16:50</time>
      </trkpt>
      <trkpt lat="40.67611" lon="-2.17002">
        <ele>1345</ele>
        <time>2021-10-09 10:16:51</time>
      </trkpt>
      <trkpt lat="40.67606" lon="-2.16998">
        <ele>1345</ele>
        <time>2021-10-09 10:16:52</time>
      </trkpt>
      <trkpt lat="40.67601" lon="-2.16995">
        <ele>1345</ele>
        <time>2021-10-09 10:16:53</time>
      </trkpt>
      <trkpt lat="40.67595" lon="-2.16992">
        <ele>1345</ele>
        <time>2021-10-09 10:16:54</time>
      </trkpt>
      <trkpt lat="40.6759" lon="-2.16989">
        <ele>1345</ele>
        <time>2021-10-09 10:16:55</time>
      </trkpt>
      <trkpt lat="40.67584" lon="-2.16985">
        <ele>1345</ele>
        <time>2021-10-09 10:16:56</time>
      </trkpt>
      <trkpt lat="40.67579" lon="-2.16982">
        <ele>1345</ele>
        <time>2021-10-09 10:16:57</time>
      </trkpt>
      <trkpt lat="40.67573" lon="-2.16979">
        <ele>1345</ele>
        <time>2021-10-09 10:16:58</time>
      </trkpt>
      <trkpt lat="40.67568" lon="-2.16975">
        <ele>1345</ele>
        <time>2021-10-09 10:16:59</time>
      </trkpt>
      <trkpt lat="40.67563" lon="-2.16972">
        <ele>1345</ele>
        <time>2021-10-09 10:17:00</time>
      </trkpt>
      <trkpt lat="40.67557" lon="-2.16968">
        <ele>1345</ele>
        <time>2021-10-09 10:17:01</time>
      </trkpt>
      <trkpt lat="40.67552" lon="-2.16965">
        <ele>1345</ele>
        <time>2021-10-09 10:17:02</time>
      </trkpt>
      <trkpt lat="40.67546" lon="-2.16962">
        <ele>1345</ele>
        <time>2021-10-09 10:17:03</time>
      </trkpt>
      <trkpt lat="40.67541" lon="-2.16959">
        <ele>1345</ele>
        <time>2021-10-09 10:17:04</time>
      </trkpt>
      <trkpt lat="40.67535" lon="-2.16955">
        <ele>1345</ele>
        <time>2021-10-09 10:17:05</time>
      </trkpt>
      <trkpt lat="40.6753" lon="-2.16952">
        <ele>1344.6</ele>
        <time>2021-10-09 10:17:06</time>
      </trkpt>
      <trkpt lat="40.67524" lon="-2.16948">
        <ele>1344.6</ele>
        <time>2021-10-09 10:17:07</time>
      </trkpt>
      <trkpt lat="40.67519" lon="-2.16945">
        <ele>1344.6</ele>
        <time>2021-10-09 10:17:08</time>
      </trkpt>
      <trkpt lat="40.67514" lon="-2.16941">
        <ele>1344.6</ele>
        <time>2021-10-09 10:17:09</time>
      </trkpt>
      <trkpt lat="40.67508" lon="-2.16937">
        <ele>1344.4</ele>
        <time>2021-10-09 10:17:10</time>
      </trkpt>
      <trkpt lat="40.67503" lon="-2.16934">
        <ele>1344.4</ele>
        <time>2021-10-09 10:17:11</time>
      </trkpt>
      <trkpt lat="40.67498" lon="-2.16931">
        <ele>1344.4</ele>
        <time>2021-10-09 10:17:12</time>
      </trkpt>
      <trkpt lat="40.67492" lon="-2.16927">
        <ele>1344.4</ele>
        <time>2021-10-09 10:17:13</time>
      </trkpt>
      <trkpt lat="40.67487" lon="-2.16922">
        <ele>1344.4</ele>
        <time>2021-10-09 10:17:14</time>
      </trkpt>
      <trkpt lat="40.67482" lon="-2.16917">
        <ele>1344</ele>
        <time>2021-10-09 10:17:15</time>
      </trkpt>
      <trkpt lat="40.67477" lon="-2.16913">
        <ele>1344</ele>
        <time>2021-10-09 10:17:16</time>
      </trkpt>
      <trkpt lat="40.67473" lon="-2.16909">
        <ele>1344</ele>
        <time>2021-10-09 10:17:17</time>
      </trkpt>
      <trkpt lat="40.67467" lon="-2.16905">
        <ele>1344</ele>
        <time>2021-10-09 10:17:18</time>
      </trkpt>
      <trkpt lat="40.67463" lon="-2.16901">
        <ele>1344</ele>
        <time>2021-10-09 10:17:19</time>
      </trkpt>
      <trkpt lat="40.67459" lon="-2.16896">
        <ele>1344</ele>
        <time>2021-10-09 10:17:20</time>
      </trkpt>
      <trkpt lat="40.67454" lon="-2.16892">
        <ele>1344.4</ele>
        <time>2021-10-09 10:17:21</time>
      </trkpt>
      <trkpt lat="40.6745" lon="-2.16889">
        <ele>1344.4</ele>
        <time>2021-10-09 10:17:22</time>
      </trkpt>
      <trkpt lat="40.67445" lon="-2.16885">
        <ele>1344.4</ele>
        <time>2021-10-09 10:17:23</time>
      </trkpt>
      <trkpt lat="40.67441" lon="-2.16881">
        <ele>1344.4</ele>
        <time>2021-10-09 10:17:24</time>
      </trkpt>
      <trkpt lat="40.67437" lon="-2.16877">
        <ele>1344.4</ele>
        <time>2021-10-09 10:17:25</time>
      </trkpt>
      <trkpt lat="40.67433" lon="-2.16872">
        <ele>1344.4</ele>
        <time>2021-10-09 10:17:26</time>
      </trkpt>
      <trkpt lat="40.67428" lon="-2.16868">
        <ele>1344.4</ele>
        <time>2021-10-09 10:17:27</time>
      </trkpt>
      <trkpt lat="40.67424" lon="-2.16865">
        <ele>1344.6</ele>
        <time>2021-10-09 10:17:28</time>
      </trkpt>
      <trkpt lat="40.6742" lon="-2.16861">
        <ele>1344.6</ele>
        <time>2021-10-09 10:17:29</time>
      </trkpt>
      <trkpt lat="40.67416" lon="-2.16857">
        <ele>1344.8</ele>
        <time>2021-10-09 10:17:30</time>
      </trkpt>
      <trkpt lat="40.67412" lon="-2.16853">
        <ele>1344.8</ele>
        <time>2021-10-09 10:17:31</time>
      </trkpt>
      <trkpt lat="40.67408" lon="-2.16849">
        <ele>1345</ele>
        <time>2021-10-09 10:17:32</time>
      </trkpt>
      <trkpt lat="40.67404" lon="-2.16845">
        <ele>1345</ele>
        <time>2021-10-09 10:17:33</time>
      </trkpt>
      <trkpt lat="40.674" lon="-2.16842">
        <ele>1345</ele>
        <time>2021-10-09 10:17:34</time>
      </trkpt>
      <trkpt lat="40.67395" lon="-2.16838">
        <ele>1345</ele>
        <time>2021-10-09 10:17:35</time>
      </trkpt>
      <trkpt lat="40.67391" lon="-2.16835">
        <ele>1345</ele>
        <time>2021-10-09 10:17:36</time>
      </trkpt>
      <trkpt lat="40.67387" lon="-2.16831">
        <ele>1345</ele>
        <time>2021-10-09 10:17:37</time>
      </trkpt>
      <trkpt lat="40.67383" lon="-2.16827">
        <ele>1345</ele>
        <time>2021-10-09 10:17:38</time>
      </trkpt>
      <trkpt lat="40.67379" lon="-2.16823">
        <ele>1345</ele>
        <time>2021-10-09 10:17:39</time>
      </trkpt>
      <trkpt lat="40.67374" lon="-2.16819">
        <ele>1345.2</ele>
        <time>2021-10-09 10:17:40</time>
      </trkpt>
      <trkpt lat="40.6737" lon="-2.16815">
        <ele>1345.2</ele>
        <time>2021-10-09 10:17:41</time>
      </trkpt>
      <trkpt lat="40.67366" lon="-2.16811">
        <ele>1345.2</ele>
        <time>2021-10-09 10:17:42</time>
      </trkpt>
      <trkpt lat="40.67362" lon="-2.16807">
        <ele>1345.4</ele>
        <time>2021-10-09 10:17:43</time>
      </trkpt>
      <trkpt lat="40.67357" lon="-2.16803">
        <ele>1345.4</ele>
        <time>2021-10-09 10:17:44</time>
      </trkpt>
      <trkpt lat="40.67353" lon="-2.16799">
        <ele>1345.4</ele>
        <time>2021-10-09 10:17:45</time>
      </trkpt>
      <trkpt lat="40.67349" lon="-2.16795">
        <ele>1345.4</ele>
        <time>2021-10-09 10:17:46</time>
      </trkpt>
      <trkpt lat="40.67345" lon="-2.16791">
        <ele>1345.6</ele>
        <time>2021-10-09 10:17:47</time>
      </trkpt>
      <trkpt lat="40.6734" lon="-2.16788">
        <ele>1345.6</ele>
        <time>2021-10-09 10:17:48</time>
      </trkpt>
      <trkpt lat="40.67336" lon="-2.16784">
        <ele>1345.6</ele>
        <time>2021-10-09 10:17:49</time>
      </trkpt>
      <trkpt lat="40.67332" lon="-2.1678">
        <ele>1345.6</ele>
        <time>2021-10-09 10:17:50</time>
      </trkpt>
      <trkpt lat="40.67327" lon="-2.16776">
        <ele>1345.6</ele>
        <time>2021-10-09 10:17:51</time>
      </trkpt>
      <trkpt lat="40.67323" lon="-2.16772">
        <ele>1345.6</ele>
        <time>2021-10-09 10:17:52</time>
      </trkpt>
      <trkpt lat="40.67319" lon="-2.16768">
        <ele>1345.6</ele>
        <time>2021-10-09 10:17:53</time>
      </trkpt>
      <trkpt lat="40.67315" lon="-2.16765">
        <ele>1346.2</ele>
        <time>2021-10-09 10:17:54</time>
      </trkpt>
      <trkpt lat="40.67311" lon="-2.1676">
        <ele>1346.2</ele>
        <time>2021-10-09 10:17:55</time>
      </trkpt>
      <trkpt lat="40.67306" lon="-2.16756">
        <ele>1346.2</ele>
        <time>2021-10-09 10:17:56</time>
      </trkpt>
      <trkpt lat="40.67302" lon="-2.16752">
        <ele>1346.2</ele>
        <time>2021-10-09 10:17:57</time>
      </trkpt>
      <trkpt lat="40.67298" lon="-2.16749">
        <ele>1346.2</ele>
        <time>2021-10-09 10:17:58</time>
      </trkpt>
      <trkpt lat="40.67294" lon="-2.16745">
        <ele>1346.2</ele>
        <time>2021-10-09 10:17:59</time>
      </trkpt>
      <trkpt lat="40.67289" lon="-2.16742">
        <ele>1346.2</ele>
        <time>2021-10-09 10:18:00</time>
      </trkpt>
      <trkpt lat="40.67285" lon="-2.16737">
        <ele>1346.2</ele>
        <time>2021-10-09 10:18:01</time>
      </trkpt>
      <trkpt lat="40.6728" lon="-2.16735">
        <ele>1346.2</ele>
        <time>2021-10-09 10:18:02</time>
      </trkpt>
      <trkpt lat="40.67275" lon="-2.16732">
        <ele>1346.2</ele>
        <time>2021-10-09 10:18:03</time>
      </trkpt>
      <trkpt lat="40.6727" lon="-2.1673">
        <ele>1346.2</ele>
        <time>2021-10-09 10:18:04</time>
      </trkpt>
      <trkpt lat="40.67265" lon="-2.16728">
        <ele>1346.2</ele>
        <time>2021-10-09 10:18:05</time>
      </trkpt>
      <trkpt lat="40.6726" lon="-2.16727">
        <ele>1346.2</ele>
        <time>2021-10-09 10:18:06</time>
      </trkpt>
      <trkpt lat="40.67256" lon="-2.16727">
        <ele>1346.2</ele>
        <time>2021-10-09 10:18:07</time>
      </trkpt>
      <trkpt lat="40.67251" lon="-2.16727">
        <ele>1346.4</ele>
        <time>2021-10-09 10:18:08</time>
      </trkpt>
      <trkpt lat="40.67245" lon="-2.16728">
        <ele>1346.4</ele>
        <time>2021-10-09 10:18:09</time>
      </trkpt>
      <trkpt lat="40.67241" lon="-2.16729">
        <ele>1346.4</ele>
        <time>2021-10-09 10:18:10</time>
      </trkpt>
      <trkpt lat="40.67236" lon="-2.16731">
        <ele>1346.4</ele>
        <time>2021-10-09 10:18:11</time>
      </trkpt>
      <trkpt lat="40.6723" lon="-2.16732">
        <ele>1346.4</ele>
        <time>2021-10-09 10:18:12</time>
      </trkpt>
      <trkpt lat="40.67225" lon="-2.16734">
        <ele>1346.6</ele>
        <time>2021-10-09 10:18:13</time>
      </trkpt>
      <trkpt lat="40.6722" lon="-2.16735">
        <ele>1346.6</ele>
        <time>2021-10-09 10:18:14</time>
      </trkpt>
      <trkpt lat="40.67214" lon="-2.16736">
        <ele>1346.4</ele>
        <time>2021-10-09 10:18:15</time>
      </trkpt>
      <trkpt lat="40.67209" lon="-2.16737">
        <ele>1346.4</ele>
        <time>2021-10-09 10:18:16</time>
      </trkpt>
      <trkpt lat="40.67203" lon="-2.16739">
        <ele>1346.4</ele>
        <time>2021-10-09 10:18:17</time>
      </trkpt>
      <trkpt lat="40.67197" lon="-2.16741">
        <ele>1346.4</ele>
        <time>2021-10-09 10:18:18</time>
      </trkpt>
      <trkpt lat="40.67191" lon="-2.16743">
        <ele>1346.4</ele>
        <time>2021-10-09 10:18:19</time>
      </trkpt>
      <trkpt lat="40.67186" lon="-2.16745">
        <ele>1346.4</ele>
        <time>2021-10-09 10:18:20</time>
      </trkpt>
      <trkpt lat="40.6718" lon="-2.16747">
        <ele>1346.4</ele>
        <time>2021-10-09 10:18:21</time>
      </trkpt>
      <trkpt lat="40.67175" lon="-2.16751">
        <ele>1346.4</ele>
        <time>2021-10-09 10:18:22</time>
      </trkpt>
      <trkpt lat="40.6717" lon="-2.16754">
        <ele>1346</ele>
        <time>2021-10-09 10:18:23</time>
      </trkpt>
      <trkpt lat="40.67166" lon="-2.16758">
        <ele>1346</ele>
        <time>2021-10-09 10:18:24</time>
      </trkpt>
      <trkpt lat="40.67161" lon="-2.16763">
        <ele>1345.8</ele>
        <time>2021-10-09 10:18:25</time>
      </trkpt>
      <trkpt lat="40.67157" lon="-2.16766">
        <ele>1345.8</ele>
        <time>2021-10-09 10:18:26</time>
      </trkpt>
      <trkpt lat="40.67153" lon="-2.16771">
        <ele>1345.8</ele>
        <time>2021-10-09 10:18:27</time>
      </trkpt>
      <trkpt lat="40.67148" lon="-2.16774">
        <ele>1345.8</ele>
        <time>2021-10-09 10:18:28</time>
      </trkpt>
      <trkpt lat="40.67144" lon="-2.16779">
        <ele>1345.8</ele>
        <time>2021-10-09 10:18:29</time>
      </trkpt>
      <trkpt lat="40.67141" lon="-2.16783">
        <ele>1345.8</ele>
        <time>2021-10-09 10:18:30</time>
      </trkpt>
      <trkpt lat="40.67137" lon="-2.16788">
        <ele>1345.8</ele>
        <time>2021-10-09 10:18:31</time>
      </trkpt>
      <trkpt lat="40.67133" lon="-2.16793">
        <ele>1345.8</ele>
        <time>2021-10-09 10:18:32</time>
      </trkpt>
      <trkpt lat="40.6713" lon="-2.16798">
        <ele>1346</ele>
        <time>2021-10-09 10:18:33</time>
      </trkpt>
      <trkpt lat="40.67128" lon="-2.16803">
        <ele>1346</ele>
        <time>2021-10-09 10:18:34</time>
      </trkpt>
      <trkpt lat="40.67126" lon="-2.16809">
        <ele>1346</ele>
        <time>2021-10-09 10:18:35</time>
      </trkpt>
      <trkpt lat="40.67125" lon="-2.16814">
        <ele>1346</ele>
        <time>2021-10-09 10:18:36</time>
      </trkpt>
      <trkpt lat="40.67122" lon="-2.1682">
        <ele>1346</ele>
        <time>2021-10-09 10:18:37</time>
      </trkpt>
      <trkpt lat="40.6712" lon="-2.16827">
        <ele>1346.4</ele>
        <time>2021-10-09 10:18:38</time>
      </trkpt>
      <trkpt lat="40.67118" lon="-2.16833">
        <ele>1346.4</ele>
        <time>2021-10-09 10:18:39</time>
      </trkpt>
      <trkpt lat="40.67116" lon="-2.16839">
        <ele>1346.4</ele>
        <time>2021-10-09 10:18:40</time>
      </trkpt>
      <trkpt lat="40.67115" lon="-2.16845">
        <ele>1346.4</ele>
        <time>2021-10-09 10:18:41</time>
      </trkpt>
      <trkpt lat="40.67113" lon="-2.16851">
        <ele>1346.6</ele>
        <time>2021-10-09 10:18:42</time>
      </trkpt>
      <trkpt lat="40.67111" lon="-2.16855">
        <ele>1346.6</ele>
        <time>2021-10-09 10:18:43</time>
      </trkpt>
      <trkpt lat="40.6711" lon="-2.16859">
        <ele>1347</ele>
        <time>2021-10-09 10:18:44</time>
      </trkpt>
      <trkpt lat="40.67108" lon="-2.16862">
        <ele>1347</ele>
        <time>2021-10-09 10:18:45</time>
      </trkpt>
      <trkpt lat="40.67106" lon="-2.16867">
        <ele>1347</ele>
        <time>2021-10-09 10:18:46</time>
      </trkpt>
      <trkpt lat="40.67104" lon="-2.16869">
        <ele>1347</ele>
        <time>2021-10-09 10:18:47</time>
      </trkpt>
      <trkpt lat="40.67103" lon="-2.16874">
        <ele>1347</ele>
        <time>2021-10-09 10:18:48</time>
      </trkpt>
      <trkpt lat="40.67101" lon="-2.16879">
        <ele>1347</ele>
        <time>2021-10-09 10:18:49</time>
      </trkpt>
      <trkpt lat="40.67097" lon="-2.16883">
        <ele>1347.2</ele>
        <time>2021-10-09 10:18:50</time>
      </trkpt>
      <trkpt lat="40.67095" lon="-2.16888">
        <ele>1347.6</ele>
        <time>2021-10-09 10:18:51</time>
      </trkpt>
      <trkpt lat="40.67091" lon="-2.16891">
        <ele>1347.6</ele>
        <time>2021-10-09 10:18:52</time>
      </trkpt>
      <trkpt lat="40.67088" lon="-2.16894">
        <ele>1348</ele>
        <time>2021-10-09 10:18:53</time>
      </trkpt>
      <trkpt lat="40.67084" lon="-2.16897">
        <ele>1348.2</ele>
        <time>2021-10-09 10:18:54</time>
      </trkpt>
      <trkpt lat="40.67081" lon="-2.16899">
        <ele>1348.2</ele>
        <time>2021-10-09 10:18:55</time>
      </trkpt>
      <trkpt lat="40.67078" lon="-2.16902">
        <ele>1348.2</ele>
        <time>2021-10-09 10:18:56</time>
      </trkpt>
      <trkpt lat="40.67075" lon="-2.16903">
        <ele>1348.2</ele>
        <time>2021-10-09 10:18:57</time>
      </trkpt>
      <trkpt lat="40.67072" lon="-2.16904">
        <ele>1348.4</ele>
        <time>2021-10-09 10:18:58</time>
      </trkpt>
      <trkpt lat="40.67069" lon="-2.16905">
        <ele>1348.4</ele>
        <time>2021-10-09 10:18:59</time>
      </trkpt>
      <trkpt lat="40.67065" lon="-2.16906">
        <ele>1348.4</ele>
        <time>2021-10-09 10:19:00</time>
      </trkpt>
      <trkpt lat="40.67062" lon="-2.16907">
        <ele>1348.8</ele>
        <time>2021-10-09 10:19:01</time>
      </trkpt>
      <trkpt lat="40.67059" lon="-2.16907">
        <ele>1348.8</ele>
        <time>2021-10-09 10:19:02</time>
      </trkpt>
      <trkpt lat="40.67056" lon="-2.16907">
        <ele>1348.8</ele>
        <time>2021-10-09 10:19:03</time>
      </trkpt>
      <trkpt lat="40.67053" lon="-2.16907">
        <ele>1349</ele>
        <time>2021-10-09 10:19:04</time>
      </trkpt>
      <trkpt lat="40.6705" lon="-2.16907">
        <ele>1349</ele>
        <time>2021-10-09 10:19:05</time>
      </trkpt>
      <trkpt lat="40.67048" lon="-2.16907">
        <ele>1349</ele>
        <time>2021-10-09 10:19:06</time>
      </trkpt>
      <trkpt lat="40.67045" lon="-2.16907">
        <ele>1349.2</ele>
        <time>2021-10-09 10:19:07</time>
      </trkpt>
      <trkpt lat="40.67042" lon="-2.16906">
        <ele>1349.2</ele>
        <time>2021-10-09 10:19:08</time>
      </trkpt>
      <trkpt lat="40.67039" lon="-2.16906">
        <ele>1349.6</ele>
        <time>2021-10-09 10:19:09</time>
      </trkpt>
      <trkpt lat="40.67036" lon="-2.16906">
        <ele>1349.6</ele>
        <time>2021-10-09 10:19:10</time>
      </trkpt>
      <trkpt lat="40.67033" lon="-2.16905">
        <ele>1349.8</ele>
        <time>2021-10-09 10:19:11</time>
      </trkpt>
      <trkpt lat="40.67031" lon="-2.16904">
        <ele>1349.8</ele>
        <time>2021-10-09 10:19:12</time>
      </trkpt>
      <trkpt lat="40.67028" lon="-2.16904">
        <ele>1349.8</ele>
        <time>2021-10-09 10:19:13</time>
      </trkpt>
      <trkpt lat="40.67025" lon="-2.16903">
        <ele>1349.8</ele>
        <time>2021-10-09 10:19:14</time>
      </trkpt>
      <trkpt lat="40.67022" lon="-2.16902">
        <ele>1349.8</ele>
        <time>2021-10-09 10:19:15</time>
      </trkpt>
      <trkpt lat="40.67019" lon="-2.16901">
        <ele>1350</ele>
        <time>2021-10-09 10:19:16</time>
      </trkpt>
      <trkpt lat="40.67016" lon="-2.169">
        <ele>1350</ele>
        <time>2021-10-09 10:19:17</time>
      </trkpt>
      <trkpt lat="40.67012" lon="-2.169">
        <ele>1350</ele>
        <time>2021-10-09 10:19:18</time>
      </trkpt>
      <trkpt lat="40.67009" lon="-2.16898">
        <ele>1350.2</ele>
        <time>2021-10-09 10:19:19</time>
      </trkpt>
      <trkpt lat="40.67006" lon="-2.16897">
        <ele>1350.2</ele>
        <time>2021-10-09 10:19:20</time>
      </trkpt>
      <trkpt lat="40.67003" lon="-2.16896">
        <ele>1350.2</ele>
        <time>2021-10-09 10:19:21</time>
      </trkpt>
      <trkpt lat="40.67" lon="-2.16895">
        <ele>1350.2</ele>
        <time>2021-10-09 10:19:22</time>
      </trkpt>
      <trkpt lat="40.66996" lon="-2.16893">
        <ele>1350.6</ele>
        <time>2021-10-09 10:19:23</time>
      </trkpt>
      <trkpt lat="40.66994" lon="-2.16891">
        <ele>1350.6</ele>
        <time>2021-10-09 10:19:24</time>
      </trkpt>
      <trkpt lat="40.66991" lon="-2.16889">
        <ele>1350.6</ele>
        <time>2021-10-09 10:19:25</time>
      </trkpt>
      <trkpt lat="40.66988" lon="-2.16888">
        <ele>1351.2</ele>
        <time>2021-10-09 10:19:26</time>
      </trkpt>
      <trkpt lat="40.66985" lon="-2.16886">
        <ele>1351.2</ele>
        <time>2021-10-09 10:19:27</time>
      </trkpt>
      <trkpt lat="40.66982" lon="-2.16883">
        <ele>1351.2</ele>
        <time>2021-10-09 10:19:28</time>
      </trkpt>
      <trkpt lat="40.66979" lon="-2.16881">
        <ele>1351.2</ele>
        <time>2021-10-09 10:19:29</time>
      </trkpt>
      <trkpt lat="40.66976" lon="-2.16879">
        <ele>1351.2</ele>
        <time>2021-10-09 10:19:30</time>
      </trkpt>
      <trkpt lat="40.66972" lon="-2.16877">
        <ele>1351.2</ele>
        <time>2021-10-09 10:19:31</time>
      </trkpt>
      <trkpt lat="40.66969" lon="-2.16875">
        <ele>1351.2</ele>
        <time>2021-10-09 10:19:32</time>
      </trkpt>
      <trkpt lat="40.66966" lon="-2.16873">
        <ele>1351.2</ele>
        <time>2021-10-09 10:19:33</time>
      </trkpt>
      <trkpt lat="40.66962" lon="-2.1687">
        <ele>1351.2</ele>
        <time>2021-10-09 10:19:34</time>
      </trkpt>
      <trkpt lat="40.66959" lon="-2.16868">
        <ele>1351.2</ele>
        <time>2021-10-09 10:19:35</time>
      </trkpt>
      <trkpt lat="40.66956" lon="-2.16866">
        <ele>1351.2</ele>
        <time>2021-10-09 10:19:36</time>
      </trkpt>
      <trkpt lat="40.66953" lon="-2.16864">
        <ele>1351.2</ele>
        <time>2021-10-09 10:19:37</time>
      </trkpt>
      <trkpt lat="40.66949" lon="-2.16862">
        <ele>1351.2</ele>
        <time>2021-10-09 10:19:38</time>
      </trkpt>
      <trkpt lat="40.66946" lon="-2.1686">
        <ele>1351.2</ele>
        <time>2021-10-09 10:19:39</time>
      </trkpt>
      <trkpt lat="40.66943" lon="-2.16858">
        <ele>1351.2</ele>
        <time>2021-10-09 10:19:40</time>
      </trkpt>
      <trkpt lat="40.6694" lon="-2.16856">
        <ele>1351.4</ele>
        <time>2021-10-09 10:19:41</time>
      </trkpt>
      <trkpt lat="40.66937" lon="-2.16854">
        <ele>1351.4</ele>
        <time>2021-10-09 10:19:42</time>
      </trkpt>
      <trkpt lat="40.66933" lon="-2.16852">
        <ele>1351.4</ele>
        <time>2021-10-09 10:19:43</time>
      </trkpt>
      <trkpt lat="40.6693" lon="-2.1685">
        <ele>1351.4</ele>
        <time>2021-10-09 10:19:44</time>
      </trkpt>
      <trkpt lat="40.66927" lon="-2.16847">
        <ele>1351.4</ele>
        <time>2021-10-09 10:19:45</time>
      </trkpt>
      <trkpt lat="40.66924" lon="-2.16845">
        <ele>1351.4</ele>
        <time>2021-10-09 10:19:46</time>
      </trkpt>
      <trkpt lat="40.66921" lon="-2.16843">
        <ele>1351.6</ele>
        <time>2021-10-09 10:19:47</time>
      </trkpt>
      <trkpt lat="40.66917" lon="-2.16842">
        <ele>1351.6</ele>
        <time>2021-10-09 10:19:48</time>
      </trkpt>
      <trkpt lat="40.66914" lon="-2.1684">
        <ele>1351.6</ele>
        <time>2021-10-09 10:19:49</time>
      </trkpt>
      <trkpt lat="40.66911" lon="-2.16838">
        <ele>1351.8</ele>
        <time>2021-10-09 10:19:50</time>
      </trkpt>
      <trkpt lat="40.66908" lon="-2.16835">
        <ele>1351.8</ele>
        <time>2021-10-09 10:19:51</time>
      </trkpt>
      <trkpt lat="40.66905" lon="-2.16833">
        <ele>1352.2</ele>
        <time>2021-10-09 10:19:52</time>
      </trkpt>
      <trkpt lat="40.66902" lon="-2.16831">
        <ele>1352.2</ele>
        <time>2021-10-09 10:19:53</time>
      </trkpt>
      <trkpt lat="40.66899" lon="-2.16829">
        <ele>1352.2</ele>
        <time>2021-10-09 10:19:54</time>
      </trkpt>
      <trkpt lat="40.66896" lon="-2.16827">
        <ele>1352.4</ele>
        <time>2021-10-09 10:19:55</time>
      </trkpt>
      <trkpt lat="40.66893" lon="-2.16825">
        <ele>1352.4</ele>
        <time>2021-10-09 10:19:56</time>
      </trkpt>
      <trkpt lat="40.6689" lon="-2.16823">
        <ele>1352.4</ele>
        <time>2021-10-09 10:19:57</time>
      </trkpt>
      <trkpt lat="40.66887" lon="-2.16821">
        <ele>1352.4</ele>
        <time>2021-10-09 10:19:58</time>
      </trkpt>
      <trkpt lat="40.66883" lon="-2.16819">
        <ele>1352.4</ele>
        <time>2021-10-09 10:19:59</time>
      </trkpt>
      <trkpt lat="40.6688" lon="-2.16817">
        <ele>1352.4</ele>
        <time>2021-10-09 10:20:00</time>
      </trkpt>
      <trkpt lat="40.66877" lon="-2.16815">
        <ele>1352.6</ele>
        <time>2021-10-09 10:20:01</time>
      </trkpt>
      <trkpt lat="40.66874" lon="-2.16813">
        <ele>1352.6</ele>
        <time>2021-10-09 10:20:02</time>
      </trkpt>
      <trkpt lat="40.66871" lon="-2.16811">
        <ele>1352.6</ele>
        <time>2021-10-09 10:20:03</time>
      </trkpt>
      <trkpt lat="40.66868" lon="-2.16809">
        <ele>1353</ele>
        <time>2021-10-09 10:20:04</time>
      </trkpt>
      <trkpt lat="40.66865" lon="-2.16807">
        <ele>1353</ele>
        <time>2021-10-09 10:20:05</time>
      </trkpt>
      <trkpt lat="40.66862" lon="-2.16804">
        <ele>1353</ele>
        <time>2021-10-09 10:20:06</time>
      </trkpt>
      <trkpt lat="40.66859" lon="-2.16802">
        <ele>1353</ele>
        <time>2021-10-09 10:20:07</time>
      </trkpt>
      <trkpt lat="40.66856" lon="-2.168">
        <ele>1353.2</ele>
        <time>2021-10-09 10:20:08</time>
      </trkpt>
      <trkpt lat="40.66853" lon="-2.16798">
        <ele>1353.2</ele>
        <time>2021-10-09 10:20:09</time>
      </trkpt>
      <trkpt lat="40.6685" lon="-2.16796">
        <ele>1353.2</ele>
        <time>2021-10-09 10:20:10</time>
      </trkpt>
      <trkpt lat="40.66847" lon="-2.16793">
        <ele>1353.4</ele>
        <time>2021-10-09 10:20:11</time>
      </trkpt>
      <trkpt lat="40.66844" lon="-2.16791">
        <ele>1353.4</ele>
        <time>2021-10-09 10:20:12</time>
      </trkpt>
      <trkpt lat="40.66841" lon="-2.16789">
        <ele>1353.4</ele>
        <time>2021-10-09 10:20:13</time>
      </trkpt>
      <trkpt lat="40.66837" lon="-2.16787">
        <ele>1353.8</ele>
        <time>2021-10-09 10:20:14</time>
      </trkpt>
      <trkpt lat="40.66835" lon="-2.16785">
        <ele>1353.8</ele>
        <time>2021-10-09 10:20:15</time>
      </trkpt>
      <trkpt lat="40.66832" lon="-2.16783">
        <ele>1354.2</ele>
        <time>2021-10-09 10:20:16</time>
      </trkpt>
      <trkpt lat="40.66829" lon="-2.16781">
        <ele>1354.2</ele>
        <time>2021-10-09 10:20:17</time>
      </trkpt>
      <trkpt lat="40.66826" lon="-2.16779">
        <ele>1354.4</ele>
        <time>2021-10-09 10:20:18</time>
      </trkpt>
      <trkpt lat="40.66823" lon="-2.16777">
        <ele>1354.4</ele>
        <time>2021-10-09 10:20:19</time>
      </trkpt>
      <trkpt lat="40.66819" lon="-2.16775">
        <ele>1354.4</ele>
        <time>2021-10-09 10:20:20</time>
      </trkpt>
      <trkpt lat="40.66816" lon="-2.16773">
        <ele>1354.4</ele>
        <time>2021-10-09 10:20:21</time>
      </trkpt>
      <trkpt lat="40.66813" lon="-2.16771">
        <ele>1354.6</ele>
        <time>2021-10-09 10:20:22</time>
      </trkpt>
      <trkpt lat="40.6681" lon="-2.16769">
        <ele>1354.6</ele>
        <time>2021-10-09 10:20:23</time>
      </trkpt>
      <trkpt lat="40.66807" lon="-2.16767">
        <ele>1354.6</ele>
        <time>2021-10-09 10:20:24</time>
      </trkpt>
      <trkpt lat="40.66804" lon="-2.16764">
        <ele>1354.6</ele>
        <time>2021-10-09 10:20:25</time>
      </trkpt>
      <trkpt lat="40.66801" lon="-2.16762">
        <ele>1354.8</ele>
        <time>2021-10-09 10:20:26</time>
      </trkpt>
      <trkpt lat="40.66798" lon="-2.1676">
        <ele>1354.8</ele>
        <time>2021-10-09 10:20:27</time>
      </trkpt>
      <trkpt lat="40.66794" lon="-2.16758">
        <ele>1354.8</ele>
        <time>2021-10-09 10:20:28</time>
      </trkpt>
      <trkpt lat="40.66791" lon="-2.16756">
        <ele>1355</ele>
        <time>2021-10-09 10:20:29</time>
      </trkpt>
      <trkpt lat="40.66788" lon="-2.16754">
        <ele>1355</ele>
        <time>2021-10-09 10:20:30</time>
      </trkpt>
      <trkpt lat="40.66784" lon="-2.16751">
        <ele>1355</ele>
        <time>2021-10-09 10:20:31</time>
      </trkpt>
      <trkpt lat="40.66781" lon="-2.16749">
        <ele>1355</ele>
        <time>2021-10-09 10:20:32</time>
      </trkpt>
      <trkpt lat="40.66778" lon="-2.16747">
        <ele>1355</ele>
        <time>2021-10-09 10:20:33</time>
      </trkpt>
      <trkpt lat="40.66775" lon="-2.16745">
        <ele>1355.2</ele>
        <time>2021-10-09 10:20:34</time>
      </trkpt>
      <trkpt lat="40.66771" lon="-2.16743">
        <ele>1355.2</ele>
        <time>2021-10-09 10:20:35</time>
      </trkpt>
      <trkpt lat="40.66768" lon="-2.16741">
        <ele>1355.2</ele>
        <time>2021-10-09 10:20:36</time>
      </trkpt>
      <trkpt lat="40.66764" lon="-2.16739">
        <ele>1355.6</ele>
        <time>2021-10-09 10:20:37</time>
      </trkpt>
      <trkpt lat="40.66761" lon="-2.16737">
        <ele>1355.6</ele>
        <time>2021-10-09 10:20:38</time>
      </trkpt>
      <trkpt lat="40.66757" lon="-2.16735">
        <ele>1355.6</ele>
        <time>2021-10-09 10:20:39</time>
      </trkpt>
      <trkpt lat="40.66753" lon="-2.16733">
        <ele>1355.6</ele>
        <time>2021-10-09 10:20:40</time>
      </trkpt>
      <trkpt lat="40.66749" lon="-2.16731">
        <ele>1355.6</ele>
        <time>2021-10-09 10:20:41</time>
      </trkpt>
      <trkpt lat="40.66746" lon="-2.16728">
        <ele>1355.6</ele>
        <time>2021-10-09 10:20:42</time>
      </trkpt>
      <trkpt lat="40.66743" lon="-2.16725">
        <ele>1355.6</ele>
        <time>2021-10-09 10:20:43</time>
      </trkpt>
      <trkpt lat="40.66739" lon="-2.16722">
        <ele>1355.6</ele>
        <time>2021-10-09 10:20:44</time>
      </trkpt>
      <trkpt lat="40.66735" lon="-2.1672">
        <ele>1355.6</ele>
        <time>2021-10-09 10:20:45</time>
      </trkpt>
      <trkpt lat="40.66731" lon="-2.16718">
        <ele>1355.6</ele>
        <time>2021-10-09 10:20:46</time>
      </trkpt>
      <trkpt lat="40.66728" lon="-2.16716">
        <ele>1355.8</ele>
        <time>2021-10-09 10:20:47</time>
      </trkpt>
      <trkpt lat="40.66724" lon="-2.16713">
        <ele>1355.8</ele>
        <time>2021-10-09 10:20:48</time>
      </trkpt>
      <trkpt lat="40.6672" lon="-2.16711">
        <ele>1355.8</ele>
        <time>2021-10-09 10:20:49</time>
      </trkpt>
      <trkpt lat="40.66717" lon="-2.16708">
        <ele>1355.8</ele>
        <time>2021-10-09 10:20:50</time>
      </trkpt>
      <trkpt lat="40.66713" lon="-2.16706">
        <ele>1355.8</ele>
        <time>2021-10-09 10:20:51</time>
      </trkpt>
      <trkpt lat="40.6671" lon="-2.16704">
        <ele>1355.8</ele>
        <time>2021-10-09 10:20:52</time>
      </trkpt>
      <trkpt lat="40.66707" lon="-2.16702">
        <ele>1355.8</ele>
        <time>2021-10-09 10:20:53</time>
      </trkpt>
      <trkpt lat="40.66703" lon="-2.16699">
        <ele>1355.8</ele>
        <time>2021-10-09 10:20:54</time>
      </trkpt>
      <trkpt lat="40.66699" lon="-2.16697">
        <ele>1355.8</ele>
        <time>2021-10-09 10:20:55</time>
      </trkpt>
      <trkpt lat="40.66696" lon="-2.16695">
        <ele>1356</ele>
        <time>2021-10-09 10:20:56</time>
      </trkpt>
      <trkpt lat="40.66692" lon="-2.16692">
        <ele>1356</ele>
        <time>2021-10-09 10:20:57</time>
      </trkpt>
      <trkpt lat="40.66689" lon="-2.1669">
        <ele>1356</ele>
        <time>2021-10-09 10:20:58</time>
      </trkpt>
      <trkpt lat="40.66685" lon="-2.16688">
        <ele>1356</ele>
        <time>2021-10-09 10:20:59</time>
      </trkpt>
      <trkpt lat="40.66682" lon="-2.16685">
        <ele>1356</ele>
        <time>2021-10-09 10:21:00</time>
      </trkpt>
      <trkpt lat="40.66678" lon="-2.16683">
        <ele>1356.2</ele>
        <time>2021-10-09 10:21:01</time>
      </trkpt>
      <trkpt lat="40.66675" lon="-2.1668">
        <ele>1356.2</ele>
        <time>2021-10-09 10:21:02</time>
      </trkpt>
      <trkpt lat="40.66671" lon="-2.16678">
        <ele>1356.2</ele>
        <time>2021-10-09 10:21:03</time>
      </trkpt>
      <trkpt lat="40.66668" lon="-2.16675">
        <ele>1356.2</ele>
        <time>2021-10-09 10:21:04</time>
      </trkpt>
      <trkpt lat="40.66664" lon="-2.16673">
        <ele>1356.4</ele>
        <time>2021-10-09 10:21:05</time>
      </trkpt>
      <trkpt lat="40.6666" lon="-2.16671">
        <ele>1356.4</ele>
        <time>2021-10-09 10:21:06</time>
      </trkpt>
      <trkpt lat="40.66657" lon="-2.16669">
        <ele>1356.4</ele>
        <time>2021-10-09 10:21:07</time>
      </trkpt>
      <trkpt lat="40.66653" lon="-2.16667">
        <ele>1356.4</ele>
        <time>2021-10-09 10:21:08</time>
      </trkpt>
      <trkpt lat="40.6665" lon="-2.16664">
        <ele>1356.4</ele>
        <time>2021-10-09 10:21:09</time>
      </trkpt>
      <trkpt lat="40.66646" lon="-2.16662">
        <ele>1356.8</ele>
        <time>2021-10-09 10:21:10</time>
      </trkpt>
      <trkpt lat="40.66643" lon="-2.1666">
        <ele>1356.8</ele>
        <time>2021-10-09 10:21:11</time>
      </trkpt>
      <trkpt lat="40.66639" lon="-2.16657">
        <ele>1358.2</ele>
        <time>2021-10-09 10:21:12</time>
      </trkpt>
      <trkpt lat="40.66635" lon="-2.16655">
        <ele>1358</ele>
        <time>2021-10-09 10:21:13</time>
      </trkpt>
      <trkpt lat="40.66632" lon="-2.16652">
        <ele>1357.8</ele>
        <time>2021-10-09 10:21:14</time>
      </trkpt>
      <trkpt lat="40.66628" lon="-2.1665">
        <ele>1357.8</ele>
        <time>2021-10-09 10:21:15</time>
      </trkpt>
      <trkpt lat="40.66624" lon="-2.16648">
        <ele>1357.6</ele>
        <time>2021-10-09 10:21:16</time>
      </trkpt>
      <trkpt lat="40.6662" lon="-2.16645">
        <ele>1357.6</ele>
        <time>2021-10-09 10:21:17</time>
      </trkpt>
      <trkpt lat="40.66617" lon="-2.16643">
        <ele>1357.6</ele>
        <time>2021-10-09 10:21:18</time>
      </trkpt>
      <trkpt lat="40.66613" lon="-2.1664">
        <ele>1357.6</ele>
        <time>2021-10-09 10:21:19</time>
      </trkpt>
      <trkpt lat="40.66609" lon="-2.16638">
        <ele>1357.6</ele>
        <time>2021-10-09 10:21:20</time>
      </trkpt>
      <trkpt lat="40.66605" lon="-2.16635">
        <ele>1357.6</ele>
        <time>2021-10-09 10:21:21</time>
      </trkpt>
      <trkpt lat="40.66602" lon="-2.16633">
        <ele>1357.6</ele>
        <time>2021-10-09 10:21:22</time>
      </trkpt>
      <trkpt lat="40.66598" lon="-2.1663">
        <ele>1357.6</ele>
        <time>2021-10-09 10:21:23</time>
      </trkpt>
      <trkpt lat="40.66594" lon="-2.16627">
        <ele>1357.6</ele>
        <time>2021-10-09 10:21:24</time>
      </trkpt>
      <trkpt lat="40.66591" lon="-2.16624">
        <ele>1357.8</ele>
        <time>2021-10-09 10:21:25</time>
      </trkpt>
      <trkpt lat="40.66587" lon="-2.16621">
        <ele>1357.8</ele>
        <time>2021-10-09 10:21:26</time>
      </trkpt>
      <trkpt lat="40.66583" lon="-2.16618">
        <ele>1357.8</ele>
        <time>2021-10-09 10:21:27</time>
      </trkpt>
      <trkpt lat="40.6658" lon="-2.16615">
        <ele>1357.8</ele>
        <time>2021-10-09 10:21:28</time>
      </trkpt>
      <trkpt lat="40.66576" lon="-2.16611">
        <ele>1357.8</ele>
        <time>2021-10-09 10:21:29</time>
      </trkpt>
      <trkpt lat="40.66572" lon="-2.16608">
        <ele>1358</ele>
        <time>2021-10-09 10:21:30</time>
      </trkpt>
      <trkpt lat="40.66569" lon="-2.16604">
        <ele>1358</ele>
        <time>2021-10-09 10:21:31</time>
      </trkpt>
      <trkpt lat="40.66565" lon="-2.16601">
        <ele>1358</ele>
        <time>2021-10-09 10:21:32</time>
      </trkpt>
      <trkpt lat="40.66562" lon="-2.16598">
        <ele>1358</ele>
        <time>2021-10-09 10:21:33</time>
      </trkpt>
      <trkpt lat="40.66558" lon="-2.16595">
        <ele>1358</ele>
        <time>2021-10-09 10:21:34</time>
      </trkpt>
      <trkpt lat="40.66555" lon="-2.16592">
        <ele>1358.2</ele>
        <time>2021-10-09 10:21:35</time>
      </trkpt>
      <trkpt lat="40.66551" lon="-2.16589">
        <ele>1358.2</ele>
        <time>2021-10-09 10:21:36</time>
      </trkpt>
      <trkpt lat="40.66547" lon="-2.16586">
        <ele>1358.2</ele>
        <time>2021-10-09 10:21:37</time>
      </trkpt>
      <trkpt lat="40.66544" lon="-2.16582">
        <ele>1358.2</ele>
        <time>2021-10-09 10:21:38</time>
      </trkpt>
      <trkpt lat="40.66541" lon="-2.16579">
        <ele>1358.2</ele>
        <time>2021-10-09 10:21:39</time>
      </trkpt>
      <trkpt lat="40.66537" lon="-2.16576">
        <ele>1358.4</ele>
        <time>2021-10-09 10:21:40</time>
      </trkpt>
      <trkpt lat="40.66534" lon="-2.16573">
        <ele>1358.4</ele>
        <time>2021-10-09 10:21:41</time>
      </trkpt>
      <trkpt lat="40.6653" lon="-2.1657">
        <ele>1358.4</ele>
        <time>2021-10-09 10:21:42</time>
      </trkpt>
      <trkpt lat="40.66526" lon="-2.16566">
        <ele>1358.4</ele>
        <time>2021-10-09 10:21:43</time>
      </trkpt>
      <trkpt lat="40.66522" lon="-2.16564">
        <ele>1358.8</ele>
        <time>2021-10-09 10:21:44</time>
      </trkpt>
      <trkpt lat="40.66518" lon="-2.1656">
        <ele>1358.8</ele>
        <time>2021-10-09 10:21:45</time>
      </trkpt>
      <trkpt lat="40.66515" lon="-2.16557">
        <ele>1358.8</ele>
        <time>2021-10-09 10:21:46</time>
      </trkpt>
      <trkpt lat="40.66511" lon="-2.16553">
        <ele>1358.8</ele>
        <time>2021-10-09 10:21:47</time>
      </trkpt>
      <trkpt lat="40.66508" lon="-2.1655">
        <ele>1358.8</ele>
        <time>2021-10-09 10:21:48</time>
      </trkpt>
      <trkpt lat="40.66503" lon="-2.16546">
        <ele>1358.8</ele>
        <time>2021-10-09 10:21:49</time>
      </trkpt>
      <trkpt lat="40.665" lon="-2.16542">
        <ele>1358.8</ele>
        <time>2021-10-09 10:21:50</time>
      </trkpt>
      <trkpt lat="40.66497" lon="-2.16539">
        <ele>1358.8</ele>
        <time>2021-10-09 10:21:51</time>
      </trkpt>
      <trkpt lat="40.66493" lon="-2.16535">
        <ele>1358.8</ele>
        <time>2021-10-09 10:21:52</time>
      </trkpt>
      <trkpt lat="40.6649" lon="-2.16532">
        <ele>1358.8</ele>
        <time>2021-10-09 10:21:53</time>
      </trkpt>
      <trkpt lat="40.66486" lon="-2.16528">
        <ele>1359</ele>
        <time>2021-10-09 10:21:54</time>
      </trkpt>
      <trkpt lat="40.66482" lon="-2.16525">
        <ele>1359</ele>
        <time>2021-10-09 10:21:55</time>
      </trkpt>
      <trkpt lat="40.66479" lon="-2.16522">
        <ele>1359</ele>
        <time>2021-10-09 10:21:56</time>
      </trkpt>
      <trkpt lat="40.66475" lon="-2.16518">
        <ele>1359</ele>
        <time>2021-10-09 10:21:57</time>
      </trkpt>
      <trkpt lat="40.66471" lon="-2.16515">
        <ele>1359.2</ele>
        <time>2021-10-09 10:21:58</time>
      </trkpt>
      <trkpt lat="40.66468" lon="-2.16512">
        <ele>1359.2</ele>
        <time>2021-10-09 10:21:59</time>
      </trkpt>
      <trkpt lat="40.66464" lon="-2.16509">
        <ele>1359.2</ele>
        <time>2021-10-09 10:22:00</time>
      </trkpt>
      <trkpt lat="40.66461" lon="-2.16506">
        <ele>1359.2</ele>
        <time>2021-10-09 10:22:01</time>
      </trkpt>
      <trkpt lat="40.66457" lon="-2.16502">
        <ele>1359.2</ele>
        <time>2021-10-09 10:22:02</time>
      </trkpt>
      <trkpt lat="40.66453" lon="-2.16499">
        <ele>1359.4</ele>
        <time>2021-10-09 10:22:03</time>
      </trkpt>
      <trkpt lat="40.6645" lon="-2.16496">
        <ele>1359.4</ele>
        <time>2021-10-09 10:22:04</time>
      </trkpt>
      <trkpt lat="40.66447" lon="-2.16492">
        <ele>1359.4</ele>
        <time>2021-10-09 10:22:05</time>
      </trkpt>
      <trkpt lat="40.66443" lon="-2.16488">
        <ele>1359.8</ele>
        <time>2021-10-09 10:22:06</time>
      </trkpt>
      <trkpt lat="40.66439" lon="-2.16485">
        <ele>1359.8</ele>
        <time>2021-10-09 10:22:07</time>
      </trkpt>
      <trkpt lat="40.66435" lon="-2.16483">
        <ele>1359.8</ele>
        <time>2021-10-09 10:22:08</time>
      </trkpt>
      <trkpt lat="40.66432" lon="-2.16479">
        <ele>1360</ele>
        <time>2021-10-09 10:22:09</time>
      </trkpt>
      <trkpt lat="40.66428" lon="-2.16476">
        <ele>1360</ele>
        <time>2021-10-09 10:22:10</time>
      </trkpt>
      <trkpt lat="40.66425" lon="-2.16472">
        <ele>1360</ele>
        <time>2021-10-09 10:22:11</time>
      </trkpt>
      <trkpt lat="40.66421" lon="-2.16468">
        <ele>1360</ele>
        <time>2021-10-09 10:22:12</time>
      </trkpt>
      <trkpt lat="40.66418" lon="-2.16466">
        <ele>1360</ele>
        <time>2021-10-09 10:22:13</time>
      </trkpt>
      <trkpt lat="40.66414" lon="-2.16462">
        <ele>1360</ele>
        <time>2021-10-09 10:22:14</time>
      </trkpt>
      <trkpt lat="40.66411" lon="-2.16458">
        <ele>1360.2</ele>
        <time>2021-10-09 10:22:15</time>
      </trkpt>
      <trkpt lat="40.66407" lon="-2.16455">
        <ele>1360.2</ele>
        <time>2021-10-09 10:22:16</time>
      </trkpt>
      <trkpt lat="40.66404" lon="-2.16452">
        <ele>1360.2</ele>
        <time>2021-10-09 10:22:17</time>
      </trkpt>
      <trkpt lat="40.664" lon="-2.16448">
        <ele>1360.2</ele>
        <time>2021-10-09 10:22:18</time>
      </trkpt>
      <trkpt lat="40.66397" lon="-2.16445">
        <ele>1360.6</ele>
        <time>2021-10-09 10:22:19</time>
      </trkpt>
      <trkpt lat="40.66393" lon="-2.16441">
        <ele>1360.6</ele>
        <time>2021-10-09 10:22:20</time>
      </trkpt>
      <trkpt lat="40.6639" lon="-2.16439">
        <ele>1360.8</ele>
        <time>2021-10-09 10:22:21</time>
      </trkpt>
      <trkpt lat="40.66387" lon="-2.16435">
        <ele>1360.8</ele>
        <time>2021-10-09 10:22:22</time>
      </trkpt>
      <trkpt lat="40.66383" lon="-2.16431">
        <ele>1360.8</ele>
        <time>2021-10-09 10:22:23</time>
      </trkpt>
      <trkpt lat="40.6638" lon="-2.16428">
        <ele>1360.8</ele>
        <time>2021-10-09 10:22:24</time>
      </trkpt>
      <trkpt lat="40.66376" lon="-2.16425">
        <ele>1361</ele>
        <time>2021-10-09 10:22:25</time>
      </trkpt>
      <trkpt lat="40.66372" lon="-2.16422">
        <ele>1361</ele>
        <time>2021-10-09 10:22:26</time>
      </trkpt>
      <trkpt lat="40.66369" lon="-2.16419">
        <ele>1361</ele>
        <time>2021-10-09 10:22:27</time>
      </trkpt>
      <trkpt lat="40.66365" lon="-2.16416">
        <ele>1361.2</ele>
        <time>2021-10-09 10:22:28</time>
      </trkpt>
      <trkpt lat="40.66362" lon="-2.16412">
        <ele>1361.2</ele>
        <time>2021-10-09 10:22:29</time>
      </trkpt>
      <trkpt lat="40.66358" lon="-2.16408">
        <ele>1361.2</ele>
        <time>2021-10-09 10:22:30</time>
      </trkpt>
      <trkpt lat="40.66354" lon="-2.16405">
        <ele>1361.2</ele>
        <time>2021-10-09 10:22:31</time>
      </trkpt>
      <trkpt lat="40.6635" lon="-2.16402">
        <ele>1361.2</ele>
        <time>2021-10-09 10:22:32</time>
      </trkpt>
      <trkpt lat="40.66347" lon="-2.16399">
        <ele>1361.6</ele>
        <time>2021-10-09 10:22:33</time>
      </trkpt>
      <trkpt lat="40.66343" lon="-2.16395">
        <ele>1361.6</ele>
        <time>2021-10-09 10:22:34</time>
      </trkpt>
      <trkpt lat="40.66339" lon="-2.16392">
        <ele>1361.6</ele>
        <time>2021-10-09 10:22:35</time>
      </trkpt>
      <trkpt lat="40.66335" lon="-2.16389">
        <ele>1361.6</ele>
        <time>2021-10-09 10:22:36</time>
      </trkpt>
      <trkpt lat="40.66332" lon="-2.16386">
        <ele>1361.6</ele>
        <time>2021-10-09 10:22:37</time>
      </trkpt>
      <trkpt lat="40.66328" lon="-2.16383">
        <ele>1361.6</ele>
        <time>2021-10-09 10:22:38</time>
      </trkpt>
      <trkpt lat="40.66325" lon="-2.1638">
        <ele>1361.6</ele>
        <time>2021-10-09 10:22:39</time>
      </trkpt>
      <trkpt lat="40.66321" lon="-2.16376">
        <ele>1361.8</ele>
        <time>2021-10-09 10:22:40</time>
      </trkpt>
      <trkpt lat="40.66318" lon="-2.16373">
        <ele>1361.8</ele>
        <time>2021-10-09 10:22:41</time>
      </trkpt>
      <trkpt lat="40.66315" lon="-2.16369">
        <ele>1361.8</ele>
        <time>2021-10-09 10:22:42</time>
      </trkpt>
      <trkpt lat="40.66311" lon="-2.16366">
        <ele>1361.8</ele>
        <time>2021-10-09 10:22:43</time>
      </trkpt>
      <trkpt lat="40.66307" lon="-2.16362">
        <ele>1362</ele>
        <time>2021-10-09 10:22:44</time>
      </trkpt>
      <trkpt lat="40.66304" lon="-2.1636">
        <ele>1362</ele>
        <time>2021-10-09 10:22:45</time>
      </trkpt>
      <trkpt lat="40.663" lon="-2.16356">
        <ele>1362</ele>
        <time>2021-10-09 10:22:46</time>
      </trkpt>
      <trkpt lat="40.66297" lon="-2.16353">
        <ele>1362</ele>
        <time>2021-10-09 10:22:47</time>
      </trkpt>
      <trkpt lat="40.66293" lon="-2.1635">
        <ele>1362.2</ele>
        <time>2021-10-09 10:22:48</time>
      </trkpt>
      <trkpt lat="40.66289" lon="-2.16346">
        <ele>1362.2</ele>
        <time>2021-10-09 10:22:49</time>
      </trkpt>
      <trkpt lat="40.66286" lon="-2.16343">
        <ele>1362.2</ele>
        <time>2021-10-09 10:22:50</time>
      </trkpt>
      <trkpt lat="40.66282" lon="-2.1634">
        <ele>1362.4</ele>
        <time>2021-10-09 10:22:51</time>
      </trkpt>
      <trkpt lat="40.66279" lon="-2.16336">
        <ele>1362.4</ele>
        <time>2021-10-09 10:22:52</time>
      </trkpt>
      <trkpt lat="40.66275" lon="-2.16334">
        <ele>1362.4</ele>
        <time>2021-10-09 10:22:53</time>
      </trkpt>
      <trkpt lat="40.66272" lon="-2.16331">
        <ele>1362.4</ele>
        <time>2021-10-09 10:22:54</time>
      </trkpt>
      <trkpt lat="40.66268" lon="-2.16327">
        <ele>1362.8</ele>
        <time>2021-10-09 10:22:55</time>
      </trkpt>
      <trkpt lat="40.66265" lon="-2.16324">
        <ele>1362.8</ele>
        <time>2021-10-09 10:22:56</time>
      </trkpt>
      <trkpt lat="40.66261" lon="-2.16321">
        <ele>1362.8</ele>
        <time>2021-10-09 10:22:57</time>
      </trkpt>
      <trkpt lat="40.66258" lon="-2.16318">
        <ele>1362.8</ele>
        <time>2021-10-09 10:22:58</time>
      </trkpt>
      <trkpt lat="40.66254" lon="-2.16314">
        <ele>1362.8</ele>
        <time>2021-10-09 10:22:59</time>
      </trkpt>
      <trkpt lat="40.66251" lon="-2.16311">
        <ele>1362.8</ele>
        <time>2021-10-09 10:23:00</time>
      </trkpt>
      <trkpt lat="40.66247" lon="-2.16308">
        <ele>1362.8</ele>
        <time>2021-10-09 10:23:01</time>
      </trkpt>
      <trkpt lat="40.66243" lon="-2.16305">
        <ele>1363</ele>
        <time>2021-10-09 10:23:02</time>
      </trkpt>
      <trkpt lat="40.6624" lon="-2.16302">
        <ele>1363.2</ele>
        <time>2021-10-09 10:23:03</time>
      </trkpt>
      <trkpt lat="40.66236" lon="-2.16299">
        <ele>1363.2</ele>
        <time>2021-10-09 10:23:04</time>
      </trkpt>
      <trkpt lat="40.66232" lon="-2.16295">
        <ele>1363.2</ele>
        <time>2021-10-09 10:23:05</time>
      </trkpt>
      <trkpt lat="40.66229" lon="-2.16292">
        <ele>1363.2</ele>
        <time>2021-10-09 10:23:06</time>
      </trkpt>
      <trkpt lat="40.66225" lon="-2.16289">
        <ele>1363.6</ele>
        <time>2021-10-09 10:23:07</time>
      </trkpt>
      <trkpt lat="40.66222" lon="-2.16285">
        <ele>1363.6</ele>
        <time>2021-10-09 10:23:08</time>
      </trkpt>
      <trkpt lat="40.66218" lon="-2.16282">
        <ele>1363.8</ele>
        <time>2021-10-09 10:23:09</time>
      </trkpt>
      <trkpt lat="40.66215" lon="-2.16278">
        <ele>1364</ele>
        <time>2021-10-09 10:23:10</time>
      </trkpt>
      <trkpt lat="40.66211" lon="-2.16275">
        <ele>1364</ele>
        <time>2021-10-09 10:23:11</time>
      </trkpt>
      <trkpt lat="40.66211" lon="-2.16275">
        <ele>1364</ele>
        <time>2021-10-09 10:23:12</time>
      </trkpt>
      <trkpt lat="40.66204" lon="-2.16268">
        <ele>1364</ele>
        <time>2021-10-09 10:23:13</time>
      </trkpt>
      <trkpt lat="40.66204" lon="-2.16268">
        <ele>1364</ele>
        <time>2021-10-09 10:23:14</time>
      </trkpt>
      <trkpt lat="40.66201" lon="-2.16265">
        <ele>1364</ele>
        <time>2021-10-09 10:23:15</time>
      </trkpt>
      <trkpt lat="40.66198" lon="-2.16262">
        <ele>1364.4</ele>
        <time>2021-10-09 10:23:16</time>
      </trkpt>
      <trkpt lat="40.66194" lon="-2.16259">
        <ele>1364.4</ele>
        <time>2021-10-09 10:23:17</time>
      </trkpt>
      <trkpt lat="40.66191" lon="-2.16255">
        <ele>1364.4</ele>
        <time>2021-10-09 10:23:18</time>
      </trkpt>
      <trkpt lat="40.66187" lon="-2.16252">
        <ele>1364.4</ele>
        <time>2021-10-09 10:23:19</time>
      </trkpt>
      <trkpt lat="40.66184" lon="-2.16249">
        <ele>1364.8</ele>
        <time>2021-10-09 10:23:20</time>
      </trkpt>
      <trkpt lat="40.6618" lon="-2.16246">
        <ele>1365</ele>
        <time>2021-10-09 10:23:21</time>
      </trkpt>
      <trkpt lat="40.66177" lon="-2.16243">
        <ele>1365</ele>
        <time>2021-10-09 10:23:22</time>
      </trkpt>
      <trkpt lat="40.66173" lon="-2.1624">
        <ele>1365</ele>
        <time>2021-10-09 10:23:23</time>
      </trkpt>
      <trkpt lat="40.66169" lon="-2.16237">
        <ele>1365.2</ele>
        <time>2021-10-09 10:23:24</time>
      </trkpt>
      <trkpt lat="40.66166" lon="-2.16235">
        <ele>1365.2</ele>
        <time>2021-10-09 10:23:25</time>
      </trkpt>
      <trkpt lat="40.66163" lon="-2.16233">
        <ele>1365.2</ele>
        <time>2021-10-09 10:23:26</time>
      </trkpt>
      <trkpt lat="40.66161" lon="-2.1623">
        <ele>1365.4</ele>
        <time>2021-10-09 10:23:27</time>
      </trkpt>
      <trkpt lat="40.66158" lon="-2.16227">
        <ele>1365.4</ele>
        <time>2021-10-09 10:23:28</time>
      </trkpt>
      <trkpt lat="40.66155" lon="-2.16224">
        <ele>1365.4</ele>
        <time>2021-10-09 10:23:29</time>
      </trkpt>
      <trkpt lat="40.66152" lon="-2.16221">
        <ele>1365.8</ele>
        <time>2021-10-09 10:23:30</time>
      </trkpt>
      <trkpt lat="40.66149" lon="-2.16218">
        <ele>1365.8</ele>
        <time>2021-10-09 10:23:31</time>
      </trkpt>
      <trkpt lat="40.66146" lon="-2.16214">
        <ele>1365.8</ele>
        <time>2021-10-09 10:23:32</time>
      </trkpt>
      <trkpt lat="40.66144" lon="-2.16211">
        <ele>1366.6</ele>
        <time>2021-10-09 10:23:33</time>
      </trkpt>
      <trkpt lat="40.66141" lon="-2.16207">
        <ele>1366.6</ele>
        <time>2021-10-09 10:23:34</time>
      </trkpt>
      <trkpt lat="40.66139" lon="-2.16203">
        <ele>1366.6</ele>
        <time>2021-10-09 10:23:35</time>
      </trkpt>
      <trkpt lat="40.66137" lon="-2.16199">
        <ele>1366.6</ele>
        <time>2021-10-09 10:23:36</time>
      </trkpt>
      <trkpt lat="40.66135" lon="-2.16194">
        <ele>1366.6</ele>
        <time>2021-10-09 10:23:37</time>
      </trkpt>
      <trkpt lat="40.66133" lon="-2.1619">
        <ele>1366.6</ele>
        <time>2021-10-09 10:23:38</time>
      </trkpt>
      <trkpt lat="40.66131" lon="-2.16186">
        <ele>1366.8</ele>
        <time>2021-10-09 10:23:39</time>
      </trkpt>
      <trkpt lat="40.6613" lon="-2.16181">
        <ele>1366.8</ele>
        <time>2021-10-09 10:23:40</time>
      </trkpt>
      <trkpt lat="40.66128" lon="-2.16176">
        <ele>1366.8</ele>
        <time>2021-10-09 10:23:41</time>
      </trkpt>
      <trkpt lat="40.66127" lon="-2.16171">
        <ele>1366.8</ele>
        <time>2021-10-09 10:23:42</time>
      </trkpt>
      <trkpt lat="40.66126" lon="-2.16166">
        <ele>1366.8</ele>
        <time>2021-10-09 10:23:43</time>
      </trkpt>
      <trkpt lat="40.66125" lon="-2.16161">
        <ele>1366.8</ele>
        <time>2021-10-09 10:23:44</time>
      </trkpt>
      <trkpt lat="40.66125" lon="-2.16156">
        <ele>1367.6</ele>
        <time>2021-10-09 10:23:45</time>
      </trkpt>
      <trkpt lat="40.66124" lon="-2.16152">
        <ele>1367.6</ele>
        <time>2021-10-09 10:23:46</time>
      </trkpt>
      <trkpt lat="40.66123" lon="-2.16148">
        <ele>1367.6</ele>
        <time>2021-10-09 10:23:47</time>
      </trkpt>
      <trkpt lat="40.66122" lon="-2.16143">
        <ele>1367.6</ele>
        <time>2021-10-09 10:23:48</time>
      </trkpt>
      <trkpt lat="40.66121" lon="-2.16138">
        <ele>1367.6</ele>
        <time>2021-10-09 10:23:49</time>
      </trkpt>
      <trkpt lat="40.6612" lon="-2.16134">
        <ele>1367.6</ele>
        <time>2021-10-09 10:23:50</time>
      </trkpt>
      <trkpt lat="40.66119" lon="-2.16129">
        <ele>1367.6</ele>
        <time>2021-10-09 10:23:51</time>
      </trkpt>
      <trkpt lat="40.66118" lon="-2.16124">
        <ele>1367.4</ele>
        <time>2021-10-09 10:23:52</time>
      </trkpt>
      <trkpt lat="40.66117" lon="-2.1612">
        <ele>1367.4</ele>
        <time>2021-10-09 10:23:53</time>
      </trkpt>
      <trkpt lat="40.66116" lon="-2.16115">
        <ele>1367.8</ele>
        <time>2021-10-09 10:23:54</time>
      </trkpt>
      <trkpt lat="40.66115" lon="-2.16111">
        <ele>1367.8</ele>
        <time>2021-10-09 10:23:55</time>
      </trkpt>
      <trkpt lat="40.66114" lon="-2.16106">
        <ele>1368.2</ele>
        <time>2021-10-09 10:23:56</time>
      </trkpt>
      <trkpt lat="40.66113" lon="-2.16101">
        <ele>1368.4</ele>
        <time>2021-10-09 10:23:57</time>
      </trkpt>
      <trkpt lat="40.66113" lon="-2.16097">
        <ele>1368.4</ele>
        <time>2021-10-09 10:23:58</time>
      </trkpt>
      <trkpt lat="40.66112" lon="-2.16093">
        <ele>1368.4</ele>
        <time>2021-10-09 10:23:59</time>
      </trkpt>
      <trkpt lat="40.66111" lon="-2.16088">
        <ele>1368.4</ele>
        <time>2021-10-09 10:24:00</time>
      </trkpt>
      <trkpt lat="40.6611" lon="-2.16084">
        <ele>1368.4</ele>
        <time>2021-10-09 10:24:01</time>
      </trkpt>
      <trkpt lat="40.66109" lon="-2.16079">
        <ele>1368.6</ele>
        <time>2021-10-09 10:24:02</time>
      </trkpt>
      <trkpt lat="40.66108" lon="-2.16074">
        <ele>1368.6</ele>
        <time>2021-10-09 10:24:03</time>
      </trkpt>
      <trkpt lat="40.66107" lon="-2.1607">
        <ele>1368.6</ele>
        <time>2021-10-09 10:24:04</time>
      </trkpt>
      <trkpt lat="40.66106" lon="-2.16065">
        <ele>1368.6</ele>
        <time>2021-10-09 10:24:05</time>
      </trkpt>
      <trkpt lat="40.66105" lon="-2.16061">
        <ele>1369</ele>
        <time>2021-10-09 10:24:06</time>
      </trkpt>
      <trkpt lat="40.66104" lon="-2.16056">
        <ele>1369</ele>
        <time>2021-10-09 10:24:07</time>
      </trkpt>
      <trkpt lat="40.66102" lon="-2.16051">
        <ele>1369</ele>
        <time>2021-10-09 10:24:08</time>
      </trkpt>
      <trkpt lat="40.66101" lon="-2.16046">
        <ele>1369</ele>
        <time>2021-10-09 10:24:09</time>
      </trkpt>
      <trkpt lat="40.661" lon="-2.16042">
        <ele>1369.2</ele>
        <time>2021-10-09 10:24:10</time>
      </trkpt>
      <trkpt lat="40.66098" lon="-2.16037">
        <ele>1369.2</ele>
        <time>2021-10-09 10:24:11</time>
      </trkpt>
      <trkpt lat="40.66097" lon="-2.16033">
        <ele>1369.2</ele>
        <time>2021-10-09 10:24:12</time>
      </trkpt>
      <trkpt lat="40.66096" lon="-2.16028">
        <ele>1369.2</ele>
        <time>2021-10-09 10:24:13</time>
      </trkpt>
      <trkpt lat="40.66095" lon="-2.16024">
        <ele>1369.2</ele>
        <time>2021-10-09 10:24:14</time>
      </trkpt>
      <trkpt lat="40.66094" lon="-2.1602">
        <ele>1369.4</ele>
        <time>2021-10-09 10:24:15</time>
      </trkpt>
      <trkpt lat="40.66094" lon="-2.16017">
        <ele>1369.4</ele>
        <time>2021-10-09 10:24:16</time>
      </trkpt>
      <trkpt lat="40.66093" lon="-2.16014">
        <ele>1369.8</ele>
        <time>2021-10-09 10:24:17</time>
      </trkpt>
      <trkpt lat="40.66093" lon="-2.1601">
        <ele>1369.8</ele>
        <time>2021-10-09 10:24:18</time>
      </trkpt>
      <trkpt lat="40.66092" lon="-2.16005">
        <ele>1369.8</ele>
        <time>2021-10-09 10:24:19</time>
      </trkpt>
      <trkpt lat="40.66091" lon="-2.16">
        <ele>1370.2</ele>
        <time>2021-10-09 10:24:20</time>
      </trkpt>
      <trkpt lat="40.6609" lon="-2.15995">
        <ele>1370.4</ele>
        <time>2021-10-09 10:24:21</time>
      </trkpt>
      <trkpt lat="40.66089" lon="-2.1599">
        <ele>1370.4</ele>
        <time>2021-10-09 10:24:22</time>
      </trkpt>
      <trkpt lat="40.66088" lon="-2.15986">
        <ele>1370.4</ele>
        <time>2021-10-09 10:24:23</time>
      </trkpt>
      <trkpt lat="40.66088" lon="-2.15981">
        <ele>1370.6</ele>
        <time>2021-10-09 10:24:24</time>
      </trkpt>
      <trkpt lat="40.66087" lon="-2.15977">
        <ele>1370.8</ele>
        <time>2021-10-09 10:24:25</time>
      </trkpt>
      <trkpt lat="40.66086" lon="-2.15972">
        <ele>1370.8</ele>
        <time>2021-10-09 10:24:26</time>
      </trkpt>
      <trkpt lat="40.66086" lon="-2.15968">
        <ele>1370.8</ele>
        <time>2021-10-09 10:24:27</time>
      </trkpt>
      <trkpt lat="40.66085" lon="-2.15963">
        <ele>1371.2</ele>
        <time>2021-10-09 10:24:28</time>
      </trkpt>
      <trkpt lat="40.66084" lon="-2.15959">
        <ele>1371.2</ele>
        <time>2021-10-09 10:24:29</time>
      </trkpt>
      <trkpt lat="40.66084" lon="-2.15955">
        <ele>1371.4</ele>
        <time>2021-10-09 10:24:30</time>
      </trkpt>
      <trkpt lat="40.66084" lon="-2.15951">
        <ele>1371.4</ele>
        <time>2021-10-09 10:24:31</time>
      </trkpt>
      <trkpt lat="40.66083" lon="-2.15947">
        <ele>1371.4</ele>
        <time>2021-10-09 10:24:32</time>
      </trkpt>
      <trkpt lat="40.66083" lon="-2.15944">
        <ele>1371.8</ele>
        <time>2021-10-09 10:24:33</time>
      </trkpt>
      <trkpt lat="40.66083" lon="-2.1594">
        <ele>1371.8</ele>
        <time>2021-10-09 10:24:34</time>
      </trkpt>
      <trkpt lat="40.66082" lon="-2.15936">
        <ele>1372.2</ele>
        <time>2021-10-09 10:24:35</time>
      </trkpt>
      <trkpt lat="40.66082" lon="-2.15931">
        <ele>1372.2</ele>
        <time>2021-10-09 10:24:36</time>
      </trkpt>
      <trkpt lat="40.66081" lon="-2.15927">
        <ele>1372.4</ele>
        <time>2021-10-09 10:24:37</time>
      </trkpt>
      <trkpt lat="40.6608" lon="-2.15922">
        <ele>1372.6</ele>
        <time>2021-10-09 10:24:38</time>
      </trkpt>
      <trkpt lat="40.6608" lon="-2.15918">
        <ele>1372.6</ele>
        <time>2021-10-09 10:24:39</time>
      </trkpt>
      <trkpt lat="40.6608" lon="-2.15914">
        <ele>1372.6</ele>
        <time>2021-10-09 10:24:40</time>
      </trkpt>
      <trkpt lat="40.6608" lon="-2.15909">
        <ele>1372.6</ele>
        <time>2021-10-09 10:24:41</time>
      </trkpt>
      <trkpt lat="40.6608" lon="-2.15905">
        <ele>1372.6</ele>
        <time>2021-10-09 10:24:42</time>
      </trkpt>
      <trkpt lat="40.6608" lon="-2.15901">
        <ele>1372.6</ele>
        <time>2021-10-09 10:24:43</time>
      </trkpt>
      <trkpt lat="40.66079" lon="-2.15897">
        <ele>1372.6</ele>
        <time>2021-10-09 10:24:44</time>
      </trkpt>
      <trkpt lat="40.66078" lon="-2.15893">
        <ele>1372.8</ele>
        <time>2021-10-09 10:24:45</time>
      </trkpt>
      <trkpt lat="40.66078" lon="-2.15888">
        <ele>1372.8</ele>
        <time>2021-10-09 10:24:46</time>
      </trkpt>
      <trkpt lat="40.66077" lon="-2.15884">
        <ele>1372.8</ele>
        <time>2021-10-09 10:24:47</time>
      </trkpt>
      <trkpt lat="40.66077" lon="-2.1588">
        <ele>1372.8</ele>
        <time>2021-10-09 10:24:48</time>
      </trkpt>
      <trkpt lat="40.66076" lon="-2.15876">
        <ele>1372.8</ele>
        <time>2021-10-09 10:24:49</time>
      </trkpt>
      <trkpt lat="40.66076" lon="-2.15872">
        <ele>1372.8</ele>
        <time>2021-10-09 10:24:50</time>
      </trkpt>
      <trkpt lat="40.66075" lon="-2.15868">
        <ele>1372.8</ele>
        <time>2021-10-09 10:24:51</time>
      </trkpt>
      <trkpt lat="40.66074" lon="-2.15864">
        <ele>1372.8</ele>
        <time>2021-10-09 10:24:52</time>
      </trkpt>
      <trkpt lat="40.66074" lon="-2.1586">
        <ele>1372.8</ele>
        <time>2021-10-09 10:24:53</time>
      </trkpt>
      <trkpt lat="40.66073" lon="-2.15855">
        <ele>1372.8</ele>
        <time>2021-10-09 10:24:54</time>
      </trkpt>
      <trkpt lat="40.66073" lon="-2.15851">
        <ele>1372.8</ele>
        <time>2021-10-09 10:24:55</time>
      </trkpt>
      <trkpt lat="40.66072" lon="-2.15846">
        <ele>1372.8</ele>
        <time>2021-10-09 10:24:56</time>
      </trkpt>
      <trkpt lat="40.66072" lon="-2.15842">
        <ele>1372.8</ele>
        <time>2021-10-09 10:24:57</time>
      </trkpt>
      <trkpt lat="40.66071" lon="-2.15833">
        <ele>1373</ele>
        <time>2021-10-09 10:24:58</time>
      </trkpt>
      <trkpt lat="40.66071" lon="-2.15828">
        <ele>1373</ele>
        <time>2021-10-09 10:24:59</time>
      </trkpt>
      <trkpt lat="40.6607" lon="-2.15823">
        <ele>1373</ele>
        <time>2021-10-09 10:25:00</time>
      </trkpt>
      <trkpt lat="40.6607" lon="-2.15819">
        <ele>1373</ele>
        <time>2021-10-09 10:25:01</time>
      </trkpt>
      <trkpt lat="40.6607" lon="-2.15814">
        <ele>1373.4</ele>
        <time>2021-10-09 10:25:02</time>
      </trkpt>
      <trkpt lat="40.6607" lon="-2.1581">
        <ele>1373.4</ele>
        <time>2021-10-09 10:25:03</time>
      </trkpt>
      <trkpt lat="40.66069" lon="-2.15805">
        <ele>1373.4</ele>
        <time>2021-10-09 10:25:04</time>
      </trkpt>
      <trkpt lat="40.66069" lon="-2.15801">
        <ele>1373.4</ele>
        <time>2021-10-09 10:25:05</time>
      </trkpt>
      <trkpt lat="40.66068" lon="-2.15797">
        <ele>1373.4</ele>
        <time>2021-10-09 10:25:06</time>
      </trkpt>
      <trkpt lat="40.66068" lon="-2.15792">
        <ele>1373.4</ele>
        <time>2021-10-09 10:25:07</time>
      </trkpt>
      <trkpt lat="40.66067" lon="-2.15788">
        <ele>1373.6</ele>
        <time>2021-10-09 10:25:08</time>
      </trkpt>
      <trkpt lat="40.66067" lon="-2.15783">
        <ele>1373.6</ele>
        <time>2021-10-09 10:25:09</time>
      </trkpt>
      <trkpt lat="40.66066" lon="-2.15779">
        <ele>1373.6</ele>
        <time>2021-10-09 10:25:10</time>
      </trkpt>
      <trkpt lat="40.66066" lon="-2.15775">
        <ele>1373.6</ele>
        <time>2021-10-09 10:25:11</time>
      </trkpt>
      <trkpt lat="40.66065" lon="-2.15771">
        <ele>1373.8</ele>
        <time>2021-10-09 10:25:12</time>
      </trkpt>
      <trkpt lat="40.66064" lon="-2.15767">
        <ele>1373.8</ele>
        <time>2021-10-09 10:25:13</time>
      </trkpt>
      <trkpt lat="40.66064" lon="-2.15762">
        <ele>1373.8</ele>
        <time>2021-10-09 10:25:14</time>
      </trkpt>
      <trkpt lat="40.66063" lon="-2.15758">
        <ele>1373.8</ele>
        <time>2021-10-09 10:25:15</time>
      </trkpt>
      <trkpt lat="40.66063" lon="-2.15754">
        <ele>1374</ele>
        <time>2021-10-09 10:25:16</time>
      </trkpt>
      <trkpt lat="40.66062" lon="-2.1575">
        <ele>1374</ele>
        <time>2021-10-09 10:25:17</time>
      </trkpt>
      <trkpt lat="40.66062" lon="-2.15746">
        <ele>1374</ele>
        <time>2021-10-09 10:25:18</time>
      </trkpt>
      <trkpt lat="40.66061" lon="-2.15742">
        <ele>1374</ele>
        <time>2021-10-09 10:25:19</time>
      </trkpt>
      <trkpt lat="40.66061" lon="-2.15738">
        <ele>1374</ele>
        <time>2021-10-09 10:25:20</time>
      </trkpt>
      <trkpt lat="40.6606" lon="-2.15734">
        <ele>1374.4</ele>
        <time>2021-10-09 10:25:21</time>
      </trkpt>
      <trkpt lat="40.6606" lon="-2.15729">
        <ele>1374.4</ele>
        <time>2021-10-09 10:25:22</time>
      </trkpt>
      <trkpt lat="40.6606" lon="-2.15725">
        <ele>1374.4</ele>
        <time>2021-10-09 10:25:23</time>
      </trkpt>
      <trkpt lat="40.66059" lon="-2.15721">
        <ele>1374.6</ele>
        <time>2021-10-09 10:25:24</time>
      </trkpt>
      <trkpt lat="40.66059" lon="-2.15717">
        <ele>1374.6</ele>
        <time>2021-10-09 10:25:25</time>
      </trkpt>
      <trkpt lat="40.66059" lon="-2.15713">
        <ele>1374.2</ele>
        <time>2021-10-09 10:25:26</time>
      </trkpt>
      <trkpt lat="40.66059" lon="-2.15708">
        <ele>1374.4</ele>
        <time>2021-10-09 10:25:27</time>
      </trkpt>
      <trkpt lat="40.66058" lon="-2.15704">
        <ele>1374.6</ele>
        <time>2021-10-09 10:25:28</time>
      </trkpt>
      <trkpt lat="40.66058" lon="-2.157">
        <ele>1374.6</ele>
        <time>2021-10-09 10:25:29</time>
      </trkpt>
      <trkpt lat="40.66058" lon="-2.15695">
        <ele>1375</ele>
        <time>2021-10-09 10:25:30</time>
      </trkpt>
      <trkpt lat="40.66058" lon="-2.15691">
        <ele>1375</ele>
        <time>2021-10-09 10:25:31</time>
      </trkpt>
      <trkpt lat="40.66057" lon="-2.15686">
        <ele>1375</ele>
        <time>2021-10-09 10:25:32</time>
      </trkpt>
      <trkpt lat="40.66057" lon="-2.15682">
        <ele>1375</ele>
        <time>2021-10-09 10:25:33</time>
      </trkpt>
      <trkpt lat="40.66056" lon="-2.15678">
        <ele>1375.2</ele>
        <time>2021-10-09 10:25:34</time>
      </trkpt>
      <trkpt lat="40.66056" lon="-2.15678">
        <ele>1375.2</ele>
        <time>2021-10-09 10:25:35</time>
      </trkpt>
      <trkpt lat="40.66055" lon="-2.15662">
        <ele>1375.2</ele>
        <time>2021-10-09 10:25:36</time>
      </trkpt>
      <trkpt lat="40.66055" lon="-2.15658">
        <ele>1375.2</ele>
        <time>2021-10-09 10:25:37</time>
      </trkpt>
      <trkpt lat="40.66054" lon="-2.15654">
        <ele>1375.2</ele>
        <time>2021-10-09 10:25:38</time>
      </trkpt>
      <trkpt lat="40.66054" lon="-2.1565">
        <ele>1375.2</ele>
        <time>2021-10-09 10:25:39</time>
      </trkpt>
      <trkpt lat="40.66053" lon="-2.15646">
        <ele>1375.2</ele>
        <time>2021-10-09 10:25:40</time>
      </trkpt>
      <trkpt lat="40.66053" lon="-2.15642">
        <ele>1375.2</ele>
        <time>2021-10-09 10:25:41</time>
      </trkpt>
      <trkpt lat="40.66053" lon="-2.15638">
        <ele>1375.2</ele>
        <time>2021-10-09 10:25:42</time>
      </trkpt>
      <trkpt lat="40.66052" lon="-2.15635">
        <ele>1374.6</ele>
        <time>2021-10-09 10:25:43</time>
      </trkpt>
      <trkpt lat="40.66051" lon="-2.15631">
        <ele>1374.6</ele>
        <time>2021-10-09 10:25:44</time>
      </trkpt>
      <trkpt lat="40.66051" lon="-2.15627">
        <ele>1372.8</ele>
        <time>2021-10-09 10:25:45</time>
      </trkpt>
      <trkpt lat="40.6605" lon="-2.15623">
        <ele>1373.8</ele>
        <time>2021-10-09 10:25:46</time>
      </trkpt>
      <trkpt lat="40.66049" lon="-2.15619">
        <ele>1374.4</ele>
        <time>2021-10-09 10:25:47</time>
      </trkpt>
      <trkpt lat="40.66049" lon="-2.15616">
        <ele>1374.8</ele>
        <time>2021-10-09 10:25:48</time>
      </trkpt>
      <trkpt lat="40.66047" lon="-2.15612">
        <ele>1375.4</ele>
        <time>2021-10-09 10:25:49</time>
      </trkpt>
      <trkpt lat="40.66046" lon="-2.15609">
        <ele>1375.6</ele>
        <time>2021-10-09 10:25:50</time>
      </trkpt>
      <trkpt lat="40.66043" lon="-2.15606">
        <ele>1375.8</ele>
        <time>2021-10-09 10:25:51</time>
      </trkpt>
      <trkpt lat="40.66041" lon="-2.15602">
        <ele>1376</ele>
        <time>2021-10-09 10:25:52</time>
      </trkpt>
      <trkpt lat="40.66039" lon="-2.156">
        <ele>1376</ele>
        <time>2021-10-09 10:25:53</time>
      </trkpt>
      <trkpt lat="40.66036" lon="-2.15598">
        <ele>1376.4</ele>
        <time>2021-10-09 10:25:54</time>
      </trkpt>
      <trkpt lat="40.66033" lon="-2.15597">
        <ele>1376.4</ele>
        <time>2021-10-09 10:25:55</time>
      </trkpt>
      <trkpt lat="40.66029" lon="-2.15596">
        <ele>1376.4</ele>
        <time>2021-10-09 10:25:56</time>
      </trkpt>
      <trkpt lat="40.66026" lon="-2.15595">
        <ele>1376.6</ele>
        <time>2021-10-09 10:25:57</time>
      </trkpt>
      <trkpt lat="40.66022" lon="-2.15594">
        <ele>1376.6</ele>
        <time>2021-10-09 10:25:58</time>
      </trkpt>
      <trkpt lat="40.66019" lon="-2.15593">
        <ele>1376.6</ele>
        <time>2021-10-09 10:25:59</time>
      </trkpt>
      <trkpt lat="40.66016" lon="-2.15592">
        <ele>1377</ele>
        <time>2021-10-09 10:26:00</time>
      </trkpt>
      <trkpt lat="40.66013" lon="-2.15591">
        <ele>1377</ele>
        <time>2021-10-09 10:26:01</time>
      </trkpt>
      <trkpt lat="40.6601" lon="-2.1559">
        <ele>1377</ele>
        <time>2021-10-09 10:26:02</time>
      </trkpt>
      <trkpt lat="40.66007" lon="-2.15589">
        <ele>1377.2</ele>
        <time>2021-10-09 10:26:03</time>
      </trkpt>
      <trkpt lat="40.66003" lon="-2.15589">
        <ele>1377.2</ele>
        <time>2021-10-09 10:26:04</time>
      </trkpt>
      <trkpt lat="40.66" lon="-2.15589">
        <ele>1377.4</ele>
        <time>2021-10-09 10:26:05</time>
      </trkpt>
      <trkpt lat="40.66" lon="-2.15589">
        <ele>1377.4</ele>
        <time>2021-10-09 10:26:06</time>
      </trkpt>
      <trkpt lat="40.6599" lon="-2.15589">
        <ele>1377.6</ele>
        <time>2021-10-09 10:26:07</time>
      </trkpt>
      <trkpt lat="40.65987" lon="-2.15589">
        <ele>1378</ele>
        <time>2021-10-09 10:26:08</time>
      </trkpt>
      <trkpt lat="40.65984" lon="-2.15588">
        <ele>1378</ele>
        <time>2021-10-09 10:26:09</time>
      </trkpt>
      <trkpt lat="40.65981" lon="-2.15588">
        <ele>1378</ele>
        <time>2021-10-09 10:26:10</time>
      </trkpt>
      <trkpt lat="40.65978" lon="-2.15589">
        <ele>1378.2</ele>
        <time>2021-10-09 10:26:11</time>
      </trkpt>
      <trkpt lat="40.65975" lon="-2.15589">
        <ele>1378.2</ele>
        <time>2021-10-09 10:26:12</time>
      </trkpt>
      <trkpt lat="40.65972" lon="-2.1559">
        <ele>1378.6</ele>
        <time>2021-10-09 10:26:13</time>
      </trkpt>
      <trkpt lat="40.6597" lon="-2.1559">
        <ele>1378.6</ele>
        <time>2021-10-09 10:26:14</time>
      </trkpt>
      <trkpt lat="40.65968" lon="-2.1559">
        <ele>1378.8</ele>
        <time>2021-10-09 10:26:15</time>
      </trkpt>
      <trkpt lat="40.65966" lon="-2.1559">
        <ele>1379.2</ele>
        <time>2021-10-09 10:26:16</time>
      </trkpt>
      <trkpt lat="40.65963" lon="-2.1559">
        <ele>1379.2</ele>
        <time>2021-10-09 10:26:17</time>
      </trkpt>
      <trkpt lat="40.65961" lon="-2.1559">
        <ele>1379.4</ele>
        <time>2021-10-09 10:26:18</time>
      </trkpt>
      <trkpt lat="40.65959" lon="-2.15591">
        <ele>1379.6</ele>
        <time>2021-10-09 10:26:19</time>
      </trkpt>
      <trkpt lat="40.65957" lon="-2.1559">
        <ele>1379.6</ele>
        <time>2021-10-09 10:26:20</time>
      </trkpt>
      <trkpt lat="40.65954" lon="-2.1559">
        <ele>1380</ele>
        <time>2021-10-09 10:26:21</time>
      </trkpt>
      <trkpt lat="40.65952" lon="-2.15591">
        <ele>1380</ele>
        <time>2021-10-09 10:26:22</time>
      </trkpt>
      <trkpt lat="40.65949" lon="-2.15591">
        <ele>1380.4</ele>
        <time>2021-10-09 10:26:23</time>
      </trkpt>
      <trkpt lat="40.65947" lon="-2.15591">
        <ele>1380.6</ele>
        <time>2021-10-09 10:26:24</time>
      </trkpt>
      <trkpt lat="40.65944" lon="-2.15592">
        <ele>1380.6</ele>
        <time>2021-10-09 10:26:25</time>
      </trkpt>
      <trkpt lat="40.65942" lon="-2.15592">
        <ele>1380.8</ele>
        <time>2021-10-09 10:26:26</time>
      </trkpt>
      <trkpt lat="40.65939" lon="-2.15592">
        <ele>1380.8</ele>
        <time>2021-10-09 10:26:27</time>
      </trkpt>
      <trkpt lat="40.65937" lon="-2.15592">
        <ele>1380.8</ele>
        <time>2021-10-09 10:26:28</time>
      </trkpt>
      <trkpt lat="40.65934" lon="-2.15592">
        <ele>1380.8</ele>
        <time>2021-10-09 10:26:29</time>
      </trkpt>
      <trkpt lat="40.65931" lon="-2.15592">
        <ele>1381</ele>
        <time>2021-10-09 10:26:30</time>
      </trkpt>
      <trkpt lat="40.65929" lon="-2.15592">
        <ele>1381</ele>
        <time>2021-10-09 10:26:31</time>
      </trkpt>
      <trkpt lat="40.65926" lon="-2.15592">
        <ele>1381.2</ele>
        <time>2021-10-09 10:26:32</time>
      </trkpt>
      <trkpt lat="40.65923" lon="-2.15591">
        <ele>1381.2</ele>
        <time>2021-10-09 10:26:33</time>
      </trkpt>
      <trkpt lat="40.65921" lon="-2.15591">
        <ele>1381.4</ele>
        <time>2021-10-09 10:26:34</time>
      </trkpt>
      <trkpt lat="40.65918" lon="-2.1559">
        <ele>1381.4</ele>
        <time>2021-10-09 10:26:35</time>
      </trkpt>
      <trkpt lat="40.65915" lon="-2.1559">
        <ele>1381.4</ele>
        <time>2021-10-09 10:26:36</time>
      </trkpt>
      <trkpt lat="40.65913" lon="-2.15589">
        <ele>1381.4</ele>
        <time>2021-10-09 10:26:37</time>
      </trkpt>
      <trkpt lat="40.6591" lon="-2.15589">
        <ele>1381.8</ele>
        <time>2021-10-09 10:26:38</time>
      </trkpt>
      <trkpt lat="40.65908" lon="-2.15588">
        <ele>1381.8</ele>
        <time>2021-10-09 10:26:39</time>
      </trkpt>
      <trkpt lat="40.65906" lon="-2.15588">
        <ele>1382</ele>
        <time>2021-10-09 10:26:40</time>
      </trkpt>
      <trkpt lat="40.65904" lon="-2.15587">
        <ele>1382</ele>
        <time>2021-10-09 10:26:41</time>
      </trkpt>
      <trkpt lat="40.65901" lon="-2.15587">
        <ele>1382</ele>
        <time>2021-10-09 10:26:42</time>
      </trkpt>
      <trkpt lat="40.65899" lon="-2.15588">
        <ele>1382.2</ele>
        <time>2021-10-09 10:26:43</time>
      </trkpt>
      <trkpt lat="40.65897" lon="-2.15589">
        <ele>1382.2</ele>
        <time>2021-10-09 10:26:44</time>
      </trkpt>
      <trkpt lat="40.65894" lon="-2.15589">
        <ele>1382.4</ele>
        <time>2021-10-09 10:26:45</time>
      </trkpt>
      <trkpt lat="40.65892" lon="-2.1559">
        <ele>1382.4</ele>
        <time>2021-10-09 10:26:46</time>
      </trkpt>
      <trkpt lat="40.65889" lon="-2.15591">
        <ele>1382.8</ele>
        <time>2021-10-09 10:26:47</time>
      </trkpt>
      <trkpt lat="40.65887" lon="-2.15591">
        <ele>1382.8</ele>
        <time>2021-10-09 10:26:48</time>
      </trkpt>
      <trkpt lat="40.65884" lon="-2.15592">
        <ele>1383</ele>
        <time>2021-10-09 10:26:49</time>
      </trkpt>
      <trkpt lat="40.65882" lon="-2.15591">
        <ele>1383</ele>
        <time>2021-10-09 10:26:50</time>
      </trkpt>
      <trkpt lat="40.65879" lon="-2.15591">
        <ele>1383.2</ele>
        <time>2021-10-09 10:26:51</time>
      </trkpt>
      <trkpt lat="40.65877" lon="-2.1559">
        <ele>1383.2</ele>
        <time>2021-10-09 10:26:52</time>
      </trkpt>
      <trkpt lat="40.65874" lon="-2.15588">
        <ele>1383.6</ele>
        <time>2021-10-09 10:26:53</time>
      </trkpt>
      <trkpt lat="40.65872" lon="-2.15587">
        <ele>1383.6</ele>
        <time>2021-10-09 10:26:54</time>
      </trkpt>
      <trkpt lat="40.65869" lon="-2.15586">
        <ele>1383.8</ele>
        <time>2021-10-09 10:26:55</time>
      </trkpt>
      <trkpt lat="40.65867" lon="-2.15585">
        <ele>1383.8</ele>
        <time>2021-10-09 10:26:56</time>
      </trkpt>
      <trkpt lat="40.65864" lon="-2.15583">
        <ele>1384</ele>
        <time>2021-10-09 10:26:57</time>
      </trkpt>
      <trkpt lat="40.65862" lon="-2.15582">
        <ele>1384</ele>
        <time>2021-10-09 10:26:58</time>
      </trkpt>
      <trkpt lat="40.6586" lon="-2.15581">
        <ele>1384.4</ele>
        <time>2021-10-09 10:26:59</time>
      </trkpt>
      <trkpt lat="40.65858" lon="-2.1558">
        <ele>1384.4</ele>
        <time>2021-10-09 10:27:00</time>
      </trkpt>
      <trkpt lat="40.65855" lon="-2.15578">
        <ele>1384.6</ele>
        <time>2021-10-09 10:27:01</time>
      </trkpt>
      <trkpt lat="40.65853" lon="-2.15577">
        <ele>1384.6</ele>
        <time>2021-10-09 10:27:02</time>
      </trkpt>
      <trkpt lat="40.6585" lon="-2.15576">
        <ele>1384.8</ele>
        <time>2021-10-09 10:27:03</time>
      </trkpt>
      <trkpt lat="40.65848" lon="-2.15575">
        <ele>1384.8</ele>
        <time>2021-10-09 10:27:04</time>
      </trkpt>
      <trkpt lat="40.65846" lon="-2.15574">
        <ele>1385</ele>
        <time>2021-10-09 10:27:05</time>
      </trkpt>
      <trkpt lat="40.65844" lon="-2.15573">
        <ele>1385</ele>
        <time>2021-10-09 10:27:06</time>
      </trkpt>
      <trkpt lat="40.65841" lon="-2.15572">
        <ele>1385.4</ele>
        <time>2021-10-09 10:27:07</time>
      </trkpt>
      <trkpt lat="40.65838" lon="-2.15571">
        <ele>1385.4</ele>
        <time>2021-10-09 10:27:08</time>
      </trkpt>
      <trkpt lat="40.65836" lon="-2.1557">
        <ele>1385.6</ele>
        <time>2021-10-09 10:27:09</time>
      </trkpt>
      <trkpt lat="40.65833" lon="-2.15569">
        <ele>1385.6</ele>
        <time>2021-10-09 10:27:10</time>
      </trkpt>
      <trkpt lat="40.65831" lon="-2.15568">
        <ele>1386</ele>
        <time>2021-10-09 10:27:11</time>
      </trkpt>
      <trkpt lat="40.65829" lon="-2.15567">
        <ele>1386</ele>
        <time>2021-10-09 10:27:12</time>
      </trkpt>
      <trkpt lat="40.65826" lon="-2.15565">
        <ele>1386.2</ele>
        <time>2021-10-09 10:27:13</time>
      </trkpt>
      <trkpt lat="40.65824" lon="-2.15564">
        <ele>1386.8</ele>
        <time>2021-10-09 10:27:14</time>
      </trkpt>
      <trkpt lat="40.65822" lon="-2.15563">
        <ele>1386.8</ele>
        <time>2021-10-09 10:27:15</time>
      </trkpt>
      <trkpt lat="40.65821" lon="-2.15562">
        <ele>1386.8</ele>
        <time>2021-10-09 10:27:16</time>
      </trkpt>
      <trkpt lat="40.65818" lon="-2.1556">
        <ele>1386.8</ele>
        <time>2021-10-09 10:27:17</time>
      </trkpt>
      <trkpt lat="40.65816" lon="-2.15558">
        <ele>1386.8</ele>
        <time>2021-10-09 10:27:18</time>
      </trkpt>
      <trkpt lat="40.65814" lon="-2.15557">
        <ele>1386.8</ele>
        <time>2021-10-09 10:27:19</time>
      </trkpt>
      <trkpt lat="40.65812" lon="-2.15556">
        <ele>1387</ele>
        <time>2021-10-09 10:27:20</time>
      </trkpt>
      <trkpt lat="40.6581" lon="-2.15555">
        <ele>1387</ele>
        <time>2021-10-09 10:27:21</time>
      </trkpt>
      <trkpt lat="40.65808" lon="-2.15553">
        <ele>1387</ele>
        <time>2021-10-09 10:27:22</time>
      </trkpt>
      <trkpt lat="40.65805" lon="-2.15552">
        <ele>1387</ele>
        <time>2021-10-09 10:27:23</time>
      </trkpt>
      <trkpt lat="40.65802" lon="-2.1555">
        <ele>1387</ele>
        <time>2021-10-09 10:27:24</time>
      </trkpt>
      <trkpt lat="40.658" lon="-2.15548">
        <ele>1387</ele>
        <time>2021-10-09 10:27:25</time>
      </trkpt>
      <trkpt lat="40.65798" lon="-2.15546">
        <ele>1387.2</ele>
        <time>2021-10-09 10:27:26</time>
      </trkpt>
      <trkpt lat="40.65795" lon="-2.15544">
        <ele>1387.2</ele>
        <time>2021-10-09 10:27:27</time>
      </trkpt>
      <trkpt lat="40.65792" lon="-2.15542">
        <ele>1387.2</ele>
        <time>2021-10-09 10:27:28</time>
      </trkpt>
      <trkpt lat="40.65789" lon="-2.15539">
        <ele>1387.2</ele>
        <time>2021-10-09 10:27:29</time>
      </trkpt>
      <trkpt lat="40.65786" lon="-2.15537">
        <ele>1387.2</ele>
        <time>2021-10-09 10:27:30</time>
      </trkpt>
      <trkpt lat="40.65783" lon="-2.15536">
        <ele>1387.2</ele>
        <time>2021-10-09 10:27:31</time>
      </trkpt>
      <trkpt lat="40.6578" lon="-2.15534">
        <ele>1387</ele>
        <time>2021-10-09 10:27:32</time>
      </trkpt>
      <trkpt lat="40.65777" lon="-2.15532">
        <ele>1387</ele>
        <time>2021-10-09 10:27:33</time>
      </trkpt>
      <trkpt lat="40.65774" lon="-2.1553">
        <ele>1387</ele>
        <time>2021-10-09 10:27:34</time>
      </trkpt>
      <trkpt lat="40.65771" lon="-2.15527">
        <ele>1387</ele>
        <time>2021-10-09 10:27:35</time>
      </trkpt>
      <trkpt lat="40.65768" lon="-2.15525">
        <ele>1387</ele>
        <time>2021-10-09 10:27:36</time>
      </trkpt>
      <trkpt lat="40.65765" lon="-2.15523">
        <ele>1387.2</ele>
        <time>2021-10-09 10:27:37</time>
      </trkpt>
      <trkpt lat="40.65761" lon="-2.15521">
        <ele>1387.2</ele>
        <time>2021-10-09 10:27:38</time>
      </trkpt>
      <trkpt lat="40.65758" lon="-2.15519">
        <ele>1387.2</ele>
        <time>2021-10-09 10:27:39</time>
      </trkpt>
      <trkpt lat="40.65754" lon="-2.15517">
        <ele>1387.2</ele>
        <time>2021-10-09 10:27:40</time>
      </trkpt>
      <trkpt lat="40.65751" lon="-2.15514">
        <ele>1387.6</ele>
        <time>2021-10-09 10:27:41</time>
      </trkpt>
      <trkpt lat="40.65747" lon="-2.15512">
        <ele>1387.6</ele>
        <time>2021-10-09 10:27:42</time>
      </trkpt>
      <trkpt lat="40.65744" lon="-2.15511">
        <ele>1387.6</ele>
        <time>2021-10-09 10:27:43</time>
      </trkpt>
      <trkpt lat="40.65741" lon="-2.15509">
        <ele>1388</ele>
        <time>2021-10-09 10:27:44</time>
      </trkpt>
      <trkpt lat="40.65738" lon="-2.15506">
        <ele>1388</ele>
        <time>2021-10-09 10:27:45</time>
      </trkpt>
      <trkpt lat="40.65735" lon="-2.15505">
        <ele>1388.4</ele>
        <time>2021-10-09 10:27:46</time>
      </trkpt>
      <trkpt lat="40.65732" lon="-2.15503">
        <ele>1388.6</ele>
        <time>2021-10-09 10:27:47</time>
      </trkpt>
      <trkpt lat="40.6573" lon="-2.15502">
        <ele>1388.8</ele>
        <time>2021-10-09 10:27:48</time>
      </trkpt>
      <trkpt lat="40.65727" lon="-2.155">
        <ele>1389</ele>
        <time>2021-10-09 10:27:49</time>
      </trkpt>
      <trkpt lat="40.65725" lon="-2.15499">
        <ele>1389</ele>
        <time>2021-10-09 10:27:50</time>
      </trkpt>
      <trkpt lat="40.65722" lon="-2.15496">
        <ele>1389.2</ele>
        <time>2021-10-09 10:27:51</time>
      </trkpt>
      <trkpt lat="40.6572" lon="-2.15494">
        <ele>1389.2</ele>
        <time>2021-10-09 10:27:52</time>
      </trkpt>
      <trkpt lat="40.65717" lon="-2.15491">
        <ele>1389.6</ele>
        <time>2021-10-09 10:27:53</time>
      </trkpt>
      <trkpt lat="40.65714" lon="-2.15489">
        <ele>1389.6</ele>
        <time>2021-10-09 10:27:54</time>
      </trkpt>
      <trkpt lat="40.65711" lon="-2.15487">
        <ele>1389.8</ele>
        <time>2021-10-09 10:27:55</time>
      </trkpt>
      <trkpt lat="40.65708" lon="-2.15485">
        <ele>1389.8</ele>
        <time>2021-10-09 10:27:56</time>
      </trkpt>
      <trkpt lat="40.65706" lon="-2.15483">
        <ele>1390.2</ele>
        <time>2021-10-09 10:27:57</time>
      </trkpt>
      <trkpt lat="40.65703" lon="-2.15481">
        <ele>1390.2</ele>
        <time>2021-10-09 10:27:58</time>
      </trkpt>
      <trkpt lat="40.65701" lon="-2.15478">
        <ele>1390.4</ele>
        <time>2021-10-09 10:27:59</time>
      </trkpt>
      <trkpt lat="40.65698" lon="-2.15476">
        <ele>1390.4</ele>
        <time>2021-10-09 10:28:00</time>
      </trkpt>
      <trkpt lat="40.65696" lon="-2.15474">
        <ele>1390.4</ele>
        <time>2021-10-09 10:28:01</time>
      </trkpt>
      <trkpt lat="40.65693" lon="-2.15471">
        <ele>1390.4</ele>
        <time>2021-10-09 10:28:02</time>
      </trkpt>
      <trkpt lat="40.6569" lon="-2.15468">
        <ele>1390.4</ele>
        <time>2021-10-09 10:28:03</time>
      </trkpt>
      <trkpt lat="40.65688" lon="-2.15466">
        <ele>1390.4</ele>
        <time>2021-10-09 10:28:04</time>
      </trkpt>
      <trkpt lat="40.65685" lon="-2.15463">
        <ele>1390.6</ele>
        <time>2021-10-09 10:28:05</time>
      </trkpt>
      <trkpt lat="40.65682" lon="-2.1546">
        <ele>1390.6</ele>
        <time>2021-10-09 10:28:06</time>
      </trkpt>
      <trkpt lat="40.65679" lon="-2.15457">
        <ele>1390.6</ele>
        <time>2021-10-09 10:28:07</time>
      </trkpt>
      <trkpt lat="40.65676" lon="-2.15454">
        <ele>1390.6</ele>
        <time>2021-10-09 10:28:08</time>
      </trkpt>
      <trkpt lat="40.65673" lon="-2.15451">
        <ele>1390.6</ele>
        <time>2021-10-09 10:28:09</time>
      </trkpt>
      <trkpt lat="40.65669" lon="-2.15449">
        <ele>1390.6</ele>
        <time>2021-10-09 10:28:10</time>
      </trkpt>
      <trkpt lat="40.65666" lon="-2.15447">
        <ele>1390.6</ele>
        <time>2021-10-09 10:28:11</time>
      </trkpt>
      <trkpt lat="40.65662" lon="-2.15445">
        <ele>1390.6</ele>
        <time>2021-10-09 10:28:12</time>
      </trkpt>
      <trkpt lat="40.65659" lon="-2.15444">
        <ele>1390.6</ele>
        <time>2021-10-09 10:28:13</time>
      </trkpt>
      <trkpt lat="40.65655" lon="-2.15442">
        <ele>1390.6</ele>
        <time>2021-10-09 10:28:14</time>
      </trkpt>
      <trkpt lat="40.65651" lon="-2.15441">
        <ele>1390.6</ele>
        <time>2021-10-09 10:28:15</time>
      </trkpt>
      <trkpt lat="40.65648" lon="-2.1544">
        <ele>1390.6</ele>
        <time>2021-10-09 10:28:16</time>
      </trkpt>
      <trkpt lat="40.65644" lon="-2.15439">
        <ele>1390.6</ele>
        <time>2021-10-09 10:28:17</time>
      </trkpt>
      <trkpt lat="40.6564" lon="-2.15437">
        <ele>1390.6</ele>
        <time>2021-10-09 10:28:18</time>
      </trkpt>
      <trkpt lat="40.65636" lon="-2.15436">
        <ele>1390.6</ele>
        <time>2021-10-09 10:28:19</time>
      </trkpt>
      <trkpt lat="40.65633" lon="-2.15434">
        <ele>1390.6</ele>
        <time>2021-10-09 10:28:20</time>
      </trkpt>
      <trkpt lat="40.65629" lon="-2.15432">
        <ele>1390.6</ele>
        <time>2021-10-09 10:28:21</time>
      </trkpt>
      <trkpt lat="40.65626" lon="-2.1543">
        <ele>1390.6</ele>
        <time>2021-10-09 10:28:22</time>
      </trkpt>
      <trkpt lat="40.65623" lon="-2.15429">
        <ele>1390.6</ele>
        <time>2021-10-09 10:28:23</time>
      </trkpt>
      <trkpt lat="40.65619" lon="-2.15428">
        <ele>1390.6</ele>
        <time>2021-10-09 10:28:24</time>
      </trkpt>
      <trkpt lat="40.65616" lon="-2.15426">
        <ele>1390.6</ele>
        <time>2021-10-09 10:28:25</time>
      </trkpt>
      <trkpt lat="40.65612" lon="-2.15424">
        <ele>1390.6</ele>
        <time>2021-10-09 10:28:26</time>
      </trkpt>
      <trkpt lat="40.65608" lon="-2.15422">
        <ele>1390.6</ele>
        <time>2021-10-09 10:28:27</time>
      </trkpt>
      <trkpt lat="40.65604" lon="-2.1542">
        <ele>1390.6</ele>
        <time>2021-10-09 10:28:28</time>
      </trkpt>
      <trkpt lat="40.656" lon="-2.15418">
        <ele>1390.4</ele>
        <time>2021-10-09 10:28:29</time>
      </trkpt>
      <trkpt lat="40.65596" lon="-2.15416">
        <ele>1390.4</ele>
        <time>2021-10-09 10:28:30</time>
      </trkpt>
      <trkpt lat="40.65592" lon="-2.15415">
        <ele>1390.4</ele>
        <time>2021-10-09 10:28:31</time>
      </trkpt>
      <trkpt lat="40.65588" lon="-2.15413">
        <ele>1390.2</ele>
        <time>2021-10-09 10:28:32</time>
      </trkpt>
      <trkpt lat="40.65584" lon="-2.15411">
        <ele>1390.2</ele>
        <time>2021-10-09 10:28:33</time>
      </trkpt>
      <trkpt lat="40.65581" lon="-2.15407">
        <ele>1390.2</ele>
        <time>2021-10-09 10:28:34</time>
      </trkpt>
      <trkpt lat="40.65577" lon="-2.15406">
        <ele>1389.8</ele>
        <time>2021-10-09 10:28:35</time>
      </trkpt>
      <trkpt lat="40.65574" lon="-2.15405">
        <ele>1389.8</ele>
        <time>2021-10-09 10:28:36</time>
      </trkpt>
      <trkpt lat="40.65569" lon="-2.15403">
        <ele>1389.8</ele>
        <time>2021-10-09 10:28:37</time>
      </trkpt>
      <trkpt lat="40.65565" lon="-2.15402">
        <ele>1389.8</ele>
        <time>2021-10-09 10:28:38</time>
      </trkpt>
      <trkpt lat="40.6556" lon="-2.15401">
        <ele>1389.6</ele>
        <time>2021-10-09 10:28:39</time>
      </trkpt>
      <trkpt lat="40.65556" lon="-2.154">
        <ele>1389.6</ele>
        <time>2021-10-09 10:28:40</time>
      </trkpt>
      <trkpt lat="40.65552" lon="-2.154">
        <ele>1389.6</ele>
        <time>2021-10-09 10:28:41</time>
      </trkpt>
      <trkpt lat="40.65548" lon="-2.15399">
        <ele>1389.6</ele>
        <time>2021-10-09 10:28:42</time>
      </trkpt>
      <trkpt lat="40.65543" lon="-2.15398">
        <ele>1389.6</ele>
        <time>2021-10-09 10:28:43</time>
      </trkpt>
      <trkpt lat="40.65539" lon="-2.15398">
        <ele>1389.8</ele>
        <time>2021-10-09 10:28:44</time>
      </trkpt>
      <trkpt lat="40.65535" lon="-2.15398">
        <ele>1389.8</ele>
        <time>2021-10-09 10:28:45</time>
      </trkpt>
      <trkpt lat="40.65531" lon="-2.15398">
        <ele>1389.8</ele>
        <time>2021-10-09 10:28:46</time>
      </trkpt>
      <trkpt lat="40.65527" lon="-2.15398">
        <ele>1390</ele>
        <time>2021-10-09 10:28:47</time>
      </trkpt>
      <trkpt lat="40.65523" lon="-2.15399">
        <ele>1390</ele>
        <time>2021-10-09 10:28:48</time>
      </trkpt>
      <trkpt lat="40.65518" lon="-2.15399">
        <ele>1390</ele>
        <time>2021-10-09 10:28:49</time>
      </trkpt>
      <trkpt lat="40.65514" lon="-2.15399">
        <ele>1390.4</ele>
        <time>2021-10-09 10:28:50</time>
      </trkpt>
      <trkpt lat="40.6551" lon="-2.154">
        <ele>1390.4</ele>
        <time>2021-10-09 10:28:51</time>
      </trkpt>
      <trkpt lat="40.65506" lon="-2.15399">
        <ele>1390.4</ele>
        <time>2021-10-09 10:28:52</time>
      </trkpt>
      <trkpt lat="40.65503" lon="-2.15399">
        <ele>1390.4</ele>
        <time>2021-10-09 10:28:53</time>
      </trkpt>
      <trkpt lat="40.65499" lon="-2.15398">
        <ele>1390.6</ele>
        <time>2021-10-09 10:28:54</time>
      </trkpt>
      <trkpt lat="40.65495" lon="-2.15397">
        <ele>1390.6</ele>
        <time>2021-10-09 10:28:55</time>
      </trkpt>
      <trkpt lat="40.65492" lon="-2.15396">
        <ele>1390.6</ele>
        <time>2021-10-09 10:28:56</time>
      </trkpt>
      <trkpt lat="40.65488" lon="-2.15395">
        <ele>1391</ele>
        <time>2021-10-09 10:28:57</time>
      </trkpt>
      <trkpt lat="40.65484" lon="-2.15394">
        <ele>1391</ele>
        <time>2021-10-09 10:28:58</time>
      </trkpt>
      <trkpt lat="40.6548" lon="-2.15393">
        <ele>1391.2</ele>
        <time>2021-10-09 10:28:59</time>
      </trkpt>
      <trkpt lat="40.65476" lon="-2.15392">
        <ele>1391.2</ele>
        <time>2021-10-09 10:29:00</time>
      </trkpt>
      <trkpt lat="40.65472" lon="-2.15392">
        <ele>1391.2</ele>
        <time>2021-10-09 10:29:01</time>
      </trkpt>
      <trkpt lat="40.65468" lon="-2.15391">
        <ele>1391.4</ele>
        <time>2021-10-09 10:29:02</time>
      </trkpt>
      <trkpt lat="40.65464" lon="-2.15391">
        <ele>1391.4</ele>
        <time>2021-10-09 10:29:03</time>
      </trkpt>
      <trkpt lat="40.65461" lon="-2.1539">
        <ele>1391.4</ele>
        <time>2021-10-09 10:29:04</time>
      </trkpt>
      <trkpt lat="40.65458" lon="-2.15389">
        <ele>1391.4</ele>
        <time>2021-10-09 10:29:05</time>
      </trkpt>
      <trkpt lat="40.65454" lon="-2.15389">
        <ele>1391.6</ele>
        <time>2021-10-09 10:29:06</time>
      </trkpt>
      <trkpt lat="40.65451" lon="-2.15388">
        <ele>1391.6</ele>
        <time>2021-10-09 10:29:07</time>
      </trkpt>
      <trkpt lat="40.65447" lon="-2.15387">
        <ele>1391.6</ele>
        <time>2021-10-09 10:29:08</time>
      </trkpt>
      <trkpt lat="40.65443" lon="-2.15386">
        <ele>1391.6</ele>
        <time>2021-10-09 10:29:09</time>
      </trkpt>
      <trkpt lat="40.65439" lon="-2.15385">
        <ele>1392</ele>
        <time>2021-10-09 10:29:10</time>
      </trkpt>
      <trkpt lat="40.65436" lon="-2.15385">
        <ele>1392</ele>
        <time>2021-10-09 10:29:11</time>
      </trkpt>
      <trkpt lat="40.65433" lon="-2.15384">
        <ele>1392.2</ele>
        <time>2021-10-09 10:29:12</time>
      </trkpt>
      <trkpt lat="40.65429" lon="-2.15384">
        <ele>1392.2</ele>
        <time>2021-10-09 10:29:13</time>
      </trkpt>
      <trkpt lat="40.65426" lon="-2.15383">
        <ele>1392.2</ele>
        <time>2021-10-09 10:29:14</time>
      </trkpt>
      <trkpt lat="40.65423" lon="-2.15383">
        <ele>1392.4</ele>
        <time>2021-10-09 10:29:15</time>
      </trkpt>
      <trkpt lat="40.65421" lon="-2.15382">
        <ele>1392.4</ele>
        <time>2021-10-09 10:29:16</time>
      </trkpt>
      <trkpt lat="40.65418" lon="-2.15382">
        <ele>1392.6</ele>
        <time>2021-10-09 10:29:17</time>
      </trkpt>
      <trkpt lat="40.65416" lon="-2.15381">
        <ele>1392.6</ele>
        <time>2021-10-09 10:29:18</time>
      </trkpt>
      <trkpt lat="40.65413" lon="-2.1538">
        <ele>1393</ele>
        <time>2021-10-09 10:29:19</time>
      </trkpt>
      <trkpt lat="40.65411" lon="-2.1538">
        <ele>1393</ele>
        <time>2021-10-09 10:29:20</time>
      </trkpt>
      <trkpt lat="40.65408" lon="-2.15379">
        <ele>1393.2</ele>
        <time>2021-10-09 10:29:21</time>
      </trkpt>
      <trkpt lat="40.65406" lon="-2.15379">
        <ele>1393.2</ele>
        <time>2021-10-09 10:29:22</time>
      </trkpt>
      <trkpt lat="40.65403" lon="-2.15379">
        <ele>1393.6</ele>
        <time>2021-10-09 10:29:23</time>
      </trkpt>
      <trkpt lat="40.654" lon="-2.15378">
        <ele>1393.6</ele>
        <time>2021-10-09 10:29:24</time>
      </trkpt>
      <trkpt lat="40.65398" lon="-2.15378">
        <ele>1393.8</ele>
        <time>2021-10-09 10:29:25</time>
      </trkpt>
      <trkpt lat="40.65395" lon="-2.15377">
        <ele>1393.8</ele>
        <time>2021-10-09 10:29:26</time>
      </trkpt>
      <trkpt lat="40.65392" lon="-2.15377">
        <ele>1394.2</ele>
        <time>2021-10-09 10:29:27</time>
      </trkpt>
      <trkpt lat="40.6539" lon="-2.15377">
        <ele>1394.2</ele>
        <time>2021-10-09 10:29:28</time>
      </trkpt>
      <trkpt lat="40.65387" lon="-2.15377">
        <ele>1394.4</ele>
        <time>2021-10-09 10:29:29</time>
      </trkpt>
      <trkpt lat="40.65385" lon="-2.15377">
        <ele>1394.4</ele>
        <time>2021-10-09 10:29:30</time>
      </trkpt>
      <trkpt lat="40.65382" lon="-2.15376">
        <ele>1394.6</ele>
        <time>2021-10-09 10:29:31</time>
      </trkpt>
      <trkpt lat="40.65379" lon="-2.15376">
        <ele>1394.6</ele>
        <time>2021-10-09 10:29:32</time>
      </trkpt>
      <trkpt lat="40.65376" lon="-2.15377">
        <ele>1395</ele>
        <time>2021-10-09 10:29:33</time>
      </trkpt>
      <trkpt lat="40.65373" lon="-2.15377">
        <ele>1395</ele>
        <time>2021-10-09 10:29:34</time>
      </trkpt>
      <trkpt lat="40.6537" lon="-2.15376">
        <ele>1395.2</ele>
        <time>2021-10-09 10:29:35</time>
      </trkpt>
      <trkpt lat="40.65367" lon="-2.15376">
        <ele>1395.2</ele>
        <time>2021-10-09 10:29:36</time>
      </trkpt>
      <trkpt lat="40.65364" lon="-2.15376">
        <ele>1395.4</ele>
        <time>2021-10-09 10:29:37</time>
      </trkpt>
      <trkpt lat="40.65361" lon="-2.15376">
        <ele>1395.4</ele>
        <time>2021-10-09 10:29:38</time>
      </trkpt>
      <trkpt lat="40.65359" lon="-2.15375">
        <ele>1395.8</ele>
        <time>2021-10-09 10:29:39</time>
      </trkpt>
      <trkpt lat="40.65356" lon="-2.15374">
        <ele>1395.8</ele>
        <time>2021-10-09 10:29:40</time>
      </trkpt>
      <trkpt lat="40.65353" lon="-2.15374">
        <ele>1395.8</ele>
        <time>2021-10-09 10:29:41</time>
      </trkpt>
      <trkpt lat="40.65351" lon="-2.15374">
        <ele>1395.8</ele>
        <time>2021-10-09 10:29:42</time>
      </trkpt>
      <trkpt lat="40.65349" lon="-2.15374">
        <ele>1396</ele>
        <time>2021-10-09 10:29:43</time>
      </trkpt>
      <trkpt lat="40.65347" lon="-2.15374">
        <ele>1396</ele>
        <time>2021-10-09 10:29:44</time>
      </trkpt>
      <trkpt lat="40.65345" lon="-2.15374">
        <ele>1396.2</ele>
        <time>2021-10-09 10:29:45</time>
      </trkpt>
      <trkpt lat="40.65343" lon="-2.15374">
        <ele>1396.2</ele>
        <time>2021-10-09 10:29:46</time>
      </trkpt>
      <trkpt lat="40.65341" lon="-2.15374">
        <ele>1396.8</ele>
        <time>2021-10-09 10:29:47</time>
      </trkpt>
      <trkpt lat="40.65339" lon="-2.15374">
        <ele>1397</ele>
        <time>2021-10-09 10:29:48</time>
      </trkpt>
      <trkpt lat="40.65337" lon="-2.15375">
        <ele>1397</ele>
        <time>2021-10-09 10:29:49</time>
      </trkpt>
      <trkpt lat="40.65334" lon="-2.15374">
        <ele>1397.2</ele>
        <time>2021-10-09 10:29:50</time>
      </trkpt>
      <trkpt lat="40.65331" lon="-2.15374">
        <ele>1397.2</ele>
        <time>2021-10-09 10:29:51</time>
      </trkpt>
      <trkpt lat="40.65329" lon="-2.15374">
        <ele>1397.6</ele>
        <time>2021-10-09 10:29:52</time>
      </trkpt>
      <trkpt lat="40.65326" lon="-2.15374">
        <ele>1397.6</ele>
        <time>2021-10-09 10:29:53</time>
      </trkpt>
      <trkpt lat="40.65324" lon="-2.15374">
        <ele>1397.8</ele>
        <time>2021-10-09 10:29:54</time>
      </trkpt>
      <trkpt lat="40.65321" lon="-2.15373">
        <ele>1397.8</ele>
        <time>2021-10-09 10:29:55</time>
      </trkpt>
      <trkpt lat="40.65318" lon="-2.15372">
        <ele>1398.2</ele>
        <time>2021-10-09 10:29:56</time>
      </trkpt>
      <trkpt lat="40.65316" lon="-2.15372">
        <ele>1398.4</ele>
        <time>2021-10-09 10:29:57</time>
      </trkpt>
      <trkpt lat="40.65313" lon="-2.15372">
        <ele>1398.6</ele>
        <time>2021-10-09 10:29:58</time>
      </trkpt>
      <trkpt lat="40.6531" lon="-2.15372">
        <ele>1398.6</ele>
        <time>2021-10-09 10:29:59</time>
      </trkpt>
      <trkpt lat="40.65307" lon="-2.15372">
        <ele>1399</ele>
        <time>2021-10-09 10:30:00</time>
      </trkpt>
      <trkpt lat="40.65304" lon="-2.15372">
        <ele>1399</ele>
        <time>2021-10-09 10:30:01</time>
      </trkpt>
      <trkpt lat="40.65301" lon="-2.15372">
        <ele>1399.4</ele>
        <time>2021-10-09 10:30:02</time>
      </trkpt>
      <trkpt lat="40.65299" lon="-2.15372">
        <ele>1399.6</ele>
        <time>2021-10-09 10:30:03</time>
      </trkpt>
      <trkpt lat="40.65296" lon="-2.15372">
        <ele>1399.6</ele>
        <time>2021-10-09 10:30:04</time>
      </trkpt>
      <trkpt lat="40.65294" lon="-2.15372">
        <ele>1399.8</ele>
        <time>2021-10-09 10:30:05</time>
      </trkpt>
      <trkpt lat="40.65291" lon="-2.15372">
        <ele>1399.8</ele>
        <time>2021-10-09 10:30:06</time>
      </trkpt>
      <trkpt lat="40.65289" lon="-2.15372">
        <ele>1400.2</ele>
        <time>2021-10-09 10:30:07</time>
      </trkpt>
      <trkpt lat="40.65286" lon="-2.15373">
        <ele>1400.2</ele>
        <time>2021-10-09 10:30:08</time>
      </trkpt>
      <trkpt lat="40.65284" lon="-2.15374">
        <ele>1400.2</ele>
        <time>2021-10-09 10:30:09</time>
      </trkpt>
      <trkpt lat="40.65281" lon="-2.15374">
        <ele>1400.6</ele>
        <time>2021-10-09 10:30:10</time>
      </trkpt>
      <trkpt lat="40.65278" lon="-2.15375">
        <ele>1400.6</ele>
        <time>2021-10-09 10:30:11</time>
      </trkpt>
      <trkpt lat="40.65275" lon="-2.15375">
        <ele>1400.6</ele>
        <time>2021-10-09 10:30:12</time>
      </trkpt>
      <trkpt lat="40.65272" lon="-2.15375">
        <ele>1400.8</ele>
        <time>2021-10-09 10:30:13</time>
      </trkpt>
      <trkpt lat="40.65269" lon="-2.15376">
        <ele>1400.8</ele>
        <time>2021-10-09 10:30:14</time>
      </trkpt>
      <trkpt lat="40.65266" lon="-2.15376">
        <ele>1401</ele>
        <time>2021-10-09 10:30:15</time>
      </trkpt>
      <trkpt lat="40.65264" lon="-2.15377">
        <ele>1401</ele>
        <time>2021-10-09 10:30:16</time>
      </trkpt>
      <trkpt lat="40.65261" lon="-2.15377">
        <ele>1401</ele>
        <time>2021-10-09 10:30:17</time>
      </trkpt>
      <trkpt lat="40.65258" lon="-2.15378">
        <ele>1401.4</ele>
        <time>2021-10-09 10:30:18</time>
      </trkpt>
      <trkpt lat="40.65256" lon="-2.15379">
        <ele>1401.4</ele>
        <time>2021-10-09 10:30:19</time>
      </trkpt>
      <trkpt lat="40.65253" lon="-2.15379">
        <ele>1401.6</ele>
        <time>2021-10-09 10:30:20</time>
      </trkpt>
      <trkpt lat="40.6525" lon="-2.1538">
        <ele>1401.6</ele>
        <time>2021-10-09 10:30:21</time>
      </trkpt>
      <trkpt lat="40.65247" lon="-2.1538">
        <ele>1401.8</ele>
        <time>2021-10-09 10:30:22</time>
      </trkpt>
      <trkpt lat="40.65244" lon="-2.1538">
        <ele>1401.8</ele>
        <time>2021-10-09 10:30:23</time>
      </trkpt>
      <trkpt lat="40.65241" lon="-2.1538">
        <ele>1402.2</ele>
        <time>2021-10-09 10:30:24</time>
      </trkpt>
      <trkpt lat="40.65238" lon="-2.15379">
        <ele>1402.2</ele>
        <time>2021-10-09 10:30:25</time>
      </trkpt>
      <trkpt lat="40.65235" lon="-2.15379">
        <ele>1402.4</ele>
        <time>2021-10-09 10:30:26</time>
      </trkpt>
      <trkpt lat="40.65232" lon="-2.15379">
        <ele>1402.4</ele>
        <time>2021-10-09 10:30:27</time>
      </trkpt>
      <trkpt lat="40.65229" lon="-2.15378">
        <ele>1402.8</ele>
        <time>2021-10-09 10:30:28</time>
      </trkpt>
      <trkpt lat="40.65226" lon="-2.15377">
        <ele>1402.8</ele>
        <time>2021-10-09 10:30:29</time>
      </trkpt>
      <trkpt lat="40.65224" lon="-2.15376">
        <ele>1402.8</ele>
        <time>2021-10-09 10:30:30</time>
      </trkpt>
      <trkpt lat="40.65221" lon="-2.15375">
        <ele>1402.4</ele>
        <time>2021-10-09 10:30:31</time>
      </trkpt>
      <trkpt lat="40.65218" lon="-2.15374">
        <ele>1402.8</ele>
        <time>2021-10-09 10:30:32</time>
      </trkpt>
      <trkpt lat="40.65215" lon="-2.15374">
        <ele>1402.8</ele>
        <time>2021-10-09 10:30:33</time>
      </trkpt>
      <trkpt lat="40.65213" lon="-2.15373">
        <ele>1402.8</ele>
        <time>2021-10-09 10:30:34</time>
      </trkpt>
      <trkpt lat="40.6521" lon="-2.15372">
        <ele>1402.8</ele>
        <time>2021-10-09 10:30:35</time>
      </trkpt>
      <trkpt lat="40.65207" lon="-2.15372">
        <ele>1402.8</ele>
        <time>2021-10-09 10:30:36</time>
      </trkpt>
      <trkpt lat="40.65204" lon="-2.15371">
        <ele>1402.8</ele>
        <time>2021-10-09 10:30:37</time>
      </trkpt>
      <trkpt lat="40.65201" lon="-2.15371">
        <ele>1402.8</ele>
        <time>2021-10-09 10:30:38</time>
      </trkpt>
      <trkpt lat="40.65198" lon="-2.1537">
        <ele>1403</ele>
        <time>2021-10-09 10:30:39</time>
      </trkpt>
      <trkpt lat="40.65195" lon="-2.1537">
        <ele>1403</ele>
        <time>2021-10-09 10:30:40</time>
      </trkpt>
      <trkpt lat="40.65192" lon="-2.15369">
        <ele>1403</ele>
        <time>2021-10-09 10:30:41</time>
      </trkpt>
      <trkpt lat="40.65188" lon="-2.15368">
        <ele>1403.4</ele>
        <time>2021-10-09 10:30:42</time>
      </trkpt>
      <trkpt lat="40.65185" lon="-2.15367">
        <ele>1403.4</ele>
        <time>2021-10-09 10:30:43</time>
      </trkpt>
      <trkpt lat="40.65182" lon="-2.15367">
        <ele>1403.4</ele>
        <time>2021-10-09 10:30:44</time>
      </trkpt>
      <trkpt lat="40.65179" lon="-2.15367">
        <ele>1403.4</ele>
        <time>2021-10-09 10:30:45</time>
      </trkpt>
      <trkpt lat="40.65175" lon="-2.15366">
        <ele>1403.4</ele>
        <time>2021-10-09 10:30:46</time>
      </trkpt>
      <trkpt lat="40.65172" lon="-2.15366">
        <ele>1403.6</ele>
        <time>2021-10-09 10:30:47</time>
      </trkpt>
      <trkpt lat="40.65168" lon="-2.15366">
        <ele>1403.6</ele>
        <time>2021-10-09 10:30:48</time>
      </trkpt>
      <trkpt lat="40.65165" lon="-2.15366">
        <ele>1403.6</ele>
        <time>2021-10-09 10:30:49</time>
      </trkpt>
      <trkpt lat="40.65161" lon="-2.15366">
        <ele>1403.6</ele>
        <time>2021-10-09 10:30:50</time>
      </trkpt>
      <trkpt lat="40.65158" lon="-2.15366">
        <ele>1404</ele>
        <time>2021-10-09 10:30:51</time>
      </trkpt>
      <trkpt lat="40.65154" lon="-2.15366">
        <ele>1404</ele>
        <time>2021-10-09 10:30:52</time>
      </trkpt>
      <trkpt lat="40.65151" lon="-2.15365">
        <ele>1404</ele>
        <time>2021-10-09 10:30:53</time>
      </trkpt>
      <trkpt lat="40.65147" lon="-2.15365">
        <ele>1404.2</ele>
        <time>2021-10-09 10:30:54</time>
      </trkpt>
      <trkpt lat="40.65144" lon="-2.15364">
        <ele>1404.2</ele>
        <time>2021-10-09 10:30:55</time>
      </trkpt>
      <trkpt lat="40.6514" lon="-2.15364">
        <ele>1404.2</ele>
        <time>2021-10-09 10:30:56</time>
      </trkpt>
      <trkpt lat="40.65136" lon="-2.15363">
        <ele>1404.2</ele>
        <time>2021-10-09 10:30:57</time>
      </trkpt>
      <trkpt lat="40.65133" lon="-2.15363">
        <ele>1404.2</ele>
        <time>2021-10-09 10:30:58</time>
      </trkpt>
      <trkpt lat="40.6513" lon="-2.15362">
        <ele>1404.2</ele>
        <time>2021-10-09 10:30:59</time>
      </trkpt>
      <trkpt lat="40.65126" lon="-2.15362">
        <ele>1404.4</ele>
        <time>2021-10-09 10:31:00</time>
      </trkpt>
      <trkpt lat="40.65122" lon="-2.15362">
        <ele>1404.4</ele>
        <time>2021-10-09 10:31:01</time>
      </trkpt>
      <trkpt lat="40.65118" lon="-2.15362">
        <ele>1404.4</ele>
        <time>2021-10-09 10:31:02</time>
      </trkpt>
      <trkpt lat="40.65115" lon="-2.15362">
        <ele>1404.4</ele>
        <time>2021-10-09 10:31:03</time>
      </trkpt>
      <trkpt lat="40.65111" lon="-2.15361">
        <ele>1404.4</ele>
        <time>2021-10-09 10:31:04</time>
      </trkpt>
      <trkpt lat="40.65106" lon="-2.1536">
        <ele>1404.4</ele>
        <time>2021-10-09 10:31:05</time>
      </trkpt>
      <trkpt lat="40.65102" lon="-2.15358">
        <ele>1404.4</ele>
        <time>2021-10-09 10:31:06</time>
      </trkpt>
      <trkpt lat="40.65097" lon="-2.15357">
        <ele>1404.4</ele>
        <time>2021-10-09 10:31:07</time>
      </trkpt>
      <trkpt lat="40.65093" lon="-2.15355">
        <ele>1404.4</ele>
        <time>2021-10-09 10:31:08</time>
      </trkpt>
      <trkpt lat="40.65089" lon="-2.15353">
        <ele>1404.4</ele>
        <time>2021-10-09 10:31:09</time>
      </trkpt>
      <trkpt lat="40.65084" lon="-2.15351">
        <ele>1404.4</ele>
        <time>2021-10-09 10:31:10</time>
      </trkpt>
      <trkpt lat="40.6508" lon="-2.15349">
        <ele>1404.4</ele>
        <time>2021-10-09 10:31:11</time>
      </trkpt>
      <trkpt lat="40.65076" lon="-2.15347">
        <ele>1404.2</ele>
        <time>2021-10-09 10:31:12</time>
      </trkpt>
      <trkpt lat="40.65072" lon="-2.15346">
        <ele>1404.2</ele>
        <time>2021-10-09 10:31:13</time>
      </trkpt>
      <trkpt lat="40.65068" lon="-2.15344">
        <ele>1404.2</ele>
        <time>2021-10-09 10:31:14</time>
      </trkpt>
      <trkpt lat="40.65063" lon="-2.15343">
        <ele>1403.8</ele>
        <time>2021-10-09 10:31:15</time>
      </trkpt>
      <trkpt lat="40.65059" lon="-2.15341">
        <ele>1403.8</ele>
        <time>2021-10-09 10:31:16</time>
      </trkpt>
      <trkpt lat="40.65055" lon="-2.1534">
        <ele>1402.8</ele>
        <time>2021-10-09 10:31:17</time>
      </trkpt>
      <trkpt lat="40.65051" lon="-2.15339">
        <ele>1402.4</ele>
        <time>2021-10-09 10:31:18</time>
      </trkpt>
      <trkpt lat="40.65047" lon="-2.15337">
        <ele>1403.4</ele>
        <time>2021-10-09 10:31:19</time>
      </trkpt>
      <trkpt lat="40.65043" lon="-2.15335">
        <ele>1403.6</ele>
        <time>2021-10-09 10:31:20</time>
      </trkpt>
      <trkpt lat="40.6504" lon="-2.15333">
        <ele>1404</ele>
        <time>2021-10-09 10:31:21</time>
      </trkpt>
      <trkpt lat="40.65036" lon="-2.15331">
        <ele>1404</ele>
        <time>2021-10-09 10:31:22</time>
      </trkpt>
      <trkpt lat="40.65033" lon="-2.15329">
        <ele>1404</ele>
        <time>2021-10-09 10:31:23</time>
      </trkpt>
      <trkpt lat="40.65029" lon="-2.15327">
        <ele>1404</ele>
        <time>2021-10-09 10:31:24</time>
      </trkpt>
      <trkpt lat="40.65025" lon="-2.15326">
        <ele>1404</ele>
        <time>2021-10-09 10:31:25</time>
      </trkpt>
      <trkpt lat="40.65022" lon="-2.15324">
        <ele>1404.2</ele>
        <time>2021-10-09 10:31:26</time>
      </trkpt>
      <trkpt lat="40.65018" lon="-2.15323">
        <ele>1404.2</ele>
        <time>2021-10-09 10:31:27</time>
      </trkpt>
      <trkpt lat="40.65014" lon="-2.15322">
        <ele>1404.2</ele>
        <time>2021-10-09 10:31:28</time>
      </trkpt>
      <trkpt lat="40.6501" lon="-2.15321">
        <ele>1404.2</ele>
        <time>2021-10-09 10:31:29</time>
      </trkpt>
      <trkpt lat="40.65006" lon="-2.1532">
        <ele>1404.4</ele>
        <time>2021-10-09 10:31:30</time>
      </trkpt>
      <trkpt lat="40.65003" lon="-2.15318">
        <ele>1404.4</ele>
        <time>2021-10-09 10:31:31</time>
      </trkpt>
      <trkpt lat="40.64999" lon="-2.15316">
        <ele>1404.4</ele>
        <time>2021-10-09 10:31:32</time>
      </trkpt>
      <trkpt lat="40.64995" lon="-2.15314">
        <ele>1404.4</ele>
        <time>2021-10-09 10:31:33</time>
      </trkpt>
      <trkpt lat="40.64992" lon="-2.15312">
        <ele>1404.4</ele>
        <time>2021-10-09 10:31:34</time>
      </trkpt>
      <trkpt lat="40.64989" lon="-2.1531">
        <ele>1404.4</ele>
        <time>2021-10-09 10:31:35</time>
      </trkpt>
      <trkpt lat="40.64986" lon="-2.15308">
        <ele>1404.4</ele>
        <time>2021-10-09 10:31:36</time>
      </trkpt>
      <trkpt lat="40.64983" lon="-2.15305">
        <ele>1404.6</ele>
        <time>2021-10-09 10:31:37</time>
      </trkpt>
      <trkpt lat="40.6498" lon="-2.15303">
        <ele>1405</ele>
        <time>2021-10-09 10:31:38</time>
      </trkpt>
      <trkpt lat="40.64977" lon="-2.15301">
        <ele>1405</ele>
        <time>2021-10-09 10:31:39</time>
      </trkpt>
      <trkpt lat="40.64974" lon="-2.15299">
        <ele>1405</ele>
        <time>2021-10-09 10:31:40</time>
      </trkpt>
      <trkpt lat="40.64971" lon="-2.15297">
        <ele>1405</ele>
        <time>2021-10-09 10:31:41</time>
      </trkpt>
      <trkpt lat="40.64967" lon="-2.15295">
        <ele>1405.2</ele>
        <time>2021-10-09 10:31:42</time>
      </trkpt>
      <trkpt lat="40.64964" lon="-2.15294">
        <ele>1405.2</ele>
        <time>2021-10-09 10:31:43</time>
      </trkpt>
      <trkpt lat="40.64961" lon="-2.15291">
        <ele>1405.2</ele>
        <time>2021-10-09 10:31:44</time>
      </trkpt>
      <trkpt lat="40.64957" lon="-2.15289">
        <ele>1405.2</ele>
        <time>2021-10-09 10:31:45</time>
      </trkpt>
      <trkpt lat="40.64954" lon="-2.15287">
        <ele>1405.4</ele>
        <time>2021-10-09 10:31:46</time>
      </trkpt>
      <trkpt lat="40.64951" lon="-2.15284">
        <ele>1405.4</ele>
        <time>2021-10-09 10:31:47</time>
      </trkpt>
      <trkpt lat="40.64949" lon="-2.1528">
        <ele>1405.4</ele>
        <time>2021-10-09 10:31:48</time>
      </trkpt>
      <trkpt lat="40.64946" lon="-2.15277">
        <ele>1405.4</ele>
        <time>2021-10-09 10:31:49</time>
      </trkpt>
      <trkpt lat="40.64944" lon="-2.15274">
        <ele>1405.4</ele>
        <time>2021-10-09 10:31:50</time>
      </trkpt>
      <trkpt lat="40.64942" lon="-2.1527">
        <ele>1405.6</ele>
        <time>2021-10-09 10:31:51</time>
      </trkpt>
      <trkpt lat="40.64939" lon="-2.15267">
        <ele>1405.6</ele>
        <time>2021-10-09 10:31:52</time>
      </trkpt>
      <trkpt lat="40.64937" lon="-2.15264">
        <ele>1405.6</ele>
        <time>2021-10-09 10:31:53</time>
      </trkpt>
      <trkpt lat="40.64934" lon="-2.15261">
        <ele>1405.6</ele>
        <time>2021-10-09 10:31:54</time>
      </trkpt>
      <trkpt lat="40.64931" lon="-2.15258">
        <ele>1405.6</ele>
        <time>2021-10-09 10:31:55</time>
      </trkpt>
      <trkpt lat="40.64927" lon="-2.15256">
        <ele>1406</ele>
        <time>2021-10-09 10:31:56</time>
      </trkpt>
      <trkpt lat="40.64924" lon="-2.15254">
        <ele>1406</ele>
        <time>2021-10-09 10:31:57</time>
      </trkpt>
      <trkpt lat="40.6492" lon="-2.15252">
        <ele>1406</ele>
        <time>2021-10-09 10:31:58</time>
      </trkpt>
      <trkpt lat="40.64916" lon="-2.15249">
        <ele>1406</ele>
        <time>2021-10-09 10:31:59</time>
      </trkpt>
      <trkpt lat="40.64912" lon="-2.15247">
        <ele>1406</ele>
        <time>2021-10-09 10:32:00</time>
      </trkpt>
      <trkpt lat="40.64908" lon="-2.15245">
        <ele>1406</ele>
        <time>2021-10-09 10:32:01</time>
      </trkpt>
      <trkpt lat="40.64904" lon="-2.15243">
        <ele>1406</ele>
        <time>2021-10-09 10:32:02</time>
      </trkpt>
      <trkpt lat="40.649" lon="-2.15242">
        <ele>1406</ele>
        <time>2021-10-09 10:32:03</time>
      </trkpt>
      <trkpt lat="40.64896" lon="-2.15239">
        <ele>1406</ele>
        <time>2021-10-09 10:32:04</time>
      </trkpt>
      <trkpt lat="40.64891" lon="-2.15237">
        <ele>1406</ele>
        <time>2021-10-09 10:32:05</time>
      </trkpt>
      <trkpt lat="40.64888" lon="-2.15232">
        <ele>1406</ele>
        <time>2021-10-09 10:32:06</time>
      </trkpt>
      <trkpt lat="40.64885" lon="-2.15228">
        <ele>1406</ele>
        <time>2021-10-09 10:32:07</time>
      </trkpt>
      <trkpt lat="40.64881" lon="-2.15223">
        <ele>1406</ele>
        <time>2021-10-09 10:32:08</time>
      </trkpt>
      <trkpt lat="40.64878" lon="-2.15217">
        <ele>1406</ele>
        <time>2021-10-09 10:32:09</time>
      </trkpt>
      <trkpt lat="40.64875" lon="-2.15213">
        <ele>1406</ele>
        <time>2021-10-09 10:32:10</time>
      </trkpt>
      <trkpt lat="40.64872" lon="-2.15207">
        <ele>1406</ele>
        <time>2021-10-09 10:32:11</time>
      </trkpt>
      <trkpt lat="40.64869" lon="-2.15201">
        <ele>1405.8</ele>
        <time>2021-10-09 10:32:12</time>
      </trkpt>
      <trkpt lat="40.64866" lon="-2.15194">
        <ele>1405.8</ele>
        <time>2021-10-09 10:32:13</time>
      </trkpt>
      <trkpt lat="40.64864" lon="-2.15188">
        <ele>1405.4</ele>
        <time>2021-10-09 10:32:14</time>
      </trkpt>
      <trkpt lat="40.64861" lon="-2.15181">
        <ele>1405.4</ele>
        <time>2021-10-09 10:32:15</time>
      </trkpt>
      <trkpt lat="40.64858" lon="-2.15175">
        <ele>1405.2</ele>
        <time>2021-10-09 10:32:16</time>
      </trkpt>
      <trkpt lat="40.64856" lon="-2.15168">
        <ele>1405.2</ele>
        <time>2021-10-09 10:32:17</time>
      </trkpt>
      <trkpt lat="40.64853" lon="-2.15162">
        <ele>1404.8</ele>
        <time>2021-10-09 10:32:18</time>
      </trkpt>
      <trkpt lat="40.64851" lon="-2.15155">
        <ele>1404.8</ele>
        <time>2021-10-09 10:32:19</time>
      </trkpt>
      <trkpt lat="40.64848" lon="-2.15148">
        <ele>1404.8</ele>
        <time>2021-10-09 10:32:20</time>
      </trkpt>
      <trkpt lat="40.64845" lon="-2.15141">
        <ele>1404.6</ele>
        <time>2021-10-09 10:32:21</time>
      </trkpt>
      <trkpt lat="40.64843" lon="-2.15134">
        <ele>1404.2</ele>
        <time>2021-10-09 10:32:22</time>
      </trkpt>
      <trkpt lat="40.64842" lon="-2.15126">
        <ele>1404</ele>
        <time>2021-10-09 10:32:23</time>
      </trkpt>
      <trkpt lat="40.6484" lon="-2.15118">
        <ele>1404</ele>
        <time>2021-10-09 10:32:24</time>
      </trkpt>
      <trkpt lat="40.64838" lon="-2.15112">
        <ele>1404</ele>
        <time>2021-10-09 10:32:25</time>
      </trkpt>
      <trkpt lat="40.64836" lon="-2.15104">
        <ele>1403.6</ele>
        <time>2021-10-09 10:32:26</time>
      </trkpt>
      <trkpt lat="40.64835" lon="-2.15097">
        <ele>1403.6</ele>
        <time>2021-10-09 10:32:27</time>
      </trkpt>
      <trkpt lat="40.64835" lon="-2.15089">
        <ele>1403.6</ele>
        <time>2021-10-09 10:32:28</time>
      </trkpt>
      <trkpt lat="40.64834" lon="-2.15081">
        <ele>1403.6</ele>
        <time>2021-10-09 10:32:29</time>
      </trkpt>
      <trkpt lat="40.64835" lon="-2.15074">
        <ele>1403.6</ele>
        <time>2021-10-09 10:32:30</time>
      </trkpt>
      <trkpt lat="40.64835" lon="-2.15067">
        <ele>1403.6</ele>
        <time>2021-10-09 10:32:31</time>
      </trkpt>
      <trkpt lat="40.64834" lon="-2.1506">
        <ele>1403.6</ele>
        <time>2021-10-09 10:32:32</time>
      </trkpt>
      <trkpt lat="40.64832" lon="-2.15054">
        <ele>1403.6</ele>
        <time>2021-10-09 10:32:33</time>
      </trkpt>
      <trkpt lat="40.64831" lon="-2.15048">
        <ele>1403.6</ele>
        <time>2021-10-09 10:32:34</time>
      </trkpt>
      <trkpt lat="40.64829" lon="-2.15041">
        <ele>1403.6</ele>
        <time>2021-10-09 10:32:35</time>
      </trkpt>
      <trkpt lat="40.64827" lon="-2.15036">
        <ele>1403.6</ele>
        <time>2021-10-09 10:32:36</time>
      </trkpt>
      <trkpt lat="40.64825" lon="-2.1503">
        <ele>1403.6</ele>
        <time>2021-10-09 10:32:37</time>
      </trkpt>
      <trkpt lat="40.64822" lon="-2.15025">
        <ele>1403.6</ele>
        <time>2021-10-09 10:32:38</time>
      </trkpt>
      <trkpt lat="40.64818" lon="-2.1502">
        <ele>1403.6</ele>
        <time>2021-10-09 10:32:39</time>
      </trkpt>
      <trkpt lat="40.64815" lon="-2.15014">
        <ele>1403.6</ele>
        <time>2021-10-09 10:32:40</time>
      </trkpt>
      <trkpt lat="40.64812" lon="-2.15009">
        <ele>1403.6</ele>
        <time>2021-10-09 10:32:41</time>
      </trkpt>
      <trkpt lat="40.6481" lon="-2.15002">
        <ele>1403.6</ele>
        <time>2021-10-09 10:32:42</time>
      </trkpt>
      <trkpt lat="40.64808" lon="-2.14997">
        <ele>1403.6</ele>
        <time>2021-10-09 10:32:43</time>
      </trkpt>
      <trkpt lat="40.64805" lon="-2.14994">
        <ele>1403.6</ele>
        <time>2021-10-09 10:32:44</time>
      </trkpt>
      <trkpt lat="40.648" lon="-2.1499">
        <ele>1403.6</ele>
        <time>2021-10-09 10:32:45</time>
      </trkpt>
      <trkpt lat="40.64796" lon="-2.14989">
        <ele>1403.4</ele>
        <time>2021-10-09 10:32:46</time>
      </trkpt>
      <trkpt lat="40.64791" lon="-2.14986">
        <ele>1403.4</ele>
        <time>2021-10-09 10:32:47</time>
      </trkpt>
      <trkpt lat="40.64787" lon="-2.14983">
        <ele>1403</ele>
        <time>2021-10-09 10:32:48</time>
      </trkpt>
      <trkpt lat="40.64782" lon="-2.14981">
        <ele>1403</ele>
        <time>2021-10-09 10:32:49</time>
      </trkpt>
      <trkpt lat="40.64777" lon="-2.14977">
        <ele>1402.8</ele>
        <time>2021-10-09 10:32:50</time>
      </trkpt>
      <trkpt lat="40.64772" lon="-2.14973">
        <ele>1402.8</ele>
        <time>2021-10-09 10:32:51</time>
      </trkpt>
      <trkpt lat="40.64767" lon="-2.1497">
        <ele>1402.6</ele>
        <time>2021-10-09 10:32:52</time>
      </trkpt>
      <trkpt lat="40.64762" lon="-2.14966">
        <ele>1402.6</ele>
        <time>2021-10-09 10:32:53</time>
      </trkpt>
      <trkpt lat="40.64758" lon="-2.14961">
        <ele>1402.2</ele>
        <time>2021-10-09 10:32:54</time>
      </trkpt>
      <trkpt lat="40.64754" lon="-2.14955">
        <ele>1402</ele>
        <time>2021-10-09 10:32:55</time>
      </trkpt>
      <trkpt lat="40.64751" lon="-2.14949">
        <ele>1402</ele>
        <time>2021-10-09 10:32:56</time>
      </trkpt>
      <trkpt lat="40.64749" lon="-2.14943">
        <ele>1402</ele>
        <time>2021-10-09 10:32:57</time>
      </trkpt>
      <trkpt lat="40.64747" lon="-2.14935">
        <ele>1402</ele>
        <time>2021-10-09 10:32:58</time>
      </trkpt>
      <trkpt lat="40.64745" lon="-2.14929">
        <ele>1401.8</ele>
        <time>2021-10-09 10:32:59</time>
      </trkpt>
      <trkpt lat="40.64743" lon="-2.14923">
        <ele>1401.8</ele>
        <time>2021-10-09 10:33:00</time>
      </trkpt>
      <trkpt lat="40.6474" lon="-2.14917">
        <ele>1401.8</ele>
        <time>2021-10-09 10:33:01</time>
      </trkpt>
      <trkpt lat="40.64736" lon="-2.14912">
        <ele>1401.8</ele>
        <time>2021-10-09 10:33:02</time>
      </trkpt>
      <trkpt lat="40.64733" lon="-2.14906">
        <ele>1401.8</ele>
        <time>2021-10-09 10:33:03</time>
      </trkpt>
      <trkpt lat="40.6473" lon="-2.14901">
        <ele>1401.8</ele>
        <time>2021-10-09 10:33:04</time>
      </trkpt>
      <trkpt lat="40.64726" lon="-2.14895">
        <ele>1401.8</ele>
        <time>2021-10-09 10:33:05</time>
      </trkpt>
      <trkpt lat="40.64722" lon="-2.1489">
        <ele>1401.8</ele>
        <time>2021-10-09 10:33:06</time>
      </trkpt>
      <trkpt lat="40.64718" lon="-2.14885">
        <ele>1401.8</ele>
        <time>2021-10-09 10:33:07</time>
      </trkpt>
      <trkpt lat="40.64715" lon="-2.14881">
        <ele>1401.8</ele>
        <time>2021-10-09 10:33:08</time>
      </trkpt>
      <trkpt lat="40.64711" lon="-2.14877">
        <ele>1401.8</ele>
        <time>2021-10-09 10:33:09</time>
      </trkpt>
      <trkpt lat="40.64706" lon="-2.14873">
        <ele>1401.8</ele>
        <time>2021-10-09 10:33:10</time>
      </trkpt>
      <trkpt lat="40.64702" lon="-2.1487">
        <ele>1401.8</ele>
        <time>2021-10-09 10:33:11</time>
      </trkpt>
      <trkpt lat="40.64698" lon="-2.14866">
        <ele>1401.8</ele>
        <time>2021-10-09 10:33:12</time>
      </trkpt>
      <trkpt lat="40.64694" lon="-2.14863">
        <ele>1401.8</ele>
        <time>2021-10-09 10:33:13</time>
      </trkpt>
      <trkpt lat="40.6469" lon="-2.14858">
        <ele>1401.8</ele>
        <time>2021-10-09 10:33:14</time>
      </trkpt>
      <trkpt lat="40.64686" lon="-2.14854">
        <ele>1401.8</ele>
        <time>2021-10-09 10:33:15</time>
      </trkpt>
      <trkpt lat="40.64683" lon="-2.14849">
        <ele>1401.8</ele>
        <time>2021-10-09 10:33:16</time>
      </trkpt>
      <trkpt lat="40.6468" lon="-2.14844">
        <ele>1401.8</ele>
        <time>2021-10-09 10:33:17</time>
      </trkpt>
      <trkpt lat="40.64677" lon="-2.14839">
        <ele>1401.8</ele>
        <time>2021-10-09 10:33:18</time>
      </trkpt>
      <trkpt lat="40.64673" lon="-2.14834">
        <ele>1401.8</ele>
        <time>2021-10-09 10:33:19</time>
      </trkpt>
      <trkpt lat="40.6467" lon="-2.14829">
        <ele>1401.8</ele>
        <time>2021-10-09 10:33:20</time>
      </trkpt>
      <trkpt lat="40.64666" lon="-2.14823">
        <ele>1401.8</ele>
        <time>2021-10-09 10:33:21</time>
      </trkpt>
      <trkpt lat="40.64663" lon="-2.14817">
        <ele>1401.8</ele>
        <time>2021-10-09 10:33:22</time>
      </trkpt>
      <trkpt lat="40.64661" lon="-2.14812">
        <ele>1401.4</ele>
        <time>2021-10-09 10:33:23</time>
      </trkpt>
      <trkpt lat="40.64659" lon="-2.14805">
        <ele>1401.4</ele>
        <time>2021-10-09 10:33:24</time>
      </trkpt>
      <trkpt lat="40.64657" lon="-2.14799">
        <ele>1401.8</ele>
        <time>2021-10-09 10:33:25</time>
      </trkpt>
      <trkpt lat="40.64656" lon="-2.14792">
        <ele>1401.8</ele>
        <time>2021-10-09 10:33:26</time>
      </trkpt>
      <trkpt lat="40.64654" lon="-2.14785">
        <ele>1401.4</ele>
        <time>2021-10-09 10:33:27</time>
      </trkpt>
      <trkpt lat="40.64652" lon="-2.14778">
        <ele>1401.4</ele>
        <time>2021-10-09 10:33:28</time>
      </trkpt>
      <trkpt lat="40.6465" lon="-2.14772">
        <ele>1401.4</ele>
        <time>2021-10-09 10:33:29</time>
      </trkpt>
      <trkpt lat="40.64648" lon="-2.14765">
        <ele>1401.4</ele>
        <time>2021-10-09 10:33:30</time>
      </trkpt>
      <trkpt lat="40.64647" lon="-2.14758">
        <ele>1401.4</ele>
        <time>2021-10-09 10:33:31</time>
      </trkpt>
      <trkpt lat="40.64646" lon="-2.14751">
        <ele>1401.2</ele>
        <time>2021-10-09 10:33:32</time>
      </trkpt>
      <trkpt lat="40.64645" lon="-2.14745">
        <ele>1401.2</ele>
        <time>2021-10-09 10:33:33</time>
      </trkpt>
      <trkpt lat="40.64644" lon="-2.14738">
        <ele>1401.2</ele>
        <time>2021-10-09 10:33:34</time>
      </trkpt>
      <trkpt lat="40.64643" lon="-2.14732">
        <ele>1401</ele>
        <time>2021-10-09 10:33:35</time>
      </trkpt>
      <trkpt lat="40.64641" lon="-2.14724">
        <ele>1401</ele>
        <time>2021-10-09 10:33:36</time>
      </trkpt>
      <trkpt lat="40.6464" lon="-2.14718">
        <ele>1401</ele>
        <time>2021-10-09 10:33:37</time>
      </trkpt>
      <trkpt lat="40.64639" lon="-2.14712">
        <ele>1401</ele>
        <time>2021-10-09 10:33:38</time>
      </trkpt>
      <trkpt lat="40.64639" lon="-2.14706">
        <ele>1401</ele>
        <time>2021-10-09 10:33:39</time>
      </trkpt>
      <trkpt lat="40.64639" lon="-2.147">
        <ele>1401</ele>
        <time>2021-10-09 10:33:40</time>
      </trkpt>
      <trkpt lat="40.64638" lon="-2.14694">
        <ele>1401</ele>
        <time>2021-10-09 10:33:41</time>
      </trkpt>
      <trkpt lat="40.64638" lon="-2.14689">
        <ele>1401</ele>
        <time>2021-10-09 10:33:42</time>
      </trkpt>
      <trkpt lat="40.64637" lon="-2.14683">
        <ele>1401.2</ele>
        <time>2021-10-09 10:33:43</time>
      </trkpt>
      <trkpt lat="40.64637" lon="-2.14677">
        <ele>1401.2</ele>
        <time>2021-10-09 10:33:44</time>
      </trkpt>
      <trkpt lat="40.64636" lon="-2.14671">
        <ele>1401.4</ele>
        <time>2021-10-09 10:33:45</time>
      </trkpt>
      <trkpt lat="40.64635" lon="-2.14665">
        <ele>1401.4</ele>
        <time>2021-10-09 10:33:46</time>
      </trkpt>
      <trkpt lat="40.64634" lon="-2.1466">
        <ele>1401.8</ele>
        <time>2021-10-09 10:33:47</time>
      </trkpt>
      <trkpt lat="40.64633" lon="-2.14654">
        <ele>1401.8</ele>
        <time>2021-10-09 10:33:48</time>
      </trkpt>
      <trkpt lat="40.64632" lon="-2.14648">
        <ele>1401.8</ele>
        <time>2021-10-09 10:33:49</time>
      </trkpt>
      <trkpt lat="40.64631" lon="-2.14642">
        <ele>1401.8</ele>
        <time>2021-10-09 10:33:50</time>
      </trkpt>
      <trkpt lat="40.64631" lon="-2.14637">
        <ele>1402</ele>
        <time>2021-10-09 10:33:51</time>
      </trkpt>
      <trkpt lat="40.6463" lon="-2.14631">
        <ele>1402</ele>
        <time>2021-10-09 10:33:52</time>
      </trkpt>
      <trkpt lat="40.6463" lon="-2.14625">
        <ele>1402</ele>
        <time>2021-10-09 10:33:53</time>
      </trkpt>
      <trkpt lat="40.6463" lon="-2.14618">
        <ele>1402</ele>
        <time>2021-10-09 10:33:54</time>
      </trkpt>
      <trkpt lat="40.64629" lon="-2.14612">
        <ele>1402</ele>
        <time>2021-10-09 10:33:55</time>
      </trkpt>
      <trkpt lat="40.64627" lon="-2.14606">
        <ele>1402</ele>
        <time>2021-10-09 10:33:56</time>
      </trkpt>
      <trkpt lat="40.64626" lon="-2.146">
        <ele>1402</ele>
        <time>2021-10-09 10:33:57</time>
      </trkpt>
      <trkpt lat="40.64625" lon="-2.14593">
        <ele>1402</ele>
        <time>2021-10-09 10:33:58</time>
      </trkpt>
      <trkpt lat="40.64624" lon="-2.14586">
        <ele>1402</ele>
        <time>2021-10-09 10:33:59</time>
      </trkpt>
      <trkpt lat="40.64624" lon="-2.14579">
        <ele>1402</ele>
        <time>2021-10-09 10:34:00</time>
      </trkpt>
      <trkpt lat="40.64624" lon="-2.14573">
        <ele>1401.6</ele>
        <time>2021-10-09 10:34:01</time>
      </trkpt>
      <trkpt lat="40.64624" lon="-2.14566">
        <ele>1401.6</ele>
        <time>2021-10-09 10:34:02</time>
      </trkpt>
      <trkpt lat="40.64623" lon="-2.14559">
        <ele>1401.2</ele>
        <time>2021-10-09 10:34:03</time>
      </trkpt>
      <trkpt lat="40.64623" lon="-2.14552">
        <ele>1401.2</ele>
        <time>2021-10-09 10:34:04</time>
      </trkpt>
      <trkpt lat="40.64621" lon="-2.14546">
        <ele>1401.2</ele>
        <time>2021-10-09 10:34:05</time>
      </trkpt>
      <trkpt lat="40.64618" lon="-2.1454">
        <ele>1401.2</ele>
        <time>2021-10-09 10:34:06</time>
      </trkpt>
      <trkpt lat="40.64615" lon="-2.14535">
        <ele>1401.2</ele>
        <time>2021-10-09 10:34:07</time>
      </trkpt>
      <trkpt lat="40.6461" lon="-2.14532">
        <ele>1401.2</ele>
        <time>2021-10-09 10:34:08</time>
      </trkpt>
      <trkpt lat="40.64607" lon="-2.14527">
        <ele>1401.2</ele>
        <time>2021-10-09 10:34:09</time>
      </trkpt>
      <trkpt lat="40.64603" lon="-2.14522">
        <ele>1401.2</ele>
        <time>2021-10-09 10:34:10</time>
      </trkpt>
      <trkpt lat="40.646" lon="-2.14517">
        <ele>1401.2</ele>
        <time>2021-10-09 10:34:11</time>
      </trkpt>
      <trkpt lat="40.64597" lon="-2.14513">
        <ele>1401.2</ele>
        <time>2021-10-09 10:34:12</time>
      </trkpt>
      <trkpt lat="40.64594" lon="-2.14508">
        <ele>1401.2</ele>
        <time>2021-10-09 10:34:13</time>
      </trkpt>
      <trkpt lat="40.64592" lon="-2.14502">
        <ele>1401.2</ele>
        <time>2021-10-09 10:34:14</time>
      </trkpt>
      <trkpt lat="40.64589" lon="-2.14497">
        <ele>1401.2</ele>
        <time>2021-10-09 10:34:15</time>
      </trkpt>
      <trkpt lat="40.64587" lon="-2.14491">
        <ele>1401.2</ele>
        <time>2021-10-09 10:34:16</time>
      </trkpt>
      <trkpt lat="40.64585" lon="-2.14485">
        <ele>1401.2</ele>
        <time>2021-10-09 10:34:17</time>
      </trkpt>
      <trkpt lat="40.64584" lon="-2.14479">
        <ele>1401.2</ele>
        <time>2021-10-09 10:34:18</time>
      </trkpt>
      <trkpt lat="40.64582" lon="-2.14473">
        <ele>1401.6</ele>
        <time>2021-10-09 10:34:19</time>
      </trkpt>
      <trkpt lat="40.64581" lon="-2.14467">
        <ele>1401.6</ele>
        <time>2021-10-09 10:34:20</time>
      </trkpt>
      <trkpt lat="40.6458" lon="-2.14461">
        <ele>1401.6</ele>
        <time>2021-10-09 10:34:21</time>
      </trkpt>
      <trkpt lat="40.64579" lon="-2.14455">
        <ele>1401.6</ele>
        <time>2021-10-09 10:34:22</time>
      </trkpt>
      <trkpt lat="40.64579" lon="-2.14449">
        <ele>1401.6</ele>
        <time>2021-10-09 10:34:23</time>
      </trkpt>
      <trkpt lat="40.64578" lon="-2.14443">
        <ele>1401.6</ele>
        <time>2021-10-09 10:34:24</time>
      </trkpt>
      <trkpt lat="40.64576" lon="-2.14436">
        <ele>1401.8</ele>
        <time>2021-10-09 10:34:25</time>
      </trkpt>
      <trkpt lat="40.64576" lon="-2.1443">
        <ele>1401.8</ele>
        <time>2021-10-09 10:34:26</time>
      </trkpt>
      <trkpt lat="40.64574" lon="-2.14424">
        <ele>1401.8</ele>
        <time>2021-10-09 10:34:27</time>
      </trkpt>
      <trkpt lat="40.64573" lon="-2.14418">
        <ele>1401.8</ele>
        <time>2021-10-09 10:34:28</time>
      </trkpt>
      <trkpt lat="40.64571" lon="-2.14412">
        <ele>1401.8</ele>
        <time>2021-10-09 10:34:29</time>
      </trkpt>
      <trkpt lat="40.6457" lon="-2.14406">
        <ele>1401.8</ele>
        <time>2021-10-09 10:34:30</time>
      </trkpt>
      <trkpt lat="40.64569" lon="-2.144">
        <ele>1402</ele>
        <time>2021-10-09 10:34:31</time>
      </trkpt>
      <trkpt lat="40.64568" lon="-2.14394">
        <ele>1402</ele>
        <time>2021-10-09 10:34:32</time>
      </trkpt>
      <trkpt lat="40.64566" lon="-2.14388">
        <ele>1402</ele>
        <time>2021-10-09 10:34:33</time>
      </trkpt>
      <trkpt lat="40.64565" lon="-2.14381">
        <ele>1402</ele>
        <time>2021-10-09 10:34:34</time>
      </trkpt>
      <trkpt lat="40.64563" lon="-2.14375">
        <ele>1402</ele>
        <time>2021-10-09 10:34:35</time>
      </trkpt>
      <trkpt lat="40.64562" lon="-2.1437">
        <ele>1402</ele>
        <time>2021-10-09 10:34:36</time>
      </trkpt>
      <trkpt lat="40.6456" lon="-2.14363">
        <ele>1402</ele>
        <time>2021-10-09 10:34:37</time>
      </trkpt>
      <trkpt lat="40.64557" lon="-2.14358">
        <ele>1402</ele>
        <time>2021-10-09 10:34:38</time>
      </trkpt>
      <trkpt lat="40.64555" lon="-2.14352">
        <ele>1402</ele>
        <time>2021-10-09 10:34:39</time>
      </trkpt>
      <trkpt lat="40.64552" lon="-2.14347">
        <ele>1402</ele>
        <time>2021-10-09 10:34:40</time>
      </trkpt>
      <trkpt lat="40.64551" lon="-2.14341">
        <ele>1402</ele>
        <time>2021-10-09 10:34:41</time>
      </trkpt>
      <trkpt lat="40.6455" lon="-2.14335">
        <ele>1402</ele>
        <time>2021-10-09 10:34:42</time>
      </trkpt>
      <trkpt lat="40.64549" lon="-2.14329">
        <ele>1401.8</ele>
        <time>2021-10-09 10:34:43</time>
      </trkpt>
      <trkpt lat="40.64547" lon="-2.14323">
        <ele>1401.8</ele>
        <time>2021-10-09 10:34:44</time>
      </trkpt>
      <trkpt lat="40.64545" lon="-2.14317">
        <ele>1401.8</ele>
        <time>2021-10-09 10:34:45</time>
      </trkpt>
      <trkpt lat="40.64543" lon="-2.14311">
        <ele>1401.8</ele>
        <time>2021-10-09 10:34:46</time>
      </trkpt>
      <trkpt lat="40.6454" lon="-2.14305">
        <ele>1401.8</ele>
        <time>2021-10-09 10:34:47</time>
      </trkpt>
      <trkpt lat="40.64537" lon="-2.143">
        <ele>1401.8</ele>
        <time>2021-10-09 10:34:48</time>
      </trkpt>
      <trkpt lat="40.64534" lon="-2.14296">
        <ele>1401.8</ele>
        <time>2021-10-09 10:34:49</time>
      </trkpt>
      <trkpt lat="40.6453" lon="-2.14291">
        <ele>1401.8</ele>
        <time>2021-10-09 10:34:50</time>
      </trkpt>
      <trkpt lat="40.64526" lon="-2.14287">
        <ele>1401.8</ele>
        <time>2021-10-09 10:34:51</time>
      </trkpt>
      <trkpt lat="40.64522" lon="-2.14283">
        <ele>1401.8</ele>
        <time>2021-10-09 10:34:52</time>
      </trkpt>
      <trkpt lat="40.64518" lon="-2.1428">
        <ele>1401.8</ele>
        <time>2021-10-09 10:34:53</time>
      </trkpt>
      <trkpt lat="40.64515" lon="-2.14276">
        <ele>1402.2</ele>
        <time>2021-10-09 10:34:54</time>
      </trkpt>
      <trkpt lat="40.64512" lon="-2.14273">
        <ele>1402.2</ele>
        <time>2021-10-09 10:34:55</time>
      </trkpt>
      <trkpt lat="40.64508" lon="-2.1427">
        <ele>1402.4</ele>
        <time>2021-10-09 10:34:56</time>
      </trkpt>
      <trkpt lat="40.64504" lon="-2.14266">
        <ele>1402.4</ele>
        <time>2021-10-09 10:34:57</time>
      </trkpt>
      <trkpt lat="40.64501" lon="-2.14262">
        <ele>1402.6</ele>
        <time>2021-10-09 10:34:58</time>
      </trkpt>
      <trkpt lat="40.64497" lon="-2.14258">
        <ele>1402.6</ele>
        <time>2021-10-09 10:34:59</time>
      </trkpt>
      <trkpt lat="40.64495" lon="-2.14255">
        <ele>1403</ele>
        <time>2021-10-09 10:35:00</time>
      </trkpt>
      <trkpt lat="40.64491" lon="-2.14251">
        <ele>1403</ele>
        <time>2021-10-09 10:35:01</time>
      </trkpt>
      <trkpt lat="40.64488" lon="-2.14247">
        <ele>1403</ele>
        <time>2021-10-09 10:35:02</time>
      </trkpt>
      <trkpt lat="40.64485" lon="-2.14243">
        <ele>1403.2</ele>
        <time>2021-10-09 10:35:03</time>
      </trkpt>
      <trkpt lat="40.64483" lon="-2.14239">
        <ele>1403.2</ele>
        <time>2021-10-09 10:35:04</time>
      </trkpt>
      <trkpt lat="40.6448" lon="-2.14236">
        <ele>1403.2</ele>
        <time>2021-10-09 10:35:05</time>
      </trkpt>
      <trkpt lat="40.64477" lon="-2.14231">
        <ele>1403.2</ele>
        <time>2021-10-09 10:35:06</time>
      </trkpt>
      <trkpt lat="40.64473" lon="-2.14226">
        <ele>1403.2</ele>
        <time>2021-10-09 10:35:07</time>
      </trkpt>
      <trkpt lat="40.64471" lon="-2.14221">
        <ele>1403.2</ele>
        <time>2021-10-09 10:35:08</time>
      </trkpt>
      <trkpt lat="40.64469" lon="-2.14216">
        <ele>1403.2</ele>
        <time>2021-10-09 10:35:09</time>
      </trkpt>
      <trkpt lat="40.64466" lon="-2.14212">
        <ele>1403.2</ele>
        <time>2021-10-09 10:35:10</time>
      </trkpt>
      <trkpt lat="40.64463" lon="-2.14206">
        <ele>1403.2</ele>
        <time>2021-10-09 10:35:11</time>
      </trkpt>
      <trkpt lat="40.6446" lon="-2.14201">
        <ele>1403.2</ele>
        <time>2021-10-09 10:35:12</time>
      </trkpt>
      <trkpt lat="40.64458" lon="-2.14196">
        <ele>1403.4</ele>
        <time>2021-10-09 10:35:13</time>
      </trkpt>
      <trkpt lat="40.64454" lon="-2.14192">
        <ele>1403.4</ele>
        <time>2021-10-09 10:35:14</time>
      </trkpt>
      <trkpt lat="40.6445" lon="-2.14187">
        <ele>1403.4</ele>
        <time>2021-10-09 10:35:15</time>
      </trkpt>
      <trkpt lat="40.64447" lon="-2.14183">
        <ele>1403.4</ele>
        <time>2021-10-09 10:35:16</time>
      </trkpt>
      <trkpt lat="40.64444" lon="-2.1418">
        <ele>1403.6</ele>
        <time>2021-10-09 10:35:17</time>
      </trkpt>
      <trkpt lat="40.64441" lon="-2.14176">
        <ele>1403.6</ele>
        <time>2021-10-09 10:35:18</time>
      </trkpt>
      <trkpt lat="40.64437" lon="-2.14171">
        <ele>1403.6</ele>
        <time>2021-10-09 10:35:19</time>
      </trkpt>
      <trkpt lat="40.64434" lon="-2.14167">
        <ele>1403.6</ele>
        <time>2021-10-09 10:35:20</time>
      </trkpt>
      <trkpt lat="40.64431" lon="-2.14162">
        <ele>1403.8</ele>
        <time>2021-10-09 10:35:21</time>
      </trkpt>
      <trkpt lat="40.64428" lon="-2.14157">
        <ele>1403.8</ele>
        <time>2021-10-09 10:35:22</time>
      </trkpt>
      <trkpt lat="40.64426" lon="-2.14152">
        <ele>1403.8</ele>
        <time>2021-10-09 10:35:23</time>
      </trkpt>
      <trkpt lat="40.64423" lon="-2.14147">
        <ele>1403.8</ele>
        <time>2021-10-09 10:35:24</time>
      </trkpt>
      <trkpt lat="40.64421" lon="-2.14143">
        <ele>1403.8</ele>
        <time>2021-10-09 10:35:25</time>
      </trkpt>
      <trkpt lat="40.64418" lon="-2.14137">
        <ele>1403.8</ele>
        <time>2021-10-09 10:35:26</time>
      </trkpt>
      <trkpt lat="40.64415" lon="-2.14131">
        <ele>1404.2</ele>
        <time>2021-10-09 10:35:27</time>
      </trkpt>
      <trkpt lat="40.64412" lon="-2.14126">
        <ele>1404.2</ele>
        <time>2021-10-09 10:35:28</time>
      </trkpt>
      <trkpt lat="40.64409" lon="-2.14122">
        <ele>1404.2</ele>
        <time>2021-10-09 10:35:29</time>
      </trkpt>
      <trkpt lat="40.64407" lon="-2.14117">
        <ele>1404.6</ele>
        <time>2021-10-09 10:35:30</time>
      </trkpt>
      <trkpt lat="40.64405" lon="-2.14112">
        <ele>1404.6</ele>
        <time>2021-10-09 10:35:31</time>
      </trkpt>
      <trkpt lat="40.64402" lon="-2.14106">
        <ele>1404.6</ele>
        <time>2021-10-09 10:35:32</time>
      </trkpt>
      <trkpt lat="40.64401" lon="-2.14101">
        <ele>1404.6</ele>
        <time>2021-10-09 10:35:33</time>
      </trkpt>
      <trkpt lat="40.64398" lon="-2.14095">
        <ele>1404.8</ele>
        <time>2021-10-09 10:35:34</time>
      </trkpt>
      <trkpt lat="40.64396" lon="-2.1409">
        <ele>1404.8</ele>
        <time>2021-10-09 10:35:35</time>
      </trkpt>
      <trkpt lat="40.64393" lon="-2.14084">
        <ele>1405</ele>
        <time>2021-10-09 10:35:36</time>
      </trkpt>
      <trkpt lat="40.64391" lon="-2.14079">
        <ele>1405</ele>
        <time>2021-10-09 10:35:37</time>
      </trkpt>
      <trkpt lat="40.64388" lon="-2.14073">
        <ele>1405</ele>
        <time>2021-10-09 10:35:38</time>
      </trkpt>
      <trkpt lat="40.64386" lon="-2.14068">
        <ele>1405</ele>
        <time>2021-10-09 10:35:39</time>
      </trkpt>
      <trkpt lat="40.64383" lon="-2.14062">
        <ele>1405</ele>
        <time>2021-10-09 10:35:40</time>
      </trkpt>
      <trkpt lat="40.6438" lon="-2.14058">
        <ele>1405</ele>
        <time>2021-10-09 10:35:41</time>
      </trkpt>
      <trkpt lat="40.64377" lon="-2.14053">
        <ele>1405</ele>
        <time>2021-10-09 10:35:42</time>
      </trkpt>
      <trkpt lat="40.64373" lon="-2.14048">
        <ele>1405</ele>
        <time>2021-10-09 10:35:43</time>
      </trkpt>
      <trkpt lat="40.64369" lon="-2.14043">
        <ele>1405</ele>
        <time>2021-10-09 10:35:44</time>
      </trkpt>
      <trkpt lat="40.64366" lon="-2.14038">
        <ele>1405</ele>
        <time>2021-10-09 10:35:45</time>
      </trkpt>
      <trkpt lat="40.64362" lon="-2.14034">
        <ele>1405</ele>
        <time>2021-10-09 10:35:46</time>
      </trkpt>
      <trkpt lat="40.64356" lon="-2.14029">
        <ele>1405</ele>
        <time>2021-10-09 10:35:47</time>
      </trkpt>
      <trkpt lat="40.64352" lon="-2.14025">
        <ele>1405</ele>
        <time>2021-10-09 10:35:48</time>
      </trkpt>
      <trkpt lat="40.64347" lon="-2.1402">
        <ele>1404.8</ele>
        <time>2021-10-09 10:35:49</time>
      </trkpt>
      <trkpt lat="40.64342" lon="-2.14015">
        <ele>1404.8</ele>
        <time>2021-10-09 10:35:50</time>
      </trkpt>
      <trkpt lat="40.64339" lon="-2.14009">
        <ele>1404.4</ele>
        <time>2021-10-09 10:35:51</time>
      </trkpt>
      <trkpt lat="40.64335" lon="-2.14003">
        <ele>1404.4</ele>
        <time>2021-10-09 10:35:52</time>
      </trkpt>
      <trkpt lat="40.64332" lon="-2.13997">
        <ele>1404.4</ele>
        <time>2021-10-09 10:35:53</time>
      </trkpt>
      <trkpt lat="40.64329" lon="-2.13991">
        <ele>1404.2</ele>
        <time>2021-10-09 10:35:54</time>
      </trkpt>
      <trkpt lat="40.64326" lon="-2.13984">
        <ele>1404.2</ele>
        <time>2021-10-09 10:35:55</time>
      </trkpt>
      <trkpt lat="40.64323" lon="-2.13978">
        <ele>1404.2</ele>
        <time>2021-10-09 10:35:56</time>
      </trkpt>
      <trkpt lat="40.6432" lon="-2.13972">
        <ele>1404.2</ele>
        <time>2021-10-09 10:35:57</time>
      </trkpt>
      <trkpt lat="40.64319" lon="-2.13967">
        <ele>1404.2</ele>
        <time>2021-10-09 10:35:58</time>
      </trkpt>
      <trkpt lat="40.64315" lon="-2.13961">
        <ele>1404.2</ele>
        <time>2021-10-09 10:35:59</time>
      </trkpt>
      <trkpt lat="40.64311" lon="-2.13956">
        <ele>1404.2</ele>
        <time>2021-10-09 10:36:00</time>
      </trkpt>
      <trkpt lat="40.64308" lon="-2.1395">
        <ele>1404.2</ele>
        <time>2021-10-09 10:36:01</time>
      </trkpt>
      <trkpt lat="40.64305" lon="-2.13945">
        <ele>1404.4</ele>
        <time>2021-10-09 10:36:02</time>
      </trkpt>
      <trkpt lat="40.64301" lon="-2.1394">
        <ele>1404.4</ele>
        <time>2021-10-09 10:36:03</time>
      </trkpt>
      <trkpt lat="40.64298" lon="-2.13935">
        <ele>1404.4</ele>
        <time>2021-10-09 10:36:04</time>
      </trkpt>
      <trkpt lat="40.64295" lon="-2.1393">
        <ele>1404.4</ele>
        <time>2021-10-09 10:36:05</time>
      </trkpt>
      <trkpt lat="40.64293" lon="-2.13924">
        <ele>1404.8</ele>
        <time>2021-10-09 10:36:06</time>
      </trkpt>
      <trkpt lat="40.6429" lon="-2.13918">
        <ele>1404.8</ele>
        <time>2021-10-09 10:36:07</time>
      </trkpt>
      <trkpt lat="40.64287" lon="-2.13913">
        <ele>1404.8</ele>
        <time>2021-10-09 10:36:08</time>
      </trkpt>
      <trkpt lat="40.64285" lon="-2.13908">
        <ele>1405</ele>
        <time>2021-10-09 10:36:09</time>
      </trkpt>
      <trkpt lat="40.64282" lon="-2.13904">
        <ele>1405</ele>
        <time>2021-10-09 10:36:10</time>
      </trkpt>
      <trkpt lat="40.64278" lon="-2.13899">
        <ele>1405</ele>
        <time>2021-10-09 10:36:11</time>
      </trkpt>
      <trkpt lat="40.64275" lon="-2.13895">
        <ele>1405</ele>
        <time>2021-10-09 10:36:12</time>
      </trkpt>
      <trkpt lat="40.64272" lon="-2.1389">
        <ele>1405.2</ele>
        <time>2021-10-09 10:36:13</time>
      </trkpt>
      <trkpt lat="40.64269" lon="-2.13884">
        <ele>1405.4</ele>
        <time>2021-10-09 10:36:14</time>
      </trkpt>
      <trkpt lat="40.64266" lon="-2.13879">
        <ele>1405.4</ele>
        <time>2021-10-09 10:36:15</time>
      </trkpt>
      <trkpt lat="40.64264" lon="-2.13873">
        <ele>1405.2</ele>
        <time>2021-10-09 10:36:16</time>
      </trkpt>
      <trkpt lat="40.64263" lon="-2.13866">
        <ele>1405.2</ele>
        <time>2021-10-09 10:36:17</time>
      </trkpt>
      <trkpt lat="40.64262" lon="-2.1386">
        <ele>1405.2</ele>
        <time>2021-10-09 10:36:18</time>
      </trkpt>
      <trkpt lat="40.64261" lon="-2.13853">
        <ele>1405.2</ele>
        <time>2021-10-09 10:36:19</time>
      </trkpt>
      <trkpt lat="40.6426" lon="-2.13846">
        <ele>1404.8</ele>
        <time>2021-10-09 10:36:20</time>
      </trkpt>
      <trkpt lat="40.64259" lon="-2.13839">
        <ele>1404.8</ele>
        <time>2021-10-09 10:36:21</time>
      </trkpt>
      <trkpt lat="40.64259" lon="-2.13831">
        <ele>1404.8</ele>
        <time>2021-10-09 10:36:22</time>
      </trkpt>
      <trkpt lat="40.64258" lon="-2.13822">
        <ele>1404.4</ele>
        <time>2021-10-09 10:36:23</time>
      </trkpt>
      <trkpt lat="40.64257" lon="-2.13815">
        <ele>1404.4</ele>
        <time>2021-10-09 10:36:24</time>
      </trkpt>
      <trkpt lat="40.64255" lon="-2.13807">
        <ele>1404.4</ele>
        <time>2021-10-09 10:36:25</time>
      </trkpt>
      <trkpt lat="40.64255" lon="-2.138">
        <ele>1404.4</ele>
        <time>2021-10-09 10:36:26</time>
      </trkpt>
      <trkpt lat="40.64253" lon="-2.13793">
        <ele>1404.4</ele>
        <time>2021-10-09 10:36:27</time>
      </trkpt>
      <trkpt lat="40.64252" lon="-2.13787">
        <ele>1404.4</ele>
        <time>2021-10-09 10:36:28</time>
      </trkpt>
      <trkpt lat="40.64249" lon="-2.1378">
        <ele>1404.4</ele>
        <time>2021-10-09 10:36:29</time>
      </trkpt>
      <trkpt lat="40.64246" lon="-2.13774">
        <ele>1404.8</ele>
        <time>2021-10-09 10:36:30</time>
      </trkpt>
      <trkpt lat="40.64244" lon="-2.13768">
        <ele>1404.8</ele>
        <time>2021-10-09 10:36:31</time>
      </trkpt>
      <trkpt lat="40.64241" lon="-2.13763">
        <ele>1404.8</ele>
        <time>2021-10-09 10:36:32</time>
      </trkpt>
      <trkpt lat="40.64238" lon="-2.13758">
        <ele>1404.8</ele>
        <time>2021-10-09 10:36:33</time>
      </trkpt>
      <trkpt lat="40.64236" lon="-2.13752">
        <ele>1405</ele>
        <time>2021-10-09 10:36:34</time>
      </trkpt>
      <trkpt lat="40.64233" lon="-2.13747">
        <ele>1405</ele>
        <time>2021-10-09 10:36:35</time>
      </trkpt>
      <trkpt lat="40.64231" lon="-2.13741">
        <ele>1405.2</ele>
        <time>2021-10-09 10:36:36</time>
      </trkpt>
      <trkpt lat="40.64228" lon="-2.13736">
        <ele>1405.2</ele>
        <time>2021-10-09 10:36:37</time>
      </trkpt>
      <trkpt lat="40.64226" lon="-2.13731">
        <ele>1405.2</ele>
        <time>2021-10-09 10:36:38</time>
      </trkpt>
      <trkpt lat="40.64223" lon="-2.13727">
        <ele>1405.6</ele>
        <time>2021-10-09 10:36:39</time>
      </trkpt>
      <trkpt lat="40.64221" lon="-2.13723">
        <ele>1405.6</ele>
        <time>2021-10-09 10:36:40</time>
      </trkpt>
      <trkpt lat="40.64218" lon="-2.13718">
        <ele>1405.8</ele>
        <time>2021-10-09 10:36:41</time>
      </trkpt>
      <trkpt lat="40.64216" lon="-2.13714">
        <ele>1405.8</ele>
        <time>2021-10-09 10:36:42</time>
      </trkpt>
      <trkpt lat="40.64214" lon="-2.1371">
        <ele>1406</ele>
        <time>2021-10-09 10:36:43</time>
      </trkpt>
      <trkpt lat="40.64212" lon="-2.13706">
        <ele>1406</ele>
        <time>2021-10-09 10:36:44</time>
      </trkpt>
      <trkpt lat="40.64209" lon="-2.13701">
        <ele>1406.2</ele>
        <time>2021-10-09 10:36:45</time>
      </trkpt>
      <trkpt lat="40.64206" lon="-2.13697">
        <ele>1406.2</ele>
        <time>2021-10-09 10:36:46</time>
      </trkpt>
      <trkpt lat="40.64204" lon="-2.13692">
        <ele>1406.2</ele>
        <time>2021-10-09 10:36:47</time>
      </trkpt>
      <trkpt lat="40.64202" lon="-2.13688">
        <ele>1406.2</ele>
        <time>2021-10-09 10:36:48</time>
      </trkpt>
      <trkpt lat="40.642" lon="-2.13684">
        <ele>1406.4</ele>
        <time>2021-10-09 10:36:49</time>
      </trkpt>
      <trkpt lat="40.64197" lon="-2.13679">
        <ele>1406.4</ele>
        <time>2021-10-09 10:36:50</time>
      </trkpt>
      <trkpt lat="40.64194" lon="-2.13676">
        <ele>1406.4</ele>
        <time>2021-10-09 10:36:51</time>
      </trkpt>
      <trkpt lat="40.64191" lon="-2.13672">
        <ele>1406.4</ele>
        <time>2021-10-09 10:36:52</time>
      </trkpt>
      <trkpt lat="40.64189" lon="-2.13669">
        <ele>1406.4</ele>
        <time>2021-10-09 10:36:53</time>
      </trkpt>
      <trkpt lat="40.64187" lon="-2.13667">
        <ele>1406.4</ele>
        <time>2021-10-09 10:36:54</time>
      </trkpt>
      <trkpt lat="40.64185" lon="-2.13665">
        <ele>1406.4</ele>
        <time>2021-10-09 10:36:55</time>
      </trkpt>
      <trkpt lat="40.64182" lon="-2.13664">
        <ele>1406.4</ele>
        <time>2021-10-09 10:36:56</time>
      </trkpt>
      <trkpt lat="40.6418" lon="-2.13665">
        <ele>1406.4</ele>
        <time>2021-10-09 10:36:57</time>
      </trkpt>
      <trkpt lat="40.64178" lon="-2.13665">
        <ele>1406.4</ele>
        <time>2021-10-09 10:36:58</time>
      </trkpt>
      <trkpt lat="40.64177" lon="-2.13666">
        <ele>1406.2</ele>
        <time>2021-10-09 10:36:59</time>
      </trkpt>
      <trkpt lat="40.64176" lon="-2.13667">
        <ele>1406.2</ele>
        <time>2021-10-09 10:37:00</time>
      </trkpt>
      <trkpt lat="40.64175" lon="-2.13668">
        <ele>1406.2</ele>
        <time>2021-10-09 10:37:01</time>
      </trkpt>
      <trkpt lat="40.64175" lon="-2.13668">
        <ele>1406.2</ele>
        <time>2021-10-09 10:37:02</time>
      </trkpt>
      <trkpt lat="40.64175" lon="-2.13668">
        <ele>1406.2</ele>
        <time>2021-10-09 10:37:03</time>
      </trkpt>
      <trkpt lat="40.64175" lon="-2.13668">
        <ele>1406.2</ele>
        <time>2021-10-09 10:37:04</time>
      </trkpt>
      <trkpt lat="40.64175" lon="-2.13668">
        <ele>1406.2</ele>
        <time>2021-10-09 10:37:05</time>
      </trkpt>
      <trkpt lat="40.64176" lon="-2.13669">
        <ele>1406.2</ele>
        <time>2021-10-09 10:37:06</time>
      </trkpt>
      <trkpt lat="40.64176" lon="-2.13669">
        <ele>1406.2</ele>
        <time>2021-10-09 10:37:07</time>
      </trkpt>
      <trkpt lat="40.64176" lon="-2.13669">
        <ele>1406.2</ele>
        <time>2021-10-09 10:37:10</time>
      </trkpt>
      <trkpt lat="40.64176" lon="-2.1367">
        <ele>1406.2</ele>
        <time>2021-10-09 10:37:11</time>
      </trkpt>
      <trkpt lat="40.64176" lon="-2.1367">
        <ele>1406.2</ele>
        <time>2021-10-09 10:37:12</time>
      </trkpt>
      <trkpt lat="40.64175" lon="-2.13666">
        <ele>1404.6</ele>
        <time>2021-10-09 10:37:13</time>
      </trkpt>
      <trkpt lat="40.64175" lon="-2.13666">
        <ele>1404.6</ele>
        <time>2021-10-09 10:37:14</time>
      </trkpt>
      <trkpt lat="40.64178" lon="-2.1367">
        <ele>1404.6</ele>
        <time>2021-10-09 10:37:15</time>
      </trkpt>
      <trkpt lat="40.64179" lon="-2.13669">
        <ele>1404.2</ele>
        <time>2021-10-09 11:14:35</time>
      </trkpt>
      <trkpt lat="40.64179" lon="-2.13668">
        <ele>1404.2</ele>
        <time>2021-10-09 11:14:36</time>
      </trkpt>
      <trkpt lat="40.64179" lon="-2.13668">
        <ele>1404.2</ele>
        <time>2021-10-09 11:14:37</time>
      </trkpt>
      <trkpt lat="40.64179" lon="-2.13668">
        <ele>1404.2</ele>
        <time>2021-10-09 11:14:38</time>
      </trkpt>
      <trkpt lat="40.64179" lon="-2.13668">
        <ele>1404.2</ele>
        <time>2021-10-09 11:15:51</time>
      </trkpt>
      <trkpt lat="40.64178" lon="-2.13667">
        <ele>1404.2</ele>
        <time>2021-10-09 11:15:52</time>
      </trkpt>
      <trkpt lat="40.64179" lon="-2.13663">
        <ele>1404.2</ele>
        <time>2021-10-09 11:15:53</time>
      </trkpt>
      <trkpt lat="40.64179" lon="-2.1366">
        <ele>1404.2</ele>
        <time>2021-10-09 11:15:54</time>
      </trkpt>
      <trkpt lat="40.64179" lon="-2.13656">
        <ele>1404.2</ele>
        <time>2021-10-09 11:15:55</time>
      </trkpt>
      <trkpt lat="40.64178" lon="-2.13652">
        <ele>1404</ele>
        <time>2021-10-09 11:15:56</time>
      </trkpt>
      <trkpt lat="40.64176" lon="-2.13648">
        <ele>1403.8</ele>
        <time>2021-10-09 11:15:57</time>
      </trkpt>
      <trkpt lat="40.64174" lon="-2.13644">
        <ele>1403.8</ele>
        <time>2021-10-09 11:16:03</time>
      </trkpt>
      <trkpt lat="40.64171" lon="-2.1364">
        <ele>1403.4</ele>
        <time>2021-10-09 11:16:04</time>
      </trkpt>
      <trkpt lat="40.64169" lon="-2.13635">
        <ele>1403.4</ele>
        <time>2021-10-09 11:16:05</time>
      </trkpt>
      <trkpt lat="40.64167" lon="-2.1363">
        <ele>1403</ele>
        <time>2021-10-09 11:16:06</time>
      </trkpt>
      <trkpt lat="40.64164" lon="-2.13625">
        <ele>1402.8</ele>
        <time>2021-10-09 11:16:07</time>
      </trkpt>
      <trkpt lat="40.64161" lon="-2.1362">
        <ele>1402.8</ele>
        <time>2021-10-09 11:16:08</time>
      </trkpt>
      <trkpt lat="40.64157" lon="-2.13617">
        <ele>1402.8</ele>
        <time>2021-10-09 11:16:09</time>
      </trkpt>
      <trkpt lat="40.64155" lon="-2.13611">
        <ele>1402.6</ele>
        <time>2021-10-09 11:16:10</time>
      </trkpt>
      <trkpt lat="40.64152" lon="-2.13607">
        <ele>1402.6</ele>
        <time>2021-10-09 11:16:11</time>
      </trkpt>
      <trkpt lat="40.64148" lon="-2.13603">
        <ele>1402.6</ele>
        <time>2021-10-09 11:16:12</time>
      </trkpt>
      <trkpt lat="40.64146" lon="-2.136">
        <ele>1403.6</ele>
        <time>2021-10-09 11:16:13</time>
      </trkpt>
      <trkpt lat="40.64143" lon="-2.13596">
        <ele>1403.2</ele>
        <time>2021-10-09 11:16:14</time>
      </trkpt>
      <trkpt lat="40.64142" lon="-2.13589">
        <ele>1403.2</ele>
        <time>2021-10-09 11:16:15</time>
      </trkpt>
      <trkpt lat="40.6414" lon="-2.13584">
        <ele>1403</ele>
        <time>2021-10-09 11:16:16</time>
      </trkpt>
      <trkpt lat="40.64139" lon="-2.13577">
        <ele>1403</ele>
        <time>2021-10-09 11:16:17</time>
      </trkpt>
      <trkpt lat="40.64138" lon="-2.13571">
        <ele>1402.8</ele>
        <time>2021-10-09 11:16:18</time>
      </trkpt>
      <trkpt lat="40.64137" lon="-2.13566">
        <ele>1402.4</ele>
        <time>2021-10-09 11:16:19</time>
      </trkpt>
      <trkpt lat="40.64136" lon="-2.13561">
        <ele>1402.4</ele>
        <time>2021-10-09 11:16:20</time>
      </trkpt>
      <trkpt lat="40.64135" lon="-2.13557">
        <ele>1402.4</ele>
        <time>2021-10-09 11:16:21</time>
      </trkpt>
      <trkpt lat="40.64133" lon="-2.13553">
        <ele>1403</ele>
        <time>2021-10-09 11:16:22</time>
      </trkpt>
      <trkpt lat="40.64133" lon="-2.1355">
        <ele>1402.6</ele>
        <time>2021-10-09 11:16:23</time>
      </trkpt>
      <trkpt lat="40.64133" lon="-2.13547">
        <ele>1402.6</ele>
        <time>2021-10-09 11:16:24</time>
      </trkpt>
      <trkpt lat="40.64134" lon="-2.13545">
        <ele>1402.6</ele>
        <time>2021-10-09 11:16:25</time>
      </trkpt>
      <trkpt lat="40.64134" lon="-2.13542">
        <ele>1402.4</ele>
        <time>2021-10-09 11:16:26</time>
      </trkpt>
      <trkpt lat="40.64135" lon="-2.13541">
        <ele>1402.4</ele>
        <time>2021-10-09 11:16:27</time>
      </trkpt>
      <trkpt lat="40.64135" lon="-2.13539">
        <ele>1402.4</ele>
        <time>2021-10-09 11:16:28</time>
      </trkpt>
      <trkpt lat="40.64136" lon="-2.13537">
        <ele>1402.4</ele>
        <time>2021-10-09 11:16:29</time>
      </trkpt>
      <trkpt lat="40.64136" lon="-2.13534">
        <ele>1402.4</ele>
        <time>2021-10-09 11:16:30</time>
      </trkpt>
      <trkpt lat="40.64136" lon="-2.13532">
        <ele>1402.4</ele>
        <time>2021-10-09 11:16:31</time>
      </trkpt>
      <trkpt lat="40.64136" lon="-2.13529">
        <ele>1402.4</ele>
        <time>2021-10-09 11:16:32</time>
      </trkpt>
      <trkpt lat="40.64135" lon="-2.13526">
        <ele>1402.4</ele>
        <time>2021-10-09 11:16:33</time>
      </trkpt>
      <trkpt lat="40.64135" lon="-2.13523">
        <ele>1402.4</ele>
        <time>2021-10-09 11:16:34</time>
      </trkpt>
      <trkpt lat="40.64135" lon="-2.1352">
        <ele>1402.4</ele>
        <time>2021-10-09 11:16:35</time>
      </trkpt>
      <trkpt lat="40.64134" lon="-2.13517">
        <ele>1402.6</ele>
        <time>2021-10-09 11:16:36</time>
      </trkpt>
      <trkpt lat="40.64133" lon="-2.13514">
        <ele>1402.6</ele>
        <time>2021-10-09 11:16:37</time>
      </trkpt>
      <trkpt lat="40.64132" lon="-2.13511">
        <ele>1402.6</ele>
        <time>2021-10-09 11:16:38</time>
      </trkpt>
      <trkpt lat="40.64131" lon="-2.13508">
        <ele>1402.6</ele>
        <time>2021-10-09 11:16:39</time>
      </trkpt>
      <trkpt lat="40.64129" lon="-2.13505">
        <ele>1403</ele>
        <time>2021-10-09 11:16:40</time>
      </trkpt>
      <trkpt lat="40.64127" lon="-2.13502">
        <ele>1403</ele>
        <time>2021-10-09 11:16:41</time>
      </trkpt>
      <trkpt lat="40.64125" lon="-2.135">
        <ele>1403</ele>
        <time>2021-10-09 11:16:42</time>
      </trkpt>
      <trkpt lat="40.64123" lon="-2.13497">
        <ele>1403.2</ele>
        <time>2021-10-09 11:16:43</time>
      </trkpt>
      <trkpt lat="40.64122" lon="-2.13494">
        <ele>1403.2</ele>
        <time>2021-10-09 11:16:44</time>
      </trkpt>
      <trkpt lat="40.64121" lon="-2.1349">
        <ele>1403.2</ele>
        <time>2021-10-09 11:16:45</time>
      </trkpt>
      <trkpt lat="40.64121" lon="-2.13485">
        <ele>1403.2</ele>
        <time>2021-10-09 11:16:46</time>
      </trkpt>
      <trkpt lat="40.64122" lon="-2.1348">
        <ele>1403.6</ele>
        <time>2021-10-09 11:16:47</time>
      </trkpt>
      <trkpt lat="40.64122" lon="-2.13475">
        <ele>1403.4</ele>
        <time>2021-10-09 11:16:48</time>
      </trkpt>
      <trkpt lat="40.64123" lon="-2.13471">
        <ele>1403.4</ele>
        <time>2021-10-09 11:16:49</time>
      </trkpt>
      <trkpt lat="40.64122" lon="-2.13466">
        <ele>1403.4</ele>
        <time>2021-10-09 11:16:50</time>
      </trkpt>
      <trkpt lat="40.64121" lon="-2.13463">
        <ele>1403.2</ele>
        <time>2021-10-09 11:16:51</time>
      </trkpt>
      <trkpt lat="40.64119" lon="-2.1346">
        <ele>1403.2</ele>
        <time>2021-10-09 11:16:52</time>
      </trkpt>
      <trkpt lat="40.64117" lon="-2.13456">
        <ele>1403.2</ele>
        <time>2021-10-09 11:16:53</time>
      </trkpt>
      <trkpt lat="40.64115" lon="-2.13452">
        <ele>1403.2</ele>
        <time>2021-10-09 11:16:54</time>
      </trkpt>
      <trkpt lat="40.64113" lon="-2.13448">
        <ele>1402.8</ele>
        <time>2021-10-09 11:16:55</time>
      </trkpt>
      <trkpt lat="40.64113" lon="-2.13444">
        <ele>1403</ele>
        <time>2021-10-09 11:16:56</time>
      </trkpt>
      <trkpt lat="40.64112" lon="-2.1344">
        <ele>1403</ele>
        <time>2021-10-09 11:16:57</time>
      </trkpt>
      <trkpt lat="40.64112" lon="-2.13436">
        <ele>1402.8</ele>
        <time>2021-10-09 11:16:58</time>
      </trkpt>
      <trkpt lat="40.64113" lon="-2.1343">
        <ele>1402.8</ele>
        <time>2021-10-09 11:16:59</time>
      </trkpt>
      <trkpt lat="40.64113" lon="-2.13425">
        <ele>1402.8</ele>
        <time>2021-10-09 11:17:00</time>
      </trkpt>
      <trkpt lat="40.64114" lon="-2.13419">
        <ele>1402.8</ele>
        <time>2021-10-09 11:17:01</time>
      </trkpt>
      <trkpt lat="40.64115" lon="-2.13414">
        <ele>1402.8</ele>
        <time>2021-10-09 11:17:02</time>
      </trkpt>
      <trkpt lat="40.64116" lon="-2.13409">
        <ele>1402.8</ele>
        <time>2021-10-09 11:17:03</time>
      </trkpt>
      <trkpt lat="40.64117" lon="-2.13404">
        <ele>1402.8</ele>
        <time>2021-10-09 11:17:04</time>
      </trkpt>
      <trkpt lat="40.64118" lon="-2.13399">
        <ele>1402.8</ele>
        <time>2021-10-09 11:17:05</time>
      </trkpt>
      <trkpt lat="40.6412" lon="-2.13393">
        <ele>1403</ele>
        <time>2021-10-09 11:17:06</time>
      </trkpt>
      <trkpt lat="40.6412" lon="-2.13388">
        <ele>1403</ele>
        <time>2021-10-09 11:17:07</time>
      </trkpt>
      <trkpt lat="40.64119" lon="-2.13382">
        <ele>1403.4</ele>
        <time>2021-10-09 11:17:08</time>
      </trkpt>
      <trkpt lat="40.64118" lon="-2.13376">
        <ele>1403.4</ele>
        <time>2021-10-09 11:17:09</time>
      </trkpt>
      <trkpt lat="40.64115" lon="-2.1337">
        <ele>1403.2</ele>
        <time>2021-10-09 11:17:10</time>
      </trkpt>
      <trkpt lat="40.64112" lon="-2.13365">
        <ele>1403.2</ele>
        <time>2021-10-09 11:17:11</time>
      </trkpt>
      <trkpt lat="40.64108" lon="-2.1336">
        <ele>1403.2</ele>
        <time>2021-10-09 11:17:12</time>
      </trkpt>
      <trkpt lat="40.64103" lon="-2.13356">
        <ele>1402.8</ele>
        <time>2021-10-09 11:17:13</time>
      </trkpt>
      <trkpt lat="40.64098" lon="-2.13351">
        <ele>1402.8</ele>
        <time>2021-10-09 11:17:14</time>
      </trkpt>
      <trkpt lat="40.64093" lon="-2.13347">
        <ele>1402.8</ele>
        <time>2021-10-09 11:17:15</time>
      </trkpt>
      <trkpt lat="40.64088" lon="-2.13344">
        <ele>1402.8</ele>
        <time>2021-10-09 11:17:16</time>
      </trkpt>
      <trkpt lat="40.64083" lon="-2.13339">
        <ele>1402.8</ele>
        <time>2021-10-09 11:17:17</time>
      </trkpt>
      <trkpt lat="40.64078" lon="-2.13334">
        <ele>1402.8</ele>
        <time>2021-10-09 11:17:18</time>
      </trkpt>
      <trkpt lat="40.64073" lon="-2.1333">
        <ele>1402.2</ele>
        <time>2021-10-09 11:17:19</time>
      </trkpt>
      <trkpt lat="40.64067" lon="-2.13325">
        <ele>1401.8</ele>
        <time>2021-10-09 11:17:20</time>
      </trkpt>
      <trkpt lat="40.64062" lon="-2.1332">
        <ele>1401.4</ele>
        <time>2021-10-09 11:17:21</time>
      </trkpt>
      <trkpt lat="40.64057" lon="-2.13315">
        <ele>1401</ele>
        <time>2021-10-09 11:17:22</time>
      </trkpt>
      <trkpt lat="40.64052" lon="-2.1331">
        <ele>1400.8</ele>
        <time>2021-10-09 11:17:23</time>
      </trkpt>
      <trkpt lat="40.64046" lon="-2.13305">
        <ele>1400.8</ele>
        <time>2021-10-09 11:17:24</time>
      </trkpt>
      <trkpt lat="40.64042" lon="-2.13299">
        <ele>1400.8</ele>
        <time>2021-10-09 11:17:25</time>
      </trkpt>
      <trkpt lat="40.64037" lon="-2.13294">
        <ele>1400.4</ele>
        <time>2021-10-09 11:17:26</time>
      </trkpt>
      <trkpt lat="40.64032" lon="-2.1329">
        <ele>1400.4</ele>
        <time>2021-10-09 11:17:27</time>
      </trkpt>
      <trkpt lat="40.64027" lon="-2.13286">
        <ele>1400.4</ele>
        <time>2021-10-09 11:17:28</time>
      </trkpt>
      <trkpt lat="40.64023" lon="-2.13281">
        <ele>1400.4</ele>
        <time>2021-10-09 11:17:29</time>
      </trkpt>
      <trkpt lat="40.64018" lon="-2.13277">
        <ele>1400.4</ele>
        <time>2021-10-09 11:17:30</time>
      </trkpt>
      <trkpt lat="40.64013" lon="-2.13273">
        <ele>1400.4</ele>
        <time>2021-10-09 11:17:31</time>
      </trkpt>
      <trkpt lat="40.64008" lon="-2.13268">
        <ele>1400.4</ele>
        <time>2021-10-09 11:17:32</time>
      </trkpt>
      <trkpt lat="40.64004" lon="-2.13264">
        <ele>1400.4</ele>
        <time>2021-10-09 11:17:33</time>
      </trkpt>
      <trkpt lat="40.63999" lon="-2.13259">
        <ele>1400.4</ele>
        <time>2021-10-09 11:17:34</time>
      </trkpt>
      <trkpt lat="40.63995" lon="-2.13254">
        <ele>1400.4</ele>
        <time>2021-10-09 11:17:35</time>
      </trkpt>
      <trkpt lat="40.63991" lon="-2.13249">
        <ele>1400.4</ele>
        <time>2021-10-09 11:17:36</time>
      </trkpt>
      <trkpt lat="40.63987" lon="-2.13244">
        <ele>1400.4</ele>
        <time>2021-10-09 11:17:37</time>
      </trkpt>
      <trkpt lat="40.63983" lon="-2.13239">
        <ele>1400.4</ele>
        <time>2021-10-09 11:17:38</time>
      </trkpt>
      <trkpt lat="40.63979" lon="-2.13234">
        <ele>1400.4</ele>
        <time>2021-10-09 11:17:39</time>
      </trkpt>
      <trkpt lat="40.63974" lon="-2.1323">
        <ele>1400.4</ele>
        <time>2021-10-09 11:17:40</time>
      </trkpt>
      <trkpt lat="40.63969" lon="-2.13226">
        <ele>1400.4</ele>
        <time>2021-10-09 11:17:41</time>
      </trkpt>
      <trkpt lat="40.63964" lon="-2.13222">
        <ele>1400.4</ele>
        <time>2021-10-09 11:17:42</time>
      </trkpt>
      <trkpt lat="40.6396" lon="-2.13217">
        <ele>1401</ele>
        <time>2021-10-09 11:17:43</time>
      </trkpt>
      <trkpt lat="40.63955" lon="-2.13212">
        <ele>1400.6</ele>
        <time>2021-10-09 11:17:44</time>
      </trkpt>
      <trkpt lat="40.6395" lon="-2.13207">
        <ele>1400.4</ele>
        <time>2021-10-09 11:17:45</time>
      </trkpt>
      <trkpt lat="40.63946" lon="-2.13201">
        <ele>1400.4</ele>
        <time>2021-10-09 11:17:46</time>
      </trkpt>
      <trkpt lat="40.63943" lon="-2.13195">
        <ele>1400.4</ele>
        <time>2021-10-09 11:17:47</time>
      </trkpt>
      <trkpt lat="40.6394" lon="-2.13189">
        <ele>1400.4</ele>
        <time>2021-10-09 11:17:48</time>
      </trkpt>
      <trkpt lat="40.63937" lon="-2.13183">
        <ele>1400.4</ele>
        <time>2021-10-09 11:17:49</time>
      </trkpt>
      <trkpt lat="40.63934" lon="-2.13178">
        <ele>1400.4</ele>
        <time>2021-10-09 11:17:50</time>
      </trkpt>
      <trkpt lat="40.6393" lon="-2.13173">
        <ele>1400.4</ele>
        <time>2021-10-09 11:17:51</time>
      </trkpt>
      <trkpt lat="40.63927" lon="-2.13168">
        <ele>1400.8</ele>
        <time>2021-10-09 11:17:52</time>
      </trkpt>
      <trkpt lat="40.63923" lon="-2.13164">
        <ele>1400.8</ele>
        <time>2021-10-09 11:17:53</time>
      </trkpt>
      <trkpt lat="40.6392" lon="-2.13159">
        <ele>1400.8</ele>
        <time>2021-10-09 11:17:54</time>
      </trkpt>
      <trkpt lat="40.63917" lon="-2.13155">
        <ele>1401</ele>
        <time>2021-10-09 11:17:55</time>
      </trkpt>
      <trkpt lat="40.63914" lon="-2.13151">
        <ele>1401</ele>
        <time>2021-10-09 11:17:56</time>
      </trkpt>
      <trkpt lat="40.63911" lon="-2.13148">
        <ele>1401.2</ele>
        <time>2021-10-09 11:17:57</time>
      </trkpt>
      <trkpt lat="40.63908" lon="-2.13145">
        <ele>1401.2</ele>
        <time>2021-10-09 11:17:58</time>
      </trkpt>
      <trkpt lat="40.63906" lon="-2.13141">
        <ele>1401.2</ele>
        <time>2021-10-09 11:17:59</time>
      </trkpt>
      <trkpt lat="40.63902" lon="-2.13139">
        <ele>1401.4</ele>
        <time>2021-10-09 11:18:00</time>
      </trkpt>
      <trkpt lat="40.639" lon="-2.13135">
        <ele>1401.6</ele>
        <time>2021-10-09 11:18:01</time>
      </trkpt>
      <trkpt lat="40.63897" lon="-2.13131">
        <ele>1401.8</ele>
        <time>2021-10-09 11:18:02</time>
      </trkpt>
      <trkpt lat="40.63894" lon="-2.13127">
        <ele>1402</ele>
        <time>2021-10-09 11:18:03</time>
      </trkpt>
      <trkpt lat="40.6389" lon="-2.13124">
        <ele>1402</ele>
        <time>2021-10-09 11:18:04</time>
      </trkpt>
      <trkpt lat="40.63886" lon="-2.13121">
        <ele>1402.4</ele>
        <time>2021-10-09 11:18:05</time>
      </trkpt>
      <trkpt lat="40.63881" lon="-2.1312">
        <ele>1402.4</ele>
        <time>2021-10-09 11:18:06</time>
      </trkpt>
      <trkpt lat="40.63876" lon="-2.13117">
        <ele>1402.4</ele>
        <time>2021-10-09 11:18:07</time>
      </trkpt>
      <trkpt lat="40.63872" lon="-2.13115">
        <ele>1402.4</ele>
        <time>2021-10-09 11:18:08</time>
      </trkpt>
      <trkpt lat="40.63868" lon="-2.13111">
        <ele>1402.4</ele>
        <time>2021-10-09 11:18:09</time>
      </trkpt>
      <trkpt lat="40.63863" lon="-2.1311">
        <ele>1402.6</ele>
        <time>2021-10-09 11:18:10</time>
      </trkpt>
      <trkpt lat="40.63858" lon="-2.13108">
        <ele>1402.8</ele>
        <time>2021-10-09 11:18:11</time>
      </trkpt>
      <trkpt lat="40.63854" lon="-2.13106">
        <ele>1402.8</ele>
        <time>2021-10-09 11:18:12</time>
      </trkpt>
      <trkpt lat="40.63849" lon="-2.13104">
        <ele>1403.2</ele>
        <time>2021-10-09 11:18:13</time>
      </trkpt>
      <trkpt lat="40.63844" lon="-2.13101">
        <ele>1403.6</ele>
        <time>2021-10-09 11:18:14</time>
      </trkpt>
      <trkpt lat="40.63841" lon="-2.13098">
        <ele>1403.6</ele>
        <time>2021-10-09 11:18:15</time>
      </trkpt>
      <trkpt lat="40.63837" lon="-2.13094">
        <ele>1403.6</ele>
        <time>2021-10-09 11:18:16</time>
      </trkpt>
      <trkpt lat="40.63835" lon="-2.13089">
        <ele>1403.6</ele>
        <time>2021-10-09 11:18:17</time>
      </trkpt>
      <trkpt lat="40.63831" lon="-2.13087">
        <ele>1403.4</ele>
        <time>2021-10-09 11:18:18</time>
      </trkpt>
      <trkpt lat="40.63828" lon="-2.13085">
        <ele>1403.4</ele>
        <time>2021-10-09 11:18:19</time>
      </trkpt>
      <trkpt lat="40.63827" lon="-2.13081">
        <ele>1404.2</ele>
        <time>2021-10-09 11:18:20</time>
      </trkpt>
      <trkpt lat="40.63824" lon="-2.13078">
        <ele>1404</ele>
        <time>2021-10-09 11:18:21</time>
      </trkpt>
      <trkpt lat="40.63821" lon="-2.13074">
        <ele>1404</ele>
        <time>2021-10-09 11:18:22</time>
      </trkpt>
      <trkpt lat="40.63817" lon="-2.1307">
        <ele>1403.6</ele>
        <time>2021-10-09 11:18:23</time>
      </trkpt>
      <trkpt lat="40.63813" lon="-2.13065">
        <ele>1403.6</ele>
        <time>2021-10-09 11:18:24</time>
      </trkpt>
      <trkpt lat="40.63809" lon="-2.1306">
        <ele>1403.6</ele>
        <time>2021-10-09 11:18:25</time>
      </trkpt>
      <trkpt lat="40.63805" lon="-2.13055">
        <ele>1403.6</ele>
        <time>2021-10-09 11:18:26</time>
      </trkpt>
      <trkpt lat="40.63801" lon="-2.1305">
        <ele>1403.2</ele>
        <time>2021-10-09 11:18:27</time>
      </trkpt>
      <trkpt lat="40.63797" lon="-2.13043">
        <ele>1403.2</ele>
        <time>2021-10-09 11:18:28</time>
      </trkpt>
      <trkpt lat="40.63793" lon="-2.13038">
        <ele>1403.2</ele>
        <time>2021-10-09 11:18:29</time>
      </trkpt>
      <trkpt lat="40.63788" lon="-2.13032">
        <ele>1402.8</ele>
        <time>2021-10-09 11:18:30</time>
      </trkpt>
      <trkpt lat="40.63783" lon="-2.13027">
        <ele>1402.8</ele>
        <time>2021-10-09 11:18:31</time>
      </trkpt>
      <trkpt lat="40.63778" lon="-2.13023">
        <ele>1402.8</ele>
        <time>2021-10-09 11:18:32</time>
      </trkpt>
      <trkpt lat="40.63772" lon="-2.13018">
        <ele>1402.4</ele>
        <time>2021-10-09 11:18:33</time>
      </trkpt>
      <trkpt lat="40.63769" lon="-2.13013">
        <ele>1402.4</ele>
        <time>2021-10-09 11:18:34</time>
      </trkpt>
      <trkpt lat="40.63764" lon="-2.13007">
        <ele>1402.8</ele>
        <time>2021-10-09 11:18:35</time>
      </trkpt>
      <trkpt lat="40.63759" lon="-2.13002">
        <ele>1402.4</ele>
        <time>2021-10-09 11:18:36</time>
      </trkpt>
      <trkpt lat="40.63755" lon="-2.12996">
        <ele>1402.4</ele>
        <time>2021-10-09 11:18:37</time>
      </trkpt>
      <trkpt lat="40.6375" lon="-2.1299">
        <ele>1402.2</ele>
        <time>2021-10-09 11:18:38</time>
      </trkpt>
      <trkpt lat="40.63746" lon="-2.12984">
        <ele>1402.4</ele>
        <time>2021-10-09 11:18:39</time>
      </trkpt>
      <trkpt lat="40.63743" lon="-2.12978">
        <ele>1402.6</ele>
        <time>2021-10-09 11:18:40</time>
      </trkpt>
      <trkpt lat="40.63738" lon="-2.12973">
        <ele>1402.6</ele>
        <time>2021-10-09 11:18:41</time>
      </trkpt>
      <trkpt lat="40.63733" lon="-2.12968">
        <ele>1402.8</ele>
        <time>2021-10-09 11:18:42</time>
      </trkpt>
      <trkpt lat="40.63728" lon="-2.12963">
        <ele>1402.8</ele>
        <time>2021-10-09 11:18:43</time>
      </trkpt>
      <trkpt lat="40.63723" lon="-2.12958">
        <ele>1402.4</ele>
        <time>2021-10-09 11:18:44</time>
      </trkpt>
      <trkpt lat="40.63719" lon="-2.12952">
        <ele>1402</ele>
        <time>2021-10-09 11:18:45</time>
      </trkpt>
      <trkpt lat="40.63715" lon="-2.12944">
        <ele>1401.8</ele>
        <time>2021-10-09 11:18:46</time>
      </trkpt>
      <trkpt lat="40.63712" lon="-2.12935">
        <ele>1402</ele>
        <time>2021-10-09 11:18:47</time>
      </trkpt>
      <trkpt lat="40.63707" lon="-2.12927">
        <ele>1402</ele>
        <time>2021-10-09 11:18:48</time>
      </trkpt>
      <trkpt lat="40.63704" lon="-2.12917">
        <ele>1401.4</ele>
        <time>2021-10-09 11:18:49</time>
      </trkpt>
      <trkpt lat="40.63701" lon="-2.12908">
        <ele>1400.8</ele>
        <time>2021-10-09 11:18:50</time>
      </trkpt>
      <trkpt lat="40.63697" lon="-2.12901">
        <ele>1400.4</ele>
        <time>2021-10-09 11:18:51</time>
      </trkpt>
      <trkpt lat="40.63691" lon="-2.12895">
        <ele>1400</ele>
        <time>2021-10-09 11:18:52</time>
      </trkpt>
      <trkpt lat="40.63686" lon="-2.12892">
        <ele>1400</ele>
        <time>2021-10-09 11:18:53</time>
      </trkpt>
      <trkpt lat="40.63682" lon="-2.12891">
        <ele>1399.4</ele>
        <time>2021-10-09 11:18:54</time>
      </trkpt>
      <trkpt lat="40.63679" lon="-2.12892">
        <ele>1399</ele>
        <time>2021-10-09 11:18:55</time>
      </trkpt>
      <trkpt lat="40.63677" lon="-2.12894">
        <ele>1398.6</ele>
        <time>2021-10-09 11:18:56</time>
      </trkpt>
      <trkpt lat="40.63674" lon="-2.12896">
        <ele>1398.4</ele>
        <time>2021-10-09 11:18:57</time>
      </trkpt>
      <trkpt lat="40.6367" lon="-2.129">
        <ele>1398.4</ele>
        <time>2021-10-09 11:18:58</time>
      </trkpt>
      <trkpt lat="40.63665" lon="-2.12903">
        <ele>1398.4</ele>
        <time>2021-10-09 11:18:59</time>
      </trkpt>
      <trkpt lat="40.6366" lon="-2.12907">
        <ele>1398</ele>
        <time>2021-10-09 11:19:00</time>
      </trkpt>
      <trkpt lat="40.63656" lon="-2.12912">
        <ele>1398</ele>
        <time>2021-10-09 11:19:01</time>
      </trkpt>
      <trkpt lat="40.6365" lon="-2.12916">
        <ele>1397.6</ele>
        <time>2021-10-09 11:19:02</time>
      </trkpt>
      <trkpt lat="40.6365" lon="-2.12916">
        <ele>1397.6</ele>
        <time>2021-10-09 11:19:03</time>
      </trkpt>
      <trkpt lat="40.63645" lon="-2.12921">
        <ele>1397.4</ele>
        <time>2021-10-09 11:19:04</time>
      </trkpt>
      <trkpt lat="40.63639" lon="-2.12925">
        <ele>1397.2</ele>
        <time>2021-10-09 11:19:05</time>
      </trkpt>
      <trkpt lat="40.63633" lon="-2.1293">
        <ele>1397</ele>
        <time>2021-10-09 11:19:06</time>
      </trkpt>
      <trkpt lat="40.63627" lon="-2.12934">
        <ele>1396.6</ele>
        <time>2021-10-09 11:19:07</time>
      </trkpt>
      <trkpt lat="40.6362" lon="-2.12939">
        <ele>1396.2</ele>
        <time>2021-10-09 11:19:08</time>
      </trkpt>
      <trkpt lat="40.63614" lon="-2.12943">
        <ele>1396.2</ele>
        <time>2021-10-09 11:19:09</time>
      </trkpt>
      <trkpt lat="40.63607" lon="-2.12948">
        <ele>1396</ele>
        <time>2021-10-09 11:19:10</time>
      </trkpt>
      <trkpt lat="40.63601" lon="-2.12952">
        <ele>1395.6</ele>
        <time>2021-10-09 11:19:11</time>
      </trkpt>
      <trkpt lat="40.63595" lon="-2.12958">
        <ele>1395.6</ele>
        <time>2021-10-09 11:19:12</time>
      </trkpt>
      <trkpt lat="40.63588" lon="-2.12962">
        <ele>1395.2</ele>
        <time>2021-10-09 11:19:13</time>
      </trkpt>
      <trkpt lat="40.63581" lon="-2.12966">
        <ele>1395.2</ele>
        <time>2021-10-09 11:19:14</time>
      </trkpt>
      <trkpt lat="40.63575" lon="-2.12972">
        <ele>1394.6</ele>
        <time>2021-10-09 11:19:15</time>
      </trkpt>
      <trkpt lat="40.63569" lon="-2.12976">
        <ele>1394.4</ele>
        <time>2021-10-09 11:19:16</time>
      </trkpt>
      <trkpt lat="40.63563" lon="-2.1298">
        <ele>1394.4</ele>
        <time>2021-10-09 11:19:17</time>
      </trkpt>
      <trkpt lat="40.63558" lon="-2.12985">
        <ele>1394</ele>
        <time>2021-10-09 11:19:18</time>
      </trkpt>
      <trkpt lat="40.63552" lon="-2.12989">
        <ele>1394</ele>
        <time>2021-10-09 11:19:19</time>
      </trkpt>
      <trkpt lat="40.63545" lon="-2.12993">
        <ele>1393.8</ele>
        <time>2021-10-09 11:19:20</time>
      </trkpt>
      <trkpt lat="40.63539" lon="-2.12998">
        <ele>1393.8</ele>
        <time>2021-10-09 11:19:21</time>
      </trkpt>
      <trkpt lat="40.63533" lon="-2.13005">
        <ele>1393.4</ele>
        <time>2021-10-09 11:19:22</time>
      </trkpt>
      <trkpt lat="40.63529" lon="-2.13011">
        <ele>1393.4</ele>
        <time>2021-10-09 11:19:23</time>
      </trkpt>
      <trkpt lat="40.63524" lon="-2.13017">
        <ele>1393.4</ele>
        <time>2021-10-09 11:19:24</time>
      </trkpt>
      <trkpt lat="40.6352" lon="-2.13024">
        <ele>1393</ele>
        <time>2021-10-09 11:19:25</time>
      </trkpt>
      <trkpt lat="40.63516" lon="-2.13031">
        <ele>1392.6</ele>
        <time>2021-10-09 11:19:26</time>
      </trkpt>
      <trkpt lat="40.63512" lon="-2.13038">
        <ele>1392.4</ele>
        <time>2021-10-09 11:19:27</time>
      </trkpt>
      <trkpt lat="40.63508" lon="-2.13044">
        <ele>1392.4</ele>
        <time>2021-10-09 11:19:28</time>
      </trkpt>
      <trkpt lat="40.63504" lon="-2.13051">
        <ele>1392.4</ele>
        <time>2021-10-09 11:19:29</time>
      </trkpt>
      <trkpt lat="40.635" lon="-2.13058">
        <ele>1392</ele>
        <time>2021-10-09 11:19:30</time>
      </trkpt>
      <trkpt lat="40.63496" lon="-2.13066">
        <ele>1391.8</ele>
        <time>2021-10-09 11:19:31</time>
      </trkpt>
      <trkpt lat="40.63493" lon="-2.13074">
        <ele>1391.8</ele>
        <time>2021-10-09 11:19:32</time>
      </trkpt>
      <trkpt lat="40.63489" lon="-2.1308">
        <ele>1391.4</ele>
        <time>2021-10-09 11:19:33</time>
      </trkpt>
      <trkpt lat="40.63484" lon="-2.13084">
        <ele>1391.4</ele>
        <time>2021-10-09 11:19:34</time>
      </trkpt>
      <trkpt lat="40.63481" lon="-2.13086">
        <ele>1391.2</ele>
        <time>2021-10-09 11:19:35</time>
      </trkpt>
      <trkpt lat="40.63477" lon="-2.13085">
        <ele>1391.2</ele>
        <time>2021-10-09 11:19:36</time>
      </trkpt>
      <trkpt lat="40.63473" lon="-2.13084">
        <ele>1391.2</ele>
        <time>2021-10-09 11:19:37</time>
      </trkpt>
      <trkpt lat="40.6347" lon="-2.13081">
        <ele>1391</ele>
        <time>2021-10-09 11:19:38</time>
      </trkpt>
      <trkpt lat="40.63466" lon="-2.13078">
        <ele>1391</ele>
        <time>2021-10-09 11:19:39</time>
      </trkpt>
      <trkpt lat="40.63462" lon="-2.13074">
        <ele>1390.6</ele>
        <time>2021-10-09 11:19:40</time>
      </trkpt>
      <trkpt lat="40.63458" lon="-2.1307">
        <ele>1391</ele>
        <time>2021-10-09 11:19:41</time>
      </trkpt>
      <trkpt lat="40.63455" lon="-2.13065">
        <ele>1390.4</ele>
        <time>2021-10-09 11:19:42</time>
      </trkpt>
      <trkpt lat="40.63452" lon="-2.1306">
        <ele>1390.4</ele>
        <time>2021-10-09 11:19:43</time>
      </trkpt>
      <trkpt lat="40.63448" lon="-2.13055">
        <ele>1390.4</ele>
        <time>2021-10-09 11:19:44</time>
      </trkpt>
      <trkpt lat="40.63445" lon="-2.13051">
        <ele>1390.6</ele>
        <time>2021-10-09 11:19:45</time>
      </trkpt>
      <trkpt lat="40.63441" lon="-2.13045">
        <ele>1390.6</ele>
        <time>2021-10-09 11:19:46</time>
      </trkpt>
      <trkpt lat="40.63436" lon="-2.1304">
        <ele>1389.6</ele>
        <time>2021-10-09 11:19:47</time>
      </trkpt>
      <trkpt lat="40.63433" lon="-2.13034">
        <ele>1390.4</ele>
        <time>2021-10-09 11:19:48</time>
      </trkpt>
      <trkpt lat="40.6343" lon="-2.13028">
        <ele>1390.2</ele>
        <time>2021-10-09 11:19:49</time>
      </trkpt>
      <trkpt lat="40.63427" lon="-2.13021">
        <ele>1390.6</ele>
        <time>2021-10-09 11:19:50</time>
      </trkpt>
      <trkpt lat="40.63426" lon="-2.13015">
        <ele>1391</ele>
        <time>2021-10-09 11:19:51</time>
      </trkpt>
      <trkpt lat="40.63424" lon="-2.13008">
        <ele>1391</ele>
        <time>2021-10-09 11:19:52</time>
      </trkpt>
      <trkpt lat="40.63422" lon="-2.13002">
        <ele>1391</ele>
        <time>2021-10-09 11:19:53</time>
      </trkpt>
      <trkpt lat="40.63421" lon="-2.12995">
        <ele>1391.2</ele>
        <time>2021-10-09 11:19:54</time>
      </trkpt>
      <trkpt lat="40.63419" lon="-2.12988">
        <ele>1391.2</ele>
        <time>2021-10-09 11:19:55</time>
      </trkpt>
      <trkpt lat="40.63417" lon="-2.12982">
        <ele>1391.2</ele>
        <time>2021-10-09 11:19:56</time>
      </trkpt>
      <trkpt lat="40.63415" lon="-2.12974">
        <ele>1391.2</ele>
        <time>2021-10-09 11:19:57</time>
      </trkpt>
      <trkpt lat="40.63414" lon="-2.12966">
        <ele>1391.2</ele>
        <time>2021-10-09 11:19:58</time>
      </trkpt>
      <trkpt lat="40.63413" lon="-2.12959">
        <ele>1391.2</ele>
        <time>2021-10-09 11:19:59</time>
      </trkpt>
      <trkpt lat="40.63412" lon="-2.12952">
        <ele>1391.6</ele>
        <time>2021-10-09 11:20:00</time>
      </trkpt>
      <trkpt lat="40.63412" lon="-2.12945">
        <ele>1391.8</ele>
        <time>2021-10-09 11:20:01</time>
      </trkpt>
      <trkpt lat="40.63411" lon="-2.12938">
        <ele>1391.8</ele>
        <time>2021-10-09 11:20:02</time>
      </trkpt>
      <trkpt lat="40.63412" lon="-2.12931">
        <ele>1391.8</ele>
        <time>2021-10-09 11:20:03</time>
      </trkpt>
      <trkpt lat="40.63412" lon="-2.12925">
        <ele>1392.2</ele>
        <time>2021-10-09 11:20:04</time>
      </trkpt>
      <trkpt lat="40.63412" lon="-2.12919">
        <ele>1392.4</ele>
        <time>2021-10-09 11:20:05</time>
      </trkpt>
      <trkpt lat="40.63412" lon="-2.12912">
        <ele>1392.6</ele>
        <time>2021-10-09 11:20:06</time>
      </trkpt>
      <trkpt lat="40.63412" lon="-2.12905">
        <ele>1392.6</ele>
        <time>2021-10-09 11:20:07</time>
      </trkpt>
      <trkpt lat="40.63412" lon="-2.12899">
        <ele>1393</ele>
        <time>2021-10-09 11:20:08</time>
      </trkpt>
      <trkpt lat="40.63411" lon="-2.12892">
        <ele>1393</ele>
        <time>2021-10-09 11:20:09</time>
      </trkpt>
      <trkpt lat="40.63411" lon="-2.12886">
        <ele>1393.4</ele>
        <time>2021-10-09 11:20:10</time>
      </trkpt>
      <trkpt lat="40.6341" lon="-2.12881">
        <ele>1393.4</ele>
        <time>2021-10-09 11:20:11</time>
      </trkpt>
      <trkpt lat="40.6341" lon="-2.12876">
        <ele>1393.4</ele>
        <time>2021-10-09 11:20:12</time>
      </trkpt>
      <trkpt lat="40.63409" lon="-2.12871">
        <ele>1393.8</ele>
        <time>2021-10-09 11:20:13</time>
      </trkpt>
      <trkpt lat="40.63408" lon="-2.12867">
        <ele>1393.8</ele>
        <time>2021-10-09 11:20:14</time>
      </trkpt>
      <trkpt lat="40.63408" lon="-2.12862">
        <ele>1394</ele>
        <time>2021-10-09 11:20:15</time>
      </trkpt>
      <trkpt lat="40.63407" lon="-2.12858">
        <ele>1394</ele>
        <time>2021-10-09 11:20:16</time>
      </trkpt>
      <trkpt lat="40.63406" lon="-2.12853">
        <ele>1394.2</ele>
        <time>2021-10-09 11:20:17</time>
      </trkpt>
      <trkpt lat="40.63405" lon="-2.1285">
        <ele>1394.2</ele>
        <time>2021-10-09 11:20:18</time>
      </trkpt>
      <trkpt lat="40.63404" lon="-2.12845">
        <ele>1394.6</ele>
        <time>2021-10-09 11:20:19</time>
      </trkpt>
      <trkpt lat="40.63404" lon="-2.12841">
        <ele>1394.8</ele>
        <time>2021-10-09 11:20:20</time>
      </trkpt>
      <trkpt lat="40.63403" lon="-2.12837">
        <ele>1394.8</ele>
        <time>2021-10-09 11:20:21</time>
      </trkpt>
      <trkpt lat="40.63402" lon="-2.12833">
        <ele>1395</ele>
        <time>2021-10-09 11:20:22</time>
      </trkpt>
      <trkpt lat="40.63401" lon="-2.12829">
        <ele>1395</ele>
        <time>2021-10-09 11:20:23</time>
      </trkpt>
      <trkpt lat="40.634" lon="-2.12825">
        <ele>1395.2</ele>
        <time>2021-10-09 11:20:24</time>
      </trkpt>
      <trkpt lat="40.63399" lon="-2.1282">
        <ele>1395.2</ele>
        <time>2021-10-09 11:20:25</time>
      </trkpt>
      <trkpt lat="40.63398" lon="-2.12816">
        <ele>1395.2</ele>
        <time>2021-10-09 11:20:26</time>
      </trkpt>
      <trkpt lat="40.63396" lon="-2.12811">
        <ele>1395.2</ele>
        <time>2021-10-09 11:20:27</time>
      </trkpt>
      <trkpt lat="40.63395" lon="-2.12808">
        <ele>1395.6</ele>
        <time>2021-10-09 11:20:28</time>
      </trkpt>
      <trkpt lat="40.63394" lon="-2.12804">
        <ele>1395.6</ele>
        <time>2021-10-09 11:20:29</time>
      </trkpt>
      <trkpt lat="40.63393" lon="-2.128">
        <ele>1395.8</ele>
        <time>2021-10-09 11:20:30</time>
      </trkpt>
      <trkpt lat="40.63392" lon="-2.12796">
        <ele>1395.8</ele>
        <time>2021-10-09 11:20:31</time>
      </trkpt>
      <trkpt lat="40.63391" lon="-2.12792">
        <ele>1396.2</ele>
        <time>2021-10-09 11:20:32</time>
      </trkpt>
      <trkpt lat="40.63389" lon="-2.12789">
        <ele>1396.2</ele>
        <time>2021-10-09 11:20:33</time>
      </trkpt>
      <trkpt lat="40.63388" lon="-2.12785">
        <ele>1396.6</ele>
        <time>2021-10-09 11:20:34</time>
      </trkpt>
      <trkpt lat="40.63387" lon="-2.12782">
        <ele>1396.6</ele>
        <time>2021-10-09 11:20:35</time>
      </trkpt>
      <trkpt lat="40.63386" lon="-2.1278">
        <ele>1396.8</ele>
        <time>2021-10-09 11:20:36</time>
      </trkpt>
      <trkpt lat="40.63385" lon="-2.12777">
        <ele>1396.8</ele>
        <time>2021-10-09 11:20:37</time>
      </trkpt>
      <trkpt lat="40.63384" lon="-2.12776">
        <ele>1397.2</ele>
        <time>2021-10-09 11:20:38</time>
      </trkpt>
      <trkpt lat="40.63384" lon="-2.12773">
        <ele>1397.2</ele>
        <time>2021-10-09 11:20:39</time>
      </trkpt>
      <trkpt lat="40.63383" lon="-2.1277">
        <ele>1397.4</ele>
        <time>2021-10-09 11:20:40</time>
      </trkpt>
      <trkpt lat="40.63383" lon="-2.12767">
        <ele>1397.4</ele>
        <time>2021-10-09 11:20:41</time>
      </trkpt>
      <trkpt lat="40.63382" lon="-2.12763">
        <ele>1397.8</ele>
        <time>2021-10-09 11:20:42</time>
      </trkpt>
      <trkpt lat="40.63382" lon="-2.1276">
        <ele>1398</ele>
        <time>2021-10-09 11:20:43</time>
      </trkpt>
      <trkpt lat="40.63382" lon="-2.12756">
        <ele>1398</ele>
        <time>2021-10-09 11:20:44</time>
      </trkpt>
      <trkpt lat="40.63381" lon="-2.12752">
        <ele>1398.4</ele>
        <time>2021-10-09 11:20:45</time>
      </trkpt>
      <trkpt lat="40.63381" lon="-2.12749">
        <ele>1398.4</ele>
        <time>2021-10-09 11:20:46</time>
      </trkpt>
      <trkpt lat="40.63381" lon="-2.12745">
        <ele>1398.6</ele>
        <time>2021-10-09 11:20:47</time>
      </trkpt>
      <trkpt lat="40.6338" lon="-2.12741">
        <ele>1398.6</ele>
        <time>2021-10-09 11:20:48</time>
      </trkpt>
      <trkpt lat="40.6338" lon="-2.12737">
        <ele>1398.8</ele>
        <time>2021-10-09 11:20:49</time>
      </trkpt>
      <trkpt lat="40.6338" lon="-2.12733">
        <ele>1398.8</ele>
        <time>2021-10-09 11:20:50</time>
      </trkpt>
      <trkpt lat="40.63379" lon="-2.12729">
        <ele>1399</ele>
        <time>2021-10-09 11:20:51</time>
      </trkpt>
      <trkpt lat="40.63378" lon="-2.12725">
        <ele>1399</ele>
        <time>2021-10-09 11:20:52</time>
      </trkpt>
      <trkpt lat="40.63377" lon="-2.12722">
        <ele>1399.4</ele>
        <time>2021-10-09 11:20:53</time>
      </trkpt>
      <trkpt lat="40.63376" lon="-2.12718">
        <ele>1399.4</ele>
        <time>2021-10-09 11:20:54</time>
      </trkpt>
      <trkpt lat="40.63375" lon="-2.12714">
        <ele>1399.6</ele>
        <time>2021-10-09 11:20:55</time>
      </trkpt>
      <trkpt lat="40.63374" lon="-2.12711">
        <ele>1399.6</ele>
        <time>2021-10-09 11:20:56</time>
      </trkpt>
      <trkpt lat="40.63374" lon="-2.12709">
        <ele>1399.8</ele>
        <time>2021-10-09 11:20:57</time>
      </trkpt>
      <trkpt lat="40.63373" lon="-2.12706">
        <ele>1399.8</ele>
        <time>2021-10-09 11:20:58</time>
      </trkpt>
      <trkpt lat="40.63372" lon="-2.12704">
        <ele>1400</ele>
        <time>2021-10-09 11:20:59</time>
      </trkpt>
      <trkpt lat="40.63371" lon="-2.12702">
        <ele>1400.2</ele>
        <time>2021-10-09 11:21:00</time>
      </trkpt>
      <trkpt lat="40.6337" lon="-2.127">
        <ele>1400.2</ele>
        <time>2021-10-09 11:21:01</time>
      </trkpt>
      <trkpt lat="40.6337" lon="-2.12698">
        <ele>1400.6</ele>
        <time>2021-10-09 11:21:02</time>
      </trkpt>
      <trkpt lat="40.63369" lon="-2.12695">
        <ele>1400.8</ele>
        <time>2021-10-09 11:21:03</time>
      </trkpt>
      <trkpt lat="40.63368" lon="-2.12693">
        <ele>1400.8</ele>
        <time>2021-10-09 11:21:04</time>
      </trkpt>
      <trkpt lat="40.63367" lon="-2.1269">
        <ele>1401</ele>
        <time>2021-10-09 11:21:05</time>
      </trkpt>
      <trkpt lat="40.63366" lon="-2.12688">
        <ele>1401</ele>
        <time>2021-10-09 11:21:06</time>
      </trkpt>
      <trkpt lat="40.63365" lon="-2.12685">
        <ele>1401.4</ele>
        <time>2021-10-09 11:21:07</time>
      </trkpt>
      <trkpt lat="40.63364" lon="-2.12682">
        <ele>1401.4</ele>
        <time>2021-10-09 11:21:08</time>
      </trkpt>
      <trkpt lat="40.63363" lon="-2.12679">
        <ele>1401.8</ele>
        <time>2021-10-09 11:21:09</time>
      </trkpt>
      <trkpt lat="40.63362" lon="-2.12676">
        <ele>1401.8</ele>
        <time>2021-10-09 11:21:10</time>
      </trkpt>
      <trkpt lat="40.63361" lon="-2.1267">
        <ele>1402.2</ele>
        <time>2021-10-09 11:21:11</time>
      </trkpt>
      <trkpt lat="40.6336" lon="-2.12668">
        <ele>1402.2</ele>
        <time>2021-10-09 11:21:12</time>
      </trkpt>
      <trkpt lat="40.63359" lon="-2.12665">
        <ele>1402.4</ele>
        <time>2021-10-09 11:21:13</time>
      </trkpt>
      <trkpt lat="40.63358" lon="-2.12661">
        <ele>1402.4</ele>
        <time>2021-10-09 11:21:14</time>
      </trkpt>
      <trkpt lat="40.63357" lon="-2.12659">
        <ele>1402.8</ele>
        <time>2021-10-09 11:21:15</time>
      </trkpt>
      <trkpt lat="40.63357" lon="-2.12657">
        <ele>1402.8</ele>
        <time>2021-10-09 11:21:16</time>
      </trkpt>
      <trkpt lat="40.63356" lon="-2.12655">
        <ele>1403</ele>
        <time>2021-10-09 11:21:17</time>
      </trkpt>
      <trkpt lat="40.63356" lon="-2.12653">
        <ele>1403</ele>
        <time>2021-10-09 11:21:18</time>
      </trkpt>
      <trkpt lat="40.63356" lon="-2.12651">
        <ele>1403</ele>
        <time>2021-10-09 11:21:19</time>
      </trkpt>
      <trkpt lat="40.63355" lon="-2.12648">
        <ele>1403</ele>
        <time>2021-10-09 11:21:20</time>
      </trkpt>
      <trkpt lat="40.63354" lon="-2.12646">
        <ele>1403.2</ele>
        <time>2021-10-09 11:21:21</time>
      </trkpt>
      <trkpt lat="40.63353" lon="-2.12642">
        <ele>1403.2</ele>
        <time>2021-10-09 11:21:22</time>
      </trkpt>
      <trkpt lat="40.63352" lon="-2.12639">
        <ele>1403.2</ele>
        <time>2021-10-09 11:21:23</time>
      </trkpt>
      <trkpt lat="40.63351" lon="-2.12636">
        <ele>1403.6</ele>
        <time>2021-10-09 11:21:24</time>
      </trkpt>
      <trkpt lat="40.6335" lon="-2.12632">
        <ele>1403.6</ele>
        <time>2021-10-09 11:21:25</time>
      </trkpt>
      <trkpt lat="40.63349" lon="-2.12629">
        <ele>1403.6</ele>
        <time>2021-10-09 11:21:26</time>
      </trkpt>
      <trkpt lat="40.63348" lon="-2.12625">
        <ele>1403.8</ele>
        <time>2021-10-09 11:21:27</time>
      </trkpt>
      <trkpt lat="40.63347" lon="-2.12622">
        <ele>1403.8</ele>
        <time>2021-10-09 11:21:28</time>
      </trkpt>
      <trkpt lat="40.63347" lon="-2.12618">
        <ele>1403.8</ele>
        <time>2021-10-09 11:21:29</time>
      </trkpt>
      <trkpt lat="40.63347" lon="-2.12614">
        <ele>1404</ele>
        <time>2021-10-09 11:21:30</time>
      </trkpt>
      <trkpt lat="40.63346" lon="-2.1261">
        <ele>1404</ele>
        <time>2021-10-09 11:21:31</time>
      </trkpt>
      <trkpt lat="40.63346" lon="-2.12606">
        <ele>1404</ele>
        <time>2021-10-09 11:21:32</time>
      </trkpt>
      <trkpt lat="40.63346" lon="-2.12602">
        <ele>1404.2</ele>
        <time>2021-10-09 11:21:33</time>
      </trkpt>
      <trkpt lat="40.63345" lon="-2.12599">
        <ele>1404.2</ele>
        <time>2021-10-09 11:21:34</time>
      </trkpt>
      <trkpt lat="40.63344" lon="-2.12595">
        <ele>1404.2</ele>
        <time>2021-10-09 11:21:35</time>
      </trkpt>
      <trkpt lat="40.63344" lon="-2.12592">
        <ele>1404.6</ele>
        <time>2021-10-09 11:21:36</time>
      </trkpt>
      <trkpt lat="40.63343" lon="-2.12589">
        <ele>1404.6</ele>
        <time>2021-10-09 11:21:37</time>
      </trkpt>
      <trkpt lat="40.63342" lon="-2.12585">
        <ele>1404.6</ele>
        <time>2021-10-09 11:21:38</time>
      </trkpt>
      <trkpt lat="40.63341" lon="-2.12581">
        <ele>1404.8</ele>
        <time>2021-10-09 11:21:39</time>
      </trkpt>
      <trkpt lat="40.63341" lon="-2.12578">
        <ele>1404.8</ele>
        <time>2021-10-09 11:21:40</time>
      </trkpt>
      <trkpt lat="40.6334" lon="-2.12574">
        <ele>1405</ele>
        <time>2021-10-09 11:21:41</time>
      </trkpt>
      <trkpt lat="40.6334" lon="-2.12571">
        <ele>1405.4</ele>
        <time>2021-10-09 11:21:42</time>
      </trkpt>
      <trkpt lat="40.6334" lon="-2.12567">
        <ele>1405.4</ele>
        <time>2021-10-09 11:21:43</time>
      </trkpt>
      <trkpt lat="40.63339" lon="-2.12564">
        <ele>1405.4</ele>
        <time>2021-10-09 11:21:44</time>
      </trkpt>
      <trkpt lat="40.63338" lon="-2.12561">
        <ele>1405.6</ele>
        <time>2021-10-09 11:21:45</time>
      </trkpt>
      <trkpt lat="40.63337" lon="-2.12558">
        <ele>1405.8</ele>
        <time>2021-10-09 11:21:46</time>
      </trkpt>
      <trkpt lat="40.63337" lon="-2.12554">
        <ele>1405.8</ele>
        <time>2021-10-09 11:21:47</time>
      </trkpt>
      <trkpt lat="40.63336" lon="-2.12551">
        <ele>1406.2</ele>
        <time>2021-10-09 11:21:48</time>
      </trkpt>
      <trkpt lat="40.63335" lon="-2.12547">
        <ele>1406.4</ele>
        <time>2021-10-09 11:21:49</time>
      </trkpt>
      <trkpt lat="40.63334" lon="-2.12543">
        <ele>1406.4</ele>
        <time>2021-10-09 11:21:50</time>
      </trkpt>
      <trkpt lat="40.63333" lon="-2.1254">
        <ele>1406.6</ele>
        <time>2021-10-09 11:21:51</time>
      </trkpt>
      <trkpt lat="40.63332" lon="-2.12536">
        <ele>1406.6</ele>
        <time>2021-10-09 11:21:52</time>
      </trkpt>
      <trkpt lat="40.6333" lon="-2.12533">
        <ele>1407</ele>
        <time>2021-10-09 11:21:53</time>
      </trkpt>
      <trkpt lat="40.63329" lon="-2.1253">
        <ele>1407</ele>
        <time>2021-10-09 11:21:54</time>
      </trkpt>
      <trkpt lat="40.63328" lon="-2.12526">
        <ele>1407.2</ele>
        <time>2021-10-09 11:21:55</time>
      </trkpt>
      <trkpt lat="40.63327" lon="-2.12523">
        <ele>1407.2</ele>
        <time>2021-10-09 11:21:56</time>
      </trkpt>
      <trkpt lat="40.63325" lon="-2.1252">
        <ele>1407.4</ele>
        <time>2021-10-09 11:21:57</time>
      </trkpt>
      <trkpt lat="40.63324" lon="-2.12516">
        <ele>1407.4</ele>
        <time>2021-10-09 11:21:58</time>
      </trkpt>
      <trkpt lat="40.63323" lon="-2.12513">
        <ele>1407.8</ele>
        <time>2021-10-09 11:21:59</time>
      </trkpt>
      <trkpt lat="40.63322" lon="-2.12509">
        <ele>1407.8</ele>
        <time>2021-10-09 11:22:00</time>
      </trkpt>
      <trkpt lat="40.63321" lon="-2.12506">
        <ele>1408</ele>
        <time>2021-10-09 11:22:01</time>
      </trkpt>
      <trkpt lat="40.6332" lon="-2.12503">
        <ele>1408</ele>
        <time>2021-10-09 11:22:02</time>
      </trkpt>
      <trkpt lat="40.63319" lon="-2.125">
        <ele>1408</ele>
        <time>2021-10-09 11:22:03</time>
      </trkpt>
      <trkpt lat="40.63318" lon="-2.12497">
        <ele>1408.2</ele>
        <time>2021-10-09 11:22:04</time>
      </trkpt>
      <trkpt lat="40.63318" lon="-2.12494">
        <ele>1408.2</ele>
        <time>2021-10-09 11:22:05</time>
      </trkpt>
      <trkpt lat="40.63316" lon="-2.12491">
        <ele>1408.6</ele>
        <time>2021-10-09 11:22:06</time>
      </trkpt>
      <trkpt lat="40.63315" lon="-2.12489">
        <ele>1408.6</ele>
        <time>2021-10-09 11:22:07</time>
      </trkpt>
      <trkpt lat="40.63314" lon="-2.12486">
        <ele>1408.8</ele>
        <time>2021-10-09 11:22:08</time>
      </trkpt>
      <trkpt lat="40.63313" lon="-2.12484">
        <ele>1408.8</ele>
        <time>2021-10-09 11:22:09</time>
      </trkpt>
      <trkpt lat="40.63312" lon="-2.12481">
        <ele>1409</ele>
        <time>2021-10-09 11:22:10</time>
      </trkpt>
      <trkpt lat="40.63311" lon="-2.12479">
        <ele>1409</ele>
        <time>2021-10-09 11:22:11</time>
      </trkpt>
      <trkpt lat="40.6331" lon="-2.12476">
        <ele>1409</ele>
        <time>2021-10-09 11:22:12</time>
      </trkpt>
      <trkpt lat="40.63309" lon="-2.12473">
        <ele>1409.2</ele>
        <time>2021-10-09 11:22:13</time>
      </trkpt>
      <trkpt lat="40.63309" lon="-2.12471">
        <ele>1409.2</ele>
        <time>2021-10-09 11:22:14</time>
      </trkpt>
      <trkpt lat="40.63307" lon="-2.12468">
        <ele>1409.2</ele>
        <time>2021-10-09 11:22:15</time>
      </trkpt>
      <trkpt lat="40.63306" lon="-2.12464">
        <ele>1409.4</ele>
        <time>2021-10-09 11:22:16</time>
      </trkpt>
      <trkpt lat="40.63304" lon="-2.1246">
        <ele>1409.4</ele>
        <time>2021-10-09 11:22:17</time>
      </trkpt>
      <trkpt lat="40.63303" lon="-2.12457">
        <ele>1409.4</ele>
        <time>2021-10-09 11:22:18</time>
      </trkpt>
      <trkpt lat="40.63302" lon="-2.12453">
        <ele>1409.8</ele>
        <time>2021-10-09 11:22:19</time>
      </trkpt>
      <trkpt lat="40.63302" lon="-2.1245">
        <ele>1409.8</ele>
        <time>2021-10-09 11:22:20</time>
      </trkpt>
      <trkpt lat="40.63301" lon="-2.12446">
        <ele>1409.8</ele>
        <time>2021-10-09 11:22:21</time>
      </trkpt>
      <trkpt lat="40.633" lon="-2.12443">
        <ele>1410</ele>
        <time>2021-10-09 11:22:22</time>
      </trkpt>
      <trkpt lat="40.63299" lon="-2.12439">
        <ele>1410</ele>
        <time>2021-10-09 11:22:23</time>
      </trkpt>
      <trkpt lat="40.63298" lon="-2.12436">
        <ele>1410</ele>
        <time>2021-10-09 11:22:24</time>
      </trkpt>
      <trkpt lat="40.63297" lon="-2.12432">
        <ele>1410.4</ele>
        <time>2021-10-09 11:22:25</time>
      </trkpt>
      <trkpt lat="40.63297" lon="-2.12429">
        <ele>1410.4</ele>
        <time>2021-10-09 11:22:26</time>
      </trkpt>
      <trkpt lat="40.63297" lon="-2.12425">
        <ele>1410.6</ele>
        <time>2021-10-09 11:22:27</time>
      </trkpt>
      <trkpt lat="40.63297" lon="-2.12422">
        <ele>1410.6</ele>
        <time>2021-10-09 11:22:28</time>
      </trkpt>
      <trkpt lat="40.63297" lon="-2.12419">
        <ele>1410.8</ele>
        <time>2021-10-09 11:22:29</time>
      </trkpt>
      <trkpt lat="40.63297" lon="-2.12415">
        <ele>1410.8</ele>
        <time>2021-10-09 11:22:30</time>
      </trkpt>
      <trkpt lat="40.63297" lon="-2.12412">
        <ele>1411</ele>
        <time>2021-10-09 11:22:31</time>
      </trkpt>
      <trkpt lat="40.63297" lon="-2.12408">
        <ele>1411</ele>
        <time>2021-10-09 11:22:32</time>
      </trkpt>
      <trkpt lat="40.63297" lon="-2.12405">
        <ele>1411.4</ele>
        <time>2021-10-09 11:22:33</time>
      </trkpt>
      <trkpt lat="40.63297" lon="-2.12401">
        <ele>1411.4</ele>
        <time>2021-10-09 11:22:34</time>
      </trkpt>
      <trkpt lat="40.63298" lon="-2.12397">
        <ele>1411.4</ele>
        <time>2021-10-09 11:22:35</time>
      </trkpt>
      <trkpt lat="40.63298" lon="-2.12393">
        <ele>1411.6</ele>
        <time>2021-10-09 11:22:36</time>
      </trkpt>
      <trkpt lat="40.63298" lon="-2.1239">
        <ele>1411.6</ele>
        <time>2021-10-09 11:22:37</time>
      </trkpt>
      <trkpt lat="40.63298" lon="-2.12386">
        <ele>1411.6</ele>
        <time>2021-10-09 11:22:38</time>
      </trkpt>
      <trkpt lat="40.63298" lon="-2.12382">
        <ele>1411.8</ele>
        <time>2021-10-09 11:22:39</time>
      </trkpt>
      <trkpt lat="40.63298" lon="-2.12378">
        <ele>1411.8</ele>
        <time>2021-10-09 11:22:40</time>
      </trkpt>
      <trkpt lat="40.63299" lon="-2.12374">
        <ele>1412</ele>
        <time>2021-10-09 11:22:41</time>
      </trkpt>
      <trkpt lat="40.63299" lon="-2.1237">
        <ele>1412</ele>
        <time>2021-10-09 11:22:42</time>
      </trkpt>
      <trkpt lat="40.63299" lon="-2.12366">
        <ele>1412.2</ele>
        <time>2021-10-09 11:22:43</time>
      </trkpt>
      <trkpt lat="40.63298" lon="-2.12362">
        <ele>1412.2</ele>
        <time>2021-10-09 11:22:44</time>
      </trkpt>
      <trkpt lat="40.63298" lon="-2.12358">
        <ele>1412.4</ele>
        <time>2021-10-09 11:22:45</time>
      </trkpt>
      <trkpt lat="40.63298" lon="-2.12354">
        <ele>1412.4</ele>
        <time>2021-10-09 11:22:46</time>
      </trkpt>
      <trkpt lat="40.63297" lon="-2.1235">
        <ele>1412.4</ele>
        <time>2021-10-09 11:22:47</time>
      </trkpt>
      <trkpt lat="40.63297" lon="-2.12346">
        <ele>1412.6</ele>
        <time>2021-10-09 11:22:48</time>
      </trkpt>
      <trkpt lat="40.63297" lon="-2.12343">
        <ele>1412.6</ele>
        <time>2021-10-09 11:22:49</time>
      </trkpt>
      <trkpt lat="40.63296" lon="-2.12339">
        <ele>1413</ele>
        <time>2021-10-09 11:22:50</time>
      </trkpt>
      <trkpt lat="40.63296" lon="-2.12335">
        <ele>1413</ele>
        <time>2021-10-09 11:22:51</time>
      </trkpt>
      <trkpt lat="40.63296" lon="-2.1233">
        <ele>1413.2</ele>
        <time>2021-10-09 11:22:52</time>
      </trkpt>
      <trkpt lat="40.63296" lon="-2.12326">
        <ele>1413.2</ele>
        <time>2021-10-09 11:22:53</time>
      </trkpt>
      <trkpt lat="40.63295" lon="-2.12322">
        <ele>1413.2</ele>
        <time>2021-10-09 11:22:54</time>
      </trkpt>
      <trkpt lat="40.63295" lon="-2.12317">
        <ele>1413.4</ele>
        <time>2021-10-09 11:22:55</time>
      </trkpt>
      <trkpt lat="40.63295" lon="-2.12313">
        <ele>1413.4</ele>
        <time>2021-10-09 11:22:56</time>
      </trkpt>
      <trkpt lat="40.63294" lon="-2.12308">
        <ele>1413.4</ele>
        <time>2021-10-09 11:22:57</time>
      </trkpt>
      <trkpt lat="40.63294" lon="-2.12303">
        <ele>1413.4</ele>
        <time>2021-10-09 11:22:58</time>
      </trkpt>
      <trkpt lat="40.63293" lon="-2.12299">
        <ele>1413.6</ele>
        <time>2021-10-09 11:22:59</time>
      </trkpt>
      <trkpt lat="40.63292" lon="-2.12294">
        <ele>1413.6</ele>
        <time>2021-10-09 11:23:00</time>
      </trkpt>
      <trkpt lat="40.63292" lon="-2.12289">
        <ele>1413.6</ele>
        <time>2021-10-09 11:23:01</time>
      </trkpt>
      <trkpt lat="40.63291" lon="-2.12284">
        <ele>1413.6</ele>
        <time>2021-10-09 11:23:02</time>
      </trkpt>
      <trkpt lat="40.63291" lon="-2.1228">
        <ele>1413.6</ele>
        <time>2021-10-09 11:23:03</time>
      </trkpt>
      <trkpt lat="40.6329" lon="-2.12275">
        <ele>1413.6</ele>
        <time>2021-10-09 11:23:04</time>
      </trkpt>
      <trkpt lat="40.63289" lon="-2.1227">
        <ele>1413.8</ele>
        <time>2021-10-09 11:23:05</time>
      </trkpt>
      <trkpt lat="40.63287" lon="-2.12266">
        <ele>1413.8</ele>
        <time>2021-10-09 11:23:06</time>
      </trkpt>
      <trkpt lat="40.63286" lon="-2.12261">
        <ele>1413.8</ele>
        <time>2021-10-09 11:23:07</time>
      </trkpt>
      <trkpt lat="40.63285" lon="-2.12256">
        <ele>1414</ele>
        <time>2021-10-09 11:23:08</time>
      </trkpt>
      <trkpt lat="40.63283" lon="-2.12251">
        <ele>1414</ele>
        <time>2021-10-09 11:23:09</time>
      </trkpt>
      <trkpt lat="40.63282" lon="-2.12247">
        <ele>1414</ele>
        <time>2021-10-09 11:23:10</time>
      </trkpt>
      <trkpt lat="40.63281" lon="-2.12242">
        <ele>1414.4</ele>
        <time>2021-10-09 11:23:11</time>
      </trkpt>
      <trkpt lat="40.6328" lon="-2.12237">
        <ele>1414.4</ele>
        <time>2021-10-09 11:23:12</time>
      </trkpt>
      <trkpt lat="40.63278" lon="-2.12233">
        <ele>1414.6</ele>
        <time>2021-10-09 11:23:13</time>
      </trkpt>
      <trkpt lat="40.63277" lon="-2.12229">
        <ele>1414.6</ele>
        <time>2021-10-09 11:23:14</time>
      </trkpt>
      <trkpt lat="40.63275" lon="-2.12224">
        <ele>1414.6</ele>
        <time>2021-10-09 11:23:15</time>
      </trkpt>
      <trkpt lat="40.63274" lon="-2.12219">
        <ele>1414.8</ele>
        <time>2021-10-09 11:23:16</time>
      </trkpt>
      <trkpt lat="40.63272" lon="-2.12215">
        <ele>1414.8</ele>
        <time>2021-10-09 11:23:17</time>
      </trkpt>
      <trkpt lat="40.6327" lon="-2.1221">
        <ele>1414.8</ele>
        <time>2021-10-09 11:23:18</time>
      </trkpt>
      <trkpt lat="40.63268" lon="-2.12206">
        <ele>1415</ele>
        <time>2021-10-09 11:23:19</time>
      </trkpt>
      <trkpt lat="40.63266" lon="-2.12201">
        <ele>1415</ele>
        <time>2021-10-09 11:23:20</time>
      </trkpt>
      <trkpt lat="40.63264" lon="-2.12196">
        <ele>1415</ele>
        <time>2021-10-09 11:23:21</time>
      </trkpt>
      <trkpt lat="40.63262" lon="-2.12191">
        <ele>1415.2</ele>
        <time>2021-10-09 11:23:22</time>
      </trkpt>
      <trkpt lat="40.6326" lon="-2.12187">
        <ele>1415.2</ele>
        <time>2021-10-09 11:23:23</time>
      </trkpt>
      <trkpt lat="40.63258" lon="-2.12182">
        <ele>1415.2</ele>
        <time>2021-10-09 11:23:24</time>
      </trkpt>
      <trkpt lat="40.63256" lon="-2.12178">
        <ele>1415.2</ele>
        <time>2021-10-09 11:23:25</time>
      </trkpt>
      <trkpt lat="40.63255" lon="-2.12174">
        <ele>1415.4</ele>
        <time>2021-10-09 11:23:26</time>
      </trkpt>
      <trkpt lat="40.63253" lon="-2.12169">
        <ele>1415.4</ele>
        <time>2021-10-09 11:23:27</time>
      </trkpt>
      <trkpt lat="40.63251" lon="-2.12164">
        <ele>1415.4</ele>
        <time>2021-10-09 11:23:28</time>
      </trkpt>
      <trkpt lat="40.63249" lon="-2.1216">
        <ele>1415.4</ele>
        <time>2021-10-09 11:23:29</time>
      </trkpt>
      <trkpt lat="40.63247" lon="-2.12155">
        <ele>1415.4</ele>
        <time>2021-10-09 11:23:30</time>
      </trkpt>
      <trkpt lat="40.63245" lon="-2.1215">
        <ele>1415.4</ele>
        <time>2021-10-09 11:23:31</time>
      </trkpt>
      <trkpt lat="40.63243" lon="-2.12146">
        <ele>1415.6</ele>
        <time>2021-10-09 11:23:32</time>
      </trkpt>
      <trkpt lat="40.63241" lon="-2.12141">
        <ele>1415.6</ele>
        <time>2021-10-09 11:23:33</time>
      </trkpt>
      <trkpt lat="40.6324" lon="-2.12136">
        <ele>1415.6</ele>
        <time>2021-10-09 11:23:34</time>
      </trkpt>
      <trkpt lat="40.63238" lon="-2.12131">
        <ele>1416</ele>
        <time>2021-10-09 11:23:35</time>
      </trkpt>
      <trkpt lat="40.63236" lon="-2.12127">
        <ele>1416</ele>
        <time>2021-10-09 11:23:36</time>
      </trkpt>
      <trkpt lat="40.63234" lon="-2.12122">
        <ele>1416</ele>
        <time>2021-10-09 11:23:37</time>
      </trkpt>
      <trkpt lat="40.63233" lon="-2.12116">
        <ele>1416.4</ele>
        <time>2021-10-09 11:23:38</time>
      </trkpt>
      <trkpt lat="40.63231" lon="-2.12112">
        <ele>1416.4</ele>
        <time>2021-10-09 11:23:39</time>
      </trkpt>
      <trkpt lat="40.63229" lon="-2.12106">
        <ele>1416.8</ele>
        <time>2021-10-09 11:23:40</time>
      </trkpt>
      <trkpt lat="40.63228" lon="-2.12101">
        <ele>1416.8</ele>
        <time>2021-10-09 11:23:41</time>
      </trkpt>
      <trkpt lat="40.63227" lon="-2.12096">
        <ele>1417.2</ele>
        <time>2021-10-09 11:23:42</time>
      </trkpt>
      <trkpt lat="40.63226" lon="-2.1209">
        <ele>1417.2</ele>
        <time>2021-10-09 11:23:43</time>
      </trkpt>
      <trkpt lat="40.63224" lon="-2.12085">
        <ele>1417.4</ele>
        <time>2021-10-09 11:23:44</time>
      </trkpt>
      <trkpt lat="40.63222" lon="-2.12081">
        <ele>1417.4</ele>
        <time>2021-10-09 11:23:45</time>
      </trkpt>
      <trkpt lat="40.63221" lon="-2.12075">
        <ele>1417.6</ele>
        <time>2021-10-09 11:23:46</time>
      </trkpt>
      <trkpt lat="40.63219" lon="-2.1207">
        <ele>1417.6</ele>
        <time>2021-10-09 11:23:47</time>
      </trkpt>
      <trkpt lat="40.63218" lon="-2.12065">
        <ele>1418</ele>
        <time>2021-10-09 11:23:48</time>
      </trkpt>
      <trkpt lat="40.63217" lon="-2.12059">
        <ele>1418</ele>
        <time>2021-10-09 11:23:49</time>
      </trkpt>
      <trkpt lat="40.63216" lon="-2.12054">
        <ele>1418.2</ele>
        <time>2021-10-09 11:23:50</time>
      </trkpt>
      <trkpt lat="40.63214" lon="-2.12048">
        <ele>1418.2</ele>
        <time>2021-10-09 11:23:51</time>
      </trkpt>
      <trkpt lat="40.63213" lon="-2.12042">
        <ele>1418.2</ele>
        <time>2021-10-09 11:23:52</time>
      </trkpt>
      <trkpt lat="40.63211" lon="-2.12036">
        <ele>1418.6</ele>
        <time>2021-10-09 11:23:53</time>
      </trkpt>
      <trkpt lat="40.6321" lon="-2.1203">
        <ele>1418.6</ele>
        <time>2021-10-09 11:23:54</time>
      </trkpt>
      <trkpt lat="40.63208" lon="-2.12023">
        <ele>1418.8</ele>
        <time>2021-10-09 11:23:55</time>
      </trkpt>
      <trkpt lat="40.63207" lon="-2.12016">
        <ele>1418.8</ele>
        <time>2021-10-09 11:23:56</time>
      </trkpt>
      <trkpt lat="40.63206" lon="-2.12009">
        <ele>1418.6</ele>
        <time>2021-10-09 11:23:57</time>
      </trkpt>
      <trkpt lat="40.63205" lon="-2.12">
        <ele>1418.4</ele>
        <time>2021-10-09 11:23:58</time>
      </trkpt>
      <trkpt lat="40.63206" lon="-2.11991">
        <ele>1418.4</ele>
        <time>2021-10-09 11:23:59</time>
      </trkpt>
      <trkpt lat="40.63206" lon="-2.1198">
        <ele>1418.4</ele>
        <time>2021-10-09 11:24:00</time>
      </trkpt>
      <trkpt lat="40.63206" lon="-2.11969">
        <ele>1417.8</ele>
        <time>2021-10-09 11:24:01</time>
      </trkpt>
      <trkpt lat="40.63207" lon="-2.11957">
        <ele>1417</ele>
        <time>2021-10-09 11:24:02</time>
      </trkpt>
      <trkpt lat="40.63209" lon="-2.11945">
        <ele>1416.4</ele>
        <time>2021-10-09 11:24:03</time>
      </trkpt>
      <trkpt lat="40.6321" lon="-2.11933">
        <ele>1416</ele>
        <time>2021-10-09 11:24:04</time>
      </trkpt>
      <trkpt lat="40.63211" lon="-2.11921">
        <ele>1415.2</ele>
        <time>2021-10-09 11:24:05</time>
      </trkpt>
      <trkpt lat="40.63213" lon="-2.11909">
        <ele>1414.8</ele>
        <time>2021-10-09 11:24:06</time>
      </trkpt>
      <trkpt lat="40.63214" lon="-2.11897">
        <ele>1413.8</ele>
        <time>2021-10-09 11:24:07</time>
      </trkpt>
      <trkpt lat="40.63213" lon="-2.11885">
        <ele>1413</ele>
        <time>2021-10-09 11:24:08</time>
      </trkpt>
      <trkpt lat="40.63212" lon="-2.11872">
        <ele>1412</ele>
        <time>2021-10-09 11:24:09</time>
      </trkpt>
      <trkpt lat="40.63212" lon="-2.11859">
        <ele>1411.4</ele>
        <time>2021-10-09 11:24:10</time>
      </trkpt>
      <trkpt lat="40.63211" lon="-2.11846">
        <ele>1410</ele>
        <time>2021-10-09 11:24:11</time>
      </trkpt>
      <trkpt lat="40.6321" lon="-2.11835">
        <ele>1408.8</ele>
        <time>2021-10-09 11:24:12</time>
      </trkpt>
      <trkpt lat="40.63208" lon="-2.11825">
        <ele>1407.2</ele>
        <time>2021-10-09 11:24:13</time>
      </trkpt>
      <trkpt lat="40.63205" lon="-2.11815">
        <ele>1406.2</ele>
        <time>2021-10-09 11:24:14</time>
      </trkpt>
      <trkpt lat="40.632" lon="-2.11806">
        <ele>1405</ele>
        <time>2021-10-09 11:24:15</time>
      </trkpt>
      <trkpt lat="40.63193" lon="-2.118">
        <ele>1404</ele>
        <time>2021-10-09 11:24:16</time>
      </trkpt>
      <trkpt lat="40.63186" lon="-2.11797">
        <ele>1403.4</ele>
        <time>2021-10-09 11:24:17</time>
      </trkpt>
      <trkpt lat="40.63178" lon="-2.11796">
        <ele>1402.4</ele>
        <time>2021-10-09 11:24:18</time>
      </trkpt>
      <trkpt lat="40.6317" lon="-2.11796">
        <ele>1401.8</ele>
        <time>2021-10-09 11:24:19</time>
      </trkpt>
      <trkpt lat="40.63162" lon="-2.11797">
        <ele>1401</ele>
        <time>2021-10-09 11:24:20</time>
      </trkpt>
      <trkpt lat="40.63155" lon="-2.11796">
        <ele>1400</ele>
        <time>2021-10-09 11:24:21</time>
      </trkpt>
      <trkpt lat="40.63149" lon="-2.11793">
        <ele>1399.4</ele>
        <time>2021-10-09 11:24:22</time>
      </trkpt>
      <trkpt lat="40.63145" lon="-2.11787">
        <ele>1398.4</ele>
        <time>2021-10-09 11:24:23</time>
      </trkpt>
      <trkpt lat="40.63142" lon="-2.1178">
        <ele>1397.4</ele>
        <time>2021-10-09 11:24:24</time>
      </trkpt>
      <trkpt lat="40.6314" lon="-2.11771">
        <ele>1396.8</ele>
        <time>2021-10-09 11:24:25</time>
      </trkpt>
      <trkpt lat="40.6314" lon="-2.11761">
        <ele>1396</ele>
        <time>2021-10-09 11:24:26</time>
      </trkpt>
      <trkpt lat="40.63139" lon="-2.11751">
        <ele>1395.4</ele>
        <time>2021-10-09 11:24:27</time>
      </trkpt>
      <trkpt lat="40.63138" lon="-2.1174">
        <ele>1394.6</ele>
        <time>2021-10-09 11:24:28</time>
      </trkpt>
      <trkpt lat="40.63136" lon="-2.11729">
        <ele>1394</ele>
        <time>2021-10-09 11:24:29</time>
      </trkpt>
      <trkpt lat="40.63134" lon="-2.11718">
        <ele>1393.4</ele>
        <time>2021-10-09 11:24:30</time>
      </trkpt>
      <trkpt lat="40.63132" lon="-2.11706">
        <ele>1392.8</ele>
        <time>2021-10-09 11:24:31</time>
      </trkpt>
      <trkpt lat="40.63129" lon="-2.11695">
        <ele>1392.2</ele>
        <time>2021-10-09 11:24:32</time>
      </trkpt>
      <trkpt lat="40.63126" lon="-2.11684">
        <ele>1391.6</ele>
        <time>2021-10-09 11:24:33</time>
      </trkpt>
      <trkpt lat="40.63121" lon="-2.11674">
        <ele>1391</ele>
        <time>2021-10-09 11:24:34</time>
      </trkpt>
      <trkpt lat="40.63115" lon="-2.11666">
        <ele>1390.6</ele>
        <time>2021-10-09 11:24:35</time>
      </trkpt>
      <trkpt lat="40.63109" lon="-2.11657">
        <ele>1390.2</ele>
        <time>2021-10-09 11:24:36</time>
      </trkpt>
      <trkpt lat="40.63105" lon="-2.1165">
        <ele>1389.8</ele>
        <time>2021-10-09 11:24:37</time>
      </trkpt>
      <trkpt lat="40.63101" lon="-2.11644">
        <ele>1389.4</ele>
        <time>2021-10-09 11:24:38</time>
      </trkpt>
      <trkpt lat="40.63098" lon="-2.1164">
        <ele>1388.8</ele>
        <time>2021-10-09 11:24:39</time>
      </trkpt>
      <trkpt lat="40.63097" lon="-2.11638">
        <ele>1388.4</ele>
        <time>2021-10-09 11:24:40</time>
      </trkpt>
      <trkpt lat="40.63096" lon="-2.11637">
        <ele>1387.8</ele>
        <time>2021-10-09 11:24:41</time>
      </trkpt>
      <trkpt lat="40.63096" lon="-2.11637">
        <ele>1387.4</ele>
        <time>2021-10-09 11:24:42</time>
      </trkpt>
      <trkpt lat="40.63096" lon="-2.11637">
        <ele>1387</ele>
        <time>2021-10-09 11:24:43</time>
      </trkpt>
      <trkpt lat="40.63096" lon="-2.11637">
        <ele>1386.8</ele>
        <time>2021-10-09 11:24:44</time>
      </trkpt>
      <trkpt lat="40.63096" lon="-2.11637">
        <ele>1386.4</ele>
        <time>2021-10-09 11:24:45</time>
      </trkpt>
      <trkpt lat="40.63095" lon="-2.11638">
        <ele>1386.2</ele>
        <time>2021-10-09 11:24:46</time>
      </trkpt>
      <trkpt lat="40.63094" lon="-2.11635">
        <ele>1386.2</ele>
        <time>2021-10-09 11:24:47</time>
      </trkpt>
      <trkpt lat="40.63091" lon="-2.11631">
        <ele>1386.2</ele>
        <time>2021-10-09 11:24:48</time>
      </trkpt>
      <trkpt lat="40.63089" lon="-2.11627">
        <ele>1386.2</ele>
        <time>2021-10-09 11:24:49</time>
      </trkpt>
      <trkpt lat="40.63086" lon="-2.11622">
        <ele>1386</ele>
        <time>2021-10-09 11:24:50</time>
      </trkpt>
      <trkpt lat="40.63083" lon="-2.11616">
        <ele>1386</ele>
        <time>2021-10-09 11:26:14</time>
      </trkpt>
      <trkpt lat="40.6308" lon="-2.1161">
        <ele>1385.6</ele>
        <time>2021-10-09 11:26:15</time>
      </trkpt>
      <trkpt lat="40.63076" lon="-2.11604">
        <ele>1385.6</ele>
        <time>2021-10-09 11:26:16</time>
      </trkpt>
      <trkpt lat="40.63072" lon="-2.11596">
        <ele>1385.6</ele>
        <time>2021-10-09 11:26:17</time>
      </trkpt>
      <trkpt lat="40.63068" lon="-2.11589">
        <ele>1385.4</ele>
        <time>2021-10-09 11:26:18</time>
      </trkpt>
      <trkpt lat="40.63064" lon="-2.11581">
        <ele>1385</ele>
        <time>2021-10-09 11:26:19</time>
      </trkpt>
      <trkpt lat="40.6306" lon="-2.11573">
        <ele>1384.8</ele>
        <time>2021-10-09 11:26:20</time>
      </trkpt>
      <trkpt lat="40.63055" lon="-2.11565">
        <ele>1384.6</ele>
        <time>2021-10-09 11:26:21</time>
      </trkpt>
      <trkpt lat="40.6305" lon="-2.11557">
        <ele>1384.2</ele>
        <time>2021-10-09 11:26:22</time>
      </trkpt>
      <trkpt lat="40.63046" lon="-2.11548">
        <ele>1384</ele>
        <time>2021-10-09 11:26:23</time>
      </trkpt>
      <trkpt lat="40.63041" lon="-2.11539">
        <ele>1383.8</ele>
        <time>2021-10-09 11:26:24</time>
      </trkpt>
      <trkpt lat="40.63036" lon="-2.11531">
        <ele>1383.8</ele>
        <time>2021-10-09 11:26:25</time>
      </trkpt>
      <trkpt lat="40.63031" lon="-2.11523">
        <ele>1383.2</ele>
        <time>2021-10-09 11:26:26</time>
      </trkpt>
      <trkpt lat="40.63026" lon="-2.11515">
        <ele>1383</ele>
        <time>2021-10-09 11:26:27</time>
      </trkpt>
      <trkpt lat="40.63021" lon="-2.11507">
        <ele>1383</ele>
        <time>2021-10-09 11:26:28</time>
      </trkpt>
      <trkpt lat="40.63016" lon="-2.11499">
        <ele>1382.6</ele>
        <time>2021-10-09 11:26:29</time>
      </trkpt>
      <trkpt lat="40.63012" lon="-2.11492">
        <ele>1382.6</ele>
        <time>2021-10-09 11:26:30</time>
      </trkpt>
      <trkpt lat="40.63007" lon="-2.11484">
        <ele>1382.2</ele>
        <time>2021-10-09 11:26:31</time>
      </trkpt>
      <trkpt lat="40.63002" lon="-2.11475">
        <ele>1382.2</ele>
        <time>2021-10-09 11:26:32</time>
      </trkpt>
      <trkpt lat="40.62998" lon="-2.11468">
        <ele>1382.2</ele>
        <time>2021-10-09 11:26:33</time>
      </trkpt>
      <trkpt lat="40.62992" lon="-2.1146">
        <ele>1381.6</ele>
        <time>2021-10-09 11:26:34</time>
      </trkpt>
      <trkpt lat="40.62987" lon="-2.11452">
        <ele>1381.4</ele>
        <time>2021-10-09 11:26:35</time>
      </trkpt>
      <trkpt lat="40.62982" lon="-2.11444">
        <ele>1381.4</ele>
        <time>2021-10-09 11:26:36</time>
      </trkpt>
      <trkpt lat="40.62977" lon="-2.11435">
        <ele>1381</ele>
        <time>2021-10-09 11:26:37</time>
      </trkpt>
      <trkpt lat="40.62971" lon="-2.11426">
        <ele>1380.6</ele>
        <time>2021-10-09 11:26:38</time>
      </trkpt>
      <trkpt lat="40.62966" lon="-2.11416">
        <ele>1380.4</ele>
        <time>2021-10-09 11:26:39</time>
      </trkpt>
      <trkpt lat="40.6296" lon="-2.11407">
        <ele>1380</ele>
        <time>2021-10-09 11:26:40</time>
      </trkpt>
      <trkpt lat="40.62955" lon="-2.11396">
        <ele>1379.4</ele>
        <time>2021-10-09 11:26:41</time>
      </trkpt>
      <trkpt lat="40.62949" lon="-2.11387">
        <ele>1379</ele>
        <time>2021-10-09 11:26:42</time>
      </trkpt>
      <trkpt lat="40.62944" lon="-2.11377">
        <ele>1378.4</ele>
        <time>2021-10-09 11:26:43</time>
      </trkpt>
      <trkpt lat="40.62939" lon="-2.11368">
        <ele>1378.2</ele>
        <time>2021-10-09 11:26:44</time>
      </trkpt>
      <trkpt lat="40.62934" lon="-2.11358">
        <ele>1377.8</ele>
        <time>2021-10-09 11:26:45</time>
      </trkpt>
      <trkpt lat="40.62928" lon="-2.11348">
        <ele>1377.4</ele>
        <time>2021-10-09 11:26:46</time>
      </trkpt>
      <trkpt lat="40.62923" lon="-2.11338">
        <ele>1377.2</ele>
        <time>2021-10-09 11:26:47</time>
      </trkpt>
      <trkpt lat="40.62918" lon="-2.11329">
        <ele>1376.8</ele>
        <time>2021-10-09 11:26:48</time>
      </trkpt>
      <trkpt lat="40.62913" lon="-2.11319">
        <ele>1376.6</ele>
        <time>2021-10-09 11:26:49</time>
      </trkpt>
      <trkpt lat="40.62908" lon="-2.11309">
        <ele>1376.6</ele>
        <time>2021-10-09 11:26:50</time>
      </trkpt>
      <trkpt lat="40.62903" lon="-2.11299">
        <ele>1376.4</ele>
        <time>2021-10-09 11:26:51</time>
      </trkpt>
      <trkpt lat="40.629" lon="-2.11288">
        <ele>1376.4</ele>
        <time>2021-10-09 11:26:52</time>
      </trkpt>
      <trkpt lat="40.62896" lon="-2.11276">
        <ele>1376.4</ele>
        <time>2021-10-09 11:26:53</time>
      </trkpt>
      <trkpt lat="40.62892" lon="-2.11265">
        <ele>1376</ele>
        <time>2021-10-09 11:26:54</time>
      </trkpt>
      <trkpt lat="40.62886" lon="-2.11255">
        <ele>1376</ele>
        <time>2021-10-09 11:26:55</time>
      </trkpt>
      <trkpt lat="40.6288" lon="-2.11247">
        <ele>1375.6</ele>
        <time>2021-10-09 11:26:56</time>
      </trkpt>
      <trkpt lat="40.62873" lon="-2.1124">
        <ele>1375.4</ele>
        <time>2021-10-09 11:26:57</time>
      </trkpt>
      <trkpt lat="40.62865" lon="-2.11234">
        <ele>1375.4</ele>
        <time>2021-10-09 11:26:58</time>
      </trkpt>
      <trkpt lat="40.62857" lon="-2.11229">
        <ele>1375.4</ele>
        <time>2021-10-09 11:26:59</time>
      </trkpt>
      <trkpt lat="40.62849" lon="-2.11225">
        <ele>1375.2</ele>
        <time>2021-10-09 11:27:00</time>
      </trkpt>
      <trkpt lat="40.6284" lon="-2.11222">
        <ele>1375</ele>
        <time>2021-10-09 11:27:01</time>
      </trkpt>
      <trkpt lat="40.62831" lon="-2.1122">
        <ele>1375</ele>
        <time>2021-10-09 11:27:02</time>
      </trkpt>
      <trkpt lat="40.62822" lon="-2.11218">
        <ele>1374.6</ele>
        <time>2021-10-09 11:27:03</time>
      </trkpt>
      <trkpt lat="40.62813" lon="-2.11217">
        <ele>1374.6</ele>
        <time>2021-10-09 11:27:04</time>
      </trkpt>
      <trkpt lat="40.62805" lon="-2.11216">
        <ele>1374.6</ele>
        <time>2021-10-09 11:27:05</time>
      </trkpt>
      <trkpt lat="40.62795" lon="-2.11215">
        <ele>1374.6</ele>
        <time>2021-10-09 11:27:06</time>
      </trkpt>
      <trkpt lat="40.62786" lon="-2.11213">
        <ele>1374.4</ele>
        <time>2021-10-09 11:27:07</time>
      </trkpt>
      <trkpt lat="40.62777" lon="-2.11213">
        <ele>1374.4</ele>
        <time>2021-10-09 11:27:08</time>
      </trkpt>
      <trkpt lat="40.62768" lon="-2.11213">
        <ele>1374</ele>
        <time>2021-10-09 11:27:09</time>
      </trkpt>
      <trkpt lat="40.62759" lon="-2.11214">
        <ele>1374</ele>
        <time>2021-10-09 11:27:10</time>
      </trkpt>
      <trkpt lat="40.62749" lon="-2.11216">
        <ele>1373.8</ele>
        <time>2021-10-09 11:27:11</time>
      </trkpt>
      <trkpt lat="40.6274" lon="-2.11219">
        <ele>1373.8</ele>
        <time>2021-10-09 11:27:12</time>
      </trkpt>
      <trkpt lat="40.62731" lon="-2.11222">
        <ele>1373.8</ele>
        <time>2021-10-09 11:27:13</time>
      </trkpt>
      <trkpt lat="40.62721" lon="-2.11225">
        <ele>1373.4</ele>
        <time>2021-10-09 11:27:14</time>
      </trkpt>
      <trkpt lat="40.62712" lon="-2.11229">
        <ele>1373.4</ele>
        <time>2021-10-09 11:27:15</time>
      </trkpt>
      <trkpt lat="40.62703" lon="-2.11233">
        <ele>1373.4</ele>
        <time>2021-10-09 11:27:16</time>
      </trkpt>
      <trkpt lat="40.62694" lon="-2.11238">
        <ele>1373.4</ele>
        <time>2021-10-09 11:27:17</time>
      </trkpt>
      <trkpt lat="40.62685" lon="-2.11242">
        <ele>1373.2</ele>
        <time>2021-10-09 11:27:18</time>
      </trkpt>
      <trkpt lat="40.62676" lon="-2.11247">
        <ele>1373.2</ele>
        <time>2021-10-09 11:27:19</time>
      </trkpt>
      <trkpt lat="40.62667" lon="-2.11253">
        <ele>1373</ele>
        <time>2021-10-09 11:27:20</time>
      </trkpt>
      <trkpt lat="40.62658" lon="-2.11258">
        <ele>1373</ele>
        <time>2021-10-09 11:27:21</time>
      </trkpt>
      <trkpt lat="40.6265" lon="-2.11264">
        <ele>1373</ele>
        <time>2021-10-09 11:27:22</time>
      </trkpt>
      <trkpt lat="40.62641" lon="-2.1127">
        <ele>1372.6</ele>
        <time>2021-10-09 11:27:23</time>
      </trkpt>
      <trkpt lat="40.62632" lon="-2.11276">
        <ele>1372.6</ele>
        <time>2021-10-09 11:27:24</time>
      </trkpt>
      <trkpt lat="40.62624" lon="-2.11283">
        <ele>1372.6</ele>
        <time>2021-10-09 11:27:25</time>
      </trkpt>
      <trkpt lat="40.62615" lon="-2.11289">
        <ele>1372.4</ele>
        <time>2021-10-09 11:27:26</time>
      </trkpt>
      <trkpt lat="40.62608" lon="-2.11297">
        <ele>1372.2</ele>
        <time>2021-10-09 11:27:27</time>
      </trkpt>
      <trkpt lat="40.626" lon="-2.11304">
        <ele>1372.2</ele>
        <time>2021-10-09 11:27:28</time>
      </trkpt>
      <trkpt lat="40.62592" lon="-2.11311">
        <ele>1371.8</ele>
        <time>2021-10-09 11:27:29</time>
      </trkpt>
      <trkpt lat="40.62584" lon="-2.11318">
        <ele>1371.8</ele>
        <time>2021-10-09 11:27:30</time>
      </trkpt>
      <trkpt lat="40.62575" lon="-2.11325">
        <ele>1371.6</ele>
        <time>2021-10-09 11:27:31</time>
      </trkpt>
      <trkpt lat="40.62567" lon="-2.11331">
        <ele>1371.2</ele>
        <time>2021-10-09 11:27:32</time>
      </trkpt>
      <trkpt lat="40.62559" lon="-2.11337">
        <ele>1371.2</ele>
        <time>2021-10-09 11:27:33</time>
      </trkpt>
      <trkpt lat="40.6255" lon="-2.11342">
        <ele>1371.2</ele>
        <time>2021-10-09 11:27:34</time>
      </trkpt>
      <trkpt lat="40.62542" lon="-2.11349">
        <ele>1371.2</ele>
        <time>2021-10-09 11:27:35</time>
      </trkpt>
      <trkpt lat="40.62534" lon="-2.11357">
        <ele>1371</ele>
        <time>2021-10-09 11:27:36</time>
      </trkpt>
      <trkpt lat="40.62527" lon="-2.11365">
        <ele>1371</ele>
        <time>2021-10-09 11:27:37</time>
      </trkpt>
      <trkpt lat="40.62521" lon="-2.11374">
        <ele>1370.8</ele>
        <time>2021-10-09 11:27:38</time>
      </trkpt>
      <trkpt lat="40.62514" lon="-2.11383">
        <ele>1370.8</ele>
        <time>2021-10-09 11:27:39</time>
      </trkpt>
      <trkpt lat="40.62509" lon="-2.11392">
        <ele>1370.8</ele>
        <time>2021-10-09 11:27:40</time>
      </trkpt>
      <trkpt lat="40.62504" lon="-2.11402">
        <ele>1370.6</ele>
        <time>2021-10-09 11:27:41</time>
      </trkpt>
      <trkpt lat="40.625" lon="-2.11412">
        <ele>1370.6</ele>
        <time>2021-10-09 11:27:42</time>
      </trkpt>
      <trkpt lat="40.62496" lon="-2.11422">
        <ele>1370.2</ele>
        <time>2021-10-09 11:27:43</time>
      </trkpt>
      <trkpt lat="40.62491" lon="-2.1143">
        <ele>1370.2</ele>
        <time>2021-10-09 11:27:44</time>
      </trkpt>
      <trkpt lat="40.62485" lon="-2.11438">
        <ele>1370</ele>
        <time>2021-10-09 11:27:45</time>
      </trkpt>
      <trkpt lat="40.62479" lon="-2.11445">
        <ele>1370</ele>
        <time>2021-10-09 11:27:46</time>
      </trkpt>
      <trkpt lat="40.62473" lon="-2.11451">
        <ele>1370</ele>
        <time>2021-10-09 11:27:47</time>
      </trkpt>
      <trkpt lat="40.62467" lon="-2.11456">
        <ele>1370</ele>
        <time>2021-10-09 11:27:48</time>
      </trkpt>
      <trkpt lat="40.62461" lon="-2.1146">
        <ele>1370</ele>
        <time>2021-10-09 11:27:49</time>
      </trkpt>
      <trkpt lat="40.62455" lon="-2.11464">
        <ele>1370</ele>
        <time>2021-10-09 11:27:50</time>
      </trkpt>
      <trkpt lat="40.62449" lon="-2.11466">
        <ele>1370</ele>
        <time>2021-10-09 11:27:51</time>
      </trkpt>
      <trkpt lat="40.62444" lon="-2.11468">
        <ele>1370.4</ele>
        <time>2021-10-09 11:27:52</time>
      </trkpt>
      <trkpt lat="40.62438" lon="-2.11469">
        <ele>1370.4</ele>
        <time>2021-10-09 11:27:53</time>
      </trkpt>
      <trkpt lat="40.62434" lon="-2.1147">
        <ele>1370.8</ele>
        <time>2021-10-09 11:27:54</time>
      </trkpt>
      <trkpt lat="40.6243" lon="-2.11471">
        <ele>1370.8</ele>
        <time>2021-10-09 11:27:55</time>
      </trkpt>
      <trkpt lat="40.62426" lon="-2.11471">
        <ele>1371</ele>
        <time>2021-10-09 11:27:56</time>
      </trkpt>
      <trkpt lat="40.62422" lon="-2.11471">
        <ele>1371.2</ele>
        <time>2021-10-09 11:27:57</time>
      </trkpt>
      <trkpt lat="40.62417" lon="-2.1147">
        <ele>1371.2</ele>
        <time>2021-10-09 11:27:58</time>
      </trkpt>
      <trkpt lat="40.62413" lon="-2.1147">
        <ele>1371.6</ele>
        <time>2021-10-09 11:27:59</time>
      </trkpt>
      <trkpt lat="40.62409" lon="-2.11469">
        <ele>1371.8</ele>
        <time>2021-10-09 11:28:00</time>
      </trkpt>
      <trkpt lat="40.62405" lon="-2.11468">
        <ele>1372</ele>
        <time>2021-10-09 11:28:01</time>
      </trkpt>
      <trkpt lat="40.62401" lon="-2.11467">
        <ele>1372</ele>
        <time>2021-10-09 11:28:02</time>
      </trkpt>
      <trkpt lat="40.62397" lon="-2.11467">
        <ele>1372.4</ele>
        <time>2021-10-09 11:28:03</time>
      </trkpt>
      <trkpt lat="40.62393" lon="-2.11467">
        <ele>1372.4</ele>
        <time>2021-10-09 11:28:04</time>
      </trkpt>
      <trkpt lat="40.62388" lon="-2.11466">
        <ele>1372.4</ele>
        <time>2021-10-09 11:28:05</time>
      </trkpt>
      <trkpt lat="40.62383" lon="-2.11466">
        <ele>1372.6</ele>
        <time>2021-10-09 11:28:06</time>
      </trkpt>
      <trkpt lat="40.62379" lon="-2.11467">
        <ele>1372.6</ele>
        <time>2021-10-09 11:28:07</time>
      </trkpt>
      <trkpt lat="40.62374" lon="-2.11468">
        <ele>1372.6</ele>
        <time>2021-10-09 11:28:08</time>
      </trkpt>
      <trkpt lat="40.6237" lon="-2.1147">
        <ele>1372.6</ele>
        <time>2021-10-09 11:28:09</time>
      </trkpt>
      <trkpt lat="40.62366" lon="-2.11471">
        <ele>1372.6</ele>
        <time>2021-10-09 11:28:10</time>
      </trkpt>
      <trkpt lat="40.62362" lon="-2.11473">
        <ele>1372.6</ele>
        <time>2021-10-09 11:28:11</time>
      </trkpt>
      <trkpt lat="40.62358" lon="-2.11475">
        <ele>1372.8</ele>
        <time>2021-10-09 11:28:12</time>
      </trkpt>
      <trkpt lat="40.62354" lon="-2.11476">
        <ele>1372.8</ele>
        <time>2021-10-09 11:28:13</time>
      </trkpt>
      <trkpt lat="40.6235" lon="-2.11478">
        <ele>1373</ele>
        <time>2021-10-09 11:28:14</time>
      </trkpt>
      <trkpt lat="40.62346" lon="-2.11479">
        <ele>1373.4</ele>
        <time>2021-10-09 11:28:15</time>
      </trkpt>
      <trkpt lat="40.62343" lon="-2.1148">
        <ele>1373.6</ele>
        <time>2021-10-09 11:28:16</time>
      </trkpt>
      <trkpt lat="40.62339" lon="-2.1148">
        <ele>1373.6</ele>
        <time>2021-10-09 11:28:17</time>
      </trkpt>
      <trkpt lat="40.62336" lon="-2.1148">
        <ele>1374</ele>
        <time>2021-10-09 11:28:18</time>
      </trkpt>
      <trkpt lat="40.62333" lon="-2.1148">
        <ele>1374.2</ele>
        <time>2021-10-09 11:28:19</time>
      </trkpt>
      <trkpt lat="40.6233" lon="-2.11479">
        <ele>1374.2</ele>
        <time>2021-10-09 11:28:20</time>
      </trkpt>
      <trkpt lat="40.62328" lon="-2.11479">
        <ele>1374.2</ele>
        <time>2021-10-09 11:28:21</time>
      </trkpt>
      <trkpt lat="40.62328" lon="-2.11478">
        <ele>1374.4</ele>
        <time>2021-10-09 11:28:22</time>
      </trkpt>
      <trkpt lat="40.62328" lon="-2.11478">
        <ele>1374.4</ele>
        <time>2021-10-09 11:28:23</time>
      </trkpt>
      <trkpt lat="40.62328" lon="-2.11478">
        <ele>1374.4</ele>
        <time>2021-10-09 11:28:24</time>
      </trkpt>
      <trkpt lat="40.62328" lon="-2.11479">
        <ele>1374.4</ele>
        <time>2021-10-09 11:28:25</time>
      </trkpt>
      <trkpt lat="40.62324" lon="-2.11477">
        <ele>1374.4</ele>
        <time>2021-10-09 11:28:26</time>
      </trkpt>
      <trkpt lat="40.62322" lon="-2.11476">
        <ele>1374.4</ele>
        <time>2021-10-09 11:28:27</time>
      </trkpt>
      <trkpt lat="40.6232" lon="-2.11475">
        <ele>1374.4</ele>
        <time>2021-10-09 11:28:28</time>
      </trkpt>
      <trkpt lat="40.62319" lon="-2.11473">
        <ele>1374.4</ele>
        <time>2021-10-09 11:28:29</time>
      </trkpt>
      <trkpt lat="40.62317" lon="-2.1147">
        <ele>1374.4</ele>
        <time>2021-10-09 11:28:30</time>
      </trkpt>
      <trkpt lat="40.62316" lon="-2.11466">
        <ele>1374.4</ele>
        <time>2021-10-09 11:28:37</time>
      </trkpt>
      <trkpt lat="40.62315" lon="-2.11461">
        <ele>1374.4</ele>
        <time>2021-10-09 11:28:38</time>
      </trkpt>
      <trkpt lat="40.62313" lon="-2.11457">
        <ele>1374.4</ele>
        <time>2021-10-09 11:28:39</time>
      </trkpt>
      <trkpt lat="40.62312" lon="-2.11451">
        <ele>1374.4</ele>
        <time>2021-10-09 11:28:40</time>
      </trkpt>
      <trkpt lat="40.62313" lon="-2.11445">
        <ele>1374.4</ele>
        <time>2021-10-09 11:28:41</time>
      </trkpt>
      <trkpt lat="40.62313" lon="-2.11439">
        <ele>1374.4</ele>
        <time>2021-10-09 11:28:42</time>
      </trkpt>
      <trkpt lat="40.62312" lon="-2.11434">
        <ele>1374.4</ele>
        <time>2021-10-09 11:28:43</time>
      </trkpt>
      <trkpt lat="40.62312" lon="-2.11427">
        <ele>1374.4</ele>
        <time>2021-10-09 11:28:44</time>
      </trkpt>
      <trkpt lat="40.62311" lon="-2.11421">
        <ele>1374.4</ele>
        <time>2021-10-09 11:28:45</time>
      </trkpt>
      <trkpt lat="40.62311" lon="-2.11416">
        <ele>1374.4</ele>
        <time>2021-10-09 11:28:46</time>
      </trkpt>
      <trkpt lat="40.6231" lon="-2.1141">
        <ele>1374.4</ele>
        <time>2021-10-09 11:28:47</time>
      </trkpt>
      <trkpt lat="40.62309" lon="-2.11404">
        <ele>1374.4</ele>
        <time>2021-10-09 11:28:48</time>
      </trkpt>
      <trkpt lat="40.62309" lon="-2.11399">
        <ele>1374.4</ele>
        <time>2021-10-09 11:28:49</time>
      </trkpt>
      <trkpt lat="40.62308" lon="-2.11393">
        <ele>1374.2</ele>
        <time>2021-10-09 11:28:50</time>
      </trkpt>
      <trkpt lat="40.62308" lon="-2.11387">
        <ele>1374.2</ele>
        <time>2021-10-09 11:28:51</time>
      </trkpt>
      <trkpt lat="40.62307" lon="-2.11381">
        <ele>1374</ele>
        <time>2021-10-09 11:28:52</time>
      </trkpt>
      <trkpt lat="40.62306" lon="-2.11375">
        <ele>1374</ele>
        <time>2021-10-09 11:28:53</time>
      </trkpt>
      <trkpt lat="40.62306" lon="-2.11368">
        <ele>1373.8</ele>
        <time>2021-10-09 11:28:54</time>
      </trkpt>
      <trkpt lat="40.62307" lon="-2.1136">
        <ele>1373.6</ele>
        <time>2021-10-09 11:28:55</time>
      </trkpt>
      <trkpt lat="40.62307" lon="-2.11353">
        <ele>1373.6</ele>
        <time>2021-10-09 11:28:56</time>
      </trkpt>
      <trkpt lat="40.62308" lon="-2.11345">
        <ele>1373.2</ele>
        <time>2021-10-09 11:28:57</time>
      </trkpt>
      <trkpt lat="40.6231" lon="-2.11337">
        <ele>1373.2</ele>
        <time>2021-10-09 11:28:58</time>
      </trkpt>
      <trkpt lat="40.62312" lon="-2.11329">
        <ele>1372.8</ele>
        <time>2021-10-09 11:28:59</time>
      </trkpt>
      <trkpt lat="40.62314" lon="-2.11321">
        <ele>1372.6</ele>
        <time>2021-10-09 11:29:00</time>
      </trkpt>
      <trkpt lat="40.62318" lon="-2.11312">
        <ele>1372.4</ele>
        <time>2021-10-09 11:29:01</time>
      </trkpt>
      <trkpt lat="40.62321" lon="-2.11303">
        <ele>1372</ele>
        <time>2021-10-09 11:29:02</time>
      </trkpt>
      <trkpt lat="40.62325" lon="-2.11293">
        <ele>1371.8</ele>
        <time>2021-10-09 11:29:03</time>
      </trkpt>
      <trkpt lat="40.62329" lon="-2.11283">
        <ele>1371.2</ele>
        <time>2021-10-09 11:29:04</time>
      </trkpt>
      <trkpt lat="40.62333" lon="-2.11273">
        <ele>1370.4</ele>
        <time>2021-10-09 11:29:05</time>
      </trkpt>
      <trkpt lat="40.62336" lon="-2.11263">
        <ele>1369.8</ele>
        <time>2021-10-09 11:29:06</time>
      </trkpt>
      <trkpt lat="40.62338" lon="-2.11253">
        <ele>1369</ele>
        <time>2021-10-09 11:29:07</time>
      </trkpt>
      <trkpt lat="40.62338" lon="-2.11242">
        <ele>1368.2</ele>
        <time>2021-10-09 11:29:08</time>
      </trkpt>
      <trkpt lat="40.62337" lon="-2.11231">
        <ele>1367.4</ele>
        <time>2021-10-09 11:29:09</time>
      </trkpt>
      <trkpt lat="40.62333" lon="-2.11219">
        <ele>1366.4</ele>
        <time>2021-10-09 11:29:10</time>
      </trkpt>
      <trkpt lat="40.62329" lon="-2.11207">
        <ele>1365.6</ele>
        <time>2021-10-09 11:29:11</time>
      </trkpt>
      <trkpt lat="40.62322" lon="-2.11195">
        <ele>1364.8</ele>
        <time>2021-10-09 11:29:12</time>
      </trkpt>
      <trkpt lat="40.62316" lon="-2.11183">
        <ele>1364</ele>
        <time>2021-10-09 11:29:13</time>
      </trkpt>
      <trkpt lat="40.62309" lon="-2.11171">
        <ele>1363.2</ele>
        <time>2021-10-09 11:29:14</time>
      </trkpt>
      <trkpt lat="40.62302" lon="-2.11159">
        <ele>1362.4</ele>
        <time>2021-10-09 11:29:15</time>
      </trkpt>
      <trkpt lat="40.62294" lon="-2.11146">
        <ele>1362.2</ele>
        <time>2021-10-09 11:29:16</time>
      </trkpt>
      <trkpt lat="40.62287" lon="-2.11134">
        <ele>1361</ele>
        <time>2021-10-09 11:29:17</time>
      </trkpt>
      <trkpt lat="40.6228" lon="-2.11121">
        <ele>1360.2</ele>
        <time>2021-10-09 11:29:18</time>
      </trkpt>
      <trkpt lat="40.62273" lon="-2.11108">
        <ele>1359.4</ele>
        <time>2021-10-09 11:29:19</time>
      </trkpt>
      <trkpt lat="40.62266" lon="-2.11093">
        <ele>1358.6</ele>
        <time>2021-10-09 11:29:20</time>
      </trkpt>
      <trkpt lat="40.62258" lon="-2.1108">
        <ele>1357.8</ele>
        <time>2021-10-09 11:29:21</time>
      </trkpt>
      <trkpt lat="40.62251" lon="-2.11067">
        <ele>1356.8</ele>
        <time>2021-10-09 11:29:22</time>
      </trkpt>
      <trkpt lat="40.62243" lon="-2.11055">
        <ele>1355.8</ele>
        <time>2021-10-09 11:29:23</time>
      </trkpt>
      <trkpt lat="40.62235" lon="-2.11043">
        <ele>1355</ele>
        <time>2021-10-09 11:29:24</time>
      </trkpt>
      <trkpt lat="40.62228" lon="-2.11031">
        <ele>1354</ele>
        <time>2021-10-09 11:29:25</time>
      </trkpt>
      <trkpt lat="40.62222" lon="-2.11021">
        <ele>1353</ele>
        <time>2021-10-09 11:29:26</time>
      </trkpt>
      <trkpt lat="40.62217" lon="-2.11009">
        <ele>1352</ele>
        <time>2021-10-09 11:29:27</time>
      </trkpt>
      <trkpt lat="40.62215" lon="-2.10996">
        <ele>1351.2</ele>
        <time>2021-10-09 11:29:28</time>
      </trkpt>
      <trkpt lat="40.62213" lon="-2.10983">
        <ele>1350.2</ele>
        <time>2021-10-09 11:29:29</time>
      </trkpt>
      <trkpt lat="40.62213" lon="-2.1097">
        <ele>1349.2</ele>
        <time>2021-10-09 11:29:30</time>
      </trkpt>
      <trkpt lat="40.62212" lon="-2.10955">
        <ele>1348.4</ele>
        <time>2021-10-09 11:29:31</time>
      </trkpt>
      <trkpt lat="40.62212" lon="-2.1094">
        <ele>1347.8</ele>
        <time>2021-10-09 11:29:32</time>
      </trkpt>
      <trkpt lat="40.62212" lon="-2.10926">
        <ele>1347.2</ele>
        <time>2021-10-09 11:29:33</time>
      </trkpt>
      <trkpt lat="40.62212" lon="-2.10911">
        <ele>1346.4</ele>
        <time>2021-10-09 11:29:34</time>
      </trkpt>
      <trkpt lat="40.62212" lon="-2.10895">
        <ele>1345.8</ele>
        <time>2021-10-09 11:29:35</time>
      </trkpt>
      <trkpt lat="40.62212" lon="-2.1088">
        <ele>1344.8</ele>
        <time>2021-10-09 11:29:36</time>
      </trkpt>
      <trkpt lat="40.62211" lon="-2.10866">
        <ele>1343.8</ele>
        <time>2021-10-09 11:29:37</time>
      </trkpt>
      <trkpt lat="40.62211" lon="-2.10853">
        <ele>1343</ele>
        <time>2021-10-09 11:29:38</time>
      </trkpt>
      <trkpt lat="40.62214" lon="-2.1084">
        <ele>1342</ele>
        <time>2021-10-09 11:29:39</time>
      </trkpt>
      <trkpt lat="40.62218" lon="-2.10828">
        <ele>1341.4</ele>
        <time>2021-10-09 11:29:40</time>
      </trkpt>
      <trkpt lat="40.62223" lon="-2.10816">
        <ele>1340.2</ele>
        <time>2021-10-09 11:29:41</time>
      </trkpt>
      <trkpt lat="40.62229" lon="-2.10805">
        <ele>1339.4</ele>
        <time>2021-10-09 11:29:42</time>
      </trkpt>
      <trkpt lat="40.62234" lon="-2.10793">
        <ele>1338.6</ele>
        <time>2021-10-09 11:29:43</time>
      </trkpt>
      <trkpt lat="40.6224" lon="-2.10782">
        <ele>1337.6</ele>
        <time>2021-10-09 11:29:44</time>
      </trkpt>
      <trkpt lat="40.62246" lon="-2.1077">
        <ele>1336.8</ele>
        <time>2021-10-09 11:29:45</time>
      </trkpt>
      <trkpt lat="40.62252" lon="-2.10757">
        <ele>1336.2</ele>
        <time>2021-10-09 11:29:46</time>
      </trkpt>
      <trkpt lat="40.62258" lon="-2.10745">
        <ele>1335.4</ele>
        <time>2021-10-09 11:29:47</time>
      </trkpt>
      <trkpt lat="40.62265" lon="-2.10734">
        <ele>1334.6</ele>
        <time>2021-10-09 11:29:48</time>
      </trkpt>
      <trkpt lat="40.62272" lon="-2.10722">
        <ele>1334</ele>
        <time>2021-10-09 11:29:49</time>
      </trkpt>
      <trkpt lat="40.62279" lon="-2.10712">
        <ele>1333.4</ele>
        <time>2021-10-09 11:29:50</time>
      </trkpt>
      <trkpt lat="40.62287" lon="-2.10702">
        <ele>1332.8</ele>
        <time>2021-10-09 11:29:51</time>
      </trkpt>
      <trkpt lat="40.62295" lon="-2.10693">
        <ele>1332.2</ele>
        <time>2021-10-09 11:29:52</time>
      </trkpt>
      <trkpt lat="40.62303" lon="-2.10686">
        <ele>1332.2</ele>
        <time>2021-10-09 11:29:53</time>
      </trkpt>
      <trkpt lat="40.62311" lon="-2.10679">
        <ele>1331.8</ele>
        <time>2021-10-09 11:29:54</time>
      </trkpt>
      <trkpt lat="40.62319" lon="-2.10671">
        <ele>1331.6</ele>
        <time>2021-10-09 11:29:55</time>
      </trkpt>
      <trkpt lat="40.62326" lon="-2.10664">
        <ele>1331.6</ele>
        <time>2021-10-09 11:29:56</time>
      </trkpt>
      <trkpt lat="40.62333" lon="-2.10656">
        <ele>1331.2</ele>
        <time>2021-10-09 11:29:57</time>
      </trkpt>
      <trkpt lat="40.6234" lon="-2.10647">
        <ele>1331.2</ele>
        <time>2021-10-09 11:29:58</time>
      </trkpt>
      <trkpt lat="40.62346" lon="-2.10639">
        <ele>1331.2</ele>
        <time>2021-10-09 11:29:59</time>
      </trkpt>
      <trkpt lat="40.62352" lon="-2.10631">
        <ele>1331.2</ele>
        <time>2021-10-09 11:30:00</time>
      </trkpt>
      <trkpt lat="40.62358" lon="-2.10624">
        <ele>1331.2</ele>
        <time>2021-10-09 11:30:01</time>
      </trkpt>
      <trkpt lat="40.62366" lon="-2.10619">
        <ele>1331.2</ele>
        <time>2021-10-09 11:30:02</time>
      </trkpt>
      <trkpt lat="40.62373" lon="-2.10615">
        <ele>1331.2</ele>
        <time>2021-10-09 11:30:03</time>
      </trkpt>
      <trkpt lat="40.62381" lon="-2.10612">
        <ele>1331</ele>
        <time>2021-10-09 11:30:04</time>
      </trkpt>
      <trkpt lat="40.62389" lon="-2.10609">
        <ele>1330.8</ele>
        <time>2021-10-09 11:30:05</time>
      </trkpt>
      <trkpt lat="40.62397" lon="-2.10605">
        <ele>1330.8</ele>
        <time>2021-10-09 11:30:06</time>
      </trkpt>
      <trkpt lat="40.62405" lon="-2.106">
        <ele>1330.6</ele>
        <time>2021-10-09 11:30:07</time>
      </trkpt>
      <trkpt lat="40.62413" lon="-2.10596">
        <ele>1330.4</ele>
        <time>2021-10-09 11:30:08</time>
      </trkpt>
      <trkpt lat="40.62421" lon="-2.10591">
        <ele>1330.4</ele>
        <time>2021-10-09 11:30:09</time>
      </trkpt>
      <trkpt lat="40.62428" lon="-2.10586">
        <ele>1330</ele>
        <time>2021-10-09 11:30:10</time>
      </trkpt>
      <trkpt lat="40.62435" lon="-2.10579">
        <ele>1329.6</ele>
        <time>2021-10-09 11:30:11</time>
      </trkpt>
      <trkpt lat="40.62441" lon="-2.10571">
        <ele>1329.4</ele>
        <time>2021-10-09 11:30:12</time>
      </trkpt>
      <trkpt lat="40.62446" lon="-2.10562">
        <ele>1329</ele>
        <time>2021-10-09 11:30:13</time>
      </trkpt>
      <trkpt lat="40.6245" lon="-2.10551">
        <ele>1328.6</ele>
        <time>2021-10-09 11:30:14</time>
      </trkpt>
      <trkpt lat="40.62454" lon="-2.1054">
        <ele>1328</ele>
        <time>2021-10-09 11:30:15</time>
      </trkpt>
      <trkpt lat="40.62459" lon="-2.10529">
        <ele>1327.6</ele>
        <time>2021-10-09 11:30:16</time>
      </trkpt>
      <trkpt lat="40.62464" lon="-2.10521">
        <ele>1326.6</ele>
        <time>2021-10-09 11:30:17</time>
      </trkpt>
      <trkpt lat="40.62467" lon="-2.10512">
        <ele>1325.6</ele>
        <time>2021-10-09 11:30:18</time>
      </trkpt>
      <trkpt lat="40.62469" lon="-2.10501">
        <ele>1324.6</ele>
        <time>2021-10-09 11:30:19</time>
      </trkpt>
      <trkpt lat="40.62469" lon="-2.1049">
        <ele>1324</ele>
        <time>2021-10-09 11:30:20</time>
      </trkpt>
      <trkpt lat="40.62467" lon="-2.10479">
        <ele>1323</ele>
        <time>2021-10-09 11:30:21</time>
      </trkpt>
      <trkpt lat="40.62464" lon="-2.10469">
        <ele>1321.8</ele>
        <time>2021-10-09 11:30:22</time>
      </trkpt>
      <trkpt lat="40.62458" lon="-2.10459">
        <ele>1321</ele>
        <time>2021-10-09 11:30:23</time>
      </trkpt>
      <trkpt lat="40.6245" lon="-2.10452">
        <ele>1320.4</ele>
        <time>2021-10-09 11:30:24</time>
      </trkpt>
      <trkpt lat="40.62442" lon="-2.10446">
        <ele>1319.6</ele>
        <time>2021-10-09 11:30:25</time>
      </trkpt>
      <trkpt lat="40.62433" lon="-2.10439">
        <ele>1318.8</ele>
        <time>2021-10-09 11:30:26</time>
      </trkpt>
      <trkpt lat="40.62424" lon="-2.10431">
        <ele>1318.2</ele>
        <time>2021-10-09 11:30:27</time>
      </trkpt>
      <trkpt lat="40.62414" lon="-2.10425">
        <ele>1317.6</ele>
        <time>2021-10-09 11:30:28</time>
      </trkpt>
      <trkpt lat="40.62405" lon="-2.10416">
        <ele>1316.6</ele>
        <time>2021-10-09 11:30:29</time>
      </trkpt>
      <trkpt lat="40.62396" lon="-2.10407">
        <ele>1315.8</ele>
        <time>2021-10-09 11:30:30</time>
      </trkpt>
      <trkpt lat="40.62387" lon="-2.10398">
        <ele>1315</ele>
        <time>2021-10-09 11:30:31</time>
      </trkpt>
      <trkpt lat="40.62377" lon="-2.10389">
        <ele>1314.4</ele>
        <time>2021-10-09 11:30:32</time>
      </trkpt>
      <trkpt lat="40.62377" lon="-2.10389">
        <ele>1313.6</ele>
        <time>2021-10-09 11:30:33</time>
      </trkpt>
      <trkpt lat="40.62359" lon="-2.10371">
        <ele>1313</ele>
        <time>2021-10-09 11:30:34</time>
      </trkpt>
      <trkpt lat="40.62349" lon="-2.10363">
        <ele>1312.4</ele>
        <time>2021-10-09 11:30:35</time>
      </trkpt>
      <trkpt lat="40.62339" lon="-2.10354">
        <ele>1312</ele>
        <time>2021-10-09 11:30:36</time>
      </trkpt>
      <trkpt lat="40.62329" lon="-2.10345">
        <ele>1311.4</ele>
        <time>2021-10-09 11:30:37</time>
      </trkpt>
      <trkpt lat="40.62318" lon="-2.10337">
        <ele>1310.4</ele>
        <time>2021-10-09 11:30:38</time>
      </trkpt>
      <trkpt lat="40.62308" lon="-2.10328">
        <ele>1309.4</ele>
        <time>2021-10-09 11:30:39</time>
      </trkpt>
      <trkpt lat="40.62297" lon="-2.10318">
        <ele>1308.6</ele>
        <time>2021-10-09 11:30:40</time>
      </trkpt>
      <trkpt lat="40.62288" lon="-2.10307">
        <ele>1307.8</ele>
        <time>2021-10-09 11:30:41</time>
      </trkpt>
      <trkpt lat="40.62279" lon="-2.10296">
        <ele>1307.4</ele>
        <time>2021-10-09 11:30:42</time>
      </trkpt>
      <trkpt lat="40.62271" lon="-2.10284">
        <ele>1306.6</ele>
        <time>2021-10-09 11:30:43</time>
      </trkpt>
      <trkpt lat="40.62263" lon="-2.10273">
        <ele>1306</ele>
        <time>2021-10-09 11:30:44</time>
      </trkpt>
      <trkpt lat="40.62254" lon="-2.10264">
        <ele>1305.4</ele>
        <time>2021-10-09 11:30:45</time>
      </trkpt>
      <trkpt lat="40.62245" lon="-2.10255">
        <ele>1304.8</ele>
        <time>2021-10-09 11:30:46</time>
      </trkpt>
      <trkpt lat="40.62236" lon="-2.10245">
        <ele>1304.4</ele>
        <time>2021-10-09 11:30:47</time>
      </trkpt>
      <trkpt lat="40.62227" lon="-2.10235">
        <ele>1303.8</ele>
        <time>2021-10-09 11:30:48</time>
      </trkpt>
      <trkpt lat="40.62218" lon="-2.10226">
        <ele>1303.4</ele>
        <time>2021-10-09 11:30:49</time>
      </trkpt>
      <trkpt lat="40.62209" lon="-2.10219">
        <ele>1303</ele>
        <time>2021-10-09 11:30:50</time>
      </trkpt>
      <trkpt lat="40.62199" lon="-2.10213">
        <ele>1302.4</ele>
        <time>2021-10-09 11:30:51</time>
      </trkpt>
      <trkpt lat="40.62189" lon="-2.10207">
        <ele>1302</ele>
        <time>2021-10-09 11:30:52</time>
      </trkpt>
      <trkpt lat="40.62178" lon="-2.10201">
        <ele>1301.6</ele>
        <time>2021-10-09 11:30:53</time>
      </trkpt>
      <trkpt lat="40.62168" lon="-2.10194">
        <ele>1301</ele>
        <time>2021-10-09 11:30:54</time>
      </trkpt>
      <trkpt lat="40.62158" lon="-2.10186">
        <ele>1300.6</ele>
        <time>2021-10-09 11:30:55</time>
      </trkpt>
      <trkpt lat="40.62148" lon="-2.10179">
        <ele>1299.6</ele>
        <time>2021-10-09 11:30:56</time>
      </trkpt>
      <trkpt lat="40.62137" lon="-2.10172">
        <ele>1299.2</ele>
        <time>2021-10-09 11:30:57</time>
      </trkpt>
      <trkpt lat="40.62127" lon="-2.10164">
        <ele>1298.2</ele>
        <time>2021-10-09 11:30:58</time>
      </trkpt>
      <trkpt lat="40.62117" lon="-2.10157">
        <ele>1297.4</ele>
        <time>2021-10-09 11:30:59</time>
      </trkpt>
      <trkpt lat="40.62106" lon="-2.10151">
        <ele>1297</ele>
        <time>2021-10-09 11:31:00</time>
      </trkpt>
      <trkpt lat="40.62095" lon="-2.10144">
        <ele>1296.2</ele>
        <time>2021-10-09 11:31:01</time>
      </trkpt>
      <trkpt lat="40.62086" lon="-2.10134">
        <ele>1295.6</ele>
        <time>2021-10-09 11:31:02</time>
      </trkpt>
      <trkpt lat="40.62079" lon="-2.10123">
        <ele>1295</ele>
        <time>2021-10-09 11:31:03</time>
      </trkpt>
      <trkpt lat="40.62073" lon="-2.10112">
        <ele>1294.4</ele>
        <time>2021-10-09 11:31:04</time>
      </trkpt>
      <trkpt lat="40.62067" lon="-2.101">
        <ele>1293.6</ele>
        <time>2021-10-09 11:31:05</time>
      </trkpt>
      <trkpt lat="40.6206" lon="-2.10089">
        <ele>1293</ele>
        <time>2021-10-09 11:31:06</time>
      </trkpt>
      <trkpt lat="40.62053" lon="-2.10078">
        <ele>1292.4</ele>
        <time>2021-10-09 11:31:07</time>
      </trkpt>
      <trkpt lat="40.62045" lon="-2.10069">
        <ele>1291.8</ele>
        <time>2021-10-09 11:31:08</time>
      </trkpt>
      <trkpt lat="40.62038" lon="-2.10061">
        <ele>1291.4</ele>
        <time>2021-10-09 11:31:09</time>
      </trkpt>
      <trkpt lat="40.62029" lon="-2.10052">
        <ele>1290.8</ele>
        <time>2021-10-09 11:31:10</time>
      </trkpt>
      <trkpt lat="40.62021" lon="-2.10044">
        <ele>1290.2</ele>
        <time>2021-10-09 11:31:11</time>
      </trkpt>
      <trkpt lat="40.62012" lon="-2.10036">
        <ele>1289.8</ele>
        <time>2021-10-09 11:31:12</time>
      </trkpt>
      <trkpt lat="40.62004" lon="-2.10026">
        <ele>1289.4</ele>
        <time>2021-10-09 11:31:13</time>
      </trkpt>
      <trkpt lat="40.61996" lon="-2.10018">
        <ele>1289.2</ele>
        <time>2021-10-09 11:31:14</time>
      </trkpt>
      <trkpt lat="40.61991" lon="-2.1001">
        <ele>1288.6</ele>
        <time>2021-10-09 11:31:15</time>
      </trkpt>
      <trkpt lat="40.61986" lon="-2.10001">
        <ele>1287.8</ele>
        <time>2021-10-09 11:31:16</time>
      </trkpt>
      <trkpt lat="40.61982" lon="-2.09993">
        <ele>1287.2</ele>
        <time>2021-10-09 11:31:17</time>
      </trkpt>
      <trkpt lat="40.61979" lon="-2.09985">
        <ele>1286.6</ele>
        <time>2021-10-09 11:31:18</time>
      </trkpt>
      <trkpt lat="40.61975" lon="-2.09977">
        <ele>1286.2</ele>
        <time>2021-10-09 11:31:19</time>
      </trkpt>
      <trkpt lat="40.61971" lon="-2.09969">
        <ele>1285.8</ele>
        <time>2021-10-09 11:31:20</time>
      </trkpt>
      <trkpt lat="40.61966" lon="-2.09962">
        <ele>1285.2</ele>
        <time>2021-10-09 11:31:21</time>
      </trkpt>
      <trkpt lat="40.61962" lon="-2.09956">
        <ele>1284.6</ele>
        <time>2021-10-09 11:31:22</time>
      </trkpt>
      <trkpt lat="40.61958" lon="-2.09949">
        <ele>1283.8</ele>
        <time>2021-10-09 11:31:23</time>
      </trkpt>
      <trkpt lat="40.61953" lon="-2.09943">
        <ele>1283</ele>
        <time>2021-10-09 11:31:24</time>
      </trkpt>
      <trkpt lat="40.61949" lon="-2.09937">
        <ele>1282.6</ele>
        <time>2021-10-09 11:31:25</time>
      </trkpt>
      <trkpt lat="40.61945" lon="-2.09931">
        <ele>1281.8</ele>
        <time>2021-10-09 11:31:26</time>
      </trkpt>
      <trkpt lat="40.61942" lon="-2.09925">
        <ele>1281</ele>
        <time>2021-10-09 11:31:27</time>
      </trkpt>
      <trkpt lat="40.6194" lon="-2.09921">
        <ele>1280.2</ele>
        <time>2021-10-09 11:31:28</time>
      </trkpt>
      <trkpt lat="40.61938" lon="-2.09919">
        <ele>1279.4</ele>
        <time>2021-10-09 11:31:29</time>
      </trkpt>
      <trkpt lat="40.61937" lon="-2.09918">
        <ele>1278.8</ele>
        <time>2021-10-09 11:31:30</time>
      </trkpt>
      <trkpt lat="40.61937" lon="-2.09918">
        <ele>1278</ele>
        <time>2021-10-09 11:31:31</time>
      </trkpt>
      <trkpt lat="40.61937" lon="-2.09918">
        <ele>1277.6</ele>
        <time>2021-10-09 11:31:32</time>
      </trkpt>
      <trkpt lat="40.61937" lon="-2.09918">
        <ele>1277.2</ele>
        <time>2021-10-09 11:31:33</time>
      </trkpt>
      <trkpt lat="40.61933" lon="-2.09915">
        <ele>1276.4</ele>
        <time>2021-10-09 11:31:34</time>
      </trkpt>
      <trkpt lat="40.61931" lon="-2.09912">
        <ele>1276</ele>
        <time>2021-10-09 11:31:35</time>
      </trkpt>
      <trkpt lat="40.61927" lon="-2.09909">
        <ele>1276</ele>
        <time>2021-10-09 11:31:36</time>
      </trkpt>
      <trkpt lat="40.61923" lon="-2.09905">
        <ele>1275.8</ele>
        <time>2021-10-09 11:31:37</time>
      </trkpt>
      <trkpt lat="40.61918" lon="-2.099">
        <ele>1275.4</ele>
        <time>2021-10-09 11:31:38</time>
      </trkpt>
      <trkpt lat="40.61913" lon="-2.09894">
        <ele>1275.2</ele>
        <time>2021-10-09 11:31:55</time>
      </trkpt>
      <trkpt lat="40.61907" lon="-2.09887">
        <ele>1275.2</ele>
        <time>2021-10-09 11:31:56</time>
      </trkpt>
      <trkpt lat="40.61901" lon="-2.0988">
        <ele>1275</ele>
        <time>2021-10-09 11:31:57</time>
      </trkpt>
      <trkpt lat="40.61895" lon="-2.09871">
        <ele>1274.6</ele>
        <time>2021-10-09 11:31:58</time>
      </trkpt>
      <trkpt lat="40.6189" lon="-2.09862">
        <ele>1274.2</ele>
        <time>2021-10-09 11:31:59</time>
      </trkpt>
      <trkpt lat="40.61886" lon="-2.09853">
        <ele>1273.6</ele>
        <time>2021-10-09 11:32:00</time>
      </trkpt>
      <trkpt lat="40.6188" lon="-2.09845">
        <ele>1273</ele>
        <time>2021-10-09 11:32:01</time>
      </trkpt>
      <trkpt lat="40.61872" lon="-2.09838">
        <ele>1272.4</ele>
        <time>2021-10-09 11:32:02</time>
      </trkpt>
      <trkpt lat="40.61865" lon="-2.09832">
        <ele>1271.8</ele>
        <time>2021-10-09 11:32:03</time>
      </trkpt>
      <trkpt lat="40.61858" lon="-2.09826">
        <ele>1271.2</ele>
        <time>2021-10-09 11:32:04</time>
      </trkpt>
      <trkpt lat="40.6185" lon="-2.0982">
        <ele>1270.6</ele>
        <time>2021-10-09 11:32:05</time>
      </trkpt>
      <trkpt lat="40.61844" lon="-2.09815">
        <ele>1270</ele>
        <time>2021-10-09 11:32:06</time>
      </trkpt>
      <trkpt lat="40.61838" lon="-2.09808">
        <ele>1269.6</ele>
        <time>2021-10-09 11:32:07</time>
      </trkpt>
      <trkpt lat="40.61831" lon="-2.09803">
        <ele>1269.2</ele>
        <time>2021-10-09 11:32:08</time>
      </trkpt>
      <trkpt lat="40.61825" lon="-2.09798">
        <ele>1268.8</ele>
        <time>2021-10-09 11:32:09</time>
      </trkpt>
      <trkpt lat="40.61818" lon="-2.09792">
        <ele>1268.6</ele>
        <time>2021-10-09 11:32:10</time>
      </trkpt>
      <trkpt lat="40.61811" lon="-2.09787">
        <ele>1268.6</ele>
        <time>2021-10-09 11:32:11</time>
      </trkpt>
      <trkpt lat="40.61804" lon="-2.09782">
        <ele>1268</ele>
        <time>2021-10-09 11:32:12</time>
      </trkpt>
      <trkpt lat="40.61796" lon="-2.09777">
        <ele>1267.4</ele>
        <time>2021-10-09 11:32:13</time>
      </trkpt>
      <trkpt lat="40.61788" lon="-2.09773">
        <ele>1266.6</ele>
        <time>2021-10-09 11:32:14</time>
      </trkpt>
      <trkpt lat="40.6178" lon="-2.09768">
        <ele>1265.8</ele>
        <time>2021-10-09 11:32:15</time>
      </trkpt>
      <trkpt lat="40.61772" lon="-2.09762">
        <ele>1264.8</ele>
        <time>2021-10-09 11:32:16</time>
      </trkpt>
      <trkpt lat="40.61765" lon="-2.09757">
        <ele>1263.6</ele>
        <time>2021-10-09 11:32:17</time>
      </trkpt>
      <trkpt lat="40.61758" lon="-2.09752">
        <ele>1262.4</ele>
        <time>2021-10-09 11:32:18</time>
      </trkpt>
      <trkpt lat="40.61751" lon="-2.09748">
        <ele>1261.4</ele>
        <time>2021-10-09 11:32:19</time>
      </trkpt>
      <trkpt lat="40.61745" lon="-2.09744">
        <ele>1260.4</ele>
        <time>2021-10-09 11:32:20</time>
      </trkpt>
      <trkpt lat="40.6174" lon="-2.0974">
        <ele>1259.6</ele>
        <time>2021-10-09 11:32:21</time>
      </trkpt>
      <trkpt lat="40.61735" lon="-2.09736">
        <ele>1258.6</ele>
        <time>2021-10-09 11:32:22</time>
      </trkpt>
      <trkpt lat="40.61732" lon="-2.09732">
        <ele>1257.8</ele>
        <time>2021-10-09 11:32:23</time>
      </trkpt>
      <trkpt lat="40.6173" lon="-2.09728">
        <ele>1256.8</ele>
        <time>2021-10-09 11:32:24</time>
      </trkpt>
      <trkpt lat="40.61728" lon="-2.09723">
        <ele>1255.8</ele>
        <time>2021-10-09 11:32:25</time>
      </trkpt>
      <trkpt lat="40.61729" lon="-2.0972">
        <ele>1255</ele>
        <time>2021-10-09 11:32:26</time>
      </trkpt>
      <trkpt lat="40.61729" lon="-2.09719">
        <ele>1254.4</ele>
        <time>2021-10-09 11:32:27</time>
      </trkpt>
      <trkpt lat="40.6173" lon="-2.09718">
        <ele>1254</ele>
        <time>2021-10-09 11:32:28</time>
      </trkpt>
      <trkpt lat="40.6173" lon="-2.09717">
        <ele>1253.6</ele>
        <time>2021-10-09 11:32:29</time>
      </trkpt>
      <trkpt lat="40.6173" lon="-2.09717">
        <ele>1253.4</ele>
        <time>2021-10-09 11:32:30</time>
      </trkpt>
      <trkpt lat="40.6173" lon="-2.09717">
        <ele>1253</ele>
        <time>2021-10-09 11:32:31</time>
      </trkpt>
      <trkpt lat="40.61731" lon="-2.09715">
        <ele>1252.2</ele>
        <time>2021-10-09 11:32:32</time>
      </trkpt>
      <trkpt lat="40.61733" lon="-2.09714">
        <ele>1252.2</ele>
        <time>2021-10-09 11:32:33</time>
      </trkpt>
      <trkpt lat="40.61736" lon="-2.09712">
        <ele>1252</ele>
        <time>2021-10-09 11:32:34</time>
      </trkpt>
      <trkpt lat="40.6174" lon="-2.0971">
        <ele>1252</ele>
        <time>2021-10-09 11:32:35</time>
      </trkpt>
      <trkpt lat="40.61745" lon="-2.09709">
        <ele>1252</ele>
        <time>2021-10-09 11:32:36</time>
      </trkpt>
      <trkpt lat="40.61752" lon="-2.09708">
        <ele>1252</ele>
        <time>2021-10-09 11:32:56</time>
      </trkpt>
      <trkpt lat="40.61759" lon="-2.09707">
        <ele>1251.4</ele>
        <time>2021-10-09 11:32:57</time>
      </trkpt>
      <trkpt lat="40.61768" lon="-2.09706">
        <ele>1251</ele>
        <time>2021-10-09 11:32:58</time>
      </trkpt>
      <trkpt lat="40.61777" lon="-2.09704">
        <ele>1250.4</ele>
        <time>2021-10-09 11:32:59</time>
      </trkpt>
      <trkpt lat="40.61786" lon="-2.09703">
        <ele>1249.6</ele>
        <time>2021-10-09 11:33:00</time>
      </trkpt>
      <trkpt lat="40.61795" lon="-2.09701">
        <ele>1248.6</ele>
        <time>2021-10-09 11:33:01</time>
      </trkpt>
      <trkpt lat="40.61802" lon="-2.097">
        <ele>1247.8</ele>
        <time>2021-10-09 11:33:02</time>
      </trkpt>
      <trkpt lat="40.61807" lon="-2.09697">
        <ele>1246.4</ele>
        <time>2021-10-09 11:33:03</time>
      </trkpt>
      <trkpt lat="40.61811" lon="-2.09693">
        <ele>1245.6</ele>
        <time>2021-10-09 11:33:04</time>
      </trkpt>
      <trkpt lat="40.61813" lon="-2.09688">
        <ele>1244.6</ele>
        <time>2021-10-09 11:33:05</time>
      </trkpt>
      <trkpt lat="40.61813" lon="-2.09683">
        <ele>1243.4</ele>
        <time>2021-10-09 11:33:06</time>
      </trkpt>
      <trkpt lat="40.61811" lon="-2.09677">
        <ele>1242.4</ele>
        <time>2021-10-09 11:33:07</time>
      </trkpt>
      <trkpt lat="40.61808" lon="-2.09672">
        <ele>1241.2</ele>
        <time>2021-10-09 11:33:08</time>
      </trkpt>
      <trkpt lat="40.61805" lon="-2.09667">
        <ele>1240.4</ele>
        <time>2021-10-09 11:33:09</time>
      </trkpt>
      <trkpt lat="40.61802" lon="-2.09662">
        <ele>1239.6</ele>
        <time>2021-10-09 11:33:10</time>
      </trkpt>
      <trkpt lat="40.61802" lon="-2.09656">
        <ele>1239.2</ele>
        <time>2021-10-09 11:33:11</time>
      </trkpt>
      <trkpt lat="40.61804" lon="-2.0965">
        <ele>1238.2</ele>
        <time>2021-10-09 11:33:12</time>
      </trkpt>
      <trkpt lat="40.61806" lon="-2.09645">
        <ele>1237.6</ele>
        <time>2021-10-09 11:33:13</time>
      </trkpt>
      <trkpt lat="40.6181" lon="-2.09642">
        <ele>1237</ele>
        <time>2021-10-09 11:33:14</time>
      </trkpt>
      <trkpt lat="40.61816" lon="-2.0964">
        <ele>1236.4</ele>
        <time>2021-10-09 11:33:15</time>
      </trkpt>
      <trkpt lat="40.61822" lon="-2.09639">
        <ele>1236</ele>
        <time>2021-10-09 11:33:16</time>
      </trkpt>
      <trkpt lat="40.6183" lon="-2.09639">
        <ele>1235.6</ele>
        <time>2021-10-09 11:33:17</time>
      </trkpt>
      <trkpt lat="40.61839" lon="-2.09638">
        <ele>1234.8</ele>
        <time>2021-10-09 11:33:18</time>
      </trkpt>
      <trkpt lat="40.61848" lon="-2.09635">
        <ele>1234.4</ele>
        <time>2021-10-09 11:33:19</time>
      </trkpt>
      <trkpt lat="40.61857" lon="-2.09632">
        <ele>1234</ele>
        <time>2021-10-09 11:33:20</time>
      </trkpt>
      <trkpt lat="40.61867" lon="-2.09629">
        <ele>1233.2</ele>
        <time>2021-10-09 11:33:21</time>
      </trkpt>
      <trkpt lat="40.61877" lon="-2.09627">
        <ele>1232.2</ele>
        <time>2021-10-09 11:33:22</time>
      </trkpt>
      <trkpt lat="40.61884" lon="-2.09624">
        <ele>1230.8</ele>
        <time>2021-10-09 11:33:23</time>
      </trkpt>
      <trkpt lat="40.6189" lon="-2.0962">
        <ele>1229.6</ele>
        <time>2021-10-09 11:33:24</time>
      </trkpt>
      <trkpt lat="40.61895" lon="-2.09615">
        <ele>1228</ele>
        <time>2021-10-09 11:33:25</time>
      </trkpt>
      <trkpt lat="40.61898" lon="-2.09607">
        <ele>1227</ele>
        <time>2021-10-09 11:33:26</time>
      </trkpt>
      <trkpt lat="40.61901" lon="-2.09599">
        <ele>1226</ele>
        <time>2021-10-09 11:33:27</time>
      </trkpt>
      <trkpt lat="40.61904" lon="-2.09589">
        <ele>1225.2</ele>
        <time>2021-10-09 11:33:28</time>
      </trkpt>
      <trkpt lat="40.61906" lon="-2.09579">
        <ele>1224.6</ele>
        <time>2021-10-09 11:33:29</time>
      </trkpt>
      <trkpt lat="40.61907" lon="-2.0957">
        <ele>1224</ele>
        <time>2021-10-09 11:33:30</time>
      </trkpt>
      <trkpt lat="40.61908" lon="-2.09563">
        <ele>1223.4</ele>
        <time>2021-10-09 11:33:31</time>
      </trkpt>
      <trkpt lat="40.61907" lon="-2.09555">
        <ele>1223</ele>
        <time>2021-10-09 11:33:32</time>
      </trkpt>
      <trkpt lat="40.61905" lon="-2.09549">
        <ele>1222.6</ele>
        <time>2021-10-09 11:33:33</time>
      </trkpt>
      <trkpt lat="40.61903" lon="-2.09544">
        <ele>1222.4</ele>
        <time>2021-10-09 11:33:34</time>
      </trkpt>
      <trkpt lat="40.61901" lon="-2.0954">
        <ele>1222.4</ele>
        <time>2021-10-09 11:33:35</time>
      </trkpt>
      <trkpt lat="40.61899" lon="-2.09536">
        <ele>1222.4</ele>
        <time>2021-10-09 11:33:36</time>
      </trkpt>
      <trkpt lat="40.61898" lon="-2.09532">
        <ele>1222.4</ele>
        <time>2021-10-09 11:33:37</time>
      </trkpt>
      <trkpt lat="40.61897" lon="-2.09529">
        <ele>1222.4</ele>
        <time>2021-10-09 11:33:38</time>
      </trkpt>
      <trkpt lat="40.61896" lon="-2.09525">
        <ele>1222.4</ele>
        <time>2021-10-09 11:33:39</time>
      </trkpt>
      <trkpt lat="40.61895" lon="-2.09522">
        <ele>1222.4</ele>
        <time>2021-10-09 11:33:40</time>
      </trkpt>
      <trkpt lat="40.61894" lon="-2.09519">
        <ele>1222.8</ele>
        <time>2021-10-09 11:33:41</time>
      </trkpt>
      <trkpt lat="40.61893" lon="-2.09516">
        <ele>1223</ele>
        <time>2021-10-09 11:33:42</time>
      </trkpt>
      <trkpt lat="40.61891" lon="-2.09513">
        <ele>1223</ele>
        <time>2021-10-09 11:33:43</time>
      </trkpt>
      <trkpt lat="40.6189" lon="-2.09511">
        <ele>1223.4</ele>
        <time>2021-10-09 11:33:44</time>
      </trkpt>
      <trkpt lat="40.61889" lon="-2.09508">
        <ele>1223.8</ele>
        <time>2021-10-09 11:33:45</time>
      </trkpt>
      <trkpt lat="40.61888" lon="-2.09504">
        <ele>1224</ele>
        <time>2021-10-09 11:33:46</time>
      </trkpt>
      <trkpt lat="40.61887" lon="-2.09501">
        <ele>1224.2</ele>
        <time>2021-10-09 11:33:47</time>
      </trkpt>
      <trkpt lat="40.61887" lon="-2.09498">
        <ele>1224.4</ele>
        <time>2021-10-09 11:33:48</time>
      </trkpt>
      <trkpt lat="40.61886" lon="-2.09495">
        <ele>1224.8</ele>
        <time>2021-10-09 11:33:49</time>
      </trkpt>
      <trkpt lat="40.61885" lon="-2.09493">
        <ele>1225</ele>
        <time>2021-10-09 11:33:50</time>
      </trkpt>
      <trkpt lat="40.61884" lon="-2.0949">
        <ele>1225.4</ele>
        <time>2021-10-09 11:33:51</time>
      </trkpt>
      <trkpt lat="40.61883" lon="-2.09486">
        <ele>1225.6</ele>
        <time>2021-10-09 11:33:52</time>
      </trkpt>
      <trkpt lat="40.61882" lon="-2.09483">
        <ele>1226</ele>
        <time>2021-10-09 11:33:53</time>
      </trkpt>
      <trkpt lat="40.61881" lon="-2.0948">
        <ele>1226.2</ele>
        <time>2021-10-09 11:33:54</time>
      </trkpt>
      <trkpt lat="40.61879" lon="-2.09478">
        <ele>1226.6</ele>
        <time>2021-10-09 11:33:55</time>
      </trkpt>
      <trkpt lat="40.61878" lon="-2.09475">
        <ele>1226.8</ele>
        <time>2021-10-09 11:33:56</time>
      </trkpt>
      <trkpt lat="40.61877" lon="-2.09472">
        <ele>1227.2</ele>
        <time>2021-10-09 11:33:57</time>
      </trkpt>
      <trkpt lat="40.61876" lon="-2.09469">
        <ele>1227.4</ele>
        <time>2021-10-09 11:33:58</time>
      </trkpt>
      <trkpt lat="40.61876" lon="-2.09466">
        <ele>1227.8</ele>
        <time>2021-10-09 11:33:59</time>
      </trkpt>
      <trkpt lat="40.61874" lon="-2.09463">
        <ele>1228.2</ele>
        <time>2021-10-09 11:34:00</time>
      </trkpt>
      <trkpt lat="40.61872" lon="-2.09461">
        <ele>1228.6</ele>
        <time>2021-10-09 11:34:01</time>
      </trkpt>
      <trkpt lat="40.6187" lon="-2.0946">
        <ele>1229</ele>
        <time>2021-10-09 11:34:02</time>
      </trkpt>
      <trkpt lat="40.61868" lon="-2.09458">
        <ele>1229.2</ele>
        <time>2021-10-09 11:34:03</time>
      </trkpt>
      <trkpt lat="40.61866" lon="-2.09456">
        <ele>1229.6</ele>
        <time>2021-10-09 11:34:04</time>
      </trkpt>
      <trkpt lat="40.61864" lon="-2.09454">
        <ele>1229.8</ele>
        <time>2021-10-09 11:34:05</time>
      </trkpt>
      <trkpt lat="40.61861" lon="-2.09452">
        <ele>1230.2</ele>
        <time>2021-10-09 11:34:06</time>
      </trkpt>
      <trkpt lat="40.61859" lon="-2.0945">
        <ele>1230.4</ele>
        <time>2021-10-09 11:34:07</time>
      </trkpt>
      <trkpt lat="40.61856" lon="-2.09449">
        <ele>1230.8</ele>
        <time>2021-10-09 11:34:08</time>
      </trkpt>
      <trkpt lat="40.61853" lon="-2.09448">
        <ele>1231</ele>
        <time>2021-10-09 11:34:09</time>
      </trkpt>
      <trkpt lat="40.6185" lon="-2.09446">
        <ele>1231.2</ele>
        <time>2021-10-09 11:34:10</time>
      </trkpt>
      <trkpt lat="40.61847" lon="-2.09445">
        <ele>1231.2</ele>
        <time>2021-10-09 11:34:11</time>
      </trkpt>
      <trkpt lat="40.61844" lon="-2.09445">
        <ele>1231.6</ele>
        <time>2021-10-09 11:34:12</time>
      </trkpt>
      <trkpt lat="40.61841" lon="-2.09445">
        <ele>1231.8</ele>
        <time>2021-10-09 11:34:13</time>
      </trkpt>
      <trkpt lat="40.61838" lon="-2.09444">
        <ele>1232.2</ele>
        <time>2021-10-09 11:34:14</time>
      </trkpt>
      <trkpt lat="40.61835" lon="-2.09443">
        <ele>1232.2</ele>
        <time>2021-10-09 11:34:15</time>
      </trkpt>
      <trkpt lat="40.61832" lon="-2.09442">
        <ele>1232.6</ele>
        <time>2021-10-09 11:34:16</time>
      </trkpt>
      <trkpt lat="40.61829" lon="-2.0944">
        <ele>1232.6</ele>
        <time>2021-10-09 11:34:17</time>
      </trkpt>
      <trkpt lat="40.61827" lon="-2.09438">
        <ele>1233</ele>
        <time>2021-10-09 11:34:18</time>
      </trkpt>
      <trkpt lat="40.61824" lon="-2.09437">
        <ele>1233.4</ele>
        <time>2021-10-09 11:34:19</time>
      </trkpt>
      <trkpt lat="40.61822" lon="-2.09435">
        <ele>1233.6</ele>
        <time>2021-10-09 11:34:20</time>
      </trkpt>
      <trkpt lat="40.61819" lon="-2.09434">
        <ele>1233.8</ele>
        <time>2021-10-09 11:34:21</time>
      </trkpt>
      <trkpt lat="40.61817" lon="-2.09432">
        <ele>1233.8</ele>
        <time>2021-10-09 11:34:22</time>
      </trkpt>
      <trkpt lat="40.61816" lon="-2.09429">
        <ele>1234.2</ele>
        <time>2021-10-09 11:34:23</time>
      </trkpt>
      <trkpt lat="40.61814" lon="-2.09426">
        <ele>1234.6</ele>
        <time>2021-10-09 11:34:24</time>
      </trkpt>
      <trkpt lat="40.61813" lon="-2.09424">
        <ele>1234.6</ele>
        <time>2021-10-09 11:34:25</time>
      </trkpt>
      <trkpt lat="40.61812" lon="-2.09421">
        <ele>1235</ele>
        <time>2021-10-09 11:34:26</time>
      </trkpt>
      <trkpt lat="40.61811" lon="-2.09418">
        <ele>1235.2</ele>
        <time>2021-10-09 11:34:27</time>
      </trkpt>
      <trkpt lat="40.61809" lon="-2.09416">
        <ele>1235.4</ele>
        <time>2021-10-09 11:34:28</time>
      </trkpt>
      <trkpt lat="40.61807" lon="-2.09413">
        <ele>1235.6</ele>
        <time>2021-10-09 11:34:29</time>
      </trkpt>
      <trkpt lat="40.61806" lon="-2.09411">
        <ele>1235.6</ele>
        <time>2021-10-09 11:34:30</time>
      </trkpt>
      <trkpt lat="40.61805" lon="-2.09409">
        <ele>1236</ele>
        <time>2021-10-09 11:34:31</time>
      </trkpt>
      <trkpt lat="40.61803" lon="-2.09406">
        <ele>1236</ele>
        <time>2021-10-09 11:34:32</time>
      </trkpt>
      <trkpt lat="40.61802" lon="-2.09404">
        <ele>1236.4</ele>
        <time>2021-10-09 11:34:33</time>
      </trkpt>
      <trkpt lat="40.618" lon="-2.09402">
        <ele>1236.4</ele>
        <time>2021-10-09 11:34:34</time>
      </trkpt>
      <trkpt lat="40.61799" lon="-2.09399">
        <ele>1236.6</ele>
        <time>2021-10-09 11:34:35</time>
      </trkpt>
      <trkpt lat="40.61798" lon="-2.09397">
        <ele>1236.6</ele>
        <time>2021-10-09 11:34:36</time>
      </trkpt>
      <trkpt lat="40.61797" lon="-2.09394">
        <ele>1237</ele>
        <time>2021-10-09 11:34:37</time>
      </trkpt>
      <trkpt lat="40.61797" lon="-2.09392">
        <ele>1237</ele>
        <time>2021-10-09 11:34:38</time>
      </trkpt>
      <trkpt lat="40.61795" lon="-2.0939">
        <ele>1237.2</ele>
        <time>2021-10-09 11:34:39</time>
      </trkpt>
      <trkpt lat="40.61794" lon="-2.09388">
        <ele>1237.2</ele>
        <time>2021-10-09 11:34:40</time>
      </trkpt>
      <trkpt lat="40.61792" lon="-2.09386">
        <ele>1237.4</ele>
        <time>2021-10-09 11:34:41</time>
      </trkpt>
      <trkpt lat="40.6179" lon="-2.09385">
        <ele>1237.4</ele>
        <time>2021-10-09 11:34:42</time>
      </trkpt>
      <trkpt lat="40.61789" lon="-2.09383">
        <ele>1237.8</ele>
        <time>2021-10-09 11:34:43</time>
      </trkpt>
      <trkpt lat="40.61787" lon="-2.09381">
        <ele>1237.8</ele>
        <time>2021-10-09 11:34:44</time>
      </trkpt>
      <trkpt lat="40.61786" lon="-2.09379">
        <ele>1237.8</ele>
        <time>2021-10-09 11:34:45</time>
      </trkpt>
      <trkpt lat="40.61785" lon="-2.09377">
        <ele>1238</ele>
        <time>2021-10-09 11:34:46</time>
      </trkpt>
      <trkpt lat="40.61785" lon="-2.09375">
        <ele>1238</ele>
        <time>2021-10-09 11:34:47</time>
      </trkpt>
      <trkpt lat="40.61785" lon="-2.09374">
        <ele>1238</ele>
        <time>2021-10-09 11:34:48</time>
      </trkpt>
      <trkpt lat="40.61786" lon="-2.09374">
        <ele>1238.2</ele>
        <time>2021-10-09 11:34:49</time>
      </trkpt>
      <trkpt lat="40.61786" lon="-2.09374">
        <ele>1238.2</ele>
        <time>2021-10-09 11:34:50</time>
      </trkpt>
      <trkpt lat="40.61786" lon="-2.09374">
        <ele>1238.2</ele>
        <time>2021-10-09 11:34:51</time>
      </trkpt>
      <trkpt lat="40.61786" lon="-2.09374">
        <ele>1238.2</ele>
        <time>2021-10-09 11:34:52</time>
      </trkpt>
      <trkpt lat="40.61785" lon="-2.09373">
        <ele>1238.2</ele>
        <time>2021-10-09 11:34:53</time>
      </trkpt>
      <trkpt lat="40.61785" lon="-2.09372">
        <ele>1238.2</ele>
        <time>2021-10-09 11:34:54</time>
      </trkpt>
      <trkpt lat="40.61785" lon="-2.0937">
        <ele>1238.2</ele>
        <time>2021-10-09 11:34:55</time>
      </trkpt>
      <trkpt lat="40.61785" lon="-2.09369">
        <ele>1238.4</ele>
        <time>2021-10-09 11:34:56</time>
      </trkpt>
      <trkpt lat="40.61785" lon="-2.09369">
        <ele>1238.4</ele>
        <time>2021-10-09 11:34:57</time>
      </trkpt>
      <trkpt lat="40.61785" lon="-2.0937">
        <ele>1238.4</ele>
        <time>2021-10-09 11:34:58</time>
      </trkpt>
      <trkpt lat="40.61785" lon="-2.0937">
        <ele>1238.4</ele>
        <time>2021-10-09 11:34:59</time>
      </trkpt>
      <trkpt lat="40.61783" lon="-2.09372">
        <ele>1238.4</ele>
        <time>2021-10-09 11:35:00</time>
      </trkpt>
      <trkpt lat="40.61783" lon="-2.09372">
        <ele>1238.4</ele>
        <time>2021-10-09 11:35:01</time>
      </trkpt>
      <trkpt lat="40.61783" lon="-2.09375">
        <ele>1238.4</ele>
        <time>2021-10-09 11:35:02</time>
      </trkpt>
      <trkpt lat="40.61783" lon="-2.09375">
        <ele>1238.2</ele>
        <time>2021-10-09 11:35:03</time>
      </trkpt>
      <trkpt lat="40.61783" lon="-2.09376">
        <ele>1238.2</ele>
        <time>2021-10-09 11:35:04</time>
      </trkpt>
      <trkpt lat="40.61784" lon="-2.09375">
        <ele>1238.4</ele>
        <time>2021-10-09 11:40:31</time>
      </trkpt>
      <trkpt lat="40.61783" lon="-2.09376">
        <ele>1238.2</ele>
        <time>2021-10-09 11:40:32</time>
      </trkpt>
      <trkpt lat="40.61781" lon="-2.09377">
        <ele>1238.2</ele>
        <time>2021-10-09 11:40:33</time>
      </trkpt>
      <trkpt lat="40.6178" lon="-2.09377">
        <ele>1238.2</ele>
        <time>2021-10-09 11:40:34</time>
      </trkpt>
      <trkpt lat="40.61779" lon="-2.09376">
        <ele>1239.2</ele>
        <time>2021-10-09 11:40:35</time>
      </trkpt>
      <trkpt lat="40.61778" lon="-2.09374">
        <ele>1238.8</ele>
        <time>2021-10-09 11:40:36</time>
      </trkpt>
      <trkpt lat="40.61777" lon="-2.09372">
        <ele>1238.4</ele>
        <time>2021-10-09 11:40:37</time>
      </trkpt>
      <trkpt lat="40.61776" lon="-2.09369">
        <ele>1238.4</ele>
        <time>2021-10-09 11:41:04</time>
      </trkpt>
      <trkpt lat="40.61774" lon="-2.09367">
        <ele>1238.4</ele>
        <time>2021-10-09 11:41:05</time>
      </trkpt>
      <trkpt lat="40.61772" lon="-2.09365">
        <ele>1238.4</ele>
        <time>2021-10-09 11:41:06</time>
      </trkpt>
      <trkpt lat="40.6177" lon="-2.09362">
        <ele>1238.4</ele>
        <time>2021-10-09 11:41:07</time>
      </trkpt>
      <trkpt lat="40.61768" lon="-2.09361">
        <ele>1238.4</ele>
        <time>2021-10-09 11:41:08</time>
      </trkpt>
      <trkpt lat="40.61766" lon="-2.09359">
        <ele>1238.4</ele>
        <time>2021-10-09 11:41:09</time>
      </trkpt>
      <trkpt lat="40.61763" lon="-2.09358">
        <ele>1238.8</ele>
        <time>2021-10-09 11:41:10</time>
      </trkpt>
      <trkpt lat="40.61761" lon="-2.09356">
        <ele>1238.8</ele>
        <time>2021-10-09 11:41:11</time>
      </trkpt>
      <trkpt lat="40.61759" lon="-2.09354">
        <ele>1238.8</ele>
        <time>2021-10-09 11:41:12</time>
      </trkpt>
      <trkpt lat="40.61758" lon="-2.09351">
        <ele>1239.2</ele>
        <time>2021-10-09 11:41:13</time>
      </trkpt>
      <trkpt lat="40.61757" lon="-2.09349">
        <ele>1239.2</ele>
        <time>2021-10-09 11:41:14</time>
      </trkpt>
      <trkpt lat="40.61755" lon="-2.09347">
        <ele>1239.4</ele>
        <time>2021-10-09 11:41:15</time>
      </trkpt>
      <trkpt lat="40.61754" lon="-2.09345">
        <ele>1239.8</ele>
        <time>2021-10-09 11:41:16</time>
      </trkpt>
      <trkpt lat="40.61753" lon="-2.09342">
        <ele>1239.8</ele>
        <time>2021-10-09 11:41:17</time>
      </trkpt>
      <trkpt lat="40.61751" lon="-2.09339">
        <ele>1239.8</ele>
        <time>2021-10-09 11:41:18</time>
      </trkpt>
      <trkpt lat="40.61748" lon="-2.09337">
        <ele>1239.8</ele>
        <time>2021-10-09 11:41:19</time>
      </trkpt>
      <trkpt lat="40.61746" lon="-2.09334">
        <ele>1239.8</ele>
        <time>2021-10-09 11:41:20</time>
      </trkpt>
      <trkpt lat="40.61744" lon="-2.09332">
        <ele>1239.8</ele>
        <time>2021-10-09 11:41:21</time>
      </trkpt>
      <trkpt lat="40.61742" lon="-2.0933">
        <ele>1239.8</ele>
        <time>2021-10-09 11:41:22</time>
      </trkpt>
      <trkpt lat="40.61739" lon="-2.09327">
        <ele>1239.6</ele>
        <time>2021-10-09 11:41:23</time>
      </trkpt>
      <trkpt lat="40.61738" lon="-2.09325">
        <ele>1239.6</ele>
        <time>2021-10-09 11:41:24</time>
      </trkpt>
      <trkpt lat="40.61738" lon="-2.09323">
        <ele>1239.6</ele>
        <time>2021-10-09 11:41:25</time>
      </trkpt>
      <trkpt lat="40.61737" lon="-2.09322">
        <ele>1239.8</ele>
        <time>2021-10-09 11:41:26</time>
      </trkpt>
      <trkpt lat="40.61736" lon="-2.09321">
        <ele>1239.2</ele>
        <time>2021-10-09 11:41:27</time>
      </trkpt>
      <trkpt lat="40.61735" lon="-2.0932">
        <ele>1239.4</ele>
        <time>2021-10-09 11:41:28</time>
      </trkpt>
      <trkpt lat="40.61734" lon="-2.09318">
        <ele>1239.8</ele>
        <time>2021-10-09 11:41:29</time>
      </trkpt>
      <trkpt lat="40.61732" lon="-2.09316">
        <ele>1240</ele>
        <time>2021-10-09 11:41:30</time>
      </trkpt>
      <trkpt lat="40.61731" lon="-2.09315">
        <ele>1240.4</ele>
        <time>2021-10-09 11:41:31</time>
      </trkpt>
      <trkpt lat="40.61729" lon="-2.09314">
        <ele>1240.6</ele>
        <time>2021-10-09 11:41:32</time>
      </trkpt>
      <trkpt lat="40.61727" lon="-2.09312">
        <ele>1240.6</ele>
        <time>2021-10-09 11:41:33</time>
      </trkpt>
      <trkpt lat="40.61725" lon="-2.09311">
        <ele>1241</ele>
        <time>2021-10-09 11:41:34</time>
      </trkpt>
      <trkpt lat="40.61723" lon="-2.0931">
        <ele>1241</ele>
        <time>2021-10-09 11:41:35</time>
      </trkpt>
      <trkpt lat="40.61722" lon="-2.09309">
        <ele>1241.2</ele>
        <time>2021-10-09 11:41:36</time>
      </trkpt>
      <trkpt lat="40.6172" lon="-2.09308">
        <ele>1241.2</ele>
        <time>2021-10-09 11:41:37</time>
      </trkpt>
      <trkpt lat="40.61718" lon="-2.09307">
        <ele>1241.6</ele>
        <time>2021-10-09 11:41:38</time>
      </trkpt>
      <trkpt lat="40.61717" lon="-2.09306">
        <ele>1241.6</ele>
        <time>2021-10-09 11:41:39</time>
      </trkpt>
      <trkpt lat="40.61715" lon="-2.09304">
        <ele>1242</ele>
        <time>2021-10-09 11:41:40</time>
      </trkpt>
      <trkpt lat="40.61713" lon="-2.09303">
        <ele>1242.2</ele>
        <time>2021-10-09 11:41:41</time>
      </trkpt>
      <trkpt lat="40.61711" lon="-2.09301">
        <ele>1242.6</ele>
        <time>2021-10-09 11:41:42</time>
      </trkpt>
      <trkpt lat="40.6171" lon="-2.093">
        <ele>1242.8</ele>
        <time>2021-10-09 11:41:43</time>
      </trkpt>
      <trkpt lat="40.61708" lon="-2.09299">
        <ele>1243</ele>
        <time>2021-10-09 11:41:44</time>
      </trkpt>
      <trkpt lat="40.61706" lon="-2.09297">
        <ele>1243</ele>
        <time>2021-10-09 11:41:45</time>
      </trkpt>
      <trkpt lat="40.61704" lon="-2.09296">
        <ele>1243.4</ele>
        <time>2021-10-09 11:41:46</time>
      </trkpt>
      <trkpt lat="40.61702" lon="-2.09296">
        <ele>1243.4</ele>
        <time>2021-10-09 11:41:47</time>
      </trkpt>
      <trkpt lat="40.617" lon="-2.09295">
        <ele>1243.4</ele>
        <time>2021-10-09 11:41:48</time>
      </trkpt>
      <trkpt lat="40.61697" lon="-2.09295">
        <ele>1243.8</ele>
        <time>2021-10-09 11:41:49</time>
      </trkpt>
      <trkpt lat="40.61694" lon="-2.09295">
        <ele>1243.8</ele>
        <time>2021-10-09 11:41:50</time>
      </trkpt>
      <trkpt lat="40.61691" lon="-2.09295">
        <ele>1243.6</ele>
        <time>2021-10-09 11:41:51</time>
      </trkpt>
      <trkpt lat="40.61689" lon="-2.09295">
        <ele>1243.6</ele>
        <time>2021-10-09 11:41:52</time>
      </trkpt>
      <trkpt lat="40.61686" lon="-2.09295">
        <ele>1243.2</ele>
        <time>2021-10-09 11:41:53</time>
      </trkpt>
      <trkpt lat="40.61682" lon="-2.09295">
        <ele>1243</ele>
        <time>2021-10-09 11:41:54</time>
      </trkpt>
      <trkpt lat="40.61679" lon="-2.09295">
        <ele>1243</ele>
        <time>2021-10-09 11:41:55</time>
      </trkpt>
      <trkpt lat="40.61674" lon="-2.09294">
        <ele>1242.8</ele>
        <time>2021-10-09 11:41:56</time>
      </trkpt>
      <trkpt lat="40.6167" lon="-2.09293">
        <ele>1242.6</ele>
        <time>2021-10-09 11:41:57</time>
      </trkpt>
      <trkpt lat="40.61665" lon="-2.0929">
        <ele>1242.2</ele>
        <time>2021-10-09 11:41:58</time>
      </trkpt>
      <trkpt lat="40.61661" lon="-2.09288">
        <ele>1242</ele>
        <time>2021-10-09 11:41:59</time>
      </trkpt>
      <trkpt lat="40.61656" lon="-2.09288">
        <ele>1242</ele>
        <time>2021-10-09 11:42:00</time>
      </trkpt>
      <trkpt lat="40.61652" lon="-2.0929">
        <ele>1241.4</ele>
        <time>2021-10-09 11:42:01</time>
      </trkpt>
      <trkpt lat="40.61649" lon="-2.0929">
        <ele>1241</ele>
        <time>2021-10-09 11:42:02</time>
      </trkpt>
      <trkpt lat="40.61645" lon="-2.0929">
        <ele>1240.4</ele>
        <time>2021-10-09 11:42:03</time>
      </trkpt>
      <trkpt lat="40.61642" lon="-2.09288">
        <ele>1240</ele>
        <time>2021-10-09 11:42:04</time>
      </trkpt>
      <trkpt lat="40.61639" lon="-2.09287">
        <ele>1239.4</ele>
        <time>2021-10-09 11:42:05</time>
      </trkpt>
      <trkpt lat="40.61636" lon="-2.09285">
        <ele>1239</ele>
        <time>2021-10-09 11:42:06</time>
      </trkpt>
      <trkpt lat="40.61633" lon="-2.09283">
        <ele>1238.8</ele>
        <time>2021-10-09 11:42:07</time>
      </trkpt>
      <trkpt lat="40.61629" lon="-2.09282">
        <ele>1238.8</ele>
        <time>2021-10-09 11:42:08</time>
      </trkpt>
      <trkpt lat="40.61626" lon="-2.0928">
        <ele>1238.4</ele>
        <time>2021-10-09 11:42:09</time>
      </trkpt>
      <trkpt lat="40.61623" lon="-2.09277">
        <ele>1238.4</ele>
        <time>2021-10-09 11:42:10</time>
      </trkpt>
      <trkpt lat="40.61619" lon="-2.09274">
        <ele>1238.4</ele>
        <time>2021-10-09 11:42:11</time>
      </trkpt>
      <trkpt lat="40.61616" lon="-2.0927">
        <ele>1238.4</ele>
        <time>2021-10-09 11:42:12</time>
      </trkpt>
      <trkpt lat="40.61613" lon="-2.09266">
        <ele>1238.4</ele>
        <time>2021-10-09 11:42:13</time>
      </trkpt>
      <trkpt lat="40.61609" lon="-2.09263">
        <ele>1238.4</ele>
        <time>2021-10-09 11:42:14</time>
      </trkpt>
      <trkpt lat="40.61606" lon="-2.09259">
        <ele>1238.4</ele>
        <time>2021-10-09 11:42:15</time>
      </trkpt>
      <trkpt lat="40.61602" lon="-2.09255">
        <ele>1238.2</ele>
        <time>2021-10-09 11:42:16</time>
      </trkpt>
      <trkpt lat="40.61598" lon="-2.09251">
        <ele>1238.2</ele>
        <time>2021-10-09 11:42:17</time>
      </trkpt>
      <trkpt lat="40.61593" lon="-2.09247">
        <ele>1238.2</ele>
        <time>2021-10-09 11:42:18</time>
      </trkpt>
      <trkpt lat="40.61589" lon="-2.09243">
        <ele>1238.2</ele>
        <time>2021-10-09 11:42:19</time>
      </trkpt>
      <trkpt lat="40.61583" lon="-2.0924">
        <ele>1238.2</ele>
        <time>2021-10-09 11:42:20</time>
      </trkpt>
      <trkpt lat="40.61579" lon="-2.09237">
        <ele>1238.2</ele>
        <time>2021-10-09 11:42:21</time>
      </trkpt>
      <trkpt lat="40.61574" lon="-2.09233">
        <ele>1237.8</ele>
        <time>2021-10-09 11:42:22</time>
      </trkpt>
      <trkpt lat="40.61568" lon="-2.09229">
        <ele>1237.6</ele>
        <time>2021-10-09 11:42:23</time>
      </trkpt>
      <trkpt lat="40.61562" lon="-2.09225">
        <ele>1237.6</ele>
        <time>2021-10-09 11:42:24</time>
      </trkpt>
      <trkpt lat="40.61557" lon="-2.09221">
        <ele>1237</ele>
        <time>2021-10-09 11:42:25</time>
      </trkpt>
      <trkpt lat="40.6155" lon="-2.09217">
        <ele>1236.8</ele>
        <time>2021-10-09 11:42:26</time>
      </trkpt>
      <trkpt lat="40.61544" lon="-2.09213">
        <ele>1236</ele>
        <time>2021-10-09 11:42:27</time>
      </trkpt>
      <trkpt lat="40.61537" lon="-2.0921">
        <ele>1236.4</ele>
        <time>2021-10-09 11:42:28</time>
      </trkpt>
      <trkpt lat="40.6153" lon="-2.09207">
        <ele>1236.8</ele>
        <time>2021-10-09 11:42:29</time>
      </trkpt>
      <trkpt lat="40.61523" lon="-2.09205">
        <ele>1236.8</ele>
        <time>2021-10-09 11:42:30</time>
      </trkpt>
      <trkpt lat="40.61516" lon="-2.09202">
        <ele>1235.8</ele>
        <time>2021-10-09 11:42:31</time>
      </trkpt>
      <trkpt lat="40.61508" lon="-2.09199">
        <ele>1236</ele>
        <time>2021-10-09 11:42:32</time>
      </trkpt>
      <trkpt lat="40.61501" lon="-2.09196">
        <ele>1236</ele>
        <time>2021-10-09 11:42:33</time>
      </trkpt>
      <trkpt lat="40.61492" lon="-2.09194">
        <ele>1235.6</ele>
        <time>2021-10-09 11:42:34</time>
      </trkpt>
      <trkpt lat="40.61483" lon="-2.09192">
        <ele>1235.6</ele>
        <time>2021-10-09 11:42:35</time>
      </trkpt>
      <trkpt lat="40.61474" lon="-2.09188">
        <ele>1235.4</ele>
        <time>2021-10-09 11:42:36</time>
      </trkpt>
      <trkpt lat="40.61465" lon="-2.09186">
        <ele>1235.2</ele>
        <time>2021-10-09 11:42:37</time>
      </trkpt>
      <trkpt lat="40.61455" lon="-2.09182">
        <ele>1235.2</ele>
        <time>2021-10-09 11:42:38</time>
      </trkpt>
      <trkpt lat="40.61445" lon="-2.09179">
        <ele>1234.8</ele>
        <time>2021-10-09 11:42:39</time>
      </trkpt>
      <trkpt lat="40.61434" lon="-2.09175">
        <ele>1234</ele>
        <time>2021-10-09 11:42:40</time>
      </trkpt>
      <trkpt lat="40.61423" lon="-2.09172">
        <ele>1233.6</ele>
        <time>2021-10-09 11:42:41</time>
      </trkpt>
      <trkpt lat="40.61412" lon="-2.09168">
        <ele>1233.2</ele>
        <time>2021-10-09 11:42:42</time>
      </trkpt>
      <trkpt lat="40.61401" lon="-2.09165">
        <ele>1232.8</ele>
        <time>2021-10-09 11:42:43</time>
      </trkpt>
      <trkpt lat="40.61389" lon="-2.09161">
        <ele>1232.2</ele>
        <time>2021-10-09 11:42:44</time>
      </trkpt>
      <trkpt lat="40.61378" lon="-2.09156">
        <ele>1231.6</ele>
        <time>2021-10-09 11:42:45</time>
      </trkpt>
      <trkpt lat="40.61368" lon="-2.09149">
        <ele>1230.8</ele>
        <time>2021-10-09 11:42:46</time>
      </trkpt>
      <trkpt lat="40.61357" lon="-2.09141">
        <ele>1230</ele>
        <time>2021-10-09 11:42:47</time>
      </trkpt>
      <trkpt lat="40.61347" lon="-2.09131">
        <ele>1229.4</ele>
        <time>2021-10-09 11:42:48</time>
      </trkpt>
      <trkpt lat="40.61338" lon="-2.09121">
        <ele>1228.8</ele>
        <time>2021-10-09 11:42:49</time>
      </trkpt>
      <trkpt lat="40.61328" lon="-2.09111">
        <ele>1228.4</ele>
        <time>2021-10-09 11:42:50</time>
      </trkpt>
      <trkpt lat="40.61319" lon="-2.091">
        <ele>1227.8</ele>
        <time>2021-10-09 11:42:51</time>
      </trkpt>
      <trkpt lat="40.61309" lon="-2.09089">
        <ele>1227</ele>
        <time>2021-10-09 11:42:52</time>
      </trkpt>
      <trkpt lat="40.61299" lon="-2.09079">
        <ele>1226.2</ele>
        <time>2021-10-09 11:42:53</time>
      </trkpt>
      <trkpt lat="40.61289" lon="-2.09068">
        <ele>1225.2</ele>
        <time>2021-10-09 11:42:54</time>
      </trkpt>
      <trkpt lat="40.61279" lon="-2.09058">
        <ele>1224.2</ele>
        <time>2021-10-09 11:42:55</time>
      </trkpt>
      <trkpt lat="40.61267" lon="-2.09049">
        <ele>1223.2</ele>
        <time>2021-10-09 11:42:56</time>
      </trkpt>
      <trkpt lat="40.61256" lon="-2.09041">
        <ele>1222.2</ele>
        <time>2021-10-09 11:42:57</time>
      </trkpt>
      <trkpt lat="40.61244" lon="-2.09033">
        <ele>1221.4</ele>
        <time>2021-10-09 11:42:58</time>
      </trkpt>
      <trkpt lat="40.61231" lon="-2.09025">
        <ele>1220.6</ele>
        <time>2021-10-09 11:42:59</time>
      </trkpt>
      <trkpt lat="40.61219" lon="-2.0902">
        <ele>1220</ele>
        <time>2021-10-09 11:43:00</time>
      </trkpt>
      <trkpt lat="40.61206" lon="-2.09017">
        <ele>1219</ele>
        <time>2021-10-09 11:43:01</time>
      </trkpt>
      <trkpt lat="40.61193" lon="-2.09013">
        <ele>1218</ele>
        <time>2021-10-09 11:43:02</time>
      </trkpt>
      <trkpt lat="40.6118" lon="-2.0901">
        <ele>1217</ele>
        <time>2021-10-09 11:43:03</time>
      </trkpt>
      <trkpt lat="40.61168" lon="-2.09006">
        <ele>1216</ele>
        <time>2021-10-09 11:43:04</time>
      </trkpt>
      <trkpt lat="40.61156" lon="-2.09003">
        <ele>1215</ele>
        <time>2021-10-09 11:43:05</time>
      </trkpt>
      <trkpt lat="40.61143" lon="-2.09">
        <ele>1214</ele>
        <time>2021-10-09 11:43:06</time>
      </trkpt>
      <trkpt lat="40.61131" lon="-2.08996">
        <ele>1213.2</ele>
        <time>2021-10-09 11:43:07</time>
      </trkpt>
      <trkpt lat="40.61119" lon="-2.08992">
        <ele>1212.4</ele>
        <time>2021-10-09 11:43:08</time>
      </trkpt>
      <trkpt lat="40.61107" lon="-2.08989">
        <ele>1211.6</ele>
        <time>2021-10-09 11:43:09</time>
      </trkpt>
      <trkpt lat="40.61095" lon="-2.08986">
        <ele>1210.8</ele>
        <time>2021-10-09 11:43:10</time>
      </trkpt>
      <trkpt lat="40.61083" lon="-2.08983">
        <ele>1210</ele>
        <time>2021-10-09 11:43:11</time>
      </trkpt>
      <trkpt lat="40.61071" lon="-2.0898">
        <ele>1209.4</ele>
        <time>2021-10-09 11:43:12</time>
      </trkpt>
      <trkpt lat="40.61059" lon="-2.08977">
        <ele>1208.6</ele>
        <time>2021-10-09 11:43:13</time>
      </trkpt>
      <trkpt lat="40.61047" lon="-2.08974">
        <ele>1208</ele>
        <time>2021-10-09 11:43:14</time>
      </trkpt>
      <trkpt lat="40.61036" lon="-2.08971">
        <ele>1207.4</ele>
        <time>2021-10-09 11:43:15</time>
      </trkpt>
      <trkpt lat="40.61025" lon="-2.08968">
        <ele>1206.6</ele>
        <time>2021-10-09 11:43:16</time>
      </trkpt>
      <trkpt lat="40.61014" lon="-2.08965">
        <ele>1206.2</ele>
        <time>2021-10-09 11:43:17</time>
      </trkpt>
      <trkpt lat="40.61003" lon="-2.08962">
        <ele>1205.8</ele>
        <time>2021-10-09 11:43:18</time>
      </trkpt>
      <trkpt lat="40.60993" lon="-2.0896">
        <ele>1205.8</ele>
        <time>2021-10-09 11:43:19</time>
      </trkpt>
      <trkpt lat="40.60983" lon="-2.08957">
        <ele>1205.4</ele>
        <time>2021-10-09 11:43:20</time>
      </trkpt>
      <trkpt lat="40.60974" lon="-2.08955">
        <ele>1205.2</ele>
        <time>2021-10-09 11:43:21</time>
      </trkpt>
      <trkpt lat="40.60964" lon="-2.08953">
        <ele>1204.8</ele>
        <time>2021-10-09 11:43:22</time>
      </trkpt>
      <trkpt lat="40.60955" lon="-2.08953">
        <ele>1204.8</ele>
        <time>2021-10-09 11:43:23</time>
      </trkpt>
      <trkpt lat="40.60947" lon="-2.08952">
        <ele>1204.6</ele>
        <time>2021-10-09 11:43:24</time>
      </trkpt>
      <trkpt lat="40.60939" lon="-2.08952">
        <ele>1204.6</ele>
        <time>2021-10-09 11:43:25</time>
      </trkpt>
      <trkpt lat="40.60933" lon="-2.08952">
        <ele>1204.6</ele>
        <time>2021-10-09 11:43:26</time>
      </trkpt>
      <trkpt lat="40.60927" lon="-2.08953">
        <ele>1204.6</ele>
        <time>2021-10-09 11:43:27</time>
      </trkpt>
      <trkpt lat="40.60922" lon="-2.08954">
        <ele>1204.6</ele>
        <time>2021-10-09 11:43:28</time>
      </trkpt>
      <trkpt lat="40.60918" lon="-2.08955">
        <ele>1204.6</ele>
        <time>2021-10-09 11:43:29</time>
      </trkpt>
      <trkpt lat="40.60913" lon="-2.08955">
        <ele>1204.6</ele>
        <time>2021-10-09 11:43:30</time>
      </trkpt>
      <trkpt lat="40.60909" lon="-2.08956">
        <ele>1204.8</ele>
        <time>2021-10-09 11:43:31</time>
      </trkpt>
      <trkpt lat="40.60906" lon="-2.08958">
        <ele>1204.8</ele>
        <time>2021-10-09 11:43:32</time>
      </trkpt>
      <trkpt lat="40.60903" lon="-2.08959">
        <ele>1205</ele>
        <time>2021-10-09 11:43:33</time>
      </trkpt>
      <trkpt lat="40.609" lon="-2.0896">
        <ele>1205</ele>
        <time>2021-10-09 11:43:34</time>
      </trkpt>
      <trkpt lat="40.60898" lon="-2.08961">
        <ele>1205.4</ele>
        <time>2021-10-09 11:43:35</time>
      </trkpt>
      <trkpt lat="40.60895" lon="-2.08961">
        <ele>1205.4</ele>
        <time>2021-10-09 11:43:36</time>
      </trkpt>
      <trkpt lat="40.60893" lon="-2.08962">
        <ele>1205.6</ele>
        <time>2021-10-09 11:43:37</time>
      </trkpt>
      <trkpt lat="40.60891" lon="-2.08963">
        <ele>1205.8</ele>
        <time>2021-10-09 11:43:38</time>
      </trkpt>
      <trkpt lat="40.60888" lon="-2.08964">
        <ele>1205.8</ele>
        <time>2021-10-09 11:43:39</time>
      </trkpt>
      <trkpt lat="40.60886" lon="-2.08965">
        <ele>1206.2</ele>
        <time>2021-10-09 11:43:40</time>
      </trkpt>
      <trkpt lat="40.60884" lon="-2.08966">
        <ele>1206.2</ele>
        <time>2021-10-09 11:43:41</time>
      </trkpt>
      <trkpt lat="40.60881" lon="-2.08967">
        <ele>1206.6</ele>
        <time>2021-10-09 11:43:42</time>
      </trkpt>
      <trkpt lat="40.60879" lon="-2.08968">
        <ele>1206.6</ele>
        <time>2021-10-09 11:43:43</time>
      </trkpt>
      <trkpt lat="40.60877" lon="-2.08969">
        <ele>1207</ele>
        <time>2021-10-09 11:43:44</time>
      </trkpt>
      <trkpt lat="40.60875" lon="-2.0897">
        <ele>1207</ele>
        <time>2021-10-09 11:43:45</time>
      </trkpt>
      <trkpt lat="40.60873" lon="-2.08971">
        <ele>1207.4</ele>
        <time>2021-10-09 11:43:46</time>
      </trkpt>
      <trkpt lat="40.6087" lon="-2.08971">
        <ele>1207.6</ele>
        <time>2021-10-09 11:43:47</time>
      </trkpt>
      <trkpt lat="40.60868" lon="-2.08971">
        <ele>1207.8</ele>
        <time>2021-10-09 11:43:48</time>
      </trkpt>
      <trkpt lat="40.60866" lon="-2.08971">
        <ele>1207.8</ele>
        <time>2021-10-09 11:43:49</time>
      </trkpt>
      <trkpt lat="40.60863" lon="-2.08972">
        <ele>1208.2</ele>
        <time>2021-10-09 11:43:50</time>
      </trkpt>
      <trkpt lat="40.60861" lon="-2.08973">
        <ele>1208.2</ele>
        <time>2021-10-09 11:43:51</time>
      </trkpt>
      <trkpt lat="40.60859" lon="-2.08973">
        <ele>1208.6</ele>
        <time>2021-10-09 11:43:52</time>
      </trkpt>
      <trkpt lat="40.60856" lon="-2.08974">
        <ele>1208.6</ele>
        <time>2021-10-09 11:43:53</time>
      </trkpt>
      <trkpt lat="40.60854" lon="-2.08975">
        <ele>1208.8</ele>
        <time>2021-10-09 11:43:54</time>
      </trkpt>
      <trkpt lat="40.60851" lon="-2.08976">
        <ele>1208.8</ele>
        <time>2021-10-09 11:43:55</time>
      </trkpt>
      <trkpt lat="40.60849" lon="-2.08977">
        <ele>1209.2</ele>
        <time>2021-10-09 11:43:56</time>
      </trkpt>
      <trkpt lat="40.60846" lon="-2.08978">
        <ele>1209.2</ele>
        <time>2021-10-09 11:43:57</time>
      </trkpt>
      <trkpt lat="40.60844" lon="-2.08978">
        <ele>1209.4</ele>
        <time>2021-10-09 11:43:58</time>
      </trkpt>
      <trkpt lat="40.60841" lon="-2.08979">
        <ele>1209.6</ele>
        <time>2021-10-09 11:43:59</time>
      </trkpt>
      <trkpt lat="40.60839" lon="-2.08979">
        <ele>1209.6</ele>
        <time>2021-10-09 11:44:00</time>
      </trkpt>
      <trkpt lat="40.60836" lon="-2.0898">
        <ele>1210</ele>
        <time>2021-10-09 11:44:01</time>
      </trkpt>
      <trkpt lat="40.60833" lon="-2.08981">
        <ele>1210</ele>
        <time>2021-10-09 11:44:02</time>
      </trkpt>
      <trkpt lat="40.6083" lon="-2.08982">
        <ele>1210.4</ele>
        <time>2021-10-09 11:44:03</time>
      </trkpt>
      <trkpt lat="40.60827" lon="-2.08983">
        <ele>1210.4</ele>
        <time>2021-10-09 11:44:04</time>
      </trkpt>
      <trkpt lat="40.60825" lon="-2.08984">
        <ele>1210.4</ele>
        <time>2021-10-09 11:44:05</time>
      </trkpt>
      <trkpt lat="40.60822" lon="-2.08985">
        <ele>1210.6</ele>
        <time>2021-10-09 11:44:06</time>
      </trkpt>
      <trkpt lat="40.60819" lon="-2.08987">
        <ele>1210.6</ele>
        <time>2021-10-09 11:44:07</time>
      </trkpt>
      <trkpt lat="40.60815" lon="-2.08988">
        <ele>1210.6</ele>
        <time>2021-10-09 11:44:08</time>
      </trkpt>
      <trkpt lat="40.60812" lon="-2.08989">
        <ele>1210.6</ele>
        <time>2021-10-09 11:44:09</time>
      </trkpt>
      <trkpt lat="40.60807" lon="-2.0899">
        <ele>1210.6</ele>
        <time>2021-10-09 11:44:10</time>
      </trkpt>
      <trkpt lat="40.60803" lon="-2.08991">
        <ele>1210.6</ele>
        <time>2021-10-09 11:44:11</time>
      </trkpt>
      <trkpt lat="40.60798" lon="-2.08992">
        <ele>1210.6</ele>
        <time>2021-10-09 11:44:12</time>
      </trkpt>
      <trkpt lat="40.60794" lon="-2.08993">
        <ele>1210.6</ele>
        <time>2021-10-09 11:44:13</time>
      </trkpt>
      <trkpt lat="40.60789" lon="-2.08994">
        <ele>1210.8</ele>
        <time>2021-10-09 11:44:14</time>
      </trkpt>
      <trkpt lat="40.60784" lon="-2.08995">
        <ele>1210.8</ele>
        <time>2021-10-09 11:44:15</time>
      </trkpt>
      <trkpt lat="40.60779" lon="-2.08996">
        <ele>1211.2</ele>
        <time>2021-10-09 11:44:16</time>
      </trkpt>
      <trkpt lat="40.60773" lon="-2.08997">
        <ele>1211.2</ele>
        <time>2021-10-09 11:44:17</time>
      </trkpt>
      <trkpt lat="40.60767" lon="-2.08998">
        <ele>1211.2</ele>
        <time>2021-10-09 11:44:18</time>
      </trkpt>
      <trkpt lat="40.6076" lon="-2.08999">
        <ele>1211.2</ele>
        <time>2021-10-09 11:44:19</time>
      </trkpt>
      <trkpt lat="40.60753" lon="-2.08999">
        <ele>1210.8</ele>
        <time>2021-10-09 11:44:20</time>
      </trkpt>
      <trkpt lat="40.60745" lon="-2.08999">
        <ele>1210.6</ele>
        <time>2021-10-09 11:44:21</time>
      </trkpt>
      <trkpt lat="40.60737" lon="-2.08999">
        <ele>1210.2</ele>
        <time>2021-10-09 11:44:22</time>
      </trkpt>
      <trkpt lat="40.6073" lon="-2.08999">
        <ele>1210</ele>
        <time>2021-10-09 11:44:23</time>
      </trkpt>
      <trkpt lat="40.60722" lon="-2.08999">
        <ele>1210</ele>
        <time>2021-10-09 11:44:24</time>
      </trkpt>
      <trkpt lat="40.60714" lon="-2.08999">
        <ele>1209.8</ele>
        <time>2021-10-09 11:44:25</time>
      </trkpt>
      <trkpt lat="40.60706" lon="-2.08998">
        <ele>1209.8</ele>
        <time>2021-10-09 11:44:26</time>
      </trkpt>
      <trkpt lat="40.60698" lon="-2.08997">
        <ele>1209.4</ele>
        <time>2021-10-09 11:44:27</time>
      </trkpt>
      <trkpt lat="40.6069" lon="-2.08997">
        <ele>1209.2</ele>
        <time>2021-10-09 11:44:28</time>
      </trkpt>
      <trkpt lat="40.60682" lon="-2.08996">
        <ele>1208.8</ele>
        <time>2021-10-09 11:44:29</time>
      </trkpt>
      <trkpt lat="40.60674" lon="-2.08995">
        <ele>1208.8</ele>
        <time>2021-10-09 11:44:30</time>
      </trkpt>
      <trkpt lat="40.60666" lon="-2.08995">
        <ele>1208.6</ele>
        <time>2021-10-09 11:44:31</time>
      </trkpt>
      <trkpt lat="40.60659" lon="-2.08995">
        <ele>1208.6</ele>
        <time>2021-10-09 11:44:32</time>
      </trkpt>
      <trkpt lat="40.60651" lon="-2.08995">
        <ele>1207.8</ele>
        <time>2021-10-09 11:44:33</time>
      </trkpt>
      <trkpt lat="40.60644" lon="-2.08995">
        <ele>1207.6</ele>
        <time>2021-10-09 11:44:34</time>
      </trkpt>
      <trkpt lat="40.60637" lon="-2.08995">
        <ele>1207.2</ele>
        <time>2021-10-09 11:44:35</time>
      </trkpt>
      <trkpt lat="40.6063" lon="-2.08995">
        <ele>1207.2</ele>
        <time>2021-10-09 11:44:36</time>
      </trkpt>
      <trkpt lat="40.60623" lon="-2.08996">
        <ele>1207.2</ele>
        <time>2021-10-09 11:44:37</time>
      </trkpt>
      <trkpt lat="40.60617" lon="-2.08996">
        <ele>1207.2</ele>
        <time>2021-10-09 11:44:38</time>
      </trkpt>
      <trkpt lat="40.60611" lon="-2.08998">
        <ele>1207</ele>
        <time>2021-10-09 11:44:39</time>
      </trkpt>
      <trkpt lat="40.60605" lon="-2.08998">
        <ele>1207</ele>
        <time>2021-10-09 11:44:40</time>
      </trkpt>
      <trkpt lat="40.60599" lon="-2.08999">
        <ele>1207</ele>
        <time>2021-10-09 11:44:41</time>
      </trkpt>
      <trkpt lat="40.60594" lon="-2.09">
        <ele>1207</ele>
        <time>2021-10-09 11:44:42</time>
      </trkpt>
      <trkpt lat="40.60589" lon="-2.09">
        <ele>1206.8</ele>
        <time>2021-10-09 11:44:43</time>
      </trkpt>
      <trkpt lat="40.60584" lon="-2.09001">
        <ele>1206.8</ele>
        <time>2021-10-09 11:44:44</time>
      </trkpt>
      <trkpt lat="40.6058" lon="-2.09002">
        <ele>1206.8</ele>
        <time>2021-10-09 11:44:45</time>
      </trkpt>
      <trkpt lat="40.60575" lon="-2.09004">
        <ele>1206.8</ele>
        <time>2021-10-09 11:44:46</time>
      </trkpt>
      <trkpt lat="40.60571" lon="-2.09006">
        <ele>1206.8</ele>
        <time>2021-10-09 11:44:47</time>
      </trkpt>
      <trkpt lat="40.60566" lon="-2.09007">
        <ele>1206.8</ele>
        <time>2021-10-09 11:44:48</time>
      </trkpt>
      <trkpt lat="40.60562" lon="-2.09008">
        <ele>1206.8</ele>
        <time>2021-10-09 11:44:49</time>
      </trkpt>
      <trkpt lat="40.60557" lon="-2.09008">
        <ele>1206.8</ele>
        <time>2021-10-09 11:44:50</time>
      </trkpt>
      <trkpt lat="40.60553" lon="-2.09009">
        <ele>1207</ele>
        <time>2021-10-09 11:44:51</time>
      </trkpt>
      <trkpt lat="40.60548" lon="-2.09011">
        <ele>1207</ele>
        <time>2021-10-09 11:44:52</time>
      </trkpt>
      <trkpt lat="40.60544" lon="-2.09013">
        <ele>1207</ele>
        <time>2021-10-09 11:44:53</time>
      </trkpt>
      <trkpt lat="40.6054" lon="-2.09015">
        <ele>1207</ele>
        <time>2021-10-09 11:44:54</time>
      </trkpt>
      <trkpt lat="40.60536" lon="-2.09016">
        <ele>1207.2</ele>
        <time>2021-10-09 11:44:55</time>
      </trkpt>
      <trkpt lat="40.60532" lon="-2.09018">
        <ele>1207.2</ele>
        <time>2021-10-09 11:44:56</time>
      </trkpt>
      <trkpt lat="40.60528" lon="-2.09019">
        <ele>1207.2</ele>
        <time>2021-10-09 11:44:57</time>
      </trkpt>
      <trkpt lat="40.60523" lon="-2.0902">
        <ele>1207.4</ele>
        <time>2021-10-09 11:44:58</time>
      </trkpt>
      <trkpt lat="40.60519" lon="-2.09021">
        <ele>1207.4</ele>
        <time>2021-10-09 11:44:59</time>
      </trkpt>
      <trkpt lat="40.60514" lon="-2.09022">
        <ele>1207.6</ele>
        <time>2021-10-09 11:45:00</time>
      </trkpt>
      <trkpt lat="40.6051" lon="-2.09023">
        <ele>1207.6</ele>
        <time>2021-10-09 11:45:01</time>
      </trkpt>
      <trkpt lat="40.60505" lon="-2.09025">
        <ele>1207.6</ele>
        <time>2021-10-09 11:45:02</time>
      </trkpt>
      <trkpt lat="40.60501" lon="-2.09027">
        <ele>1207.6</ele>
        <time>2021-10-09 11:45:03</time>
      </trkpt>
      <trkpt lat="40.60496" lon="-2.09028">
        <ele>1207.6</ele>
        <time>2021-10-09 11:45:04</time>
      </trkpt>
      <trkpt lat="40.60491" lon="-2.09029">
        <ele>1207.6</ele>
        <time>2021-10-09 11:45:05</time>
      </trkpt>
      <trkpt lat="40.60486" lon="-2.0903">
        <ele>1207.6</ele>
        <time>2021-10-09 11:45:06</time>
      </trkpt>
      <trkpt lat="40.60481" lon="-2.09032">
        <ele>1207.6</ele>
        <time>2021-10-09 11:45:07</time>
      </trkpt>
      <trkpt lat="40.60477" lon="-2.09034">
        <ele>1207.6</ele>
        <time>2021-10-09 11:45:08</time>
      </trkpt>
      <trkpt lat="40.60472" lon="-2.09036">
        <ele>1208</ele>
        <time>2021-10-09 11:45:09</time>
      </trkpt>
      <trkpt lat="40.60468" lon="-2.09038">
        <ele>1208</ele>
        <time>2021-10-09 11:45:10</time>
      </trkpt>
      <trkpt lat="40.60465" lon="-2.0904">
        <ele>1208</ele>
        <time>2021-10-09 11:45:11</time>
      </trkpt>
      <trkpt lat="40.60461" lon="-2.09042">
        <ele>1208</ele>
        <time>2021-10-09 11:45:12</time>
      </trkpt>
      <trkpt lat="40.60457" lon="-2.09044">
        <ele>1208</ele>
        <time>2021-10-09 11:45:13</time>
      </trkpt>
      <trkpt lat="40.60453" lon="-2.09047">
        <ele>1208</ele>
        <time>2021-10-09 11:45:14</time>
      </trkpt>
      <trkpt lat="40.6045" lon="-2.0905">
        <ele>1208</ele>
        <time>2021-10-09 11:45:15</time>
      </trkpt>
      <trkpt lat="40.60446" lon="-2.09052">
        <ele>1208.2</ele>
        <time>2021-10-09 11:45:16</time>
      </trkpt>
      <trkpt lat="40.60443" lon="-2.09055">
        <ele>1208.2</ele>
        <time>2021-10-09 11:45:17</time>
      </trkpt>
      <trkpt lat="40.60439" lon="-2.09057">
        <ele>1208.6</ele>
        <time>2021-10-09 11:45:18</time>
      </trkpt>
      <trkpt lat="40.60435" lon="-2.09059">
        <ele>1208.8</ele>
        <time>2021-10-09 11:45:19</time>
      </trkpt>
      <trkpt lat="40.60431" lon="-2.09061">
        <ele>1208.8</ele>
        <time>2021-10-09 11:45:20</time>
      </trkpt>
      <trkpt lat="40.60428" lon="-2.09063">
        <ele>1208.8</ele>
        <time>2021-10-09 11:45:21</time>
      </trkpt>
      <trkpt lat="40.60424" lon="-2.09064">
        <ele>1209</ele>
        <time>2021-10-09 11:45:22</time>
      </trkpt>
      <trkpt lat="40.6042" lon="-2.09065">
        <ele>1209</ele>
        <time>2021-10-09 11:45:23</time>
      </trkpt>
      <trkpt lat="40.60417" lon="-2.09066">
        <ele>1209.2</ele>
        <time>2021-10-09 11:45:24</time>
      </trkpt>
      <trkpt lat="40.60413" lon="-2.09067">
        <ele>1209.2</ele>
        <time>2021-10-09 11:45:25</time>
      </trkpt>
      <trkpt lat="40.6041" lon="-2.09069">
        <ele>1209.2</ele>
        <time>2021-10-09 11:45:26</time>
      </trkpt>
      <trkpt lat="40.60406" lon="-2.09071">
        <ele>1209.4</ele>
        <time>2021-10-09 11:45:27</time>
      </trkpt>
      <trkpt lat="40.60402" lon="-2.09072">
        <ele>1209.4</ele>
        <time>2021-10-09 11:45:28</time>
      </trkpt>
      <trkpt lat="40.60399" lon="-2.09075">
        <ele>1209.6</ele>
        <time>2021-10-09 11:45:29</time>
      </trkpt>
      <trkpt lat="40.60395" lon="-2.09076">
        <ele>1209.6</ele>
        <time>2021-10-09 11:45:30</time>
      </trkpt>
      <trkpt lat="40.6039" lon="-2.09078">
        <ele>1209.6</ele>
        <time>2021-10-09 11:45:31</time>
      </trkpt>
      <trkpt lat="40.60386" lon="-2.09079">
        <ele>1209.6</ele>
        <time>2021-10-09 11:45:32</time>
      </trkpt>
      <trkpt lat="40.60381" lon="-2.09079">
        <ele>1209.6</ele>
        <time>2021-10-09 11:45:33</time>
      </trkpt>
      <trkpt lat="40.60376" lon="-2.09081">
        <ele>1209.6</ele>
        <time>2021-10-09 11:45:34</time>
      </trkpt>
      <trkpt lat="40.6037" lon="-2.09082">
        <ele>1209.6</ele>
        <time>2021-10-09 11:45:35</time>
      </trkpt>
      <trkpt lat="40.60365" lon="-2.09083">
        <ele>1209.6</ele>
        <time>2021-10-09 11:45:36</time>
      </trkpt>
      <trkpt lat="40.60359" lon="-2.09084">
        <ele>1209.6</ele>
        <time>2021-10-09 11:45:37</time>
      </trkpt>
      <trkpt lat="40.60352" lon="-2.09085">
        <ele>1209.6</ele>
        <time>2021-10-09 11:45:38</time>
      </trkpt>
      <trkpt lat="40.60346" lon="-2.09085">
        <ele>1209.6</ele>
        <time>2021-10-09 11:45:39</time>
      </trkpt>
      <trkpt lat="40.60339" lon="-2.09086">
        <ele>1209.6</ele>
        <time>2021-10-09 11:45:40</time>
      </trkpt>
      <trkpt lat="40.60332" lon="-2.09087">
        <ele>1209.6</ele>
        <time>2021-10-09 11:45:41</time>
      </trkpt>
      <trkpt lat="40.60324" lon="-2.09089">
        <ele>1209.6</ele>
        <time>2021-10-09 11:45:42</time>
      </trkpt>
      <trkpt lat="40.60316" lon="-2.0909">
        <ele>1209.2</ele>
        <time>2021-10-09 11:45:43</time>
      </trkpt>
      <trkpt lat="40.60308" lon="-2.09092">
        <ele>1209</ele>
        <time>2021-10-09 11:45:44</time>
      </trkpt>
      <trkpt lat="40.603" lon="-2.09094">
        <ele>1209</ele>
        <time>2021-10-09 11:45:45</time>
      </trkpt>
      <trkpt lat="40.60292" lon="-2.09096">
        <ele>1208.6</ele>
        <time>2021-10-09 11:45:46</time>
      </trkpt>
      <trkpt lat="40.60284" lon="-2.09097">
        <ele>1208.6</ele>
        <time>2021-10-09 11:45:47</time>
      </trkpt>
      <trkpt lat="40.60275" lon="-2.09098">
        <ele>1208.4</ele>
        <time>2021-10-09 11:45:48</time>
      </trkpt>
      <trkpt lat="40.60267" lon="-2.09098">
        <ele>1208.4</ele>
        <time>2021-10-09 11:45:49</time>
      </trkpt>
      <trkpt lat="40.60258" lon="-2.09099">
        <ele>1208.4</ele>
        <time>2021-10-09 11:45:50</time>
      </trkpt>
      <trkpt lat="40.60249" lon="-2.09101">
        <ele>1207.8</ele>
        <time>2021-10-09 11:45:51</time>
      </trkpt>
      <trkpt lat="40.60239" lon="-2.09101">
        <ele>1207.2</ele>
        <time>2021-10-09 11:45:52</time>
      </trkpt>
      <trkpt lat="40.60228" lon="-2.09099">
        <ele>1206.6</ele>
        <time>2021-10-09 11:45:53</time>
      </trkpt>
      <trkpt lat="40.60218" lon="-2.09098">
        <ele>1206</ele>
        <time>2021-10-09 11:45:54</time>
      </trkpt>
      <trkpt lat="40.60208" lon="-2.09096">
        <ele>1205.6</ele>
        <time>2021-10-09 11:45:55</time>
      </trkpt>
      <trkpt lat="40.60197" lon="-2.09094">
        <ele>1205.2</ele>
        <time>2021-10-09 11:45:56</time>
      </trkpt>
      <trkpt lat="40.60187" lon="-2.0909">
        <ele>1204.8</ele>
        <time>2021-10-09 11:45:57</time>
      </trkpt>
      <trkpt lat="40.60176" lon="-2.09088">
        <ele>1204.2</ele>
        <time>2021-10-09 11:45:58</time>
      </trkpt>
      <trkpt lat="40.60166" lon="-2.09085">
        <ele>1203.4</ele>
        <time>2021-10-09 11:45:59</time>
      </trkpt>
      <trkpt lat="40.60155" lon="-2.09083">
        <ele>1202.4</ele>
        <time>2021-10-09 11:46:00</time>
      </trkpt>
      <trkpt lat="40.60144" lon="-2.0908">
        <ele>1201.4</ele>
        <time>2021-10-09 11:46:01</time>
      </trkpt>
      <trkpt lat="40.60133" lon="-2.09077">
        <ele>1200.6</ele>
        <time>2021-10-09 11:46:02</time>
      </trkpt>
      <trkpt lat="40.60123" lon="-2.09073">
        <ele>1199.8</ele>
        <time>2021-10-09 11:46:03</time>
      </trkpt>
      <trkpt lat="40.60112" lon="-2.0907">
        <ele>1198.6</ele>
        <time>2021-10-09 11:46:04</time>
      </trkpt>
      <trkpt lat="40.60102" lon="-2.09067">
        <ele>1197.6</ele>
        <time>2021-10-09 11:46:05</time>
      </trkpt>
      <trkpt lat="40.60091" lon="-2.09064">
        <ele>1197.2</ele>
        <time>2021-10-09 11:46:06</time>
      </trkpt>
      <trkpt lat="40.6008" lon="-2.09063">
        <ele>1196.8</ele>
        <time>2021-10-09 11:46:07</time>
      </trkpt>
      <trkpt lat="40.60069" lon="-2.09062">
        <ele>1196.2</ele>
        <time>2021-10-09 11:46:08</time>
      </trkpt>
      <trkpt lat="40.60059" lon="-2.09062">
        <ele>1195.8</ele>
        <time>2021-10-09 11:46:09</time>
      </trkpt>
      <trkpt lat="40.60048" lon="-2.09062">
        <ele>1195.2</ele>
        <time>2021-10-09 11:46:10</time>
      </trkpt>
      <trkpt lat="40.60037" lon="-2.09061">
        <ele>1194.6</ele>
        <time>2021-10-09 11:46:11</time>
      </trkpt>
      <trkpt lat="40.60027" lon="-2.09062">
        <ele>1194.4</ele>
        <time>2021-10-09 11:46:12</time>
      </trkpt>
      <trkpt lat="40.60017" lon="-2.09063">
        <ele>1194.4</ele>
        <time>2021-10-09 11:46:13</time>
      </trkpt>
      <trkpt lat="40.60007" lon="-2.09066">
        <ele>1194.2</ele>
        <time>2021-10-09 11:46:14</time>
      </trkpt>
      <trkpt lat="40.59999" lon="-2.0907">
        <ele>1193.8</ele>
        <time>2021-10-09 11:46:15</time>
      </trkpt>
      <trkpt lat="40.59991" lon="-2.09074">
        <ele>1193.4</ele>
        <time>2021-10-09 11:46:16</time>
      </trkpt>
      <trkpt lat="40.59983" lon="-2.09077">
        <ele>1193</ele>
        <time>2021-10-09 11:46:17</time>
      </trkpt>
      <trkpt lat="40.59976" lon="-2.09081">
        <ele>1192.6</ele>
        <time>2021-10-09 11:46:18</time>
      </trkpt>
      <trkpt lat="40.5997" lon="-2.09084">
        <ele>1192.2</ele>
        <time>2021-10-09 11:46:19</time>
      </trkpt>
      <trkpt lat="40.59964" lon="-2.09087">
        <ele>1192.2</ele>
        <time>2021-10-09 11:46:20</time>
      </trkpt>
      <trkpt lat="40.59958" lon="-2.09091">
        <ele>1191.8</ele>
        <time>2021-10-09 11:46:21</time>
      </trkpt>
      <trkpt lat="40.59953" lon="-2.09094">
        <ele>1191.6</ele>
        <time>2021-10-09 11:46:22</time>
      </trkpt>
      <trkpt lat="40.59947" lon="-2.09097">
        <ele>1191.6</ele>
        <time>2021-10-09 11:46:23</time>
      </trkpt>
      <trkpt lat="40.59943" lon="-2.091">
        <ele>1191.6</ele>
        <time>2021-10-09 11:46:24</time>
      </trkpt>
      <trkpt lat="40.59938" lon="-2.09102">
        <ele>1191.6</ele>
        <time>2021-10-09 11:46:25</time>
      </trkpt>
      <trkpt lat="40.59933" lon="-2.09105">
        <ele>1191.6</ele>
        <time>2021-10-09 11:46:26</time>
      </trkpt>
      <trkpt lat="40.59929" lon="-2.09107">
        <ele>1191.6</ele>
        <time>2021-10-09 11:46:27</time>
      </trkpt>
      <trkpt lat="40.59925" lon="-2.0911">
        <ele>1191.6</ele>
        <time>2021-10-09 11:46:28</time>
      </trkpt>
      <trkpt lat="40.59921" lon="-2.09112">
        <ele>1191.6</ele>
        <time>2021-10-09 11:46:29</time>
      </trkpt>
      <trkpt lat="40.59918" lon="-2.09114">
        <ele>1191.8</ele>
        <time>2021-10-09 11:46:30</time>
      </trkpt>
      <trkpt lat="40.59914" lon="-2.09115">
        <ele>1191.8</ele>
        <time>2021-10-09 11:46:31</time>
      </trkpt>
      <trkpt lat="40.59911" lon="-2.09117">
        <ele>1192</ele>
        <time>2021-10-09 11:46:32</time>
      </trkpt>
      <trkpt lat="40.59908" lon="-2.09119">
        <ele>1192</ele>
        <time>2021-10-09 11:46:33</time>
      </trkpt>
      <trkpt lat="40.59904" lon="-2.09121">
        <ele>1192.4</ele>
        <time>2021-10-09 11:46:34</time>
      </trkpt>
      <trkpt lat="40.59901" lon="-2.09122">
        <ele>1192.6</ele>
        <time>2021-10-09 11:46:35</time>
      </trkpt>
      <trkpt lat="40.59898" lon="-2.09123">
        <ele>1192.8</ele>
        <time>2021-10-09 11:46:36</time>
      </trkpt>
      <trkpt lat="40.59895" lon="-2.09125">
        <ele>1192.8</ele>
        <time>2021-10-09 11:46:37</time>
      </trkpt>
      <trkpt lat="40.59892" lon="-2.09127">
        <ele>1193.2</ele>
        <time>2021-10-09 11:46:38</time>
      </trkpt>
      <trkpt lat="40.59888" lon="-2.09128">
        <ele>1193.4</ele>
        <time>2021-10-09 11:46:39</time>
      </trkpt>
      <trkpt lat="40.59885" lon="-2.0913">
        <ele>1193.6</ele>
        <time>2021-10-09 11:46:40</time>
      </trkpt>
      <trkpt lat="40.59882" lon="-2.09132">
        <ele>1193.6</ele>
        <time>2021-10-09 11:46:41</time>
      </trkpt>
      <trkpt lat="40.59879" lon="-2.09134">
        <ele>1194</ele>
        <time>2021-10-09 11:46:42</time>
      </trkpt>
      <trkpt lat="40.59876" lon="-2.09135">
        <ele>1194</ele>
        <time>2021-10-09 11:46:43</time>
      </trkpt>
      <trkpt lat="40.59873" lon="-2.09137">
        <ele>1194.2</ele>
        <time>2021-10-09 11:46:44</time>
      </trkpt>
      <trkpt lat="40.5987" lon="-2.09138">
        <ele>1194.2</ele>
        <time>2021-10-09 11:46:45</time>
      </trkpt>
      <trkpt lat="40.59867" lon="-2.0914">
        <ele>1194.2</ele>
        <time>2021-10-09 11:46:46</time>
      </trkpt>
      <trkpt lat="40.59863" lon="-2.09141">
        <ele>1194.2</ele>
        <time>2021-10-09 11:46:47</time>
      </trkpt>
      <trkpt lat="40.5986" lon="-2.09143">
        <ele>1194.2</ele>
        <time>2021-10-09 11:46:48</time>
      </trkpt>
      <trkpt lat="40.59857" lon="-2.09145">
        <ele>1194.2</ele>
        <time>2021-10-09 11:46:49</time>
      </trkpt>
      <trkpt lat="40.59854" lon="-2.09147">
        <ele>1194.4</ele>
        <time>2021-10-09 11:46:50</time>
      </trkpt>
      <trkpt lat="40.59851" lon="-2.09149">
        <ele>1194.4</ele>
        <time>2021-10-09 11:46:51</time>
      </trkpt>
      <trkpt lat="40.59847" lon="-2.09151">
        <ele>1194.6</ele>
        <time>2021-10-09 11:46:52</time>
      </trkpt>
      <trkpt lat="40.59844" lon="-2.09152">
        <ele>1194.6</ele>
        <time>2021-10-09 11:46:53</time>
      </trkpt>
      <trkpt lat="40.5984" lon="-2.09154">
        <ele>1194.6</ele>
        <time>2021-10-09 11:46:54</time>
      </trkpt>
      <trkpt lat="40.59836" lon="-2.09156">
        <ele>1195</ele>
        <time>2021-10-09 11:46:55</time>
      </trkpt>
      <trkpt lat="40.59833" lon="-2.09158">
        <ele>1195</ele>
        <time>2021-10-09 11:46:56</time>
      </trkpt>
      <trkpt lat="40.59829" lon="-2.0916">
        <ele>1195</ele>
        <time>2021-10-09 11:46:57</time>
      </trkpt>
      <trkpt lat="40.59826" lon="-2.09162">
        <ele>1195</ele>
        <time>2021-10-09 11:46:58</time>
      </trkpt>
      <trkpt lat="40.59822" lon="-2.09164">
        <ele>1195</ele>
        <time>2021-10-09 11:46:59</time>
      </trkpt>
      <trkpt lat="40.59818" lon="-2.09166">
        <ele>1195</ele>
        <time>2021-10-09 11:47:00</time>
      </trkpt>
      <trkpt lat="40.59815" lon="-2.09169">
        <ele>1195</ele>
        <time>2021-10-09 11:47:01</time>
      </trkpt>
      <trkpt lat="40.59811" lon="-2.09171">
        <ele>1195</ele>
        <time>2021-10-09 11:47:02</time>
      </trkpt>
      <trkpt lat="40.59807" lon="-2.09173">
        <ele>1195</ele>
        <time>2021-10-09 11:47:03</time>
      </trkpt>
      <trkpt lat="40.59804" lon="-2.09176">
        <ele>1195.2</ele>
        <time>2021-10-09 11:47:04</time>
      </trkpt>
      <trkpt lat="40.59799" lon="-2.09177">
        <ele>1195.2</ele>
        <time>2021-10-09 11:47:05</time>
      </trkpt>
      <trkpt lat="40.59795" lon="-2.0918">
        <ele>1195.2</ele>
        <time>2021-10-09 11:47:06</time>
      </trkpt>
      <trkpt lat="40.59791" lon="-2.09183">
        <ele>1195.2</ele>
        <time>2021-10-09 11:47:07</time>
      </trkpt>
      <trkpt lat="40.59787" lon="-2.09185">
        <ele>1195.2</ele>
        <time>2021-10-09 11:47:08</time>
      </trkpt>
      <trkpt lat="40.59783" lon="-2.09188">
        <ele>1195.2</ele>
        <time>2021-10-09 11:47:09</time>
      </trkpt>
      <trkpt lat="40.59778" lon="-2.09189">
        <ele>1195.2</ele>
        <time>2021-10-09 11:47:10</time>
      </trkpt>
      <trkpt lat="40.59774" lon="-2.09192">
        <ele>1195.2</ele>
        <time>2021-10-09 11:47:11</time>
      </trkpt>
      <trkpt lat="40.5977" lon="-2.09194">
        <ele>1194.8</ele>
        <time>2021-10-09 11:47:12</time>
      </trkpt>
      <trkpt lat="40.59766" lon="-2.09196">
        <ele>1194.8</ele>
        <time>2021-10-09 11:47:13</time>
      </trkpt>
      <trkpt lat="40.59762" lon="-2.09198">
        <ele>1194.6</ele>
        <time>2021-10-09 11:47:14</time>
      </trkpt>
      <trkpt lat="40.59758" lon="-2.09201">
        <ele>1194.6</ele>
        <time>2021-10-09 11:47:15</time>
      </trkpt>
      <trkpt lat="40.59754" lon="-2.09204">
        <ele>1194.6</ele>
        <time>2021-10-09 11:47:16</time>
      </trkpt>
      <trkpt lat="40.5975" lon="-2.09206">
        <ele>1194.6</ele>
        <time>2021-10-09 11:47:17</time>
      </trkpt>
      <trkpt lat="40.59745" lon="-2.09209">
        <ele>1194.6</ele>
        <time>2021-10-09 11:47:18</time>
      </trkpt>
      <trkpt lat="40.59741" lon="-2.09211">
        <ele>1194.6</ele>
        <time>2021-10-09 11:47:19</time>
      </trkpt>
      <trkpt lat="40.59736" lon="-2.09213">
        <ele>1194.6</ele>
        <time>2021-10-09 11:47:20</time>
      </trkpt>
      <trkpt lat="40.59731" lon="-2.09215">
        <ele>1195</ele>
        <time>2021-10-09 11:47:21</time>
      </trkpt>
      <trkpt lat="40.59727" lon="-2.09217">
        <ele>1195</ele>
        <time>2021-10-09 11:47:22</time>
      </trkpt>
      <trkpt lat="40.59722" lon="-2.09219">
        <ele>1195</ele>
        <time>2021-10-09 11:47:23</time>
      </trkpt>
      <trkpt lat="40.59718" lon="-2.09221">
        <ele>1195</ele>
        <time>2021-10-09 11:47:24</time>
      </trkpt>
      <trkpt lat="40.59713" lon="-2.09222">
        <ele>1195</ele>
        <time>2021-10-09 11:47:25</time>
      </trkpt>
      <trkpt lat="40.59708" lon="-2.09223">
        <ele>1195</ele>
        <time>2021-10-09 11:47:26</time>
      </trkpt>
      <trkpt lat="40.59704" lon="-2.09225">
        <ele>1195</ele>
        <time>2021-10-09 11:47:27</time>
      </trkpt>
      <trkpt lat="40.59699" lon="-2.09226">
        <ele>1195</ele>
        <time>2021-10-09 11:47:28</time>
      </trkpt>
      <trkpt lat="40.59694" lon="-2.09227">
        <ele>1195</ele>
        <time>2021-10-09 11:47:29</time>
      </trkpt>
      <trkpt lat="40.5969" lon="-2.09229">
        <ele>1195</ele>
        <time>2021-10-09 11:47:30</time>
      </trkpt>
      <trkpt lat="40.59685" lon="-2.0923">
        <ele>1195</ele>
        <time>2021-10-09 11:47:31</time>
      </trkpt>
      <trkpt lat="40.5968" lon="-2.09231">
        <ele>1195</ele>
        <time>2021-10-09 11:47:32</time>
      </trkpt>
      <trkpt lat="40.59675" lon="-2.09231">
        <ele>1194.6</ele>
        <time>2021-10-09 11:47:33</time>
      </trkpt>
      <trkpt lat="40.5967" lon="-2.09233">
        <ele>1194.6</ele>
        <time>2021-10-09 11:47:34</time>
      </trkpt>
      <trkpt lat="40.59664" lon="-2.09234">
        <ele>1194.6</ele>
        <time>2021-10-09 11:47:35</time>
      </trkpt>
      <trkpt lat="40.59659" lon="-2.09235">
        <ele>1194.6</ele>
        <time>2021-10-09 11:47:36</time>
      </trkpt>
      <trkpt lat="40.59654" lon="-2.09236">
        <ele>1194.6</ele>
        <time>2021-10-09 11:47:37</time>
      </trkpt>
      <trkpt lat="40.59649" lon="-2.09238">
        <ele>1194.6</ele>
        <time>2021-10-09 11:47:38</time>
      </trkpt>
      <trkpt lat="40.59644" lon="-2.09238">
        <ele>1194.6</ele>
        <time>2021-10-09 11:47:39</time>
      </trkpt>
      <trkpt lat="40.59639" lon="-2.0924">
        <ele>1194.6</ele>
        <time>2021-10-09 11:47:40</time>
      </trkpt>
      <trkpt lat="40.59634" lon="-2.09241">
        <ele>1194.6</ele>
        <time>2021-10-09 11:47:41</time>
      </trkpt>
      <trkpt lat="40.5963" lon="-2.09242">
        <ele>1194.4</ele>
        <time>2021-10-09 11:47:42</time>
      </trkpt>
      <trkpt lat="40.59625" lon="-2.09244">
        <ele>1194.4</ele>
        <time>2021-10-09 11:47:43</time>
      </trkpt>
      <trkpt lat="40.59619" lon="-2.09244">
        <ele>1194.4</ele>
        <time>2021-10-09 11:47:44</time>
      </trkpt>
      <trkpt lat="40.59615" lon="-2.09246">
        <ele>1194.4</ele>
        <time>2021-10-09 11:47:45</time>
      </trkpt>
      <trkpt lat="40.5961" lon="-2.09247">
        <ele>1194.6</ele>
        <time>2021-10-09 11:47:46</time>
      </trkpt>
      <trkpt lat="40.59605" lon="-2.09249">
        <ele>1194.6</ele>
        <time>2021-10-09 11:47:47</time>
      </trkpt>
      <trkpt lat="40.596" lon="-2.0925">
        <ele>1194.6</ele>
        <time>2021-10-09 11:47:48</time>
      </trkpt>
      <trkpt lat="40.59595" lon="-2.09251">
        <ele>1194.6</ele>
        <time>2021-10-09 11:47:49</time>
      </trkpt>
      <trkpt lat="40.59591" lon="-2.09254">
        <ele>1194.6</ele>
        <time>2021-10-09 11:47:50</time>
      </trkpt>
      <trkpt lat="40.59586" lon="-2.09255">
        <ele>1194.6</ele>
        <time>2021-10-09 11:47:51</time>
      </trkpt>
      <trkpt lat="40.59582" lon="-2.09257">
        <ele>1194.6</ele>
        <time>2021-10-09 11:47:52</time>
      </trkpt>
      <trkpt lat="40.59577" lon="-2.09259">
        <ele>1194.6</ele>
        <time>2021-10-09 11:47:53</time>
      </trkpt>
      <trkpt lat="40.59573" lon="-2.0926">
        <ele>1194.6</ele>
        <time>2021-10-09 11:47:54</time>
      </trkpt>
      <trkpt lat="40.59568" lon="-2.09262">
        <ele>1194.6</ele>
        <time>2021-10-09 11:47:55</time>
      </trkpt>
      <trkpt lat="40.59563" lon="-2.09264">
        <ele>1194.8</ele>
        <time>2021-10-09 11:47:56</time>
      </trkpt>
      <trkpt lat="40.59559" lon="-2.09266">
        <ele>1194.8</ele>
        <time>2021-10-09 11:47:57</time>
      </trkpt>
      <trkpt lat="40.59554" lon="-2.09268">
        <ele>1194.8</ele>
        <time>2021-10-09 11:47:58</time>
      </trkpt>
      <trkpt lat="40.59549" lon="-2.09271">
        <ele>1194.8</ele>
        <time>2021-10-09 11:47:59</time>
      </trkpt>
      <trkpt lat="40.59543" lon="-2.09273">
        <ele>1194.8</ele>
        <time>2021-10-09 11:48:00</time>
      </trkpt>
      <trkpt lat="40.59538" lon="-2.09276">
        <ele>1194.8</ele>
        <time>2021-10-09 11:48:01</time>
      </trkpt>
      <trkpt lat="40.59531" lon="-2.09279">
        <ele>1194.8</ele>
        <time>2021-10-09 11:48:02</time>
      </trkpt>
      <trkpt lat="40.59525" lon="-2.09282">
        <ele>1194.6</ele>
        <time>2021-10-09 11:48:03</time>
      </trkpt>
      <trkpt lat="40.59518" lon="-2.09285">
        <ele>1194.2</ele>
        <time>2021-10-09 11:48:04</time>
      </trkpt>
      <trkpt lat="40.59512" lon="-2.09288">
        <ele>1194</ele>
        <time>2021-10-09 11:48:05</time>
      </trkpt>
      <trkpt lat="40.59505" lon="-2.09292">
        <ele>1193.8</ele>
        <time>2021-10-09 11:48:06</time>
      </trkpt>
      <trkpt lat="40.59498" lon="-2.09295">
        <ele>1193.4</ele>
        <time>2021-10-09 11:48:07</time>
      </trkpt>
      <trkpt lat="40.5949" lon="-2.09299">
        <ele>1193.2</ele>
        <time>2021-10-09 11:48:08</time>
      </trkpt>
      <trkpt lat="40.59482" lon="-2.09302">
        <ele>1192.8</ele>
        <time>2021-10-09 11:48:09</time>
      </trkpt>
      <trkpt lat="40.59475" lon="-2.09306">
        <ele>1192.6</ele>
        <time>2021-10-09 11:48:10</time>
      </trkpt>
      <trkpt lat="40.59466" lon="-2.09309">
        <ele>1192.2</ele>
        <time>2021-10-09 11:48:11</time>
      </trkpt>
      <trkpt lat="40.59458" lon="-2.09312">
        <ele>1191.8</ele>
        <time>2021-10-09 11:48:12</time>
      </trkpt>
      <trkpt lat="40.59449" lon="-2.09315">
        <ele>1191.4</ele>
        <time>2021-10-09 11:48:13</time>
      </trkpt>
      <trkpt lat="40.59441" lon="-2.09319">
        <ele>1191.2</ele>
        <time>2021-10-09 11:48:14</time>
      </trkpt>
      <trkpt lat="40.59432" lon="-2.09321">
        <ele>1191</ele>
        <time>2021-10-09 11:48:15</time>
      </trkpt>
      <trkpt lat="40.59423" lon="-2.09324">
        <ele>1191</ele>
        <time>2021-10-09 11:48:16</time>
      </trkpt>
      <trkpt lat="40.59414" lon="-2.09328">
        <ele>1190.4</ele>
        <time>2021-10-09 11:48:17</time>
      </trkpt>
      <trkpt lat="40.59405" lon="-2.09331">
        <ele>1190</ele>
        <time>2021-10-09 11:48:18</time>
      </trkpt>
      <trkpt lat="40.59395" lon="-2.09333">
        <ele>1189.6</ele>
        <time>2021-10-09 11:48:19</time>
      </trkpt>
      <trkpt lat="40.59386" lon="-2.09337">
        <ele>1189</ele>
        <time>2021-10-09 11:48:20</time>
      </trkpt>
      <trkpt lat="40.59377" lon="-2.0934">
        <ele>1188.6</ele>
        <time>2021-10-09 11:48:21</time>
      </trkpt>
      <trkpt lat="40.59368" lon="-2.09343">
        <ele>1188.2</ele>
        <time>2021-10-09 11:48:22</time>
      </trkpt>
      <trkpt lat="40.59358" lon="-2.09346">
        <ele>1187.8</ele>
        <time>2021-10-09 11:48:23</time>
      </trkpt>
      <trkpt lat="40.59348" lon="-2.09349">
        <ele>1187</ele>
        <time>2021-10-09 11:48:24</time>
      </trkpt>
      <trkpt lat="40.59338" lon="-2.09352">
        <ele>1186.2</ele>
        <time>2021-10-09 11:48:25</time>
      </trkpt>
      <trkpt lat="40.59328" lon="-2.09355">
        <ele>1185.8</ele>
        <time>2021-10-09 11:48:26</time>
      </trkpt>
      <trkpt lat="40.59318" lon="-2.09358">
        <ele>1185.4</ele>
        <time>2021-10-09 11:48:27</time>
      </trkpt>
      <trkpt lat="40.59309" lon="-2.09361">
        <ele>1185</ele>
        <time>2021-10-09 11:48:28</time>
      </trkpt>
      <trkpt lat="40.59299" lon="-2.09364">
        <ele>1184.6</ele>
        <time>2021-10-09 11:48:29</time>
      </trkpt>
      <trkpt lat="40.5929" lon="-2.09368">
        <ele>1184</ele>
        <time>2021-10-09 11:48:30</time>
      </trkpt>
      <trkpt lat="40.59281" lon="-2.09371">
        <ele>1183.6</ele>
        <time>2021-10-09 11:48:31</time>
      </trkpt>
      <trkpt lat="40.59272" lon="-2.09375">
        <ele>1183.2</ele>
        <time>2021-10-09 11:48:32</time>
      </trkpt>
      <trkpt lat="40.59263" lon="-2.09379">
        <ele>1182.8</ele>
        <time>2021-10-09 11:48:33</time>
      </trkpt>
      <trkpt lat="40.59253" lon="-2.09382">
        <ele>1182.2</ele>
        <time>2021-10-09 11:48:34</time>
      </trkpt>
      <trkpt lat="40.59245" lon="-2.09386">
        <ele>1181.8</ele>
        <time>2021-10-09 11:48:35</time>
      </trkpt>
      <trkpt lat="40.59236" lon="-2.09389">
        <ele>1181.2</ele>
        <time>2021-10-09 11:48:36</time>
      </trkpt>
      <trkpt lat="40.59228" lon="-2.09394">
        <ele>1180.8</ele>
        <time>2021-10-09 11:48:37</time>
      </trkpt>
      <trkpt lat="40.5922" lon="-2.09397">
        <ele>1180.4</ele>
        <time>2021-10-09 11:48:38</time>
      </trkpt>
      <trkpt lat="40.59212" lon="-2.09402">
        <ele>1180</ele>
        <time>2021-10-09 11:48:39</time>
      </trkpt>
      <trkpt lat="40.59204" lon="-2.09405">
        <ele>1179.8</ele>
        <time>2021-10-09 11:48:40</time>
      </trkpt>
      <trkpt lat="40.59195" lon="-2.09406">
        <ele>1179.6</ele>
        <time>2021-10-09 11:48:41</time>
      </trkpt>
      <trkpt lat="40.59187" lon="-2.09408">
        <ele>1179.2</ele>
        <time>2021-10-09 11:48:42</time>
      </trkpt>
      <trkpt lat="40.59179" lon="-2.09409">
        <ele>1178.8</ele>
        <time>2021-10-09 11:48:43</time>
      </trkpt>
      <trkpt lat="40.5917" lon="-2.0941">
        <ele>1178.6</ele>
        <time>2021-10-09 11:48:44</time>
      </trkpt>
      <trkpt lat="40.59161" lon="-2.0941">
        <ele>1178.4</ele>
        <time>2021-10-09 11:48:45</time>
      </trkpt>
      <trkpt lat="40.59153" lon="-2.09409">
        <ele>1178.2</ele>
        <time>2021-10-09 11:48:46</time>
      </trkpt>
      <trkpt lat="40.59144" lon="-2.09409">
        <ele>1178.2</ele>
        <time>2021-10-09 11:48:47</time>
      </trkpt>
      <trkpt lat="40.59135" lon="-2.09408">
        <ele>1178.2</ele>
        <time>2021-10-09 11:48:48</time>
      </trkpt>
      <trkpt lat="40.59126" lon="-2.09407">
        <ele>1177.8</ele>
        <time>2021-10-09 11:48:49</time>
      </trkpt>
      <trkpt lat="40.59116" lon="-2.09406">
        <ele>1177.4</ele>
        <time>2021-10-09 11:48:50</time>
      </trkpt>
      <trkpt lat="40.59107" lon="-2.09405">
        <ele>1177</ele>
        <time>2021-10-09 11:48:51</time>
      </trkpt>
      <trkpt lat="40.59098" lon="-2.09403">
        <ele>1176.6</ele>
        <time>2021-10-09 11:48:52</time>
      </trkpt>
      <trkpt lat="40.59089" lon="-2.09401">
        <ele>1175.8</ele>
        <time>2021-10-09 11:48:53</time>
      </trkpt>
      <trkpt lat="40.5908" lon="-2.09398">
        <ele>1175.2</ele>
        <time>2021-10-09 11:48:54</time>
      </trkpt>
      <trkpt lat="40.59071" lon="-2.09394">
        <ele>1174.8</ele>
        <time>2021-10-09 11:48:55</time>
      </trkpt>
      <trkpt lat="40.59062" lon="-2.09391">
        <ele>1174.8</ele>
        <time>2021-10-09 11:48:56</time>
      </trkpt>
      <trkpt lat="40.59053" lon="-2.09387">
        <ele>1174.8</ele>
        <time>2021-10-09 11:48:57</time>
      </trkpt>
      <trkpt lat="40.59043" lon="-2.09383">
        <ele>1174.8</ele>
        <time>2021-10-09 11:48:58</time>
      </trkpt>
      <trkpt lat="40.59034" lon="-2.09379">
        <ele>1174.4</ele>
        <time>2021-10-09 11:48:59</time>
      </trkpt>
      <trkpt lat="40.59025" lon="-2.09375">
        <ele>1174.2</ele>
        <time>2021-10-09 11:49:00</time>
      </trkpt>
      <trkpt lat="40.59016" lon="-2.09371">
        <ele>1173.6</ele>
        <time>2021-10-09 11:49:01</time>
      </trkpt>
      <trkpt lat="40.59007" lon="-2.09367">
        <ele>1173.2</ele>
        <time>2021-10-09 11:49:02</time>
      </trkpt>
      <trkpt lat="40.58998" lon="-2.09363">
        <ele>1172.6</ele>
        <time>2021-10-09 11:49:03</time>
      </trkpt>
      <trkpt lat="40.5899" lon="-2.09359">
        <ele>1171.8</ele>
        <time>2021-10-09 11:49:04</time>
      </trkpt>
      <trkpt lat="40.58981" lon="-2.09354">
        <ele>1171.4</ele>
        <time>2021-10-09 11:49:05</time>
      </trkpt>
      <trkpt lat="40.58973" lon="-2.0935">
        <ele>1170.8</ele>
        <time>2021-10-09 11:49:06</time>
      </trkpt>
      <trkpt lat="40.58964" lon="-2.09346">
        <ele>1170.4</ele>
        <time>2021-10-09 11:49:07</time>
      </trkpt>
      <trkpt lat="40.58955" lon="-2.09342">
        <ele>1169.8</ele>
        <time>2021-10-09 11:49:08</time>
      </trkpt>
      <trkpt lat="40.58946" lon="-2.09337">
        <ele>1169.6</ele>
        <time>2021-10-09 11:49:09</time>
      </trkpt>
      <trkpt lat="40.58937" lon="-2.09333">
        <ele>1169.6</ele>
        <time>2021-10-09 11:49:10</time>
      </trkpt>
      <trkpt lat="40.58929" lon="-2.09328">
        <ele>1169.6</ele>
        <time>2021-10-09 11:49:11</time>
      </trkpt>
      <trkpt lat="40.5892" lon="-2.09324">
        <ele>1169.4</ele>
        <time>2021-10-09 11:49:12</time>
      </trkpt>
      <trkpt lat="40.58911" lon="-2.0932">
        <ele>1169.4</ele>
        <time>2021-10-09 11:49:13</time>
      </trkpt>
      <trkpt lat="40.58902" lon="-2.09316">
        <ele>1169.2</ele>
        <time>2021-10-09 11:49:14</time>
      </trkpt>
      <trkpt lat="40.58894" lon="-2.09312">
        <ele>1168.8</ele>
        <time>2021-10-09 11:49:15</time>
      </trkpt>
      <trkpt lat="40.58885" lon="-2.09308">
        <ele>1168.4</ele>
        <time>2021-10-09 11:49:16</time>
      </trkpt>
      <trkpt lat="40.58877" lon="-2.09305">
        <ele>1168</ele>
        <time>2021-10-09 11:49:17</time>
      </trkpt>
      <trkpt lat="40.58869" lon="-2.09301">
        <ele>1167.8</ele>
        <time>2021-10-09 11:49:18</time>
      </trkpt>
      <trkpt lat="40.5886" lon="-2.09299">
        <ele>1167.6</ele>
        <time>2021-10-09 11:49:19</time>
      </trkpt>
      <trkpt lat="40.58852" lon="-2.09296">
        <ele>1167.2</ele>
        <time>2021-10-09 11:49:20</time>
      </trkpt>
      <trkpt lat="40.58844" lon="-2.09294">
        <ele>1167</ele>
        <time>2021-10-09 11:49:21</time>
      </trkpt>
      <trkpt lat="40.58835" lon="-2.09291">
        <ele>1166.8</ele>
        <time>2021-10-09 11:49:22</time>
      </trkpt>
      <trkpt lat="40.58827" lon="-2.09289">
        <ele>1166.4</ele>
        <time>2021-10-09 11:49:23</time>
      </trkpt>
      <trkpt lat="40.58818" lon="-2.09286">
        <ele>1166.2</ele>
        <time>2021-10-09 11:49:24</time>
      </trkpt>
      <trkpt lat="40.58809" lon="-2.09283">
        <ele>1166.2</ele>
        <time>2021-10-09 11:49:25</time>
      </trkpt>
      <trkpt lat="40.588" lon="-2.0928">
        <ele>1165.6</ele>
        <time>2021-10-09 11:49:26</time>
      </trkpt>
      <trkpt lat="40.5879" lon="-2.09278">
        <ele>1165.2</ele>
        <time>2021-10-09 11:49:27</time>
      </trkpt>
      <trkpt lat="40.58781" lon="-2.09274">
        <ele>1164.8</ele>
        <time>2021-10-09 11:49:28</time>
      </trkpt>
      <trkpt lat="40.58772" lon="-2.09271">
        <ele>1164.4</ele>
        <time>2021-10-09 11:49:29</time>
      </trkpt>
      <trkpt lat="40.58763" lon="-2.09269">
        <ele>1164.2</ele>
        <time>2021-10-09 11:49:30</time>
      </trkpt>
      <trkpt lat="40.58753" lon="-2.09266">
        <ele>1163.8</ele>
        <time>2021-10-09 11:49:31</time>
      </trkpt>
      <trkpt lat="40.58743" lon="-2.09263">
        <ele>1163.4</ele>
        <time>2021-10-09 11:49:32</time>
      </trkpt>
      <trkpt lat="40.58733" lon="-2.09262">
        <ele>1162.8</ele>
        <time>2021-10-09 11:49:33</time>
      </trkpt>
      <trkpt lat="40.58723" lon="-2.0926">
        <ele>1162.4</ele>
        <time>2021-10-09 11:49:34</time>
      </trkpt>
      <trkpt lat="40.58714" lon="-2.09259">
        <ele>1161.8</ele>
        <time>2021-10-09 11:49:35</time>
      </trkpt>
      <trkpt lat="40.58704" lon="-2.09259">
        <ele>1161.4</ele>
        <time>2021-10-09 11:49:36</time>
      </trkpt>
      <trkpt lat="40.58695" lon="-2.09259">
        <ele>1161.2</ele>
        <time>2021-10-09 11:49:37</time>
      </trkpt>
      <trkpt lat="40.58686" lon="-2.09259">
        <ele>1161</ele>
        <time>2021-10-09 11:49:38</time>
      </trkpt>
      <trkpt lat="40.58677" lon="-2.09259">
        <ele>1161</ele>
        <time>2021-10-09 11:49:39</time>
      </trkpt>
      <trkpt lat="40.58668" lon="-2.09259">
        <ele>1160.6</ele>
        <time>2021-10-09 11:49:40</time>
      </trkpt>
      <trkpt lat="40.5866" lon="-2.09259">
        <ele>1160.2</ele>
        <time>2021-10-09 11:49:41</time>
      </trkpt>
      <trkpt lat="40.58651" lon="-2.09259">
        <ele>1159.8</ele>
        <time>2021-10-09 11:49:42</time>
      </trkpt>
      <trkpt lat="40.58643" lon="-2.09259">
        <ele>1159.4</ele>
        <time>2021-10-09 11:49:43</time>
      </trkpt>
      <trkpt lat="40.58635" lon="-2.09259">
        <ele>1159.2</ele>
        <time>2021-10-09 11:49:44</time>
      </trkpt>
      <trkpt lat="40.58627" lon="-2.09258">
        <ele>1158.8</ele>
        <time>2021-10-09 11:49:45</time>
      </trkpt>
      <trkpt lat="40.5862" lon="-2.09258">
        <ele>1158.6</ele>
        <time>2021-10-09 11:49:46</time>
      </trkpt>
      <trkpt lat="40.58613" lon="-2.09257">
        <ele>1158.6</ele>
        <time>2021-10-09 11:49:47</time>
      </trkpt>
      <trkpt lat="40.58606" lon="-2.09257">
        <ele>1158.4</ele>
        <time>2021-10-09 11:49:48</time>
      </trkpt>
      <trkpt lat="40.58599" lon="-2.09255">
        <ele>1158.4</ele>
        <time>2021-10-09 11:49:49</time>
      </trkpt>
      <trkpt lat="40.58593" lon="-2.09254">
        <ele>1158</ele>
        <time>2021-10-09 11:49:50</time>
      </trkpt>
      <trkpt lat="40.58587" lon="-2.09253">
        <ele>1158</ele>
        <time>2021-10-09 11:49:51</time>
      </trkpt>
      <trkpt lat="40.58582" lon="-2.09252">
        <ele>1158</ele>
        <time>2021-10-09 11:49:52</time>
      </trkpt>
      <trkpt lat="40.58576" lon="-2.0925">
        <ele>1157.8</ele>
        <time>2021-10-09 11:49:53</time>
      </trkpt>
      <trkpt lat="40.58571" lon="-2.09248">
        <ele>1157.8</ele>
        <time>2021-10-09 11:49:54</time>
      </trkpt>
      <trkpt lat="40.58565" lon="-2.09247">
        <ele>1157.8</ele>
        <time>2021-10-09 11:49:55</time>
      </trkpt>
      <trkpt lat="40.5856" lon="-2.09245">
        <ele>1158</ele>
        <time>2021-10-09 11:49:56</time>
      </trkpt>
      <trkpt lat="40.58555" lon="-2.09243">
        <ele>1158</ele>
        <time>2021-10-09 11:49:57</time>
      </trkpt>
      <trkpt lat="40.5855" lon="-2.0924">
        <ele>1158.2</ele>
        <time>2021-10-09 11:49:58</time>
      </trkpt>
      <trkpt lat="40.58546" lon="-2.09238">
        <ele>1158.2</ele>
        <time>2021-10-09 11:49:59</time>
      </trkpt>
      <trkpt lat="40.58542" lon="-2.09236">
        <ele>1158.2</ele>
        <time>2021-10-09 11:50:00</time>
      </trkpt>
      <trkpt lat="40.58537" lon="-2.09234">
        <ele>1158.4</ele>
        <time>2021-10-09 11:50:01</time>
      </trkpt>
      <trkpt lat="40.58534" lon="-2.09232">
        <ele>1158.4</ele>
        <time>2021-10-09 11:50:02</time>
      </trkpt>
      <trkpt lat="40.5853" lon="-2.0923">
        <ele>1158.4</ele>
        <time>2021-10-09 11:50:03</time>
      </trkpt>
      <trkpt lat="40.58527" lon="-2.09228">
        <ele>1158.4</ele>
        <time>2021-10-09 11:50:04</time>
      </trkpt>
      <trkpt lat="40.58524" lon="-2.09225">
        <ele>1158.4</ele>
        <time>2021-10-09 11:50:05</time>
      </trkpt>
      <trkpt lat="40.5852" lon="-2.09223">
        <ele>1158.4</ele>
        <time>2021-10-09 11:50:06</time>
      </trkpt>
      <trkpt lat="40.58517" lon="-2.09221">
        <ele>1158.8</ele>
        <time>2021-10-09 11:50:07</time>
      </trkpt>
      <trkpt lat="40.58513" lon="-2.09219">
        <ele>1158.8</ele>
        <time>2021-10-09 11:50:08</time>
      </trkpt>
      <trkpt lat="40.5851" lon="-2.09216">
        <ele>1159</ele>
        <time>2021-10-09 11:50:09</time>
      </trkpt>
      <trkpt lat="40.58506" lon="-2.09213">
        <ele>1159</ele>
        <time>2021-10-09 11:50:10</time>
      </trkpt>
      <trkpt lat="40.58502" lon="-2.0921">
        <ele>1159.4</ele>
        <time>2021-10-09 11:50:11</time>
      </trkpt>
      <trkpt lat="40.58498" lon="-2.09207">
        <ele>1159.4</ele>
        <time>2021-10-09 11:50:12</time>
      </trkpt>
      <trkpt lat="40.58494" lon="-2.09204">
        <ele>1159.4</ele>
        <time>2021-10-09 11:50:13</time>
      </trkpt>
      <trkpt lat="40.58491" lon="-2.09202">
        <ele>1159.6</ele>
        <time>2021-10-09 11:50:14</time>
      </trkpt>
      <trkpt lat="40.58487" lon="-2.09199">
        <ele>1159.6</ele>
        <time>2021-10-09 11:50:15</time>
      </trkpt>
      <trkpt lat="40.58483" lon="-2.09195">
        <ele>1159.8</ele>
        <time>2021-10-09 11:50:16</time>
      </trkpt>
      <trkpt lat="40.5848" lon="-2.09191">
        <ele>1159.8</ele>
        <time>2021-10-09 11:50:17</time>
      </trkpt>
      <trkpt lat="40.58476" lon="-2.09187">
        <ele>1159.8</ele>
        <time>2021-10-09 11:50:18</time>
      </trkpt>
      <trkpt lat="40.58472" lon="-2.09184">
        <ele>1159.8</ele>
        <time>2021-10-09 11:50:19</time>
      </trkpt>
      <trkpt lat="40.58468" lon="-2.09181">
        <ele>1160</ele>
        <time>2021-10-09 11:50:20</time>
      </trkpt>
      <trkpt lat="40.58465" lon="-2.09177">
        <ele>1160</ele>
        <time>2021-10-09 11:50:21</time>
      </trkpt>
      <trkpt lat="40.58461" lon="-2.09173">
        <ele>1160.4</ele>
        <time>2021-10-09 11:50:22</time>
      </trkpt>
      <trkpt lat="40.58458" lon="-2.09168">
        <ele>1160.4</ele>
        <time>2021-10-09 11:50:23</time>
      </trkpt>
      <trkpt lat="40.58455" lon="-2.09165">
        <ele>1160.6</ele>
        <time>2021-10-09 11:50:24</time>
      </trkpt>
      <trkpt lat="40.58452" lon="-2.09162">
        <ele>1160.6</ele>
        <time>2021-10-09 11:50:25</time>
      </trkpt>
      <trkpt lat="40.58449" lon="-2.09158">
        <ele>1161</ele>
        <time>2021-10-09 11:50:26</time>
      </trkpt>
      <trkpt lat="40.58447" lon="-2.09153">
        <ele>1161</ele>
        <time>2021-10-09 11:50:27</time>
      </trkpt>
      <trkpt lat="40.58444" lon="-2.09148">
        <ele>1161.4</ele>
        <time>2021-10-09 11:50:28</time>
      </trkpt>
      <trkpt lat="40.58441" lon="-2.09144">
        <ele>1161.6</ele>
        <time>2021-10-09 11:50:29</time>
      </trkpt>
      <trkpt lat="40.58438" lon="-2.0914">
        <ele>1161.8</ele>
        <time>2021-10-09 11:50:30</time>
      </trkpt>
      <trkpt lat="40.58435" lon="-2.09135">
        <ele>1162</ele>
        <time>2021-10-09 11:50:31</time>
      </trkpt>
      <trkpt lat="40.58432" lon="-2.0913">
        <ele>1162.4</ele>
        <time>2021-10-09 11:50:32</time>
      </trkpt>
      <trkpt lat="40.5843" lon="-2.09126">
        <ele>1162.4</ele>
        <time>2021-10-09 11:50:33</time>
      </trkpt>
      <trkpt lat="40.58427" lon="-2.09121">
        <ele>1162.6</ele>
        <time>2021-10-09 11:50:34</time>
      </trkpt>
      <trkpt lat="40.58424" lon="-2.09116">
        <ele>1162.6</ele>
        <time>2021-10-09 11:50:35</time>
      </trkpt>
      <trkpt lat="40.58421" lon="-2.09111">
        <ele>1162.8</ele>
        <time>2021-10-09 11:50:36</time>
      </trkpt>
      <trkpt lat="40.58419" lon="-2.09107">
        <ele>1162.8</ele>
        <time>2021-10-09 11:50:37</time>
      </trkpt>
      <trkpt lat="40.58417" lon="-2.09102">
        <ele>1162.8</ele>
        <time>2021-10-09 11:50:38</time>
      </trkpt>
      <trkpt lat="40.58414" lon="-2.09098">
        <ele>1162.8</ele>
        <time>2021-10-09 11:50:39</time>
      </trkpt>
      <trkpt lat="40.58412" lon="-2.09093">
        <ele>1162.8</ele>
        <time>2021-10-09 11:50:40</time>
      </trkpt>
      <trkpt lat="40.58409" lon="-2.09089">
        <ele>1162.8</ele>
        <time>2021-10-09 11:50:41</time>
      </trkpt>
      <trkpt lat="40.58406" lon="-2.09085">
        <ele>1162.8</ele>
        <time>2021-10-09 11:50:42</time>
      </trkpt>
      <trkpt lat="40.58405" lon="-2.0908">
        <ele>1162.8</ele>
        <time>2021-10-09 11:50:43</time>
      </trkpt>
      <trkpt lat="40.58403" lon="-2.09075">
        <ele>1162.6</ele>
        <time>2021-10-09 11:50:44</time>
      </trkpt>
      <trkpt lat="40.584" lon="-2.0907">
        <ele>1162.6</ele>
        <time>2021-10-09 11:50:45</time>
      </trkpt>
      <trkpt lat="40.58398" lon="-2.09066">
        <ele>1162.6</ele>
        <time>2021-10-09 11:50:46</time>
      </trkpt>
      <trkpt lat="40.58396" lon="-2.09061">
        <ele>1162.6</ele>
        <time>2021-10-09 11:50:47</time>
      </trkpt>
      <trkpt lat="40.58394" lon="-2.09057">
        <ele>1163</ele>
        <time>2021-10-09 11:50:48</time>
      </trkpt>
      <trkpt lat="40.58391" lon="-2.09052">
        <ele>1163</ele>
        <time>2021-10-09 11:50:49</time>
      </trkpt>
      <trkpt lat="40.58389" lon="-2.09048">
        <ele>1163.2</ele>
        <time>2021-10-09 11:50:50</time>
      </trkpt>
      <trkpt lat="40.58387" lon="-2.09044">
        <ele>1163.2</ele>
        <time>2021-10-09 11:50:51</time>
      </trkpt>
      <trkpt lat="40.58385" lon="-2.0904">
        <ele>1163.4</ele>
        <time>2021-10-09 11:50:52</time>
      </trkpt>
      <trkpt lat="40.58383" lon="-2.09035">
        <ele>1163.4</ele>
        <time>2021-10-09 11:50:53</time>
      </trkpt>
      <trkpt lat="40.58381" lon="-2.09031">
        <ele>1163.4</ele>
        <time>2021-10-09 11:50:54</time>
      </trkpt>
      <trkpt lat="40.58379" lon="-2.09027">
        <ele>1163.4</ele>
        <time>2021-10-09 11:50:55</time>
      </trkpt>
      <trkpt lat="40.58378" lon="-2.09024">
        <ele>1163.4</ele>
        <time>2021-10-09 11:50:56</time>
      </trkpt>
      <trkpt lat="40.58376" lon="-2.09019">
        <ele>1163.2</ele>
        <time>2021-10-09 11:50:57</time>
      </trkpt>
      <trkpt lat="40.58374" lon="-2.09015">
        <ele>1163.2</ele>
        <time>2021-10-09 11:50:58</time>
      </trkpt>
      <trkpt lat="40.58373" lon="-2.09011">
        <ele>1163.2</ele>
        <time>2021-10-09 11:50:59</time>
      </trkpt>
      <trkpt lat="40.58371" lon="-2.09006">
        <ele>1163.2</ele>
        <time>2021-10-09 11:51:00</time>
      </trkpt>
      <trkpt lat="40.58369" lon="-2.09003">
        <ele>1163.2</ele>
        <time>2021-10-09 11:51:01</time>
      </trkpt>
      <trkpt lat="40.58366" lon="-2.08999">
        <ele>1163.2</ele>
        <time>2021-10-09 11:51:02</time>
      </trkpt>
      <trkpt lat="40.58364" lon="-2.08995">
        <ele>1163.2</ele>
        <time>2021-10-09 11:51:03</time>
      </trkpt>
      <trkpt lat="40.58361" lon="-2.08992">
        <ele>1163.2</ele>
        <time>2021-10-09 11:51:04</time>
      </trkpt>
      <trkpt lat="40.58359" lon="-2.08988">
        <ele>1163.4</ele>
        <time>2021-10-09 11:51:05</time>
      </trkpt>
      <trkpt lat="40.58358" lon="-2.08984">
        <ele>1163.4</ele>
        <time>2021-10-09 11:51:06</time>
      </trkpt>
      <trkpt lat="40.58357" lon="-2.0898">
        <ele>1163.6</ele>
        <time>2021-10-09 11:51:07</time>
      </trkpt>
      <trkpt lat="40.58356" lon="-2.08976">
        <ele>1163.6</ele>
        <time>2021-10-09 11:51:08</time>
      </trkpt>
      <trkpt lat="40.58354" lon="-2.08973">
        <ele>1164</ele>
        <time>2021-10-09 11:51:09</time>
      </trkpt>
      <trkpt lat="40.58353" lon="-2.0897">
        <ele>1164</ele>
        <time>2021-10-09 11:51:10</time>
      </trkpt>
      <trkpt lat="40.58351" lon="-2.08967">
        <ele>1164.2</ele>
        <time>2021-10-09 11:51:11</time>
      </trkpt>
      <trkpt lat="40.5835" lon="-2.08963">
        <ele>1164.2</ele>
        <time>2021-10-09 11:51:12</time>
      </trkpt>
      <trkpt lat="40.58348" lon="-2.08959">
        <ele>1164.2</ele>
        <time>2021-10-09 11:51:13</time>
      </trkpt>
      <trkpt lat="40.58346" lon="-2.08955">
        <ele>1164.6</ele>
        <time>2021-10-09 11:51:14</time>
      </trkpt>
      <trkpt lat="40.58345" lon="-2.0895">
        <ele>1164.6</ele>
        <time>2021-10-09 11:51:15</time>
      </trkpt>
      <trkpt lat="40.58343" lon="-2.08946">
        <ele>1165</ele>
        <time>2021-10-09 11:51:16</time>
      </trkpt>
      <trkpt lat="40.58341" lon="-2.08942">
        <ele>1165</ele>
        <time>2021-10-09 11:51:17</time>
      </trkpt>
      <trkpt lat="40.5834" lon="-2.08939">
        <ele>1165.6</ele>
        <time>2021-10-09 11:51:18</time>
      </trkpt>
      <trkpt lat="40.58338" lon="-2.08934">
        <ele>1165.8</ele>
        <time>2021-10-09 11:51:19</time>
      </trkpt>
      <trkpt lat="40.58336" lon="-2.0893">
        <ele>1165.8</ele>
        <time>2021-10-09 11:51:20</time>
      </trkpt>
      <trkpt lat="40.58334" lon="-2.08926">
        <ele>1166.2</ele>
        <time>2021-10-09 11:51:21</time>
      </trkpt>
      <trkpt lat="40.58333" lon="-2.08922">
        <ele>1166.4</ele>
        <time>2021-10-09 11:51:22</time>
      </trkpt>
      <trkpt lat="40.58331" lon="-2.08918">
        <ele>1166.4</ele>
        <time>2021-10-09 11:51:23</time>
      </trkpt>
      <trkpt lat="40.58329" lon="-2.08914">
        <ele>1166.8</ele>
        <time>2021-10-09 11:51:24</time>
      </trkpt>
      <trkpt lat="40.58327" lon="-2.0891">
        <ele>1166.8</ele>
        <time>2021-10-09 11:51:25</time>
      </trkpt>
      <trkpt lat="40.58325" lon="-2.08906">
        <ele>1167</ele>
        <time>2021-10-09 11:51:26</time>
      </trkpt>
      <trkpt lat="40.58324" lon="-2.08902">
        <ele>1167.2</ele>
        <time>2021-10-09 11:51:27</time>
      </trkpt>
      <trkpt lat="40.58322" lon="-2.08898">
        <ele>1167.6</ele>
        <time>2021-10-09 11:51:28</time>
      </trkpt>
      <trkpt lat="40.5832" lon="-2.08893">
        <ele>1167.8</ele>
        <time>2021-10-09 11:51:29</time>
      </trkpt>
      <trkpt lat="40.58318" lon="-2.08889">
        <ele>1167.8</ele>
        <time>2021-10-09 11:51:30</time>
      </trkpt>
      <trkpt lat="40.58316" lon="-2.08885">
        <ele>1168.2</ele>
        <time>2021-10-09 11:51:31</time>
      </trkpt>
      <trkpt lat="40.58315" lon="-2.08882">
        <ele>1168.4</ele>
        <time>2021-10-09 11:51:32</time>
      </trkpt>
      <trkpt lat="40.58313" lon="-2.08878">
        <ele>1168.4</ele>
        <time>2021-10-09 11:51:33</time>
      </trkpt>
      <trkpt lat="40.58311" lon="-2.08873">
        <ele>1168.8</ele>
        <time>2021-10-09 11:51:34</time>
      </trkpt>
      <trkpt lat="40.58309" lon="-2.08869">
        <ele>1168.8</ele>
        <time>2021-10-09 11:51:35</time>
      </trkpt>
      <trkpt lat="40.58308" lon="-2.08865">
        <ele>1169.2</ele>
        <time>2021-10-09 11:51:36</time>
      </trkpt>
      <trkpt lat="40.58306" lon="-2.0886">
        <ele>1169.2</ele>
        <time>2021-10-09 11:51:37</time>
      </trkpt>
      <trkpt lat="40.58305" lon="-2.08856">
        <ele>1169.6</ele>
        <time>2021-10-09 11:51:38</time>
      </trkpt>
      <trkpt lat="40.58303" lon="-2.08853">
        <ele>1169.8</ele>
        <time>2021-10-09 11:51:39</time>
      </trkpt>
      <trkpt lat="40.583" lon="-2.0885">
        <ele>1170.2</ele>
        <time>2021-10-09 11:51:40</time>
      </trkpt>
      <trkpt lat="40.58298" lon="-2.08846">
        <ele>1170.2</ele>
        <time>2021-10-09 11:51:41</time>
      </trkpt>
      <trkpt lat="40.58296" lon="-2.08842">
        <ele>1170.4</ele>
        <time>2021-10-09 11:51:42</time>
      </trkpt>
      <trkpt lat="40.58295" lon="-2.08838">
        <ele>1170.6</ele>
        <time>2021-10-09 11:51:43</time>
      </trkpt>
      <trkpt lat="40.58293" lon="-2.08834">
        <ele>1170.6</ele>
        <time>2021-10-09 11:51:44</time>
      </trkpt>
      <trkpt lat="40.58292" lon="-2.08829">
        <ele>1170.8</ele>
        <time>2021-10-09 11:51:45</time>
      </trkpt>
      <trkpt lat="40.58291" lon="-2.08825">
        <ele>1170.8</ele>
        <time>2021-10-09 11:51:46</time>
      </trkpt>
      <trkpt lat="40.58289" lon="-2.08821">
        <ele>1171.2</ele>
        <time>2021-10-09 11:51:47</time>
      </trkpt>
      <trkpt lat="40.58287" lon="-2.08817">
        <ele>1171.2</ele>
        <time>2021-10-09 11:51:48</time>
      </trkpt>
      <trkpt lat="40.58286" lon="-2.08813">
        <ele>1171.4</ele>
        <time>2021-10-09 11:51:49</time>
      </trkpt>
      <trkpt lat="40.58283" lon="-2.08808">
        <ele>1171.4</ele>
        <time>2021-10-09 11:51:50</time>
      </trkpt>
      <trkpt lat="40.58281" lon="-2.08804">
        <ele>1171.4</ele>
        <time>2021-10-09 11:51:51</time>
      </trkpt>
      <trkpt lat="40.58278" lon="-2.08799">
        <ele>1171.6</ele>
        <time>2021-10-09 11:51:52</time>
      </trkpt>
      <trkpt lat="40.58276" lon="-2.08795">
        <ele>1171.6</ele>
        <time>2021-10-09 11:51:53</time>
      </trkpt>
      <trkpt lat="40.58273" lon="-2.08791">
        <ele>1171.6</ele>
        <time>2021-10-09 11:51:54</time>
      </trkpt>
      <trkpt lat="40.5827" lon="-2.08786">
        <ele>1171.6</ele>
        <time>2021-10-09 11:51:55</time>
      </trkpt>
      <trkpt lat="40.58268" lon="-2.08782">
        <ele>1171.6</ele>
        <time>2021-10-09 11:51:56</time>
      </trkpt>
      <trkpt lat="40.58264" lon="-2.08777">
        <ele>1172</ele>
        <time>2021-10-09 11:51:57</time>
      </trkpt>
      <trkpt lat="40.58262" lon="-2.08772">
        <ele>1172</ele>
        <time>2021-10-09 11:51:58</time>
      </trkpt>
      <trkpt lat="40.58259" lon="-2.08767">
        <ele>1172</ele>
        <time>2021-10-09 11:51:59</time>
      </trkpt>
      <trkpt lat="40.58256" lon="-2.08763">
        <ele>1172</ele>
        <time>2021-10-09 11:52:00</time>
      </trkpt>
      <trkpt lat="40.58253" lon="-2.08758">
        <ele>1172</ele>
        <time>2021-10-09 11:52:01</time>
      </trkpt>
      <trkpt lat="40.5825" lon="-2.08753">
        <ele>1172</ele>
        <time>2021-10-09 11:52:02</time>
      </trkpt>
      <trkpt lat="40.58248" lon="-2.08748">
        <ele>1172</ele>
        <time>2021-10-09 11:52:03</time>
      </trkpt>
      <trkpt lat="40.58244" lon="-2.08743">
        <ele>1172</ele>
        <time>2021-10-09 11:52:04</time>
      </trkpt>
      <trkpt lat="40.58241" lon="-2.08738">
        <ele>1172</ele>
        <time>2021-10-09 11:52:05</time>
      </trkpt>
      <trkpt lat="40.58238" lon="-2.08733">
        <ele>1172</ele>
        <time>2021-10-09 11:52:06</time>
      </trkpt>
      <trkpt lat="40.58236" lon="-2.08727">
        <ele>1172</ele>
        <time>2021-10-09 11:52:07</time>
      </trkpt>
      <trkpt lat="40.58233" lon="-2.08723">
        <ele>1172</ele>
        <time>2021-10-09 11:52:08</time>
      </trkpt>
      <trkpt lat="40.5823" lon="-2.08717">
        <ele>1172</ele>
        <time>2021-10-09 11:52:09</time>
      </trkpt>
      <trkpt lat="40.58228" lon="-2.08712">
        <ele>1172</ele>
        <time>2021-10-09 11:52:10</time>
      </trkpt>
      <trkpt lat="40.58225" lon="-2.08707">
        <ele>1172</ele>
        <time>2021-10-09 11:52:11</time>
      </trkpt>
      <trkpt lat="40.58223" lon="-2.08702">
        <ele>1172</ele>
        <time>2021-10-09 11:52:12</time>
      </trkpt>
      <trkpt lat="40.5822" lon="-2.08697">
        <ele>1172</ele>
        <time>2021-10-09 11:52:13</time>
      </trkpt>
      <trkpt lat="40.58218" lon="-2.08692">
        <ele>1172</ele>
        <time>2021-10-09 11:52:14</time>
      </trkpt>
      <trkpt lat="40.58216" lon="-2.08687">
        <ele>1171.8</ele>
        <time>2021-10-09 11:52:15</time>
      </trkpt>
      <trkpt lat="40.58214" lon="-2.08681">
        <ele>1171.8</ele>
        <time>2021-10-09 11:52:16</time>
      </trkpt>
      <trkpt lat="40.58212" lon="-2.08675">
        <ele>1171.8</ele>
        <time>2021-10-09 11:52:17</time>
      </trkpt>
      <trkpt lat="40.5821" lon="-2.0867">
        <ele>1171.8</ele>
        <time>2021-10-09 11:52:18</time>
      </trkpt>
      <trkpt lat="40.58208" lon="-2.08665">
        <ele>1171.8</ele>
        <time>2021-10-09 11:52:19</time>
      </trkpt>
      <trkpt lat="40.58206" lon="-2.08659">
        <ele>1172</ele>
        <time>2021-10-09 11:52:20</time>
      </trkpt>
      <trkpt lat="40.58204" lon="-2.08653">
        <ele>1172</ele>
        <time>2021-10-09 11:52:21</time>
      </trkpt>
      <trkpt lat="40.58201" lon="-2.08647">
        <ele>1172</ele>
        <time>2021-10-09 11:52:22</time>
      </trkpt>
      <trkpt lat="40.58199" lon="-2.0864">
        <ele>1172</ele>
        <time>2021-10-09 11:52:23</time>
      </trkpt>
      <trkpt lat="40.58197" lon="-2.08633">
        <ele>1172</ele>
        <time>2021-10-09 11:52:24</time>
      </trkpt>
      <trkpt lat="40.58195" lon="-2.08626">
        <ele>1172</ele>
        <time>2021-10-09 11:52:25</time>
      </trkpt>
      <trkpt lat="40.58193" lon="-2.0862">
        <ele>1172</ele>
        <time>2021-10-09 11:52:26</time>
      </trkpt>
      <trkpt lat="40.5819" lon="-2.08614">
        <ele>1172</ele>
        <time>2021-10-09 11:52:27</time>
      </trkpt>
      <trkpt lat="40.58188" lon="-2.08607">
        <ele>1172</ele>
        <time>2021-10-09 11:52:28</time>
      </trkpt>
      <trkpt lat="40.58186" lon="-2.086">
        <ele>1172</ele>
        <time>2021-10-09 11:52:29</time>
      </trkpt>
      <trkpt lat="40.58184" lon="-2.08593">
        <ele>1172</ele>
        <time>2021-10-09 11:52:30</time>
      </trkpt>
      <trkpt lat="40.58182" lon="-2.08587">
        <ele>1171.8</ele>
        <time>2021-10-09 11:52:31</time>
      </trkpt>
      <trkpt lat="40.58181" lon="-2.08581">
        <ele>1171.8</ele>
        <time>2021-10-09 11:52:32</time>
      </trkpt>
      <trkpt lat="40.58178" lon="-2.08574">
        <ele>1171.4</ele>
        <time>2021-10-09 11:52:33</time>
      </trkpt>
      <trkpt lat="40.58177" lon="-2.08568">
        <ele>1171.4</ele>
        <time>2021-10-09 11:52:34</time>
      </trkpt>
      <trkpt lat="40.58175" lon="-2.08561">
        <ele>1171.4</ele>
        <time>2021-10-09 11:52:35</time>
      </trkpt>
      <trkpt lat="40.58173" lon="-2.08555">
        <ele>1171.4</ele>
        <time>2021-10-09 11:52:36</time>
      </trkpt>
      <trkpt lat="40.58171" lon="-2.08548">
        <ele>1171.2</ele>
        <time>2021-10-09 11:52:37</time>
      </trkpt>
      <trkpt lat="40.5817" lon="-2.08541">
        <ele>1171.2</ele>
        <time>2021-10-09 11:52:38</time>
      </trkpt>
      <trkpt lat="40.58169" lon="-2.08535">
        <ele>1171.2</ele>
        <time>2021-10-09 11:52:39</time>
      </trkpt>
      <trkpt lat="40.58167" lon="-2.08529">
        <ele>1171.2</ele>
        <time>2021-10-09 11:52:40</time>
      </trkpt>
      <trkpt lat="40.58165" lon="-2.08522">
        <ele>1171.2</ele>
        <time>2021-10-09 11:52:41</time>
      </trkpt>
      <trkpt lat="40.58164" lon="-2.08516">
        <ele>1171.2</ele>
        <time>2021-10-09 11:52:42</time>
      </trkpt>
      <trkpt lat="40.58162" lon="-2.0851">
        <ele>1171.2</ele>
        <time>2021-10-09 11:52:43</time>
      </trkpt>
      <trkpt lat="40.58161" lon="-2.08504">
        <ele>1171.2</ele>
        <time>2021-10-09 11:52:44</time>
      </trkpt>
      <trkpt lat="40.5816" lon="-2.08498">
        <ele>1171.2</ele>
        <time>2021-10-09 11:52:45</time>
      </trkpt>
      <trkpt lat="40.58159" lon="-2.08492">
        <ele>1171.2</ele>
        <time>2021-10-09 11:52:46</time>
      </trkpt>
      <trkpt lat="40.58158" lon="-2.08486">
        <ele>1171.2</ele>
        <time>2021-10-09 11:52:47</time>
      </trkpt>
      <trkpt lat="40.58158" lon="-2.08481">
        <ele>1171.2</ele>
        <time>2021-10-09 11:52:48</time>
      </trkpt>
      <trkpt lat="40.58157" lon="-2.08476">
        <ele>1171.2</ele>
        <time>2021-10-09 11:52:49</time>
      </trkpt>
      <trkpt lat="40.58156" lon="-2.08471">
        <ele>1171.2</ele>
        <time>2021-10-09 11:52:50</time>
      </trkpt>
      <trkpt lat="40.58156" lon="-2.08466">
        <ele>1171.2</ele>
        <time>2021-10-09 11:52:51</time>
      </trkpt>
      <trkpt lat="40.58155" lon="-2.08462">
        <ele>1171.2</ele>
        <time>2021-10-09 11:52:52</time>
      </trkpt>
      <trkpt lat="40.58153" lon="-2.08458">
        <ele>1171.2</ele>
        <time>2021-10-09 11:52:53</time>
      </trkpt>
      <trkpt lat="40.58152" lon="-2.08454">
        <ele>1171.2</ele>
        <time>2021-10-09 11:52:54</time>
      </trkpt>
      <trkpt lat="40.58152" lon="-2.08451">
        <ele>1171.2</ele>
        <time>2021-10-09 11:52:55</time>
      </trkpt>
      <trkpt lat="40.58152" lon="-2.08447">
        <ele>1171.2</ele>
        <time>2021-10-09 11:52:56</time>
      </trkpt>
      <trkpt lat="40.58152" lon="-2.08443">
        <ele>1171.2</ele>
        <time>2021-10-09 11:52:57</time>
      </trkpt>
      <trkpt lat="40.58151" lon="-2.0844">
        <ele>1171.2</ele>
        <time>2021-10-09 11:52:58</time>
      </trkpt>
      <trkpt lat="40.58151" lon="-2.08436">
        <ele>1171.4</ele>
        <time>2021-10-09 11:52:59</time>
      </trkpt>
      <trkpt lat="40.5815" lon="-2.08432">
        <ele>1171.4</ele>
        <time>2021-10-09 11:53:00</time>
      </trkpt>
      <trkpt lat="40.58149" lon="-2.08428">
        <ele>1171.8</ele>
        <time>2021-10-09 11:53:01</time>
      </trkpt>
      <trkpt lat="40.58149" lon="-2.08424">
        <ele>1171.8</ele>
        <time>2021-10-09 11:53:02</time>
      </trkpt>
      <trkpt lat="40.58148" lon="-2.0842">
        <ele>1171.8</ele>
        <time>2021-10-09 11:53:03</time>
      </trkpt>
      <trkpt lat="40.58148" lon="-2.08416">
        <ele>1172</ele>
        <time>2021-10-09 11:53:04</time>
      </trkpt>
      <trkpt lat="40.58147" lon="-2.08411">
        <ele>1172</ele>
        <time>2021-10-09 11:53:05</time>
      </trkpt>
      <trkpt lat="40.58146" lon="-2.08407">
        <ele>1172</ele>
        <time>2021-10-09 11:53:06</time>
      </trkpt>
      <trkpt lat="40.58145" lon="-2.08403">
        <ele>1172.2</ele>
        <time>2021-10-09 11:53:07</time>
      </trkpt>
      <trkpt lat="40.58145" lon="-2.08399">
        <ele>1172.2</ele>
        <time>2021-10-09 11:53:08</time>
      </trkpt>
      <trkpt lat="40.58144" lon="-2.08394">
        <ele>1172.4</ele>
        <time>2021-10-09 11:53:09</time>
      </trkpt>
      <trkpt lat="40.58144" lon="-2.0839">
        <ele>1172.4</ele>
        <time>2021-10-09 11:53:10</time>
      </trkpt>
      <trkpt lat="40.58144" lon="-2.08386">
        <ele>1172.4</ele>
        <time>2021-10-09 11:53:11</time>
      </trkpt>
      <trkpt lat="40.58143" lon="-2.08381">
        <ele>1172.4</ele>
        <time>2021-10-09 11:53:12</time>
      </trkpt>
      <trkpt lat="40.58143" lon="-2.08377">
        <ele>1172.4</ele>
        <time>2021-10-09 11:53:13</time>
      </trkpt>
      <trkpt lat="40.58142" lon="-2.08373">
        <ele>1172.6</ele>
        <time>2021-10-09 11:53:14</time>
      </trkpt>
      <trkpt lat="40.58142" lon="-2.08369">
        <ele>1172.6</ele>
        <time>2021-10-09 11:53:15</time>
      </trkpt>
      <trkpt lat="40.58142" lon="-2.08365">
        <ele>1172.6</ele>
        <time>2021-10-09 11:53:16</time>
      </trkpt>
      <trkpt lat="40.58142" lon="-2.0836">
        <ele>1172.6</ele>
        <time>2021-10-09 11:53:17</time>
      </trkpt>
      <trkpt lat="40.58141" lon="-2.08356">
        <ele>1172.6</ele>
        <time>2021-10-09 11:53:18</time>
      </trkpt>
      <trkpt lat="40.5814" lon="-2.08351">
        <ele>1172.8</ele>
        <time>2021-10-09 11:53:19</time>
      </trkpt>
      <trkpt lat="40.5814" lon="-2.08347">
        <ele>1172.8</ele>
        <time>2021-10-09 11:53:20</time>
      </trkpt>
      <trkpt lat="40.5814" lon="-2.08342">
        <ele>1172.8</ele>
        <time>2021-10-09 11:53:21</time>
      </trkpt>
      <trkpt lat="40.58139" lon="-2.08337">
        <ele>1173</ele>
        <time>2021-10-09 11:53:22</time>
      </trkpt>
      <trkpt lat="40.58139" lon="-2.08332">
        <ele>1173</ele>
        <time>2021-10-09 11:53:23</time>
      </trkpt>
      <trkpt lat="40.58139" lon="-2.08327">
        <ele>1173</ele>
        <time>2021-10-09 11:53:24</time>
      </trkpt>
      <trkpt lat="40.58139" lon="-2.08322">
        <ele>1173.4</ele>
        <time>2021-10-09 11:53:25</time>
      </trkpt>
      <trkpt lat="40.58139" lon="-2.08316">
        <ele>1173.4</ele>
        <time>2021-10-09 11:53:26</time>
      </trkpt>
      <trkpt lat="40.58138" lon="-2.08311">
        <ele>1173.4</ele>
        <time>2021-10-09 11:53:27</time>
      </trkpt>
      <trkpt lat="40.58138" lon="-2.08305">
        <ele>1173.4</ele>
        <time>2021-10-09 11:53:28</time>
      </trkpt>
      <trkpt lat="40.58138" lon="-2.08299">
        <ele>1173.4</ele>
        <time>2021-10-09 11:53:29</time>
      </trkpt>
      <trkpt lat="40.58137" lon="-2.08293">
        <ele>1173.6</ele>
        <time>2021-10-09 11:53:30</time>
      </trkpt>
      <trkpt lat="40.58137" lon="-2.08286">
        <ele>1173.6</ele>
        <time>2021-10-09 11:53:31</time>
      </trkpt>
      <trkpt lat="40.58136" lon="-2.0828">
        <ele>1173.6</ele>
        <time>2021-10-09 11:53:32</time>
      </trkpt>
      <trkpt lat="40.58135" lon="-2.08272">
        <ele>1173.6</ele>
        <time>2021-10-09 11:53:33</time>
      </trkpt>
      <trkpt lat="40.58134" lon="-2.08265">
        <ele>1173.6</ele>
        <time>2021-10-09 11:53:34</time>
      </trkpt>
      <trkpt lat="40.58133" lon="-2.08257">
        <ele>1173.6</ele>
        <time>2021-10-09 11:53:35</time>
      </trkpt>
      <trkpt lat="40.58131" lon="-2.08249">
        <ele>1173.6</ele>
        <time>2021-10-09 11:53:36</time>
      </trkpt>
      <trkpt lat="40.58128" lon="-2.08241">
        <ele>1173.6</ele>
        <time>2021-10-09 11:53:37</time>
      </trkpt>
      <trkpt lat="40.58125" lon="-2.08233">
        <ele>1173.6</ele>
        <time>2021-10-09 11:53:38</time>
      </trkpt>
      <trkpt lat="40.58121" lon="-2.08225">
        <ele>1173.6</ele>
        <time>2021-10-09 11:53:39</time>
      </trkpt>
      <trkpt lat="40.58118" lon="-2.08217">
        <ele>1173.6</ele>
        <time>2021-10-09 11:53:40</time>
      </trkpt>
      <trkpt lat="40.58114" lon="-2.08209">
        <ele>1173.4</ele>
        <time>2021-10-09 11:53:41</time>
      </trkpt>
      <trkpt lat="40.5811" lon="-2.08201">
        <ele>1173.4</ele>
        <time>2021-10-09 11:53:42</time>
      </trkpt>
      <trkpt lat="40.58106" lon="-2.08194">
        <ele>1173</ele>
        <time>2021-10-09 11:53:43</time>
      </trkpt>
      <trkpt lat="40.58103" lon="-2.08186">
        <ele>1173</ele>
        <time>2021-10-09 11:53:44</time>
      </trkpt>
      <trkpt lat="40.58099" lon="-2.08179">
        <ele>1172.8</ele>
        <time>2021-10-09 11:53:45</time>
      </trkpt>
      <trkpt lat="40.58095" lon="-2.08172">
        <ele>1172.8</ele>
        <time>2021-10-09 11:53:46</time>
      </trkpt>
      <trkpt lat="40.58092" lon="-2.08165">
        <ele>1172.6</ele>
        <time>2021-10-09 11:53:47</time>
      </trkpt>
      <trkpt lat="40.5809" lon="-2.08158">
        <ele>1172.6</ele>
        <time>2021-10-09 11:53:48</time>
      </trkpt>
      <trkpt lat="40.58086" lon="-2.08152">
        <ele>1172.6</ele>
        <time>2021-10-09 11:53:49</time>
      </trkpt>
      <trkpt lat="40.58083" lon="-2.08146">
        <ele>1172.4</ele>
        <time>2021-10-09 11:53:50</time>
      </trkpt>
      <trkpt lat="40.5808" lon="-2.0814">
        <ele>1172.4</ele>
        <time>2021-10-09 11:53:51</time>
      </trkpt>
      <trkpt lat="40.58076" lon="-2.08134">
        <ele>1172.4</ele>
        <time>2021-10-09 11:53:52</time>
      </trkpt>
      <trkpt lat="40.58073" lon="-2.08128">
        <ele>1172.4</ele>
        <time>2021-10-09 11:53:53</time>
      </trkpt>
      <trkpt lat="40.5807" lon="-2.08123">
        <ele>1172.2</ele>
        <time>2021-10-09 11:53:54</time>
      </trkpt>
      <trkpt lat="40.58067" lon="-2.08117">
        <ele>1172.2</ele>
        <time>2021-10-09 11:53:55</time>
      </trkpt>
      <trkpt lat="40.58064" lon="-2.08112">
        <ele>1171.8</ele>
        <time>2021-10-09 11:53:56</time>
      </trkpt>
      <trkpt lat="40.5806" lon="-2.08107">
        <ele>1171.6</ele>
        <time>2021-10-09 11:53:57</time>
      </trkpt>
      <trkpt lat="40.58055" lon="-2.08102">
        <ele>1171.6</ele>
        <time>2021-10-09 11:53:58</time>
      </trkpt>
      <trkpt lat="40.58051" lon="-2.08097">
        <ele>1171.2</ele>
        <time>2021-10-09 11:53:59</time>
      </trkpt>
      <trkpt lat="40.58046" lon="-2.08093">
        <ele>1171</ele>
        <time>2021-10-09 11:54:00</time>
      </trkpt>
      <trkpt lat="40.58041" lon="-2.08088">
        <ele>1171</ele>
        <time>2021-10-09 11:54:01</time>
      </trkpt>
      <trkpt lat="40.58036" lon="-2.08083">
        <ele>1170.8</ele>
        <time>2021-10-09 11:54:02</time>
      </trkpt>
      <trkpt lat="40.5803" lon="-2.08078">
        <ele>1170.8</ele>
        <time>2021-10-09 11:54:03</time>
      </trkpt>
      <trkpt lat="40.58025" lon="-2.08072">
        <ele>1170.4</ele>
        <time>2021-10-09 11:54:04</time>
      </trkpt>
      <trkpt lat="40.58019" lon="-2.08067">
        <ele>1170.4</ele>
        <time>2021-10-09 11:54:05</time>
      </trkpt>
      <trkpt lat="40.58014" lon="-2.0806">
        <ele>1170.2</ele>
        <time>2021-10-09 11:54:06</time>
      </trkpt>
      <trkpt lat="40.58008" lon="-2.08053">
        <ele>1170</ele>
        <time>2021-10-09 11:54:07</time>
      </trkpt>
      <trkpt lat="40.58002" lon="-2.08047">
        <ele>1169.6</ele>
        <time>2021-10-09 11:54:08</time>
      </trkpt>
      <trkpt lat="40.57996" lon="-2.0804">
        <ele>1169.4</ele>
        <time>2021-10-09 11:54:09</time>
      </trkpt>
      <trkpt lat="40.5799" lon="-2.08033">
        <ele>1169</ele>
        <time>2021-10-09 11:54:10</time>
      </trkpt>
      <trkpt lat="40.57983" lon="-2.08025">
        <ele>1168.8</ele>
        <time>2021-10-09 11:54:11</time>
      </trkpt>
      <trkpt lat="40.57977" lon="-2.08018">
        <ele>1168.8</ele>
        <time>2021-10-09 11:54:12</time>
      </trkpt>
      <trkpt lat="40.57969" lon="-2.08011">
        <ele>1168.8</ele>
        <time>2021-10-09 11:54:13</time>
      </trkpt>
      <trkpt lat="40.57963" lon="-2.08005">
        <ele>1168.8</ele>
        <time>2021-10-09 11:54:14</time>
      </trkpt>
      <trkpt lat="40.57956" lon="-2.07998">
        <ele>1168.4</ele>
        <time>2021-10-09 11:54:15</time>
      </trkpt>
      <trkpt lat="40.57949" lon="-2.07991">
        <ele>1168.4</ele>
        <time>2021-10-09 11:54:16</time>
      </trkpt>
      <trkpt lat="40.57949" lon="-2.07991">
        <ele>1168</ele>
        <time>2021-10-09 11:54:17</time>
      </trkpt>
      <trkpt lat="40.57943" lon="-2.07984">
        <ele>1168</ele>
        <time>2021-10-09 11:54:18</time>
      </trkpt>
      <trkpt lat="40.5793" lon="-2.07972">
        <ele>1167.6</ele>
        <time>2021-10-09 11:54:19</time>
      </trkpt>
      <trkpt lat="40.5793" lon="-2.07972">
        <ele>1167.2</ele>
        <time>2021-10-09 11:54:20</time>
      </trkpt>
      <trkpt lat="40.57924" lon="-2.07966">
        <ele>1167</ele>
        <time>2021-10-09 11:54:21</time>
      </trkpt>
      <trkpt lat="40.57912" lon="-2.07954">
        <ele>1167</ele>
        <time>2021-10-09 11:54:22</time>
      </trkpt>
      <trkpt lat="40.57905" lon="-2.0795">
        <ele>1167</ele>
        <time>2021-10-09 11:54:23</time>
      </trkpt>
      <trkpt lat="40.57898" lon="-2.07946">
        <ele>1166.6</ele>
        <time>2021-10-09 11:54:24</time>
      </trkpt>
      <trkpt lat="40.57891" lon="-2.07944">
        <ele>1166.6</ele>
        <time>2021-10-09 11:54:25</time>
      </trkpt>
      <trkpt lat="40.57885" lon="-2.07942">
        <ele>1166.4</ele>
        <time>2021-10-09 11:54:26</time>
      </trkpt>
      <trkpt lat="40.57885" lon="-2.07942">
        <ele>1166.4</ele>
        <time>2021-10-09 11:54:27</time>
      </trkpt>
      <trkpt lat="40.57878" lon="-2.07942">
        <ele>1166.4</ele>
        <time>2021-10-09 11:54:28</time>
      </trkpt>
      <trkpt lat="40.57871" lon="-2.07942">
        <ele>1166.4</ele>
        <time>2021-10-09 11:54:29</time>
      </trkpt>
      <trkpt lat="40.57865" lon="-2.07942">
        <ele>1166.2</ele>
        <time>2021-10-09 11:54:30</time>
      </trkpt>
      <trkpt lat="40.57858" lon="-2.07942">
        <ele>1166.2</ele>
        <time>2021-10-09 11:54:31</time>
      </trkpt>
      <trkpt lat="40.57852" lon="-2.07942">
        <ele>1166.2</ele>
        <time>2021-10-09 11:54:32</time>
      </trkpt>
      <trkpt lat="40.57845" lon="-2.07942">
        <ele>1166.2</ele>
        <time>2021-10-09 11:54:33</time>
      </trkpt>
      <trkpt lat="40.57838" lon="-2.07941">
        <ele>1166.2</ele>
        <time>2021-10-09 11:54:34</time>
      </trkpt>
      <trkpt lat="40.57832" lon="-2.07939">
        <ele>1166.2</ele>
        <time>2021-10-09 11:54:35</time>
      </trkpt>
      <trkpt lat="40.57825" lon="-2.07938">
        <ele>1166.2</ele>
        <time>2021-10-09 11:54:36</time>
      </trkpt>
      <trkpt lat="40.57818" lon="-2.07937">
        <ele>1166</ele>
        <time>2021-10-09 11:54:37</time>
      </trkpt>
      <trkpt lat="40.57811" lon="-2.07934">
        <ele>1166</ele>
        <time>2021-10-09 11:54:38</time>
      </trkpt>
      <trkpt lat="40.57805" lon="-2.07933">
        <ele>1165.6</ele>
        <time>2021-10-09 11:54:39</time>
      </trkpt>
      <trkpt lat="40.57798" lon="-2.07931">
        <ele>1165.4</ele>
        <time>2021-10-09 11:54:40</time>
      </trkpt>
      <trkpt lat="40.57791" lon="-2.07929">
        <ele>1165</ele>
        <time>2021-10-09 11:54:41</time>
      </trkpt>
      <trkpt lat="40.57784" lon="-2.07926">
        <ele>1165</ele>
        <time>2021-10-09 11:54:42</time>
      </trkpt>
      <trkpt lat="40.57777" lon="-2.07924">
        <ele>1164.8</ele>
        <time>2021-10-09 11:54:43</time>
      </trkpt>
      <trkpt lat="40.5777" lon="-2.0792">
        <ele>1164.8</ele>
        <time>2021-10-09 11:54:44</time>
      </trkpt>
      <trkpt lat="40.57763" lon="-2.07917">
        <ele>1164.4</ele>
        <time>2021-10-09 11:54:45</time>
      </trkpt>
      <trkpt lat="40.57757" lon="-2.07913">
        <ele>1164</ele>
        <time>2021-10-09 11:54:46</time>
      </trkpt>
      <trkpt lat="40.57751" lon="-2.0791">
        <ele>1164</ele>
        <time>2021-10-09 11:54:47</time>
      </trkpt>
      <trkpt lat="40.57744" lon="-2.07906">
        <ele>1163.8</ele>
        <time>2021-10-09 11:54:48</time>
      </trkpt>
      <trkpt lat="40.57738" lon="-2.07902">
        <ele>1163.8</ele>
        <time>2021-10-09 11:54:49</time>
      </trkpt>
      <trkpt lat="40.57732" lon="-2.07897">
        <ele>1163.6</ele>
        <time>2021-10-09 11:54:50</time>
      </trkpt>
      <trkpt lat="40.57726" lon="-2.07893">
        <ele>1163.6</ele>
        <time>2021-10-09 11:54:51</time>
      </trkpt>
      <trkpt lat="40.5772" lon="-2.07889">
        <ele>1163.6</ele>
        <time>2021-10-09 11:54:52</time>
      </trkpt>
      <trkpt lat="40.57714" lon="-2.07885">
        <ele>1163.4</ele>
        <time>2021-10-09 11:54:53</time>
      </trkpt>
      <trkpt lat="40.57709" lon="-2.0788">
        <ele>1163.4</ele>
        <time>2021-10-09 11:54:54</time>
      </trkpt>
      <trkpt lat="40.57703" lon="-2.07876">
        <ele>1163</ele>
        <time>2021-10-09 11:54:55</time>
      </trkpt>
      <trkpt lat="40.57698" lon="-2.07872">
        <ele>1163</ele>
        <time>2021-10-09 11:54:56</time>
      </trkpt>
      <trkpt lat="40.57692" lon="-2.07867">
        <ele>1162.8</ele>
        <time>2021-10-09 11:54:57</time>
      </trkpt>
      <trkpt lat="40.57687" lon="-2.07862">
        <ele>1162.8</ele>
        <time>2021-10-09 11:54:58</time>
      </trkpt>
      <trkpt lat="40.57682" lon="-2.07857">
        <ele>1162.8</ele>
        <time>2021-10-09 11:54:59</time>
      </trkpt>
      <trkpt lat="40.57677" lon="-2.07852">
        <ele>1162.8</ele>
        <time>2021-10-09 11:55:00</time>
      </trkpt>
      <trkpt lat="40.57672" lon="-2.07846">
        <ele>1162.8</ele>
        <time>2021-10-09 11:55:01</time>
      </trkpt>
      <trkpt lat="40.57668" lon="-2.0784">
        <ele>1162.8</ele>
        <time>2021-10-09 11:55:02</time>
      </trkpt>
      <trkpt lat="40.57664" lon="-2.07834">
        <ele>1162.8</ele>
        <time>2021-10-09 11:55:03</time>
      </trkpt>
      <trkpt lat="40.5766" lon="-2.07828">
        <ele>1162.8</ele>
        <time>2021-10-09 11:55:04</time>
      </trkpt>
      <trkpt lat="40.57656" lon="-2.07821">
        <ele>1162.6</ele>
        <time>2021-10-09 11:55:05</time>
      </trkpt>
      <trkpt lat="40.57652" lon="-2.07815">
        <ele>1162.6</ele>
        <time>2021-10-09 11:55:06</time>
      </trkpt>
      <trkpt lat="40.57648" lon="-2.07808">
        <ele>1162.6</ele>
        <time>2021-10-09 11:55:07</time>
      </trkpt>
      <trkpt lat="40.57644" lon="-2.07803">
        <ele>1162.6</ele>
        <time>2021-10-09 11:55:08</time>
      </trkpt>
      <trkpt lat="40.5764" lon="-2.07798">
        <ele>1162.6</ele>
        <time>2021-10-09 11:55:09</time>
      </trkpt>
      <trkpt lat="40.57635" lon="-2.07794">
        <ele>1162.6</ele>
        <time>2021-10-09 11:55:10</time>
      </trkpt>
      <trkpt lat="40.5763" lon="-2.07792">
        <ele>1162.8</ele>
        <time>2021-10-09 11:55:11</time>
      </trkpt>
      <trkpt lat="40.57624" lon="-2.07791">
        <ele>1162.8</ele>
        <time>2021-10-09 11:55:12</time>
      </trkpt>
      <trkpt lat="40.57619" lon="-2.07792">
        <ele>1163</ele>
        <time>2021-10-09 11:55:13</time>
      </trkpt>
      <trkpt lat="40.57614" lon="-2.07793">
        <ele>1163</ele>
        <time>2021-10-09 11:55:14</time>
      </trkpt>
      <trkpt lat="40.57609" lon="-2.07794">
        <ele>1163</ele>
        <time>2021-10-09 11:55:15</time>
      </trkpt>
      <trkpt lat="40.57605" lon="-2.07795">
        <ele>1163</ele>
        <time>2021-10-09 11:55:16</time>
      </trkpt>
      <trkpt lat="40.57601" lon="-2.07796">
        <ele>1163</ele>
        <time>2021-10-09 11:55:17</time>
      </trkpt>
      <trkpt lat="40.57597" lon="-2.07796">
        <ele>1163</ele>
        <time>2021-10-09 11:55:18</time>
      </trkpt>
      <trkpt lat="40.57593" lon="-2.07797">
        <ele>1163</ele>
        <time>2021-10-09 11:55:19</time>
      </trkpt>
      <trkpt lat="40.57589" lon="-2.07798">
        <ele>1163.4</ele>
        <time>2021-10-09 11:55:20</time>
      </trkpt>
      <trkpt lat="40.57586" lon="-2.07798">
        <ele>1163.4</ele>
        <time>2021-10-09 11:55:21</time>
      </trkpt>
      <trkpt lat="40.57583" lon="-2.07799">
        <ele>1163.6</ele>
        <time>2021-10-09 11:55:22</time>
      </trkpt>
      <trkpt lat="40.5758" lon="-2.078">
        <ele>1163.6</ele>
        <time>2021-10-09 11:55:23</time>
      </trkpt>
      <trkpt lat="40.57578" lon="-2.078">
        <ele>1163.6</ele>
        <time>2021-10-09 11:55:24</time>
      </trkpt>
      <trkpt lat="40.57575" lon="-2.078">
        <ele>1163.8</ele>
        <time>2021-10-09 11:55:25</time>
      </trkpt>
      <trkpt lat="40.57572" lon="-2.07801">
        <ele>1163.8</ele>
        <time>2021-10-09 11:55:26</time>
      </trkpt>
      <trkpt lat="40.5757" lon="-2.07802">
        <ele>1164.2</ele>
        <time>2021-10-09 11:55:27</time>
      </trkpt>
      <trkpt lat="40.57568" lon="-2.07802">
        <ele>1164.2</ele>
        <time>2021-10-09 11:55:28</time>
      </trkpt>
      <trkpt lat="40.57565" lon="-2.07802">
        <ele>1164.6</ele>
        <time>2021-10-09 11:55:29</time>
      </trkpt>
      <trkpt lat="40.57563" lon="-2.07803">
        <ele>1164.6</ele>
        <time>2021-10-09 11:55:30</time>
      </trkpt>
      <trkpt lat="40.5756" lon="-2.07804">
        <ele>1164.6</ele>
        <time>2021-10-09 11:55:31</time>
      </trkpt>
      <trkpt lat="40.57558" lon="-2.07805">
        <ele>1165</ele>
        <time>2021-10-09 11:55:32</time>
      </trkpt>
      <trkpt lat="40.57556" lon="-2.07806">
        <ele>1165</ele>
        <time>2021-10-09 11:55:33</time>
      </trkpt>
      <trkpt lat="40.57553" lon="-2.07808">
        <ele>1165.4</ele>
        <time>2021-10-09 11:55:34</time>
      </trkpt>
      <trkpt lat="40.57551" lon="-2.0781">
        <ele>1165.4</ele>
        <time>2021-10-09 11:55:35</time>
      </trkpt>
      <trkpt lat="40.5755" lon="-2.07813">
        <ele>1165.4</ele>
        <time>2021-10-09 11:55:36</time>
      </trkpt>
      <trkpt lat="40.57548" lon="-2.07817">
        <ele>1165.4</ele>
        <time>2021-10-09 11:55:37</time>
      </trkpt>
      <trkpt lat="40.57547" lon="-2.07822">
        <ele>1165.4</ele>
        <time>2021-10-09 11:55:38</time>
      </trkpt>
      <trkpt lat="40.57546" lon="-2.07827">
        <ele>1165.4</ele>
        <time>2021-10-09 11:55:39</time>
      </trkpt>
      <trkpt lat="40.57544" lon="-2.07832">
        <ele>1165.4</ele>
        <time>2021-10-09 11:55:40</time>
      </trkpt>
      <trkpt lat="40.57543" lon="-2.07838">
        <ele>1165.4</ele>
        <time>2021-10-09 11:55:41</time>
      </trkpt>
      <trkpt lat="40.57543" lon="-2.07844">
        <ele>1165.4</ele>
        <time>2021-10-09 11:55:42</time>
      </trkpt>
      <trkpt lat="40.57542" lon="-2.0785">
        <ele>1165.4</ele>
        <time>2021-10-09 11:55:43</time>
      </trkpt>
      <trkpt lat="40.57541" lon="-2.07856">
        <ele>1165.4</ele>
        <time>2021-10-09 11:55:44</time>
      </trkpt>
      <trkpt lat="40.5754" lon="-2.07863">
        <ele>1165</ele>
        <time>2021-10-09 11:55:45</time>
      </trkpt>
      <trkpt lat="40.57539" lon="-2.07869">
        <ele>1165</ele>
        <time>2021-10-09 11:55:46</time>
      </trkpt>
      <trkpt lat="40.57539" lon="-2.07875">
        <ele>1164.8</ele>
        <time>2021-10-09 11:55:47</time>
      </trkpt>
      <trkpt lat="40.57538" lon="-2.07882">
        <ele>1164.8</ele>
        <time>2021-10-09 11:55:48</time>
      </trkpt>
      <trkpt lat="40.57538" lon="-2.07888">
        <ele>1164.8</ele>
        <time>2021-10-09 11:55:49</time>
      </trkpt>
      <trkpt lat="40.57537" lon="-2.07894">
        <ele>1164.8</ele>
        <time>2021-10-09 11:55:50</time>
      </trkpt>
      <trkpt lat="40.57536" lon="-2.079">
        <ele>1164.8</ele>
        <time>2021-10-09 11:55:51</time>
      </trkpt>
      <trkpt lat="40.57536" lon="-2.07905">
        <ele>1164.8</ele>
        <time>2021-10-09 11:55:52</time>
      </trkpt>
      <trkpt lat="40.57535" lon="-2.07911">
        <ele>1164.8</ele>
        <time>2021-10-09 11:55:53</time>
      </trkpt>
      <trkpt lat="40.57534" lon="-2.07916">
        <ele>1164.8</ele>
        <time>2021-10-09 11:55:54</time>
      </trkpt>
      <trkpt lat="40.57534" lon="-2.07921">
        <ele>1164.8</ele>
        <time>2021-10-09 11:55:55</time>
      </trkpt>
      <trkpt lat="40.57534" lon="-2.07925">
        <ele>1164.8</ele>
        <time>2021-10-09 11:55:56</time>
      </trkpt>
      <trkpt lat="40.57534" lon="-2.07929">
        <ele>1165</ele>
        <time>2021-10-09 11:55:57</time>
      </trkpt>
      <trkpt lat="40.57533" lon="-2.07933">
        <ele>1165</ele>
        <time>2021-10-09 11:55:58</time>
      </trkpt>
      <trkpt lat="40.57532" lon="-2.07937">
        <ele>1165.2</ele>
        <time>2021-10-09 11:55:59</time>
      </trkpt>
      <trkpt lat="40.57532" lon="-2.0794">
        <ele>1165.2</ele>
        <time>2021-10-09 11:56:00</time>
      </trkpt>
      <trkpt lat="40.57531" lon="-2.07943">
        <ele>1165.6</ele>
        <time>2021-10-09 11:56:01</time>
      </trkpt>
      <trkpt lat="40.57531" lon="-2.07946">
        <ele>1165.6</ele>
        <time>2021-10-09 11:56:02</time>
      </trkpt>
      <trkpt lat="40.5753" lon="-2.07948">
        <ele>1165.8</ele>
        <time>2021-10-09 11:56:03</time>
      </trkpt>
      <trkpt lat="40.5753" lon="-2.07951">
        <ele>1165.8</ele>
        <time>2021-10-09 11:56:04</time>
      </trkpt>
      <trkpt lat="40.5753" lon="-2.07953">
        <ele>1166.2</ele>
        <time>2021-10-09 11:56:05</time>
      </trkpt>
      <trkpt lat="40.57529" lon="-2.07956">
        <ele>1166.2</ele>
        <time>2021-10-09 11:56:06</time>
      </trkpt>
      <trkpt lat="40.57529" lon="-2.07958">
        <ele>1166.4</ele>
        <time>2021-10-09 11:56:07</time>
      </trkpt>
      <trkpt lat="40.57528" lon="-2.07961">
        <ele>1166.4</ele>
        <time>2021-10-09 11:56:08</time>
      </trkpt>
      <trkpt lat="40.57528" lon="-2.07963">
        <ele>1166.8</ele>
        <time>2021-10-09 11:56:09</time>
      </trkpt>
      <trkpt lat="40.57527" lon="-2.07965">
        <ele>1166.8</ele>
        <time>2021-10-09 11:56:10</time>
      </trkpt>
      <trkpt lat="40.57527" lon="-2.07968">
        <ele>1167</ele>
        <time>2021-10-09 11:56:11</time>
      </trkpt>
      <trkpt lat="40.57526" lon="-2.0797">
        <ele>1167</ele>
        <time>2021-10-09 11:56:12</time>
      </trkpt>
      <trkpt lat="40.57526" lon="-2.07972">
        <ele>1167.2</ele>
        <time>2021-10-09 11:56:13</time>
      </trkpt>
      <trkpt lat="40.57526" lon="-2.07974">
        <ele>1167.2</ele>
        <time>2021-10-09 11:56:14</time>
      </trkpt>
      <trkpt lat="40.57525" lon="-2.07976">
        <ele>1167.6</ele>
        <time>2021-10-09 11:56:15</time>
      </trkpt>
      <trkpt lat="40.57524" lon="-2.07978">
        <ele>1167.6</ele>
        <time>2021-10-09 11:56:16</time>
      </trkpt>
      <trkpt lat="40.57523" lon="-2.07979">
        <ele>1168</ele>
        <time>2021-10-09 11:56:17</time>
      </trkpt>
      <trkpt lat="40.57522" lon="-2.07981">
        <ele>1168</ele>
        <time>2021-10-09 11:56:18</time>
      </trkpt>
      <trkpt lat="40.57521" lon="-2.07983">
        <ele>1168.2</ele>
        <time>2021-10-09 11:56:19</time>
      </trkpt>
      <trkpt lat="40.5752" lon="-2.07984">
        <ele>1168.6</ele>
        <time>2021-10-09 11:56:20</time>
      </trkpt>
      <trkpt lat="40.57518" lon="-2.07985">
        <ele>1168.6</ele>
        <time>2021-10-09 11:56:21</time>
      </trkpt>
      <trkpt lat="40.57516" lon="-2.07986">
        <ele>1169</ele>
        <time>2021-10-09 11:56:22</time>
      </trkpt>
      <trkpt lat="40.57514" lon="-2.07987">
        <ele>1169</ele>
        <time>2021-10-09 11:56:23</time>
      </trkpt>
      <trkpt lat="40.5751" lon="-2.07987">
        <ele>1169.4</ele>
        <time>2021-10-09 11:56:24</time>
      </trkpt>
      <trkpt lat="40.57509" lon="-2.07986">
        <ele>1169.4</ele>
        <time>2021-10-09 11:56:25</time>
      </trkpt>
      <trkpt lat="40.57506" lon="-2.07986">
        <ele>1169.6</ele>
        <time>2021-10-09 11:56:26</time>
      </trkpt>
      <trkpt lat="40.57504" lon="-2.07986">
        <ele>1169.6</ele>
        <time>2021-10-09 11:56:27</time>
      </trkpt>
      <trkpt lat="40.57502" lon="-2.07985">
        <ele>1169.8</ele>
        <time>2021-10-09 11:56:28</time>
      </trkpt>
      <trkpt lat="40.575" lon="-2.07984">
        <ele>1169.8</ele>
        <time>2021-10-09 11:56:29</time>
      </trkpt>
      <trkpt lat="40.57498" lon="-2.07983">
        <ele>1169.8</ele>
        <time>2021-10-09 11:56:30</time>
      </trkpt>
      <trkpt lat="40.57496" lon="-2.07981">
        <ele>1170</ele>
        <time>2021-10-09 11:56:31</time>
      </trkpt>
      <trkpt lat="40.57494" lon="-2.07979">
        <ele>1170</ele>
        <time>2021-10-09 11:56:32</time>
      </trkpt>
      <trkpt lat="40.57492" lon="-2.07978">
        <ele>1170.4</ele>
        <time>2021-10-09 11:56:33</time>
      </trkpt>
      <trkpt lat="40.5749" lon="-2.07976">
        <ele>1170.4</ele>
        <time>2021-10-09 11:56:34</time>
      </trkpt>
      <trkpt lat="40.57488" lon="-2.07974">
        <ele>1170.4</ele>
        <time>2021-10-09 11:56:35</time>
      </trkpt>
      <trkpt lat="40.57486" lon="-2.07972">
        <ele>1170.6</ele>
        <time>2021-10-09 11:56:36</time>
      </trkpt>
      <trkpt lat="40.57484" lon="-2.0797">
        <ele>1170.6</ele>
        <time>2021-10-09 11:56:37</time>
      </trkpt>
      <trkpt lat="40.57483" lon="-2.07968">
        <ele>1171</ele>
        <time>2021-10-09 11:56:38</time>
      </trkpt>
      <trkpt lat="40.57481" lon="-2.07966">
        <ele>1171</ele>
        <time>2021-10-09 11:56:39</time>
      </trkpt>
      <trkpt lat="40.57479" lon="-2.07964">
        <ele>1171.2</ele>
        <time>2021-10-09 11:56:40</time>
      </trkpt>
      <trkpt lat="40.57478" lon="-2.07962">
        <ele>1171.2</ele>
        <time>2021-10-09 11:56:41</time>
      </trkpt>
      <trkpt lat="40.57476" lon="-2.0796">
        <ele>1171.4</ele>
        <time>2021-10-09 11:56:42</time>
      </trkpt>
      <trkpt lat="40.57474" lon="-2.07958">
        <ele>1171.4</ele>
        <time>2021-10-09 11:56:43</time>
      </trkpt>
      <trkpt lat="40.57473" lon="-2.07956">
        <ele>1171.6</ele>
        <time>2021-10-09 11:56:44</time>
      </trkpt>
      <trkpt lat="40.57471" lon="-2.07954">
        <ele>1171.6</ele>
        <time>2021-10-09 11:56:45</time>
      </trkpt>
      <trkpt lat="40.57469" lon="-2.07953">
        <ele>1172</ele>
        <time>2021-10-09 11:56:46</time>
      </trkpt>
      <trkpt lat="40.57468" lon="-2.07951">
        <ele>1172</ele>
        <time>2021-10-09 11:56:47</time>
      </trkpt>
      <trkpt lat="40.57466" lon="-2.07949">
        <ele>1172.4</ele>
        <time>2021-10-09 11:56:48</time>
      </trkpt>
      <trkpt lat="40.57465" lon="-2.07947">
        <ele>1172.4</ele>
        <time>2021-10-09 11:56:49</time>
      </trkpt>
      <trkpt lat="40.57463" lon="-2.07945">
        <ele>1172.6</ele>
        <time>2021-10-09 11:56:50</time>
      </trkpt>
      <trkpt lat="40.57462" lon="-2.07944">
        <ele>1172.6</ele>
        <time>2021-10-09 11:56:51</time>
      </trkpt>
      <trkpt lat="40.5746" lon="-2.07943">
        <ele>1172.8</ele>
        <time>2021-10-09 11:56:52</time>
      </trkpt>
      <trkpt lat="40.57458" lon="-2.07942">
        <ele>1172.8</ele>
        <time>2021-10-09 11:56:53</time>
      </trkpt>
      <trkpt lat="40.57456" lon="-2.0794">
        <ele>1173</ele>
        <time>2021-10-09 11:56:54</time>
      </trkpt>
      <trkpt lat="40.57455" lon="-2.07938">
        <ele>1173</ele>
        <time>2021-10-09 11:56:55</time>
      </trkpt>
      <trkpt lat="40.57454" lon="-2.07936">
        <ele>1173.4</ele>
        <time>2021-10-09 11:56:56</time>
      </trkpt>
      <trkpt lat="40.57452" lon="-2.07934">
        <ele>1173.4</ele>
        <time>2021-10-09 11:56:57</time>
      </trkpt>
      <trkpt lat="40.5745" lon="-2.07932">
        <ele>1173.6</ele>
        <time>2021-10-09 11:56:58</time>
      </trkpt>
      <trkpt lat="40.57448" lon="-2.0793">
        <ele>1173.6</ele>
        <time>2021-10-09 11:56:59</time>
      </trkpt>
      <trkpt lat="40.57447" lon="-2.07929">
        <ele>1174</ele>
        <time>2021-10-09 11:57:00</time>
      </trkpt>
      <trkpt lat="40.57446" lon="-2.07928">
        <ele>1174</ele>
        <time>2021-10-09 11:57:01</time>
      </trkpt>
      <trkpt lat="40.57444" lon="-2.07926">
        <ele>1174.2</ele>
        <time>2021-10-09 11:57:02</time>
      </trkpt>
      <trkpt lat="40.57443" lon="-2.07924">
        <ele>1174.2</ele>
        <time>2021-10-09 11:57:03</time>
      </trkpt>
      <trkpt lat="40.57441" lon="-2.07922">
        <ele>1174.6</ele>
        <time>2021-10-09 11:57:04</time>
      </trkpt>
      <trkpt lat="40.5744" lon="-2.0792">
        <ele>1174.8</ele>
        <time>2021-10-09 11:57:05</time>
      </trkpt>
      <trkpt lat="40.57438" lon="-2.07918">
        <ele>1174.8</ele>
        <time>2021-10-09 11:57:06</time>
      </trkpt>
      <trkpt lat="40.57436" lon="-2.07916">
        <ele>1175</ele>
        <time>2021-10-09 11:57:07</time>
      </trkpt>
      <trkpt lat="40.57434" lon="-2.07914">
        <ele>1175</ele>
        <time>2021-10-09 11:57:08</time>
      </trkpt>
      <trkpt lat="40.57433" lon="-2.07912">
        <ele>1175.4</ele>
        <time>2021-10-09 11:57:09</time>
      </trkpt>
      <trkpt lat="40.57431" lon="-2.07909">
        <ele>1175.4</ele>
        <time>2021-10-09 11:57:10</time>
      </trkpt>
      <trkpt lat="40.5743" lon="-2.07907">
        <ele>1175.8</ele>
        <time>2021-10-09 11:57:11</time>
      </trkpt>
      <trkpt lat="40.57428" lon="-2.07905">
        <ele>1175.8</ele>
        <time>2021-10-09 11:57:12</time>
      </trkpt>
      <trkpt lat="40.57426" lon="-2.07904">
        <ele>1176.2</ele>
        <time>2021-10-09 11:57:13</time>
      </trkpt>
      <trkpt lat="40.57424" lon="-2.07902">
        <ele>1176.2</ele>
        <time>2021-10-09 11:57:14</time>
      </trkpt>
      <trkpt lat="40.57422" lon="-2.079">
        <ele>1176.4</ele>
        <time>2021-10-09 11:57:15</time>
      </trkpt>
      <trkpt lat="40.5742" lon="-2.07898">
        <ele>1176.4</ele>
        <time>2021-10-09 11:57:16</time>
      </trkpt>
      <trkpt lat="40.57419" lon="-2.07896">
        <ele>1176.8</ele>
        <time>2021-10-09 11:57:17</time>
      </trkpt>
      <trkpt lat="40.57417" lon="-2.07894">
        <ele>1176.8</ele>
        <time>2021-10-09 11:57:18</time>
      </trkpt>
      <trkpt lat="40.57415" lon="-2.07893">
        <ele>1177</ele>
        <time>2021-10-09 11:57:19</time>
      </trkpt>
      <trkpt lat="40.57413" lon="-2.07892">
        <ele>1177</ele>
        <time>2021-10-09 11:57:20</time>
      </trkpt>
      <trkpt lat="40.57412" lon="-2.07891">
        <ele>1177.2</ele>
        <time>2021-10-09 11:57:21</time>
      </trkpt>
      <trkpt lat="40.57409" lon="-2.0789">
        <ele>1177.2</ele>
        <time>2021-10-09 11:57:22</time>
      </trkpt>
      <trkpt lat="40.57407" lon="-2.0789">
        <ele>1177.2</ele>
        <time>2021-10-09 11:57:23</time>
      </trkpt>
      <trkpt lat="40.57405" lon="-2.0789">
        <ele>1177.6</ele>
        <time>2021-10-09 11:57:24</time>
      </trkpt>
      <trkpt lat="40.57404" lon="-2.0789">
        <ele>1177.6</ele>
        <time>2021-10-09 11:57:25</time>
      </trkpt>
      <trkpt lat="40.57402" lon="-2.0789">
        <ele>1177.8</ele>
        <time>2021-10-09 11:57:26</time>
      </trkpt>
      <trkpt lat="40.57399" lon="-2.0789">
        <ele>1177.8</ele>
        <time>2021-10-09 11:57:27</time>
      </trkpt>
      <trkpt lat="40.57397" lon="-2.0789">
        <ele>1178</ele>
        <time>2021-10-09 11:57:28</time>
      </trkpt>
      <trkpt lat="40.57394" lon="-2.07889">
        <ele>1178</ele>
        <time>2021-10-09 11:57:29</time>
      </trkpt>
      <trkpt lat="40.57392" lon="-2.07888">
        <ele>1178</ele>
        <time>2021-10-09 11:57:30</time>
      </trkpt>
      <trkpt lat="40.57391" lon="-2.07887">
        <ele>1178.2</ele>
        <time>2021-10-09 11:57:31</time>
      </trkpt>
      <trkpt lat="40.57389" lon="-2.07885">
        <ele>1178.2</ele>
        <time>2021-10-09 11:57:32</time>
      </trkpt>
      <trkpt lat="40.57388" lon="-2.07882">
        <ele>1178.4</ele>
        <time>2021-10-09 11:57:33</time>
      </trkpt>
      <trkpt lat="40.57387" lon="-2.07879">
        <ele>1178.4</ele>
        <time>2021-10-09 11:57:34</time>
      </trkpt>
      <trkpt lat="40.57388" lon="-2.07877">
        <ele>1178.4</ele>
        <time>2021-10-09 11:57:35</time>
      </trkpt>
      <trkpt lat="40.57389" lon="-2.07874">
        <ele>1178.4</ele>
        <time>2021-10-09 11:57:36</time>
      </trkpt>
      <trkpt lat="40.57389" lon="-2.07871">
        <ele>1178.4</ele>
        <time>2021-10-09 11:57:37</time>
      </trkpt>
      <trkpt lat="40.57389" lon="-2.07869">
        <ele>1178.6</ele>
        <time>2021-10-09 11:57:38</time>
      </trkpt>
      <trkpt lat="40.57389" lon="-2.07866">
        <ele>1178.6</ele>
        <time>2021-10-09 11:57:39</time>
      </trkpt>
      <trkpt lat="40.57388" lon="-2.07864">
        <ele>1178.6</ele>
        <time>2021-10-09 11:57:40</time>
      </trkpt>
      <trkpt lat="40.57388" lon="-2.07861">
        <ele>1178.6</ele>
        <time>2021-10-09 11:57:41</time>
      </trkpt>
      <trkpt lat="40.57388" lon="-2.07861">
        <ele>1178</ele>
        <time>2021-10-09 11:57:42</time>
      </trkpt>
      <trkpt lat="40.5739" lon="-2.07856">
        <ele>1178.4</ele>
        <time>2021-10-09 11:57:43</time>
      </trkpt>
      <trkpt lat="40.5739" lon="-2.07856">
        <ele>1178.4</ele>
        <time>2021-10-09 11:57:44</time>
      </trkpt>
      <trkpt lat="40.57391" lon="-2.07854">
        <ele>1178.8</ele>
        <time>2021-10-09 11:57:45</time>
      </trkpt>
      <trkpt lat="40.57392" lon="-2.07852">
        <ele>1178.8</ele>
        <time>2021-10-09 11:57:46</time>
      </trkpt>
      <trkpt lat="40.57394" lon="-2.0785">
        <ele>1179</ele>
        <time>2021-10-09 11:57:47</time>
      </trkpt>
      <trkpt lat="40.57395" lon="-2.07848">
        <ele>1179.2</ele>
        <time>2021-10-09 11:57:48</time>
      </trkpt>
      <trkpt lat="40.57396" lon="-2.07845">
        <ele>1179.4</ele>
        <time>2021-10-09 11:57:49</time>
      </trkpt>
      <trkpt lat="40.57396" lon="-2.07843">
        <ele>1179.6</ele>
        <time>2021-10-09 11:57:50</time>
      </trkpt>
      <trkpt lat="40.57397" lon="-2.0784">
        <ele>1180</ele>
        <time>2021-10-09 11:57:51</time>
      </trkpt>
      <trkpt lat="40.57397" lon="-2.07838">
        <ele>1180.2</ele>
        <time>2021-10-09 11:57:52</time>
      </trkpt>
      <trkpt lat="40.57397" lon="-2.07835">
        <ele>1180.4</ele>
        <time>2021-10-09 11:57:53</time>
      </trkpt>
      <trkpt lat="40.57398" lon="-2.07833">
        <ele>1180.6</ele>
        <time>2021-10-09 11:57:54</time>
      </trkpt>
      <trkpt lat="40.574" lon="-2.07831">
        <ele>1180.8</ele>
        <time>2021-10-09 11:57:55</time>
      </trkpt>
      <trkpt lat="40.57401" lon="-2.07828">
        <ele>1181.2</ele>
        <time>2021-10-09 11:57:56</time>
      </trkpt>
      <trkpt lat="40.57402" lon="-2.07826">
        <ele>1181.4</ele>
        <time>2021-10-09 11:57:57</time>
      </trkpt>
      <trkpt lat="40.57403" lon="-2.07824">
        <ele>1181.4</ele>
        <time>2021-10-09 11:57:58</time>
      </trkpt>
      <trkpt lat="40.57405" lon="-2.07821">
        <ele>1181.8</ele>
        <time>2021-10-09 11:57:59</time>
      </trkpt>
      <trkpt lat="40.57405" lon="-2.07819">
        <ele>1181.8</ele>
        <time>2021-10-09 11:58:00</time>
      </trkpt>
      <trkpt lat="40.57406" lon="-2.07817">
        <ele>1182</ele>
        <time>2021-10-09 11:58:01</time>
      </trkpt>
      <trkpt lat="40.57407" lon="-2.07814">
        <ele>1182</ele>
        <time>2021-10-09 11:58:02</time>
      </trkpt>
      <trkpt lat="40.57408" lon="-2.07812">
        <ele>1182.4</ele>
        <time>2021-10-09 11:58:03</time>
      </trkpt>
      <trkpt lat="40.57409" lon="-2.07809">
        <ele>1182.4</ele>
        <time>2021-10-09 11:58:04</time>
      </trkpt>
      <trkpt lat="40.5741" lon="-2.07807">
        <ele>1182.4</ele>
        <time>2021-10-09 11:58:05</time>
      </trkpt>
      <trkpt lat="40.5741" lon="-2.07804">
        <ele>1182.6</ele>
        <time>2021-10-09 11:58:06</time>
      </trkpt>
      <trkpt lat="40.57411" lon="-2.07801">
        <ele>1182.6</ele>
        <time>2021-10-09 11:58:07</time>
      </trkpt>
      <trkpt lat="40.57412" lon="-2.07799">
        <ele>1183</ele>
        <time>2021-10-09 11:58:08</time>
      </trkpt>
      <trkpt lat="40.57412" lon="-2.07796">
        <ele>1183</ele>
        <time>2021-10-09 11:58:09</time>
      </trkpt>
      <trkpt lat="40.57413" lon="-2.07793">
        <ele>1183.2</ele>
        <time>2021-10-09 11:58:10</time>
      </trkpt>
      <trkpt lat="40.57414" lon="-2.07791">
        <ele>1183.2</ele>
        <time>2021-10-09 11:58:11</time>
      </trkpt>
      <trkpt lat="40.57415" lon="-2.07788">
        <ele>1183.6</ele>
        <time>2021-10-09 11:58:12</time>
      </trkpt>
      <trkpt lat="40.57416" lon="-2.07786">
        <ele>1183.6</ele>
        <time>2021-10-09 11:58:13</time>
      </trkpt>
      <trkpt lat="40.57416" lon="-2.07783">
        <ele>1184</ele>
        <time>2021-10-09 11:58:14</time>
      </trkpt>
      <trkpt lat="40.57417" lon="-2.07781">
        <ele>1184</ele>
        <time>2021-10-09 11:58:15</time>
      </trkpt>
      <trkpt lat="40.57418" lon="-2.07778">
        <ele>1184.4</ele>
        <time>2021-10-09 11:58:16</time>
      </trkpt>
      <trkpt lat="40.57419" lon="-2.07775">
        <ele>1184.4</ele>
        <time>2021-10-09 11:58:17</time>
      </trkpt>
      <trkpt lat="40.5742" lon="-2.07773">
        <ele>1184.8</ele>
        <time>2021-10-09 11:58:18</time>
      </trkpt>
      <trkpt lat="40.57421" lon="-2.0777">
        <ele>1184.8</ele>
        <time>2021-10-09 11:58:19</time>
      </trkpt>
      <trkpt lat="40.57422" lon="-2.07768">
        <ele>1185.2</ele>
        <time>2021-10-09 11:58:20</time>
      </trkpt>
      <trkpt lat="40.57423" lon="-2.07767">
        <ele>1185.4</ele>
        <time>2021-10-09 11:58:21</time>
      </trkpt>
      <trkpt lat="40.57424" lon="-2.07765">
        <ele>1185.4</ele>
        <time>2021-10-09 11:58:22</time>
      </trkpt>
      <trkpt lat="40.57425" lon="-2.07763">
        <ele>1185.8</ele>
        <time>2021-10-09 11:58:23</time>
      </trkpt>
      <trkpt lat="40.57426" lon="-2.07761">
        <ele>1185.8</ele>
        <time>2021-10-09 11:58:24</time>
      </trkpt>
      <trkpt lat="40.57426" lon="-2.07759">
        <ele>1186</ele>
        <time>2021-10-09 11:58:25</time>
      </trkpt>
      <trkpt lat="40.57427" lon="-2.07757">
        <ele>1186</ele>
        <time>2021-10-09 11:58:26</time>
      </trkpt>
      <trkpt lat="40.57428" lon="-2.07755">
        <ele>1186.2</ele>
        <time>2021-10-09 11:58:27</time>
      </trkpt>
      <trkpt lat="40.57428" lon="-2.07752">
        <ele>1186.2</ele>
        <time>2021-10-09 11:58:28</time>
      </trkpt>
      <trkpt lat="40.57429" lon="-2.0775">
        <ele>1186.4</ele>
        <time>2021-10-09 11:58:29</time>
      </trkpt>
      <trkpt lat="40.5743" lon="-2.07748">
        <ele>1186.4</ele>
        <time>2021-10-09 11:58:30</time>
      </trkpt>
      <trkpt lat="40.5743" lon="-2.07745">
        <ele>1186.8</ele>
        <time>2021-10-09 11:58:31</time>
      </trkpt>
      <trkpt lat="40.57431" lon="-2.07744">
        <ele>1186.8</ele>
        <time>2021-10-09 11:58:32</time>
      </trkpt>
      <trkpt lat="40.57431" lon="-2.07741">
        <ele>1187.2</ele>
        <time>2021-10-09 11:58:33</time>
      </trkpt>
      <trkpt lat="40.57432" lon="-2.07739">
        <ele>1187.2</ele>
        <time>2021-10-09 11:58:34</time>
      </trkpt>
      <trkpt lat="40.57433" lon="-2.07737">
        <ele>1187.4</ele>
        <time>2021-10-09 11:58:35</time>
      </trkpt>
      <trkpt lat="40.57434" lon="-2.07734">
        <ele>1187.4</ele>
        <time>2021-10-09 11:58:36</time>
      </trkpt>
      <trkpt lat="40.57434" lon="-2.07731">
        <ele>1187.8</ele>
        <time>2021-10-09 11:58:37</time>
      </trkpt>
      <trkpt lat="40.57435" lon="-2.07729">
        <ele>1187.8</ele>
        <time>2021-10-09 11:58:38</time>
      </trkpt>
      <trkpt lat="40.57436" lon="-2.07727">
        <ele>1188.2</ele>
        <time>2021-10-09 11:58:39</time>
      </trkpt>
      <trkpt lat="40.57437" lon="-2.07724">
        <ele>1188.2</ele>
        <time>2021-10-09 11:58:40</time>
      </trkpt>
      <trkpt lat="40.57438" lon="-2.07721">
        <ele>1188.4</ele>
        <time>2021-10-09 11:58:41</time>
      </trkpt>
      <trkpt lat="40.5744" lon="-2.07719">
        <ele>1188.4</ele>
        <time>2021-10-09 11:58:42</time>
      </trkpt>
      <trkpt lat="40.57441" lon="-2.07717">
        <ele>1188.8</ele>
        <time>2021-10-09 11:58:43</time>
      </trkpt>
      <trkpt lat="40.57442" lon="-2.07716">
        <ele>1189</ele>
        <time>2021-10-09 11:58:44</time>
      </trkpt>
      <trkpt lat="40.57444" lon="-2.07715">
        <ele>1189</ele>
        <time>2021-10-09 11:58:45</time>
      </trkpt>
      <trkpt lat="40.57445" lon="-2.07714">
        <ele>1189.4</ele>
        <time>2021-10-09 11:58:46</time>
      </trkpt>
      <trkpt lat="40.57447" lon="-2.07713">
        <ele>1189.4</ele>
        <time>2021-10-09 11:58:47</time>
      </trkpt>
      <trkpt lat="40.57448" lon="-2.07712">
        <ele>1189.8</ele>
        <time>2021-10-09 11:58:48</time>
      </trkpt>
      <trkpt lat="40.57449" lon="-2.0771">
        <ele>1189.8</ele>
        <time>2021-10-09 11:58:49</time>
      </trkpt>
      <trkpt lat="40.57451" lon="-2.07709">
        <ele>1190.2</ele>
        <time>2021-10-09 11:58:50</time>
      </trkpt>
      <trkpt lat="40.57452" lon="-2.07708">
        <ele>1190.2</ele>
        <time>2021-10-09 11:58:51</time>
      </trkpt>
      <trkpt lat="40.57454" lon="-2.07706">
        <ele>1190.4</ele>
        <time>2021-10-09 11:58:52</time>
      </trkpt>
      <trkpt lat="40.57456" lon="-2.07704">
        <ele>1190.4</ele>
        <time>2021-10-09 11:58:53</time>
      </trkpt>
      <trkpt lat="40.57457" lon="-2.07703">
        <ele>1190.4</ele>
        <time>2021-10-09 11:58:54</time>
      </trkpt>
      <trkpt lat="40.57459" lon="-2.07701">
        <ele>1190.8</ele>
        <time>2021-10-09 11:58:55</time>
      </trkpt>
      <trkpt lat="40.5746" lon="-2.077">
        <ele>1190.8</ele>
        <time>2021-10-09 11:58:56</time>
      </trkpt>
      <trkpt lat="40.57461" lon="-2.07699">
        <ele>1191.2</ele>
        <time>2021-10-09 11:58:57</time>
      </trkpt>
      <trkpt lat="40.57463" lon="-2.07699">
        <ele>1191.2</ele>
        <time>2021-10-09 11:58:58</time>
      </trkpt>
      <trkpt lat="40.57464" lon="-2.07698">
        <ele>1191.4</ele>
        <time>2021-10-09 11:58:59</time>
      </trkpt>
      <trkpt lat="40.57466" lon="-2.07696">
        <ele>1191.4</ele>
        <time>2021-10-09 11:59:00</time>
      </trkpt>
      <trkpt lat="40.57467" lon="-2.07695">
        <ele>1191.8</ele>
        <time>2021-10-09 11:59:01</time>
      </trkpt>
      <trkpt lat="40.57468" lon="-2.07694">
        <ele>1192</ele>
        <time>2021-10-09 11:59:02</time>
      </trkpt>
      <trkpt lat="40.57469" lon="-2.07692">
        <ele>1192.2</ele>
        <time>2021-10-09 11:59:03</time>
      </trkpt>
      <trkpt lat="40.57471" lon="-2.0769">
        <ele>1192.2</ele>
        <time>2021-10-09 11:59:04</time>
      </trkpt>
      <trkpt lat="40.57472" lon="-2.07688">
        <ele>1192.6</ele>
        <time>2021-10-09 11:59:05</time>
      </trkpt>
      <trkpt lat="40.57473" lon="-2.07687">
        <ele>1192.6</ele>
        <time>2021-10-09 11:59:06</time>
      </trkpt>
      <trkpt lat="40.57474" lon="-2.07685">
        <ele>1192.8</ele>
        <time>2021-10-09 11:59:07</time>
      </trkpt>
      <trkpt lat="40.57475" lon="-2.07683">
        <ele>1193.2</ele>
        <time>2021-10-09 11:59:08</time>
      </trkpt>
      <trkpt lat="40.57476" lon="-2.07681">
        <ele>1193.2</ele>
        <time>2021-10-09 11:59:09</time>
      </trkpt>
      <trkpt lat="40.57477" lon="-2.0768">
        <ele>1193.6</ele>
        <time>2021-10-09 11:59:10</time>
      </trkpt>
      <trkpt lat="40.57478" lon="-2.07678">
        <ele>1193.8</ele>
        <time>2021-10-09 11:59:11</time>
      </trkpt>
      <trkpt lat="40.57479" lon="-2.07676">
        <ele>1193.8</ele>
        <time>2021-10-09 11:59:12</time>
      </trkpt>
      <trkpt lat="40.5748" lon="-2.07674">
        <ele>1194.2</ele>
        <time>2021-10-09 11:59:13</time>
      </trkpt>
      <trkpt lat="40.57481" lon="-2.07673">
        <ele>1194.4</ele>
        <time>2021-10-09 11:59:14</time>
      </trkpt>
      <trkpt lat="40.57482" lon="-2.07671">
        <ele>1194.4</ele>
        <time>2021-10-09 11:59:15</time>
      </trkpt>
      <trkpt lat="40.57483" lon="-2.07669">
        <ele>1194.8</ele>
        <time>2021-10-09 11:59:16</time>
      </trkpt>
      <trkpt lat="40.57483" lon="-2.07666">
        <ele>1194.8</ele>
        <time>2021-10-09 11:59:17</time>
      </trkpt>
      <trkpt lat="40.57484" lon="-2.07665">
        <ele>1195</ele>
        <time>2021-10-09 11:59:18</time>
      </trkpt>
      <trkpt lat="40.57485" lon="-2.07663">
        <ele>1195.2</ele>
        <time>2021-10-09 11:59:19</time>
      </trkpt>
      <trkpt lat="40.57486" lon="-2.07661">
        <ele>1195.2</ele>
        <time>2021-10-09 11:59:20</time>
      </trkpt>
      <trkpt lat="40.57487" lon="-2.07659">
        <ele>1195.6</ele>
        <time>2021-10-09 11:59:21</time>
      </trkpt>
      <trkpt lat="40.57487" lon="-2.07657">
        <ele>1195.6</ele>
        <time>2021-10-09 11:59:22</time>
      </trkpt>
      <trkpt lat="40.57487" lon="-2.07655">
        <ele>1195.8</ele>
        <time>2021-10-09 11:59:23</time>
      </trkpt>
      <trkpt lat="40.57487" lon="-2.07653">
        <ele>1195.8</ele>
        <time>2021-10-09 11:59:24</time>
      </trkpt>
      <trkpt lat="40.57486" lon="-2.07651">
        <ele>1196.2</ele>
        <time>2021-10-09 11:59:25</time>
      </trkpt>
      <trkpt lat="40.57486" lon="-2.07649">
        <ele>1196.2</ele>
        <time>2021-10-09 11:59:26</time>
      </trkpt>
      <trkpt lat="40.57486" lon="-2.07648">
        <ele>1196.4</ele>
        <time>2021-10-09 11:59:27</time>
      </trkpt>
      <trkpt lat="40.57486" lon="-2.07646">
        <ele>1196.4</ele>
        <time>2021-10-09 11:59:28</time>
      </trkpt>
      <trkpt lat="40.57486" lon="-2.07644">
        <ele>1196.6</ele>
        <time>2021-10-09 11:59:29</time>
      </trkpt>
      <trkpt lat="40.57485" lon="-2.07642">
        <ele>1196.6</ele>
        <time>2021-10-09 11:59:30</time>
      </trkpt>
      <trkpt lat="40.57485" lon="-2.0764">
        <ele>1197</ele>
        <time>2021-10-09 11:59:31</time>
      </trkpt>
      <trkpt lat="40.57486" lon="-2.07638">
        <ele>1197</ele>
        <time>2021-10-09 11:59:32</time>
      </trkpt>
      <trkpt lat="40.57486" lon="-2.07636">
        <ele>1197.2</ele>
        <time>2021-10-09 11:59:33</time>
      </trkpt>
      <trkpt lat="40.57485" lon="-2.07634">
        <ele>1197.2</ele>
        <time>2021-10-09 11:59:34</time>
      </trkpt>
      <trkpt lat="40.57484" lon="-2.07633">
        <ele>1197.6</ele>
        <time>2021-10-09 11:59:35</time>
      </trkpt>
      <trkpt lat="40.57482" lon="-2.07632">
        <ele>1197.6</ele>
        <time>2021-10-09 11:59:36</time>
      </trkpt>
      <trkpt lat="40.57481" lon="-2.07633">
        <ele>1197.8</ele>
        <time>2021-10-09 11:59:37</time>
      </trkpt>
      <trkpt lat="40.57479" lon="-2.07633">
        <ele>1197.8</ele>
        <time>2021-10-09 11:59:38</time>
      </trkpt>
      <trkpt lat="40.57477" lon="-2.07634">
        <ele>1197.8</ele>
        <time>2021-10-09 11:59:39</time>
      </trkpt>
      <trkpt lat="40.57476" lon="-2.07634">
        <ele>1198.2</ele>
        <time>2021-10-09 11:59:40</time>
      </trkpt>
      <trkpt lat="40.57474" lon="-2.07635">
        <ele>1198.4</ele>
        <time>2021-10-09 11:59:41</time>
      </trkpt>
      <trkpt lat="40.57472" lon="-2.07635">
        <ele>1198.4</ele>
        <time>2021-10-09 11:59:42</time>
      </trkpt>
      <trkpt lat="40.57471" lon="-2.07636">
        <ele>1198.8</ele>
        <time>2021-10-09 11:59:43</time>
      </trkpt>
      <trkpt lat="40.57469" lon="-2.07637">
        <ele>1199</ele>
        <time>2021-10-09 11:59:44</time>
      </trkpt>
      <trkpt lat="40.57467" lon="-2.07638">
        <ele>1199.2</ele>
        <time>2021-10-09 11:59:45</time>
      </trkpt>
      <trkpt lat="40.57466" lon="-2.07639">
        <ele>1199.6</ele>
        <time>2021-10-09 11:59:46</time>
      </trkpt>
      <trkpt lat="40.57464" lon="-2.0764">
        <ele>1199.8</ele>
        <time>2021-10-09 11:59:47</time>
      </trkpt>
      <trkpt lat="40.57462" lon="-2.07641">
        <ele>1200</ele>
        <time>2021-10-09 11:59:48</time>
      </trkpt>
      <trkpt lat="40.57461" lon="-2.07642">
        <ele>1200.2</ele>
        <time>2021-10-09 11:59:49</time>
      </trkpt>
      <trkpt lat="40.5746" lon="-2.07642">
        <ele>1200.2</ele>
        <time>2021-10-09 11:59:50</time>
      </trkpt>
      <trkpt lat="40.57459" lon="-2.07642">
        <ele>1200.6</ele>
        <time>2021-10-09 11:59:51</time>
      </trkpt>
      <trkpt lat="40.57458" lon="-2.07642">
        <ele>1200.6</ele>
        <time>2021-10-09 11:59:52</time>
      </trkpt>
      <trkpt lat="40.57457" lon="-2.07643">
        <ele>1201</ele>
        <time>2021-10-09 11:59:53</time>
      </trkpt>
      <trkpt lat="40.57455" lon="-2.07643">
        <ele>1201</ele>
        <time>2021-10-09 11:59:54</time>
      </trkpt>
      <trkpt lat="40.57453" lon="-2.07644">
        <ele>1201.2</ele>
        <time>2021-10-09 11:59:55</time>
      </trkpt>
      <trkpt lat="40.57452" lon="-2.07645">
        <ele>1201.2</ele>
        <time>2021-10-09 11:59:56</time>
      </trkpt>
      <trkpt lat="40.5745" lon="-2.07646">
        <ele>1201.4</ele>
        <time>2021-10-09 11:59:57</time>
      </trkpt>
      <trkpt lat="40.57449" lon="-2.07647">
        <ele>1201.4</ele>
        <time>2021-10-09 11:59:58</time>
      </trkpt>
      <trkpt lat="40.57447" lon="-2.07648">
        <ele>1201.8</ele>
        <time>2021-10-09 11:59:59</time>
      </trkpt>
      <trkpt lat="40.57446" lon="-2.07648">
        <ele>1201.8</ele>
        <time>2021-10-09 12:00:00</time>
      </trkpt>
      <trkpt lat="40.57444" lon="-2.07649">
        <ele>1202.2</ele>
        <time>2021-10-09 12:00:01</time>
      </trkpt>
      <trkpt lat="40.57443" lon="-2.0765">
        <ele>1202.2</ele>
        <time>2021-10-09 12:00:02</time>
      </trkpt>
      <trkpt lat="40.57441" lon="-2.07651">
        <ele>1202.4</ele>
        <time>2021-10-09 12:00:03</time>
      </trkpt>
      <trkpt lat="40.5744" lon="-2.07652">
        <ele>1202.4</ele>
        <time>2021-10-09 12:00:04</time>
      </trkpt>
      <trkpt lat="40.57438" lon="-2.07654">
        <ele>1202.8</ele>
        <time>2021-10-09 12:00:05</time>
      </trkpt>
      <trkpt lat="40.57436" lon="-2.07655">
        <ele>1202.8</ele>
        <time>2021-10-09 12:00:06</time>
      </trkpt>
      <trkpt lat="40.57435" lon="-2.07656">
        <ele>1203</ele>
        <time>2021-10-09 12:00:07</time>
      </trkpt>
      <trkpt lat="40.57433" lon="-2.07657">
        <ele>1203</ele>
        <time>2021-10-09 12:00:08</time>
      </trkpt>
      <trkpt lat="40.57432" lon="-2.07658">
        <ele>1203.4</ele>
        <time>2021-10-09 12:00:09</time>
      </trkpt>
      <trkpt lat="40.57431" lon="-2.0766">
        <ele>1203.4</ele>
        <time>2021-10-09 12:00:10</time>
      </trkpt>
      <trkpt lat="40.57429" lon="-2.07661">
        <ele>1203.6</ele>
        <time>2021-10-09 12:00:11</time>
      </trkpt>
      <trkpt lat="40.57427" lon="-2.07662">
        <ele>1203.6</ele>
        <time>2021-10-09 12:00:12</time>
      </trkpt>
      <trkpt lat="40.57426" lon="-2.07664">
        <ele>1204</ele>
        <time>2021-10-09 12:00:13</time>
      </trkpt>
      <trkpt lat="40.57425" lon="-2.07665">
        <ele>1204.2</ele>
        <time>2021-10-09 12:00:14</time>
      </trkpt>
      <trkpt lat="40.57424" lon="-2.07668">
        <ele>1204.2</ele>
        <time>2021-10-09 12:00:15</time>
      </trkpt>
      <trkpt lat="40.57423" lon="-2.0767">
        <ele>1204.4</ele>
        <time>2021-10-09 12:00:16</time>
      </trkpt>
      <trkpt lat="40.57421" lon="-2.07671">
        <ele>1204.4</ele>
        <time>2021-10-09 12:00:17</time>
      </trkpt>
      <trkpt lat="40.5742" lon="-2.07673">
        <ele>1204.8</ele>
        <time>2021-10-09 12:00:18</time>
      </trkpt>
      <trkpt lat="40.57419" lon="-2.07675">
        <ele>1204.8</ele>
        <time>2021-10-09 12:00:19</time>
      </trkpt>
      <trkpt lat="40.57418" lon="-2.07677">
        <ele>1205</ele>
        <time>2021-10-09 12:00:20</time>
      </trkpt>
      <trkpt lat="40.57417" lon="-2.07679">
        <ele>1205</ele>
        <time>2021-10-09 12:00:21</time>
      </trkpt>
      <trkpt lat="40.57416" lon="-2.07681">
        <ele>1205.2</ele>
        <time>2021-10-09 12:00:22</time>
      </trkpt>
      <trkpt lat="40.57415" lon="-2.07683">
        <ele>1205.2</ele>
        <time>2021-10-09 12:00:23</time>
      </trkpt>
      <trkpt lat="40.57414" lon="-2.07685">
        <ele>1205.2</ele>
        <time>2021-10-09 12:00:24</time>
      </trkpt>
      <trkpt lat="40.57413" lon="-2.07687">
        <ele>1205.6</ele>
        <time>2021-10-09 12:00:25</time>
      </trkpt>
      <trkpt lat="40.57412" lon="-2.07689">
        <ele>1205.6</ele>
        <time>2021-10-09 12:00:26</time>
      </trkpt>
      <trkpt lat="40.57411" lon="-2.07691">
        <ele>1205.6</ele>
        <time>2021-10-09 12:00:27</time>
      </trkpt>
      <trkpt lat="40.57409" lon="-2.07693">
        <ele>1205.8</ele>
        <time>2021-10-09 12:00:28</time>
      </trkpt>
      <trkpt lat="40.57408" lon="-2.07695">
        <ele>1205.8</ele>
        <time>2021-10-09 12:00:29</time>
      </trkpt>
      <trkpt lat="40.57408" lon="-2.07697">
        <ele>1206</ele>
        <time>2021-10-09 12:00:30</time>
      </trkpt>
      <trkpt lat="40.57407" lon="-2.07699">
        <ele>1206</ele>
        <time>2021-10-09 12:00:31</time>
      </trkpt>
      <trkpt lat="40.57406" lon="-2.07702">
        <ele>1206.4</ele>
        <time>2021-10-09 12:00:32</time>
      </trkpt>
      <trkpt lat="40.57405" lon="-2.07704">
        <ele>1206.4</ele>
        <time>2021-10-09 12:00:33</time>
      </trkpt>
      <trkpt lat="40.57404" lon="-2.07706">
        <ele>1206.6</ele>
        <time>2021-10-09 12:00:34</time>
      </trkpt>
      <trkpt lat="40.57402" lon="-2.07708">
        <ele>1206.6</ele>
        <time>2021-10-09 12:00:35</time>
      </trkpt>
      <trkpt lat="40.57401" lon="-2.07709">
        <ele>1207</ele>
        <time>2021-10-09 12:00:36</time>
      </trkpt>
      <trkpt lat="40.57399" lon="-2.0771">
        <ele>1207</ele>
        <time>2021-10-09 12:00:37</time>
      </trkpt>
      <trkpt lat="40.57397" lon="-2.07711">
        <ele>1207.2</ele>
        <time>2021-10-09 12:00:38</time>
      </trkpt>
      <trkpt lat="40.57395" lon="-2.07712">
        <ele>1207.2</ele>
        <time>2021-10-09 12:00:39</time>
      </trkpt>
      <trkpt lat="40.57393" lon="-2.07714">
        <ele>1207.4</ele>
        <time>2021-10-09 12:00:40</time>
      </trkpt>
      <trkpt lat="40.57391" lon="-2.07715">
        <ele>1207.4</ele>
        <time>2021-10-09 12:00:41</time>
      </trkpt>
      <trkpt lat="40.5739" lon="-2.07715">
        <ele>1207.8</ele>
        <time>2021-10-09 12:00:42</time>
      </trkpt>
      <trkpt lat="40.57388" lon="-2.07716">
        <ele>1207.8</ele>
        <time>2021-10-09 12:00:43</time>
      </trkpt>
      <trkpt lat="40.57387" lon="-2.07716">
        <ele>1208</ele>
        <time>2021-10-09 12:00:44</time>
      </trkpt>
      <trkpt lat="40.57386" lon="-2.07716">
        <ele>1208</ele>
        <time>2021-10-09 12:00:45</time>
      </trkpt>
      <trkpt lat="40.57385" lon="-2.07716">
        <ele>1208.2</ele>
        <time>2021-10-09 12:00:46</time>
      </trkpt>
      <trkpt lat="40.57383" lon="-2.07715">
        <ele>1208.2</ele>
        <time>2021-10-09 12:00:47</time>
      </trkpt>
      <trkpt lat="40.57382" lon="-2.07715">
        <ele>1208.6</ele>
        <time>2021-10-09 12:00:48</time>
      </trkpt>
      <trkpt lat="40.57381" lon="-2.07714">
        <ele>1208.6</ele>
        <time>2021-10-09 12:00:49</time>
      </trkpt>
      <trkpt lat="40.57379" lon="-2.07713">
        <ele>1208.8</ele>
        <time>2021-10-09 12:00:50</time>
      </trkpt>
      <trkpt lat="40.57378" lon="-2.07713">
        <ele>1208.8</ele>
        <time>2021-10-09 12:00:51</time>
      </trkpt>
      <trkpt lat="40.57377" lon="-2.07712">
        <ele>1209.2</ele>
        <time>2021-10-09 12:00:52</time>
      </trkpt>
      <trkpt lat="40.57376" lon="-2.0771">
        <ele>1209.2</ele>
        <time>2021-10-09 12:00:53</time>
      </trkpt>
      <trkpt lat="40.57375" lon="-2.07709">
        <ele>1209.6</ele>
        <time>2021-10-09 12:00:54</time>
      </trkpt>
      <trkpt lat="40.57374" lon="-2.07708">
        <ele>1209.6</ele>
        <time>2021-10-09 12:00:55</time>
      </trkpt>
      <trkpt lat="40.57374" lon="-2.07706">
        <ele>1210</ele>
        <time>2021-10-09 12:00:56</time>
      </trkpt>
      <trkpt lat="40.57373" lon="-2.07704">
        <ele>1210.2</ele>
        <time>2021-10-09 12:00:57</time>
      </trkpt>
      <trkpt lat="40.57373" lon="-2.07702">
        <ele>1210.2</ele>
        <time>2021-10-09 12:00:58</time>
      </trkpt>
      <trkpt lat="40.57373" lon="-2.077">
        <ele>1210.6</ele>
        <time>2021-10-09 12:00:59</time>
      </trkpt>
      <trkpt lat="40.57373" lon="-2.07698">
        <ele>1210.6</ele>
        <time>2021-10-09 12:01:00</time>
      </trkpt>
      <trkpt lat="40.57374" lon="-2.07696">
        <ele>1211</ele>
        <time>2021-10-09 12:01:01</time>
      </trkpt>
      <trkpt lat="40.57374" lon="-2.07694">
        <ele>1211</ele>
        <time>2021-10-09 12:01:02</time>
      </trkpt>
      <trkpt lat="40.57374" lon="-2.07692">
        <ele>1211.4</ele>
        <time>2021-10-09 12:01:03</time>
      </trkpt>
      <trkpt lat="40.57374" lon="-2.0769">
        <ele>1211.4</ele>
        <time>2021-10-09 12:01:04</time>
      </trkpt>
      <trkpt lat="40.57375" lon="-2.07688">
        <ele>1211.6</ele>
        <time>2021-10-09 12:01:05</time>
      </trkpt>
      <trkpt lat="40.57376" lon="-2.07686">
        <ele>1211.6</ele>
        <time>2021-10-09 12:01:06</time>
      </trkpt>
      <trkpt lat="40.57377" lon="-2.07684">
        <ele>1212</ele>
        <time>2021-10-09 12:01:07</time>
      </trkpt>
      <trkpt lat="40.57378" lon="-2.07682">
        <ele>1212</ele>
        <time>2021-10-09 12:01:08</time>
      </trkpt>
      <trkpt lat="40.57379" lon="-2.07681">
        <ele>1212.2</ele>
        <time>2021-10-09 12:01:09</time>
      </trkpt>
      <trkpt lat="40.5738" lon="-2.07679">
        <ele>1212.2</ele>
        <time>2021-10-09 12:01:10</time>
      </trkpt>
      <trkpt lat="40.5738" lon="-2.07677">
        <ele>1212.6</ele>
        <time>2021-10-09 12:01:11</time>
      </trkpt>
      <trkpt lat="40.57381" lon="-2.07675">
        <ele>1212.6</ele>
        <time>2021-10-09 12:01:12</time>
      </trkpt>
      <trkpt lat="40.57381" lon="-2.07673">
        <ele>1212.8</ele>
        <time>2021-10-09 12:01:13</time>
      </trkpt>
      <trkpt lat="40.57381" lon="-2.0767">
        <ele>1212.8</ele>
        <time>2021-10-09 12:01:14</time>
      </trkpt>
      <trkpt lat="40.57382" lon="-2.07667">
        <ele>1213.2</ele>
        <time>2021-10-09 12:01:15</time>
      </trkpt>
      <trkpt lat="40.57382" lon="-2.07666">
        <ele>1213.2</ele>
        <time>2021-10-09 12:01:16</time>
      </trkpt>
      <trkpt lat="40.57383" lon="-2.07664">
        <ele>1213.4</ele>
        <time>2021-10-09 12:01:17</time>
      </trkpt>
      <trkpt lat="40.57384" lon="-2.07663">
        <ele>1213.4</ele>
        <time>2021-10-09 12:01:18</time>
      </trkpt>
      <trkpt lat="40.57384" lon="-2.07661">
        <ele>1213.8</ele>
        <time>2021-10-09 12:01:19</time>
      </trkpt>
      <trkpt lat="40.57385" lon="-2.07659">
        <ele>1213.8</ele>
        <time>2021-10-09 12:01:20</time>
      </trkpt>
      <trkpt lat="40.57385" lon="-2.07656">
        <ele>1214</ele>
        <time>2021-10-09 12:01:21</time>
      </trkpt>
      <trkpt lat="40.57385" lon="-2.07654">
        <ele>1214</ele>
        <time>2021-10-09 12:01:22</time>
      </trkpt>
      <trkpt lat="40.57385" lon="-2.07652">
        <ele>1214.4</ele>
        <time>2021-10-09 12:01:23</time>
      </trkpt>
      <trkpt lat="40.57385" lon="-2.0765">
        <ele>1214.4</ele>
        <time>2021-10-09 12:01:24</time>
      </trkpt>
      <trkpt lat="40.57385" lon="-2.07648">
        <ele>1214.6</ele>
        <time>2021-10-09 12:01:25</time>
      </trkpt>
      <trkpt lat="40.57385" lon="-2.07646">
        <ele>1214.6</ele>
        <time>2021-10-09 12:01:26</time>
      </trkpt>
      <trkpt lat="40.57385" lon="-2.07644">
        <ele>1214.8</ele>
        <time>2021-10-09 12:01:27</time>
      </trkpt>
      <trkpt lat="40.57384" lon="-2.07642">
        <ele>1214.8</ele>
        <time>2021-10-09 12:01:28</time>
      </trkpt>
      <trkpt lat="40.57383" lon="-2.0764">
        <ele>1215.2</ele>
        <time>2021-10-09 12:01:29</time>
      </trkpt>
      <trkpt lat="40.57381" lon="-2.07638">
        <ele>1215.4</ele>
        <time>2021-10-09 12:01:30</time>
      </trkpt>
      <trkpt lat="40.5738" lon="-2.07637">
        <ele>1215.4</ele>
        <time>2021-10-09 12:01:31</time>
      </trkpt>
      <trkpt lat="40.57378" lon="-2.07636">
        <ele>1215.8</ele>
        <time>2021-10-09 12:01:32</time>
      </trkpt>
      <trkpt lat="40.57376" lon="-2.07636">
        <ele>1215.8</ele>
        <time>2021-10-09 12:01:33</time>
      </trkpt>
      <trkpt lat="40.57374" lon="-2.07637">
        <ele>1216.2</ele>
        <time>2021-10-09 12:01:34</time>
      </trkpt>
      <trkpt lat="40.57372" lon="-2.07639">
        <ele>1216.4</ele>
        <time>2021-10-09 12:01:35</time>
      </trkpt>
      <trkpt lat="40.57371" lon="-2.07641">
        <ele>1216.4</ele>
        <time>2021-10-09 12:01:36</time>
      </trkpt>
      <trkpt lat="40.5737" lon="-2.07643">
        <ele>1216.6</ele>
        <time>2021-10-09 12:01:37</time>
      </trkpt>
      <trkpt lat="40.57369" lon="-2.07645">
        <ele>1216.6</ele>
        <time>2021-10-09 12:01:38</time>
      </trkpt>
      <trkpt lat="40.57368" lon="-2.07648">
        <ele>1217</ele>
        <time>2021-10-09 12:01:39</time>
      </trkpt>
      <trkpt lat="40.57367" lon="-2.07651">
        <ele>1217</ele>
        <time>2021-10-09 12:01:40</time>
      </trkpt>
      <trkpt lat="40.57367" lon="-2.07653">
        <ele>1217.4</ele>
        <time>2021-10-09 12:01:41</time>
      </trkpt>
      <trkpt lat="40.57367" lon="-2.07655">
        <ele>1217.4</ele>
        <time>2021-10-09 12:01:42</time>
      </trkpt>
      <trkpt lat="40.57367" lon="-2.07658">
        <ele>1217.6</ele>
        <time>2021-10-09 12:01:43</time>
      </trkpt>
      <trkpt lat="40.57366" lon="-2.0766">
        <ele>1217.6</ele>
        <time>2021-10-09 12:01:44</time>
      </trkpt>
      <trkpt lat="40.57366" lon="-2.07662">
        <ele>1218</ele>
        <time>2021-10-09 12:01:45</time>
      </trkpt>
      <trkpt lat="40.57366" lon="-2.07665">
        <ele>1218</ele>
        <time>2021-10-09 12:01:46</time>
      </trkpt>
      <trkpt lat="40.57365" lon="-2.07667">
        <ele>1218.2</ele>
        <time>2021-10-09 12:01:47</time>
      </trkpt>
      <trkpt lat="40.57364" lon="-2.07668">
        <ele>1218.2</ele>
        <time>2021-10-09 12:01:48</time>
      </trkpt>
      <trkpt lat="40.57363" lon="-2.07669">
        <ele>1218.6</ele>
        <time>2021-10-09 12:01:49</time>
      </trkpt>
      <trkpt lat="40.57363" lon="-2.07671">
        <ele>1218.6</ele>
        <time>2021-10-09 12:01:50</time>
      </trkpt>
      <trkpt lat="40.57362" lon="-2.07673">
        <ele>1219</ele>
        <time>2021-10-09 12:01:51</time>
      </trkpt>
      <trkpt lat="40.57361" lon="-2.07675">
        <ele>1219</ele>
        <time>2021-10-09 12:01:52</time>
      </trkpt>
      <trkpt lat="40.5736" lon="-2.07676">
        <ele>1219.2</ele>
        <time>2021-10-09 12:01:53</time>
      </trkpt>
      <trkpt lat="40.57359" lon="-2.07677">
        <ele>1219.2</ele>
        <time>2021-10-09 12:01:54</time>
      </trkpt>
      <trkpt lat="40.57358" lon="-2.07679">
        <ele>1219.4</ele>
        <time>2021-10-09 12:01:55</time>
      </trkpt>
      <trkpt lat="40.57357" lon="-2.07681">
        <ele>1219.4</ele>
        <time>2021-10-09 12:01:56</time>
      </trkpt>
      <trkpt lat="40.57356" lon="-2.07682">
        <ele>1219.8</ele>
        <time>2021-10-09 12:01:57</time>
      </trkpt>
      <trkpt lat="40.57355" lon="-2.07684">
        <ele>1219.8</ele>
        <time>2021-10-09 12:01:58</time>
      </trkpt>
      <trkpt lat="40.57354" lon="-2.07686">
        <ele>1220</ele>
        <time>2021-10-09 12:01:59</time>
      </trkpt>
      <trkpt lat="40.57354" lon="-2.07688">
        <ele>1220</ele>
        <time>2021-10-09 12:02:00</time>
      </trkpt>
      <trkpt lat="40.57353" lon="-2.0769">
        <ele>1220.4</ele>
        <time>2021-10-09 12:02:01</time>
      </trkpt>
      <trkpt lat="40.57353" lon="-2.07692">
        <ele>1220.6</ele>
        <time>2021-10-09 12:02:02</time>
      </trkpt>
      <trkpt lat="40.57352" lon="-2.07694">
        <ele>1220.8</ele>
        <time>2021-10-09 12:02:03</time>
      </trkpt>
      <trkpt lat="40.57351" lon="-2.07696">
        <ele>1220.8</ele>
        <time>2021-10-09 12:02:04</time>
      </trkpt>
      <trkpt lat="40.57351" lon="-2.07698">
        <ele>1221.2</ele>
        <time>2021-10-09 12:02:05</time>
      </trkpt>
      <trkpt lat="40.5735" lon="-2.077">
        <ele>1221.2</ele>
        <time>2021-10-09 12:02:06</time>
      </trkpt>
      <trkpt lat="40.57349" lon="-2.07702">
        <ele>1221.6</ele>
        <time>2021-10-09 12:02:07</time>
      </trkpt>
      <trkpt lat="40.57348" lon="-2.07703">
        <ele>1221.8</ele>
        <time>2021-10-09 12:02:08</time>
      </trkpt>
      <trkpt lat="40.57347" lon="-2.07705">
        <ele>1221.8</ele>
        <time>2021-10-09 12:02:09</time>
      </trkpt>
      <trkpt lat="40.57345" lon="-2.07706">
        <ele>1222</ele>
        <time>2021-10-09 12:02:10</time>
      </trkpt>
      <trkpt lat="40.57344" lon="-2.07706">
        <ele>1222</ele>
        <time>2021-10-09 12:02:11</time>
      </trkpt>
      <trkpt lat="40.57342" lon="-2.07707">
        <ele>1222.2</ele>
        <time>2021-10-09 12:02:12</time>
      </trkpt>
      <trkpt lat="40.5734" lon="-2.07707">
        <ele>1222.2</ele>
        <time>2021-10-09 12:02:13</time>
      </trkpt>
      <trkpt lat="40.57339" lon="-2.07707">
        <ele>1222.6</ele>
        <time>2021-10-09 12:02:14</time>
      </trkpt>
      <trkpt lat="40.57337" lon="-2.07707">
        <ele>1222.6</ele>
        <time>2021-10-09 12:02:15</time>
      </trkpt>
      <trkpt lat="40.57336" lon="-2.07706">
        <ele>1223</ele>
        <time>2021-10-09 12:02:16</time>
      </trkpt>
      <trkpt lat="40.57335" lon="-2.07704">
        <ele>1223.2</ele>
        <time>2021-10-09 12:02:17</time>
      </trkpt>
      <trkpt lat="40.57334" lon="-2.07703">
        <ele>1223.2</ele>
        <time>2021-10-09 12:02:18</time>
      </trkpt>
      <trkpt lat="40.57333" lon="-2.07702">
        <ele>1223.6</ele>
        <time>2021-10-09 12:02:19</time>
      </trkpt>
      <trkpt lat="40.57333" lon="-2.077">
        <ele>1223.6</ele>
        <time>2021-10-09 12:02:20</time>
      </trkpt>
      <trkpt lat="40.57333" lon="-2.07699">
        <ele>1224</ele>
        <time>2021-10-09 12:02:21</time>
      </trkpt>
      <trkpt lat="40.57333" lon="-2.07698">
        <ele>1224.2</ele>
        <time>2021-10-09 12:02:22</time>
      </trkpt>
      <trkpt lat="40.57334" lon="-2.07696">
        <ele>1224.4</ele>
        <time>2021-10-09 12:02:23</time>
      </trkpt>
      <trkpt lat="40.57334" lon="-2.07694">
        <ele>1224.4</ele>
        <time>2021-10-09 12:02:24</time>
      </trkpt>
      <trkpt lat="40.57334" lon="-2.07692">
        <ele>1224.6</ele>
        <time>2021-10-09 12:02:25</time>
      </trkpt>
      <trkpt lat="40.57334" lon="-2.07689">
        <ele>1224.6</ele>
        <time>2021-10-09 12:02:26</time>
      </trkpt>
      <trkpt lat="40.57335" lon="-2.07688">
        <ele>1225</ele>
        <time>2021-10-09 12:02:27</time>
      </trkpt>
      <trkpt lat="40.57334" lon="-2.07686">
        <ele>1225</ele>
        <time>2021-10-09 12:02:28</time>
      </trkpt>
      <trkpt lat="40.57334" lon="-2.07684">
        <ele>1225.2</ele>
        <time>2021-10-09 12:02:29</time>
      </trkpt>
      <trkpt lat="40.57332" lon="-2.07682">
        <ele>1225.4</ele>
        <time>2021-10-09 12:02:30</time>
      </trkpt>
      <trkpt lat="40.57331" lon="-2.07681">
        <ele>1225.6</ele>
        <time>2021-10-09 12:02:31</time>
      </trkpt>
      <trkpt lat="40.57329" lon="-2.0768">
        <ele>1225.6</ele>
        <time>2021-10-09 12:02:32</time>
      </trkpt>
      <trkpt lat="40.57327" lon="-2.0768">
        <ele>1226</ele>
        <time>2021-10-09 12:02:33</time>
      </trkpt>
      <trkpt lat="40.57325" lon="-2.0768">
        <ele>1226.4</ele>
        <time>2021-10-09 12:02:34</time>
      </trkpt>
      <trkpt lat="40.57324" lon="-2.07679">
        <ele>1226.6</ele>
        <time>2021-10-09 12:02:35</time>
      </trkpt>
      <trkpt lat="40.57322" lon="-2.07679">
        <ele>1226.6</ele>
        <time>2021-10-09 12:02:36</time>
      </trkpt>
      <trkpt lat="40.5732" lon="-2.07678">
        <ele>1227</ele>
        <time>2021-10-09 12:02:37</time>
      </trkpt>
      <trkpt lat="40.57319" lon="-2.07678">
        <ele>1227.2</ele>
        <time>2021-10-09 12:02:38</time>
      </trkpt>
      <trkpt lat="40.57317" lon="-2.07677">
        <ele>1227.2</ele>
        <time>2021-10-09 12:02:39</time>
      </trkpt>
      <trkpt lat="40.57316" lon="-2.07676">
        <ele>1227.6</ele>
        <time>2021-10-09 12:02:40</time>
      </trkpt>
      <trkpt lat="40.57314" lon="-2.07676">
        <ele>1227.8</ele>
        <time>2021-10-09 12:02:41</time>
      </trkpt>
      <trkpt lat="40.57312" lon="-2.07675">
        <ele>1228</ele>
        <time>2021-10-09 12:02:42</time>
      </trkpt>
      <trkpt lat="40.57311" lon="-2.07674">
        <ele>1228.2</ele>
        <time>2021-10-09 12:02:43</time>
      </trkpt>
      <trkpt lat="40.57309" lon="-2.07674">
        <ele>1228.2</ele>
        <time>2021-10-09 12:02:44</time>
      </trkpt>
      <trkpt lat="40.57307" lon="-2.07673">
        <ele>1228.6</ele>
        <time>2021-10-09 12:02:45</time>
      </trkpt>
      <trkpt lat="40.57305" lon="-2.07672">
        <ele>1228.6</ele>
        <time>2021-10-09 12:02:46</time>
      </trkpt>
      <trkpt lat="40.57303" lon="-2.07672">
        <ele>1229</ele>
        <time>2021-10-09 12:02:47</time>
      </trkpt>
      <trkpt lat="40.573" lon="-2.07671">
        <ele>1229</ele>
        <time>2021-10-09 12:02:48</time>
      </trkpt>
      <trkpt lat="40.57298" lon="-2.07671">
        <ele>1229.2</ele>
        <time>2021-10-09 12:02:49</time>
      </trkpt>
      <trkpt lat="40.57296" lon="-2.0767">
        <ele>1229.2</ele>
        <time>2021-10-09 12:02:50</time>
      </trkpt>
      <trkpt lat="40.57294" lon="-2.0767">
        <ele>1229.4</ele>
        <time>2021-10-09 12:02:51</time>
      </trkpt>
      <trkpt lat="40.57292" lon="-2.0767">
        <ele>1229.4</ele>
        <time>2021-10-09 12:02:52</time>
      </trkpt>
      <trkpt lat="40.57289" lon="-2.07669">
        <ele>1229.8</ele>
        <time>2021-10-09 12:02:53</time>
      </trkpt>
      <trkpt lat="40.57287" lon="-2.07669">
        <ele>1229.8</ele>
        <time>2021-10-09 12:02:54</time>
      </trkpt>
      <trkpt lat="40.57285" lon="-2.07668">
        <ele>1230</ele>
        <time>2021-10-09 12:02:55</time>
      </trkpt>
      <trkpt lat="40.57283" lon="-2.07668">
        <ele>1230</ele>
        <time>2021-10-09 12:02:56</time>
      </trkpt>
      <trkpt lat="40.57281" lon="-2.07668">
        <ele>1230.2</ele>
        <time>2021-10-09 12:02:57</time>
      </trkpt>
      <trkpt lat="40.57279" lon="-2.07668">
        <ele>1230.2</ele>
        <time>2021-10-09 12:02:58</time>
      </trkpt>
      <trkpt lat="40.57277" lon="-2.07669">
        <ele>1230.6</ele>
        <time>2021-10-09 12:02:59</time>
      </trkpt>
      <trkpt lat="40.57275" lon="-2.07669">
        <ele>1230.6</ele>
        <time>2021-10-09 12:03:00</time>
      </trkpt>
      <trkpt lat="40.57273" lon="-2.0767">
        <ele>1230.8</ele>
        <time>2021-10-09 12:03:01</time>
      </trkpt>
      <trkpt lat="40.57272" lon="-2.07671">
        <ele>1230.8</ele>
        <time>2021-10-09 12:03:02</time>
      </trkpt>
      <trkpt lat="40.5727" lon="-2.07671">
        <ele>1230.8</ele>
        <time>2021-10-09 12:03:03</time>
      </trkpt>
      <trkpt lat="40.57268" lon="-2.07671">
        <ele>1231.2</ele>
        <time>2021-10-09 12:03:04</time>
      </trkpt>
      <trkpt lat="40.57266" lon="-2.07671">
        <ele>1231.2</ele>
        <time>2021-10-09 12:03:05</time>
      </trkpt>
      <trkpt lat="40.57264" lon="-2.0767">
        <ele>1231.4</ele>
        <time>2021-10-09 12:03:06</time>
      </trkpt>
      <trkpt lat="40.57262" lon="-2.0767">
        <ele>1231.4</ele>
        <time>2021-10-09 12:03:07</time>
      </trkpt>
      <trkpt lat="40.5726" lon="-2.07669">
        <ele>1231.8</ele>
        <time>2021-10-09 12:03:08</time>
      </trkpt>
      <trkpt lat="40.57258" lon="-2.07668">
        <ele>1231.8</ele>
        <time>2021-10-09 12:03:09</time>
      </trkpt>
      <trkpt lat="40.57257" lon="-2.07668">
        <ele>1232</ele>
        <time>2021-10-09 12:03:10</time>
      </trkpt>
      <trkpt lat="40.57255" lon="-2.07667">
        <ele>1232</ele>
        <time>2021-10-09 12:03:11</time>
      </trkpt>
      <trkpt lat="40.57252" lon="-2.07666">
        <ele>1232.2</ele>
        <time>2021-10-09 12:03:12</time>
      </trkpt>
      <trkpt lat="40.57251" lon="-2.07665">
        <ele>1232.2</ele>
        <time>2021-10-09 12:03:13</time>
      </trkpt>
      <trkpt lat="40.57249" lon="-2.07663">
        <ele>1232.6</ele>
        <time>2021-10-09 12:03:14</time>
      </trkpt>
      <trkpt lat="40.57249" lon="-2.0766">
        <ele>1232.6</ele>
        <time>2021-10-09 12:03:15</time>
      </trkpt>
      <trkpt lat="40.57249" lon="-2.07657">
        <ele>1232.6</ele>
        <time>2021-10-09 12:03:16</time>
      </trkpt>
      <trkpt lat="40.5725" lon="-2.07654">
        <ele>1232.6</ele>
        <time>2021-10-09 12:03:17</time>
      </trkpt>
      <trkpt lat="40.5725" lon="-2.07652">
        <ele>1232.8</ele>
        <time>2021-10-09 12:03:18</time>
      </trkpt>
      <trkpt lat="40.5725" lon="-2.07649">
        <ele>1232.8</ele>
        <time>2021-10-09 12:03:19</time>
      </trkpt>
      <trkpt lat="40.57251" lon="-2.07646">
        <ele>1232.8</ele>
        <time>2021-10-09 12:03:20</time>
      </trkpt>
      <trkpt lat="40.57251" lon="-2.07643">
        <ele>1233</ele>
        <time>2021-10-09 12:03:21</time>
      </trkpt>
      <trkpt lat="40.57251" lon="-2.07641">
        <ele>1233</ele>
        <time>2021-10-09 12:03:22</time>
      </trkpt>
      <trkpt lat="40.57252" lon="-2.07638">
        <ele>1233</ele>
        <time>2021-10-09 12:03:23</time>
      </trkpt>
      <trkpt lat="40.57252" lon="-2.07636">
        <ele>1233</ele>
        <time>2021-10-09 12:03:24</time>
      </trkpt>
      <trkpt lat="40.57253" lon="-2.07634">
        <ele>1233</ele>
        <time>2021-10-09 12:03:25</time>
      </trkpt>
      <trkpt lat="40.57253" lon="-2.07632">
        <ele>1233</ele>
        <time>2021-10-09 12:03:26</time>
      </trkpt>
      <trkpt lat="40.57253" lon="-2.07631">
        <ele>1233.4</ele>
        <time>2021-10-09 12:03:27</time>
      </trkpt>
      <trkpt lat="40.57253" lon="-2.07629">
        <ele>1233.4</ele>
        <time>2021-10-09 12:03:28</time>
      </trkpt>
      <trkpt lat="40.57252" lon="-2.07627">
        <ele>1233.6</ele>
        <time>2021-10-09 12:03:29</time>
      </trkpt>
      <trkpt lat="40.57251" lon="-2.07627">
        <ele>1233.6</ele>
        <time>2021-10-09 12:03:30</time>
      </trkpt>
      <trkpt lat="40.57249" lon="-2.07626">
        <ele>1233.8</ele>
        <time>2021-10-09 12:03:31</time>
      </trkpt>
      <trkpt lat="40.57248" lon="-2.07626">
        <ele>1233.8</ele>
        <time>2021-10-09 12:03:32</time>
      </trkpt>
      <trkpt lat="40.57246" lon="-2.07626">
        <ele>1234</ele>
        <time>2021-10-09 12:03:33</time>
      </trkpt>
      <trkpt lat="40.57244" lon="-2.07626">
        <ele>1234</ele>
        <time>2021-10-09 12:03:34</time>
      </trkpt>
      <trkpt lat="40.57242" lon="-2.07626">
        <ele>1234</ele>
        <time>2021-10-09 12:03:35</time>
      </trkpt>
      <trkpt lat="40.5724" lon="-2.07625">
        <ele>1234.2</ele>
        <time>2021-10-09 12:03:36</time>
      </trkpt>
      <trkpt lat="40.57239" lon="-2.07624">
        <ele>1234.2</ele>
        <time>2021-10-09 12:03:37</time>
      </trkpt>
      <trkpt lat="40.57237" lon="-2.07624">
        <ele>1234.2</ele>
        <time>2021-10-09 12:03:38</time>
      </trkpt>
      <trkpt lat="40.57235" lon="-2.07623">
        <ele>1234.6</ele>
        <time>2021-10-09 12:03:39</time>
      </trkpt>
      <trkpt lat="40.57234" lon="-2.07622">
        <ele>1234.6</ele>
        <time>2021-10-09 12:03:40</time>
      </trkpt>
      <trkpt lat="40.57232" lon="-2.07622">
        <ele>1234.6</ele>
        <time>2021-10-09 12:03:41</time>
      </trkpt>
      <trkpt lat="40.5723" lon="-2.07621">
        <ele>1235</ele>
        <time>2021-10-09 12:03:42</time>
      </trkpt>
      <trkpt lat="40.57229" lon="-2.0762">
        <ele>1235</ele>
        <time>2021-10-09 12:03:43</time>
      </trkpt>
      <trkpt lat="40.57228" lon="-2.0762">
        <ele>1235.2</ele>
        <time>2021-10-09 12:03:44</time>
      </trkpt>
      <trkpt lat="40.57226" lon="-2.07619">
        <ele>1235.2</ele>
        <time>2021-10-09 12:03:45</time>
      </trkpt>
      <trkpt lat="40.57224" lon="-2.07618">
        <ele>1235.4</ele>
        <time>2021-10-09 12:03:46</time>
      </trkpt>
      <trkpt lat="40.57222" lon="-2.07618">
        <ele>1235.4</ele>
        <time>2021-10-09 12:03:47</time>
      </trkpt>
      <trkpt lat="40.57221" lon="-2.07617">
        <ele>1235.4</ele>
        <time>2021-10-09 12:03:48</time>
      </trkpt>
      <trkpt lat="40.5722" lon="-2.07617">
        <ele>1235.4</ele>
        <time>2021-10-09 12:03:49</time>
      </trkpt>
      <trkpt lat="40.57218" lon="-2.07618">
        <ele>1235.6</ele>
        <time>2021-10-09 12:03:50</time>
      </trkpt>
      <trkpt lat="40.57217" lon="-2.07618">
        <ele>1235.6</ele>
        <time>2021-10-09 12:03:51</time>
      </trkpt>
      <trkpt lat="40.57215" lon="-2.07619">
        <ele>1235.6</ele>
        <time>2021-10-09 12:03:52</time>
      </trkpt>
      <trkpt lat="40.57215" lon="-2.07619">
        <ele>1235.6</ele>
        <time>2021-10-09 12:03:53</time>
      </trkpt>
      <trkpt lat="40.57215" lon="-2.07619">
        <ele>1236</ele>
        <time>2021-10-09 12:03:54</time>
      </trkpt>
      <trkpt lat="40.57215" lon="-2.0762">
        <ele>1236</ele>
        <time>2021-10-09 12:03:55</time>
      </trkpt>
      <trkpt lat="40.57216" lon="-2.0762">
        <ele>1236</ele>
        <time>2021-10-09 12:03:56</time>
      </trkpt>
      <trkpt lat="40.57214" lon="-2.07619">
        <ele>1236</ele>
        <time>2021-10-09 12:03:57</time>
      </trkpt>
      <trkpt lat="40.57213" lon="-2.07619">
        <ele>1236</ele>
        <time>2021-10-09 12:03:58</time>
      </trkpt>
      <trkpt lat="40.57212" lon="-2.07619">
        <ele>1236</ele>
        <time>2021-10-09 12:03:59</time>
      </trkpt>
      <trkpt lat="40.57211" lon="-2.07619">
        <ele>1236</ele>
        <time>2021-10-09 12:04:00</time>
      </trkpt>
      <trkpt lat="40.5721" lon="-2.07618">
        <ele>1236</ele>
        <time>2021-10-09 12:04:01</time>
      </trkpt>
      <trkpt lat="40.57209" lon="-2.07618">
        <ele>1236</ele>
        <time>2021-10-09 12:04:02</time>
      </trkpt>
      <trkpt lat="40.57209" lon="-2.07618">
        <ele>1236</ele>
        <time>2021-10-09 12:04:03</time>
      </trkpt>
      <trkpt lat="40.57208" lon="-2.07619">
        <ele>1236</ele>
        <time>2021-10-09 12:04:04</time>
      </trkpt>
      <trkpt lat="40.57208" lon="-2.07619">
        <ele>1236</ele>
        <time>2021-10-09 12:04:07</time>
      </trkpt>
      <trkpt lat="40.57207" lon="-2.07619">
        <ele>1236</ele>
        <time>2021-10-09 12:04:08</time>
      </trkpt>
      <trkpt lat="40.57207" lon="-2.0762">
        <ele>1236</ele>
        <time>2021-10-09 12:04:09</time>
      </trkpt>
      <trkpt lat="40.57207" lon="-2.0762">
        <ele>1235.8</ele>
        <time>2021-10-09 12:04:10</time>
      </trkpt>
      <trkpt lat="40.57207" lon="-2.07621">
        <ele>1235.8</ele>
        <time>2021-10-09 12:04:11</time>
      </trkpt>
      <trkpt lat="40.57207" lon="-2.07622">
        <ele>1235.8</ele>
        <time>2021-10-09 12:04:12</time>
      </trkpt>
      <trkpt lat="40.57207" lon="-2.07623">
        <ele>1235.8</ele>
        <time>2021-10-09 12:04:13</time>
      </trkpt>
      <trkpt lat="40.57207" lon="-2.07624">
        <ele>1235.8</ele>
        <time>2021-10-09 12:04:14</time>
      </trkpt>
      <trkpt lat="40.57208" lon="-2.07625">
        <ele>1235.8</ele>
        <time>2021-10-09 12:04:15</time>
      </trkpt>
      <trkpt lat="40.57209" lon="-2.07624">
        <ele>1235.8</ele>
        <time>2021-10-09 12:04:16</time>
      </trkpt>
      <trkpt lat="40.57209" lon="-2.07624">
        <ele>1235.6</ele>
        <time>2021-10-09 12:04:17</time>
      </trkpt>
      <trkpt lat="40.57209" lon="-2.07623">
        <ele>1235.6</ele>
        <time>2021-10-09 12:04:18</time>
      </trkpt>
      <trkpt lat="40.57208" lon="-2.07623">
        <ele>1235</ele>
        <time>2021-10-09 12:04:19</time>
      </trkpt>
      <trkpt lat="40.57208" lon="-2.07623">
        <ele>1234.8</ele>
        <time>2021-10-09 12:04:20</time>
      </trkpt>
      <trkpt lat="40.57209" lon="-2.0762">
        <ele>1239.8</ele>
        <time>2021-10-09 12:04:21</time>
      </trkpt>
      <trkpt lat="40.57209" lon="-2.0762">
        <ele>1239.8</ele>
        <time>2021-10-09 12:04:22</time>
      </trkpt>
      <trkpt lat="40.57207" lon="-2.07614">
        <ele>1240.6</ele>
        <time>2021-10-09 12:04:23</time>
      </trkpt>
      <trkpt lat="40.57207" lon="-2.07612">
        <ele>1240.6</ele>
        <time>2021-10-09 12:04:24</time>
      </trkpt>
      <trkpt lat="40.57207" lon="-2.07611">
        <ele>1240.6</ele>
        <time>2021-10-09 12:04:25</time>
      </trkpt>
      <trkpt lat="40.57207" lon="-2.0761">
        <ele>1240.2</ele>
        <time>2021-10-09 12:04:26</time>
      </trkpt>
      <trkpt lat="40.57208" lon="-2.0761">
        <ele>1240.2</ele>
        <time>2021-10-09 12:04:27</time>
      </trkpt>
      <trkpt lat="40.57208" lon="-2.0761">
        <ele>1240.2</ele>
        <time>2021-10-09 12:04:28</time>
      </trkpt>
      <trkpt lat="40.57208" lon="-2.07611">
        <ele>1240.2</ele>
        <time>2021-10-09 12:37:51</time>
      </trkpt>
      <trkpt lat="40.57208" lon="-2.07611">
        <ele>1240.4</ele>
        <time>2021-10-09 12:37:52</time>
      </trkpt>
      <trkpt lat="40.57209" lon="-2.0761">
        <ele>1240.8</ele>
        <time>2021-10-09 12:37:53</time>
      </trkpt>
      <trkpt lat="40.57208" lon="-2.07609">
        <ele>1240.8</ele>
        <time>2021-10-09 12:37:54</time>
      </trkpt>
      <trkpt lat="40.57206" lon="-2.07607">
        <ele>1240.8</ele>
        <time>2021-10-09 12:37:55</time>
      </trkpt>
      <trkpt lat="40.57204" lon="-2.07606">
        <ele>1240.8</ele>
        <time>2021-10-09 12:37:56</time>
      </trkpt>
      <trkpt lat="40.57201" lon="-2.07605">
        <ele>1241</ele>
        <time>2021-10-09 12:37:57</time>
      </trkpt>
      <trkpt lat="40.57199" lon="-2.07605">
        <ele>1241</ele>
        <time>2021-10-09 12:37:58</time>
      </trkpt>
      <trkpt lat="40.57196" lon="-2.07605">
        <ele>1241</ele>
        <time>2021-10-09 12:37:59</time>
      </trkpt>
      <trkpt lat="40.57194" lon="-2.07604">
        <ele>1241</ele>
        <time>2021-10-09 12:38:00</time>
      </trkpt>
      <trkpt lat="40.57191" lon="-2.07603">
        <ele>1241</ele>
        <time>2021-10-09 12:38:01</time>
      </trkpt>
      <trkpt lat="40.57188" lon="-2.07602">
        <ele>1241</ele>
        <time>2021-10-09 12:38:02</time>
      </trkpt>
      <trkpt lat="40.57186" lon="-2.07601">
        <ele>1241</ele>
        <time>2021-10-09 12:38:03</time>
      </trkpt>
      <trkpt lat="40.57184" lon="-2.076">
        <ele>1241</ele>
        <time>2021-10-09 12:38:06</time>
      </trkpt>
      <trkpt lat="40.57182" lon="-2.07598">
        <ele>1241.6</ele>
        <time>2021-10-09 12:38:07</time>
      </trkpt>
      <trkpt lat="40.5718" lon="-2.07596">
        <ele>1241.8</ele>
        <time>2021-10-09 12:38:08</time>
      </trkpt>
      <trkpt lat="40.57177" lon="-2.07595">
        <ele>1242.2</ele>
        <time>2021-10-09 12:38:09</time>
      </trkpt>
      <trkpt lat="40.57175" lon="-2.07594">
        <ele>1242.2</ele>
        <time>2021-10-09 12:38:10</time>
      </trkpt>
      <trkpt lat="40.57172" lon="-2.07593">
        <ele>1242.2</ele>
        <time>2021-10-09 12:38:11</time>
      </trkpt>
      <trkpt lat="40.57169" lon="-2.07592">
        <ele>1242.4</ele>
        <time>2021-10-09 12:38:12</time>
      </trkpt>
      <trkpt lat="40.57166" lon="-2.0759">
        <ele>1242.4</ele>
        <time>2021-10-09 12:38:13</time>
      </trkpt>
      <trkpt lat="40.57163" lon="-2.0759">
        <ele>1242.4</ele>
        <time>2021-10-09 12:38:14</time>
      </trkpt>
      <trkpt lat="40.57159" lon="-2.07588">
        <ele>1242.4</ele>
        <time>2021-10-09 12:38:15</time>
      </trkpt>
      <trkpt lat="40.57155" lon="-2.07587">
        <ele>1242.4</ele>
        <time>2021-10-09 12:38:16</time>
      </trkpt>
      <trkpt lat="40.57149" lon="-2.07585">
        <ele>1242</ele>
        <time>2021-10-09 12:38:17</time>
      </trkpt>
      <trkpt lat="40.57145" lon="-2.07583">
        <ele>1241.8</ele>
        <time>2021-10-09 12:38:18</time>
      </trkpt>
      <trkpt lat="40.5714" lon="-2.0758">
        <ele>1241.4</ele>
        <time>2021-10-09 12:38:19</time>
      </trkpt>
      <trkpt lat="40.57135" lon="-2.07577">
        <ele>1241.4</ele>
        <time>2021-10-09 12:38:20</time>
      </trkpt>
      <trkpt lat="40.5713" lon="-2.07576">
        <ele>1241.4</ele>
        <time>2021-10-09 12:38:21</time>
      </trkpt>
      <trkpt lat="40.57126" lon="-2.07573">
        <ele>1241.2</ele>
        <time>2021-10-09 12:38:22</time>
      </trkpt>
      <trkpt lat="40.57121" lon="-2.07571">
        <ele>1240.6</ele>
        <time>2021-10-09 12:38:23</time>
      </trkpt>
      <trkpt lat="40.57116" lon="-2.07569">
        <ele>1240.6</ele>
        <time>2021-10-09 12:38:24</time>
      </trkpt>
      <trkpt lat="40.57112" lon="-2.07566">
        <ele>1240.6</ele>
        <time>2021-10-09 12:38:25</time>
      </trkpt>
      <trkpt lat="40.57108" lon="-2.07564">
        <ele>1240</ele>
        <time>2021-10-09 12:38:26</time>
      </trkpt>
      <trkpt lat="40.57104" lon="-2.07562">
        <ele>1239.6</ele>
        <time>2021-10-09 12:38:27</time>
      </trkpt>
      <trkpt lat="40.571" lon="-2.07558">
        <ele>1239.6</ele>
        <time>2021-10-09 12:38:28</time>
      </trkpt>
      <trkpt lat="40.57097" lon="-2.07554">
        <ele>1239</ele>
        <time>2021-10-09 12:38:29</time>
      </trkpt>
      <trkpt lat="40.57095" lon="-2.07548">
        <ele>1239</ele>
        <time>2021-10-09 12:38:30</time>
      </trkpt>
      <trkpt lat="40.57094" lon="-2.07542">
        <ele>1238.6</ele>
        <time>2021-10-09 12:38:31</time>
      </trkpt>
      <trkpt lat="40.57094" lon="-2.07536">
        <ele>1238.2</ele>
        <time>2021-10-09 12:38:32</time>
      </trkpt>
      <trkpt lat="40.57094" lon="-2.0753">
        <ele>1238</ele>
        <time>2021-10-09 12:38:33</time>
      </trkpt>
      <trkpt lat="40.57094" lon="-2.07523">
        <ele>1237.8</ele>
        <time>2021-10-09 12:38:34</time>
      </trkpt>
      <trkpt lat="40.57095" lon="-2.07517">
        <ele>1237.8</ele>
        <time>2021-10-09 12:38:35</time>
      </trkpt>
      <trkpt lat="40.57095" lon="-2.07511">
        <ele>1237.8</ele>
        <time>2021-10-09 12:38:36</time>
      </trkpt>
      <trkpt lat="40.57096" lon="-2.07506">
        <ele>1237.8</ele>
        <time>2021-10-09 12:38:37</time>
      </trkpt>
      <trkpt lat="40.57096" lon="-2.075">
        <ele>1237.8</ele>
        <time>2021-10-09 12:38:38</time>
      </trkpt>
      <trkpt lat="40.57096" lon="-2.07494">
        <ele>1237.8</ele>
        <time>2021-10-09 12:38:39</time>
      </trkpt>
      <trkpt lat="40.57097" lon="-2.07488">
        <ele>1238</ele>
        <time>2021-10-09 12:38:40</time>
      </trkpt>
      <trkpt lat="40.57098" lon="-2.07482">
        <ele>1238</ele>
        <time>2021-10-09 12:38:41</time>
      </trkpt>
      <trkpt lat="40.57098" lon="-2.07476">
        <ele>1238</ele>
        <time>2021-10-09 12:38:42</time>
      </trkpt>
      <trkpt lat="40.57099" lon="-2.0747">
        <ele>1238.4</ele>
        <time>2021-10-09 12:38:43</time>
      </trkpt>
      <trkpt lat="40.57099" lon="-2.07463">
        <ele>1238.4</ele>
        <time>2021-10-09 12:38:44</time>
      </trkpt>
      <trkpt lat="40.57098" lon="-2.07456">
        <ele>1238.2</ele>
        <time>2021-10-09 12:38:45</time>
      </trkpt>
      <trkpt lat="40.57097" lon="-2.0745">
        <ele>1238</ele>
        <time>2021-10-09 12:38:46</time>
      </trkpt>
      <trkpt lat="40.57089" lon="-2.07446">
        <ele>1238</ele>
        <time>2021-10-09 12:38:47</time>
      </trkpt>
      <trkpt lat="40.57083" lon="-2.07441">
        <ele>1237.6</ele>
        <time>2021-10-09 12:38:48</time>
      </trkpt>
      <trkpt lat="40.57083" lon="-2.07441">
        <ele>1237.4</ele>
        <time>2021-10-09 12:38:49</time>
      </trkpt>
      <trkpt lat="40.5707" lon="-2.0743">
        <ele>1236.8</ele>
        <time>2021-10-09 12:38:50</time>
      </trkpt>
      <trkpt lat="40.57063" lon="-2.07424">
        <ele>1236.4</ele>
        <time>2021-10-09 12:38:51</time>
      </trkpt>
      <trkpt lat="40.57057" lon="-2.07418">
        <ele>1236</ele>
        <time>2021-10-09 12:38:52</time>
      </trkpt>
      <trkpt lat="40.57051" lon="-2.07411">
        <ele>1235.4</ele>
        <time>2021-10-09 12:38:53</time>
      </trkpt>
      <trkpt lat="40.57045" lon="-2.07405">
        <ele>1235</ele>
        <time>2021-10-09 12:38:54</time>
      </trkpt>
      <trkpt lat="40.57039" lon="-2.07397">
        <ele>1234.4</ele>
        <time>2021-10-09 12:38:55</time>
      </trkpt>
      <trkpt lat="40.57033" lon="-2.07391">
        <ele>1234</ele>
        <time>2021-10-09 12:38:56</time>
      </trkpt>
      <trkpt lat="40.57028" lon="-2.07384">
        <ele>1233.6</ele>
        <time>2021-10-09 12:38:57</time>
      </trkpt>
      <trkpt lat="40.57022" lon="-2.07378">
        <ele>1233.4</ele>
        <time>2021-10-09 12:38:58</time>
      </trkpt>
      <trkpt lat="40.57017" lon="-2.07371">
        <ele>1233.2</ele>
        <time>2021-10-09 12:38:59</time>
      </trkpt>
      <trkpt lat="40.57011" lon="-2.07365">
        <ele>1233</ele>
        <time>2021-10-09 12:39:00</time>
      </trkpt>
      <trkpt lat="40.57005" lon="-2.07359">
        <ele>1233</ele>
        <time>2021-10-09 12:39:01</time>
      </trkpt>
      <trkpt lat="40.57" lon="-2.07353">
        <ele>1232.6</ele>
        <time>2021-10-09 12:39:02</time>
      </trkpt>
      <trkpt lat="40.56995" lon="-2.07347">
        <ele>1232.6</ele>
        <time>2021-10-09 12:39:03</time>
      </trkpt>
      <trkpt lat="40.5699" lon="-2.07341">
        <ele>1232.6</ele>
        <time>2021-10-09 12:39:04</time>
      </trkpt>
      <trkpt lat="40.56985" lon="-2.07335">
        <ele>1232.6</ele>
        <time>2021-10-09 12:39:05</time>
      </trkpt>
      <trkpt lat="40.56981" lon="-2.0733">
        <ele>1232.6</ele>
        <time>2021-10-09 12:39:06</time>
      </trkpt>
      <trkpt lat="40.56976" lon="-2.07324">
        <ele>1232.6</ele>
        <time>2021-10-09 12:39:07</time>
      </trkpt>
      <trkpt lat="40.56973" lon="-2.0732">
        <ele>1232.6</ele>
        <time>2021-10-09 12:39:08</time>
      </trkpt>
      <trkpt lat="40.56969" lon="-2.07315">
        <ele>1232.6</ele>
        <time>2021-10-09 12:39:09</time>
      </trkpt>
      <trkpt lat="40.56966" lon="-2.07312">
        <ele>1232.4</ele>
        <time>2021-10-09 12:39:10</time>
      </trkpt>
      <trkpt lat="40.56965" lon="-2.07308">
        <ele>1232.4</ele>
        <time>2021-10-09 12:39:11</time>
      </trkpt>
      <trkpt lat="40.56963" lon="-2.07305">
        <ele>1232.4</ele>
        <time>2021-10-09 12:39:12</time>
      </trkpt>
      <trkpt lat="40.56962" lon="-2.07303">
        <ele>1232.6</ele>
        <time>2021-10-09 12:39:13</time>
      </trkpt>
      <trkpt lat="40.56961" lon="-2.07302">
        <ele>1232.6</ele>
        <time>2021-10-09 12:39:14</time>
      </trkpt>
      <trkpt lat="40.56961" lon="-2.07301">
        <ele>1232.8</ele>
        <time>2021-10-09 12:39:15</time>
      </trkpt>
      <trkpt lat="40.56961" lon="-2.07298">
        <ele>1233.6</ele>
        <time>2021-10-09 12:39:16</time>
      </trkpt>
      <trkpt lat="40.56963" lon="-2.07298">
        <ele>1234</ele>
        <time>2021-10-09 12:39:17</time>
      </trkpt>
      <trkpt lat="40.56964" lon="-2.07302">
        <ele>1234</ele>
        <time>2021-10-09 12:39:18</time>
      </trkpt>
      <trkpt lat="40.56966" lon="-2.07305">
        <ele>1233.4</ele>
        <time>2021-10-09 12:39:19</time>
      </trkpt>
      <trkpt lat="40.56968" lon="-2.0731">
        <ele>1233</ele>
        <time>2021-10-09 12:39:20</time>
      </trkpt>
      <trkpt lat="40.5697" lon="-2.07316">
        <ele>1232.8</ele>
        <time>2021-10-09 12:39:21</time>
      </trkpt>
      <trkpt lat="40.56975" lon="-2.07321">
        <ele>1232.8</ele>
        <time>2021-10-09 12:39:22</time>
      </trkpt>
      <trkpt lat="40.56979" lon="-2.07325">
        <ele>1232.8</ele>
        <time>2021-10-09 12:39:23</time>
      </trkpt>
      <trkpt lat="40.56983" lon="-2.0733">
        <ele>1232.6</ele>
        <time>2021-10-09 12:39:24</time>
      </trkpt>
      <trkpt lat="40.56985" lon="-2.07336">
        <ele>1232.6</ele>
        <time>2021-10-09 12:39:25</time>
      </trkpt>
      <trkpt lat="40.56984" lon="-2.07339">
        <ele>1232.6</ele>
        <time>2021-10-09 12:39:26</time>
      </trkpt>
      <trkpt lat="40.56981" lon="-2.0734">
        <ele>1232</ele>
        <time>2021-10-09 12:39:27</time>
      </trkpt>
      <trkpt lat="40.56978" lon="-2.07338">
        <ele>1231.8</ele>
        <time>2021-10-09 12:39:28</time>
      </trkpt>
      <trkpt lat="40.56975" lon="-2.07335">
        <ele>1231.4</ele>
        <time>2021-10-09 12:39:29</time>
      </trkpt>
      <trkpt lat="40.56971" lon="-2.07331">
        <ele>1231.4</ele>
        <time>2021-10-09 12:39:30</time>
      </trkpt>
      <trkpt lat="40.56967" lon="-2.07327">
        <ele>1231.4</ele>
        <time>2021-10-09 12:39:31</time>
      </trkpt>
      <trkpt lat="40.56962" lon="-2.07322">
        <ele>1231</ele>
        <time>2021-10-09 12:39:32</time>
      </trkpt>
      <trkpt lat="40.56956" lon="-2.07317">
        <ele>1230.6</ele>
        <time>2021-10-09 12:39:33</time>
      </trkpt>
      <trkpt lat="40.5695" lon="-2.07311">
        <ele>1230.2</ele>
        <time>2021-10-09 12:39:34</time>
      </trkpt>
      <trkpt lat="40.56944" lon="-2.07305">
        <ele>1229.8</ele>
        <time>2021-10-09 12:39:35</time>
      </trkpt>
      <trkpt lat="40.56938" lon="-2.07299">
        <ele>1229.4</ele>
        <time>2021-10-09 12:39:36</time>
      </trkpt>
      <trkpt lat="40.56933" lon="-2.07293">
        <ele>1229.2</ele>
        <time>2021-10-09 12:39:37</time>
      </trkpt>
      <trkpt lat="40.56928" lon="-2.07288">
        <ele>1229.2</ele>
        <time>2021-10-09 12:39:38</time>
      </trkpt>
      <trkpt lat="40.56924" lon="-2.07284">
        <ele>1229</ele>
        <time>2021-10-09 12:39:39</time>
      </trkpt>
      <trkpt lat="40.5692" lon="-2.07279">
        <ele>1229</ele>
        <time>2021-10-09 12:39:40</time>
      </trkpt>
      <trkpt lat="40.56917" lon="-2.07275">
        <ele>1229</ele>
        <time>2021-10-09 12:39:41</time>
      </trkpt>
      <trkpt lat="40.56914" lon="-2.07271">
        <ele>1229.2</ele>
        <time>2021-10-09 12:39:42</time>
      </trkpt>
      <trkpt lat="40.56911" lon="-2.07269">
        <ele>1229.2</ele>
        <time>2021-10-09 12:39:43</time>
      </trkpt>
      <trkpt lat="40.56909" lon="-2.07266">
        <ele>1229.8</ele>
        <time>2021-10-09 12:39:44</time>
      </trkpt>
      <trkpt lat="40.56907" lon="-2.07263">
        <ele>1229.8</ele>
        <time>2021-10-09 12:39:45</time>
      </trkpt>
      <trkpt lat="40.56905" lon="-2.0726">
        <ele>1230</ele>
        <time>2021-10-09 12:39:46</time>
      </trkpt>
      <trkpt lat="40.56903" lon="-2.07256">
        <ele>1230</ele>
        <time>2021-10-09 12:39:47</time>
      </trkpt>
      <trkpt lat="40.569" lon="-2.07254">
        <ele>1230</ele>
        <time>2021-10-09 12:39:48</time>
      </trkpt>
      <trkpt lat="40.56899" lon="-2.07252">
        <ele>1230.4</ele>
        <time>2021-10-09 12:39:49</time>
      </trkpt>
      <trkpt lat="40.56896" lon="-2.07249">
        <ele>1230.4</ele>
        <time>2021-10-09 12:39:50</time>
      </trkpt>
      <trkpt lat="40.56893" lon="-2.07245">
        <ele>1230.4</ele>
        <time>2021-10-09 12:39:51</time>
      </trkpt>
      <trkpt lat="40.5689" lon="-2.07242">
        <ele>1230.4</ele>
        <time>2021-10-09 12:39:52</time>
      </trkpt>
      <trkpt lat="40.56887" lon="-2.07238">
        <ele>1230.4</ele>
        <time>2021-10-09 12:39:53</time>
      </trkpt>
      <trkpt lat="40.56883" lon="-2.07234">
        <ele>1230.4</ele>
        <time>2021-10-09 12:39:54</time>
      </trkpt>
      <trkpt lat="40.56879" lon="-2.07231">
        <ele>1230.4</ele>
        <time>2021-10-09 12:39:55</time>
      </trkpt>
      <trkpt lat="40.56874" lon="-2.07228">
        <ele>1230.4</ele>
        <time>2021-10-09 12:39:56</time>
      </trkpt>
      <trkpt lat="40.56869" lon="-2.07225">
        <ele>1230.4</ele>
        <time>2021-10-09 12:39:57</time>
      </trkpt>
      <trkpt lat="40.56864" lon="-2.07221">
        <ele>1230</ele>
        <time>2021-10-09 12:39:58</time>
      </trkpt>
      <trkpt lat="40.5686" lon="-2.07217">
        <ele>1230</ele>
        <time>2021-10-09 12:39:59</time>
      </trkpt>
      <trkpt lat="40.56855" lon="-2.07213">
        <ele>1229.6</ele>
        <time>2021-10-09 12:40:00</time>
      </trkpt>
      <trkpt lat="40.5685" lon="-2.07208">
        <ele>1229.6</ele>
        <time>2021-10-09 12:40:01</time>
      </trkpt>
      <trkpt lat="40.56845" lon="-2.07203">
        <ele>1229.2</ele>
        <time>2021-10-09 12:40:02</time>
      </trkpt>
      <trkpt lat="40.56841" lon="-2.07198">
        <ele>1229</ele>
        <time>2021-10-09 12:40:03</time>
      </trkpt>
      <trkpt lat="40.56837" lon="-2.07194">
        <ele>1229</ele>
        <time>2021-10-09 12:40:04</time>
      </trkpt>
      <trkpt lat="40.56832" lon="-2.0719">
        <ele>1229</ele>
        <time>2021-10-09 12:40:05</time>
      </trkpt>
      <trkpt lat="40.56827" lon="-2.07186">
        <ele>1229</ele>
        <time>2021-10-09 12:40:06</time>
      </trkpt>
      <trkpt lat="40.56825" lon="-2.0718">
        <ele>1229</ele>
        <time>2021-10-09 12:40:07</time>
      </trkpt>
      <trkpt lat="40.56822" lon="-2.07174">
        <ele>1229</ele>
        <time>2021-10-09 12:40:08</time>
      </trkpt>
      <trkpt lat="40.5682" lon="-2.07169">
        <ele>1229</ele>
        <time>2021-10-09 12:40:09</time>
      </trkpt>
      <trkpt lat="40.56817" lon="-2.07164">
        <ele>1229</ele>
        <time>2021-10-09 12:40:10</time>
      </trkpt>
      <trkpt lat="40.56814" lon="-2.07159">
        <ele>1229</ele>
        <time>2021-10-09 12:40:11</time>
      </trkpt>
      <trkpt lat="40.56814" lon="-2.07153">
        <ele>1229</ele>
        <time>2021-10-09 12:40:12</time>
      </trkpt>
      <trkpt lat="40.56814" lon="-2.07148">
        <ele>1229</ele>
        <time>2021-10-09 12:40:13</time>
      </trkpt>
      <trkpt lat="40.56815" lon="-2.07144">
        <ele>1229</ele>
        <time>2021-10-09 12:40:14</time>
      </trkpt>
      <trkpt lat="40.56817" lon="-2.0714">
        <ele>1229</ele>
        <time>2021-10-09 12:40:15</time>
      </trkpt>
      <trkpt lat="40.56818" lon="-2.07136">
        <ele>1229</ele>
        <time>2021-10-09 12:40:16</time>
      </trkpt>
      <trkpt lat="40.56819" lon="-2.07131">
        <ele>1228.6</ele>
        <time>2021-10-09 12:40:17</time>
      </trkpt>
      <trkpt lat="40.56821" lon="-2.07127">
        <ele>1228.6</ele>
        <time>2021-10-09 12:40:18</time>
      </trkpt>
      <trkpt lat="40.56822" lon="-2.07122">
        <ele>1228.6</ele>
        <time>2021-10-09 12:40:19</time>
      </trkpt>
      <trkpt lat="40.56824" lon="-2.07118">
        <ele>1228.8</ele>
        <time>2021-10-09 12:40:20</time>
      </trkpt>
      <trkpt lat="40.56827" lon="-2.07115">
        <ele>1228.8</ele>
        <time>2021-10-09 12:40:21</time>
      </trkpt>
      <trkpt lat="40.5683" lon="-2.07112">
        <ele>1228.8</ele>
        <time>2021-10-09 12:40:22</time>
      </trkpt>
      <trkpt lat="40.56832" lon="-2.07108">
        <ele>1228.8</ele>
        <time>2021-10-09 12:40:23</time>
      </trkpt>
      <trkpt lat="40.56834" lon="-2.07105">
        <ele>1229.4</ele>
        <time>2021-10-09 12:40:24</time>
      </trkpt>
      <trkpt lat="40.56837" lon="-2.07102">
        <ele>1229.4</ele>
        <time>2021-10-09 12:40:25</time>
      </trkpt>
      <trkpt lat="40.5684" lon="-2.07099">
        <ele>1229.4</ele>
        <time>2021-10-09 12:40:26</time>
      </trkpt>
      <trkpt lat="40.56842" lon="-2.07095">
        <ele>1229.4</ele>
        <time>2021-10-09 12:40:27</time>
      </trkpt>
      <trkpt lat="40.56843" lon="-2.07091">
        <ele>1229.4</ele>
        <time>2021-10-09 12:40:28</time>
      </trkpt>
      <trkpt lat="40.56844" lon="-2.07086">
        <ele>1229.6</ele>
        <time>2021-10-09 12:40:29</time>
      </trkpt>
      <trkpt lat="40.56843" lon="-2.07082">
        <ele>1229.6</ele>
        <time>2021-10-09 12:40:30</time>
      </trkpt>
      <trkpt lat="40.56841" lon="-2.07078">
        <ele>1229.8</ele>
        <time>2021-10-09 12:40:31</time>
      </trkpt>
      <trkpt lat="40.56838" lon="-2.07074">
        <ele>1230</ele>
        <time>2021-10-09 12:40:32</time>
      </trkpt>
      <trkpt lat="40.56834" lon="-2.07071">
        <ele>1230</ele>
        <time>2021-10-09 12:40:33</time>
      </trkpt>
      <trkpt lat="40.56831" lon="-2.07069">
        <ele>1230</ele>
        <time>2021-10-09 12:40:34</time>
      </trkpt>
      <trkpt lat="40.56827" lon="-2.07066">
        <ele>1230.4</ele>
        <time>2021-10-09 12:40:35</time>
      </trkpt>
      <trkpt lat="40.56823" lon="-2.07064">
        <ele>1230.4</ele>
        <time>2021-10-09 12:40:36</time>
      </trkpt>
      <trkpt lat="40.5682" lon="-2.07062">
        <ele>1230.4</ele>
        <time>2021-10-09 12:40:37</time>
      </trkpt>
      <trkpt lat="40.56816" lon="-2.07061">
        <ele>1230.6</ele>
        <time>2021-10-09 12:40:38</time>
      </trkpt>
      <trkpt lat="40.56813" lon="-2.07059">
        <ele>1230.6</ele>
        <time>2021-10-09 12:40:39</time>
      </trkpt>
      <trkpt lat="40.56809" lon="-2.07057">
        <ele>1230.8</ele>
        <time>2021-10-09 12:40:40</time>
      </trkpt>
      <trkpt lat="40.56807" lon="-2.07055">
        <ele>1230.8</ele>
        <time>2021-10-09 12:40:41</time>
      </trkpt>
      <trkpt lat="40.56804" lon="-2.07054">
        <ele>1230.8</ele>
        <time>2021-10-09 12:40:42</time>
      </trkpt>
      <trkpt lat="40.56802" lon="-2.07053">
        <ele>1231</ele>
        <time>2021-10-09 12:40:43</time>
      </trkpt>
      <trkpt lat="40.568" lon="-2.07053">
        <ele>1231</ele>
        <time>2021-10-09 12:40:44</time>
      </trkpt>
      <trkpt lat="40.56798" lon="-2.07053">
        <ele>1231.4</ele>
        <time>2021-10-09 12:40:45</time>
      </trkpt>
      <trkpt lat="40.56796" lon="-2.07053">
        <ele>1231.4</ele>
        <time>2021-10-09 12:40:46</time>
      </trkpt>
      <trkpt lat="40.56794" lon="-2.07052">
        <ele>1231.4</ele>
        <time>2021-10-09 12:40:47</time>
      </trkpt>
      <trkpt lat="40.56792" lon="-2.07052">
        <ele>1231.8</ele>
        <time>2021-10-09 12:40:48</time>
      </trkpt>
      <trkpt lat="40.56789" lon="-2.07051">
        <ele>1231.8</ele>
        <time>2021-10-09 12:40:49</time>
      </trkpt>
      <trkpt lat="40.56787" lon="-2.07051">
        <ele>1232</ele>
        <time>2021-10-09 12:40:50</time>
      </trkpt>
      <trkpt lat="40.56785" lon="-2.0705">
        <ele>1232</ele>
        <time>2021-10-09 12:40:51</time>
      </trkpt>
      <trkpt lat="40.56783" lon="-2.0705">
        <ele>1232.4</ele>
        <time>2021-10-09 12:40:52</time>
      </trkpt>
      <trkpt lat="40.56781" lon="-2.07049">
        <ele>1232.4</ele>
        <time>2021-10-09 12:40:53</time>
      </trkpt>
      <trkpt lat="40.56779" lon="-2.07048">
        <ele>1232.8</ele>
        <time>2021-10-09 12:40:54</time>
      </trkpt>
      <trkpt lat="40.56777" lon="-2.07047">
        <ele>1233</ele>
        <time>2021-10-09 12:40:55</time>
      </trkpt>
      <trkpt lat="40.56775" lon="-2.07046">
        <ele>1233.2</ele>
        <time>2021-10-09 12:40:56</time>
      </trkpt>
      <trkpt lat="40.56772" lon="-2.07046">
        <ele>1233.6</ele>
        <time>2021-10-09 12:40:57</time>
      </trkpt>
      <trkpt lat="40.5677" lon="-2.07045">
        <ele>1233.8</ele>
        <time>2021-10-09 12:40:58</time>
      </trkpt>
      <trkpt lat="40.56768" lon="-2.07045">
        <ele>1234.2</ele>
        <time>2021-10-09 12:40:59</time>
      </trkpt>
      <trkpt lat="40.56767" lon="-2.07044">
        <ele>1234.4</ele>
        <time>2021-10-09 12:41:00</time>
      </trkpt>
      <trkpt lat="40.56766" lon="-2.07042">
        <ele>1234.4</ele>
        <time>2021-10-09 12:41:01</time>
      </trkpt>
      <trkpt lat="40.56765" lon="-2.07041">
        <ele>1234.4</ele>
        <time>2021-10-09 12:41:02</time>
      </trkpt>
      <trkpt lat="40.56764" lon="-2.0704">
        <ele>1234.4</ele>
        <time>2021-10-09 12:41:03</time>
      </trkpt>
      <trkpt lat="40.56763" lon="-2.0704">
        <ele>1234.4</ele>
        <time>2021-10-09 12:41:04</time>
      </trkpt>
      <trkpt lat="40.56762" lon="-2.07039">
        <ele>1234.4</ele>
        <time>2021-10-09 12:41:05</time>
      </trkpt>
      <trkpt lat="40.56762" lon="-2.07039">
        <ele>1234.4</ele>
        <time>2021-10-09 12:41:06</time>
      </trkpt>
      <trkpt lat="40.56761" lon="-2.07039">
        <ele>1234.4</ele>
        <time>2021-10-09 12:41:07</time>
      </trkpt>
      <trkpt lat="40.56761" lon="-2.07039">
        <ele>1234.4</ele>
        <time>2021-10-09 12:41:08</time>
      </trkpt>
      <trkpt lat="40.56761" lon="-2.07039">
        <ele>1234.4</ele>
        <time>2021-10-09 12:41:09</time>
      </trkpt>
      <trkpt lat="40.5676" lon="-2.07038">
        <ele>1234</ele>
        <time>2021-10-09 12:41:10</time>
      </trkpt>
      <trkpt lat="40.56758" lon="-2.07037">
        <ele>1234</ele>
        <time>2021-10-09 12:41:11</time>
      </trkpt>
      <trkpt lat="40.56757" lon="-2.07035">
        <ele>1234</ele>
        <time>2021-10-09 12:41:12</time>
      </trkpt>
      <trkpt lat="40.56755" lon="-2.07034">
        <ele>1233.8</ele>
        <time>2021-10-09 12:41:13</time>
      </trkpt>
      <trkpt lat="40.56755" lon="-2.07034">
        <ele>1233.8</ele>
        <time>2021-10-09 12:41:14</time>
      </trkpt>
      <trkpt lat="40.5675" lon="-2.07033">
        <ele>1233.8</ele>
        <time>2021-10-09 12:41:15</time>
      </trkpt>
      <trkpt lat="40.56747" lon="-2.07032">
        <ele>1233.8</ele>
        <time>2021-10-09 12:41:16</time>
      </trkpt>
      <trkpt lat="40.56744" lon="-2.07031">
        <ele>1233.6</ele>
        <time>2021-10-09 12:41:17</time>
      </trkpt>
      <trkpt lat="40.56744" lon="-2.07031">
        <ele>1233.6</ele>
        <time>2021-10-09 12:41:18</time>
      </trkpt>
      <trkpt lat="40.56741" lon="-2.07029">
        <ele>1233.2</ele>
        <time>2021-10-09 12:41:19</time>
      </trkpt>
      <trkpt lat="40.56739" lon="-2.07028">
        <ele>1233</ele>
        <time>2021-10-09 12:41:20</time>
      </trkpt>
      <trkpt lat="40.56735" lon="-2.07025">
        <ele>1233</ele>
        <time>2021-10-09 12:41:40</time>
      </trkpt>
      <trkpt lat="40.56735" lon="-2.07025">
        <ele>1232.6</ele>
        <time>2021-10-09 12:41:41</time>
      </trkpt>
      <trkpt lat="40.56733" lon="-2.07024">
        <ele>1232.6</ele>
        <time>2021-10-09 12:41:42</time>
      </trkpt>
      <trkpt lat="40.56731" lon="-2.07023">
        <ele>1232.2</ele>
        <time>2021-10-09 12:41:43</time>
      </trkpt>
      <trkpt lat="40.56729" lon="-2.07023">
        <ele>1232.2</ele>
        <time>2021-10-09 12:41:44</time>
      </trkpt>
      <trkpt lat="40.56726" lon="-2.07023">
        <ele>1232.2</ele>
        <time>2021-10-09 12:41:45</time>
      </trkpt>
      <trkpt lat="40.56723" lon="-2.07021">
        <ele>1231.8</ele>
        <time>2021-10-09 12:41:46</time>
      </trkpt>
      <trkpt lat="40.5672" lon="-2.07019">
        <ele>1231.8</ele>
        <time>2021-10-09 12:41:47</time>
      </trkpt>
      <trkpt lat="40.56716" lon="-2.07016">
        <ele>1231.6</ele>
        <time>2021-10-09 12:41:48</time>
      </trkpt>
      <trkpt lat="40.56712" lon="-2.07013">
        <ele>1230.4</ele>
        <time>2021-10-09 12:41:49</time>
      </trkpt>
      <trkpt lat="40.56707" lon="-2.0701">
        <ele>1230.4</ele>
        <time>2021-10-09 12:41:50</time>
      </trkpt>
      <trkpt lat="40.56702" lon="-2.07005">
        <ele>1230.4</ele>
        <time>2021-10-09 12:41:51</time>
      </trkpt>
      <trkpt lat="40.56697" lon="-2.07">
        <ele>1229</ele>
        <time>2021-10-09 12:41:52</time>
      </trkpt>
      <trkpt lat="40.56692" lon="-2.06994">
        <ele>1228.8</ele>
        <time>2021-10-09 12:41:53</time>
      </trkpt>
      <trkpt lat="40.56686" lon="-2.06988">
        <ele>1229.4</ele>
        <time>2021-10-09 12:41:54</time>
      </trkpt>
      <trkpt lat="40.5668" lon="-2.06982">
        <ele>1229.4</ele>
        <time>2021-10-09 12:41:55</time>
      </trkpt>
      <trkpt lat="40.56674" lon="-2.06976">
        <ele>1229.4</ele>
        <time>2021-10-09 12:41:56</time>
      </trkpt>
      <trkpt lat="40.56667" lon="-2.0697">
        <ele>1229</ele>
        <time>2021-10-09 12:41:57</time>
      </trkpt>
      <trkpt lat="40.56659" lon="-2.06965">
        <ele>1228.6</ele>
        <time>2021-10-09 12:41:58</time>
      </trkpt>
      <trkpt lat="40.56651" lon="-2.0696">
        <ele>1228.2</ele>
        <time>2021-10-09 12:41:59</time>
      </trkpt>
      <trkpt lat="40.56643" lon="-2.06953">
        <ele>1227.6</ele>
        <time>2021-10-09 12:42:00</time>
      </trkpt>
      <trkpt lat="40.56634" lon="-2.06948">
        <ele>1227</ele>
        <time>2021-10-09 12:42:01</time>
      </trkpt>
      <trkpt lat="40.56626" lon="-2.06941">
        <ele>1226.6</ele>
        <time>2021-10-09 12:42:02</time>
      </trkpt>
      <trkpt lat="40.56618" lon="-2.06934">
        <ele>1226</ele>
        <time>2021-10-09 12:42:03</time>
      </trkpt>
      <trkpt lat="40.56609" lon="-2.06927">
        <ele>1225.2</ele>
        <time>2021-10-09 12:42:04</time>
      </trkpt>
      <trkpt lat="40.56601" lon="-2.0692">
        <ele>1224.6</ele>
        <time>2021-10-09 12:42:05</time>
      </trkpt>
      <trkpt lat="40.56593" lon="-2.06912">
        <ele>1224.2</ele>
        <time>2021-10-09 12:42:06</time>
      </trkpt>
      <trkpt lat="40.56585" lon="-2.06904">
        <ele>1223.8</ele>
        <time>2021-10-09 12:42:07</time>
      </trkpt>
      <trkpt lat="40.56576" lon="-2.06896">
        <ele>1223.4</ele>
        <time>2021-10-09 12:42:08</time>
      </trkpt>
      <trkpt lat="40.56568" lon="-2.06888">
        <ele>1223</ele>
        <time>2021-10-09 12:42:09</time>
      </trkpt>
      <trkpt lat="40.56559" lon="-2.06879">
        <ele>1222.8</ele>
        <time>2021-10-09 12:42:10</time>
      </trkpt>
      <trkpt lat="40.5655" lon="-2.06872">
        <ele>1222.4</ele>
        <time>2021-10-09 12:42:11</time>
      </trkpt>
      <trkpt lat="40.5654" lon="-2.06863">
        <ele>1222</ele>
        <time>2021-10-09 12:42:12</time>
      </trkpt>
      <trkpt lat="40.56531" lon="-2.06855">
        <ele>1221.4</ele>
        <time>2021-10-09 12:42:13</time>
      </trkpt>
      <trkpt lat="40.56521" lon="-2.06846">
        <ele>1220.8</ele>
        <time>2021-10-09 12:42:14</time>
      </trkpt>
      <trkpt lat="40.56511" lon="-2.06837">
        <ele>1220.6</ele>
        <time>2021-10-09 12:42:15</time>
      </trkpt>
      <trkpt lat="40.56501" lon="-2.06829">
        <ele>1220.4</ele>
        <time>2021-10-09 12:42:16</time>
      </trkpt>
      <trkpt lat="40.56491" lon="-2.0682">
        <ele>1220</ele>
        <time>2021-10-09 12:42:17</time>
      </trkpt>
      <trkpt lat="40.5648" lon="-2.06812">
        <ele>1219.4</ele>
        <time>2021-10-09 12:42:18</time>
      </trkpt>
      <trkpt lat="40.56469" lon="-2.06804">
        <ele>1219</ele>
        <time>2021-10-09 12:42:19</time>
      </trkpt>
      <trkpt lat="40.56458" lon="-2.06796">
        <ele>1218.4</ele>
        <time>2021-10-09 12:42:20</time>
      </trkpt>
      <trkpt lat="40.56447" lon="-2.06789">
        <ele>1217.6</ele>
        <time>2021-10-09 12:42:21</time>
      </trkpt>
      <trkpt lat="40.56435" lon="-2.06781">
        <ele>1216.6</ele>
        <time>2021-10-09 12:42:22</time>
      </trkpt>
      <trkpt lat="40.56424" lon="-2.06774">
        <ele>1215.6</ele>
        <time>2021-10-09 12:42:23</time>
      </trkpt>
      <trkpt lat="40.56412" lon="-2.06766">
        <ele>1214.6</ele>
        <time>2021-10-09 12:42:24</time>
      </trkpt>
      <trkpt lat="40.564" lon="-2.06759">
        <ele>1213.6</ele>
        <time>2021-10-09 12:42:25</time>
      </trkpt>
      <trkpt lat="40.56387" lon="-2.06754">
        <ele>1212.8</ele>
        <time>2021-10-09 12:42:26</time>
      </trkpt>
      <trkpt lat="40.56373" lon="-2.06752">
        <ele>1211.8</ele>
        <time>2021-10-09 12:42:27</time>
      </trkpt>
      <trkpt lat="40.56359" lon="-2.06752">
        <ele>1210.8</ele>
        <time>2021-10-09 12:42:28</time>
      </trkpt>
      <trkpt lat="40.56346" lon="-2.06753">
        <ele>1210</ele>
        <time>2021-10-09 12:42:29</time>
      </trkpt>
      <trkpt lat="40.56332" lon="-2.06754">
        <ele>1209.2</ele>
        <time>2021-10-09 12:42:30</time>
      </trkpt>
      <trkpt lat="40.56319" lon="-2.06754">
        <ele>1208.6</ele>
        <time>2021-10-09 12:42:31</time>
      </trkpt>
      <trkpt lat="40.56306" lon="-2.06754">
        <ele>1207.6</ele>
        <time>2021-10-09 12:42:32</time>
      </trkpt>
      <trkpt lat="40.56292" lon="-2.06752">
        <ele>1206.8</ele>
        <time>2021-10-09 12:42:33</time>
      </trkpt>
      <trkpt lat="40.56279" lon="-2.0675">
        <ele>1206.2</ele>
        <time>2021-10-09 12:42:34</time>
      </trkpt>
      <trkpt lat="40.56266" lon="-2.06749">
        <ele>1205.4</ele>
        <time>2021-10-09 12:42:35</time>
      </trkpt>
      <trkpt lat="40.56253" lon="-2.06747">
        <ele>1204.6</ele>
        <time>2021-10-09 12:42:36</time>
      </trkpt>
      <trkpt lat="40.56241" lon="-2.06745">
        <ele>1204</ele>
        <time>2021-10-09 12:42:37</time>
      </trkpt>
      <trkpt lat="40.56228" lon="-2.0674">
        <ele>1203.4</ele>
        <time>2021-10-09 12:42:38</time>
      </trkpt>
      <trkpt lat="40.56215" lon="-2.06736">
        <ele>1203</ele>
        <time>2021-10-09 12:42:39</time>
      </trkpt>
      <trkpt lat="40.56203" lon="-2.06731">
        <ele>1202.4</ele>
        <time>2021-10-09 12:42:40</time>
      </trkpt>
      <trkpt lat="40.56191" lon="-2.06727">
        <ele>1202.2</ele>
        <time>2021-10-09 12:42:41</time>
      </trkpt>
      <trkpt lat="40.56179" lon="-2.06722">
        <ele>1201.8</ele>
        <time>2021-10-09 12:42:42</time>
      </trkpt>
      <trkpt lat="40.56168" lon="-2.06715">
        <ele>1201.8</ele>
        <time>2021-10-09 12:42:43</time>
      </trkpt>
      <trkpt lat="40.56157" lon="-2.06708">
        <ele>1201.8</ele>
        <time>2021-10-09 12:42:44</time>
      </trkpt>
      <trkpt lat="40.56148" lon="-2.067">
        <ele>1201.8</ele>
        <time>2021-10-09 12:42:45</time>
      </trkpt>
      <trkpt lat="40.5614" lon="-2.06691">
        <ele>1202</ele>
        <time>2021-10-09 12:42:46</time>
      </trkpt>
      <trkpt lat="40.56132" lon="-2.06682">
        <ele>1202</ele>
        <time>2021-10-09 12:42:47</time>
      </trkpt>
      <trkpt lat="40.56125" lon="-2.06673">
        <ele>1202</ele>
        <time>2021-10-09 12:42:48</time>
      </trkpt>
      <trkpt lat="40.56119" lon="-2.06664">
        <ele>1201.8</ele>
        <time>2021-10-09 12:42:49</time>
      </trkpt>
      <trkpt lat="40.56112" lon="-2.06655">
        <ele>1201.8</ele>
        <time>2021-10-09 12:42:50</time>
      </trkpt>
      <trkpt lat="40.56106" lon="-2.06646">
        <ele>1201.8</ele>
        <time>2021-10-09 12:42:51</time>
      </trkpt>
      <trkpt lat="40.56099" lon="-2.06637">
        <ele>1201.6</ele>
        <time>2021-10-09 12:42:52</time>
      </trkpt>
      <trkpt lat="40.56093" lon="-2.06628">
        <ele>1201.6</ele>
        <time>2021-10-09 12:42:53</time>
      </trkpt>
      <trkpt lat="40.56086" lon="-2.06618">
        <ele>1201.6</ele>
        <time>2021-10-09 12:42:54</time>
      </trkpt>
      <trkpt lat="40.56079" lon="-2.0661">
        <ele>1201.2</ele>
        <time>2021-10-09 12:42:55</time>
      </trkpt>
      <trkpt lat="40.56072" lon="-2.06601">
        <ele>1200.8</ele>
        <time>2021-10-09 12:42:56</time>
      </trkpt>
      <trkpt lat="40.56065" lon="-2.06593">
        <ele>1200.6</ele>
        <time>2021-10-09 12:42:57</time>
      </trkpt>
      <trkpt lat="40.56057" lon="-2.06585">
        <ele>1200.6</ele>
        <time>2021-10-09 12:42:58</time>
      </trkpt>
      <trkpt lat="40.56049" lon="-2.06577">
        <ele>1200.2</ele>
        <time>2021-10-09 12:42:59</time>
      </trkpt>
      <trkpt lat="40.56041" lon="-2.0657">
        <ele>1200.2</ele>
        <time>2021-10-09 12:43:00</time>
      </trkpt>
      <trkpt lat="40.56033" lon="-2.06563">
        <ele>1200.2</ele>
        <time>2021-10-09 12:43:01</time>
      </trkpt>
      <trkpt lat="40.56025" lon="-2.06556">
        <ele>1200</ele>
        <time>2021-10-09 12:43:02</time>
      </trkpt>
      <trkpt lat="40.56017" lon="-2.06549">
        <ele>1200</ele>
        <time>2021-10-09 12:43:03</time>
      </trkpt>
      <trkpt lat="40.56009" lon="-2.06542">
        <ele>1199.6</ele>
        <time>2021-10-09 12:43:04</time>
      </trkpt>
      <trkpt lat="40.56001" lon="-2.06534">
        <ele>1199.2</ele>
        <time>2021-10-09 12:43:05</time>
      </trkpt>
      <trkpt lat="40.55993" lon="-2.06527">
        <ele>1198.8</ele>
        <time>2021-10-09 12:43:06</time>
      </trkpt>
      <trkpt lat="40.55985" lon="-2.06519">
        <ele>1198.4</ele>
        <time>2021-10-09 12:43:07</time>
      </trkpt>
      <trkpt lat="40.55976" lon="-2.06511">
        <ele>1198</ele>
        <time>2021-10-09 12:43:08</time>
      </trkpt>
      <trkpt lat="40.55968" lon="-2.06502">
        <ele>1197.6</ele>
        <time>2021-10-09 12:43:09</time>
      </trkpt>
      <trkpt lat="40.55959" lon="-2.06494">
        <ele>1197.2</ele>
        <time>2021-10-09 12:43:10</time>
      </trkpt>
      <trkpt lat="40.5595" lon="-2.06485">
        <ele>1196.8</ele>
        <time>2021-10-09 12:43:11</time>
      </trkpt>
      <trkpt lat="40.55941" lon="-2.06477">
        <ele>1196.6</ele>
        <time>2021-10-09 12:43:12</time>
      </trkpt>
      <trkpt lat="40.55931" lon="-2.06469">
        <ele>1196.6</ele>
        <time>2021-10-09 12:43:13</time>
      </trkpt>
      <trkpt lat="40.55922" lon="-2.0646">
        <ele>1196.2</ele>
        <time>2021-10-09 12:43:14</time>
      </trkpt>
      <trkpt lat="40.55912" lon="-2.06453">
        <ele>1196.2</ele>
        <time>2021-10-09 12:43:15</time>
      </trkpt>
      <trkpt lat="40.55903" lon="-2.06447">
        <ele>1196</ele>
        <time>2021-10-09 12:43:16</time>
      </trkpt>
      <trkpt lat="40.55893" lon="-2.06441">
        <ele>1196</ele>
        <time>2021-10-09 12:43:17</time>
      </trkpt>
      <trkpt lat="40.55883" lon="-2.06435">
        <ele>1196</ele>
        <time>2021-10-09 12:43:18</time>
      </trkpt>
      <trkpt lat="40.55874" lon="-2.06428">
        <ele>1195.6</ele>
        <time>2021-10-09 12:43:19</time>
      </trkpt>
      <trkpt lat="40.55865" lon="-2.06422">
        <ele>1195.6</ele>
        <time>2021-10-09 12:43:20</time>
      </trkpt>
      <trkpt lat="40.55856" lon="-2.06416">
        <ele>1195.4</ele>
        <time>2021-10-09 12:43:21</time>
      </trkpt>
      <trkpt lat="40.55845" lon="-2.06411">
        <ele>1195</ele>
        <time>2021-10-09 12:43:22</time>
      </trkpt>
      <trkpt lat="40.55836" lon="-2.06405">
        <ele>1194.6</ele>
        <time>2021-10-09 12:43:23</time>
      </trkpt>
      <trkpt lat="40.55825" lon="-2.06401">
        <ele>1194.2</ele>
        <time>2021-10-09 12:43:24</time>
      </trkpt>
      <trkpt lat="40.55814" lon="-2.06396">
        <ele>1193.6</ele>
        <time>2021-10-09 12:43:25</time>
      </trkpt>
      <trkpt lat="40.55792" lon="-2.06386">
        <ele>1193.2</ele>
        <time>2021-10-09 12:43:26</time>
      </trkpt>
      <trkpt lat="40.5578" lon="-2.06382">
        <ele>1192.6</ele>
        <time>2021-10-09 12:43:27</time>
      </trkpt>
      <trkpt lat="40.55768" lon="-2.06379">
        <ele>1192</ele>
        <time>2021-10-09 12:43:28</time>
      </trkpt>
      <trkpt lat="40.55756" lon="-2.06376">
        <ele>1191.4</ele>
        <time>2021-10-09 12:43:29</time>
      </trkpt>
      <trkpt lat="40.55745" lon="-2.06374">
        <ele>1190.8</ele>
        <time>2021-10-09 12:43:30</time>
      </trkpt>
      <trkpt lat="40.55733" lon="-2.06371">
        <ele>1190.2</ele>
        <time>2021-10-09 12:43:31</time>
      </trkpt>
      <trkpt lat="40.55721" lon="-2.06369">
        <ele>1189.6</ele>
        <time>2021-10-09 12:43:32</time>
      </trkpt>
      <trkpt lat="40.55709" lon="-2.06366">
        <ele>1188.8</ele>
        <time>2021-10-09 12:43:33</time>
      </trkpt>
      <trkpt lat="40.55697" lon="-2.06364">
        <ele>1188.2</ele>
        <time>2021-10-09 12:43:34</time>
      </trkpt>
      <trkpt lat="40.55686" lon="-2.06362">
        <ele>1187.8</ele>
        <time>2021-10-09 12:43:35</time>
      </trkpt>
      <trkpt lat="40.55675" lon="-2.06361">
        <ele>1187.4</ele>
        <time>2021-10-09 12:43:36</time>
      </trkpt>
      <trkpt lat="40.55664" lon="-2.06359">
        <ele>1187</ele>
        <time>2021-10-09 12:43:37</time>
      </trkpt>
      <trkpt lat="40.55652" lon="-2.06358">
        <ele>1186.8</ele>
        <time>2021-10-09 12:43:38</time>
      </trkpt>
      <trkpt lat="40.55642" lon="-2.06356">
        <ele>1186.6</ele>
        <time>2021-10-09 12:43:39</time>
      </trkpt>
      <trkpt lat="40.55631" lon="-2.06355">
        <ele>1186.4</ele>
        <time>2021-10-09 12:43:40</time>
      </trkpt>
      <trkpt lat="40.55621" lon="-2.06353">
        <ele>1186</ele>
        <time>2021-10-09 12:43:41</time>
      </trkpt>
      <trkpt lat="40.5561" lon="-2.06352">
        <ele>1185.8</ele>
        <time>2021-10-09 12:43:42</time>
      </trkpt>
      <trkpt lat="40.556" lon="-2.06351">
        <ele>1185.8</ele>
        <time>2021-10-09 12:43:43</time>
      </trkpt>
      <trkpt lat="40.5559" lon="-2.06349">
        <ele>1185.4</ele>
        <time>2021-10-09 12:43:44</time>
      </trkpt>
      <trkpt lat="40.5558" lon="-2.06347">
        <ele>1185.4</ele>
        <time>2021-10-09 12:43:45</time>
      </trkpt>
      <trkpt lat="40.5557" lon="-2.06346">
        <ele>1185.2</ele>
        <time>2021-10-09 12:43:46</time>
      </trkpt>
      <trkpt lat="40.55559" lon="-2.06345">
        <ele>1185.2</ele>
        <time>2021-10-09 12:43:47</time>
      </trkpt>
      <trkpt lat="40.55549" lon="-2.06343">
        <ele>1185.2</ele>
        <time>2021-10-09 12:43:48</time>
      </trkpt>
      <trkpt lat="40.5554" lon="-2.06342">
        <ele>1185</ele>
        <time>2021-10-09 12:43:49</time>
      </trkpt>
      <trkpt lat="40.5553" lon="-2.06341">
        <ele>1185</ele>
        <time>2021-10-09 12:43:50</time>
      </trkpt>
      <trkpt lat="40.55521" lon="-2.0634">
        <ele>1184.6</ele>
        <time>2021-10-09 12:43:51</time>
      </trkpt>
      <trkpt lat="40.55512" lon="-2.06339">
        <ele>1184.6</ele>
        <time>2021-10-09 12:43:52</time>
      </trkpt>
      <trkpt lat="40.55503" lon="-2.06338">
        <ele>1184.4</ele>
        <time>2021-10-09 12:43:53</time>
      </trkpt>
      <trkpt lat="40.55494" lon="-2.06336">
        <ele>1184.4</ele>
        <time>2021-10-09 12:43:54</time>
      </trkpt>
      <trkpt lat="40.55486" lon="-2.06335">
        <ele>1184.4</ele>
        <time>2021-10-09 12:43:55</time>
      </trkpt>
      <trkpt lat="40.55477" lon="-2.06334">
        <ele>1184.4</ele>
        <time>2021-10-09 12:43:56</time>
      </trkpt>
      <trkpt lat="40.55469" lon="-2.06333">
        <ele>1184.4</ele>
        <time>2021-10-09 12:43:57</time>
      </trkpt>
      <trkpt lat="40.55461" lon="-2.06333">
        <ele>1184.6</ele>
        <time>2021-10-09 12:43:58</time>
      </trkpt>
      <trkpt lat="40.55453" lon="-2.06331">
        <ele>1184.6</ele>
        <time>2021-10-09 12:43:59</time>
      </trkpt>
      <trkpt lat="40.55446" lon="-2.06331">
        <ele>1184.6</ele>
        <time>2021-10-09 12:44:00</time>
      </trkpt>
      <trkpt lat="40.55438" lon="-2.0633">
        <ele>1184.6</ele>
        <time>2021-10-09 12:44:01</time>
      </trkpt>
      <trkpt lat="40.5543" lon="-2.06329">
        <ele>1184.6</ele>
        <time>2021-10-09 12:44:02</time>
      </trkpt>
      <trkpt lat="40.55423" lon="-2.06328">
        <ele>1185</ele>
        <time>2021-10-09 12:44:03</time>
      </trkpt>
      <trkpt lat="40.55415" lon="-2.06327">
        <ele>1185</ele>
        <time>2021-10-09 12:44:04</time>
      </trkpt>
      <trkpt lat="40.55408" lon="-2.06326">
        <ele>1185</ele>
        <time>2021-10-09 12:44:05</time>
      </trkpt>
      <trkpt lat="40.55401" lon="-2.06326">
        <ele>1185.2</ele>
        <time>2021-10-09 12:44:06</time>
      </trkpt>
      <trkpt lat="40.55394" lon="-2.06325">
        <ele>1185.2</ele>
        <time>2021-10-09 12:44:07</time>
      </trkpt>
      <trkpt lat="40.55387" lon="-2.06324">
        <ele>1185.4</ele>
        <time>2021-10-09 12:44:08</time>
      </trkpt>
      <trkpt lat="40.5538" lon="-2.06323">
        <ele>1185.4</ele>
        <time>2021-10-09 12:44:09</time>
      </trkpt>
      <trkpt lat="40.55373" lon="-2.06322">
        <ele>1185.4</ele>
        <time>2021-10-09 12:44:10</time>
      </trkpt>
      <trkpt lat="40.55367" lon="-2.06321">
        <ele>1185.6</ele>
        <time>2021-10-09 12:44:11</time>
      </trkpt>
      <trkpt lat="40.5536" lon="-2.0632">
        <ele>1185.6</ele>
        <time>2021-10-09 12:44:12</time>
      </trkpt>
      <trkpt lat="40.55353" lon="-2.06318">
        <ele>1185.6</ele>
        <time>2021-10-09 12:44:13</time>
      </trkpt>
      <trkpt lat="40.55347" lon="-2.06317">
        <ele>1185.6</ele>
        <time>2021-10-09 12:44:14</time>
      </trkpt>
      <trkpt lat="40.5534" lon="-2.06316">
        <ele>1185.6</ele>
        <time>2021-10-09 12:44:15</time>
      </trkpt>
      <trkpt lat="40.55333" lon="-2.06314">
        <ele>1185.6</ele>
        <time>2021-10-09 12:44:16</time>
      </trkpt>
      <trkpt lat="40.55327" lon="-2.06313">
        <ele>1185.6</ele>
        <time>2021-10-09 12:44:17</time>
      </trkpt>
      <trkpt lat="40.55321" lon="-2.0631">
        <ele>1185.6</ele>
        <time>2021-10-09 12:44:18</time>
      </trkpt>
      <trkpt lat="40.55315" lon="-2.06308">
        <ele>1185.6</ele>
        <time>2021-10-09 12:44:19</time>
      </trkpt>
      <trkpt lat="40.55309" lon="-2.06305">
        <ele>1185.6</ele>
        <time>2021-10-09 12:44:20</time>
      </trkpt>
      <trkpt lat="40.55303" lon="-2.06302">
        <ele>1185.6</ele>
        <time>2021-10-09 12:44:21</time>
      </trkpt>
      <trkpt lat="40.55297" lon="-2.063">
        <ele>1185.8</ele>
        <time>2021-10-09 12:44:22</time>
      </trkpt>
      <trkpt lat="40.55292" lon="-2.06297">
        <ele>1187.2</ele>
        <time>2021-10-09 12:44:23</time>
      </trkpt>
      <trkpt lat="40.55286" lon="-2.06295">
        <ele>1186.6</ele>
        <time>2021-10-09 12:44:24</time>
      </trkpt>
      <trkpt lat="40.55282" lon="-2.06292">
        <ele>1186.2</ele>
        <time>2021-10-09 12:44:25</time>
      </trkpt>
      <trkpt lat="40.55276" lon="-2.06288">
        <ele>1186.2</ele>
        <time>2021-10-09 12:44:26</time>
      </trkpt>
      <trkpt lat="40.55271" lon="-2.06285">
        <ele>1186</ele>
        <time>2021-10-09 12:44:27</time>
      </trkpt>
      <trkpt lat="40.55266" lon="-2.06281">
        <ele>1186</ele>
        <time>2021-10-09 12:44:28</time>
      </trkpt>
      <trkpt lat="40.5526" lon="-2.06278">
        <ele>1186</ele>
        <time>2021-10-09 12:44:29</time>
      </trkpt>
      <trkpt lat="40.55256" lon="-2.06273">
        <ele>1186</ele>
        <time>2021-10-09 12:44:30</time>
      </trkpt>
      <trkpt lat="40.55251" lon="-2.06267">
        <ele>1186</ele>
        <time>2021-10-09 12:44:31</time>
      </trkpt>
      <trkpt lat="40.55247" lon="-2.06262">
        <ele>1186</ele>
        <time>2021-10-09 12:44:32</time>
      </trkpt>
      <trkpt lat="40.55241" lon="-2.06258">
        <ele>1186</ele>
        <time>2021-10-09 12:44:33</time>
      </trkpt>
      <trkpt lat="40.55236" lon="-2.06254">
        <ele>1186</ele>
        <time>2021-10-09 12:44:34</time>
      </trkpt>
      <trkpt lat="40.55231" lon="-2.06252">
        <ele>1186</ele>
        <time>2021-10-09 12:44:35</time>
      </trkpt>
      <trkpt lat="40.55226" lon="-2.06248">
        <ele>1185.8</ele>
        <time>2021-10-09 12:44:36</time>
      </trkpt>
      <trkpt lat="40.55221" lon="-2.06244">
        <ele>1185.8</ele>
        <time>2021-10-09 12:44:37</time>
      </trkpt>
      <trkpt lat="40.55218" lon="-2.06241">
        <ele>1185.8</ele>
        <time>2021-10-09 12:44:38</time>
      </trkpt>
      <trkpt lat="40.55214" lon="-2.06239">
        <ele>1185.6</ele>
        <time>2021-10-09 12:44:39</time>
      </trkpt>
      <trkpt lat="40.55211" lon="-2.06234">
        <ele>1185.6</ele>
        <time>2021-10-09 12:44:40</time>
      </trkpt>
      <trkpt lat="40.55207" lon="-2.06232">
        <ele>1185.6</ele>
        <time>2021-10-09 12:44:41</time>
      </trkpt>
      <trkpt lat="40.55205" lon="-2.0623">
        <ele>1185.6</ele>
        <time>2021-10-09 12:44:42</time>
      </trkpt>
      <trkpt lat="40.55203" lon="-2.06229">
        <ele>1185.6</ele>
        <time>2021-10-09 12:44:43</time>
      </trkpt>
      <trkpt lat="40.55201" lon="-2.06227">
        <ele>1185.6</ele>
        <time>2021-10-09 12:44:44</time>
      </trkpt>
      <trkpt lat="40.55198" lon="-2.06225">
        <ele>1185.6</ele>
        <time>2021-10-09 12:44:45</time>
      </trkpt>
      <trkpt lat="40.55195" lon="-2.06223">
        <ele>1185.6</ele>
        <time>2021-10-09 12:44:46</time>
      </trkpt>
      <trkpt lat="40.55192" lon="-2.06221">
        <ele>1185.6</ele>
        <time>2021-10-09 12:44:47</time>
      </trkpt>
      <trkpt lat="40.55189" lon="-2.06219">
        <ele>1185.6</ele>
        <time>2021-10-09 12:44:48</time>
      </trkpt>
      <trkpt lat="40.55186" lon="-2.06218">
        <ele>1185.6</ele>
        <time>2021-10-09 12:44:49</time>
      </trkpt>
      <trkpt lat="40.55183" lon="-2.06217">
        <ele>1185.4</ele>
        <time>2021-10-09 12:44:50</time>
      </trkpt>
      <trkpt lat="40.55181" lon="-2.06217">
        <ele>1185.4</ele>
        <time>2021-10-09 12:44:51</time>
      </trkpt>
      <trkpt lat="40.55178" lon="-2.06216">
        <ele>1185.4</ele>
        <time>2021-10-09 12:44:52</time>
      </trkpt>
      <trkpt lat="40.55175" lon="-2.06215">
        <ele>1185.4</ele>
        <time>2021-10-09 12:44:53</time>
      </trkpt>
      <trkpt lat="40.55172" lon="-2.06214">
        <ele>1185.2</ele>
        <time>2021-10-09 12:44:54</time>
      </trkpt>
      <trkpt lat="40.55169" lon="-2.06213">
        <ele>1185.4</ele>
        <time>2021-10-09 12:44:55</time>
      </trkpt>
      <trkpt lat="40.55165" lon="-2.06212">
        <ele>1185.8</ele>
        <time>2021-10-09 12:44:56</time>
      </trkpt>
      <trkpt lat="40.55162" lon="-2.06211">
        <ele>1186.2</ele>
        <time>2021-10-09 12:44:57</time>
      </trkpt>
      <trkpt lat="40.55159" lon="-2.06209">
        <ele>1186.2</ele>
        <time>2021-10-09 12:44:58</time>
      </trkpt>
      <trkpt lat="40.55155" lon="-2.06208">
        <ele>1186.2</ele>
        <time>2021-10-09 12:44:59</time>
      </trkpt>
      <trkpt lat="40.55152" lon="-2.06206">
        <ele>1186.2</ele>
        <time>2021-10-09 12:45:00</time>
      </trkpt>
      <trkpt lat="40.5515" lon="-2.06205">
        <ele>1186.2</ele>
        <time>2021-10-09 12:45:01</time>
      </trkpt>
      <trkpt lat="40.55148" lon="-2.06203">
        <ele>1186.2</ele>
        <time>2021-10-09 12:45:02</time>
      </trkpt>
      <trkpt lat="40.55145" lon="-2.06202">
        <ele>1186.2</ele>
        <time>2021-10-09 12:45:03</time>
      </trkpt>
      <trkpt lat="40.55142" lon="-2.062">
        <ele>1186.2</ele>
        <time>2021-10-09 12:45:04</time>
      </trkpt>
      <trkpt lat="40.55139" lon="-2.06197">
        <ele>1186.2</ele>
        <time>2021-10-09 12:45:05</time>
      </trkpt>
      <trkpt lat="40.55135" lon="-2.06194">
        <ele>1186.2</ele>
        <time>2021-10-09 12:45:06</time>
      </trkpt>
      <trkpt lat="40.55132" lon="-2.06192">
        <ele>1186.6</ele>
        <time>2021-10-09 12:45:07</time>
      </trkpt>
      <trkpt lat="40.55127" lon="-2.06189">
        <ele>1186.6</ele>
        <time>2021-10-09 12:45:08</time>
      </trkpt>
      <trkpt lat="40.55124" lon="-2.06185">
        <ele>1186.6</ele>
        <time>2021-10-09 12:45:09</time>
      </trkpt>
      <trkpt lat="40.5512" lon="-2.06183">
        <ele>1186.8</ele>
        <time>2021-10-09 12:45:10</time>
      </trkpt>
      <trkpt lat="40.55117" lon="-2.0618">
        <ele>1186.8</ele>
        <time>2021-10-09 12:45:11</time>
      </trkpt>
      <trkpt lat="40.55114" lon="-2.06177">
        <ele>1186.8</ele>
        <time>2021-10-09 12:45:12</time>
      </trkpt>
      <trkpt lat="40.55111" lon="-2.06174">
        <ele>1187.2</ele>
        <time>2021-10-09 12:45:13</time>
      </trkpt>
      <trkpt lat="40.55107" lon="-2.06172">
        <ele>1187.2</ele>
        <time>2021-10-09 12:45:14</time>
      </trkpt>
      <trkpt lat="40.55103" lon="-2.06171">
        <ele>1187.6</ele>
        <time>2021-10-09 12:45:15</time>
      </trkpt>
      <trkpt lat="40.55099" lon="-2.06169">
        <ele>1187.6</ele>
        <time>2021-10-09 12:45:16</time>
      </trkpt>
      <trkpt lat="40.55095" lon="-2.06165">
        <ele>1187.6</ele>
        <time>2021-10-09 12:45:17</time>
      </trkpt>
      <trkpt lat="40.55091" lon="-2.06161">
        <ele>1187.6</ele>
        <time>2021-10-09 12:45:18</time>
      </trkpt>
      <trkpt lat="40.55087" lon="-2.06157">
        <ele>1187.4</ele>
        <time>2021-10-09 12:45:19</time>
      </trkpt>
      <trkpt lat="40.55083" lon="-2.06153">
        <ele>1187.4</ele>
        <time>2021-10-09 12:45:20</time>
      </trkpt>
      <trkpt lat="40.55078" lon="-2.0615">
        <ele>1187.4</ele>
        <time>2021-10-09 12:45:21</time>
      </trkpt>
      <trkpt lat="40.55073" lon="-2.06146">
        <ele>1187.4</ele>
        <time>2021-10-09 12:45:22</time>
      </trkpt>
      <trkpt lat="40.55069" lon="-2.06141">
        <ele>1187.2</ele>
        <time>2021-10-09 12:45:23</time>
      </trkpt>
      <trkpt lat="40.55064" lon="-2.06137">
        <ele>1187.2</ele>
        <time>2021-10-09 12:45:24</time>
      </trkpt>
      <trkpt lat="40.5506" lon="-2.06131">
        <ele>1187.2</ele>
        <time>2021-10-09 12:45:25</time>
      </trkpt>
      <trkpt lat="40.55056" lon="-2.06126">
        <ele>1187</ele>
        <time>2021-10-09 12:45:26</time>
      </trkpt>
      <trkpt lat="40.55052" lon="-2.0612">
        <ele>1187</ele>
        <time>2021-10-09 12:45:27</time>
      </trkpt>
      <trkpt lat="40.55049" lon="-2.06113">
        <ele>1186.6</ele>
        <time>2021-10-09 12:45:28</time>
      </trkpt>
      <trkpt lat="40.55046" lon="-2.06106">
        <ele>1186.6</ele>
        <time>2021-10-09 12:45:29</time>
      </trkpt>
      <trkpt lat="40.55042" lon="-2.061">
        <ele>1186.6</ele>
        <time>2021-10-09 12:45:30</time>
      </trkpt>
      <trkpt lat="40.55038" lon="-2.06094">
        <ele>1186.6</ele>
        <time>2021-10-09 12:45:31</time>
      </trkpt>
      <trkpt lat="40.55034" lon="-2.06089">
        <ele>1186.4</ele>
        <time>2021-10-09 12:45:32</time>
      </trkpt>
      <trkpt lat="40.5503" lon="-2.06084">
        <ele>1186.4</ele>
        <time>2021-10-09 12:45:33</time>
      </trkpt>
      <trkpt lat="40.55025" lon="-2.0608">
        <ele>1186.4</ele>
        <time>2021-10-09 12:45:34</time>
      </trkpt>
      <trkpt lat="40.5502" lon="-2.06076">
        <ele>1186.2</ele>
        <time>2021-10-09 12:45:35</time>
      </trkpt>
      <trkpt lat="40.55014" lon="-2.06073">
        <ele>1186</ele>
        <time>2021-10-09 12:45:36</time>
      </trkpt>
      <trkpt lat="40.55009" lon="-2.06071">
        <ele>1186</ele>
        <time>2021-10-09 12:45:37</time>
      </trkpt>
      <trkpt lat="40.55003" lon="-2.06068">
        <ele>1186</ele>
        <time>2021-10-09 12:45:38</time>
      </trkpt>
      <trkpt lat="40.54998" lon="-2.06066">
        <ele>1185.8</ele>
        <time>2021-10-09 12:45:39</time>
      </trkpt>
      <trkpt lat="40.54994" lon="-2.06066">
        <ele>1185.6</ele>
        <time>2021-10-09 12:45:40</time>
      </trkpt>
      <trkpt lat="40.54989" lon="-2.06066">
        <ele>1185.6</ele>
        <time>2021-10-09 12:45:41</time>
      </trkpt>
      <trkpt lat="40.54984" lon="-2.06067">
        <ele>1185.4</ele>
        <time>2021-10-09 12:45:42</time>
      </trkpt>
      <trkpt lat="40.54978" lon="-2.06068">
        <ele>1185.4</ele>
        <time>2021-10-09 12:45:43</time>
      </trkpt>
      <trkpt lat="40.54973" lon="-2.06068">
        <ele>1185.4</ele>
        <time>2021-10-09 12:45:44</time>
      </trkpt>
      <trkpt lat="40.54968" lon="-2.06069">
        <ele>1185.4</ele>
        <time>2021-10-09 12:45:45</time>
      </trkpt>
      <trkpt lat="40.54962" lon="-2.0607">
        <ele>1185.4</ele>
        <time>2021-10-09 12:45:46</time>
      </trkpt>
      <trkpt lat="40.54956" lon="-2.06071">
        <ele>1185.4</ele>
        <time>2021-10-09 12:45:47</time>
      </trkpt>
      <trkpt lat="40.54951" lon="-2.06071">
        <ele>1185.4</ele>
        <time>2021-10-09 12:45:48</time>
      </trkpt>
      <trkpt lat="40.54945" lon="-2.06072">
        <ele>1185.4</ele>
        <time>2021-10-09 12:45:49</time>
      </trkpt>
      <trkpt lat="40.5494" lon="-2.06073">
        <ele>1185.4</ele>
        <time>2021-10-09 12:45:50</time>
      </trkpt>
      <trkpt lat="40.54934" lon="-2.06074">
        <ele>1185.4</ele>
        <time>2021-10-09 12:45:51</time>
      </trkpt>
      <trkpt lat="40.54929" lon="-2.06075">
        <ele>1185.4</ele>
        <time>2021-10-09 12:45:52</time>
      </trkpt>
      <trkpt lat="40.54923" lon="-2.06077">
        <ele>1185.4</ele>
        <time>2021-10-09 12:45:53</time>
      </trkpt>
      <trkpt lat="40.54917" lon="-2.06078">
        <ele>1185.4</ele>
        <time>2021-10-09 12:45:54</time>
      </trkpt>
      <trkpt lat="40.54912" lon="-2.0608">
        <ele>1184.8</ele>
        <time>2021-10-09 12:45:55</time>
      </trkpt>
      <trkpt lat="40.54906" lon="-2.06081">
        <ele>1184.4</ele>
        <time>2021-10-09 12:45:56</time>
      </trkpt>
      <trkpt lat="40.549" lon="-2.06081">
        <ele>1184.8</ele>
        <time>2021-10-09 12:45:57</time>
      </trkpt>
      <trkpt lat="40.54894" lon="-2.06082">
        <ele>1184.8</ele>
        <time>2021-10-09 12:45:58</time>
      </trkpt>
      <trkpt lat="40.54889" lon="-2.06082">
        <ele>1185.4</ele>
        <time>2021-10-09 12:45:59</time>
      </trkpt>
      <trkpt lat="40.54883" lon="-2.06082">
        <ele>1185.6</ele>
        <time>2021-10-09 12:46:00</time>
      </trkpt>
      <trkpt lat="40.54877" lon="-2.06082">
        <ele>1185.6</ele>
        <time>2021-10-09 12:46:01</time>
      </trkpt>
      <trkpt lat="40.54871" lon="-2.06081">
        <ele>1185.6</ele>
        <time>2021-10-09 12:46:02</time>
      </trkpt>
      <trkpt lat="40.54866" lon="-2.06082">
        <ele>1185.6</ele>
        <time>2021-10-09 12:46:03</time>
      </trkpt>
      <trkpt lat="40.5486" lon="-2.06082">
        <ele>1185.6</ele>
        <time>2021-10-09 12:46:04</time>
      </trkpt>
      <trkpt lat="40.54854" lon="-2.06082">
        <ele>1185.6</ele>
        <time>2021-10-09 12:46:05</time>
      </trkpt>
      <trkpt lat="40.54848" lon="-2.06082">
        <ele>1185.8</ele>
        <time>2021-10-09 12:46:06</time>
      </trkpt>
      <trkpt lat="40.54842" lon="-2.06081">
        <ele>1185.8</ele>
        <time>2021-10-09 12:46:07</time>
      </trkpt>
      <trkpt lat="40.54837" lon="-2.06081">
        <ele>1185.8</ele>
        <time>2021-10-09 12:46:08</time>
      </trkpt>
      <trkpt lat="40.54831" lon="-2.0608">
        <ele>1185.8</ele>
        <time>2021-10-09 12:46:09</time>
      </trkpt>
      <trkpt lat="40.54825" lon="-2.06078">
        <ele>1186</ele>
        <time>2021-10-09 12:46:10</time>
      </trkpt>
      <trkpt lat="40.54819" lon="-2.06076">
        <ele>1186</ele>
        <time>2021-10-09 12:46:11</time>
      </trkpt>
      <trkpt lat="40.54813" lon="-2.06074">
        <ele>1186</ele>
        <time>2021-10-09 12:46:12</time>
      </trkpt>
      <trkpt lat="40.54808" lon="-2.0607">
        <ele>1186</ele>
        <time>2021-10-09 12:46:13</time>
      </trkpt>
      <trkpt lat="40.54802" lon="-2.06067">
        <ele>1186</ele>
        <time>2021-10-09 12:46:14</time>
      </trkpt>
      <trkpt lat="40.54797" lon="-2.06063">
        <ele>1186</ele>
        <time>2021-10-09 12:46:15</time>
      </trkpt>
      <trkpt lat="40.54791" lon="-2.06058">
        <ele>1185.8</ele>
        <time>2021-10-09 12:46:16</time>
      </trkpt>
      <trkpt lat="40.54785" lon="-2.06055">
        <ele>1185.8</ele>
        <time>2021-10-09 12:46:17</time>
      </trkpt>
      <trkpt lat="40.54779" lon="-2.06051">
        <ele>1185.6</ele>
        <time>2021-10-09 12:46:18</time>
      </trkpt>
      <trkpt lat="40.54773" lon="-2.06048">
        <ele>1185.6</ele>
        <time>2021-10-09 12:46:19</time>
      </trkpt>
      <trkpt lat="40.54767" lon="-2.06044">
        <ele>1185.6</ele>
        <time>2021-10-09 12:46:20</time>
      </trkpt>
      <trkpt lat="40.54761" lon="-2.06041">
        <ele>1185.6</ele>
        <time>2021-10-09 12:46:21</time>
      </trkpt>
      <trkpt lat="40.54755" lon="-2.06039">
        <ele>1185.2</ele>
        <time>2021-10-09 12:46:22</time>
      </trkpt>
      <trkpt lat="40.54748" lon="-2.0604">
        <ele>1185.2</ele>
        <time>2021-10-09 12:46:23</time>
      </trkpt>
      <trkpt lat="40.54744" lon="-2.06044">
        <ele>1185.2</ele>
        <time>2021-10-09 12:46:24</time>
      </trkpt>
      <trkpt lat="40.54736" lon="-2.06044">
        <ele>1185</ele>
        <time>2021-10-09 12:46:25</time>
      </trkpt>
      <trkpt lat="40.5473" lon="-2.06046">
        <ele>1185</ele>
        <time>2021-10-09 12:46:26</time>
      </trkpt>
      <trkpt lat="40.54724" lon="-2.0604">
        <ele>1185</ele>
        <time>2021-10-09 12:46:27</time>
      </trkpt>
      <trkpt lat="40.54718" lon="-2.06035">
        <ele>1185</ele>
        <time>2021-10-09 12:46:28</time>
      </trkpt>
      <trkpt lat="40.54713" lon="-2.06031">
        <ele>1185</ele>
        <time>2021-10-09 12:46:29</time>
      </trkpt>
      <trkpt lat="40.54706" lon="-2.06027">
        <ele>1185</ele>
        <time>2021-10-09 12:46:30</time>
      </trkpt>
      <trkpt lat="40.54702" lon="-2.06022">
        <ele>1185</ele>
        <time>2021-10-09 12:46:31</time>
      </trkpt>
      <trkpt lat="40.54696" lon="-2.06017">
        <ele>1185</ele>
        <time>2021-10-09 12:46:32</time>
      </trkpt>
      <trkpt lat="40.54691" lon="-2.06013">
        <ele>1185</ele>
        <time>2021-10-09 12:46:33</time>
      </trkpt>
      <trkpt lat="40.54686" lon="-2.0601">
        <ele>1185</ele>
        <time>2021-10-09 12:46:34</time>
      </trkpt>
      <trkpt lat="40.5468" lon="-2.06007">
        <ele>1185</ele>
        <time>2021-10-09 12:46:35</time>
      </trkpt>
      <trkpt lat="40.54674" lon="-2.06005">
        <ele>1185</ele>
        <time>2021-10-09 12:46:36</time>
      </trkpt>
      <trkpt lat="40.54668" lon="-2.06004">
        <ele>1185</ele>
        <time>2021-10-09 12:46:37</time>
      </trkpt>
      <trkpt lat="40.54661" lon="-2.06004">
        <ele>1185</ele>
        <time>2021-10-09 12:46:38</time>
      </trkpt>
      <trkpt lat="40.54655" lon="-2.06005">
        <ele>1185</ele>
        <time>2021-10-09 12:46:39</time>
      </trkpt>
      <trkpt lat="40.54649" lon="-2.06006">
        <ele>1185</ele>
        <time>2021-10-09 12:46:40</time>
      </trkpt>
      <trkpt lat="40.54643" lon="-2.06008">
        <ele>1185</ele>
        <time>2021-10-09 12:46:41</time>
      </trkpt>
      <trkpt lat="40.54636" lon="-2.06009">
        <ele>1185</ele>
        <time>2021-10-09 12:46:42</time>
      </trkpt>
      <trkpt lat="40.5463" lon="-2.06011">
        <ele>1185</ele>
        <time>2021-10-09 12:46:43</time>
      </trkpt>
      <trkpt lat="40.54623" lon="-2.06011">
        <ele>1185</ele>
        <time>2021-10-09 12:46:44</time>
      </trkpt>
      <trkpt lat="40.54616" lon="-2.06011">
        <ele>1185</ele>
        <time>2021-10-09 12:46:45</time>
      </trkpt>
      <trkpt lat="40.54609" lon="-2.0601">
        <ele>1184.8</ele>
        <time>2021-10-09 12:46:46</time>
      </trkpt>
      <trkpt lat="40.54603" lon="-2.06008">
        <ele>1184.8</ele>
        <time>2021-10-09 12:46:47</time>
      </trkpt>
      <trkpt lat="40.54597" lon="-2.06006">
        <ele>1184.8</ele>
        <time>2021-10-09 12:46:48</time>
      </trkpt>
      <trkpt lat="40.54591" lon="-2.06003">
        <ele>1184.8</ele>
        <time>2021-10-09 12:46:49</time>
      </trkpt>
      <trkpt lat="40.54585" lon="-2.06">
        <ele>1184.8</ele>
        <time>2021-10-09 12:46:50</time>
      </trkpt>
      <trkpt lat="40.54579" lon="-2.05996">
        <ele>1185</ele>
        <time>2021-10-09 12:46:51</time>
      </trkpt>
      <trkpt lat="40.54574" lon="-2.05993">
        <ele>1185</ele>
        <time>2021-10-09 12:46:52</time>
      </trkpt>
      <trkpt lat="40.54568" lon="-2.0599">
        <ele>1185.2</ele>
        <time>2021-10-09 12:46:53</time>
      </trkpt>
      <trkpt lat="40.54563" lon="-2.05987">
        <ele>1185.2</ele>
        <time>2021-10-09 12:46:54</time>
      </trkpt>
      <trkpt lat="40.54558" lon="-2.05985">
        <ele>1185.6</ele>
        <time>2021-10-09 12:46:55</time>
      </trkpt>
      <trkpt lat="40.54553" lon="-2.05982">
        <ele>1185.6</ele>
        <time>2021-10-09 12:46:56</time>
      </trkpt>
      <trkpt lat="40.5455" lon="-2.0598">
        <ele>1186</ele>
        <time>2021-10-09 12:46:57</time>
      </trkpt>
      <trkpt lat="40.54545" lon="-2.05978">
        <ele>1186.4</ele>
        <time>2021-10-09 12:46:58</time>
      </trkpt>
      <trkpt lat="40.54541" lon="-2.05975">
        <ele>1186.6</ele>
        <time>2021-10-09 12:46:59</time>
      </trkpt>
      <trkpt lat="40.54538" lon="-2.05972">
        <ele>1186.8</ele>
        <time>2021-10-09 12:47:00</time>
      </trkpt>
      <trkpt lat="40.54534" lon="-2.05969">
        <ele>1187</ele>
        <time>2021-10-09 12:47:01</time>
      </trkpt>
      <trkpt lat="40.54531" lon="-2.05966">
        <ele>1187.4</ele>
        <time>2021-10-09 12:47:02</time>
      </trkpt>
      <trkpt lat="40.54528" lon="-2.05963">
        <ele>1187.4</ele>
        <time>2021-10-09 12:47:03</time>
      </trkpt>
      <trkpt lat="40.54525" lon="-2.05959">
        <ele>1187.8</ele>
        <time>2021-10-09 12:47:04</time>
      </trkpt>
      <trkpt lat="40.54521" lon="-2.05957">
        <ele>1188</ele>
        <time>2021-10-09 12:47:05</time>
      </trkpt>
      <trkpt lat="40.54518" lon="-2.05954">
        <ele>1188</ele>
        <time>2021-10-09 12:47:06</time>
      </trkpt>
      <trkpt lat="40.54516" lon="-2.05952">
        <ele>1188.4</ele>
        <time>2021-10-09 12:47:07</time>
      </trkpt>
      <trkpt lat="40.54513" lon="-2.05948">
        <ele>1188.6</ele>
        <time>2021-10-09 12:47:08</time>
      </trkpt>
      <trkpt lat="40.5451" lon="-2.05945">
        <ele>1188.8</ele>
        <time>2021-10-09 12:47:09</time>
      </trkpt>
      <trkpt lat="40.54506" lon="-2.05941">
        <ele>1188.8</ele>
        <time>2021-10-09 12:47:10</time>
      </trkpt>
      <trkpt lat="40.54503" lon="-2.05938">
        <ele>1189</ele>
        <time>2021-10-09 12:47:11</time>
      </trkpt>
      <trkpt lat="40.545" lon="-2.05935">
        <ele>1189</ele>
        <time>2021-10-09 12:47:12</time>
      </trkpt>
      <trkpt lat="40.54497" lon="-2.05932">
        <ele>1189.4</ele>
        <time>2021-10-09 12:47:13</time>
      </trkpt>
      <trkpt lat="40.54493" lon="-2.05929">
        <ele>1189.4</ele>
        <time>2021-10-09 12:47:14</time>
      </trkpt>
      <trkpt lat="40.54489" lon="-2.05927">
        <ele>1189.6</ele>
        <time>2021-10-09 12:47:15</time>
      </trkpt>
      <trkpt lat="40.54485" lon="-2.05924">
        <ele>1189.6</ele>
        <time>2021-10-09 12:47:16</time>
      </trkpt>
      <trkpt lat="40.54481" lon="-2.05921">
        <ele>1190</ele>
        <time>2021-10-09 12:47:17</time>
      </trkpt>
      <trkpt lat="40.54477" lon="-2.05919">
        <ele>1190.2</ele>
        <time>2021-10-09 12:47:18</time>
      </trkpt>
      <trkpt lat="40.54474" lon="-2.05917">
        <ele>1190.2</ele>
        <time>2021-10-09 12:47:19</time>
      </trkpt>
      <trkpt lat="40.5447" lon="-2.05915">
        <ele>1190.2</ele>
        <time>2021-10-09 12:47:20</time>
      </trkpt>
      <trkpt lat="40.54466" lon="-2.05913">
        <ele>1190.2</ele>
        <time>2021-10-09 12:47:21</time>
      </trkpt>
      <trkpt lat="40.54462" lon="-2.0591">
        <ele>1190.2</ele>
        <time>2021-10-09 12:47:22</time>
      </trkpt>
      <trkpt lat="40.54457" lon="-2.05908">
        <ele>1190.2</ele>
        <time>2021-10-09 12:47:23</time>
      </trkpt>
      <trkpt lat="40.54454" lon="-2.05905">
        <ele>1190.2</ele>
        <time>2021-10-09 12:47:24</time>
      </trkpt>
      <trkpt lat="40.5445" lon="-2.05903">
        <ele>1190.2</ele>
        <time>2021-10-09 12:47:25</time>
      </trkpt>
      <trkpt lat="40.54446" lon="-2.059">
        <ele>1190.4</ele>
        <time>2021-10-09 12:47:26</time>
      </trkpt>
      <trkpt lat="40.54443" lon="-2.05897">
        <ele>1190.4</ele>
        <time>2021-10-09 12:47:27</time>
      </trkpt>
      <trkpt lat="40.54439" lon="-2.05894">
        <ele>1190.4</ele>
        <time>2021-10-09 12:47:28</time>
      </trkpt>
      <trkpt lat="40.54435" lon="-2.05892">
        <ele>1190.8</ele>
        <time>2021-10-09 12:47:29</time>
      </trkpt>
      <trkpt lat="40.54433" lon="-2.05889">
        <ele>1190.8</ele>
        <time>2021-10-09 12:47:30</time>
      </trkpt>
      <trkpt lat="40.5443" lon="-2.05887">
        <ele>1191.2</ele>
        <time>2021-10-09 12:47:31</time>
      </trkpt>
      <trkpt lat="40.54427" lon="-2.05885">
        <ele>1191.2</ele>
        <time>2021-10-09 12:47:32</time>
      </trkpt>
      <trkpt lat="40.54423" lon="-2.05884">
        <ele>1191.4</ele>
        <time>2021-10-09 12:47:33</time>
      </trkpt>
      <trkpt lat="40.5442" lon="-2.05883">
        <ele>1191.4</ele>
        <time>2021-10-09 12:47:34</time>
      </trkpt>
      <trkpt lat="40.54417" lon="-2.05881">
        <ele>1191.6</ele>
        <time>2021-10-09 12:47:35</time>
      </trkpt>
      <trkpt lat="40.54413" lon="-2.0588">
        <ele>1191.6</ele>
        <time>2021-10-09 12:47:36</time>
      </trkpt>
      <trkpt lat="40.5441" lon="-2.05879">
        <ele>1191.6</ele>
        <time>2021-10-09 12:47:37</time>
      </trkpt>
      <trkpt lat="40.54406" lon="-2.05877">
        <ele>1191.8</ele>
        <time>2021-10-09 12:47:38</time>
      </trkpt>
      <trkpt lat="40.54402" lon="-2.05876">
        <ele>1191.8</ele>
        <time>2021-10-09 12:47:39</time>
      </trkpt>
      <trkpt lat="40.54399" lon="-2.05875">
        <ele>1192.2</ele>
        <time>2021-10-09 12:47:40</time>
      </trkpt>
      <trkpt lat="40.54395" lon="-2.05873">
        <ele>1192.2</ele>
        <time>2021-10-09 12:47:41</time>
      </trkpt>
      <trkpt lat="40.54391" lon="-2.05872">
        <ele>1192.2</ele>
        <time>2021-10-09 12:47:42</time>
      </trkpt>
      <trkpt lat="40.54387" lon="-2.05872">
        <ele>1192.2</ele>
        <time>2021-10-09 12:47:43</time>
      </trkpt>
      <trkpt lat="40.54382" lon="-2.05871">
        <ele>1192.2</ele>
        <time>2021-10-09 12:47:44</time>
      </trkpt>
      <trkpt lat="40.54378" lon="-2.0587">
        <ele>1192.4</ele>
        <time>2021-10-09 12:47:45</time>
      </trkpt>
      <trkpt lat="40.54374" lon="-2.05868">
        <ele>1192.4</ele>
        <time>2021-10-09 12:47:46</time>
      </trkpt>
      <trkpt lat="40.5437" lon="-2.05866">
        <ele>1192.4</ele>
        <time>2021-10-09 12:47:47</time>
      </trkpt>
      <trkpt lat="40.54366" lon="-2.05864">
        <ele>1192.4</ele>
        <time>2021-10-09 12:47:48</time>
      </trkpt>
      <trkpt lat="40.54362" lon="-2.05861">
        <ele>1192.6</ele>
        <time>2021-10-09 12:47:49</time>
      </trkpt>
      <trkpt lat="40.54358" lon="-2.05858">
        <ele>1192.6</ele>
        <time>2021-10-09 12:47:50</time>
      </trkpt>
      <trkpt lat="40.54354" lon="-2.05855">
        <ele>1192.6</ele>
        <time>2021-10-09 12:47:51</time>
      </trkpt>
      <trkpt lat="40.5435" lon="-2.05851">
        <ele>1192.6</ele>
        <time>2021-10-09 12:47:52</time>
      </trkpt>
      <trkpt lat="40.54346" lon="-2.05848">
        <ele>1192.8</ele>
        <time>2021-10-09 12:47:53</time>
      </trkpt>
      <trkpt lat="40.54343" lon="-2.05844">
        <ele>1192.8</ele>
        <time>2021-10-09 12:47:54</time>
      </trkpt>
      <trkpt lat="40.54339" lon="-2.05841">
        <ele>1192.8</ele>
        <time>2021-10-09 12:47:55</time>
      </trkpt>
      <trkpt lat="40.54335" lon="-2.05836">
        <ele>1192.8</ele>
        <time>2021-10-09 12:47:56</time>
      </trkpt>
      <trkpt lat="40.54331" lon="-2.05833">
        <ele>1192.8</ele>
        <time>2021-10-09 12:47:57</time>
      </trkpt>
      <trkpt lat="40.54328" lon="-2.05829">
        <ele>1192.8</ele>
        <time>2021-10-09 12:47:58</time>
      </trkpt>
      <trkpt lat="40.54324" lon="-2.05825">
        <ele>1192.8</ele>
        <time>2021-10-09 12:47:59</time>
      </trkpt>
      <trkpt lat="40.5432" lon="-2.05821">
        <ele>1192.8</ele>
        <time>2021-10-09 12:48:00</time>
      </trkpt>
      <trkpt lat="40.54317" lon="-2.05817">
        <ele>1193</ele>
        <time>2021-10-09 12:48:01</time>
      </trkpt>
      <trkpt lat="40.54313" lon="-2.05813">
        <ele>1193</ele>
        <time>2021-10-09 12:48:02</time>
      </trkpt>
      <trkpt lat="40.5431" lon="-2.0581">
        <ele>1193</ele>
        <time>2021-10-09 12:48:03</time>
      </trkpt>
      <trkpt lat="40.54307" lon="-2.05806">
        <ele>1193</ele>
        <time>2021-10-09 12:48:04</time>
      </trkpt>
      <trkpt lat="40.54303" lon="-2.05802">
        <ele>1193</ele>
        <time>2021-10-09 12:48:05</time>
      </trkpt>
      <trkpt lat="40.54299" lon="-2.05798">
        <ele>1193</ele>
        <time>2021-10-09 12:48:06</time>
      </trkpt>
      <trkpt lat="40.54295" lon="-2.05794">
        <ele>1193</ele>
        <time>2021-10-09 12:48:07</time>
      </trkpt>
      <trkpt lat="40.54291" lon="-2.0579">
        <ele>1193</ele>
        <time>2021-10-09 12:48:08</time>
      </trkpt>
      <trkpt lat="40.54286" lon="-2.05787">
        <ele>1193</ele>
        <time>2021-10-09 12:48:09</time>
      </trkpt>
      <trkpt lat="40.54282" lon="-2.05783">
        <ele>1193</ele>
        <time>2021-10-09 12:48:10</time>
      </trkpt>
      <trkpt lat="40.54277" lon="-2.05779">
        <ele>1193</ele>
        <time>2021-10-09 12:48:11</time>
      </trkpt>
      <trkpt lat="40.54272" lon="-2.05775">
        <ele>1193</ele>
        <time>2021-10-09 12:48:12</time>
      </trkpt>
      <trkpt lat="40.54267" lon="-2.0577">
        <ele>1193</ele>
        <time>2021-10-09 12:48:13</time>
      </trkpt>
      <trkpt lat="40.54262" lon="-2.05766">
        <ele>1192.8</ele>
        <time>2021-10-09 12:48:14</time>
      </trkpt>
      <trkpt lat="40.54256" lon="-2.05763">
        <ele>1192.8</ele>
        <time>2021-10-09 12:48:15</time>
      </trkpt>
      <trkpt lat="40.5425" lon="-2.05759">
        <ele>1192.4</ele>
        <time>2021-10-09 12:48:16</time>
      </trkpt>
      <trkpt lat="40.54244" lon="-2.05754">
        <ele>1192.4</ele>
        <time>2021-10-09 12:48:17</time>
      </trkpt>
      <trkpt lat="40.54238" lon="-2.05749">
        <ele>1192.2</ele>
        <time>2021-10-09 12:48:18</time>
      </trkpt>
      <trkpt lat="40.54232" lon="-2.05744">
        <ele>1192.2</ele>
        <time>2021-10-09 12:48:19</time>
      </trkpt>
      <trkpt lat="40.54226" lon="-2.05739">
        <ele>1192.2</ele>
        <time>2021-10-09 12:48:20</time>
      </trkpt>
      <trkpt lat="40.5422" lon="-2.05734">
        <ele>1192</ele>
        <time>2021-10-09 12:48:21</time>
      </trkpt>
      <trkpt lat="40.54214" lon="-2.0573">
        <ele>1192</ele>
        <time>2021-10-09 12:48:22</time>
      </trkpt>
      <trkpt lat="40.5421" lon="-2.05725">
        <ele>1192</ele>
        <time>2021-10-09 12:48:23</time>
      </trkpt>
      <trkpt lat="40.54204" lon="-2.0572">
        <ele>1191.8</ele>
        <time>2021-10-09 12:48:24</time>
      </trkpt>
      <trkpt lat="40.542" lon="-2.05715">
        <ele>1191.8</ele>
        <time>2021-10-09 12:48:25</time>
      </trkpt>
      <trkpt lat="40.54195" lon="-2.05711">
        <ele>1191.8</ele>
        <time>2021-10-09 12:48:26</time>
      </trkpt>
      <trkpt lat="40.5419" lon="-2.05706">
        <ele>1191.8</ele>
        <time>2021-10-09 12:48:27</time>
      </trkpt>
      <trkpt lat="40.54186" lon="-2.05701">
        <ele>1191.8</ele>
        <time>2021-10-09 12:48:28</time>
      </trkpt>
      <trkpt lat="40.54183" lon="-2.05696">
        <ele>1191.8</ele>
        <time>2021-10-09 12:48:29</time>
      </trkpt>
      <trkpt lat="40.54179" lon="-2.0569">
        <ele>1191.8</ele>
        <time>2021-10-09 12:48:30</time>
      </trkpt>
      <trkpt lat="40.54176" lon="-2.05685">
        <ele>1191.8</ele>
        <time>2021-10-09 12:48:31</time>
      </trkpt>
      <trkpt lat="40.54173" lon="-2.05679">
        <ele>1191.8</ele>
        <time>2021-10-09 12:48:32</time>
      </trkpt>
      <trkpt lat="40.54171" lon="-2.05674">
        <ele>1192</ele>
        <time>2021-10-09 12:48:33</time>
      </trkpt>
      <trkpt lat="40.54169" lon="-2.0567">
        <ele>1192</ele>
        <time>2021-10-09 12:48:34</time>
      </trkpt>
      <trkpt lat="40.54167" lon="-2.05667">
        <ele>1192.4</ele>
        <time>2021-10-09 12:48:35</time>
      </trkpt>
      <trkpt lat="40.54165" lon="-2.05663">
        <ele>1192.6</ele>
        <time>2021-10-09 12:48:36</time>
      </trkpt>
      <trkpt lat="40.54163" lon="-2.0566">
        <ele>1192.6</ele>
        <time>2021-10-09 12:48:37</time>
      </trkpt>
      <trkpt lat="40.54161" lon="-2.05657">
        <ele>1193</ele>
        <time>2021-10-09 12:48:38</time>
      </trkpt>
      <trkpt lat="40.5416" lon="-2.05654">
        <ele>1193.2</ele>
        <time>2021-10-09 12:48:39</time>
      </trkpt>
      <trkpt lat="40.54158" lon="-2.05651">
        <ele>1193.2</ele>
        <time>2021-10-09 12:48:40</time>
      </trkpt>
      <trkpt lat="40.54156" lon="-2.05649">
        <ele>1193.6</ele>
        <time>2021-10-09 12:48:41</time>
      </trkpt>
      <trkpt lat="40.54154" lon="-2.05647">
        <ele>1193.6</ele>
        <time>2021-10-09 12:48:42</time>
      </trkpt>
      <trkpt lat="40.54152" lon="-2.05645">
        <ele>1193.8</ele>
        <time>2021-10-09 12:48:43</time>
      </trkpt>
      <trkpt lat="40.54149" lon="-2.05644">
        <ele>1194.2</ele>
        <time>2021-10-09 12:48:44</time>
      </trkpt>
      <trkpt lat="40.54146" lon="-2.05643">
        <ele>1194.2</ele>
        <time>2021-10-09 12:48:45</time>
      </trkpt>
      <trkpt lat="40.54144" lon="-2.05642">
        <ele>1194.4</ele>
        <time>2021-10-09 12:48:46</time>
      </trkpt>
      <trkpt lat="40.54141" lon="-2.05642">
        <ele>1194.4</ele>
        <time>2021-10-09 12:48:47</time>
      </trkpt>
      <trkpt lat="40.54138" lon="-2.05642">
        <ele>1194.6</ele>
        <time>2021-10-09 12:48:48</time>
      </trkpt>
      <trkpt lat="40.54135" lon="-2.05641">
        <ele>1194.6</ele>
        <time>2021-10-09 12:48:49</time>
      </trkpt>
      <trkpt lat="40.54132" lon="-2.05641">
        <ele>1195</ele>
        <time>2021-10-09 12:48:50</time>
      </trkpt>
      <trkpt lat="40.5413" lon="-2.05641">
        <ele>1195</ele>
        <time>2021-10-09 12:48:51</time>
      </trkpt>
      <trkpt lat="40.54128" lon="-2.05641">
        <ele>1195.2</ele>
        <time>2021-10-09 12:48:52</time>
      </trkpt>
      <trkpt lat="40.54125" lon="-2.05641">
        <ele>1195.2</ele>
        <time>2021-10-09 12:48:53</time>
      </trkpt>
      <trkpt lat="40.54123" lon="-2.0564">
        <ele>1195.4</ele>
        <time>2021-10-09 12:48:54</time>
      </trkpt>
      <trkpt lat="40.5412" lon="-2.05639">
        <ele>1195.4</ele>
        <time>2021-10-09 12:48:55</time>
      </trkpt>
      <trkpt lat="40.54118" lon="-2.05638">
        <ele>1195.8</ele>
        <time>2021-10-09 12:48:56</time>
      </trkpt>
      <trkpt lat="40.54116" lon="-2.05637">
        <ele>1195.8</ele>
        <time>2021-10-09 12:48:57</time>
      </trkpt>
      <trkpt lat="40.54113" lon="-2.05636">
        <ele>1195</ele>
        <time>2021-10-09 12:48:58</time>
      </trkpt>
      <trkpt lat="40.54111" lon="-2.05635">
        <ele>1196</ele>
        <time>2021-10-09 12:48:59</time>
      </trkpt>
      <trkpt lat="40.54111" lon="-2.05635">
        <ele>1197</ele>
        <time>2021-10-09 12:49:00</time>
      </trkpt>
      <trkpt lat="40.541" lon="-2.05626">
        <ele>1197.2</ele>
        <time>2021-10-09 12:49:01</time>
      </trkpt>
      <trkpt lat="40.54097" lon="-2.05624">
        <ele>1197.2</ele>
        <time>2021-10-09 12:49:02</time>
      </trkpt>
      <trkpt lat="40.54095" lon="-2.05622">
        <ele>1197.2</ele>
        <time>2021-10-09 12:49:03</time>
      </trkpt>
      <trkpt lat="40.54092" lon="-2.0562">
        <ele>1197.2</ele>
        <time>2021-10-09 12:49:04</time>
      </trkpt>
      <trkpt lat="40.54089" lon="-2.05619">
        <ele>1197.4</ele>
        <time>2021-10-09 12:49:05</time>
      </trkpt>
      <trkpt lat="40.54086" lon="-2.05618">
        <ele>1197.4</ele>
        <time>2021-10-09 12:49:06</time>
      </trkpt>
      <trkpt lat="40.54084" lon="-2.05617">
        <ele>1197.4</ele>
        <time>2021-10-09 12:49:07</time>
      </trkpt>
      <trkpt lat="40.54081" lon="-2.05616">
        <ele>1197.6</ele>
        <time>2021-10-09 12:49:08</time>
      </trkpt>
      <trkpt lat="40.54078" lon="-2.05616">
        <ele>1197.6</ele>
        <time>2021-10-09 12:49:09</time>
      </trkpt>
      <trkpt lat="40.54075" lon="-2.05616">
        <ele>1197.8</ele>
        <time>2021-10-09 12:49:10</time>
      </trkpt>
      <trkpt lat="40.54072" lon="-2.05616">
        <ele>1197.8</ele>
        <time>2021-10-09 12:49:11</time>
      </trkpt>
      <trkpt lat="40.54069" lon="-2.05616">
        <ele>1197.8</ele>
        <time>2021-10-09 12:49:12</time>
      </trkpt>
      <trkpt lat="40.54066" lon="-2.05616">
        <ele>1197.8</ele>
        <time>2021-10-09 12:49:13</time>
      </trkpt>
      <trkpt lat="40.54063" lon="-2.05616">
        <ele>1198.2</ele>
        <time>2021-10-09 12:49:14</time>
      </trkpt>
      <trkpt lat="40.5406" lon="-2.05615">
        <ele>1198.2</ele>
        <time>2021-10-09 12:49:15</time>
      </trkpt>
      <trkpt lat="40.54057" lon="-2.05614">
        <ele>1198.2</ele>
        <time>2021-10-09 12:49:16</time>
      </trkpt>
      <trkpt lat="40.54055" lon="-2.05613">
        <ele>1198.2</ele>
        <time>2021-10-09 12:49:17</time>
      </trkpt>
      <trkpt lat="40.54052" lon="-2.05611">
        <ele>1198.2</ele>
        <time>2021-10-09 12:49:18</time>
      </trkpt>
      <trkpt lat="40.54049" lon="-2.05608">
        <ele>1198.2</ele>
        <time>2021-10-09 12:49:19</time>
      </trkpt>
      <trkpt lat="40.54047" lon="-2.05606">
        <ele>1198.2</ele>
        <time>2021-10-09 12:49:20</time>
      </trkpt>
      <trkpt lat="40.54044" lon="-2.05603">
        <ele>1198.2</ele>
        <time>2021-10-09 12:49:21</time>
      </trkpt>
      <trkpt lat="40.54042" lon="-2.056">
        <ele>1198.6</ele>
        <time>2021-10-09 12:49:22</time>
      </trkpt>
      <trkpt lat="40.5404" lon="-2.05598">
        <ele>1198.6</ele>
        <time>2021-10-09 12:49:23</time>
      </trkpt>
      <trkpt lat="40.54038" lon="-2.05595">
        <ele>1198.8</ele>
        <time>2021-10-09 12:49:24</time>
      </trkpt>
      <trkpt lat="40.54036" lon="-2.05592">
        <ele>1198.8</ele>
        <time>2021-10-09 12:49:25</time>
      </trkpt>
      <trkpt lat="40.54034" lon="-2.05589">
        <ele>1199</ele>
        <time>2021-10-09 12:49:26</time>
      </trkpt>
      <trkpt lat="40.54032" lon="-2.05586">
        <ele>1199</ele>
        <time>2021-10-09 12:49:27</time>
      </trkpt>
      <trkpt lat="40.5403" lon="-2.05583">
        <ele>1199.4</ele>
        <time>2021-10-09 12:49:28</time>
      </trkpt>
      <trkpt lat="40.54028" lon="-2.0558">
        <ele>1197.8</ele>
        <time>2021-10-09 12:49:29</time>
      </trkpt>
      <trkpt lat="40.54026" lon="-2.05577">
        <ele>1198.6</ele>
        <time>2021-10-09 12:49:30</time>
      </trkpt>
      <trkpt lat="40.54024" lon="-2.05574">
        <ele>1198.8</ele>
        <time>2021-10-09 12:49:31</time>
      </trkpt>
      <trkpt lat="40.54022" lon="-2.05571">
        <ele>1198.8</ele>
        <time>2021-10-09 12:49:32</time>
      </trkpt>
      <trkpt lat="40.54022" lon="-2.05571">
        <ele>1199.6</ele>
        <time>2021-10-09 12:49:33</time>
      </trkpt>
      <trkpt lat="40.54017" lon="-2.05565">
        <ele>1200.6</ele>
        <time>2021-10-09 12:49:34</time>
      </trkpt>
      <trkpt lat="40.54015" lon="-2.05563">
        <ele>1200.6</ele>
        <time>2021-10-09 12:49:35</time>
      </trkpt>
      <trkpt lat="40.54013" lon="-2.05561">
        <ele>1201</ele>
        <time>2021-10-09 12:49:36</time>
      </trkpt>
      <trkpt lat="40.54011" lon="-2.05558">
        <ele>1201.2</ele>
        <time>2021-10-09 12:49:37</time>
      </trkpt>
      <trkpt lat="40.54009" lon="-2.05556">
        <ele>1201.4</ele>
        <time>2021-10-09 12:49:38</time>
      </trkpt>
      <trkpt lat="40.54007" lon="-2.05554">
        <ele>1201.4</ele>
        <time>2021-10-09 12:49:39</time>
      </trkpt>
      <trkpt lat="40.54005" lon="-2.05551">
        <ele>1201.6</ele>
        <time>2021-10-09 12:49:40</time>
      </trkpt>
      <trkpt lat="40.54003" lon="-2.05549">
        <ele>1201.6</ele>
        <time>2021-10-09 12:49:41</time>
      </trkpt>
      <trkpt lat="40.54001" lon="-2.05547">
        <ele>1202</ele>
        <time>2021-10-09 12:49:42</time>
      </trkpt>
      <trkpt lat="40.53999" lon="-2.05545">
        <ele>1202</ele>
        <time>2021-10-09 12:49:43</time>
      </trkpt>
      <trkpt lat="40.53997" lon="-2.05542">
        <ele>1202.2</ele>
        <time>2021-10-09 12:49:44</time>
      </trkpt>
      <trkpt lat="40.53994" lon="-2.0554">
        <ele>1202.2</ele>
        <time>2021-10-09 12:49:45</time>
      </trkpt>
      <trkpt lat="40.53992" lon="-2.05538">
        <ele>1202.4</ele>
        <time>2021-10-09 12:49:46</time>
      </trkpt>
      <trkpt lat="40.53989" lon="-2.05536">
        <ele>1202.4</ele>
        <time>2021-10-09 12:49:47</time>
      </trkpt>
      <trkpt lat="40.53987" lon="-2.05535">
        <ele>1202.8</ele>
        <time>2021-10-09 12:49:48</time>
      </trkpt>
      <trkpt lat="40.53984" lon="-2.05533">
        <ele>1202.8</ele>
        <time>2021-10-09 12:49:49</time>
      </trkpt>
      <trkpt lat="40.53982" lon="-2.05531">
        <ele>1202.8</ele>
        <time>2021-10-09 12:49:50</time>
      </trkpt>
      <trkpt lat="40.53979" lon="-2.0553">
        <ele>1203</ele>
        <time>2021-10-09 12:49:51</time>
      </trkpt>
      <trkpt lat="40.53976" lon="-2.05528">
        <ele>1203</ele>
        <time>2021-10-09 12:49:52</time>
      </trkpt>
      <trkpt lat="40.53973" lon="-2.05527">
        <ele>1203</ele>
        <time>2021-10-09 12:49:53</time>
      </trkpt>
      <trkpt lat="40.5397" lon="-2.05526">
        <ele>1203.2</ele>
        <time>2021-10-09 12:49:54</time>
      </trkpt>
      <trkpt lat="40.53966" lon="-2.05526">
        <ele>1203.2</ele>
        <time>2021-10-09 12:49:55</time>
      </trkpt>
      <trkpt lat="40.53963" lon="-2.05525">
        <ele>1203.4</ele>
        <time>2021-10-09 12:49:56</time>
      </trkpt>
      <trkpt lat="40.5396" lon="-2.05524">
        <ele>1203.4</ele>
        <time>2021-10-09 12:49:57</time>
      </trkpt>
      <trkpt lat="40.53958" lon="-2.05524">
        <ele>1203.6</ele>
        <time>2021-10-09 12:49:58</time>
      </trkpt>
      <trkpt lat="40.53955" lon="-2.05524">
        <ele>1203.6</ele>
        <time>2021-10-09 12:49:59</time>
      </trkpt>
      <trkpt lat="40.53953" lon="-2.05525">
        <ele>1204</ele>
        <time>2021-10-09 12:50:00</time>
      </trkpt>
      <trkpt lat="40.53951" lon="-2.05525">
        <ele>1204</ele>
        <time>2021-10-09 12:50:01</time>
      </trkpt>
      <trkpt lat="40.53949" lon="-2.05526">
        <ele>1204.4</ele>
        <time>2021-10-09 12:50:02</time>
      </trkpt>
      <trkpt lat="40.53947" lon="-2.05526">
        <ele>1204.8</ele>
        <time>2021-10-09 12:50:03</time>
      </trkpt>
      <trkpt lat="40.53944" lon="-2.05527">
        <ele>1205</ele>
        <time>2021-10-09 12:50:04</time>
      </trkpt>
      <trkpt lat="40.53942" lon="-2.05528">
        <ele>1205.2</ele>
        <time>2021-10-09 12:50:05</time>
      </trkpt>
      <trkpt lat="40.5394" lon="-2.05528">
        <ele>1205.6</ele>
        <time>2021-10-09 12:50:06</time>
      </trkpt>
      <trkpt lat="40.53939" lon="-2.05529">
        <ele>1205.8</ele>
        <time>2021-10-09 12:50:07</time>
      </trkpt>
      <trkpt lat="40.53937" lon="-2.0553">
        <ele>1206</ele>
        <time>2021-10-09 12:50:08</time>
      </trkpt>
      <trkpt lat="40.53935" lon="-2.05531">
        <ele>1206.2</ele>
        <time>2021-10-09 12:50:09</time>
      </trkpt>
      <trkpt lat="40.53932" lon="-2.05532">
        <ele>1206.4</ele>
        <time>2021-10-09 12:50:10</time>
      </trkpt>
      <trkpt lat="40.5393" lon="-2.05533">
        <ele>1206.4</ele>
        <time>2021-10-09 12:50:11</time>
      </trkpt>
      <trkpt lat="40.53928" lon="-2.05533">
        <ele>1206.8</ele>
        <time>2021-10-09 12:50:12</time>
      </trkpt>
      <trkpt lat="40.53926" lon="-2.05534">
        <ele>1206.8</ele>
        <time>2021-10-09 12:50:13</time>
      </trkpt>
      <trkpt lat="40.53924" lon="-2.05534">
        <ele>1207.2</ele>
        <time>2021-10-09 12:50:14</time>
      </trkpt>
      <trkpt lat="40.53922" lon="-2.05534">
        <ele>1207.2</ele>
        <time>2021-10-09 12:50:15</time>
      </trkpt>
      <trkpt lat="40.53919" lon="-2.05534">
        <ele>1207.4</ele>
        <time>2021-10-09 12:50:16</time>
      </trkpt>
      <trkpt lat="40.53917" lon="-2.05534">
        <ele>1207.4</ele>
        <time>2021-10-09 12:50:17</time>
      </trkpt>
      <trkpt lat="40.53915" lon="-2.05534">
        <ele>1207.8</ele>
        <time>2021-10-09 12:50:18</time>
      </trkpt>
      <trkpt lat="40.53913" lon="-2.05535">
        <ele>1207.8</ele>
        <time>2021-10-09 12:50:19</time>
      </trkpt>
      <trkpt lat="40.53911" lon="-2.05536">
        <ele>1208</ele>
        <time>2021-10-09 12:50:20</time>
      </trkpt>
      <trkpt lat="40.53909" lon="-2.05536">
        <ele>1208</ele>
        <time>2021-10-09 12:50:21</time>
      </trkpt>
      <trkpt lat="40.53907" lon="-2.05537">
        <ele>1208.4</ele>
        <time>2021-10-09 12:50:22</time>
      </trkpt>
      <trkpt lat="40.53905" lon="-2.05537">
        <ele>1208.4</ele>
        <time>2021-10-09 12:50:23</time>
      </trkpt>
      <trkpt lat="40.53903" lon="-2.05537">
        <ele>1208.6</ele>
        <time>2021-10-09 12:50:24</time>
      </trkpt>
      <trkpt lat="40.53901" lon="-2.05538">
        <ele>1208.6</ele>
        <time>2021-10-09 12:50:25</time>
      </trkpt>
      <trkpt lat="40.53899" lon="-2.05538">
        <ele>1208.8</ele>
        <time>2021-10-09 12:50:26</time>
      </trkpt>
      <trkpt lat="40.53898" lon="-2.05539">
        <ele>1208.8</ele>
        <time>2021-10-09 12:50:27</time>
      </trkpt>
      <trkpt lat="40.53896" lon="-2.0554">
        <ele>1209.2</ele>
        <time>2021-10-09 12:50:28</time>
      </trkpt>
      <trkpt lat="40.53894" lon="-2.05541">
        <ele>1209.2</ele>
        <time>2021-10-09 12:50:29</time>
      </trkpt>
      <trkpt lat="40.53892" lon="-2.05541">
        <ele>1209.6</ele>
        <time>2021-10-09 12:50:30</time>
      </trkpt>
      <trkpt lat="40.5389" lon="-2.05542">
        <ele>1209.6</ele>
        <time>2021-10-09 12:50:31</time>
      </trkpt>
      <trkpt lat="40.53888" lon="-2.05542">
        <ele>1209.8</ele>
        <time>2021-10-09 12:50:32</time>
      </trkpt>
      <trkpt lat="40.53886" lon="-2.05542">
        <ele>1209.8</ele>
        <time>2021-10-09 12:50:33</time>
      </trkpt>
      <trkpt lat="40.53885" lon="-2.05542">
        <ele>1210.2</ele>
        <time>2021-10-09 12:50:34</time>
      </trkpt>
      <trkpt lat="40.53883" lon="-2.05542">
        <ele>1210.2</ele>
        <time>2021-10-09 12:50:35</time>
      </trkpt>
      <trkpt lat="40.53882" lon="-2.05542">
        <ele>1210.6</ele>
        <time>2021-10-09 12:50:36</time>
      </trkpt>
      <trkpt lat="40.5388" lon="-2.05542">
        <ele>1210.8</ele>
        <time>2021-10-09 12:50:37</time>
      </trkpt>
      <trkpt lat="40.53879" lon="-2.05542">
        <ele>1211</ele>
        <time>2021-10-09 12:50:38</time>
      </trkpt>
      <trkpt lat="40.53877" lon="-2.05542">
        <ele>1211</ele>
        <time>2021-10-09 12:50:39</time>
      </trkpt>
      <trkpt lat="40.53876" lon="-2.05543">
        <ele>1211.4</ele>
        <time>2021-10-09 12:50:40</time>
      </trkpt>
      <trkpt lat="40.53874" lon="-2.05543">
        <ele>1211.4</ele>
        <time>2021-10-09 12:50:41</time>
      </trkpt>
      <trkpt lat="40.53872" lon="-2.05544">
        <ele>1211.6</ele>
        <time>2021-10-09 12:50:42</time>
      </trkpt>
      <trkpt lat="40.5387" lon="-2.05544">
        <ele>1211.6</ele>
        <time>2021-10-09 12:50:43</time>
      </trkpt>
      <trkpt lat="40.53869" lon="-2.05544">
        <ele>1212</ele>
        <time>2021-10-09 12:50:44</time>
      </trkpt>
      <trkpt lat="40.53866" lon="-2.05544">
        <ele>1212</ele>
        <time>2021-10-09 12:50:45</time>
      </trkpt>
      <trkpt lat="40.53864" lon="-2.05545">
        <ele>1212.4</ele>
        <time>2021-10-09 12:50:46</time>
      </trkpt>
      <trkpt lat="40.53863" lon="-2.05546">
        <ele>1212.4</ele>
        <time>2021-10-09 12:50:47</time>
      </trkpt>
      <trkpt lat="40.53861" lon="-2.05546">
        <ele>1212.6</ele>
        <time>2021-10-09 12:50:48</time>
      </trkpt>
      <trkpt lat="40.5386" lon="-2.05547">
        <ele>1212.6</ele>
        <time>2021-10-09 12:50:49</time>
      </trkpt>
      <trkpt lat="40.53858" lon="-2.05547">
        <ele>1213</ele>
        <time>2021-10-09 12:50:50</time>
      </trkpt>
      <trkpt lat="40.53857" lon="-2.05548">
        <ele>1213</ele>
        <time>2021-10-09 12:50:51</time>
      </trkpt>
      <trkpt lat="40.53856" lon="-2.05548">
        <ele>1213.2</ele>
        <time>2021-10-09 12:50:52</time>
      </trkpt>
      <trkpt lat="40.53854" lon="-2.05549">
        <ele>1213.2</ele>
        <time>2021-10-09 12:50:53</time>
      </trkpt>
      <trkpt lat="40.53853" lon="-2.05549">
        <ele>1213.6</ele>
        <time>2021-10-09 12:50:54</time>
      </trkpt>
      <trkpt lat="40.53851" lon="-2.0555">
        <ele>1213.6</ele>
        <time>2021-10-09 12:50:55</time>
      </trkpt>
      <trkpt lat="40.5385" lon="-2.0555">
        <ele>1214</ele>
        <time>2021-10-09 12:50:56</time>
      </trkpt>
      <trkpt lat="40.53848" lon="-2.05551">
        <ele>1214</ele>
        <time>2021-10-09 12:50:57</time>
      </trkpt>
      <trkpt lat="40.53847" lon="-2.05552">
        <ele>1214.4</ele>
        <time>2021-10-09 12:50:58</time>
      </trkpt>
      <trkpt lat="40.53846" lon="-2.05552">
        <ele>1214.4</ele>
        <time>2021-10-09 12:50:59</time>
      </trkpt>
      <trkpt lat="40.53844" lon="-2.05553">
        <ele>1214.6</ele>
        <time>2021-10-09 12:51:00</time>
      </trkpt>
      <trkpt lat="40.53842" lon="-2.05554">
        <ele>1214.6</ele>
        <time>2021-10-09 12:51:01</time>
      </trkpt>
      <trkpt lat="40.53841" lon="-2.05554">
        <ele>1215</ele>
        <time>2021-10-09 12:51:02</time>
      </trkpt>
      <trkpt lat="40.53839" lon="-2.05555">
        <ele>1215</ele>
        <time>2021-10-09 12:51:03</time>
      </trkpt>
      <trkpt lat="40.53838" lon="-2.05555">
        <ele>1215.2</ele>
        <time>2021-10-09 12:51:04</time>
      </trkpt>
      <trkpt lat="40.53836" lon="-2.05556">
        <ele>1215.2</ele>
        <time>2021-10-09 12:51:05</time>
      </trkpt>
      <trkpt lat="40.53834" lon="-2.05557">
        <ele>1215.6</ele>
        <time>2021-10-09 12:51:06</time>
      </trkpt>
      <trkpt lat="40.53833" lon="-2.05558">
        <ele>1215.6</ele>
        <time>2021-10-09 12:51:07</time>
      </trkpt>
      <trkpt lat="40.53831" lon="-2.05558">
        <ele>1215.8</ele>
        <time>2021-10-09 12:51:08</time>
      </trkpt>
      <trkpt lat="40.5383" lon="-2.05559">
        <ele>1216</ele>
        <time>2021-10-09 12:51:09</time>
      </trkpt>
      <trkpt lat="40.53828" lon="-2.0556">
        <ele>1216.2</ele>
        <time>2021-10-09 12:51:10</time>
      </trkpt>
      <trkpt lat="40.53827" lon="-2.05561">
        <ele>1216.2</ele>
        <time>2021-10-09 12:51:11</time>
      </trkpt>
      <trkpt lat="40.53826" lon="-2.05563">
        <ele>1216.6</ele>
        <time>2021-10-09 12:51:12</time>
      </trkpt>
      <trkpt lat="40.53824" lon="-2.05565">
        <ele>1216.6</ele>
        <time>2021-10-09 12:51:13</time>
      </trkpt>
      <trkpt lat="40.53823" lon="-2.05566">
        <ele>1217</ele>
        <time>2021-10-09 12:51:14</time>
      </trkpt>
      <trkpt lat="40.53822" lon="-2.05568">
        <ele>1217</ele>
        <time>2021-10-09 12:51:15</time>
      </trkpt>
      <trkpt lat="40.5382" lon="-2.0557">
        <ele>1217.2</ele>
        <time>2021-10-09 12:51:16</time>
      </trkpt>
      <trkpt lat="40.53819" lon="-2.05572">
        <ele>1217.2</ele>
        <time>2021-10-09 12:51:17</time>
      </trkpt>
      <trkpt lat="40.53818" lon="-2.05574">
        <ele>1217.6</ele>
        <time>2021-10-09 12:51:18</time>
      </trkpt>
      <trkpt lat="40.53817" lon="-2.05576">
        <ele>1217.6</ele>
        <time>2021-10-09 12:51:19</time>
      </trkpt>
      <trkpt lat="40.53816" lon="-2.05578">
        <ele>1217.8</ele>
        <time>2021-10-09 12:51:20</time>
      </trkpt>
      <trkpt lat="40.53816" lon="-2.0558">
        <ele>1218.2</ele>
        <time>2021-10-09 12:51:21</time>
      </trkpt>
      <trkpt lat="40.53815" lon="-2.05582">
        <ele>1218.2</ele>
        <time>2021-10-09 12:51:22</time>
      </trkpt>
      <trkpt lat="40.53814" lon="-2.05585">
        <ele>1218.4</ele>
        <time>2021-10-09 12:51:23</time>
      </trkpt>
      <trkpt lat="40.53813" lon="-2.05587">
        <ele>1218.4</ele>
        <time>2021-10-09 12:51:24</time>
      </trkpt>
      <trkpt lat="40.53813" lon="-2.05588">
        <ele>1218.8</ele>
        <time>2021-10-09 12:51:25</time>
      </trkpt>
      <trkpt lat="40.53812" lon="-2.05591">
        <ele>1218.8</ele>
        <time>2021-10-09 12:51:26</time>
      </trkpt>
      <trkpt lat="40.53811" lon="-2.05593">
        <ele>1219.2</ele>
        <time>2021-10-09 12:51:27</time>
      </trkpt>
      <trkpt lat="40.5381" lon="-2.05595">
        <ele>1219.2</ele>
        <time>2021-10-09 12:51:28</time>
      </trkpt>
      <trkpt lat="40.5381" lon="-2.05598">
        <ele>1219.6</ele>
        <time>2021-10-09 12:51:29</time>
      </trkpt>
      <trkpt lat="40.5381" lon="-2.056">
        <ele>1219.8</ele>
        <time>2021-10-09 12:51:30</time>
      </trkpt>
      <trkpt lat="40.5381" lon="-2.05602">
        <ele>1220</ele>
        <time>2021-10-09 12:51:31</time>
      </trkpt>
      <trkpt lat="40.5381" lon="-2.05604">
        <ele>1220.2</ele>
        <time>2021-10-09 12:51:32</time>
      </trkpt>
      <trkpt lat="40.5381" lon="-2.05606">
        <ele>1220.2</ele>
        <time>2021-10-09 12:51:33</time>
      </trkpt>
      <trkpt lat="40.5381" lon="-2.05609">
        <ele>1220.6</ele>
        <time>2021-10-09 12:51:34</time>
      </trkpt>
      <trkpt lat="40.53811" lon="-2.05611">
        <ele>1220.6</ele>
        <time>2021-10-09 12:51:35</time>
      </trkpt>
      <trkpt lat="40.53811" lon="-2.05613">
        <ele>1220.8</ele>
        <time>2021-10-09 12:51:36</time>
      </trkpt>
      <trkpt lat="40.53811" lon="-2.05615">
        <ele>1221</ele>
        <time>2021-10-09 12:51:37</time>
      </trkpt>
      <trkpt lat="40.53812" lon="-2.05618">
        <ele>1221</ele>
        <time>2021-10-09 12:51:38</time>
      </trkpt>
      <trkpt lat="40.53812" lon="-2.0562">
        <ele>1221.4</ele>
        <time>2021-10-09 12:51:39</time>
      </trkpt>
      <trkpt lat="40.53812" lon="-2.05622">
        <ele>1221.8</ele>
        <time>2021-10-09 12:51:40</time>
      </trkpt>
      <trkpt lat="40.53813" lon="-2.05624">
        <ele>1222</ele>
        <time>2021-10-09 12:51:41</time>
      </trkpt>
      <trkpt lat="40.53814" lon="-2.05627">
        <ele>1222.2</ele>
        <time>2021-10-09 12:51:42</time>
      </trkpt>
      <trkpt lat="40.53814" lon="-2.0563">
        <ele>1222.4</ele>
        <time>2021-10-09 12:51:43</time>
      </trkpt>
      <trkpt lat="40.53815" lon="-2.05633">
        <ele>1222.6</ele>
        <time>2021-10-09 12:51:44</time>
      </trkpt>
      <trkpt lat="40.53815" lon="-2.05635">
        <ele>1223</ele>
        <time>2021-10-09 12:51:45</time>
      </trkpt>
      <trkpt lat="40.53815" lon="-2.05638">
        <ele>1223</ele>
        <time>2021-10-09 12:51:46</time>
      </trkpt>
      <trkpt lat="40.53814" lon="-2.0564">
        <ele>1223.2</ele>
        <time>2021-10-09 12:51:47</time>
      </trkpt>
      <trkpt lat="40.53814" lon="-2.05643">
        <ele>1223.2</ele>
        <time>2021-10-09 12:51:48</time>
      </trkpt>
      <trkpt lat="40.53813" lon="-2.05645">
        <ele>1223.4</ele>
        <time>2021-10-09 12:51:49</time>
      </trkpt>
      <trkpt lat="40.53812" lon="-2.05647">
        <ele>1223.4</ele>
        <time>2021-10-09 12:51:50</time>
      </trkpt>
      <trkpt lat="40.53811" lon="-2.0565">
        <ele>1223.8</ele>
        <time>2021-10-09 12:51:51</time>
      </trkpt>
      <trkpt lat="40.53809" lon="-2.05651">
        <ele>1224</ele>
        <time>2021-10-09 12:51:52</time>
      </trkpt>
      <trkpt lat="40.53808" lon="-2.05653">
        <ele>1224</ele>
        <time>2021-10-09 12:51:53</time>
      </trkpt>
      <trkpt lat="40.53806" lon="-2.05654">
        <ele>1224.4</ele>
        <time>2021-10-09 12:51:54</time>
      </trkpt>
      <trkpt lat="40.53805" lon="-2.05655">
        <ele>1224.6</ele>
        <time>2021-10-09 12:51:55</time>
      </trkpt>
      <trkpt lat="40.53803" lon="-2.05657">
        <ele>1224.8</ele>
        <time>2021-10-09 12:51:56</time>
      </trkpt>
      <trkpt lat="40.53801" lon="-2.05658">
        <ele>1225</ele>
        <time>2021-10-09 12:51:57</time>
      </trkpt>
      <trkpt lat="40.538" lon="-2.05659">
        <ele>1225.4</ele>
        <time>2021-10-09 12:51:58</time>
      </trkpt>
      <trkpt lat="40.53798" lon="-2.0566">
        <ele>1225.6</ele>
        <time>2021-10-09 12:51:59</time>
      </trkpt>
      <trkpt lat="40.53797" lon="-2.05661">
        <ele>1225.6</ele>
        <time>2021-10-09 12:52:00</time>
      </trkpt>
      <trkpt lat="40.53795" lon="-2.05662">
        <ele>1225.8</ele>
        <time>2021-10-09 12:52:01</time>
      </trkpt>
      <trkpt lat="40.53793" lon="-2.05664">
        <ele>1225.8</ele>
        <time>2021-10-09 12:52:02</time>
      </trkpt>
      <trkpt lat="40.53792" lon="-2.05664">
        <ele>1226.2</ele>
        <time>2021-10-09 12:52:03</time>
      </trkpt>
      <trkpt lat="40.5379" lon="-2.05665">
        <ele>1226.2</ele>
        <time>2021-10-09 12:52:04</time>
      </trkpt>
      <trkpt lat="40.53788" lon="-2.05667">
        <ele>1226.4</ele>
        <time>2021-10-09 12:52:05</time>
      </trkpt>
      <trkpt lat="40.53787" lon="-2.05668">
        <ele>1226.4</ele>
        <time>2021-10-09 12:52:06</time>
      </trkpt>
      <trkpt lat="40.53785" lon="-2.05669">
        <ele>1226.8</ele>
        <time>2021-10-09 12:52:07</time>
      </trkpt>
      <trkpt lat="40.53783" lon="-2.0567">
        <ele>1226.8</ele>
        <time>2021-10-09 12:52:08</time>
      </trkpt>
      <trkpt lat="40.53782" lon="-2.05671">
        <ele>1227</ele>
        <time>2021-10-09 12:52:09</time>
      </trkpt>
      <trkpt lat="40.5378" lon="-2.05672">
        <ele>1227</ele>
        <time>2021-10-09 12:52:10</time>
      </trkpt>
      <trkpt lat="40.53778" lon="-2.05673">
        <ele>1227.4</ele>
        <time>2021-10-09 12:52:11</time>
      </trkpt>
      <trkpt lat="40.53776" lon="-2.05674">
        <ele>1227.4</ele>
        <time>2021-10-09 12:52:12</time>
      </trkpt>
      <trkpt lat="40.53774" lon="-2.05675">
        <ele>1227.6</ele>
        <time>2021-10-09 12:52:13</time>
      </trkpt>
      <trkpt lat="40.53772" lon="-2.05676">
        <ele>1227.6</ele>
        <time>2021-10-09 12:52:14</time>
      </trkpt>
      <trkpt lat="40.53771" lon="-2.05677">
        <ele>1227.8</ele>
        <time>2021-10-09 12:52:15</time>
      </trkpt>
      <trkpt lat="40.53769" lon="-2.05677">
        <ele>1227.8</ele>
        <time>2021-10-09 12:52:16</time>
      </trkpt>
      <trkpt lat="40.53766" lon="-2.05677">
        <ele>1228.2</ele>
        <time>2021-10-09 12:52:17</time>
      </trkpt>
      <trkpt lat="40.53764" lon="-2.05677">
        <ele>1228.2</ele>
        <time>2021-10-09 12:52:18</time>
      </trkpt>
      <trkpt lat="40.53763" lon="-2.05676">
        <ele>1228.2</ele>
        <time>2021-10-09 12:52:19</time>
      </trkpt>
      <trkpt lat="40.53761" lon="-2.05676">
        <ele>1228.4</ele>
        <time>2021-10-09 12:52:20</time>
      </trkpt>
      <trkpt lat="40.5376" lon="-2.05675">
        <ele>1228.4</ele>
        <time>2021-10-09 12:52:21</time>
      </trkpt>
      <trkpt lat="40.53758" lon="-2.05674">
        <ele>1228.6</ele>
        <time>2021-10-09 12:52:22</time>
      </trkpt>
      <trkpt lat="40.53757" lon="-2.05673">
        <ele>1228.6</ele>
        <time>2021-10-09 12:52:23</time>
      </trkpt>
      <trkpt lat="40.53755" lon="-2.05672">
        <ele>1228.8</ele>
        <time>2021-10-09 12:52:24</time>
      </trkpt>
      <trkpt lat="40.53754" lon="-2.0567">
        <ele>1228.8</ele>
        <time>2021-10-09 12:52:25</time>
      </trkpt>
      <trkpt lat="40.53752" lon="-2.05668">
        <ele>1229.2</ele>
        <time>2021-10-09 12:52:26</time>
      </trkpt>
      <trkpt lat="40.53751" lon="-2.05666">
        <ele>1229.2</ele>
        <time>2021-10-09 12:52:27</time>
      </trkpt>
      <trkpt lat="40.53751" lon="-2.05664">
        <ele>1229.4</ele>
        <time>2021-10-09 12:52:28</time>
      </trkpt>
      <trkpt lat="40.5375" lon="-2.05662">
        <ele>1229.8</ele>
        <time>2021-10-09 12:52:29</time>
      </trkpt>
      <trkpt lat="40.5375" lon="-2.0566">
        <ele>1229.8</ele>
        <time>2021-10-09 12:52:30</time>
      </trkpt>
      <trkpt lat="40.53749" lon="-2.05658">
        <ele>1230</ele>
        <time>2021-10-09 12:52:31</time>
      </trkpt>
      <trkpt lat="40.53749" lon="-2.05656">
        <ele>1230.2</ele>
        <time>2021-10-09 12:52:32</time>
      </trkpt>
      <trkpt lat="40.53748" lon="-2.05655">
        <ele>1230.6</ele>
        <time>2021-10-09 12:52:33</time>
      </trkpt>
      <trkpt lat="40.53748" lon="-2.05654">
        <ele>1230.6</ele>
        <time>2021-10-09 12:52:34</time>
      </trkpt>
      <trkpt lat="40.53748" lon="-2.05654">
        <ele>1230.8</ele>
        <time>2021-10-09 12:52:35</time>
      </trkpt>
      <trkpt lat="40.53748" lon="-2.05654">
        <ele>1230.8</ele>
        <time>2021-10-09 12:52:36</time>
      </trkpt>
      <trkpt lat="40.53747" lon="-2.05654">
        <ele>1230.8</ele>
        <time>2021-10-09 12:52:37</time>
      </trkpt>
      <trkpt lat="40.53745" lon="-2.05653">
        <ele>1231</ele>
        <time>2021-10-09 12:52:38</time>
      </trkpt>
      <trkpt lat="40.53744" lon="-2.05652">
        <ele>1231</ele>
        <time>2021-10-09 12:52:39</time>
      </trkpt>
      <trkpt lat="40.53743" lon="-2.0565">
        <ele>1231</ele>
        <time>2021-10-09 12:52:40</time>
      </trkpt>
      <trkpt lat="40.53742" lon="-2.05647">
        <ele>1231.4</ele>
        <time>2021-10-09 12:52:41</time>
      </trkpt>
      <trkpt lat="40.53742" lon="-2.05644">
        <ele>1231.4</ele>
        <time>2021-10-09 12:52:42</time>
      </trkpt>
      <trkpt lat="40.53741" lon="-2.05641">
        <ele>1231.6</ele>
        <time>2021-10-09 12:52:43</time>
      </trkpt>
      <trkpt lat="40.5374" lon="-2.05638">
        <ele>1231.8</ele>
        <time>2021-10-09 12:52:44</time>
      </trkpt>
      <trkpt lat="40.53738" lon="-2.05636">
        <ele>1231.8</ele>
        <time>2021-10-09 12:52:45</time>
      </trkpt>
      <trkpt lat="40.53737" lon="-2.05634">
        <ele>1231.8</ele>
        <time>2021-10-09 12:52:46</time>
      </trkpt>
      <trkpt lat="40.53735" lon="-2.05633">
        <ele>1232.2</ele>
        <time>2021-10-09 12:52:47</time>
      </trkpt>
      <trkpt lat="40.53733" lon="-2.05632">
        <ele>1232.6</ele>
        <time>2021-10-09 12:52:48</time>
      </trkpt>
      <trkpt lat="40.5373" lon="-2.05631">
        <ele>1232.8</ele>
        <time>2021-10-09 12:52:49</time>
      </trkpt>
      <trkpt lat="40.53728" lon="-2.0563">
        <ele>1233</ele>
        <time>2021-10-09 12:52:50</time>
      </trkpt>
      <trkpt lat="40.53726" lon="-2.0563">
        <ele>1233.2</ele>
        <time>2021-10-09 12:52:51</time>
      </trkpt>
      <trkpt lat="40.53724" lon="-2.0563">
        <ele>1233.6</ele>
        <time>2021-10-09 12:52:52</time>
      </trkpt>
      <trkpt lat="40.53721" lon="-2.0563">
        <ele>1233.8</ele>
        <time>2021-10-09 12:52:59</time>
      </trkpt>
      <trkpt lat="40.53719" lon="-2.0563">
        <ele>1234</ele>
        <time>2021-10-09 12:53:00</time>
      </trkpt>
      <trkpt lat="40.53717" lon="-2.0563">
        <ele>1234.2</ele>
        <time>2021-10-09 12:53:01</time>
      </trkpt>
      <trkpt lat="40.53715" lon="-2.0563">
        <ele>1234.4</ele>
        <time>2021-10-09 12:53:02</time>
      </trkpt>
      <trkpt lat="40.53713" lon="-2.0563">
        <ele>1234.4</ele>
        <time>2021-10-09 12:53:03</time>
      </trkpt>
      <trkpt lat="40.53712" lon="-2.0563">
        <ele>1234.8</ele>
        <time>2021-10-09 12:53:04</time>
      </trkpt>
      <trkpt lat="40.5371" lon="-2.0563">
        <ele>1234.8</ele>
        <time>2021-10-09 12:53:05</time>
      </trkpt>
      <trkpt lat="40.53708" lon="-2.0563">
        <ele>1235.2</ele>
        <time>2021-10-09 12:53:06</time>
      </trkpt>
      <trkpt lat="40.53706" lon="-2.05629">
        <ele>1235.4</ele>
        <time>2021-10-09 12:53:07</time>
      </trkpt>
      <trkpt lat="40.53704" lon="-2.05629">
        <ele>1235.6</ele>
        <time>2021-10-09 12:53:08</time>
      </trkpt>
      <trkpt lat="40.53703" lon="-2.05628">
        <ele>1236</ele>
        <time>2021-10-09 12:53:09</time>
      </trkpt>
      <trkpt lat="40.53701" lon="-2.05628">
        <ele>1236.2</ele>
        <time>2021-10-09 12:53:10</time>
      </trkpt>
      <trkpt lat="40.53699" lon="-2.05627">
        <ele>1236.4</ele>
        <time>2021-10-09 12:53:11</time>
      </trkpt>
      <trkpt lat="40.53698" lon="-2.05626">
        <ele>1236.8</ele>
        <time>2021-10-09 12:53:12</time>
      </trkpt>
      <trkpt lat="40.53696" lon="-2.05625">
        <ele>1237</ele>
        <time>2021-10-09 12:53:13</time>
      </trkpt>
      <trkpt lat="40.53694" lon="-2.05625">
        <ele>1237.4</ele>
        <time>2021-10-09 12:53:14</time>
      </trkpt>
      <trkpt lat="40.53692" lon="-2.05624">
        <ele>1237.4</ele>
        <time>2021-10-09 12:53:15</time>
      </trkpt>
      <trkpt lat="40.53691" lon="-2.05623">
        <ele>1237.8</ele>
        <time>2021-10-09 12:53:16</time>
      </trkpt>
      <trkpt lat="40.53689" lon="-2.05621">
        <ele>1238</ele>
        <time>2021-10-09 12:53:17</time>
      </trkpt>
      <trkpt lat="40.53687" lon="-2.0562">
        <ele>1238.2</ele>
        <time>2021-10-09 12:53:18</time>
      </trkpt>
      <trkpt lat="40.53685" lon="-2.05619">
        <ele>1238.6</ele>
        <time>2021-10-09 12:53:19</time>
      </trkpt>
      <trkpt lat="40.53684" lon="-2.05619">
        <ele>1238.8</ele>
        <time>2021-10-09 12:53:20</time>
      </trkpt>
      <trkpt lat="40.53682" lon="-2.05618">
        <ele>1239</ele>
        <time>2021-10-09 12:53:21</time>
      </trkpt>
      <trkpt lat="40.5368" lon="-2.05618">
        <ele>1239.2</ele>
        <time>2021-10-09 12:53:22</time>
      </trkpt>
      <trkpt lat="40.53678" lon="-2.05618">
        <ele>1239.2</ele>
        <time>2021-10-09 12:53:23</time>
      </trkpt>
      <trkpt lat="40.53676" lon="-2.05617">
        <ele>1239.6</ele>
        <time>2021-10-09 12:53:24</time>
      </trkpt>
      <trkpt lat="40.53674" lon="-2.05617">
        <ele>1239.6</ele>
        <time>2021-10-09 12:53:25</time>
      </trkpt>
      <trkpt lat="40.53672" lon="-2.05616">
        <ele>1240</ele>
        <time>2021-10-09 12:53:26</time>
      </trkpt>
      <trkpt lat="40.5367" lon="-2.05616">
        <ele>1240.2</ele>
        <time>2021-10-09 12:53:27</time>
      </trkpt>
      <trkpt lat="40.53669" lon="-2.05616">
        <ele>1240.6</ele>
        <time>2021-10-09 12:53:28</time>
      </trkpt>
      <trkpt lat="40.53667" lon="-2.05616">
        <ele>1240.6</ele>
        <time>2021-10-09 12:53:29</time>
      </trkpt>
      <trkpt lat="40.53665" lon="-2.05616">
        <ele>1240.8</ele>
        <time>2021-10-09 12:53:30</time>
      </trkpt>
      <trkpt lat="40.53663" lon="-2.05616">
        <ele>1241</ele>
        <time>2021-10-09 12:53:31</time>
      </trkpt>
      <trkpt lat="40.53662" lon="-2.05616">
        <ele>1241.2</ele>
        <time>2021-10-09 12:53:32</time>
      </trkpt>
      <trkpt lat="40.5366" lon="-2.05616">
        <ele>1241.6</ele>
        <time>2021-10-09 12:53:33</time>
      </trkpt>
      <trkpt lat="40.53658" lon="-2.05616">
        <ele>1241.8</ele>
        <time>2021-10-09 12:53:34</time>
      </trkpt>
      <trkpt lat="40.53656" lon="-2.05616">
        <ele>1241.8</ele>
        <time>2021-10-09 12:53:35</time>
      </trkpt>
      <trkpt lat="40.53653" lon="-2.05616">
        <ele>1242.2</ele>
        <time>2021-10-09 12:53:36</time>
      </trkpt>
      <trkpt lat="40.53652" lon="-2.05616">
        <ele>1242.2</ele>
        <time>2021-10-09 12:53:37</time>
      </trkpt>
      <trkpt lat="40.5365" lon="-2.05617">
        <ele>1242.4</ele>
        <time>2021-10-09 12:53:38</time>
      </trkpt>
      <trkpt lat="40.53648" lon="-2.05617">
        <ele>1242.6</ele>
        <time>2021-10-09 12:53:39</time>
      </trkpt>
      <trkpt lat="40.53646" lon="-2.05617">
        <ele>1243</ele>
        <time>2021-10-09 12:53:40</time>
      </trkpt>
      <trkpt lat="40.53644" lon="-2.05618">
        <ele>1243.2</ele>
        <time>2021-10-09 12:53:41</time>
      </trkpt>
      <trkpt lat="40.53642" lon="-2.05617">
        <ele>1243.4</ele>
        <time>2021-10-09 12:53:42</time>
      </trkpt>
      <trkpt lat="40.53641" lon="-2.05617">
        <ele>1243.4</ele>
        <time>2021-10-09 12:53:43</time>
      </trkpt>
      <trkpt lat="40.53639" lon="-2.05616">
        <ele>1243.8</ele>
        <time>2021-10-09 12:53:44</time>
      </trkpt>
      <trkpt lat="40.53637" lon="-2.05616">
        <ele>1244</ele>
        <time>2021-10-09 12:53:45</time>
      </trkpt>
      <trkpt lat="40.53635" lon="-2.05615">
        <ele>1244.2</ele>
        <time>2021-10-09 12:53:46</time>
      </trkpt>
      <trkpt lat="40.53634" lon="-2.05615">
        <ele>1244.6</ele>
        <time>2021-10-09 12:53:47</time>
      </trkpt>
      <trkpt lat="40.53633" lon="-2.05614">
        <ele>1244.8</ele>
        <time>2021-10-09 12:53:48</time>
      </trkpt>
      <trkpt lat="40.53631" lon="-2.05613">
        <ele>1244.8</ele>
        <time>2021-10-09 12:53:49</time>
      </trkpt>
      <trkpt lat="40.53629" lon="-2.05611">
        <ele>1245.2</ele>
        <time>2021-10-09 12:53:50</time>
      </trkpt>
      <trkpt lat="40.53628" lon="-2.0561">
        <ele>1245.2</ele>
        <time>2021-10-09 12:53:51</time>
      </trkpt>
      <trkpt lat="40.53626" lon="-2.05609">
        <ele>1245.4</ele>
        <time>2021-10-09 12:53:52</time>
      </trkpt>
      <trkpt lat="40.53624" lon="-2.05607">
        <ele>1245.6</ele>
        <time>2021-10-09 12:53:53</time>
      </trkpt>
      <trkpt lat="40.53623" lon="-2.05606">
        <ele>1245.6</ele>
        <time>2021-10-09 12:53:54</time>
      </trkpt>
      <trkpt lat="40.53621" lon="-2.05606">
        <ele>1245.8</ele>
        <time>2021-10-09 12:53:55</time>
      </trkpt>
      <trkpt lat="40.53619" lon="-2.05605">
        <ele>1246.2</ele>
        <time>2021-10-09 12:53:56</time>
      </trkpt>
      <trkpt lat="40.53618" lon="-2.05604">
        <ele>1246.4</ele>
        <time>2021-10-09 12:53:57</time>
      </trkpt>
      <trkpt lat="40.53616" lon="-2.05603">
        <ele>1246.6</ele>
        <time>2021-10-09 12:53:58</time>
      </trkpt>
      <trkpt lat="40.53615" lon="-2.05602">
        <ele>1246.6</ele>
        <time>2021-10-09 12:53:59</time>
      </trkpt>
      <trkpt lat="40.53613" lon="-2.056">
        <ele>1247</ele>
        <time>2021-10-09 12:54:00</time>
      </trkpt>
      <trkpt lat="40.53611" lon="-2.05599">
        <ele>1247.2</ele>
        <time>2021-10-09 12:54:01</time>
      </trkpt>
      <trkpt lat="40.5361" lon="-2.05598">
        <ele>1247.4</ele>
        <time>2021-10-09 12:54:02</time>
      </trkpt>
      <trkpt lat="40.53608" lon="-2.05597">
        <ele>1247.6</ele>
        <time>2021-10-09 12:54:03</time>
      </trkpt>
      <trkpt lat="40.53606" lon="-2.05597">
        <ele>1247.8</ele>
        <time>2021-10-09 12:54:04</time>
      </trkpt>
      <trkpt lat="40.53604" lon="-2.05596">
        <ele>1248.2</ele>
        <time>2021-10-09 12:54:05</time>
      </trkpt>
      <trkpt lat="40.53603" lon="-2.05595">
        <ele>1248.2</ele>
        <time>2021-10-09 12:54:06</time>
      </trkpt>
      <trkpt lat="40.53601" lon="-2.05594">
        <ele>1248.4</ele>
        <time>2021-10-09 12:54:07</time>
      </trkpt>
      <trkpt lat="40.53599" lon="-2.05593">
        <ele>1248.4</ele>
        <time>2021-10-09 12:54:08</time>
      </trkpt>
      <trkpt lat="40.53597" lon="-2.05592">
        <ele>1248.8</ele>
        <time>2021-10-09 12:54:09</time>
      </trkpt>
      <trkpt lat="40.53596" lon="-2.05591">
        <ele>1248.8</ele>
        <time>2021-10-09 12:54:10</time>
      </trkpt>
      <trkpt lat="40.53594" lon="-2.0559">
        <ele>1249.2</ele>
        <time>2021-10-09 12:54:11</time>
      </trkpt>
      <trkpt lat="40.53592" lon="-2.05589">
        <ele>1249.2</ele>
        <time>2021-10-09 12:54:12</time>
      </trkpt>
      <trkpt lat="40.5359" lon="-2.05588">
        <ele>1249.6</ele>
        <time>2021-10-09 12:54:13</time>
      </trkpt>
      <trkpt lat="40.53589" lon="-2.05587">
        <ele>1249.8</ele>
        <time>2021-10-09 12:54:14</time>
      </trkpt>
      <trkpt lat="40.53588" lon="-2.05585">
        <ele>1250</ele>
        <time>2021-10-09 12:54:15</time>
      </trkpt>
      <trkpt lat="40.53587" lon="-2.05584">
        <ele>1250.2</ele>
        <time>2021-10-09 12:54:16</time>
      </trkpt>
      <trkpt lat="40.53585" lon="-2.05584">
        <ele>1250.6</ele>
        <time>2021-10-09 12:54:17</time>
      </trkpt>
      <trkpt lat="40.53583" lon="-2.05583">
        <ele>1250.6</ele>
        <time>2021-10-09 12:54:18</time>
      </trkpt>
      <trkpt lat="40.53582" lon="-2.05583">
        <ele>1251</ele>
        <time>2021-10-09 12:54:19</time>
      </trkpt>
      <trkpt lat="40.5358" lon="-2.05582">
        <ele>1251</ele>
        <time>2021-10-09 12:54:20</time>
      </trkpt>
      <trkpt lat="40.53578" lon="-2.05581">
        <ele>1251.4</ele>
        <time>2021-10-09 12:54:21</time>
      </trkpt>
      <trkpt lat="40.53576" lon="-2.05581">
        <ele>1251.6</ele>
        <time>2021-10-09 12:54:22</time>
      </trkpt>
      <trkpt lat="40.53574" lon="-2.0558">
        <ele>1251.8</ele>
        <time>2021-10-09 12:54:23</time>
      </trkpt>
      <trkpt lat="40.53573" lon="-2.0558">
        <ele>1251.8</ele>
        <time>2021-10-09 12:54:24</time>
      </trkpt>
      <trkpt lat="40.53571" lon="-2.0558">
        <ele>1252.4</ele>
        <time>2021-10-09 12:54:25</time>
      </trkpt>
      <trkpt lat="40.53569" lon="-2.0558">
        <ele>1252.4</ele>
        <time>2021-10-09 12:54:26</time>
      </trkpt>
      <trkpt lat="40.53567" lon="-2.05579">
        <ele>1252.6</ele>
        <time>2021-10-09 12:54:27</time>
      </trkpt>
      <trkpt lat="40.53565" lon="-2.05579">
        <ele>1252.6</ele>
        <time>2021-10-09 12:54:28</time>
      </trkpt>
      <trkpt lat="40.53563" lon="-2.05579">
        <ele>1253</ele>
        <time>2021-10-09 12:54:29</time>
      </trkpt>
      <trkpt lat="40.53562" lon="-2.05579">
        <ele>1253</ele>
        <time>2021-10-09 12:54:30</time>
      </trkpt>
      <trkpt lat="40.5356" lon="-2.05579">
        <ele>1253.4</ele>
        <time>2021-10-09 12:54:31</time>
      </trkpt>
      <trkpt lat="40.53558" lon="-2.05579">
        <ele>1253.6</ele>
        <time>2021-10-09 12:54:32</time>
      </trkpt>
      <trkpt lat="40.53556" lon="-2.05579">
        <ele>1253.6</ele>
        <time>2021-10-09 12:54:33</time>
      </trkpt>
      <trkpt lat="40.53555" lon="-2.05578">
        <ele>1253.8</ele>
        <time>2021-10-09 12:54:34</time>
      </trkpt>
      <trkpt lat="40.53553" lon="-2.05578">
        <ele>1253.8</ele>
        <time>2021-10-09 12:54:35</time>
      </trkpt>
      <trkpt lat="40.53551" lon="-2.05577">
        <ele>1254.2</ele>
        <time>2021-10-09 12:54:36</time>
      </trkpt>
      <trkpt lat="40.5355" lon="-2.05577">
        <ele>1254.2</ele>
        <time>2021-10-09 12:54:37</time>
      </trkpt>
      <trkpt lat="40.53548" lon="-2.05577">
        <ele>1254.6</ele>
        <time>2021-10-09 12:54:38</time>
      </trkpt>
      <trkpt lat="40.53547" lon="-2.05577">
        <ele>1254.6</ele>
        <time>2021-10-09 12:54:39</time>
      </trkpt>
      <trkpt lat="40.53545" lon="-2.05577">
        <ele>1254.8</ele>
        <time>2021-10-09 12:54:40</time>
      </trkpt>
      <trkpt lat="40.53543" lon="-2.05577">
        <ele>1254.8</ele>
        <time>2021-10-09 12:54:41</time>
      </trkpt>
      <trkpt lat="40.53541" lon="-2.05578">
        <ele>1255.2</ele>
        <time>2021-10-09 12:54:42</time>
      </trkpt>
      <trkpt lat="40.5354" lon="-2.05579">
        <ele>1255.2</ele>
        <time>2021-10-09 12:54:43</time>
      </trkpt>
      <trkpt lat="40.53538" lon="-2.0558">
        <ele>1255.4</ele>
        <time>2021-10-09 12:54:44</time>
      </trkpt>
      <trkpt lat="40.53536" lon="-2.05581">
        <ele>1255.4</ele>
        <time>2021-10-09 12:54:45</time>
      </trkpt>
      <trkpt lat="40.53535" lon="-2.05582">
        <ele>1255.8</ele>
        <time>2021-10-09 12:54:46</time>
      </trkpt>
      <trkpt lat="40.53533" lon="-2.05582">
        <ele>1255.8</ele>
        <time>2021-10-09 12:54:47</time>
      </trkpt>
      <trkpt lat="40.53532" lon="-2.05583">
        <ele>1256.2</ele>
        <time>2021-10-09 12:54:48</time>
      </trkpt>
      <trkpt lat="40.5353" lon="-2.05585">
        <ele>1256.2</ele>
        <time>2021-10-09 12:54:49</time>
      </trkpt>
      <trkpt lat="40.53528" lon="-2.05586">
        <ele>1256.4</ele>
        <time>2021-10-09 12:54:50</time>
      </trkpt>
      <trkpt lat="40.53527" lon="-2.05588">
        <ele>1256.4</ele>
        <time>2021-10-09 12:54:51</time>
      </trkpt>
      <trkpt lat="40.53525" lon="-2.0559">
        <ele>1256.8</ele>
        <time>2021-10-09 12:54:52</time>
      </trkpt>
      <trkpt lat="40.53524" lon="-2.05592">
        <ele>1256.8</ele>
        <time>2021-10-09 12:54:53</time>
      </trkpt>
      <trkpt lat="40.53523" lon="-2.05595">
        <ele>1257</ele>
        <time>2021-10-09 12:54:54</time>
      </trkpt>
      <trkpt lat="40.53521" lon="-2.05597">
        <ele>1257</ele>
        <time>2021-10-09 12:54:55</time>
      </trkpt>
      <trkpt lat="40.5352" lon="-2.05599">
        <ele>1257.4</ele>
        <time>2021-10-09 12:54:56</time>
      </trkpt>
      <trkpt lat="40.53519" lon="-2.056">
        <ele>1257.4</ele>
        <time>2021-10-09 12:54:57</time>
      </trkpt>
      <trkpt lat="40.53517" lon="-2.05601">
        <ele>1258</ele>
        <time>2021-10-09 12:54:58</time>
      </trkpt>
      <trkpt lat="40.53515" lon="-2.05602">
        <ele>1258</ele>
        <time>2021-10-09 12:54:59</time>
      </trkpt>
      <trkpt lat="40.53513" lon="-2.05603">
        <ele>1258.2</ele>
        <time>2021-10-09 12:55:00</time>
      </trkpt>
      <trkpt lat="40.53511" lon="-2.05605">
        <ele>1258.2</ele>
        <time>2021-10-09 12:55:01</time>
      </trkpt>
      <trkpt lat="40.5351" lon="-2.05606">
        <ele>1258.2</ele>
        <time>2021-10-09 12:55:02</time>
      </trkpt>
      <trkpt lat="40.53508" lon="-2.05607">
        <ele>1258.4</ele>
        <time>2021-10-09 12:55:03</time>
      </trkpt>
      <trkpt lat="40.53505" lon="-2.05608">
        <ele>1258.4</ele>
        <time>2021-10-09 12:55:04</time>
      </trkpt>
      <trkpt lat="40.53503" lon="-2.05608">
        <ele>1258.4</ele>
        <time>2021-10-09 12:55:05</time>
      </trkpt>
      <trkpt lat="40.53501" lon="-2.05608">
        <ele>1258.6</ele>
        <time>2021-10-09 12:55:06</time>
      </trkpt>
      <trkpt lat="40.53498" lon="-2.05607">
        <ele>1258.6</ele>
        <time>2021-10-09 12:55:07</time>
      </trkpt>
      <trkpt lat="40.53496" lon="-2.05606">
        <ele>1259</ele>
        <time>2021-10-09 12:55:08</time>
      </trkpt>
      <trkpt lat="40.53494" lon="-2.05603">
        <ele>1259</ele>
        <time>2021-10-09 12:55:09</time>
      </trkpt>
      <trkpt lat="40.53492" lon="-2.056">
        <ele>1259</ele>
        <time>2021-10-09 12:55:10</time>
      </trkpt>
      <trkpt lat="40.53492" lon="-2.05596">
        <ele>1259</ele>
        <time>2021-10-09 12:55:11</time>
      </trkpt>
      <trkpt lat="40.53491" lon="-2.05593">
        <ele>1259.4</ele>
        <time>2021-10-09 12:55:12</time>
      </trkpt>
      <trkpt lat="40.53492" lon="-2.0559">
        <ele>1259.4</ele>
        <time>2021-10-09 12:55:13</time>
      </trkpt>
      <trkpt lat="40.53492" lon="-2.05587">
        <ele>1259.6</ele>
        <time>2021-10-09 12:55:14</time>
      </trkpt>
      <trkpt lat="40.53492" lon="-2.05585">
        <ele>1259.6</ele>
        <time>2021-10-09 12:55:15</time>
      </trkpt>
      <trkpt lat="40.53493" lon="-2.05583">
        <ele>1259</ele>
        <time>2021-10-09 12:55:16</time>
      </trkpt>
      <trkpt lat="40.53493" lon="-2.0558">
        <ele>1259.4</ele>
        <time>2021-10-09 12:55:17</time>
      </trkpt>
      <trkpt lat="40.53494" lon="-2.05578">
        <ele>1259.8</ele>
        <time>2021-10-09 12:55:18</time>
      </trkpt>
      <trkpt lat="40.53494" lon="-2.05576">
        <ele>1260.4</ele>
        <time>2021-10-09 12:55:19</time>
      </trkpt>
      <trkpt lat="40.53495" lon="-2.05574">
        <ele>1260.6</ele>
        <time>2021-10-09 12:55:20</time>
      </trkpt>
      <trkpt lat="40.53495" lon="-2.05571">
        <ele>1260.4</ele>
        <time>2021-10-09 12:55:21</time>
      </trkpt>
      <trkpt lat="40.53494" lon="-2.05569">
        <ele>1260.4</ele>
        <time>2021-10-09 12:55:22</time>
      </trkpt>
      <trkpt lat="40.53493" lon="-2.05567">
        <ele>1261</ele>
        <time>2021-10-09 12:55:23</time>
      </trkpt>
      <trkpt lat="40.53493" lon="-2.05564">
        <ele>1261.4</ele>
        <time>2021-10-09 12:55:24</time>
      </trkpt>
      <trkpt lat="40.53492" lon="-2.05562">
        <ele>1261.8</ele>
        <time>2021-10-09 12:55:25</time>
      </trkpt>
      <trkpt lat="40.53491" lon="-2.0556">
        <ele>1262</ele>
        <time>2021-10-09 12:55:26</time>
      </trkpt>
      <trkpt lat="40.5349" lon="-2.05558">
        <ele>1262.2</ele>
        <time>2021-10-09 12:55:27</time>
      </trkpt>
      <trkpt lat="40.53489" lon="-2.05556">
        <ele>1262.4</ele>
        <time>2021-10-09 12:55:28</time>
      </trkpt>
      <trkpt lat="40.53488" lon="-2.05555">
        <ele>1262.6</ele>
        <time>2021-10-09 12:55:29</time>
      </trkpt>
      <trkpt lat="40.53487" lon="-2.05553">
        <ele>1263</ele>
        <time>2021-10-09 12:55:30</time>
      </trkpt>
      <trkpt lat="40.53486" lon="-2.05551">
        <ele>1263.2</ele>
        <time>2021-10-09 12:55:31</time>
      </trkpt>
      <trkpt lat="40.53485" lon="-2.0555">
        <ele>1263.4</ele>
        <time>2021-10-09 12:55:32</time>
      </trkpt>
      <trkpt lat="40.53484" lon="-2.05548">
        <ele>1263.8</ele>
        <time>2021-10-09 12:55:33</time>
      </trkpt>
      <trkpt lat="40.53483" lon="-2.05547">
        <ele>1263.8</ele>
        <time>2021-10-09 12:55:34</time>
      </trkpt>
      <trkpt lat="40.53482" lon="-2.05546">
        <ele>1264</ele>
        <time>2021-10-09 12:55:35</time>
      </trkpt>
      <trkpt lat="40.53481" lon="-2.05544">
        <ele>1264</ele>
        <time>2021-10-09 12:55:36</time>
      </trkpt>
      <trkpt lat="40.5348" lon="-2.05543">
        <ele>1264.4</ele>
        <time>2021-10-09 12:55:37</time>
      </trkpt>
      <trkpt lat="40.53479" lon="-2.05541">
        <ele>1264.4</ele>
        <time>2021-10-09 12:55:38</time>
      </trkpt>
      <trkpt lat="40.53478" lon="-2.05539">
        <ele>1264.6</ele>
        <time>2021-10-09 12:55:39</time>
      </trkpt>
      <trkpt lat="40.53477" lon="-2.05537">
        <ele>1264.8</ele>
        <time>2021-10-09 12:55:40</time>
      </trkpt>
      <trkpt lat="40.53476" lon="-2.05536">
        <ele>1265.2</ele>
        <time>2021-10-09 12:55:41</time>
      </trkpt>
      <trkpt lat="40.53475" lon="-2.05534">
        <ele>1265.4</ele>
        <time>2021-10-09 12:55:42</time>
      </trkpt>
      <trkpt lat="40.53474" lon="-2.05532">
        <ele>1265.4</ele>
        <time>2021-10-09 12:55:43</time>
      </trkpt>
      <trkpt lat="40.53473" lon="-2.0553">
        <ele>1265.6</ele>
        <time>2021-10-09 12:55:44</time>
      </trkpt>
      <trkpt lat="40.53472" lon="-2.05528">
        <ele>1265.8</ele>
        <time>2021-10-09 12:55:45</time>
      </trkpt>
      <trkpt lat="40.53471" lon="-2.05526">
        <ele>1266.2</ele>
        <time>2021-10-09 12:55:46</time>
      </trkpt>
      <trkpt lat="40.5347" lon="-2.05524">
        <ele>1266.4</ele>
        <time>2021-10-09 12:55:47</time>
      </trkpt>
      <trkpt lat="40.53469" lon="-2.05522">
        <ele>1266.4</ele>
        <time>2021-10-09 12:55:48</time>
      </trkpt>
      <trkpt lat="40.53469" lon="-2.0552">
        <ele>1266.6</ele>
        <time>2021-10-09 12:55:49</time>
      </trkpt>
      <trkpt lat="40.53468" lon="-2.05518">
        <ele>1266.6</ele>
        <time>2021-10-09 12:55:50</time>
      </trkpt>
      <trkpt lat="40.53467" lon="-2.05516">
        <ele>1267.2</ele>
        <time>2021-10-09 12:55:51</time>
      </trkpt>
      <trkpt lat="40.53466" lon="-2.05514">
        <ele>1267.4</ele>
        <time>2021-10-09 12:55:52</time>
      </trkpt>
      <trkpt lat="40.53465" lon="-2.05512">
        <ele>1267.6</ele>
        <time>2021-10-09 12:55:53</time>
      </trkpt>
      <trkpt lat="40.53465" lon="-2.0551">
        <ele>1267.8</ele>
        <time>2021-10-09 12:55:54</time>
      </trkpt>
      <trkpt lat="40.53464" lon="-2.05509">
        <ele>1267.8</ele>
        <time>2021-10-09 12:55:55</time>
      </trkpt>
      <trkpt lat="40.53464" lon="-2.05507">
        <ele>1268.2</ele>
        <time>2021-10-09 12:55:56</time>
      </trkpt>
      <trkpt lat="40.53464" lon="-2.05505">
        <ele>1268.4</ele>
        <time>2021-10-09 12:55:57</time>
      </trkpt>
      <trkpt lat="40.53463" lon="-2.05503">
        <ele>1268.4</ele>
        <time>2021-10-09 12:55:58</time>
      </trkpt>
      <trkpt lat="40.53462" lon="-2.05501">
        <ele>1268.8</ele>
        <time>2021-10-09 12:55:59</time>
      </trkpt>
      <trkpt lat="40.53462" lon="-2.05499">
        <ele>1268.8</ele>
        <time>2021-10-09 12:56:00</time>
      </trkpt>
      <trkpt lat="40.53461" lon="-2.05497">
        <ele>1269.2</ele>
        <time>2021-10-09 12:56:01</time>
      </trkpt>
      <trkpt lat="40.5346" lon="-2.05495">
        <ele>1269.4</ele>
        <time>2021-10-09 12:56:02</time>
      </trkpt>
      <trkpt lat="40.53459" lon="-2.05494">
        <ele>1269.4</ele>
        <time>2021-10-09 12:56:03</time>
      </trkpt>
      <trkpt lat="40.53458" lon="-2.05491">
        <ele>1269.6</ele>
        <time>2021-10-09 12:56:04</time>
      </trkpt>
      <trkpt lat="40.53458" lon="-2.05489">
        <ele>1269.6</ele>
        <time>2021-10-09 12:56:05</time>
      </trkpt>
      <trkpt lat="40.53457" lon="-2.05487">
        <ele>1270</ele>
        <time>2021-10-09 12:56:06</time>
      </trkpt>
      <trkpt lat="40.53457" lon="-2.05484">
        <ele>1270.2</ele>
        <time>2021-10-09 12:56:07</time>
      </trkpt>
      <trkpt lat="40.53456" lon="-2.05483">
        <ele>1270.2</ele>
        <time>2021-10-09 12:56:08</time>
      </trkpt>
      <trkpt lat="40.53456" lon="-2.05481">
        <ele>1270.6</ele>
        <time>2021-10-09 12:56:09</time>
      </trkpt>
      <trkpt lat="40.53456" lon="-2.05479">
        <ele>1270.8</ele>
        <time>2021-10-09 12:56:10</time>
      </trkpt>
      <trkpt lat="40.53456" lon="-2.05477">
        <ele>1271</ele>
        <time>2021-10-09 12:56:11</time>
      </trkpt>
      <trkpt lat="40.53455" lon="-2.05474">
        <ele>1271.2</ele>
        <time>2021-10-09 12:56:12</time>
      </trkpt>
      <trkpt lat="40.53455" lon="-2.05472">
        <ele>1271.6</ele>
        <time>2021-10-09 12:56:13</time>
      </trkpt>
      <trkpt lat="40.53454" lon="-2.0547">
        <ele>1271.8</ele>
        <time>2021-10-09 12:56:14</time>
      </trkpt>
      <trkpt lat="40.53453" lon="-2.05468">
        <ele>1271.8</ele>
        <time>2021-10-09 12:56:15</time>
      </trkpt>
      <trkpt lat="40.53453" lon="-2.05466">
        <ele>1272.2</ele>
        <time>2021-10-09 12:56:16</time>
      </trkpt>
      <trkpt lat="40.53452" lon="-2.05464">
        <ele>1272.2</ele>
        <time>2021-10-09 12:56:17</time>
      </trkpt>
      <trkpt lat="40.53451" lon="-2.05462">
        <ele>1272.4</ele>
        <time>2021-10-09 12:56:18</time>
      </trkpt>
      <trkpt lat="40.5345" lon="-2.05461">
        <ele>1272.6</ele>
        <time>2021-10-09 12:56:19</time>
      </trkpt>
      <trkpt lat="40.53449" lon="-2.05459">
        <ele>1272.6</ele>
        <time>2021-10-09 12:56:20</time>
      </trkpt>
      <trkpt lat="40.53448" lon="-2.05458">
        <ele>1273</ele>
        <time>2021-10-09 12:56:21</time>
      </trkpt>
      <trkpt lat="40.53448" lon="-2.05456">
        <ele>1273.2</ele>
        <time>2021-10-09 12:56:22</time>
      </trkpt>
      <trkpt lat="40.53447" lon="-2.05454">
        <ele>1273.4</ele>
        <time>2021-10-09 12:56:23</time>
      </trkpt>
      <trkpt lat="40.53446" lon="-2.05452">
        <ele>1273.6</ele>
        <time>2021-10-09 12:56:24</time>
      </trkpt>
      <trkpt lat="40.53445" lon="-2.0545">
        <ele>1273.6</ele>
        <time>2021-10-09 12:56:25</time>
      </trkpt>
      <trkpt lat="40.53444" lon="-2.05449">
        <ele>1274</ele>
        <time>2021-10-09 12:56:26</time>
      </trkpt>
      <trkpt lat="40.53443" lon="-2.05447">
        <ele>1274</ele>
        <time>2021-10-09 12:56:27</time>
      </trkpt>
      <trkpt lat="40.53442" lon="-2.05445">
        <ele>1274.4</ele>
        <time>2021-10-09 12:56:28</time>
      </trkpt>
      <trkpt lat="40.53441" lon="-2.05443">
        <ele>1274.4</ele>
        <time>2021-10-09 12:56:29</time>
      </trkpt>
      <trkpt lat="40.53441" lon="-2.0544">
        <ele>1274.8</ele>
        <time>2021-10-09 12:56:30</time>
      </trkpt>
      <trkpt lat="40.53441" lon="-2.05438">
        <ele>1274.8</ele>
        <time>2021-10-09 12:56:31</time>
      </trkpt>
      <trkpt lat="40.5344" lon="-2.05435">
        <ele>1275</ele>
        <time>2021-10-09 12:56:32</time>
      </trkpt>
      <trkpt lat="40.5344" lon="-2.05431">
        <ele>1275.2</ele>
        <time>2021-10-09 12:56:33</time>
      </trkpt>
      <trkpt lat="40.5344" lon="-2.05429">
        <ele>1275.2</ele>
        <time>2021-10-09 12:56:34</time>
      </trkpt>
      <trkpt lat="40.53439" lon="-2.05427">
        <ele>1275.6</ele>
        <time>2021-10-09 12:56:35</time>
      </trkpt>
      <trkpt lat="40.53439" lon="-2.05425">
        <ele>1276</ele>
        <time>2021-10-09 12:56:36</time>
      </trkpt>
      <trkpt lat="40.53439" lon="-2.05422">
        <ele>1276.2</ele>
        <time>2021-10-09 12:56:37</time>
      </trkpt>
      <trkpt lat="40.53439" lon="-2.0542">
        <ele>1276.4</ele>
        <time>2021-10-09 12:56:38</time>
      </trkpt>
      <trkpt lat="40.53439" lon="-2.05416">
        <ele>1276.6</ele>
        <time>2021-10-09 12:56:39</time>
      </trkpt>
      <trkpt lat="40.53438" lon="-2.05413">
        <ele>1277</ele>
        <time>2021-10-09 12:56:40</time>
      </trkpt>
      <trkpt lat="40.53437" lon="-2.05411">
        <ele>1277.2</ele>
        <time>2021-10-09 12:56:41</time>
      </trkpt>
      <trkpt lat="40.53436" lon="-2.05409">
        <ele>1277.6</ele>
        <time>2021-10-09 12:56:42</time>
      </trkpt>
      <trkpt lat="40.53435" lon="-2.05408">
        <ele>1277.8</ele>
        <time>2021-10-09 12:56:43</time>
      </trkpt>
      <trkpt lat="40.53433" lon="-2.05406">
        <ele>1278</ele>
        <time>2021-10-09 12:56:44</time>
      </trkpt>
      <trkpt lat="40.53432" lon="-2.05404">
        <ele>1278</ele>
        <time>2021-10-09 12:56:45</time>
      </trkpt>
      <trkpt lat="40.53431" lon="-2.05403">
        <ele>1278.4</ele>
        <time>2021-10-09 12:56:46</time>
      </trkpt>
      <trkpt lat="40.53429" lon="-2.05402">
        <ele>1278.4</ele>
        <time>2021-10-09 12:56:47</time>
      </trkpt>
      <trkpt lat="40.53428" lon="-2.05401">
        <ele>1278.8</ele>
        <time>2021-10-09 12:56:48</time>
      </trkpt>
      <trkpt lat="40.53426" lon="-2.054">
        <ele>1278.8</ele>
        <time>2021-10-09 12:56:49</time>
      </trkpt>
      <trkpt lat="40.53424" lon="-2.05401">
        <ele>1279.2</ele>
        <time>2021-10-09 12:56:50</time>
      </trkpt>
      <trkpt lat="40.53423" lon="-2.05402">
        <ele>1279.2</ele>
        <time>2021-10-09 12:56:51</time>
      </trkpt>
      <trkpt lat="40.53421" lon="-2.05403">
        <ele>1279.6</ele>
        <time>2021-10-09 12:56:52</time>
      </trkpt>
      <trkpt lat="40.53419" lon="-2.05405">
        <ele>1279.6</ele>
        <time>2021-10-09 12:56:53</time>
      </trkpt>
      <trkpt lat="40.53418" lon="-2.05406">
        <ele>1280</ele>
        <time>2021-10-09 12:56:54</time>
      </trkpt>
      <trkpt lat="40.53416" lon="-2.05408">
        <ele>1280</ele>
        <time>2021-10-09 12:56:55</time>
      </trkpt>
      <trkpt lat="40.53415" lon="-2.05411">
        <ele>1280.2</ele>
        <time>2021-10-09 12:56:56</time>
      </trkpt>
      <trkpt lat="40.53413" lon="-2.05413">
        <ele>1280.2</ele>
        <time>2021-10-09 12:56:57</time>
      </trkpt>
      <trkpt lat="40.53411" lon="-2.05415">
        <ele>1280.6</ele>
        <time>2021-10-09 12:56:58</time>
      </trkpt>
      <trkpt lat="40.5341" lon="-2.05417">
        <ele>1280.6</ele>
        <time>2021-10-09 12:56:59</time>
      </trkpt>
      <trkpt lat="40.53409" lon="-2.05419">
        <ele>1280.8</ele>
        <time>2021-10-09 12:57:00</time>
      </trkpt>
      <trkpt lat="40.53407" lon="-2.05421">
        <ele>1280.8</ele>
        <time>2021-10-09 12:57:01</time>
      </trkpt>
      <trkpt lat="40.53406" lon="-2.05423">
        <ele>1281.2</ele>
        <time>2021-10-09 12:57:02</time>
      </trkpt>
      <trkpt lat="40.53405" lon="-2.05425">
        <ele>1281.2</ele>
        <time>2021-10-09 12:57:03</time>
      </trkpt>
      <trkpt lat="40.53403" lon="-2.05427">
        <ele>1281.4</ele>
        <time>2021-10-09 12:57:04</time>
      </trkpt>
      <trkpt lat="40.53402" lon="-2.05429">
        <ele>1281.4</ele>
        <time>2021-10-09 12:57:05</time>
      </trkpt>
      <trkpt lat="40.534" lon="-2.05431">
        <ele>1281.6</ele>
        <time>2021-10-09 12:57:06</time>
      </trkpt>
      <trkpt lat="40.53398" lon="-2.05433">
        <ele>1281.6</ele>
        <time>2021-10-09 12:57:07</time>
      </trkpt>
      <trkpt lat="40.53397" lon="-2.05435">
        <ele>1282</ele>
        <time>2021-10-09 12:57:08</time>
      </trkpt>
      <trkpt lat="40.53396" lon="-2.05436">
        <ele>1282</ele>
        <time>2021-10-09 12:57:09</time>
      </trkpt>
      <trkpt lat="40.53395" lon="-2.05438">
        <ele>1282.4</ele>
        <time>2021-10-09 12:57:10</time>
      </trkpt>
      <trkpt lat="40.53394" lon="-2.05439">
        <ele>1282.4</ele>
        <time>2021-10-09 12:57:11</time>
      </trkpt>
      <trkpt lat="40.53392" lon="-2.0544">
        <ele>1282.8</ele>
        <time>2021-10-09 12:57:12</time>
      </trkpt>
      <trkpt lat="40.53391" lon="-2.05442">
        <ele>1282.8</ele>
        <time>2021-10-09 12:57:13</time>
      </trkpt>
      <trkpt lat="40.53391" lon="-2.05443">
        <ele>1283.2</ele>
        <time>2021-10-09 12:57:14</time>
      </trkpt>
      <trkpt lat="40.5339" lon="-2.05444">
        <ele>1283.4</ele>
        <time>2021-10-09 12:57:15</time>
      </trkpt>
      <trkpt lat="40.53389" lon="-2.05445">
        <ele>1283.8</ele>
        <time>2021-10-09 12:57:16</time>
      </trkpt>
      <trkpt lat="40.53388" lon="-2.05445">
        <ele>1284</ele>
        <time>2021-10-09 12:57:17</time>
      </trkpt>
      <trkpt lat="40.53386" lon="-2.05446">
        <ele>1284.4</ele>
        <time>2021-10-09 12:57:18</time>
      </trkpt>
      <trkpt lat="40.53385" lon="-2.05448">
        <ele>1284.6</ele>
        <time>2021-10-09 12:57:19</time>
      </trkpt>
      <trkpt lat="40.53383" lon="-2.05449">
        <ele>1285</ele>
        <time>2021-10-09 12:57:20</time>
      </trkpt>
      <trkpt lat="40.53381" lon="-2.0545">
        <ele>1285.2</ele>
        <time>2021-10-09 12:57:21</time>
      </trkpt>
      <trkpt lat="40.5338" lon="-2.0545">
        <ele>1285.4</ele>
        <time>2021-10-09 12:57:22</time>
      </trkpt>
      <trkpt lat="40.53378" lon="-2.0545">
        <ele>1285.4</ele>
        <time>2021-10-09 12:57:23</time>
      </trkpt>
      <trkpt lat="40.53376" lon="-2.05451">
        <ele>1285.8</ele>
        <time>2021-10-09 12:57:24</time>
      </trkpt>
      <trkpt lat="40.53375" lon="-2.0545">
        <ele>1285.8</ele>
        <time>2021-10-09 12:57:25</time>
      </trkpt>
      <trkpt lat="40.53373" lon="-2.0545">
        <ele>1286.2</ele>
        <time>2021-10-09 12:57:26</time>
      </trkpt>
      <trkpt lat="40.53371" lon="-2.0545">
        <ele>1286.2</ele>
        <time>2021-10-09 12:57:27</time>
      </trkpt>
      <trkpt lat="40.5337" lon="-2.05449">
        <ele>1286.6</ele>
        <time>2021-10-09 12:57:28</time>
      </trkpt>
      <trkpt lat="40.53368" lon="-2.05448">
        <ele>1286.8</ele>
        <time>2021-10-09 12:57:29</time>
      </trkpt>
      <trkpt lat="40.53367" lon="-2.05447">
        <ele>1286.8</ele>
        <time>2021-10-09 12:57:30</time>
      </trkpt>
      <trkpt lat="40.53365" lon="-2.05446">
        <ele>1287.2</ele>
        <time>2021-10-09 12:57:31</time>
      </trkpt>
      <trkpt lat="40.53363" lon="-2.05445">
        <ele>1287.2</ele>
        <time>2021-10-09 12:57:32</time>
      </trkpt>
      <trkpt lat="40.53362" lon="-2.05444">
        <ele>1287.4</ele>
        <time>2021-10-09 12:57:33</time>
      </trkpt>
      <trkpt lat="40.53361" lon="-2.05442">
        <ele>1287.4</ele>
        <time>2021-10-09 12:57:34</time>
      </trkpt>
      <trkpt lat="40.5336" lon="-2.05441">
        <ele>1287.6</ele>
        <time>2021-10-09 12:57:35</time>
      </trkpt>
      <trkpt lat="40.53359" lon="-2.0544">
        <ele>1288</ele>
        <time>2021-10-09 12:57:36</time>
      </trkpt>
      <trkpt lat="40.53357" lon="-2.05438">
        <ele>1288</ele>
        <time>2021-10-09 12:57:37</time>
      </trkpt>
      <trkpt lat="40.53356" lon="-2.05436">
        <ele>1288.2</ele>
        <time>2021-10-09 12:57:38</time>
      </trkpt>
      <trkpt lat="40.53355" lon="-2.05435">
        <ele>1288.2</ele>
        <time>2021-10-09 12:57:39</time>
      </trkpt>
      <trkpt lat="40.53354" lon="-2.05434">
        <ele>1288.6</ele>
        <time>2021-10-09 12:57:40</time>
      </trkpt>
      <trkpt lat="40.53353" lon="-2.05433">
        <ele>1288.6</ele>
        <time>2021-10-09 12:57:41</time>
      </trkpt>
      <trkpt lat="40.53352" lon="-2.05432">
        <ele>1289</ele>
        <time>2021-10-09 12:57:42</time>
      </trkpt>
      <trkpt lat="40.5335" lon="-2.0543">
        <ele>1289</ele>
        <time>2021-10-09 12:57:43</time>
      </trkpt>
      <trkpt lat="40.53349" lon="-2.05428">
        <ele>1289.2</ele>
        <time>2021-10-09 12:57:44</time>
      </trkpt>
      <trkpt lat="40.53348" lon="-2.05426">
        <ele>1289.2</ele>
        <time>2021-10-09 12:57:45</time>
      </trkpt>
      <trkpt lat="40.53347" lon="-2.05423">
        <ele>1289.6</ele>
        <time>2021-10-09 12:57:46</time>
      </trkpt>
      <trkpt lat="40.53346" lon="-2.05421">
        <ele>1289.6</ele>
        <time>2021-10-09 12:57:47</time>
      </trkpt>
      <trkpt lat="40.53344" lon="-2.05419">
        <ele>1290</ele>
        <time>2021-10-09 12:57:48</time>
      </trkpt>
      <trkpt lat="40.53343" lon="-2.05417">
        <ele>1290</ele>
        <time>2021-10-09 12:57:49</time>
      </trkpt>
      <trkpt lat="40.53343" lon="-2.05416">
        <ele>1290.2</ele>
        <time>2021-10-09 12:57:50</time>
      </trkpt>
      <trkpt lat="40.53342" lon="-2.05414">
        <ele>1290.2</ele>
        <time>2021-10-09 12:57:51</time>
      </trkpt>
      <trkpt lat="40.53341" lon="-2.05412">
        <ele>1290.6</ele>
        <time>2021-10-09 12:57:52</time>
      </trkpt>
      <trkpt lat="40.53339" lon="-2.05411">
        <ele>1290.8</ele>
        <time>2021-10-09 12:57:53</time>
      </trkpt>
      <trkpt lat="40.53337" lon="-2.0541">
        <ele>1290.8</ele>
        <time>2021-10-09 12:57:54</time>
      </trkpt>
      <trkpt lat="40.53336" lon="-2.05408">
        <ele>1291.2</ele>
        <time>2021-10-09 12:57:55</time>
      </trkpt>
      <trkpt lat="40.53334" lon="-2.05406">
        <ele>1291.2</ele>
        <time>2021-10-09 12:57:56</time>
      </trkpt>
      <trkpt lat="40.53333" lon="-2.05404">
        <ele>1291.6</ele>
        <time>2021-10-09 12:57:57</time>
      </trkpt>
      <trkpt lat="40.53332" lon="-2.05402">
        <ele>1291.6</ele>
        <time>2021-10-09 12:57:58</time>
      </trkpt>
      <trkpt lat="40.53331" lon="-2.054">
        <ele>1291.8</ele>
        <time>2021-10-09 12:57:59</time>
      </trkpt>
      <trkpt lat="40.5333" lon="-2.05398">
        <ele>1292</ele>
        <time>2021-10-09 12:58:00</time>
      </trkpt>
      <trkpt lat="40.53329" lon="-2.05396">
        <ele>1292</ele>
        <time>2021-10-09 12:58:01</time>
      </trkpt>
      <trkpt lat="40.53328" lon="-2.05394">
        <ele>1292.4</ele>
        <time>2021-10-09 12:58:02</time>
      </trkpt>
      <trkpt lat="40.53327" lon="-2.05392">
        <ele>1292.4</ele>
        <time>2021-10-09 12:58:03</time>
      </trkpt>
      <trkpt lat="40.53327" lon="-2.0539">
        <ele>1292.8</ele>
        <time>2021-10-09 12:58:04</time>
      </trkpt>
      <trkpt lat="40.53326" lon="-2.05388">
        <ele>1292.8</ele>
        <time>2021-10-09 12:58:05</time>
      </trkpt>
      <trkpt lat="40.53327" lon="-2.05385">
        <ele>1293</ele>
        <time>2021-10-09 12:58:06</time>
      </trkpt>
      <trkpt lat="40.53327" lon="-2.05383">
        <ele>1293.2</ele>
        <time>2021-10-09 12:58:07</time>
      </trkpt>
      <trkpt lat="40.53326" lon="-2.05381">
        <ele>1293.2</ele>
        <time>2021-10-09 12:58:08</time>
      </trkpt>
      <trkpt lat="40.53326" lon="-2.05379">
        <ele>1293.6</ele>
        <time>2021-10-09 12:58:09</time>
      </trkpt>
      <trkpt lat="40.53326" lon="-2.05376">
        <ele>1293.6</ele>
        <time>2021-10-09 12:58:10</time>
      </trkpt>
      <trkpt lat="40.53326" lon="-2.05374">
        <ele>1293.8</ele>
        <time>2021-10-09 12:58:11</time>
      </trkpt>
      <trkpt lat="40.53326" lon="-2.05371">
        <ele>1293.8</ele>
        <time>2021-10-09 12:58:12</time>
      </trkpt>
      <trkpt lat="40.53326" lon="-2.05369">
        <ele>1294</ele>
        <time>2021-10-09 12:58:13</time>
      </trkpt>
      <trkpt lat="40.53326" lon="-2.05367">
        <ele>1294</ele>
        <time>2021-10-09 12:58:14</time>
      </trkpt>
      <trkpt lat="40.53326" lon="-2.05364">
        <ele>1294</ele>
        <time>2021-10-09 12:58:15</time>
      </trkpt>
      <trkpt lat="40.53326" lon="-2.05362">
        <ele>1294.4</ele>
        <time>2021-10-09 12:58:16</time>
      </trkpt>
      <trkpt lat="40.53326" lon="-2.05359">
        <ele>1294.4</ele>
        <time>2021-10-09 12:58:17</time>
      </trkpt>
      <trkpt lat="40.53326" lon="-2.05357">
        <ele>1294.8</ele>
        <time>2021-10-09 12:58:18</time>
      </trkpt>
      <trkpt lat="40.53326" lon="-2.05354">
        <ele>1295</ele>
        <time>2021-10-09 12:58:19</time>
      </trkpt>
      <trkpt lat="40.53327" lon="-2.05352">
        <ele>1295.2</ele>
        <time>2021-10-09 12:58:20</time>
      </trkpt>
      <trkpt lat="40.53327" lon="-2.0535">
        <ele>1295.2</ele>
        <time>2021-10-09 12:58:21</time>
      </trkpt>
      <trkpt lat="40.53327" lon="-2.05347">
        <ele>1295.6</ele>
        <time>2021-10-09 12:58:22</time>
      </trkpt>
      <trkpt lat="40.53327" lon="-2.05345">
        <ele>1295.8</ele>
        <time>2021-10-09 12:58:23</time>
      </trkpt>
      <trkpt lat="40.53327" lon="-2.05342">
        <ele>1296</ele>
        <time>2021-10-09 12:58:24</time>
      </trkpt>
      <trkpt lat="40.53328" lon="-2.0534">
        <ele>1296.2</ele>
        <time>2021-10-09 12:58:25</time>
      </trkpt>
      <trkpt lat="40.53328" lon="-2.05338">
        <ele>1296.4</ele>
        <time>2021-10-09 12:58:26</time>
      </trkpt>
      <trkpt lat="40.53329" lon="-2.05335">
        <ele>1296.4</ele>
        <time>2021-10-09 12:58:27</time>
      </trkpt>
      <trkpt lat="40.53328" lon="-2.05333">
        <ele>1296.8</ele>
        <time>2021-10-09 12:58:28</time>
      </trkpt>
      <trkpt lat="40.53327" lon="-2.0533">
        <ele>1297</ele>
        <time>2021-10-09 12:58:29</time>
      </trkpt>
      <trkpt lat="40.53327" lon="-2.05328">
        <ele>1297.2</ele>
        <time>2021-10-09 12:58:30</time>
      </trkpt>
      <trkpt lat="40.53326" lon="-2.05326">
        <ele>1297.2</ele>
        <time>2021-10-09 12:58:31</time>
      </trkpt>
      <trkpt lat="40.53326" lon="-2.05323">
        <ele>1297.4</ele>
        <time>2021-10-09 12:58:32</time>
      </trkpt>
      <trkpt lat="40.53325" lon="-2.05321">
        <ele>1297.8</ele>
        <time>2021-10-09 12:58:33</time>
      </trkpt>
      <trkpt lat="40.53325" lon="-2.05318">
        <ele>1298</ele>
        <time>2021-10-09 12:58:34</time>
      </trkpt>
      <trkpt lat="40.53324" lon="-2.05316">
        <ele>1296.6</ele>
        <time>2021-10-09 12:58:35</time>
      </trkpt>
      <trkpt lat="40.53323" lon="-2.05313">
        <ele>1297.2</ele>
        <time>2021-10-09 12:58:36</time>
      </trkpt>
      <trkpt lat="40.53323" lon="-2.05311">
        <ele>1297.6</ele>
        <time>2021-10-09 12:58:37</time>
      </trkpt>
      <trkpt lat="40.53323" lon="-2.05309">
        <ele>1298</ele>
        <time>2021-10-09 12:58:38</time>
      </trkpt>
      <trkpt lat="40.53322" lon="-2.05307">
        <ele>1298.6</ele>
        <time>2021-10-09 12:58:39</time>
      </trkpt>
      <trkpt lat="40.53322" lon="-2.05305">
        <ele>1298.8</ele>
        <time>2021-10-09 12:58:40</time>
      </trkpt>
      <trkpt lat="40.53322" lon="-2.05303">
        <ele>1299.2</ele>
        <time>2021-10-09 12:58:41</time>
      </trkpt>
      <trkpt lat="40.53321" lon="-2.05301">
        <ele>1299.4</ele>
        <time>2021-10-09 12:58:42</time>
      </trkpt>
      <trkpt lat="40.53321" lon="-2.05299">
        <ele>1299.6</ele>
        <time>2021-10-09 12:58:43</time>
      </trkpt>
      <trkpt lat="40.5332" lon="-2.05297">
        <ele>1300</ele>
        <time>2021-10-09 12:58:44</time>
      </trkpt>
      <trkpt lat="40.53319" lon="-2.05295">
        <ele>1300.2</ele>
        <time>2021-10-09 12:58:45</time>
      </trkpt>
      <trkpt lat="40.53319" lon="-2.05294">
        <ele>1300.4</ele>
        <time>2021-10-09 12:58:46</time>
      </trkpt>
      <trkpt lat="40.53318" lon="-2.05292">
        <ele>1300.6</ele>
        <time>2021-10-09 12:58:47</time>
      </trkpt>
      <trkpt lat="40.53317" lon="-2.0529">
        <ele>1300.8</ele>
        <time>2021-10-09 12:58:48</time>
      </trkpt>
      <trkpt lat="40.53316" lon="-2.05288">
        <ele>1300.8</ele>
        <time>2021-10-09 12:58:49</time>
      </trkpt>
      <trkpt lat="40.53315" lon="-2.05286">
        <ele>1301.2</ele>
        <time>2021-10-09 12:58:50</time>
      </trkpt>
      <trkpt lat="40.53314" lon="-2.05284">
        <ele>1301.4</ele>
        <time>2021-10-09 12:58:51</time>
      </trkpt>
      <trkpt lat="40.53313" lon="-2.05282">
        <ele>1301.4</ele>
        <time>2021-10-09 12:58:52</time>
      </trkpt>
      <trkpt lat="40.53312" lon="-2.05281">
        <ele>1301.8</ele>
        <time>2021-10-09 12:58:53</time>
      </trkpt>
      <trkpt lat="40.53311" lon="-2.05278">
        <ele>1301.8</ele>
        <time>2021-10-09 12:58:54</time>
      </trkpt>
      <trkpt lat="40.5331" lon="-2.05276">
        <ele>1302.2</ele>
        <time>2021-10-09 12:58:55</time>
      </trkpt>
      <trkpt lat="40.53308" lon="-2.05274">
        <ele>1302.4</ele>
        <time>2021-10-09 12:58:56</time>
      </trkpt>
      <trkpt lat="40.53307" lon="-2.05272">
        <ele>1302.6</ele>
        <time>2021-10-09 12:58:57</time>
      </trkpt>
      <trkpt lat="40.53307" lon="-2.0527">
        <ele>1302.8</ele>
        <time>2021-10-09 12:58:58</time>
      </trkpt>
      <trkpt lat="40.53306" lon="-2.05269">
        <ele>1302.8</ele>
        <time>2021-10-09 12:58:59</time>
      </trkpt>
      <trkpt lat="40.53306" lon="-2.05266">
        <ele>1303.2</ele>
        <time>2021-10-09 12:59:00</time>
      </trkpt>
      <trkpt lat="40.53304" lon="-2.05263">
        <ele>1303.2</ele>
        <time>2021-10-09 12:59:01</time>
      </trkpt>
      <trkpt lat="40.53303" lon="-2.05261">
        <ele>1303.4</ele>
        <time>2021-10-09 12:59:02</time>
      </trkpt>
      <trkpt lat="40.53302" lon="-2.05258">
        <ele>1303.4</ele>
        <time>2021-10-09 12:59:03</time>
      </trkpt>
      <trkpt lat="40.53301" lon="-2.05256">
        <ele>1303.8</ele>
        <time>2021-10-09 12:59:04</time>
      </trkpt>
      <trkpt lat="40.533" lon="-2.05254">
        <ele>1304</ele>
        <time>2021-10-09 12:59:05</time>
      </trkpt>
      <trkpt lat="40.53299" lon="-2.05252">
        <ele>1304.4</ele>
        <time>2021-10-09 12:59:06</time>
      </trkpt>
      <trkpt lat="40.53298" lon="-2.05251">
        <ele>1304.6</ele>
        <time>2021-10-09 12:59:07</time>
      </trkpt>
      <trkpt lat="40.53297" lon="-2.05249">
        <ele>1304.6</ele>
        <time>2021-10-09 12:59:08</time>
      </trkpt>
      <trkpt lat="40.53295" lon="-2.05247">
        <ele>1305</ele>
        <time>2021-10-09 12:59:09</time>
      </trkpt>
      <trkpt lat="40.53294" lon="-2.05246">
        <ele>1305.2</ele>
        <time>2021-10-09 12:59:10</time>
      </trkpt>
      <trkpt lat="40.53293" lon="-2.05244">
        <ele>1305.2</ele>
        <time>2021-10-09 12:59:11</time>
      </trkpt>
      <trkpt lat="40.53292" lon="-2.05242">
        <ele>1305.6</ele>
        <time>2021-10-09 12:59:12</time>
      </trkpt>
      <trkpt lat="40.53291" lon="-2.0524">
        <ele>1305.8</ele>
        <time>2021-10-09 12:59:13</time>
      </trkpt>
      <trkpt lat="40.5329" lon="-2.05239">
        <ele>1306</ele>
        <time>2021-10-09 12:59:14</time>
      </trkpt>
      <trkpt lat="40.53288" lon="-2.05238">
        <ele>1306</ele>
        <time>2021-10-09 12:59:15</time>
      </trkpt>
      <trkpt lat="40.53286" lon="-2.05237">
        <ele>1306.2</ele>
        <time>2021-10-09 12:59:16</time>
      </trkpt>
      <trkpt lat="40.53285" lon="-2.05236">
        <ele>1306.2</ele>
        <time>2021-10-09 12:59:17</time>
      </trkpt>
      <trkpt lat="40.53284" lon="-2.05235">
        <ele>1306.6</ele>
        <time>2021-10-09 12:59:18</time>
      </trkpt>
      <trkpt lat="40.53282" lon="-2.05234">
        <ele>1306.6</ele>
        <time>2021-10-09 12:59:19</time>
      </trkpt>
      <trkpt lat="40.53281" lon="-2.05233">
        <ele>1307</ele>
        <time>2021-10-09 12:59:20</time>
      </trkpt>
      <trkpt lat="40.5328" lon="-2.05232">
        <ele>1307.2</ele>
        <time>2021-10-09 12:59:21</time>
      </trkpt>
      <trkpt lat="40.53278" lon="-2.05231">
        <ele>1307.2</ele>
        <time>2021-10-09 12:59:22</time>
      </trkpt>
      <trkpt lat="40.53276" lon="-2.0523">
        <ele>1307.4</ele>
        <time>2021-10-09 12:59:23</time>
      </trkpt>
      <trkpt lat="40.53275" lon="-2.05229">
        <ele>1307.4</ele>
        <time>2021-10-09 12:59:24</time>
      </trkpt>
      <trkpt lat="40.53273" lon="-2.05229">
        <ele>1308</ele>
        <time>2021-10-09 12:59:25</time>
      </trkpt>
      <trkpt lat="40.53271" lon="-2.05228">
        <ele>1308.2</ele>
        <time>2021-10-09 12:59:26</time>
      </trkpt>
      <trkpt lat="40.53269" lon="-2.05227">
        <ele>1308.4</ele>
        <time>2021-10-09 12:59:27</time>
      </trkpt>
      <trkpt lat="40.53267" lon="-2.05226">
        <ele>1308.4</ele>
        <time>2021-10-09 12:59:28</time>
      </trkpt>
      <trkpt lat="40.53266" lon="-2.05225">
        <ele>1308.8</ele>
        <time>2021-10-09 12:59:29</time>
      </trkpt>
      <trkpt lat="40.53264" lon="-2.05224">
        <ele>1309</ele>
        <time>2021-10-09 12:59:30</time>
      </trkpt>
      <trkpt lat="40.53262" lon="-2.05223">
        <ele>1309.2</ele>
        <time>2021-10-09 12:59:31</time>
      </trkpt>
      <trkpt lat="40.5326" lon="-2.05221">
        <ele>1309.2</ele>
        <time>2021-10-09 12:59:32</time>
      </trkpt>
      <trkpt lat="40.53259" lon="-2.0522">
        <ele>1309.4</ele>
        <time>2021-10-09 12:59:33</time>
      </trkpt>
      <trkpt lat="40.53257" lon="-2.05219">
        <ele>1309.4</ele>
        <time>2021-10-09 12:59:34</time>
      </trkpt>
      <trkpt lat="40.53255" lon="-2.05218">
        <ele>1309.8</ele>
        <time>2021-10-09 12:59:35</time>
      </trkpt>
      <trkpt lat="40.53254" lon="-2.05217">
        <ele>1310</ele>
        <time>2021-10-09 12:59:36</time>
      </trkpt>
      <trkpt lat="40.53252" lon="-2.05216">
        <ele>1310.2</ele>
        <time>2021-10-09 12:59:37</time>
      </trkpt>
      <trkpt lat="40.53251" lon="-2.05215">
        <ele>1310.2</ele>
        <time>2021-10-09 12:59:38</time>
      </trkpt>
      <trkpt lat="40.53249" lon="-2.05214">
        <ele>1310.6</ele>
        <time>2021-10-09 12:59:39</time>
      </trkpt>
      <trkpt lat="40.53247" lon="-2.05213">
        <ele>1310.6</ele>
        <time>2021-10-09 12:59:40</time>
      </trkpt>
      <trkpt lat="40.53246" lon="-2.05211">
        <ele>1311</ele>
        <time>2021-10-09 12:59:41</time>
      </trkpt>
      <trkpt lat="40.53244" lon="-2.0521">
        <ele>1311</ele>
        <time>2021-10-09 12:59:42</time>
      </trkpt>
      <trkpt lat="40.53242" lon="-2.05208">
        <ele>1311.2</ele>
        <time>2021-10-09 12:59:43</time>
      </trkpt>
      <trkpt lat="40.53241" lon="-2.05207">
        <ele>1311.2</ele>
        <time>2021-10-09 12:59:44</time>
      </trkpt>
      <trkpt lat="40.53239" lon="-2.05205">
        <ele>1311.4</ele>
        <time>2021-10-09 12:59:45</time>
      </trkpt>
      <trkpt lat="40.53237" lon="-2.05204">
        <ele>1311.4</ele>
        <time>2021-10-09 12:59:46</time>
      </trkpt>
      <trkpt lat="40.53235" lon="-2.05203">
        <ele>1311.6</ele>
        <time>2021-10-09 12:59:47</time>
      </trkpt>
      <trkpt lat="40.53233" lon="-2.05202">
        <ele>1311.6</ele>
        <time>2021-10-09 12:59:48</time>
      </trkpt>
      <trkpt lat="40.53231" lon="-2.05201">
        <ele>1311.6</ele>
        <time>2021-10-09 12:59:49</time>
      </trkpt>
      <trkpt lat="40.53228" lon="-2.05199">
        <ele>1311.8</ele>
        <time>2021-10-09 12:59:50</time>
      </trkpt>
      <trkpt lat="40.53226" lon="-2.05198">
        <ele>1311.8</ele>
        <time>2021-10-09 12:59:51</time>
      </trkpt>
      <trkpt lat="40.53224" lon="-2.05196">
        <ele>1311.8</ele>
        <time>2021-10-09 12:59:52</time>
      </trkpt>
      <trkpt lat="40.53221" lon="-2.05195">
        <ele>1311.8</ele>
        <time>2021-10-09 12:59:53</time>
      </trkpt>
      <trkpt lat="40.53218" lon="-2.05194">
        <ele>1311.8</ele>
        <time>2021-10-09 12:59:54</time>
      </trkpt>
      <trkpt lat="40.53215" lon="-2.05193">
        <ele>1311.8</ele>
        <time>2021-10-09 12:59:55</time>
      </trkpt>
      <trkpt lat="40.53212" lon="-2.05192">
        <ele>1312.2</ele>
        <time>2021-10-09 12:59:56</time>
      </trkpt>
      <trkpt lat="40.53209" lon="-2.05191">
        <ele>1312.2</ele>
        <time>2021-10-09 12:59:57</time>
      </trkpt>
      <trkpt lat="40.53206" lon="-2.0519">
        <ele>1312.2</ele>
        <time>2021-10-09 12:59:58</time>
      </trkpt>
      <trkpt lat="40.53203" lon="-2.05189">
        <ele>1312.2</ele>
        <time>2021-10-09 12:59:59</time>
      </trkpt>
      <trkpt lat="40.53199" lon="-2.05187">
        <ele>1312.2</ele>
        <time>2021-10-09 13:00:00</time>
      </trkpt>
      <trkpt lat="40.53196" lon="-2.05186">
        <ele>1312.2</ele>
        <time>2021-10-09 13:00:01</time>
      </trkpt>
      <trkpt lat="40.53192" lon="-2.05184">
        <ele>1312.2</ele>
        <time>2021-10-09 13:00:02</time>
      </trkpt>
      <trkpt lat="40.53189" lon="-2.05183">
        <ele>1312.4</ele>
        <time>2021-10-09 13:00:03</time>
      </trkpt>
      <trkpt lat="40.53186" lon="-2.05182">
        <ele>1312.4</ele>
        <time>2021-10-09 13:00:04</time>
      </trkpt>
      <trkpt lat="40.53183" lon="-2.05181">
        <ele>1312.6</ele>
        <time>2021-10-09 13:00:05</time>
      </trkpt>
      <trkpt lat="40.5318" lon="-2.05179">
        <ele>1312.6</ele>
        <time>2021-10-09 13:00:06</time>
      </trkpt>
      <trkpt lat="40.53177" lon="-2.05178">
        <ele>1313</ele>
        <time>2021-10-09 13:00:07</time>
      </trkpt>
      <trkpt lat="40.53174" lon="-2.05176">
        <ele>1313</ele>
        <time>2021-10-09 13:00:08</time>
      </trkpt>
      <trkpt lat="40.53172" lon="-2.05175">
        <ele>1313.4</ele>
        <time>2021-10-09 13:00:09</time>
      </trkpt>
      <trkpt lat="40.5317" lon="-2.05174">
        <ele>1313.6</ele>
        <time>2021-10-09 13:00:10</time>
      </trkpt>
      <trkpt lat="40.53168" lon="-2.05173">
        <ele>1313.8</ele>
        <time>2021-10-09 13:00:11</time>
      </trkpt>
      <trkpt lat="40.53166" lon="-2.05172">
        <ele>1313.8</ele>
        <time>2021-10-09 13:00:12</time>
      </trkpt>
      <trkpt lat="40.53164" lon="-2.0517">
        <ele>1314.2</ele>
        <time>2021-10-09 13:00:13</time>
      </trkpt>
      <trkpt lat="40.53162" lon="-2.05169">
        <ele>1314.4</ele>
        <time>2021-10-09 13:00:14</time>
      </trkpt>
      <trkpt lat="40.53159" lon="-2.05168">
        <ele>1314.8</ele>
        <time>2021-10-09 13:00:15</time>
      </trkpt>
      <trkpt lat="40.53157" lon="-2.05167">
        <ele>1314.8</ele>
        <time>2021-10-09 13:00:16</time>
      </trkpt>
      <trkpt lat="40.53155" lon="-2.05166">
        <ele>1315.2</ele>
        <time>2021-10-09 13:00:17</time>
      </trkpt>
      <trkpt lat="40.53153" lon="-2.05166">
        <ele>1315.4</ele>
        <time>2021-10-09 13:00:18</time>
      </trkpt>
      <trkpt lat="40.53151" lon="-2.05165">
        <ele>1315.6</ele>
        <time>2021-10-09 13:00:19</time>
      </trkpt>
      <trkpt lat="40.53149" lon="-2.05164">
        <ele>1315.8</ele>
        <time>2021-10-09 13:00:20</time>
      </trkpt>
      <trkpt lat="40.53147" lon="-2.05164">
        <ele>1315.8</ele>
        <time>2021-10-09 13:00:21</time>
      </trkpt>
      <trkpt lat="40.53145" lon="-2.05163">
        <ele>1316.2</ele>
        <time>2021-10-09 13:00:22</time>
      </trkpt>
      <trkpt lat="40.53142" lon="-2.05161">
        <ele>1316.2</ele>
        <time>2021-10-09 13:00:23</time>
      </trkpt>
      <trkpt lat="40.5314" lon="-2.05161">
        <ele>1316.6</ele>
        <time>2021-10-09 13:00:24</time>
      </trkpt>
      <trkpt lat="40.53138" lon="-2.0516">
        <ele>1316.6</ele>
        <time>2021-10-09 13:00:25</time>
      </trkpt>
      <trkpt lat="40.53136" lon="-2.05161">
        <ele>1317</ele>
        <time>2021-10-09 13:00:26</time>
      </trkpt>
      <trkpt lat="40.53133" lon="-2.05161">
        <ele>1317</ele>
        <time>2021-10-09 13:00:27</time>
      </trkpt>
      <trkpt lat="40.53131" lon="-2.05161">
        <ele>1317.2</ele>
        <time>2021-10-09 13:00:28</time>
      </trkpt>
      <trkpt lat="40.53128" lon="-2.05161">
        <ele>1317.2</ele>
        <time>2021-10-09 13:00:29</time>
      </trkpt>
      <trkpt lat="40.53126" lon="-2.0516">
        <ele>1317.6</ele>
        <time>2021-10-09 13:00:30</time>
      </trkpt>
      <trkpt lat="40.53124" lon="-2.0516">
        <ele>1317.6</ele>
        <time>2021-10-09 13:00:31</time>
      </trkpt>
      <trkpt lat="40.53121" lon="-2.0516">
        <ele>1317.8</ele>
        <time>2021-10-09 13:00:32</time>
      </trkpt>
      <trkpt lat="40.53119" lon="-2.05159">
        <ele>1317.8</ele>
        <time>2021-10-09 13:00:33</time>
      </trkpt>
      <trkpt lat="40.53117" lon="-2.05158">
        <ele>1318.2</ele>
        <time>2021-10-09 13:00:34</time>
      </trkpt>
      <trkpt lat="40.53115" lon="-2.05158">
        <ele>1318.2</ele>
        <time>2021-10-09 13:00:35</time>
      </trkpt>
      <trkpt lat="40.53113" lon="-2.05157">
        <ele>1318.6</ele>
        <time>2021-10-09 13:00:36</time>
      </trkpt>
      <trkpt lat="40.53111" lon="-2.05157">
        <ele>1318.6</ele>
        <time>2021-10-09 13:00:37</time>
      </trkpt>
      <trkpt lat="40.53108" lon="-2.05158">
        <ele>1318.8</ele>
        <time>2021-10-09 13:00:38</time>
      </trkpt>
      <trkpt lat="40.53106" lon="-2.05157">
        <ele>1318.8</ele>
        <time>2021-10-09 13:00:39</time>
      </trkpt>
      <trkpt lat="40.53103" lon="-2.05157">
        <ele>1319</ele>
        <time>2021-10-09 13:00:40</time>
      </trkpt>
      <trkpt lat="40.53101" lon="-2.05157">
        <ele>1319</ele>
        <time>2021-10-09 13:00:41</time>
      </trkpt>
      <trkpt lat="40.53098" lon="-2.05157">
        <ele>1319</ele>
        <time>2021-10-09 13:00:42</time>
      </trkpt>
      <trkpt lat="40.53096" lon="-2.05157">
        <ele>1319.4</ele>
        <time>2021-10-09 13:00:43</time>
      </trkpt>
      <trkpt lat="40.53093" lon="-2.05156">
        <ele>1319.4</ele>
        <time>2021-10-09 13:00:44</time>
      </trkpt>
      <trkpt lat="40.53091" lon="-2.05155">
        <ele>1319.4</ele>
        <time>2021-10-09 13:00:45</time>
      </trkpt>
      <trkpt lat="40.53088" lon="-2.05154">
        <ele>1319.6</ele>
        <time>2021-10-09 13:00:46</time>
      </trkpt>
      <trkpt lat="40.53086" lon="-2.05153">
        <ele>1319.6</ele>
        <time>2021-10-09 13:00:47</time>
      </trkpt>
      <trkpt lat="40.53083" lon="-2.05152">
        <ele>1319.8</ele>
        <time>2021-10-09 13:00:48</time>
      </trkpt>
      <trkpt lat="40.53081" lon="-2.05151">
        <ele>1319.8</ele>
        <time>2021-10-09 13:00:49</time>
      </trkpt>
      <trkpt lat="40.53078" lon="-2.0515">
        <ele>1320.2</ele>
        <time>2021-10-09 13:00:50</time>
      </trkpt>
      <trkpt lat="40.53076" lon="-2.05149">
        <ele>1320.2</ele>
        <time>2021-10-09 13:00:51</time>
      </trkpt>
      <trkpt lat="40.53074" lon="-2.05149">
        <ele>1320.4</ele>
        <time>2021-10-09 13:00:52</time>
      </trkpt>
      <trkpt lat="40.53072" lon="-2.05148">
        <ele>1320.4</ele>
        <time>2021-10-09 13:00:53</time>
      </trkpt>
      <trkpt lat="40.5307" lon="-2.05147">
        <ele>1320.8</ele>
        <time>2021-10-09 13:00:54</time>
      </trkpt>
      <trkpt lat="40.53068" lon="-2.05146">
        <ele>1321</ele>
        <time>2021-10-09 13:00:55</time>
      </trkpt>
      <trkpt lat="40.53066" lon="-2.05145">
        <ele>1321.2</ele>
        <time>2021-10-09 13:00:56</time>
      </trkpt>
      <trkpt lat="40.53065" lon="-2.05144">
        <ele>1321.4</ele>
        <time>2021-10-09 13:00:57</time>
      </trkpt>
      <trkpt lat="40.53062" lon="-2.05143">
        <ele>1321.4</ele>
        <time>2021-10-09 13:00:58</time>
      </trkpt>
      <trkpt lat="40.5306" lon="-2.05142">
        <ele>1321.8</ele>
        <time>2021-10-09 13:00:59</time>
      </trkpt>
      <trkpt lat="40.53058" lon="-2.05141">
        <ele>1322.2</ele>
        <time>2021-10-09 13:01:00</time>
      </trkpt>
      <trkpt lat="40.53056" lon="-2.05141">
        <ele>1322.4</ele>
        <time>2021-10-09 13:01:01</time>
      </trkpt>
      <trkpt lat="40.53053" lon="-2.0514">
        <ele>1322.8</ele>
        <time>2021-10-09 13:01:02</time>
      </trkpt>
      <trkpt lat="40.5305" lon="-2.0514">
        <ele>1323</ele>
        <time>2021-10-09 13:01:03</time>
      </trkpt>
      <trkpt lat="40.53048" lon="-2.0514">
        <ele>1323.4</ele>
        <time>2021-10-09 13:01:04</time>
      </trkpt>
      <trkpt lat="40.53046" lon="-2.05141">
        <ele>1323.6</ele>
        <time>2021-10-09 13:01:05</time>
      </trkpt>
      <trkpt lat="40.53044" lon="-2.05142">
        <ele>1323.8</ele>
        <time>2021-10-09 13:01:06</time>
      </trkpt>
      <trkpt lat="40.53042" lon="-2.05143">
        <ele>1324.2</ele>
        <time>2021-10-09 13:01:07</time>
      </trkpt>
      <trkpt lat="40.5304" lon="-2.05144">
        <ele>1324.6</ele>
        <time>2021-10-09 13:01:08</time>
      </trkpt>
      <trkpt lat="40.53037" lon="-2.05144">
        <ele>1324.8</ele>
        <time>2021-10-09 13:01:09</time>
      </trkpt>
      <trkpt lat="40.53035" lon="-2.05145">
        <ele>1325</ele>
        <time>2021-10-09 13:01:10</time>
      </trkpt>
      <trkpt lat="40.53033" lon="-2.05146">
        <ele>1325</ele>
        <time>2021-10-09 13:01:11</time>
      </trkpt>
      <trkpt lat="40.53031" lon="-2.05146">
        <ele>1325.4</ele>
        <time>2021-10-09 13:01:12</time>
      </trkpt>
      <trkpt lat="40.53028" lon="-2.05147">
        <ele>1325.4</ele>
        <time>2021-10-09 13:01:13</time>
      </trkpt>
      <trkpt lat="40.53026" lon="-2.05147">
        <ele>1325.6</ele>
        <time>2021-10-09 13:01:14</time>
      </trkpt>
      <trkpt lat="40.53023" lon="-2.05147">
        <ele>1325.6</ele>
        <time>2021-10-09 13:01:15</time>
      </trkpt>
      <trkpt lat="40.53021" lon="-2.05148">
        <ele>1326</ele>
        <time>2021-10-09 13:01:16</time>
      </trkpt>
      <trkpt lat="40.53018" lon="-2.05149">
        <ele>1326</ele>
        <time>2021-10-09 13:01:17</time>
      </trkpt>
      <trkpt lat="40.53015" lon="-2.0515">
        <ele>1326</ele>
        <time>2021-10-09 13:01:18</time>
      </trkpt>
      <trkpt lat="40.53012" lon="-2.05151">
        <ele>1326</ele>
        <time>2021-10-09 13:01:19</time>
      </trkpt>
      <trkpt lat="40.53008" lon="-2.05152">
        <ele>1326</ele>
        <time>2021-10-09 13:01:20</time>
      </trkpt>
      <trkpt lat="40.53004" lon="-2.05153">
        <ele>1326</ele>
        <time>2021-10-09 13:01:21</time>
      </trkpt>
      <trkpt lat="40.53" lon="-2.05155">
        <ele>1326</ele>
        <time>2021-10-09 13:01:22</time>
      </trkpt>
      <trkpt lat="40.52996" lon="-2.05157">
        <ele>1326</ele>
        <time>2021-10-09 13:01:23</time>
      </trkpt>
      <trkpt lat="40.52992" lon="-2.05158">
        <ele>1326</ele>
        <time>2021-10-09 13:01:24</time>
      </trkpt>
      <trkpt lat="40.52987" lon="-2.0516">
        <ele>1326</ele>
        <time>2021-10-09 13:01:25</time>
      </trkpt>
      <trkpt lat="40.52983" lon="-2.05162">
        <ele>1326</ele>
        <time>2021-10-09 13:01:26</time>
      </trkpt>
      <trkpt lat="40.52978" lon="-2.05163">
        <ele>1326</ele>
        <time>2021-10-09 13:01:27</time>
      </trkpt>
      <trkpt lat="40.52973" lon="-2.05165">
        <ele>1326</ele>
        <time>2021-10-09 13:01:28</time>
      </trkpt>
      <trkpt lat="40.52969" lon="-2.05166">
        <ele>1326</ele>
        <time>2021-10-09 13:01:29</time>
      </trkpt>
      <trkpt lat="40.52964" lon="-2.05166">
        <ele>1326</ele>
        <time>2021-10-09 13:01:30</time>
      </trkpt>
      <trkpt lat="40.52959" lon="-2.05166">
        <ele>1326</ele>
        <time>2021-10-09 13:01:31</time>
      </trkpt>
      <trkpt lat="40.52954" lon="-2.05167">
        <ele>1326</ele>
        <time>2021-10-09 13:01:32</time>
      </trkpt>
      <trkpt lat="40.52949" lon="-2.05167">
        <ele>1326</ele>
        <time>2021-10-09 13:01:33</time>
      </trkpt>
      <trkpt lat="40.52945" lon="-2.05167">
        <ele>1325.8</ele>
        <time>2021-10-09 13:01:34</time>
      </trkpt>
      <trkpt lat="40.5294" lon="-2.05167">
        <ele>1325.8</ele>
        <time>2021-10-09 13:01:35</time>
      </trkpt>
      <trkpt lat="40.52936" lon="-2.05167">
        <ele>1325.8</ele>
        <time>2021-10-09 13:01:36</time>
      </trkpt>
      <trkpt lat="40.52932" lon="-2.05166">
        <ele>1325.8</ele>
        <time>2021-10-09 13:01:37</time>
      </trkpt>
      <trkpt lat="40.52927" lon="-2.05165">
        <ele>1325.6</ele>
        <time>2021-10-09 13:01:38</time>
      </trkpt>
      <trkpt lat="40.52922" lon="-2.05164">
        <ele>1325.6</ele>
        <time>2021-10-09 13:01:39</time>
      </trkpt>
      <trkpt lat="40.52918" lon="-2.05164">
        <ele>1325.6</ele>
        <time>2021-10-09 13:01:40</time>
      </trkpt>
      <trkpt lat="40.52914" lon="-2.05163">
        <ele>1325.6</ele>
        <time>2021-10-09 13:01:41</time>
      </trkpt>
      <trkpt lat="40.5291" lon="-2.05161">
        <ele>1325.6</ele>
        <time>2021-10-09 13:01:42</time>
      </trkpt>
      <trkpt lat="40.52906" lon="-2.0516">
        <ele>1325.6</ele>
        <time>2021-10-09 13:01:43</time>
      </trkpt>
      <trkpt lat="40.52903" lon="-2.05159">
        <ele>1325.2</ele>
        <time>2021-10-09 13:01:44</time>
      </trkpt>
      <trkpt lat="40.52899" lon="-2.05157">
        <ele>1325.2</ele>
        <time>2021-10-09 13:01:45</time>
      </trkpt>
      <trkpt lat="40.52896" lon="-2.05155">
        <ele>1325.2</ele>
        <time>2021-10-09 13:01:46</time>
      </trkpt>
      <trkpt lat="40.52893" lon="-2.05154">
        <ele>1325.2</ele>
        <time>2021-10-09 13:01:47</time>
      </trkpt>
      <trkpt lat="40.52889" lon="-2.05153">
        <ele>1325.4</ele>
        <time>2021-10-09 13:01:48</time>
      </trkpt>
      <trkpt lat="40.52886" lon="-2.05152">
        <ele>1325.4</ele>
        <time>2021-10-09 13:01:49</time>
      </trkpt>
      <trkpt lat="40.52883" lon="-2.05151">
        <ele>1325.4</ele>
        <time>2021-10-09 13:01:50</time>
      </trkpt>
      <trkpt lat="40.52879" lon="-2.05151">
        <ele>1325.4</ele>
        <time>2021-10-09 13:01:51</time>
      </trkpt>
      <trkpt lat="40.52876" lon="-2.05151">
        <ele>1325.4</ele>
        <time>2021-10-09 13:01:52</time>
      </trkpt>
      <trkpt lat="40.52873" lon="-2.05151">
        <ele>1325.4</ele>
        <time>2021-10-09 13:01:53</time>
      </trkpt>
      <trkpt lat="40.52871" lon="-2.05151">
        <ele>1325.4</ele>
        <time>2021-10-09 13:01:54</time>
      </trkpt>
      <trkpt lat="40.52869" lon="-2.05152">
        <ele>1325.4</ele>
        <time>2021-10-09 13:01:55</time>
      </trkpt>
      <trkpt lat="40.52869" lon="-2.05152">
        <ele>1325.4</ele>
        <time>2021-10-09 13:01:56</time>
      </trkpt>
      <trkpt lat="40.5287" lon="-2.05152">
        <ele>1325.4</ele>
        <time>2021-10-09 13:01:57</time>
      </trkpt>
      <trkpt lat="40.5287" lon="-2.05152">
        <ele>1325.2</ele>
        <time>2021-10-09 13:01:58</time>
      </trkpt>
      <trkpt lat="40.5287" lon="-2.05152">
        <ele>1325.2</ele>
        <time>2021-10-09 13:01:59</time>
      </trkpt>
      <trkpt lat="40.52867" lon="-2.05154">
        <ele>1325.2</ele>
        <time>2021-10-09 13:02:00</time>
      </trkpt>
      <trkpt lat="40.52864" lon="-2.05155">
        <ele>1325</ele>
        <time>2021-10-09 13:02:01</time>
      </trkpt>
      <trkpt lat="40.52861" lon="-2.05158">
        <ele>1325</ele>
        <time>2021-10-09 13:02:02</time>
      </trkpt>
      <trkpt lat="40.52857" lon="-2.05161">
        <ele>1324.8</ele>
        <time>2021-10-09 13:02:03</time>
      </trkpt>
      <trkpt lat="40.52853" lon="-2.05165">
        <ele>1324.8</ele>
        <time>2021-10-09 13:02:04</time>
      </trkpt>
      <trkpt lat="40.52848" lon="-2.05167">
        <ele>1324.4</ele>
        <time>2021-10-09 13:02:05</time>
      </trkpt>
      <trkpt lat="40.52843" lon="-2.05169">
        <ele>1324.4</ele>
        <time>2021-10-09 13:02:06</time>
      </trkpt>
      <trkpt lat="40.52837" lon="-2.05171">
        <ele>1324.2</ele>
        <time>2021-10-09 13:02:07</time>
      </trkpt>
      <trkpt lat="40.52831" lon="-2.05174">
        <ele>1324</ele>
        <time>2021-10-09 13:02:08</time>
      </trkpt>
      <trkpt lat="40.52825" lon="-2.05175">
        <ele>1324</ele>
        <time>2021-10-09 13:02:09</time>
      </trkpt>
      <trkpt lat="40.52818" lon="-2.05177">
        <ele>1324</ele>
        <time>2021-10-09 13:02:10</time>
      </trkpt>
      <trkpt lat="40.52813" lon="-2.05179">
        <ele>1323.6</ele>
        <time>2021-10-09 13:02:11</time>
      </trkpt>
      <trkpt lat="40.52806" lon="-2.05179">
        <ele>1323.6</ele>
        <time>2021-10-09 13:02:12</time>
      </trkpt>
      <trkpt lat="40.52799" lon="-2.05179">
        <ele>1323.6</ele>
        <time>2021-10-09 13:02:13</time>
      </trkpt>
      <trkpt lat="40.52793" lon="-2.05179">
        <ele>1323.6</ele>
        <time>2021-10-09 13:02:14</time>
      </trkpt>
      <trkpt lat="40.52787" lon="-2.05178">
        <ele>1323.6</ele>
        <time>2021-10-09 13:02:21</time>
      </trkpt>
      <trkpt lat="40.52781" lon="-2.05177">
        <ele>1323.4</ele>
        <time>2021-10-09 13:02:22</time>
      </trkpt>
      <trkpt lat="40.52774" lon="-2.05176">
        <ele>1323.4</ele>
        <time>2021-10-09 13:02:23</time>
      </trkpt>
      <trkpt lat="40.52767" lon="-2.05176">
        <ele>1323</ele>
        <time>2021-10-09 13:02:24</time>
      </trkpt>
      <trkpt lat="40.52759" lon="-2.05175">
        <ele>1323</ele>
        <time>2021-10-09 13:02:25</time>
      </trkpt>
      <trkpt lat="40.52751" lon="-2.05175">
        <ele>1322.8</ele>
        <time>2021-10-09 13:02:26</time>
      </trkpt>
      <trkpt lat="40.52743" lon="-2.05175">
        <ele>1322.4</ele>
        <time>2021-10-09 13:02:27</time>
      </trkpt>
      <trkpt lat="40.52735" lon="-2.05176">
        <ele>1322.4</ele>
        <time>2021-10-09 13:02:28</time>
      </trkpt>
      <trkpt lat="40.52726" lon="-2.05174">
        <ele>1321.8</ele>
        <time>2021-10-09 13:02:29</time>
      </trkpt>
      <trkpt lat="40.52718" lon="-2.05173">
        <ele>1321.4</ele>
        <time>2021-10-09 13:02:30</time>
      </trkpt>
      <trkpt lat="40.52709" lon="-2.05172">
        <ele>1321.2</ele>
        <time>2021-10-09 13:02:31</time>
      </trkpt>
      <trkpt lat="40.52699" lon="-2.05173">
        <ele>1320.8</ele>
        <time>2021-10-09 13:02:32</time>
      </trkpt>
      <trkpt lat="40.5269" lon="-2.05175">
        <ele>1320.6</ele>
        <time>2021-10-09 13:02:33</time>
      </trkpt>
      <trkpt lat="40.52681" lon="-2.05179">
        <ele>1320.2</ele>
        <time>2021-10-09 13:02:34</time>
      </trkpt>
      <trkpt lat="40.52673" lon="-2.05186">
        <ele>1319.8</ele>
        <time>2021-10-09 13:02:35</time>
      </trkpt>
      <trkpt lat="40.52666" lon="-2.05196">
        <ele>1319</ele>
        <time>2021-10-09 13:02:36</time>
      </trkpt>
      <trkpt lat="40.52662" lon="-2.05208">
        <ele>1318.6</ele>
        <time>2021-10-09 13:02:37</time>
      </trkpt>
      <trkpt lat="40.52657" lon="-2.0522">
        <ele>1318</ele>
        <time>2021-10-09 13:02:38</time>
      </trkpt>
      <trkpt lat="40.52649" lon="-2.05232">
        <ele>1317.4</ele>
        <time>2021-10-09 13:02:39</time>
      </trkpt>
      <trkpt lat="40.52641" lon="-2.05243">
        <ele>1316.8</ele>
        <time>2021-10-09 13:02:40</time>
      </trkpt>
      <trkpt lat="40.52633" lon="-2.05255">
        <ele>1315.8</ele>
        <time>2021-10-09 13:02:41</time>
      </trkpt>
      <trkpt lat="40.52621" lon="-2.05264">
        <ele>1315</ele>
        <time>2021-10-09 13:02:42</time>
      </trkpt>
      <trkpt lat="40.5261" lon="-2.05271">
        <ele>1314</ele>
        <time>2021-10-09 13:02:43</time>
      </trkpt>
      <trkpt lat="40.526" lon="-2.05275">
        <ele>1312.8</ele>
        <time>2021-10-09 13:02:44</time>
      </trkpt>
      <trkpt lat="40.52591" lon="-2.05277">
        <ele>1311.4</ele>
        <time>2021-10-09 13:02:45</time>
      </trkpt>
      <trkpt lat="40.52584" lon="-2.05281">
        <ele>1310</ele>
        <time>2021-10-09 13:02:46</time>
      </trkpt>
      <trkpt lat="40.52577" lon="-2.05286">
        <ele>1308.6</ele>
        <time>2021-10-09 13:02:47</time>
      </trkpt>
      <trkpt lat="40.52574" lon="-2.05296">
        <ele>1307.4</ele>
        <time>2021-10-09 13:02:48</time>
      </trkpt>
      <trkpt lat="40.5257" lon="-2.05305">
        <ele>1306.2</ele>
        <time>2021-10-09 13:02:49</time>
      </trkpt>
      <trkpt lat="40.52569" lon="-2.05319">
        <ele>1305</ele>
        <time>2021-10-09 13:02:50</time>
      </trkpt>
      <trkpt lat="40.52565" lon="-2.05333">
        <ele>1304</ele>
        <time>2021-10-09 13:02:51</time>
      </trkpt>
      <trkpt lat="40.5256" lon="-2.05344">
        <ele>1303</ele>
        <time>2021-10-09 13:02:52</time>
      </trkpt>
      <trkpt lat="40.52554" lon="-2.05357">
        <ele>1302.2</ele>
        <time>2021-10-09 13:02:53</time>
      </trkpt>
      <trkpt lat="40.52547" lon="-2.05368">
        <ele>1301.2</ele>
        <time>2021-10-09 13:02:54</time>
      </trkpt>
      <trkpt lat="40.52538" lon="-2.0538">
        <ele>1300.6</ele>
        <time>2021-10-09 13:02:55</time>
      </trkpt>
      <trkpt lat="40.52529" lon="-2.05392">
        <ele>1299.8</ele>
        <time>2021-10-09 13:02:56</time>
      </trkpt>
      <trkpt lat="40.5252" lon="-2.05403">
        <ele>1298.8</ele>
        <time>2021-10-09 13:02:57</time>
      </trkpt>
      <trkpt lat="40.52509" lon="-2.05415">
        <ele>1297.4</ele>
        <time>2021-10-09 13:02:58</time>
      </trkpt>
      <trkpt lat="40.525" lon="-2.05426">
        <ele>1296.2</ele>
        <time>2021-10-09 13:02:59</time>
      </trkpt>
      <trkpt lat="40.5249" lon="-2.05434">
        <ele>1294.8</ele>
        <time>2021-10-09 13:03:00</time>
      </trkpt>
      <trkpt lat="40.52479" lon="-2.05441">
        <ele>1293.4</ele>
        <time>2021-10-09 13:03:01</time>
      </trkpt>
      <trkpt lat="40.52468" lon="-2.05446">
        <ele>1291.8</ele>
        <time>2021-10-09 13:03:02</time>
      </trkpt>
      <trkpt lat="40.52457" lon="-2.05449">
        <ele>1290.2</ele>
        <time>2021-10-09 13:03:03</time>
      </trkpt>
      <trkpt lat="40.52446" lon="-2.05451">
        <ele>1288.8</ele>
        <time>2021-10-09 13:03:04</time>
      </trkpt>
      <trkpt lat="40.52434" lon="-2.05453">
        <ele>1287.8</ele>
        <time>2021-10-09 13:03:05</time>
      </trkpt>
      <trkpt lat="40.52423" lon="-2.05457">
        <ele>1287</ele>
        <time>2021-10-09 13:03:06</time>
      </trkpt>
      <trkpt lat="40.5241" lon="-2.05461">
        <ele>1286.4</ele>
        <time>2021-10-09 13:03:07</time>
      </trkpt>
      <trkpt lat="40.52401" lon="-2.05469">
        <ele>1286</ele>
        <time>2021-10-09 13:03:08</time>
      </trkpt>
      <trkpt lat="40.52389" lon="-2.05473">
        <ele>1285.6</ele>
        <time>2021-10-09 13:03:09</time>
      </trkpt>
      <trkpt lat="40.52378" lon="-2.05475">
        <ele>1285</ele>
        <time>2021-10-09 13:03:10</time>
      </trkpt>
      <trkpt lat="40.52367" lon="-2.05475">
        <ele>1284.4</ele>
        <time>2021-10-09 13:03:11</time>
      </trkpt>
      <trkpt lat="40.52358" lon="-2.05478">
        <ele>1283.8</ele>
        <time>2021-10-09 13:03:12</time>
      </trkpt>
      <trkpt lat="40.52349" lon="-2.05482">
        <ele>1283</ele>
        <time>2021-10-09 13:03:13</time>
      </trkpt>
      <trkpt lat="40.52342" lon="-2.05489">
        <ele>1282.4</ele>
        <time>2021-10-09 13:03:14</time>
      </trkpt>
      <trkpt lat="40.52334" lon="-2.05498">
        <ele>1281.8</ele>
        <time>2021-10-09 13:03:15</time>
      </trkpt>
      <trkpt lat="40.52326" lon="-2.05509">
        <ele>1281</ele>
        <time>2021-10-09 13:03:16</time>
      </trkpt>
      <trkpt lat="40.52319" lon="-2.05519">
        <ele>1280.4</ele>
        <time>2021-10-09 13:03:17</time>
      </trkpt>
      <trkpt lat="40.52313" lon="-2.05529">
        <ele>1280</ele>
        <time>2021-10-09 13:03:18</time>
      </trkpt>
      <trkpt lat="40.52306" lon="-2.05537">
        <ele>1279.2</ele>
        <time>2021-10-09 13:03:19</time>
      </trkpt>
      <trkpt lat="40.523" lon="-2.05546">
        <ele>1278.8</ele>
        <time>2021-10-09 13:03:20</time>
      </trkpt>
      <trkpt lat="40.52294" lon="-2.05555">
        <ele>1278.2</ele>
        <time>2021-10-09 13:03:21</time>
      </trkpt>
      <trkpt lat="40.52288" lon="-2.05564">
        <ele>1277.8</ele>
        <time>2021-10-09 13:03:22</time>
      </trkpt>
      <trkpt lat="40.52283" lon="-2.05573">
        <ele>1277.2</ele>
        <time>2021-10-09 13:03:23</time>
      </trkpt>
      <trkpt lat="40.52279" lon="-2.05582">
        <ele>1276.8</ele>
        <time>2021-10-09 13:03:24</time>
      </trkpt>
      <trkpt lat="40.52275" lon="-2.05592">
        <ele>1276.2</ele>
        <time>2021-10-09 13:03:25</time>
      </trkpt>
      <trkpt lat="40.52273" lon="-2.05603">
        <ele>1275.4</ele>
        <time>2021-10-09 13:03:26</time>
      </trkpt>
      <trkpt lat="40.52271" lon="-2.05614">
        <ele>1274.8</ele>
        <time>2021-10-09 13:03:27</time>
      </trkpt>
      <trkpt lat="40.52269" lon="-2.05627">
        <ele>1274.2</ele>
        <time>2021-10-09 13:03:28</time>
      </trkpt>
      <trkpt lat="40.52268" lon="-2.05639">
        <ele>1273.8</ele>
        <time>2021-10-09 13:03:29</time>
      </trkpt>
      <trkpt lat="40.52267" lon="-2.05652">
        <ele>1273.2</ele>
        <time>2021-10-09 13:03:30</time>
      </trkpt>
      <trkpt lat="40.52265" lon="-2.05666">
        <ele>1272.4</ele>
        <time>2021-10-09 13:03:31</time>
      </trkpt>
      <trkpt lat="40.52264" lon="-2.05679">
        <ele>1271.6</ele>
        <time>2021-10-09 13:03:32</time>
      </trkpt>
      <trkpt lat="40.52262" lon="-2.05694">
        <ele>1270.8</ele>
        <time>2021-10-09 13:03:33</time>
      </trkpt>
      <trkpt lat="40.52262" lon="-2.05708">
        <ele>1270</ele>
        <time>2021-10-09 13:03:34</time>
      </trkpt>
      <trkpt lat="40.5226" lon="-2.05724">
        <ele>1269.2</ele>
        <time>2021-10-09 13:03:35</time>
      </trkpt>
      <trkpt lat="40.52258" lon="-2.0574">
        <ele>1268.4</ele>
        <time>2021-10-09 13:03:36</time>
      </trkpt>
      <trkpt lat="40.52255" lon="-2.05755">
        <ele>1267.4</ele>
        <time>2021-10-09 13:03:37</time>
      </trkpt>
      <trkpt lat="40.52252" lon="-2.05772">
        <ele>1266.4</ele>
        <time>2021-10-09 13:03:38</time>
      </trkpt>
      <trkpt lat="40.52248" lon="-2.05788">
        <ele>1265.4</ele>
        <time>2021-10-09 13:03:39</time>
      </trkpt>
      <trkpt lat="40.52244" lon="-2.05805">
        <ele>1264.6</ele>
        <time>2021-10-09 13:03:40</time>
      </trkpt>
      <trkpt lat="40.52242" lon="-2.05822">
        <ele>1263.6</ele>
        <time>2021-10-09 13:03:41</time>
      </trkpt>
      <trkpt lat="40.52239" lon="-2.0584">
        <ele>1262.4</ele>
        <time>2021-10-09 13:03:42</time>
      </trkpt>
      <trkpt lat="40.52237" lon="-2.05857">
        <ele>1261.2</ele>
        <time>2021-10-09 13:03:43</time>
      </trkpt>
      <trkpt lat="40.52232" lon="-2.05874">
        <ele>1259.6</ele>
        <time>2021-10-09 13:03:44</time>
      </trkpt>
      <trkpt lat="40.52228" lon="-2.0589">
        <ele>1258.6</ele>
        <time>2021-10-09 13:03:45</time>
      </trkpt>
      <trkpt lat="40.52222" lon="-2.05905">
        <ele>1257.2</ele>
        <time>2021-10-09 13:03:46</time>
      </trkpt>
      <trkpt lat="40.52215" lon="-2.05918">
        <ele>1256.2</ele>
        <time>2021-10-09 13:03:47</time>
      </trkpt>
      <trkpt lat="40.52209" lon="-2.05929">
        <ele>1254.4</ele>
        <time>2021-10-09 13:03:48</time>
      </trkpt>
      <trkpt lat="40.52203" lon="-2.05938">
        <ele>1252.8</ele>
        <time>2021-10-09 13:03:49</time>
      </trkpt>
      <trkpt lat="40.52197" lon="-2.05946">
        <ele>1251.4</ele>
        <time>2021-10-09 13:03:50</time>
      </trkpt>
      <trkpt lat="40.52192" lon="-2.05948">
        <ele>1249.8</ele>
        <time>2021-10-09 13:03:51</time>
      </trkpt>
      <trkpt lat="40.52187" lon="-2.05946">
        <ele>1248.4</ele>
        <time>2021-10-09 13:03:52</time>
      </trkpt>
      <trkpt lat="40.52185" lon="-2.05942">
        <ele>1247.2</ele>
        <time>2021-10-09 13:03:53</time>
      </trkpt>
      <trkpt lat="40.52185" lon="-2.05938">
        <ele>1246.2</ele>
        <time>2021-10-09 13:03:54</time>
      </trkpt>
      <trkpt lat="40.52188" lon="-2.05934">
        <ele>1245.2</ele>
        <time>2021-10-09 13:03:55</time>
      </trkpt>
      <trkpt lat="40.52191" lon="-2.05928">
        <ele>1244.4</ele>
        <time>2021-10-09 13:03:56</time>
      </trkpt>
      <trkpt lat="40.52194" lon="-2.05921">
        <ele>1243.8</ele>
        <time>2021-10-09 13:03:57</time>
      </trkpt>
      <trkpt lat="40.52196" lon="-2.05911">
        <ele>1243</ele>
        <time>2021-10-09 13:03:58</time>
      </trkpt>
      <trkpt lat="40.52198" lon="-2.05902">
        <ele>1242.4</ele>
        <time>2021-10-09 13:03:59</time>
      </trkpt>
      <trkpt lat="40.52199" lon="-2.05892">
        <ele>1242</ele>
        <time>2021-10-09 13:04:00</time>
      </trkpt>
      <trkpt lat="40.52201" lon="-2.05883">
        <ele>1241.6</ele>
        <time>2021-10-09 13:04:01</time>
      </trkpt>
      <trkpt lat="40.52202" lon="-2.05872">
        <ele>1241.2</ele>
        <time>2021-10-09 13:04:02</time>
      </trkpt>
      <trkpt lat="40.52203" lon="-2.05862">
        <ele>1241</ele>
        <time>2021-10-09 13:04:03</time>
      </trkpt>
      <trkpt lat="40.52204" lon="-2.05852">
        <ele>1240.8</ele>
        <time>2021-10-09 13:04:04</time>
      </trkpt>
      <trkpt lat="40.52204" lon="-2.05843">
        <ele>1240.8</ele>
        <time>2021-10-09 13:04:05</time>
      </trkpt>
      <trkpt lat="40.52204" lon="-2.05833">
        <ele>1240.4</ele>
        <time>2021-10-09 13:04:06</time>
      </trkpt>
      <trkpt lat="40.52202" lon="-2.05823">
        <ele>1240</ele>
        <time>2021-10-09 13:04:07</time>
      </trkpt>
      <trkpt lat="40.52199" lon="-2.05814">
        <ele>1239.4</ele>
        <time>2021-10-09 13:04:08</time>
      </trkpt>
      <trkpt lat="40.52196" lon="-2.05806">
        <ele>1238.8</ele>
        <time>2021-10-09 13:04:09</time>
      </trkpt>
      <trkpt lat="40.5219" lon="-2.058">
        <ele>1238.4</ele>
        <time>2021-10-09 13:04:10</time>
      </trkpt>
      <trkpt lat="40.52184" lon="-2.05797">
        <ele>1238</ele>
        <time>2021-10-09 13:04:11</time>
      </trkpt>
      <trkpt lat="40.52176" lon="-2.05795">
        <ele>1237.6</ele>
        <time>2021-10-09 13:04:12</time>
      </trkpt>
      <trkpt lat="40.52169" lon="-2.05796">
        <ele>1237</ele>
        <time>2021-10-09 13:04:13</time>
      </trkpt>
      <trkpt lat="40.52161" lon="-2.058">
        <ele>1236.6</ele>
        <time>2021-10-09 13:04:14</time>
      </trkpt>
      <trkpt lat="40.52156" lon="-2.05805">
        <ele>1236.2</ele>
        <time>2021-10-09 13:04:15</time>
      </trkpt>
      <trkpt lat="40.5215" lon="-2.05811">
        <ele>1236</ele>
        <time>2021-10-09 13:04:16</time>
      </trkpt>
      <trkpt lat="40.52143" lon="-2.05815">
        <ele>1235.8</ele>
        <time>2021-10-09 13:04:17</time>
      </trkpt>
      <trkpt lat="40.52137" lon="-2.05821">
        <ele>1235.6</ele>
        <time>2021-10-09 13:04:18</time>
      </trkpt>
      <trkpt lat="40.52131" lon="-2.05826">
        <ele>1235.2</ele>
        <time>2021-10-09 13:04:19</time>
      </trkpt>
      <trkpt lat="40.52126" lon="-2.05833">
        <ele>1235.2</ele>
        <time>2021-10-09 13:04:20</time>
      </trkpt>
      <trkpt lat="40.5212" lon="-2.05838">
        <ele>1234.8</ele>
        <time>2021-10-09 13:04:21</time>
      </trkpt>
      <trkpt lat="40.52114" lon="-2.05843">
        <ele>1234.4</ele>
        <time>2021-10-09 13:04:22</time>
      </trkpt>
      <trkpt lat="40.52107" lon="-2.05846">
        <ele>1234.2</ele>
        <time>2021-10-09 13:04:23</time>
      </trkpt>
      <trkpt lat="40.52099" lon="-2.05849">
        <ele>1233.8</ele>
        <time>2021-10-09 13:04:24</time>
      </trkpt>
      <trkpt lat="40.52091" lon="-2.05852">
        <ele>1233.4</ele>
        <time>2021-10-09 13:04:25</time>
      </trkpt>
      <trkpt lat="40.52082" lon="-2.05857">
        <ele>1233</ele>
        <time>2021-10-09 13:04:26</time>
      </trkpt>
      <trkpt lat="40.52073" lon="-2.05863">
        <ele>1232.6</ele>
        <time>2021-10-09 13:04:27</time>
      </trkpt>
      <trkpt lat="40.52064" lon="-2.05869">
        <ele>1232.4</ele>
        <time>2021-10-09 13:04:28</time>
      </trkpt>
      <trkpt lat="40.52054" lon="-2.05877">
        <ele>1231.8</ele>
        <time>2021-10-09 13:04:29</time>
      </trkpt>
      <trkpt lat="40.52045" lon="-2.05885">
        <ele>1230.8</ele>
        <time>2021-10-09 13:04:30</time>
      </trkpt>
      <trkpt lat="40.52034" lon="-2.05891">
        <ele>1229.8</ele>
        <time>2021-10-09 13:04:31</time>
      </trkpt>
      <trkpt lat="40.52022" lon="-2.05896">
        <ele>1228.6</ele>
        <time>2021-10-09 13:04:32</time>
      </trkpt>
      <trkpt lat="40.52012" lon="-2.05899">
        <ele>1227.4</ele>
        <time>2021-10-09 13:04:33</time>
      </trkpt>
      <trkpt lat="40.52003" lon="-2.05902">
        <ele>1226</ele>
        <time>2021-10-09 13:04:34</time>
      </trkpt>
      <trkpt lat="40.51996" lon="-2.05904">
        <ele>1224.8</ele>
        <time>2021-10-09 13:04:35</time>
      </trkpt>
      <trkpt lat="40.51989" lon="-2.05906">
        <ele>1223.4</ele>
        <time>2021-10-09 13:04:36</time>
      </trkpt>
      <trkpt lat="40.51984" lon="-2.05907">
        <ele>1222.2</ele>
        <time>2021-10-09 13:04:37</time>
      </trkpt>
      <trkpt lat="40.5198" lon="-2.05909">
        <ele>1221</ele>
        <time>2021-10-09 13:04:38</time>
      </trkpt>
      <trkpt lat="40.51976" lon="-2.0591">
        <ele>1220</ele>
        <time>2021-10-09 13:04:39</time>
      </trkpt>
      <trkpt lat="40.51972" lon="-2.05911">
        <ele>1219.2</ele>
        <time>2021-10-09 13:04:40</time>
      </trkpt>
      <trkpt lat="40.51969" lon="-2.05913">
        <ele>1218.2</ele>
        <time>2021-10-09 13:04:41</time>
      </trkpt>
      <trkpt lat="40.51965" lon="-2.05914">
        <ele>1217.4</ele>
        <time>2021-10-09 13:04:42</time>
      </trkpt>
      <trkpt lat="40.51961" lon="-2.05915">
        <ele>1216.8</ele>
        <time>2021-10-09 13:04:43</time>
      </trkpt>
      <trkpt lat="40.51957" lon="-2.05918">
        <ele>1216</ele>
        <time>2021-10-09 13:04:44</time>
      </trkpt>
      <trkpt lat="40.51952" lon="-2.05919">
        <ele>1215.4</ele>
        <time>2021-10-09 13:04:45</time>
      </trkpt>
      <trkpt lat="40.51946" lon="-2.05919">
        <ele>1214.8</ele>
        <time>2021-10-09 13:04:46</time>
      </trkpt>
      <trkpt lat="40.51941" lon="-2.05919">
        <ele>1214</ele>
        <time>2021-10-09 13:04:47</time>
      </trkpt>
      <trkpt lat="40.51936" lon="-2.05916">
        <ele>1213.4</ele>
        <time>2021-10-09 13:04:48</time>
      </trkpt>
      <trkpt lat="40.5193" lon="-2.05914">
        <ele>1213</ele>
        <time>2021-10-09 13:04:49</time>
      </trkpt>
      <trkpt lat="40.51925" lon="-2.0591">
        <ele>1212.6</ele>
        <time>2021-10-09 13:04:50</time>
      </trkpt>
      <trkpt lat="40.51921" lon="-2.05907">
        <ele>1212.4</ele>
        <time>2021-10-09 13:04:51</time>
      </trkpt>
      <trkpt lat="40.51916" lon="-2.05903">
        <ele>1212.4</ele>
        <time>2021-10-09 13:04:52</time>
      </trkpt>
      <trkpt lat="40.51912" lon="-2.059">
        <ele>1212.2</ele>
        <time>2021-10-09 13:04:53</time>
      </trkpt>
      <trkpt lat="40.51907" lon="-2.05897">
        <ele>1212.2</ele>
        <time>2021-10-09 13:04:54</time>
      </trkpt>
      <trkpt lat="40.51902" lon="-2.05894">
        <ele>1211.8</ele>
        <time>2021-10-09 13:04:55</time>
      </trkpt>
      <trkpt lat="40.51898" lon="-2.0589">
        <ele>1211.6</ele>
        <time>2021-10-09 13:04:56</time>
      </trkpt>
      <trkpt lat="40.51893" lon="-2.05885">
        <ele>1211.4</ele>
        <time>2021-10-09 13:04:57</time>
      </trkpt>
      <trkpt lat="40.51888" lon="-2.0588">
        <ele>1211.4</ele>
        <time>2021-10-09 13:04:58</time>
      </trkpt>
      <trkpt lat="40.51883" lon="-2.05875">
        <ele>1211</ele>
        <time>2021-10-09 13:04:59</time>
      </trkpt>
      <trkpt lat="40.51879" lon="-2.05869">
        <ele>1210.8</ele>
        <time>2021-10-09 13:05:00</time>
      </trkpt>
      <trkpt lat="40.51874" lon="-2.05863">
        <ele>1210.6</ele>
        <time>2021-10-09 13:05:01</time>
      </trkpt>
      <trkpt lat="40.5187" lon="-2.05856">
        <ele>1210.6</ele>
        <time>2021-10-09 13:05:02</time>
      </trkpt>
      <trkpt lat="40.51865" lon="-2.05851">
        <ele>1210.2</ele>
        <time>2021-10-09 13:05:03</time>
      </trkpt>
      <trkpt lat="40.5186" lon="-2.05845">
        <ele>1210.2</ele>
        <time>2021-10-09 13:05:04</time>
      </trkpt>
      <trkpt lat="40.51857" lon="-2.0584">
        <ele>1210.2</ele>
        <time>2021-10-09 13:05:05</time>
      </trkpt>
      <trkpt lat="40.51854" lon="-2.05835">
        <ele>1210.2</ele>
        <time>2021-10-09 13:05:06</time>
      </trkpt>
      <trkpt lat="40.51851" lon="-2.05831">
        <ele>1210.4</ele>
        <time>2021-10-09 13:05:07</time>
      </trkpt>
      <trkpt lat="40.51848" lon="-2.05827">
        <ele>1210.4</ele>
        <time>2021-10-09 13:05:08</time>
      </trkpt>
      <trkpt lat="40.51844" lon="-2.05824">
        <ele>1210.4</ele>
        <time>2021-10-09 13:05:09</time>
      </trkpt>
      <trkpt lat="40.51841" lon="-2.05819">
        <ele>1210.4</ele>
        <time>2021-10-09 13:05:10</time>
      </trkpt>
      <trkpt lat="40.51838" lon="-2.05815">
        <ele>1210.4</ele>
        <time>2021-10-09 13:05:11</time>
      </trkpt>
      <trkpt lat="40.51835" lon="-2.05811">
        <ele>1210.4</ele>
        <time>2021-10-09 13:05:12</time>
      </trkpt>
      <trkpt lat="40.51832" lon="-2.05807">
        <ele>1210.4</ele>
        <time>2021-10-09 13:05:13</time>
      </trkpt>
      <trkpt lat="40.51829" lon="-2.05802">
        <ele>1210.8</ele>
        <time>2021-10-09 13:05:14</time>
      </trkpt>
      <trkpt lat="40.51826" lon="-2.05799">
        <ele>1210.8</ele>
        <time>2021-10-09 13:05:15</time>
      </trkpt>
      <trkpt lat="40.51823" lon="-2.05794">
        <ele>1210.8</ele>
        <time>2021-10-09 13:05:16</time>
      </trkpt>
      <trkpt lat="40.51819" lon="-2.05791">
        <ele>1210.8</ele>
        <time>2021-10-09 13:05:17</time>
      </trkpt>
      <trkpt lat="40.51815" lon="-2.05787">
        <ele>1210.8</ele>
        <time>2021-10-09 13:05:18</time>
      </trkpt>
      <trkpt lat="40.51812" lon="-2.05782">
        <ele>1210.8</ele>
        <time>2021-10-09 13:05:19</time>
      </trkpt>
      <trkpt lat="40.51809" lon="-2.05778">
        <ele>1210.8</ele>
        <time>2021-10-09 13:05:20</time>
      </trkpt>
      <trkpt lat="40.51805" lon="-2.05773">
        <ele>1210.8</ele>
        <time>2021-10-09 13:05:21</time>
      </trkpt>
      <trkpt lat="40.51802" lon="-2.05769">
        <ele>1210.8</ele>
        <time>2021-10-09 13:05:22</time>
      </trkpt>
      <trkpt lat="40.51798" lon="-2.05765">
        <ele>1210.8</ele>
        <time>2021-10-09 13:05:23</time>
      </trkpt>
      <trkpt lat="40.51794" lon="-2.05761">
        <ele>1210.8</ele>
        <time>2021-10-09 13:05:24</time>
      </trkpt>
      <trkpt lat="40.51791" lon="-2.05758">
        <ele>1210.8</ele>
        <time>2021-10-09 13:05:25</time>
      </trkpt>
      <trkpt lat="40.51788" lon="-2.05754">
        <ele>1210.8</ele>
        <time>2021-10-09 13:05:26</time>
      </trkpt>
      <trkpt lat="40.51784" lon="-2.0575">
        <ele>1210.8</ele>
        <time>2021-10-09 13:05:27</time>
      </trkpt>
      <trkpt lat="40.51781" lon="-2.05746">
        <ele>1210.8</ele>
        <time>2021-10-09 13:05:28</time>
      </trkpt>
      <trkpt lat="40.51778" lon="-2.05743">
        <ele>1210.8</ele>
        <time>2021-10-09 13:05:29</time>
      </trkpt>
      <trkpt lat="40.51775" lon="-2.0574">
        <ele>1210.8</ele>
        <time>2021-10-09 13:05:30</time>
      </trkpt>
      <trkpt lat="40.51773" lon="-2.05736">
        <ele>1211</ele>
        <time>2021-10-09 13:05:31</time>
      </trkpt>
      <trkpt lat="40.5177" lon="-2.05734">
        <ele>1211</ele>
        <time>2021-10-09 13:05:32</time>
      </trkpt>
      <trkpt lat="40.51767" lon="-2.0573">
        <ele>1211</ele>
        <time>2021-10-09 13:05:33</time>
      </trkpt>
      <trkpt lat="40.51764" lon="-2.05728">
        <ele>1211.2</ele>
        <time>2021-10-09 13:05:34</time>
      </trkpt>
      <trkpt lat="40.51761" lon="-2.05725">
        <ele>1211.4</ele>
        <time>2021-10-09 13:05:35</time>
      </trkpt>
      <trkpt lat="40.51758" lon="-2.05722">
        <ele>1211.8</ele>
        <time>2021-10-09 13:05:36</time>
      </trkpt>
      <trkpt lat="40.51755" lon="-2.05719">
        <ele>1212</ele>
        <time>2021-10-09 13:05:37</time>
      </trkpt>
      <trkpt lat="40.51753" lon="-2.05716">
        <ele>1212.2</ele>
        <time>2021-10-09 13:05:38</time>
      </trkpt>
      <trkpt lat="40.5175" lon="-2.05713">
        <ele>1212.4</ele>
        <time>2021-10-09 13:05:39</time>
      </trkpt>
      <trkpt lat="40.51748" lon="-2.05711">
        <ele>1212.4</ele>
        <time>2021-10-09 13:05:40</time>
      </trkpt>
      <trkpt lat="40.51745" lon="-2.05707">
        <ele>1212.8</ele>
        <time>2021-10-09 13:05:41</time>
      </trkpt>
      <trkpt lat="40.51743" lon="-2.05704">
        <ele>1212.8</ele>
        <time>2021-10-09 13:05:42</time>
      </trkpt>
      <trkpt lat="40.5174" lon="-2.05701">
        <ele>1213.2</ele>
        <time>2021-10-09 13:05:43</time>
      </trkpt>
      <trkpt lat="40.51738" lon="-2.05699">
        <ele>1213.2</ele>
        <time>2021-10-09 13:05:44</time>
      </trkpt>
      <trkpt lat="40.51736" lon="-2.05696">
        <ele>1213.4</ele>
        <time>2021-10-09 13:05:45</time>
      </trkpt>
      <trkpt lat="40.51733" lon="-2.05692">
        <ele>1213.6</ele>
        <time>2021-10-09 13:05:46</time>
      </trkpt>
      <trkpt lat="40.51731" lon="-2.05689">
        <ele>1213.6</ele>
        <time>2021-10-09 13:05:47</time>
      </trkpt>
      <trkpt lat="40.51729" lon="-2.05686">
        <ele>1214</ele>
        <time>2021-10-09 13:05:48</time>
      </trkpt>
      <trkpt lat="40.51727" lon="-2.05682">
        <ele>1214</ele>
        <time>2021-10-09 13:05:49</time>
      </trkpt>
      <trkpt lat="40.51724" lon="-2.05679">
        <ele>1214.2</ele>
        <time>2021-10-09 13:05:50</time>
      </trkpt>
      <trkpt lat="40.51722" lon="-2.05676">
        <ele>1214.2</ele>
        <time>2021-10-09 13:05:51</time>
      </trkpt>
      <trkpt lat="40.51719" lon="-2.05672">
        <ele>1214.2</ele>
        <time>2021-10-09 13:05:52</time>
      </trkpt>
      <trkpt lat="40.51717" lon="-2.05669">
        <ele>1214.2</ele>
        <time>2021-10-09 13:05:53</time>
      </trkpt>
      <trkpt lat="40.51714" lon="-2.05665">
        <ele>1214.2</ele>
        <time>2021-10-09 13:05:54</time>
      </trkpt>
      <trkpt lat="40.51711" lon="-2.05662">
        <ele>1214.4</ele>
        <time>2021-10-09 13:05:55</time>
      </trkpt>
      <trkpt lat="40.51707" lon="-2.05658">
        <ele>1214.4</ele>
        <time>2021-10-09 13:05:56</time>
      </trkpt>
      <trkpt lat="40.51704" lon="-2.05655">
        <ele>1214.4</ele>
        <time>2021-10-09 13:05:57</time>
      </trkpt>
      <trkpt lat="40.51701" lon="-2.05652">
        <ele>1214.4</ele>
        <time>2021-10-09 13:05:58</time>
      </trkpt>
      <trkpt lat="40.51698" lon="-2.05649">
        <ele>1214.4</ele>
        <time>2021-10-09 13:05:59</time>
      </trkpt>
      <trkpt lat="40.51695" lon="-2.05646">
        <ele>1214.4</ele>
        <time>2021-10-09 13:06:00</time>
      </trkpt>
      <trkpt lat="40.51692" lon="-2.05641">
        <ele>1214.4</ele>
        <time>2021-10-09 13:06:01</time>
      </trkpt>
      <trkpt lat="40.5169" lon="-2.05638">
        <ele>1214.6</ele>
        <time>2021-10-09 13:06:02</time>
      </trkpt>
      <trkpt lat="40.51687" lon="-2.05634">
        <ele>1214.6</ele>
        <time>2021-10-09 13:06:03</time>
      </trkpt>
      <trkpt lat="40.51684" lon="-2.0563">
        <ele>1214.6</ele>
        <time>2021-10-09 13:06:04</time>
      </trkpt>
      <trkpt lat="40.51682" lon="-2.05626">
        <ele>1214.8</ele>
        <time>2021-10-09 13:06:05</time>
      </trkpt>
      <trkpt lat="40.51679" lon="-2.05623">
        <ele>1214.8</ele>
        <time>2021-10-09 13:06:06</time>
      </trkpt>
      <trkpt lat="40.51676" lon="-2.05619">
        <ele>1215</ele>
        <time>2021-10-09 13:06:07</time>
      </trkpt>
      <trkpt lat="40.51674" lon="-2.05615">
        <ele>1215</ele>
        <time>2021-10-09 13:06:08</time>
      </trkpt>
      <trkpt lat="40.51671" lon="-2.05611">
        <ele>1215</ele>
        <time>2021-10-09 13:06:09</time>
      </trkpt>
      <trkpt lat="40.51669" lon="-2.05606">
        <ele>1215</ele>
        <time>2021-10-09 13:06:10</time>
      </trkpt>
      <trkpt lat="40.51667" lon="-2.05601">
        <ele>1215</ele>
        <time>2021-10-09 13:06:11</time>
      </trkpt>
      <trkpt lat="40.51664" lon="-2.05596">
        <ele>1215</ele>
        <time>2021-10-09 13:06:12</time>
      </trkpt>
      <trkpt lat="40.51662" lon="-2.05591">
        <ele>1215</ele>
        <time>2021-10-09 13:06:13</time>
      </trkpt>
      <trkpt lat="40.51659" lon="-2.05586">
        <ele>1215</ele>
        <time>2021-10-09 13:06:14</time>
      </trkpt>
      <trkpt lat="40.51656" lon="-2.05581">
        <ele>1215</ele>
        <time>2021-10-09 13:06:15</time>
      </trkpt>
      <trkpt lat="40.51654" lon="-2.05576">
        <ele>1215</ele>
        <time>2021-10-09 13:06:16</time>
      </trkpt>
      <trkpt lat="40.51651" lon="-2.0557">
        <ele>1215</ele>
        <time>2021-10-09 13:06:17</time>
      </trkpt>
      <trkpt lat="40.51647" lon="-2.05564">
        <ele>1215</ele>
        <time>2021-10-09 13:06:18</time>
      </trkpt>
      <trkpt lat="40.51644" lon="-2.05558">
        <ele>1215</ele>
        <time>2021-10-09 13:06:19</time>
      </trkpt>
      <trkpt lat="40.51641" lon="-2.05552">
        <ele>1214.8</ele>
        <time>2021-10-09 13:06:20</time>
      </trkpt>
      <trkpt lat="40.51638" lon="-2.05546">
        <ele>1214.8</ele>
        <time>2021-10-09 13:06:21</time>
      </trkpt>
      <trkpt lat="40.51637" lon="-2.05539">
        <ele>1214.8</ele>
        <time>2021-10-09 13:06:22</time>
      </trkpt>
      <trkpt lat="40.51636" lon="-2.05532">
        <ele>1214.8</ele>
        <time>2021-10-09 13:06:23</time>
      </trkpt>
      <trkpt lat="40.51635" lon="-2.05525">
        <ele>1214.4</ele>
        <time>2021-10-09 13:06:24</time>
      </trkpt>
      <trkpt lat="40.51635" lon="-2.05518">
        <ele>1214.4</ele>
        <time>2021-10-09 13:06:25</time>
      </trkpt>
      <trkpt lat="40.51636" lon="-2.05511">
        <ele>1214.4</ele>
        <time>2021-10-09 13:06:26</time>
      </trkpt>
      <trkpt lat="40.51637" lon="-2.05504">
        <ele>1214.2</ele>
        <time>2021-10-09 13:06:27</time>
      </trkpt>
      <trkpt lat="40.51638" lon="-2.05498">
        <ele>1214.2</ele>
        <time>2021-10-09 13:06:28</time>
      </trkpt>
      <trkpt lat="40.51639" lon="-2.05492">
        <ele>1214.2</ele>
        <time>2021-10-09 13:06:29</time>
      </trkpt>
      <trkpt lat="40.5164" lon="-2.05485">
        <ele>1214.2</ele>
        <time>2021-10-09 13:06:30</time>
      </trkpt>
      <trkpt lat="40.5164" lon="-2.05478">
        <ele>1214.4</ele>
        <time>2021-10-09 13:06:31</time>
      </trkpt>
      <trkpt lat="40.51638" lon="-2.05473">
        <ele>1214.4</ele>
        <time>2021-10-09 13:06:32</time>
      </trkpt>
      <trkpt lat="40.51635" lon="-2.05469">
        <ele>1214.4</ele>
        <time>2021-10-09 13:06:33</time>
      </trkpt>
      <trkpt lat="40.51631" lon="-2.05468">
        <ele>1214.4</ele>
        <time>2021-10-09 13:06:34</time>
      </trkpt>
      <trkpt lat="40.51627" lon="-2.05469">
        <ele>1214.4</ele>
        <time>2021-10-09 13:06:35</time>
      </trkpt>
      <trkpt lat="40.51624" lon="-2.05472">
        <ele>1214.4</ele>
        <time>2021-10-09 13:06:36</time>
      </trkpt>
      <trkpt lat="40.5162" lon="-2.05475">
        <ele>1214.4</ele>
        <time>2021-10-09 13:06:37</time>
      </trkpt>
      <trkpt lat="40.51617" lon="-2.05477">
        <ele>1214.4</ele>
        <time>2021-10-09 13:06:38</time>
      </trkpt>
      <trkpt lat="40.51613" lon="-2.05479">
        <ele>1214.4</ele>
        <time>2021-10-09 13:06:39</time>
      </trkpt>
      <trkpt lat="40.5161" lon="-2.0548">
        <ele>1214.4</ele>
        <time>2021-10-09 13:06:40</time>
      </trkpt>
      <trkpt lat="40.51606" lon="-2.05481">
        <ele>1214.4</ele>
        <time>2021-10-09 13:06:41</time>
      </trkpt>
      <trkpt lat="40.51602" lon="-2.05482">
        <ele>1214.4</ele>
        <time>2021-10-09 13:06:42</time>
      </trkpt>
      <trkpt lat="40.51597" lon="-2.05482">
        <ele>1214.4</ele>
        <time>2021-10-09 13:06:43</time>
      </trkpt>
      <trkpt lat="40.51593" lon="-2.05483">
        <ele>1214.4</ele>
        <time>2021-10-09 13:06:44</time>
      </trkpt>
      <trkpt lat="40.51588" lon="-2.05484">
        <ele>1214.4</ele>
        <time>2021-10-09 13:06:45</time>
      </trkpt>
      <trkpt lat="40.51583" lon="-2.05486">
        <ele>1214.4</ele>
        <time>2021-10-09 13:06:46</time>
      </trkpt>
      <trkpt lat="40.51578" lon="-2.05488">
        <ele>1214.4</ele>
        <time>2021-10-09 13:06:47</time>
      </trkpt>
      <trkpt lat="40.51573" lon="-2.05491">
        <ele>1214.4</ele>
        <time>2021-10-09 13:06:48</time>
      </trkpt>
      <trkpt lat="40.51568" lon="-2.05494">
        <ele>1214.2</ele>
        <time>2021-10-09 13:06:49</time>
      </trkpt>
      <trkpt lat="40.51563" lon="-2.05498">
        <ele>1214.2</ele>
        <time>2021-10-09 13:06:50</time>
      </trkpt>
      <trkpt lat="40.51559" lon="-2.05502">
        <ele>1213.8</ele>
        <time>2021-10-09 13:06:51</time>
      </trkpt>
      <trkpt lat="40.51555" lon="-2.05506">
        <ele>1213.8</ele>
        <time>2021-10-09 13:06:52</time>
      </trkpt>
      <trkpt lat="40.5155" lon="-2.0551">
        <ele>1213.6</ele>
        <time>2021-10-09 13:06:53</time>
      </trkpt>
      <trkpt lat="40.51546" lon="-2.05515">
        <ele>1213.6</ele>
        <time>2021-10-09 13:06:54</time>
      </trkpt>
      <trkpt lat="40.51541" lon="-2.0552">
        <ele>1213.6</ele>
        <time>2021-10-09 13:06:55</time>
      </trkpt>
      <trkpt lat="40.51537" lon="-2.05524">
        <ele>1213.4</ele>
        <time>2021-10-09 13:06:56</time>
      </trkpt>
      <trkpt lat="40.51532" lon="-2.05527">
        <ele>1213.4</ele>
        <time>2021-10-09 13:06:57</time>
      </trkpt>
      <trkpt lat="40.51527" lon="-2.0553">
        <ele>1213.2</ele>
        <time>2021-10-09 13:06:58</time>
      </trkpt>
      <trkpt lat="40.51522" lon="-2.05533">
        <ele>1213.2</ele>
        <time>2021-10-09 13:06:59</time>
      </trkpt>
      <trkpt lat="40.51516" lon="-2.05534">
        <ele>1213.2</ele>
        <time>2021-10-09 13:07:00</time>
      </trkpt>
      <trkpt lat="40.5151" lon="-2.05535">
        <ele>1213.2</ele>
        <time>2021-10-09 13:07:01</time>
      </trkpt>
      <trkpt lat="40.51505" lon="-2.05535">
        <ele>1213.2</ele>
        <time>2021-10-09 13:07:02</time>
      </trkpt>
      <trkpt lat="40.51499" lon="-2.05536">
        <ele>1213.2</ele>
        <time>2021-10-09 13:07:03</time>
      </trkpt>
      <trkpt lat="40.51493" lon="-2.05536">
        <ele>1213.2</ele>
        <time>2021-10-09 13:07:04</time>
      </trkpt>
      <trkpt lat="40.51487" lon="-2.05536">
        <ele>1213.2</ele>
        <time>2021-10-09 13:07:05</time>
      </trkpt>
      <trkpt lat="40.51481" lon="-2.05536">
        <ele>1213.2</ele>
        <time>2021-10-09 13:07:06</time>
      </trkpt>
      <trkpt lat="40.51476" lon="-2.05535">
        <ele>1213.2</ele>
        <time>2021-10-09 13:07:07</time>
      </trkpt>
      <trkpt lat="40.51469" lon="-2.05535">
        <ele>1213.2</ele>
        <time>2021-10-09 13:07:08</time>
      </trkpt>
      <trkpt lat="40.51463" lon="-2.05534">
        <ele>1213.2</ele>
        <time>2021-10-09 13:07:09</time>
      </trkpt>
      <trkpt lat="40.51457" lon="-2.05533">
        <ele>1212.8</ele>
        <time>2021-10-09 13:07:10</time>
      </trkpt>
      <trkpt lat="40.5145" lon="-2.05531">
        <ele>1212.8</ele>
        <time>2021-10-09 13:07:11</time>
      </trkpt>
      <trkpt lat="40.51444" lon="-2.05528">
        <ele>1212.8</ele>
        <time>2021-10-09 13:07:12</time>
      </trkpt>
      <trkpt lat="40.51438" lon="-2.05524">
        <ele>1212.6</ele>
        <time>2021-10-09 13:07:13</time>
      </trkpt>
      <trkpt lat="40.51432" lon="-2.05519">
        <ele>1212.6</ele>
        <time>2021-10-09 13:07:14</time>
      </trkpt>
      <trkpt lat="40.51426" lon="-2.05514">
        <ele>1212.2</ele>
        <time>2021-10-09 13:07:15</time>
      </trkpt>
      <trkpt lat="40.51419" lon="-2.05508">
        <ele>1212</ele>
        <time>2021-10-09 13:07:16</time>
      </trkpt>
      <trkpt lat="40.51414" lon="-2.05502">
        <ele>1212</ele>
        <time>2021-10-09 13:07:17</time>
      </trkpt>
      <trkpt lat="40.51407" lon="-2.05495">
        <ele>1211.6</ele>
        <time>2021-10-09 13:07:18</time>
      </trkpt>
      <trkpt lat="40.514" lon="-2.05489">
        <ele>1211.6</ele>
        <time>2021-10-09 13:07:19</time>
      </trkpt>
      <trkpt lat="40.51393" lon="-2.05483">
        <ele>1211.2</ele>
        <time>2021-10-09 13:07:20</time>
      </trkpt>
      <trkpt lat="40.51385" lon="-2.05477">
        <ele>1210.8</ele>
        <time>2021-10-09 13:07:21</time>
      </trkpt>
      <trkpt lat="40.51377" lon="-2.05472">
        <ele>1210.6</ele>
        <time>2021-10-09 13:07:22</time>
      </trkpt>
      <trkpt lat="40.51369" lon="-2.05466">
        <ele>1210.2</ele>
        <time>2021-10-09 13:07:23</time>
      </trkpt>
      <trkpt lat="40.5136" lon="-2.05461">
        <ele>1209.8</ele>
        <time>2021-10-09 13:07:24</time>
      </trkpt>
      <trkpt lat="40.51353" lon="-2.05456">
        <ele>1209.6</ele>
        <time>2021-10-09 13:07:25</time>
      </trkpt>
      <trkpt lat="40.51345" lon="-2.05451">
        <ele>1209.6</ele>
        <time>2021-10-09 13:07:26</time>
      </trkpt>
      <trkpt lat="40.51338" lon="-2.05444">
        <ele>1209.6</ele>
        <time>2021-10-09 13:07:27</time>
      </trkpt>
      <trkpt lat="40.51331" lon="-2.05437">
        <ele>1209.2</ele>
        <time>2021-10-09 13:07:28</time>
      </trkpt>
      <trkpt lat="40.51326" lon="-2.05429">
        <ele>1208.8</ele>
        <time>2021-10-09 13:07:29</time>
      </trkpt>
      <trkpt lat="40.51321" lon="-2.05422">
        <ele>1208.8</ele>
        <time>2021-10-09 13:07:30</time>
      </trkpt>
      <trkpt lat="40.51316" lon="-2.05414">
        <ele>1208.8</ele>
        <time>2021-10-09 13:07:31</time>
      </trkpt>
      <trkpt lat="40.51311" lon="-2.05408">
        <ele>1208.8</ele>
        <time>2021-10-09 13:07:32</time>
      </trkpt>
      <trkpt lat="40.51306" lon="-2.05402">
        <ele>1208.8</ele>
        <time>2021-10-09 13:07:33</time>
      </trkpt>
      <trkpt lat="40.51302" lon="-2.05397">
        <ele>1208.8</ele>
        <time>2021-10-09 13:07:34</time>
      </trkpt>
      <trkpt lat="40.51299" lon="-2.05393">
        <ele>1209</ele>
        <time>2021-10-09 13:07:35</time>
      </trkpt>
      <trkpt lat="40.51296" lon="-2.0539">
        <ele>1209</ele>
        <time>2021-10-09 13:07:36</time>
      </trkpt>
      <trkpt lat="40.51293" lon="-2.05386">
        <ele>1209.4</ele>
        <time>2021-10-09 13:07:37</time>
      </trkpt>
      <trkpt lat="40.5129" lon="-2.05383">
        <ele>1209.4</ele>
        <time>2021-10-09 13:07:38</time>
      </trkpt>
      <trkpt lat="40.51287" lon="-2.05379">
        <ele>1209.6</ele>
        <time>2021-10-09 13:07:39</time>
      </trkpt>
      <trkpt lat="40.51284" lon="-2.05375">
        <ele>1209.6</ele>
        <time>2021-10-09 13:07:40</time>
      </trkpt>
      <trkpt lat="40.5128" lon="-2.05372">
        <ele>1209.6</ele>
        <time>2021-10-09 13:07:41</time>
      </trkpt>
      <trkpt lat="40.51276" lon="-2.05367">
        <ele>1209.2</ele>
        <time>2021-10-09 13:07:42</time>
      </trkpt>
      <trkpt lat="40.51274" lon="-2.05363">
        <ele>1209.8</ele>
        <time>2021-10-09 13:07:43</time>
      </trkpt>
      <trkpt lat="40.5127" lon="-2.05358">
        <ele>1210</ele>
        <time>2021-10-09 13:07:44</time>
      </trkpt>
      <trkpt lat="40.51267" lon="-2.05354">
        <ele>1209.4</ele>
        <time>2021-10-09 13:07:45</time>
      </trkpt>
      <trkpt lat="40.51267" lon="-2.05354">
        <ele>1209.8</ele>
        <time>2021-10-09 13:07:46</time>
      </trkpt>
      <trkpt lat="40.51253" lon="-2.05338">
        <ele>1210.4</ele>
        <time>2021-10-09 13:07:47</time>
      </trkpt>
      <trkpt lat="40.5125" lon="-2.05336">
        <ele>1210.4</ele>
        <time>2021-10-09 13:07:48</time>
      </trkpt>
      <trkpt lat="40.51247" lon="-2.05333">
        <ele>1210.4</ele>
        <time>2021-10-09 13:07:49</time>
      </trkpt>
      <trkpt lat="40.51244" lon="-2.05331">
        <ele>1210.4</ele>
        <time>2021-10-09 13:07:50</time>
      </trkpt>
      <trkpt lat="40.5124" lon="-2.05329">
        <ele>1210.6</ele>
        <time>2021-10-09 13:07:51</time>
      </trkpt>
      <trkpt lat="40.51236" lon="-2.05327">
        <ele>1210.6</ele>
        <time>2021-10-09 13:07:52</time>
      </trkpt>
      <trkpt lat="40.51232" lon="-2.05324">
        <ele>1210.6</ele>
        <time>2021-10-09 13:07:53</time>
      </trkpt>
      <trkpt lat="40.51227" lon="-2.05322">
        <ele>1210.6</ele>
        <time>2021-10-09 13:07:54</time>
      </trkpt>
      <trkpt lat="40.51222" lon="-2.05321">
        <ele>1210.6</ele>
        <time>2021-10-09 13:07:55</time>
      </trkpt>
      <trkpt lat="40.51216" lon="-2.0532">
        <ele>1210.6</ele>
        <time>2021-10-09 13:07:56</time>
      </trkpt>
      <trkpt lat="40.5121" lon="-2.05319">
        <ele>1210.2</ele>
        <time>2021-10-09 13:07:57</time>
      </trkpt>
      <trkpt lat="40.51203" lon="-2.05317">
        <ele>1210.2</ele>
        <time>2021-10-09 13:07:58</time>
      </trkpt>
      <trkpt lat="40.51197" lon="-2.05315">
        <ele>1210</ele>
        <time>2021-10-09 13:07:59</time>
      </trkpt>
      <trkpt lat="40.51191" lon="-2.05313">
        <ele>1210</ele>
        <time>2021-10-09 13:08:00</time>
      </trkpt>
      <trkpt lat="40.51185" lon="-2.0531">
        <ele>1209.6</ele>
        <time>2021-10-09 13:08:01</time>
      </trkpt>
      <trkpt lat="40.51179" lon="-2.05307">
        <ele>1209.6</ele>
        <time>2021-10-09 13:08:02</time>
      </trkpt>
      <trkpt lat="40.51179" lon="-2.05307">
        <ele>1209.2</ele>
        <time>2021-10-09 13:08:03</time>
      </trkpt>
      <trkpt lat="40.51169" lon="-2.053">
        <ele>1209.2</ele>
        <time>2021-10-09 13:08:04</time>
      </trkpt>
      <trkpt lat="40.51165" lon="-2.05296">
        <ele>1209.2</ele>
        <time>2021-10-09 13:08:05</time>
      </trkpt>
      <trkpt lat="40.51161" lon="-2.05291">
        <ele>1209.2</ele>
        <time>2021-10-09 13:08:06</time>
      </trkpt>
      <trkpt lat="40.51157" lon="-2.05286">
        <ele>1209.2</ele>
        <time>2021-10-09 13:08:07</time>
      </trkpt>
      <trkpt lat="40.51154" lon="-2.05281">
        <ele>1209.2</ele>
        <time>2021-10-09 13:08:08</time>
      </trkpt>
      <trkpt lat="40.51151" lon="-2.05276">
        <ele>1209.6</ele>
        <time>2021-10-09 13:08:09</time>
      </trkpt>
      <trkpt lat="40.51148" lon="-2.05272">
        <ele>1209.6</ele>
        <time>2021-10-09 13:08:10</time>
      </trkpt>
      <trkpt lat="40.51145" lon="-2.05267">
        <ele>1210</ele>
        <time>2021-10-09 13:08:11</time>
      </trkpt>
      <trkpt lat="40.51143" lon="-2.05262">
        <ele>1210</ele>
        <time>2021-10-09 13:08:12</time>
      </trkpt>
      <trkpt lat="40.51141" lon="-2.05257">
        <ele>1210.2</ele>
        <time>2021-10-09 13:08:13</time>
      </trkpt>
      <trkpt lat="40.51138" lon="-2.05252">
        <ele>1210.2</ele>
        <time>2021-10-09 13:08:14</time>
      </trkpt>
      <trkpt lat="40.51136" lon="-2.05246">
        <ele>1210.6</ele>
        <time>2021-10-09 13:08:15</time>
      </trkpt>
      <trkpt lat="40.51133" lon="-2.05242">
        <ele>1210.6</ele>
        <time>2021-10-09 13:08:16</time>
      </trkpt>
      <trkpt lat="40.51131" lon="-2.05236">
        <ele>1210.8</ele>
        <time>2021-10-09 13:08:17</time>
      </trkpt>
      <trkpt lat="40.51129" lon="-2.05231">
        <ele>1210.8</ele>
        <time>2021-10-09 13:08:18</time>
      </trkpt>
      <trkpt lat="40.51127" lon="-2.05226">
        <ele>1211.2</ele>
        <time>2021-10-09 13:08:19</time>
      </trkpt>
      <trkpt lat="40.51125" lon="-2.05221">
        <ele>1211.2</ele>
        <time>2021-10-09 13:08:20</time>
      </trkpt>
      <trkpt lat="40.51123" lon="-2.05216">
        <ele>1211.4</ele>
        <time>2021-10-09 13:08:21</time>
      </trkpt>
      <trkpt lat="40.51121" lon="-2.05211">
        <ele>1211.4</ele>
        <time>2021-10-09 13:08:22</time>
      </trkpt>
      <trkpt lat="40.51118" lon="-2.05206">
        <ele>1211.8</ele>
        <time>2021-10-09 13:08:23</time>
      </trkpt>
      <trkpt lat="40.51117" lon="-2.05202">
        <ele>1212</ele>
        <time>2021-10-09 13:08:24</time>
      </trkpt>
      <trkpt lat="40.51114" lon="-2.05197">
        <ele>1212</ele>
        <time>2021-10-09 13:08:25</time>
      </trkpt>
      <trkpt lat="40.51113" lon="-2.05192">
        <ele>1212.4</ele>
        <time>2021-10-09 13:08:26</time>
      </trkpt>
      <trkpt lat="40.51111" lon="-2.05187">
        <ele>1212.4</ele>
        <time>2021-10-09 13:08:27</time>
      </trkpt>
      <trkpt lat="40.51109" lon="-2.05183">
        <ele>1212.6</ele>
        <time>2021-10-09 13:08:28</time>
      </trkpt>
      <trkpt lat="40.51107" lon="-2.05178">
        <ele>1212.6</ele>
        <time>2021-10-09 13:08:29</time>
      </trkpt>
      <trkpt lat="40.51104" lon="-2.05173">
        <ele>1212.6</ele>
        <time>2021-10-09 13:08:30</time>
      </trkpt>
      <trkpt lat="40.51102" lon="-2.05168">
        <ele>1213</ele>
        <time>2021-10-09 13:08:31</time>
      </trkpt>
      <trkpt lat="40.511" lon="-2.05163">
        <ele>1213</ele>
        <time>2021-10-09 13:08:32</time>
      </trkpt>
      <trkpt lat="40.51097" lon="-2.05157">
        <ele>1213</ele>
        <time>2021-10-09 13:08:33</time>
      </trkpt>
      <trkpt lat="40.51095" lon="-2.05152">
        <ele>1213.2</ele>
        <time>2021-10-09 13:08:34</time>
      </trkpt>
      <trkpt lat="40.51093" lon="-2.05146">
        <ele>1213.2</ele>
        <time>2021-10-09 13:08:35</time>
      </trkpt>
      <trkpt lat="40.51092" lon="-2.05141">
        <ele>1213.2</ele>
        <time>2021-10-09 13:08:36</time>
      </trkpt>
      <trkpt lat="40.5109" lon="-2.05136">
        <ele>1213.2</ele>
        <time>2021-10-09 13:08:37</time>
      </trkpt>
      <trkpt lat="40.51087" lon="-2.0513">
        <ele>1213.4</ele>
        <time>2021-10-09 13:08:38</time>
      </trkpt>
      <trkpt lat="40.51084" lon="-2.05126">
        <ele>1213.4</ele>
        <time>2021-10-09 13:08:39</time>
      </trkpt>
      <trkpt lat="40.51082" lon="-2.05121">
        <ele>1213.4</ele>
        <time>2021-10-09 13:08:40</time>
      </trkpt>
      <trkpt lat="40.5108" lon="-2.05116">
        <ele>1213.8</ele>
        <time>2021-10-09 13:08:41</time>
      </trkpt>
      <trkpt lat="40.51077" lon="-2.05112">
        <ele>1214</ele>
        <time>2021-10-09 13:08:42</time>
      </trkpt>
      <trkpt lat="40.51075" lon="-2.05108">
        <ele>1214</ele>
        <time>2021-10-09 13:08:43</time>
      </trkpt>
      <trkpt lat="40.51073" lon="-2.05103">
        <ele>1214.4</ele>
        <time>2021-10-09 13:08:44</time>
      </trkpt>
      <trkpt lat="40.51071" lon="-2.05098">
        <ele>1214.4</ele>
        <time>2021-10-09 13:08:45</time>
      </trkpt>
      <trkpt lat="40.5107" lon="-2.05094">
        <ele>1214.8</ele>
        <time>2021-10-09 13:08:46</time>
      </trkpt>
      <trkpt lat="40.51068" lon="-2.0509">
        <ele>1214.8</ele>
        <time>2021-10-09 13:08:47</time>
      </trkpt>
      <trkpt lat="40.51068" lon="-2.05086">
        <ele>1215.2</ele>
        <time>2021-10-09 13:08:48</time>
      </trkpt>
      <trkpt lat="40.51067" lon="-2.05082">
        <ele>1215.2</ele>
        <time>2021-10-09 13:08:49</time>
      </trkpt>
      <trkpt lat="40.51067" lon="-2.05078">
        <ele>1215.6</ele>
        <time>2021-10-09 13:08:50</time>
      </trkpt>
      <trkpt lat="40.51067" lon="-2.05074">
        <ele>1215.6</ele>
        <time>2021-10-09 13:08:51</time>
      </trkpt>
      <trkpt lat="40.51067" lon="-2.0507">
        <ele>1216</ele>
        <time>2021-10-09 13:08:52</time>
      </trkpt>
      <trkpt lat="40.51068" lon="-2.05067">
        <ele>1216.2</ele>
        <time>2021-10-09 13:08:53</time>
      </trkpt>
      <trkpt lat="40.51068" lon="-2.05064">
        <ele>1216.4</ele>
        <time>2021-10-09 13:08:54</time>
      </trkpt>
      <trkpt lat="40.51069" lon="-2.05061">
        <ele>1216.6</ele>
        <time>2021-10-09 13:08:55</time>
      </trkpt>
      <trkpt lat="40.51069" lon="-2.05058">
        <ele>1216.8</ele>
        <time>2021-10-09 13:08:56</time>
      </trkpt>
      <trkpt lat="40.5107" lon="-2.05055">
        <ele>1217.2</ele>
        <time>2021-10-09 13:08:57</time>
      </trkpt>
      <trkpt lat="40.5107" lon="-2.05052">
        <ele>1217.4</ele>
        <time>2021-10-09 13:08:58</time>
      </trkpt>
      <trkpt lat="40.51071" lon="-2.05048">
        <ele>1217.8</ele>
        <time>2021-10-09 13:08:59</time>
      </trkpt>
      <trkpt lat="40.51071" lon="-2.05045">
        <ele>1218</ele>
        <time>2021-10-09 13:09:00</time>
      </trkpt>
      <trkpt lat="40.51072" lon="-2.05041">
        <ele>1218.4</ele>
        <time>2021-10-09 13:09:01</time>
      </trkpt>
      <trkpt lat="40.51072" lon="-2.05038">
        <ele>1218.6</ele>
        <time>2021-10-09 13:09:02</time>
      </trkpt>
      <trkpt lat="40.51072" lon="-2.05035">
        <ele>1218.6</ele>
        <time>2021-10-09 13:09:03</time>
      </trkpt>
      <trkpt lat="40.51072" lon="-2.05032">
        <ele>1219</ele>
        <time>2021-10-09 13:09:04</time>
      </trkpt>
      <trkpt lat="40.51072" lon="-2.05029">
        <ele>1219</ele>
        <time>2021-10-09 13:09:05</time>
      </trkpt>
      <trkpt lat="40.51071" lon="-2.05026">
        <ele>1219.2</ele>
        <time>2021-10-09 13:09:06</time>
      </trkpt>
      <trkpt lat="40.51069" lon="-2.05024">
        <ele>1219.2</ele>
        <time>2021-10-09 13:09:07</time>
      </trkpt>
      <trkpt lat="40.51068" lon="-2.05021">
        <ele>1219.4</ele>
        <time>2021-10-09 13:09:08</time>
      </trkpt>
      <trkpt lat="40.51065" lon="-2.05019">
        <ele>1219.4</ele>
        <time>2021-10-09 13:09:09</time>
      </trkpt>
      <trkpt lat="40.51063" lon="-2.05018">
        <ele>1219.4</ele>
        <time>2021-10-09 13:09:10</time>
      </trkpt>
      <trkpt lat="40.51061" lon="-2.05016">
        <ele>1219.8</ele>
        <time>2021-10-09 13:09:11</time>
      </trkpt>
      <trkpt lat="40.51059" lon="-2.05014">
        <ele>1219.8</ele>
        <time>2021-10-09 13:09:12</time>
      </trkpt>
      <trkpt lat="40.51056" lon="-2.05013">
        <ele>1219.8</ele>
        <time>2021-10-09 13:09:13</time>
      </trkpt>
      <trkpt lat="40.51054" lon="-2.05012">
        <ele>1220</ele>
        <time>2021-10-09 13:09:14</time>
      </trkpt>
      <trkpt lat="40.51051" lon="-2.0501">
        <ele>1220</ele>
        <time>2021-10-09 13:09:15</time>
      </trkpt>
      <trkpt lat="40.51049" lon="-2.05009">
        <ele>1220</ele>
        <time>2021-10-09 13:09:16</time>
      </trkpt>
      <trkpt lat="40.51046" lon="-2.05007">
        <ele>1220</ele>
        <time>2021-10-09 13:09:17</time>
      </trkpt>
      <trkpt lat="40.51044" lon="-2.05005">
        <ele>1220</ele>
        <time>2021-10-09 13:09:18</time>
      </trkpt>
      <trkpt lat="40.51041" lon="-2.05003">
        <ele>1220</ele>
        <time>2021-10-09 13:09:19</time>
      </trkpt>
      <trkpt lat="40.51038" lon="-2.05001">
        <ele>1220</ele>
        <time>2021-10-09 13:09:20</time>
      </trkpt>
      <trkpt lat="40.51035" lon="-2.04997">
        <ele>1219.8</ele>
        <time>2021-10-09 13:09:21</time>
      </trkpt>
      <trkpt lat="40.51033" lon="-2.04993">
        <ele>1219.8</ele>
        <time>2021-10-09 13:09:22</time>
      </trkpt>
      <trkpt lat="40.5103" lon="-2.04988">
        <ele>1219.6</ele>
        <time>2021-10-09 13:09:23</time>
      </trkpt>
      <trkpt lat="40.51028" lon="-2.04983">
        <ele>1219.6</ele>
        <time>2021-10-09 13:09:24</time>
      </trkpt>
      <trkpt lat="40.51025" lon="-2.04978">
        <ele>1219.2</ele>
        <time>2021-10-09 13:09:25</time>
      </trkpt>
      <trkpt lat="40.51022" lon="-2.04972">
        <ele>1219.2</ele>
        <time>2021-10-09 13:09:26</time>
      </trkpt>
      <trkpt lat="40.51019" lon="-2.04966">
        <ele>1219</ele>
        <time>2021-10-09 13:09:27</time>
      </trkpt>
      <trkpt lat="40.51015" lon="-2.0496">
        <ele>1219</ele>
        <time>2021-10-09 13:09:28</time>
      </trkpt>
      <trkpt lat="40.51012" lon="-2.04953">
        <ele>1218.6</ele>
        <time>2021-10-09 13:09:29</time>
      </trkpt>
      <trkpt lat="40.51009" lon="-2.04946">
        <ele>1218.6</ele>
        <time>2021-10-09 13:09:30</time>
      </trkpt>
      <trkpt lat="40.51006" lon="-2.04938">
        <ele>1218.4</ele>
        <time>2021-10-09 13:09:31</time>
      </trkpt>
      <trkpt lat="40.51003" lon="-2.0493">
        <ele>1218.4</ele>
        <time>2021-10-09 13:09:32</time>
      </trkpt>
      <trkpt lat="40.50999" lon="-2.04923">
        <ele>1218</ele>
        <time>2021-10-09 13:09:33</time>
      </trkpt>
      <trkpt lat="40.50995" lon="-2.04916">
        <ele>1217.8</ele>
        <time>2021-10-09 13:09:34</time>
      </trkpt>
      <trkpt lat="40.5099" lon="-2.04908">
        <ele>1217.8</ele>
        <time>2021-10-09 13:09:35</time>
      </trkpt>
      <trkpt lat="40.50985" lon="-2.04902">
        <ele>1217.8</ele>
        <time>2021-10-09 13:09:36</time>
      </trkpt>
      <trkpt lat="40.50981" lon="-2.04897">
        <ele>1217.4</ele>
        <time>2021-10-09 13:09:37</time>
      </trkpt>
      <trkpt lat="40.50976" lon="-2.04892">
        <ele>1217.4</ele>
        <time>2021-10-09 13:09:38</time>
      </trkpt>
      <trkpt lat="40.50973" lon="-2.04886">
        <ele>1217.4</ele>
        <time>2021-10-09 13:09:39</time>
      </trkpt>
      <trkpt lat="40.50969" lon="-2.04879">
        <ele>1217.4</ele>
        <time>2021-10-09 13:09:40</time>
      </trkpt>
      <trkpt lat="40.50965" lon="-2.04872">
        <ele>1217.2</ele>
        <time>2021-10-09 13:09:41</time>
      </trkpt>
      <trkpt lat="40.50961" lon="-2.04863">
        <ele>1217.2</ele>
        <time>2021-10-09 13:09:42</time>
      </trkpt>
      <trkpt lat="40.50957" lon="-2.04855">
        <ele>1217</ele>
        <time>2021-10-09 13:09:43</time>
      </trkpt>
      <trkpt lat="40.50953" lon="-2.04847">
        <ele>1217</ele>
        <time>2021-10-09 13:09:44</time>
      </trkpt>
      <trkpt lat="40.50948" lon="-2.0484">
        <ele>1217</ele>
        <time>2021-10-09 13:09:45</time>
      </trkpt>
      <trkpt lat="40.50942" lon="-2.04833">
        <ele>1217</ele>
        <time>2021-10-09 13:09:46</time>
      </trkpt>
      <trkpt lat="40.50935" lon="-2.04828">
        <ele>1217</ele>
        <time>2021-10-09 13:09:47</time>
      </trkpt>
      <trkpt lat="40.50929" lon="-2.04823">
        <ele>1217</ele>
        <time>2021-10-09 13:09:48</time>
      </trkpt>
      <trkpt lat="40.50923" lon="-2.04817">
        <ele>1217</ele>
        <time>2021-10-09 13:09:49</time>
      </trkpt>
      <trkpt lat="40.50917" lon="-2.0481">
        <ele>1217</ele>
        <time>2021-10-09 13:09:50</time>
      </trkpt>
      <trkpt lat="40.5091" lon="-2.04803">
        <ele>1216.6</ele>
        <time>2021-10-09 13:09:51</time>
      </trkpt>
      <trkpt lat="40.50903" lon="-2.04795">
        <ele>1216.2</ele>
        <time>2021-10-09 13:09:52</time>
      </trkpt>
      <trkpt lat="40.50895" lon="-2.04788">
        <ele>1215.8</ele>
        <time>2021-10-09 13:09:53</time>
      </trkpt>
      <trkpt lat="40.50888" lon="-2.04779">
        <ele>1215.4</ele>
        <time>2021-10-09 13:09:54</time>
      </trkpt>
      <trkpt lat="40.50881" lon="-2.04769">
        <ele>1215</ele>
        <time>2021-10-09 13:09:55</time>
      </trkpt>
      <trkpt lat="40.50875" lon="-2.04759">
        <ele>1214.6</ele>
        <time>2021-10-09 13:09:56</time>
      </trkpt>
      <trkpt lat="40.50868" lon="-2.04748">
        <ele>1214.2</ele>
        <time>2021-10-09 13:09:57</time>
      </trkpt>
      <trkpt lat="40.50863" lon="-2.04737">
        <ele>1213.8</ele>
        <time>2021-10-09 13:09:58</time>
      </trkpt>
      <trkpt lat="40.50859" lon="-2.04724">
        <ele>1213.4</ele>
        <time>2021-10-09 13:09:59</time>
      </trkpt>
      <trkpt lat="40.50856" lon="-2.04711">
        <ele>1212.8</ele>
        <time>2021-10-09 13:10:00</time>
      </trkpt>
      <trkpt lat="40.50851" lon="-2.047">
        <ele>1212.6</ele>
        <time>2021-10-09 13:10:01</time>
      </trkpt>
      <trkpt lat="40.50846" lon="-2.0469">
        <ele>1212.2</ele>
        <time>2021-10-09 13:10:02</time>
      </trkpt>
      <trkpt lat="40.50842" lon="-2.04679">
        <ele>1212</ele>
        <time>2021-10-09 13:10:03</time>
      </trkpt>
      <trkpt lat="40.50838" lon="-2.04669">
        <ele>1212</ele>
        <time>2021-10-09 13:10:04</time>
      </trkpt>
      <trkpt lat="40.50834" lon="-2.0466">
        <ele>1212</ele>
        <time>2021-10-09 13:10:05</time>
      </trkpt>
      <trkpt lat="40.5083" lon="-2.0465">
        <ele>1212</ele>
        <time>2021-10-09 13:10:06</time>
      </trkpt>
      <trkpt lat="40.50826" lon="-2.04641">
        <ele>1212</ele>
        <time>2021-10-09 13:10:07</time>
      </trkpt>
      <trkpt lat="40.50821" lon="-2.04633">
        <ele>1212.2</ele>
        <time>2021-10-09 13:10:08</time>
      </trkpt>
      <trkpt lat="40.50817" lon="-2.04625">
        <ele>1212.2</ele>
        <time>2021-10-09 13:10:09</time>
      </trkpt>
      <trkpt lat="40.50814" lon="-2.04618">
        <ele>1212.6</ele>
        <time>2021-10-09 13:10:10</time>
      </trkpt>
      <trkpt lat="40.5081" lon="-2.04611">
        <ele>1212.6</ele>
        <time>2021-10-09 13:10:11</time>
      </trkpt>
      <trkpt lat="40.50806" lon="-2.04605">
        <ele>1212.6</ele>
        <time>2021-10-09 13:10:12</time>
      </trkpt>
      <trkpt lat="40.50801" lon="-2.04599">
        <ele>1212.6</ele>
        <time>2021-10-09 13:10:13</time>
      </trkpt>
      <trkpt lat="40.50797" lon="-2.04592">
        <ele>1212.6</ele>
        <time>2021-10-09 13:10:14</time>
      </trkpt>
      <trkpt lat="40.50792" lon="-2.04586">
        <ele>1212.6</ele>
        <time>2021-10-09 13:10:15</time>
      </trkpt>
      <trkpt lat="40.50788" lon="-2.04579">
        <ele>1212.6</ele>
        <time>2021-10-09 13:10:16</time>
      </trkpt>
      <trkpt lat="40.50784" lon="-2.04572">
        <ele>1212.2</ele>
        <time>2021-10-09 13:10:17</time>
      </trkpt>
      <trkpt lat="40.50779" lon="-2.04566">
        <ele>1212.2</ele>
        <time>2021-10-09 13:10:18</time>
      </trkpt>
      <trkpt lat="40.50775" lon="-2.04561">
        <ele>1212.2</ele>
        <time>2021-10-09 13:10:19</time>
      </trkpt>
      <trkpt lat="40.50771" lon="-2.04555">
        <ele>1212.2</ele>
        <time>2021-10-09 13:10:20</time>
      </trkpt>
      <trkpt lat="40.50766" lon="-2.0455">
        <ele>1212.2</ele>
        <time>2021-10-09 13:10:21</time>
      </trkpt>
      <trkpt lat="40.5076" lon="-2.04544">
        <ele>1212.2</ele>
        <time>2021-10-09 13:10:22</time>
      </trkpt>
      <trkpt lat="40.50754" lon="-2.04538">
        <ele>1212</ele>
        <time>2021-10-09 13:10:23</time>
      </trkpt>
      <trkpt lat="40.50748" lon="-2.04533">
        <ele>1212</ele>
        <time>2021-10-09 13:10:24</time>
      </trkpt>
      <trkpt lat="40.50742" lon="-2.04526">
        <ele>1212</ele>
        <time>2021-10-09 13:10:25</time>
      </trkpt>
      <trkpt lat="40.50736" lon="-2.04519">
        <ele>1211.8</ele>
        <time>2021-10-09 13:10:26</time>
      </trkpt>
      <trkpt lat="40.50731" lon="-2.04511">
        <ele>1211.8</ele>
        <time>2021-10-09 13:10:27</time>
      </trkpt>
      <trkpt lat="40.50724" lon="-2.04504">
        <ele>1211.4</ele>
        <time>2021-10-09 13:10:28</time>
      </trkpt>
      <trkpt lat="40.50717" lon="-2.04496">
        <ele>1211</ele>
        <time>2021-10-09 13:10:29</time>
      </trkpt>
      <trkpt lat="40.50709" lon="-2.0449">
        <ele>1210.8</ele>
        <time>2021-10-09 13:10:30</time>
      </trkpt>
      <trkpt lat="40.50701" lon="-2.04483">
        <ele>1210.8</ele>
        <time>2021-10-09 13:10:31</time>
      </trkpt>
      <trkpt lat="40.50694" lon="-2.04476">
        <ele>1210.8</ele>
        <time>2021-10-09 13:10:32</time>
      </trkpt>
      <trkpt lat="40.50688" lon="-2.04469">
        <ele>1210.6</ele>
        <time>2021-10-09 13:10:33</time>
      </trkpt>
      <trkpt lat="40.50682" lon="-2.04462">
        <ele>1210.6</ele>
        <time>2021-10-09 13:10:34</time>
      </trkpt>
      <trkpt lat="40.50675" lon="-2.04457">
        <ele>1210.6</ele>
        <time>2021-10-09 13:10:35</time>
      </trkpt>
      <trkpt lat="40.50668" lon="-2.04453">
        <ele>1210.2</ele>
        <time>2021-10-09 13:10:36</time>
      </trkpt>
      <trkpt lat="40.50661" lon="-2.04449">
        <ele>1210.2</ele>
        <time>2021-10-09 13:10:37</time>
      </trkpt>
      <trkpt lat="40.50653" lon="-2.04444">
        <ele>1210</ele>
        <time>2021-10-09 13:10:38</time>
      </trkpt>
      <trkpt lat="40.50647" lon="-2.04438">
        <ele>1210</ele>
        <time>2021-10-09 13:10:39</time>
      </trkpt>
      <trkpt lat="40.5064" lon="-2.04432">
        <ele>1210</ele>
        <time>2021-10-09 13:10:40</time>
      </trkpt>
      <trkpt lat="40.50634" lon="-2.04427">
        <ele>1210</ele>
        <time>2021-10-09 13:10:41</time>
      </trkpt>
      <trkpt lat="40.50629" lon="-2.04421">
        <ele>1210</ele>
        <time>2021-10-09 13:10:42</time>
      </trkpt>
      <trkpt lat="40.50624" lon="-2.04415">
        <ele>1210</ele>
        <time>2021-10-09 13:10:43</time>
      </trkpt>
      <trkpt lat="40.5062" lon="-2.0441">
        <ele>1210.2</ele>
        <time>2021-10-09 13:10:44</time>
      </trkpt>
      <trkpt lat="40.50616" lon="-2.04406">
        <ele>1210.2</ele>
        <time>2021-10-09 13:10:45</time>
      </trkpt>
      <trkpt lat="40.50613" lon="-2.04401">
        <ele>1210.4</ele>
        <time>2021-10-09 13:10:46</time>
      </trkpt>
      <trkpt lat="40.5061" lon="-2.04396">
        <ele>1210.4</ele>
        <time>2021-10-09 13:10:47</time>
      </trkpt>
      <trkpt lat="40.50607" lon="-2.04392">
        <ele>1210.4</ele>
        <time>2021-10-09 13:10:48</time>
      </trkpt>
      <trkpt lat="40.50604" lon="-2.04388">
        <ele>1210.4</ele>
        <time>2021-10-09 13:10:49</time>
      </trkpt>
      <trkpt lat="40.50601" lon="-2.04385">
        <ele>1210.4</ele>
        <time>2021-10-09 13:10:50</time>
      </trkpt>
      <trkpt lat="40.50597" lon="-2.04381">
        <ele>1210.8</ele>
        <time>2021-10-09 13:10:51</time>
      </trkpt>
      <trkpt lat="40.50595" lon="-2.04378">
        <ele>1210.8</ele>
        <time>2021-10-09 13:10:52</time>
      </trkpt>
      <trkpt lat="40.50592" lon="-2.04374">
        <ele>1210.8</ele>
        <time>2021-10-09 13:10:53</time>
      </trkpt>
      <trkpt lat="40.50588" lon="-2.04371">
        <ele>1210.8</ele>
        <time>2021-10-09 13:10:54</time>
      </trkpt>
      <trkpt lat="40.50588" lon="-2.04371">
        <ele>1211</ele>
        <time>2021-10-09 13:10:55</time>
      </trkpt>
      <trkpt lat="40.50582" lon="-2.04364">
        <ele>1211</ele>
        <time>2021-10-09 13:10:56</time>
      </trkpt>
      <trkpt lat="40.50579" lon="-2.04361">
        <ele>1211.2</ele>
        <time>2021-10-09 13:10:57</time>
      </trkpt>
      <trkpt lat="40.50576" lon="-2.04358">
        <ele>1211.2</ele>
        <time>2021-10-09 13:10:58</time>
      </trkpt>
      <trkpt lat="40.50573" lon="-2.04355">
        <ele>1211.2</ele>
        <time>2021-10-09 13:10:59</time>
      </trkpt>
      <trkpt lat="40.5057" lon="-2.04352">
        <ele>1211.2</ele>
        <time>2021-10-09 13:11:00</time>
      </trkpt>
      <trkpt lat="40.50566" lon="-2.04348">
        <ele>1211.2</ele>
        <time>2021-10-09 13:11:01</time>
      </trkpt>
      <trkpt lat="40.50563" lon="-2.04344">
        <ele>1211.2</ele>
        <time>2021-10-09 13:11:02</time>
      </trkpt>
      <trkpt lat="40.5056" lon="-2.04342">
        <ele>1211.6</ele>
        <time>2021-10-09 13:11:03</time>
      </trkpt>
      <trkpt lat="40.50557" lon="-2.04339">
        <ele>1211.8</ele>
        <time>2021-10-09 13:11:04</time>
      </trkpt>
      <trkpt lat="40.50554" lon="-2.04336">
        <ele>1212</ele>
        <time>2021-10-09 13:11:05</time>
      </trkpt>
      <trkpt lat="40.50552" lon="-2.04333">
        <ele>1212</ele>
        <time>2021-10-09 13:11:06</time>
      </trkpt>
      <trkpt lat="40.50549" lon="-2.0433">
        <ele>1212.4</ele>
        <time>2021-10-09 13:11:07</time>
      </trkpt>
      <trkpt lat="40.50546" lon="-2.04327">
        <ele>1212.4</ele>
        <time>2021-10-09 13:11:08</time>
      </trkpt>
      <trkpt lat="40.50543" lon="-2.04324">
        <ele>1212.8</ele>
        <time>2021-10-09 13:11:09</time>
      </trkpt>
      <trkpt lat="40.5054" lon="-2.04321">
        <ele>1213</ele>
        <time>2021-10-09 13:11:10</time>
      </trkpt>
      <trkpt lat="40.50537" lon="-2.04318">
        <ele>1213.2</ele>
        <time>2021-10-09 13:11:11</time>
      </trkpt>
      <trkpt lat="40.50535" lon="-2.04316">
        <ele>1213.2</ele>
        <time>2021-10-09 13:11:12</time>
      </trkpt>
      <trkpt lat="40.50532" lon="-2.04314">
        <ele>1213.6</ele>
        <time>2021-10-09 13:11:13</time>
      </trkpt>
      <trkpt lat="40.50529" lon="-2.04313">
        <ele>1213.6</ele>
        <time>2021-10-09 13:11:14</time>
      </trkpt>
      <trkpt lat="40.50527" lon="-2.04311">
        <ele>1214</ele>
        <time>2021-10-09 13:11:15</time>
      </trkpt>
      <trkpt lat="40.50524" lon="-2.0431">
        <ele>1214</ele>
        <time>2021-10-09 13:11:16</time>
      </trkpt>
      <trkpt lat="40.50521" lon="-2.04309">
        <ele>1214.4</ele>
        <time>2021-10-09 13:11:17</time>
      </trkpt>
      <trkpt lat="40.50519" lon="-2.04308">
        <ele>1214.4</ele>
        <time>2021-10-09 13:11:18</time>
      </trkpt>
      <trkpt lat="40.50516" lon="-2.04306">
        <ele>1214.8</ele>
        <time>2021-10-09 13:11:19</time>
      </trkpt>
      <trkpt lat="40.50514" lon="-2.04306">
        <ele>1214.8</ele>
        <time>2021-10-09 13:11:20</time>
      </trkpt>
      <trkpt lat="40.50511" lon="-2.04305">
        <ele>1215</ele>
        <time>2021-10-09 13:11:21</time>
      </trkpt>
      <trkpt lat="40.50508" lon="-2.04304">
        <ele>1215</ele>
        <time>2021-10-09 13:11:22</time>
      </trkpt>
      <trkpt lat="40.50505" lon="-2.04302">
        <ele>1215.2</ele>
        <time>2021-10-09 13:11:23</time>
      </trkpt>
      <trkpt lat="40.50503" lon="-2.04301">
        <ele>1215.2</ele>
        <time>2021-10-09 13:11:24</time>
      </trkpt>
      <trkpt lat="40.505" lon="-2.043">
        <ele>1215.4</ele>
        <time>2021-10-09 13:11:25</time>
      </trkpt>
      <trkpt lat="40.50497" lon="-2.04298">
        <ele>1215.4</ele>
        <time>2021-10-09 13:11:26</time>
      </trkpt>
      <trkpt lat="40.50494" lon="-2.04297">
        <ele>1215.4</ele>
        <time>2021-10-09 13:11:27</time>
      </trkpt>
      <trkpt lat="40.50492" lon="-2.04296">
        <ele>1215.4</ele>
        <time>2021-10-09 13:11:28</time>
      </trkpt>
      <trkpt lat="40.50489" lon="-2.04295">
        <ele>1215.8</ele>
        <time>2021-10-09 13:11:29</time>
      </trkpt>
      <trkpt lat="40.50486" lon="-2.04294">
        <ele>1215.8</ele>
        <time>2021-10-09 13:11:30</time>
      </trkpt>
      <trkpt lat="40.50483" lon="-2.04293">
        <ele>1216</ele>
        <time>2021-10-09 13:11:31</time>
      </trkpt>
      <trkpt lat="40.50481" lon="-2.04292">
        <ele>1216</ele>
        <time>2021-10-09 13:11:32</time>
      </trkpt>
      <trkpt lat="40.50478" lon="-2.04291">
        <ele>1216</ele>
        <time>2021-10-09 13:11:33</time>
      </trkpt>
      <trkpt lat="40.50475" lon="-2.0429">
        <ele>1216.2</ele>
        <time>2021-10-09 13:11:34</time>
      </trkpt>
      <trkpt lat="40.50471" lon="-2.0429">
        <ele>1216.2</ele>
        <time>2021-10-09 13:11:35</time>
      </trkpt>
      <trkpt lat="40.50468" lon="-2.04296">
        <ele>1216.2</ele>
        <time>2021-10-09 13:11:36</time>
      </trkpt>
      <trkpt lat="40.50464" lon="-2.04299">
        <ele>1216.4</ele>
        <time>2021-10-09 13:11:37</time>
      </trkpt>
      <trkpt lat="40.50459" lon="-2.04302">
        <ele>1216.4</ele>
        <time>2021-10-09 13:11:38</time>
      </trkpt>
      <trkpt lat="40.50455" lon="-2.04307">
        <ele>1216.4</ele>
        <time>2021-10-09 13:11:39</time>
      </trkpt>
      <trkpt lat="40.50449" lon="-2.04312">
        <ele>1216.4</ele>
        <time>2021-10-09 13:11:40</time>
      </trkpt>
      <trkpt lat="40.50443" lon="-2.04316">
        <ele>1216</ele>
        <time>2021-10-09 13:11:41</time>
      </trkpt>
      <trkpt lat="40.50437" lon="-2.04319">
        <ele>1215.8</ele>
        <time>2021-10-09 13:11:42</time>
      </trkpt>
      <trkpt lat="40.5043" lon="-2.04324">
        <ele>1215.4</ele>
        <time>2021-10-09 13:11:43</time>
      </trkpt>
      <trkpt lat="40.50423" lon="-2.04327">
        <ele>1215</ele>
        <time>2021-10-09 13:11:44</time>
      </trkpt>
      <trkpt lat="40.50416" lon="-2.0433">
        <ele>1214.8</ele>
        <time>2021-10-09 13:11:45</time>
      </trkpt>
      <trkpt lat="40.50408" lon="-2.04334">
        <ele>1214.4</ele>
        <time>2021-10-09 13:11:46</time>
      </trkpt>
      <trkpt lat="40.50399" lon="-2.04336">
        <ele>1214</ele>
        <time>2021-10-09 13:11:47</time>
      </trkpt>
      <trkpt lat="40.50391" lon="-2.04338">
        <ele>1213.6</ele>
        <time>2021-10-09 13:11:48</time>
      </trkpt>
      <trkpt lat="40.50381" lon="-2.04339">
        <ele>1213.2</ele>
        <time>2021-10-09 13:11:49</time>
      </trkpt>
      <trkpt lat="40.50372" lon="-2.04339">
        <ele>1212.8</ele>
        <time>2021-10-09 13:11:50</time>
      </trkpt>
      <trkpt lat="40.50363" lon="-2.04337">
        <ele>1212.4</ele>
        <time>2021-10-09 13:11:51</time>
      </trkpt>
      <trkpt lat="40.50353" lon="-2.04331">
        <ele>1212</ele>
        <time>2021-10-09 13:11:52</time>
      </trkpt>
      <trkpt lat="40.50345" lon="-2.04324">
        <ele>1211.6</ele>
        <time>2021-10-09 13:11:53</time>
      </trkpt>
      <trkpt lat="40.50338" lon="-2.04315">
        <ele>1211</ele>
        <time>2021-10-09 13:11:54</time>
      </trkpt>
      <trkpt lat="40.50331" lon="-2.04304">
        <ele>1210.6</ele>
        <time>2021-10-09 13:11:55</time>
      </trkpt>
      <trkpt lat="40.50326" lon="-2.04292">
        <ele>1210</ele>
        <time>2021-10-09 13:11:56</time>
      </trkpt>
      <trkpt lat="40.50322" lon="-2.04278">
        <ele>1209.2</ele>
        <time>2021-10-09 13:11:57</time>
      </trkpt>
      <trkpt lat="40.50319" lon="-2.04263">
        <ele>1208.6</ele>
        <time>2021-10-09 13:11:58</time>
      </trkpt>
      <trkpt lat="40.50315" lon="-2.04249">
        <ele>1208</ele>
        <time>2021-10-09 13:11:59</time>
      </trkpt>
      <trkpt lat="40.5031" lon="-2.04235">
        <ele>1207.4</ele>
        <time>2021-10-09 13:12:00</time>
      </trkpt>
      <trkpt lat="40.50303" lon="-2.04223">
        <ele>1207</ele>
        <time>2021-10-09 13:12:01</time>
      </trkpt>
      <trkpt lat="40.50295" lon="-2.04212">
        <ele>1206.6</ele>
        <time>2021-10-09 13:12:02</time>
      </trkpt>
      <trkpt lat="40.50287" lon="-2.04201">
        <ele>1206.4</ele>
        <time>2021-10-09 13:12:03</time>
      </trkpt>
      <trkpt lat="40.50278" lon="-2.04192">
        <ele>1206</ele>
        <time>2021-10-09 13:12:04</time>
      </trkpt>
      <trkpt lat="40.50269" lon="-2.04183">
        <ele>1206</ele>
        <time>2021-10-09 13:12:05</time>
      </trkpt>
      <trkpt lat="40.50261" lon="-2.04173">
        <ele>1205.6</ele>
        <time>2021-10-09 13:12:06</time>
      </trkpt>
      <trkpt lat="40.50253" lon="-2.04165">
        <ele>1205.6</ele>
        <time>2021-10-09 13:12:07</time>
      </trkpt>
      <trkpt lat="40.50246" lon="-2.04157">
        <ele>1205.6</ele>
        <time>2021-10-09 13:12:08</time>
      </trkpt>
      <trkpt lat="40.50238" lon="-2.04148">
        <ele>1205.4</ele>
        <time>2021-10-09 13:12:09</time>
      </trkpt>
      <trkpt lat="40.5023" lon="-2.04142">
        <ele>1205.4</ele>
        <time>2021-10-09 13:12:10</time>
      </trkpt>
      <trkpt lat="40.50221" lon="-2.04138">
        <ele>1205.4</ele>
        <time>2021-10-09 13:12:11</time>
      </trkpt>
      <trkpt lat="40.50213" lon="-2.04137">
        <ele>1205.4</ele>
        <time>2021-10-09 13:12:12</time>
      </trkpt>
      <trkpt lat="40.50205" lon="-2.04138">
        <ele>1205.4</ele>
        <time>2021-10-09 13:12:13</time>
      </trkpt>
      <trkpt lat="40.50197" lon="-2.0414">
        <ele>1205.2</ele>
        <time>2021-10-09 13:12:14</time>
      </trkpt>
      <trkpt lat="40.50189" lon="-2.04142">
        <ele>1205.2</ele>
        <time>2021-10-09 13:12:15</time>
      </trkpt>
      <trkpt lat="40.50181" lon="-2.04143">
        <ele>1205.2</ele>
        <time>2021-10-09 13:12:16</time>
      </trkpt>
      <trkpt lat="40.50175" lon="-2.04145">
        <ele>1205.2</ele>
        <time>2021-10-09 13:12:17</time>
      </trkpt>
      <trkpt lat="40.50168" lon="-2.04144">
        <ele>1205</ele>
        <time>2021-10-09 13:12:18</time>
      </trkpt>
      <trkpt lat="40.50161" lon="-2.04141">
        <ele>1205</ele>
        <time>2021-10-09 13:12:19</time>
      </trkpt>
      <trkpt lat="40.50156" lon="-2.04137">
        <ele>1204.6</ele>
        <time>2021-10-09 13:12:20</time>
      </trkpt>
      <trkpt lat="40.50151" lon="-2.04132">
        <ele>1204.6</ele>
        <time>2021-10-09 13:12:21</time>
      </trkpt>
      <trkpt lat="40.50147" lon="-2.04126">
        <ele>1204.6</ele>
        <time>2021-10-09 13:12:22</time>
      </trkpt>
      <trkpt lat="40.50143" lon="-2.0412">
        <ele>1204.6</ele>
        <time>2021-10-09 13:12:23</time>
      </trkpt>
      <trkpt lat="40.5014" lon="-2.04115">
        <ele>1204.6</ele>
        <time>2021-10-09 13:12:24</time>
      </trkpt>
      <trkpt lat="40.50137" lon="-2.04111">
        <ele>1204.6</ele>
        <time>2021-10-09 13:12:25</time>
      </trkpt>
      <trkpt lat="40.50133" lon="-2.04106">
        <ele>1204.6</ele>
        <time>2021-10-09 13:12:26</time>
      </trkpt>
      <trkpt lat="40.50131" lon="-2.04102">
        <ele>1204.6</ele>
        <time>2021-10-09 13:12:27</time>
      </trkpt>
      <trkpt lat="40.50128" lon="-2.04098">
        <ele>1204.8</ele>
        <time>2021-10-09 13:12:28</time>
      </trkpt>
      <trkpt lat="40.50126" lon="-2.04094">
        <ele>1204.8</ele>
        <time>2021-10-09 13:12:29</time>
      </trkpt>
      <trkpt lat="40.50125" lon="-2.04092">
        <ele>1205.2</ele>
        <time>2021-10-09 13:12:30</time>
      </trkpt>
      <trkpt lat="40.50123" lon="-2.04089">
        <ele>1205.2</ele>
        <time>2021-10-09 13:12:31</time>
      </trkpt>
      <trkpt lat="40.50121" lon="-2.04086">
        <ele>1205.6</ele>
        <time>2021-10-09 13:12:32</time>
      </trkpt>
      <trkpt lat="40.50119" lon="-2.04083">
        <ele>1205.6</ele>
        <time>2021-10-09 13:12:33</time>
      </trkpt>
      <trkpt lat="40.50117" lon="-2.04081">
        <ele>1205.8</ele>
        <time>2021-10-09 13:12:34</time>
      </trkpt>
      <trkpt lat="40.50116" lon="-2.04079">
        <ele>1205.8</ele>
        <time>2021-10-09 13:12:35</time>
      </trkpt>
      <trkpt lat="40.50114" lon="-2.04077">
        <ele>1206</ele>
        <time>2021-10-09 13:12:36</time>
      </trkpt>
      <trkpt lat="40.50112" lon="-2.04075">
        <ele>1206</ele>
        <time>2021-10-09 13:12:37</time>
      </trkpt>
      <trkpt lat="40.50111" lon="-2.04073">
        <ele>1206</ele>
        <time>2021-10-09 13:12:38</time>
      </trkpt>
      <trkpt lat="40.5011" lon="-2.04071">
        <ele>1206.2</ele>
        <time>2021-10-09 13:12:39</time>
      </trkpt>
      <trkpt lat="40.50109" lon="-2.04069">
        <ele>1206.2</ele>
        <time>2021-10-09 13:12:40</time>
      </trkpt>
      <trkpt lat="40.50107" lon="-2.04067">
        <ele>1206.6</ele>
        <time>2021-10-09 13:12:41</time>
      </trkpt>
      <trkpt lat="40.50106" lon="-2.04065">
        <ele>1206.6</ele>
        <time>2021-10-09 13:12:42</time>
      </trkpt>
      <trkpt lat="40.50104" lon="-2.04062">
        <ele>1206.8</ele>
        <time>2021-10-09 13:12:43</time>
      </trkpt>
      <trkpt lat="40.50103" lon="-2.04059">
        <ele>1206.8</ele>
        <time>2021-10-09 13:12:44</time>
      </trkpt>
      <trkpt lat="40.50101" lon="-2.04057">
        <ele>1206.8</ele>
        <time>2021-10-09 13:12:45</time>
      </trkpt>
      <trkpt lat="40.501" lon="-2.04054">
        <ele>1207.2</ele>
        <time>2021-10-09 13:12:46</time>
      </trkpt>
      <trkpt lat="40.50098" lon="-2.04052">
        <ele>1207.2</ele>
        <time>2021-10-09 13:12:47</time>
      </trkpt>
      <trkpt lat="40.50096" lon="-2.0405">
        <ele>1207.2</ele>
        <time>2021-10-09 13:12:48</time>
      </trkpt>
      <trkpt lat="40.50094" lon="-2.04048">
        <ele>1207.4</ele>
        <time>2021-10-09 13:12:49</time>
      </trkpt>
      <trkpt lat="40.50092" lon="-2.04047">
        <ele>1207.4</ele>
        <time>2021-10-09 13:12:50</time>
      </trkpt>
      <trkpt lat="40.5009" lon="-2.04045">
        <ele>1207.4</ele>
        <time>2021-10-09 13:12:51</time>
      </trkpt>
      <trkpt lat="40.50088" lon="-2.04043">
        <ele>1207.6</ele>
        <time>2021-10-09 13:12:52</time>
      </trkpt>
      <trkpt lat="40.50087" lon="-2.04041">
        <ele>1207.6</ele>
        <time>2021-10-09 13:12:53</time>
      </trkpt>
      <trkpt lat="40.50085" lon="-2.04038">
        <ele>1207.6</ele>
        <time>2021-10-09 13:12:54</time>
      </trkpt>
      <trkpt lat="40.50083" lon="-2.04036">
        <ele>1208</ele>
        <time>2021-10-09 13:12:55</time>
      </trkpt>
      <trkpt lat="40.50081" lon="-2.04034">
        <ele>1208</ele>
        <time>2021-10-09 13:12:56</time>
      </trkpt>
      <trkpt lat="40.50079" lon="-2.04031">
        <ele>1208</ele>
        <time>2021-10-09 13:12:57</time>
      </trkpt>
      <trkpt lat="40.50078" lon="-2.04029">
        <ele>1208.2</ele>
        <time>2021-10-09 13:12:58</time>
      </trkpt>
      <trkpt lat="40.50076" lon="-2.04027">
        <ele>1208.2</ele>
        <time>2021-10-09 13:12:59</time>
      </trkpt>
      <trkpt lat="40.50074" lon="-2.04025">
        <ele>1208.6</ele>
        <time>2021-10-09 13:13:00</time>
      </trkpt>
      <trkpt lat="40.50073" lon="-2.04022">
        <ele>1208.6</ele>
        <time>2021-10-09 13:13:01</time>
      </trkpt>
      <trkpt lat="40.50071" lon="-2.0402">
        <ele>1208.8</ele>
        <time>2021-10-09 13:13:02</time>
      </trkpt>
      <trkpt lat="40.50069" lon="-2.04018">
        <ele>1208.8</ele>
        <time>2021-10-09 13:13:03</time>
      </trkpt>
      <trkpt lat="40.50068" lon="-2.04015">
        <ele>1209</ele>
        <time>2021-10-09 13:13:04</time>
      </trkpt>
      <trkpt lat="40.50066" lon="-2.04013">
        <ele>1209</ele>
        <time>2021-10-09 13:13:05</time>
      </trkpt>
      <trkpt lat="40.50065" lon="-2.04011">
        <ele>1209.4</ele>
        <time>2021-10-09 13:13:06</time>
      </trkpt>
      <trkpt lat="40.50064" lon="-2.04009">
        <ele>1209.4</ele>
        <time>2021-10-09 13:13:07</time>
      </trkpt>
      <trkpt lat="40.50063" lon="-2.04007">
        <ele>1209.8</ele>
        <time>2021-10-09 13:13:08</time>
      </trkpt>
      <trkpt lat="40.50062" lon="-2.04005">
        <ele>1210.2</ele>
        <time>2021-10-09 13:13:09</time>
      </trkpt>
      <trkpt lat="40.5006" lon="-2.04003">
        <ele>1210.4</ele>
        <time>2021-10-09 13:13:10</time>
      </trkpt>
      <trkpt lat="40.50058" lon="-2.04">
        <ele>1210.4</ele>
        <time>2021-10-09 13:13:11</time>
      </trkpt>
      <trkpt lat="40.50057" lon="-2.03998">
        <ele>1210.4</ele>
        <time>2021-10-09 13:13:12</time>
      </trkpt>
      <trkpt lat="40.50056" lon="-2.03996">
        <ele>1210.4</ele>
        <time>2021-10-09 13:13:13</time>
      </trkpt>
      <trkpt lat="40.50055" lon="-2.03993">
        <ele>1210.8</ele>
        <time>2021-10-09 13:13:14</time>
      </trkpt>
      <trkpt lat="40.50053" lon="-2.03991">
        <ele>1211</ele>
        <time>2021-10-09 13:13:15</time>
      </trkpt>
      <trkpt lat="40.50052" lon="-2.03989">
        <ele>1211</ele>
        <time>2021-10-09 13:13:16</time>
      </trkpt>
      <trkpt lat="40.50051" lon="-2.03987">
        <ele>1211</ele>
        <time>2021-10-09 13:13:17</time>
      </trkpt>
      <trkpt lat="40.50049" lon="-2.03985">
        <ele>1210.4</ele>
        <time>2021-10-09 13:13:18</time>
      </trkpt>
      <trkpt lat="40.50048" lon="-2.03983">
        <ele>1211</ele>
        <time>2021-10-09 13:13:19</time>
      </trkpt>
      <trkpt lat="40.50046" lon="-2.03981">
        <ele>1211.4</ele>
        <time>2021-10-09 13:13:20</time>
      </trkpt>
      <trkpt lat="40.50044" lon="-2.03979">
        <ele>1211.6</ele>
        <time>2021-10-09 13:13:21</time>
      </trkpt>
      <trkpt lat="40.50043" lon="-2.03978">
        <ele>1211.6</ele>
        <time>2021-10-09 13:13:22</time>
      </trkpt>
      <trkpt lat="40.50041" lon="-2.03976">
        <ele>1212</ele>
        <time>2021-10-09 13:13:23</time>
      </trkpt>
      <trkpt lat="40.50039" lon="-2.03974">
        <ele>1212</ele>
        <time>2021-10-09 13:13:24</time>
      </trkpt>
      <trkpt lat="40.50038" lon="-2.03972">
        <ele>1212</ele>
        <time>2021-10-09 13:13:25</time>
      </trkpt>
      <trkpt lat="40.50036" lon="-2.03971">
        <ele>1212.2</ele>
        <time>2021-10-09 13:13:26</time>
      </trkpt>
      <trkpt lat="40.50034" lon="-2.03969">
        <ele>1212.2</ele>
        <time>2021-10-09 13:13:27</time>
      </trkpt>
      <trkpt lat="40.50033" lon="-2.03968">
        <ele>1212.6</ele>
        <time>2021-10-09 13:13:28</time>
      </trkpt>
      <trkpt lat="40.50031" lon="-2.03966">
        <ele>1212.6</ele>
        <time>2021-10-09 13:13:29</time>
      </trkpt>
      <trkpt lat="40.5003" lon="-2.03965">
        <ele>1212.8</ele>
        <time>2021-10-09 13:13:30</time>
      </trkpt>
      <trkpt lat="40.50028" lon="-2.03964">
        <ele>1212.8</ele>
        <time>2021-10-09 13:13:31</time>
      </trkpt>
      <trkpt lat="40.50026" lon="-2.03963">
        <ele>1213</ele>
        <time>2021-10-09 13:13:32</time>
      </trkpt>
      <trkpt lat="40.50025" lon="-2.03961">
        <ele>1213</ele>
        <time>2021-10-09 13:13:33</time>
      </trkpt>
      <trkpt lat="40.50023" lon="-2.0396">
        <ele>1213.4</ele>
        <time>2021-10-09 13:13:34</time>
      </trkpt>
      <trkpt lat="40.50022" lon="-2.03959">
        <ele>1213.4</ele>
        <time>2021-10-09 13:13:35</time>
      </trkpt>
      <trkpt lat="40.50021" lon="-2.03957">
        <ele>1213.8</ele>
        <time>2021-10-09 13:13:36</time>
      </trkpt>
      <trkpt lat="40.50019" lon="-2.03956">
        <ele>1214</ele>
        <time>2021-10-09 13:13:37</time>
      </trkpt>
      <trkpt lat="40.50018" lon="-2.03955">
        <ele>1214</ele>
        <time>2021-10-09 13:13:38</time>
      </trkpt>
      <trkpt lat="40.50016" lon="-2.03954">
        <ele>1214.2</ele>
        <time>2021-10-09 13:13:39</time>
      </trkpt>
      <trkpt lat="40.50015" lon="-2.03952">
        <ele>1214.2</ele>
        <time>2021-10-09 13:13:40</time>
      </trkpt>
      <trkpt lat="40.50013" lon="-2.03951">
        <ele>1214.4</ele>
        <time>2021-10-09 13:13:41</time>
      </trkpt>
      <trkpt lat="40.50011" lon="-2.03949">
        <ele>1214.6</ele>
        <time>2021-10-09 13:13:42</time>
      </trkpt>
      <trkpt lat="40.5001" lon="-2.03948">
        <ele>1214.6</ele>
        <time>2021-10-09 13:13:43</time>
      </trkpt>
      <trkpt lat="40.50008" lon="-2.03947">
        <ele>1215</ele>
        <time>2021-10-09 13:13:44</time>
      </trkpt>
      <trkpt lat="40.50006" lon="-2.03945">
        <ele>1215.4</ele>
        <time>2021-10-09 13:13:45</time>
      </trkpt>
      <trkpt lat="40.50004" lon="-2.03944">
        <ele>1215.6</ele>
        <time>2021-10-09 13:13:46</time>
      </trkpt>
      <trkpt lat="40.50003" lon="-2.03943">
        <ele>1215.6</ele>
        <time>2021-10-09 13:13:47</time>
      </trkpt>
      <trkpt lat="40.50001" lon="-2.03942">
        <ele>1215.8</ele>
        <time>2021-10-09 13:13:48</time>
      </trkpt>
      <trkpt lat="40.49999" lon="-2.0394">
        <ele>1215.8</ele>
        <time>2021-10-09 13:13:49</time>
      </trkpt>
      <trkpt lat="40.49998" lon="-2.03939">
        <ele>1216.2</ele>
        <time>2021-10-09 13:13:50</time>
      </trkpt>
      <trkpt lat="40.49996" lon="-2.03937">
        <ele>1216.2</ele>
        <time>2021-10-09 13:13:51</time>
      </trkpt>
      <trkpt lat="40.49995" lon="-2.03936">
        <ele>1216.4</ele>
        <time>2021-10-09 13:13:52</time>
      </trkpt>
      <trkpt lat="40.49993" lon="-2.03935">
        <ele>1216.4</ele>
        <time>2021-10-09 13:13:53</time>
      </trkpt>
      <trkpt lat="40.49992" lon="-2.03934">
        <ele>1216.8</ele>
        <time>2021-10-09 13:13:54</time>
      </trkpt>
      <trkpt lat="40.4999" lon="-2.03932">
        <ele>1216.8</ele>
        <time>2021-10-09 13:13:55</time>
      </trkpt>
      <trkpt lat="40.49989" lon="-2.0393">
        <ele>1217</ele>
        <time>2021-10-09 13:13:56</time>
      </trkpt>
      <trkpt lat="40.49987" lon="-2.03929">
        <ele>1217</ele>
        <time>2021-10-09 13:13:57</time>
      </trkpt>
      <trkpt lat="40.49985" lon="-2.03927">
        <ele>1217.2</ele>
        <time>2021-10-09 13:13:58</time>
      </trkpt>
      <trkpt lat="40.49984" lon="-2.03925">
        <ele>1217.2</ele>
        <time>2021-10-09 13:13:59</time>
      </trkpt>
      <trkpt lat="40.49982" lon="-2.03923">
        <ele>1217.4</ele>
        <time>2021-10-09 13:14:00</time>
      </trkpt>
      <trkpt lat="40.49981" lon="-2.03921">
        <ele>1217.4</ele>
        <time>2021-10-09 13:14:01</time>
      </trkpt>
      <trkpt lat="40.49979" lon="-2.03919">
        <ele>1217.6</ele>
        <time>2021-10-09 13:14:02</time>
      </trkpt>
      <trkpt lat="40.49978" lon="-2.03917">
        <ele>1217.6</ele>
        <time>2021-10-09 13:14:03</time>
      </trkpt>
      <trkpt lat="40.49976" lon="-2.03916">
        <ele>1218</ele>
        <time>2021-10-09 13:14:04</time>
      </trkpt>
      <trkpt lat="40.49975" lon="-2.03914">
        <ele>1218.2</ele>
        <time>2021-10-09 13:14:05</time>
      </trkpt>
      <trkpt lat="40.49974" lon="-2.03912">
        <ele>1218.2</ele>
        <time>2021-10-09 13:14:06</time>
      </trkpt>
      <trkpt lat="40.49973" lon="-2.0391">
        <ele>1218.4</ele>
        <time>2021-10-09 13:14:07</time>
      </trkpt>
      <trkpt lat="40.49971" lon="-2.03908">
        <ele>1218.4</ele>
        <time>2021-10-09 13:14:08</time>
      </trkpt>
      <trkpt lat="40.4997" lon="-2.03906">
        <ele>1218.4</ele>
        <time>2021-10-09 13:14:09</time>
      </trkpt>
      <trkpt lat="40.49969" lon="-2.03904">
        <ele>1218.8</ele>
        <time>2021-10-09 13:14:10</time>
      </trkpt>
      <trkpt lat="40.49968" lon="-2.03902">
        <ele>1218.8</ele>
        <time>2021-10-09 13:14:11</time>
      </trkpt>
      <trkpt lat="40.49967" lon="-2.039">
        <ele>1219.2</ele>
        <time>2021-10-09 13:14:12</time>
      </trkpt>
      <trkpt lat="40.49966" lon="-2.03898">
        <ele>1219.2</ele>
        <time>2021-10-09 13:14:13</time>
      </trkpt>
      <trkpt lat="40.49965" lon="-2.03896">
        <ele>1219.6</ele>
        <time>2021-10-09 13:14:14</time>
      </trkpt>
      <trkpt lat="40.49964" lon="-2.03894">
        <ele>1219.8</ele>
        <time>2021-10-09 13:14:15</time>
      </trkpt>
      <trkpt lat="40.49963" lon="-2.03892">
        <ele>1220</ele>
        <time>2021-10-09 13:14:16</time>
      </trkpt>
      <trkpt lat="40.49962" lon="-2.0389">
        <ele>1220.4</ele>
        <time>2021-10-09 13:14:17</time>
      </trkpt>
      <trkpt lat="40.49961" lon="-2.03888">
        <ele>1220.6</ele>
        <time>2021-10-09 13:14:18</time>
      </trkpt>
      <trkpt lat="40.4996" lon="-2.03886">
        <ele>1220.8</ele>
        <time>2021-10-09 13:14:19</time>
      </trkpt>
      <trkpt lat="40.49959" lon="-2.03884">
        <ele>1220.8</ele>
        <time>2021-10-09 13:14:20</time>
      </trkpt>
      <trkpt lat="40.49958" lon="-2.03882">
        <ele>1221.2</ele>
        <time>2021-10-09 13:14:21</time>
      </trkpt>
      <trkpt lat="40.49957" lon="-2.03879">
        <ele>1221.2</ele>
        <time>2021-10-09 13:14:22</time>
      </trkpt>
      <trkpt lat="40.49956" lon="-2.03877">
        <ele>1221.4</ele>
        <time>2021-10-09 13:14:23</time>
      </trkpt>
      <trkpt lat="40.49955" lon="-2.03875">
        <ele>1221.4</ele>
        <time>2021-10-09 13:14:24</time>
      </trkpt>
      <trkpt lat="40.49954" lon="-2.03872">
        <ele>1221.8</ele>
        <time>2021-10-09 13:14:25</time>
      </trkpt>
      <trkpt lat="40.49953" lon="-2.0387">
        <ele>1221.8</ele>
        <time>2021-10-09 13:14:26</time>
      </trkpt>
      <trkpt lat="40.49953" lon="-2.03867">
        <ele>1222</ele>
        <time>2021-10-09 13:14:27</time>
      </trkpt>
      <trkpt lat="40.49952" lon="-2.03865">
        <ele>1222</ele>
        <time>2021-10-09 13:14:28</time>
      </trkpt>
      <trkpt lat="40.49951" lon="-2.03862">
        <ele>1222.4</ele>
        <time>2021-10-09 13:14:29</time>
      </trkpt>
      <trkpt lat="40.4995" lon="-2.0386">
        <ele>1222.4</ele>
        <time>2021-10-09 13:14:30</time>
      </trkpt>
      <trkpt lat="40.4995" lon="-2.03858">
        <ele>1222.6</ele>
        <time>2021-10-09 13:14:31</time>
      </trkpt>
      <trkpt lat="40.49949" lon="-2.03855">
        <ele>1222.8</ele>
        <time>2021-10-09 13:14:32</time>
      </trkpt>
      <trkpt lat="40.49948" lon="-2.03853">
        <ele>1223</ele>
        <time>2021-10-09 13:14:33</time>
      </trkpt>
      <trkpt lat="40.49947" lon="-2.0385">
        <ele>1223</ele>
        <time>2021-10-09 13:14:34</time>
      </trkpt>
      <trkpt lat="40.49946" lon="-2.03848">
        <ele>1223.4</ele>
        <time>2021-10-09 13:14:35</time>
      </trkpt>
      <trkpt lat="40.49945" lon="-2.03846">
        <ele>1223.4</ele>
        <time>2021-10-09 13:14:36</time>
      </trkpt>
      <trkpt lat="40.49944" lon="-2.03843">
        <ele>1223.8</ele>
        <time>2021-10-09 13:14:37</time>
      </trkpt>
      <trkpt lat="40.49943" lon="-2.03841">
        <ele>1223.8</ele>
        <time>2021-10-09 13:14:38</time>
      </trkpt>
      <trkpt lat="40.49942" lon="-2.03839">
        <ele>1224</ele>
        <time>2021-10-09 13:14:39</time>
      </trkpt>
      <trkpt lat="40.49941" lon="-2.03836">
        <ele>1224</ele>
        <time>2021-10-09 13:14:40</time>
      </trkpt>
      <trkpt lat="40.4994" lon="-2.03834">
        <ele>1224</ele>
        <time>2021-10-09 13:14:41</time>
      </trkpt>
      <trkpt lat="40.49939" lon="-2.03831">
        <ele>1224.4</ele>
        <time>2021-10-09 13:14:42</time>
      </trkpt>
      <trkpt lat="40.49938" lon="-2.03829">
        <ele>1224.4</ele>
        <time>2021-10-09 13:14:43</time>
      </trkpt>
      <trkpt lat="40.49937" lon="-2.03827">
        <ele>1224.6</ele>
        <time>2021-10-09 13:14:44</time>
      </trkpt>
      <trkpt lat="40.49936" lon="-2.03824">
        <ele>1224.6</ele>
        <time>2021-10-09 13:14:45</time>
      </trkpt>
      <trkpt lat="40.49935" lon="-2.03822">
        <ele>1225</ele>
        <time>2021-10-09 13:14:46</time>
      </trkpt>
      <trkpt lat="40.49934" lon="-2.03819">
        <ele>1225</ele>
        <time>2021-10-09 13:14:47</time>
      </trkpt>
      <trkpt lat="40.49933" lon="-2.03817">
        <ele>1225.2</ele>
        <time>2021-10-09 13:14:48</time>
      </trkpt>
      <trkpt lat="40.49932" lon="-2.03815">
        <ele>1225.2</ele>
        <time>2021-10-09 13:14:49</time>
      </trkpt>
      <trkpt lat="40.49931" lon="-2.03812">
        <ele>1225.6</ele>
        <time>2021-10-09 13:14:50</time>
      </trkpt>
      <trkpt lat="40.4993" lon="-2.03809">
        <ele>1225.6</ele>
        <time>2021-10-09 13:14:51</time>
      </trkpt>
      <trkpt lat="40.49929" lon="-2.03807">
        <ele>1225.8</ele>
        <time>2021-10-09 13:14:52</time>
      </trkpt>
      <trkpt lat="40.49928" lon="-2.03804">
        <ele>1225.8</ele>
        <time>2021-10-09 13:14:53</time>
      </trkpt>
      <trkpt lat="40.49927" lon="-2.03802">
        <ele>1226.2</ele>
        <time>2021-10-09 13:14:54</time>
      </trkpt>
      <trkpt lat="40.49926" lon="-2.038">
        <ele>1226.2</ele>
        <time>2021-10-09 13:14:55</time>
      </trkpt>
      <trkpt lat="40.49925" lon="-2.03798">
        <ele>1226.4</ele>
        <time>2021-10-09 13:14:56</time>
      </trkpt>
      <trkpt lat="40.49924" lon="-2.03796">
        <ele>1226.4</ele>
        <time>2021-10-09 13:14:57</time>
      </trkpt>
      <trkpt lat="40.49922" lon="-2.03794">
        <ele>1226.6</ele>
        <time>2021-10-09 13:14:58</time>
      </trkpt>
      <trkpt lat="40.49921" lon="-2.03791">
        <ele>1226.6</ele>
        <time>2021-10-09 13:14:59</time>
      </trkpt>
      <trkpt lat="40.4992" lon="-2.03789">
        <ele>1227</ele>
        <time>2021-10-09 13:15:00</time>
      </trkpt>
      <trkpt lat="40.49918" lon="-2.03787">
        <ele>1227</ele>
        <time>2021-10-09 13:15:01</time>
      </trkpt>
      <trkpt lat="40.49917" lon="-2.03785">
        <ele>1227.2</ele>
        <time>2021-10-09 13:15:02</time>
      </trkpt>
      <trkpt lat="40.49916" lon="-2.03783">
        <ele>1227.2</ele>
        <time>2021-10-09 13:15:03</time>
      </trkpt>
      <trkpt lat="40.49914" lon="-2.03781">
        <ele>1227.6</ele>
        <time>2021-10-09 13:15:04</time>
      </trkpt>
      <trkpt lat="40.49913" lon="-2.03779">
        <ele>1227.6</ele>
        <time>2021-10-09 13:15:05</time>
      </trkpt>
      <trkpt lat="40.49911" lon="-2.03777">
        <ele>1227.8</ele>
        <time>2021-10-09 13:15:06</time>
      </trkpt>
      <trkpt lat="40.4991" lon="-2.03775">
        <ele>1227.8</ele>
        <time>2021-10-09 13:15:07</time>
      </trkpt>
      <trkpt lat="40.49908" lon="-2.03773">
        <ele>1228.2</ele>
        <time>2021-10-09 13:15:08</time>
      </trkpt>
      <trkpt lat="40.49907" lon="-2.03771">
        <ele>1228.4</ele>
        <time>2021-10-09 13:15:09</time>
      </trkpt>
      <trkpt lat="40.49905" lon="-2.03769">
        <ele>1228.4</ele>
        <time>2021-10-09 13:15:10</time>
      </trkpt>
      <trkpt lat="40.49904" lon="-2.03767">
        <ele>1228.8</ele>
        <time>2021-10-09 13:15:11</time>
      </trkpt>
      <trkpt lat="40.49902" lon="-2.03765">
        <ele>1228.8</ele>
        <time>2021-10-09 13:15:12</time>
      </trkpt>
      <trkpt lat="40.49901" lon="-2.03763">
        <ele>1229.2</ele>
        <time>2021-10-09 13:15:13</time>
      </trkpt>
      <trkpt lat="40.49899" lon="-2.03762">
        <ele>1229.2</ele>
        <time>2021-10-09 13:15:14</time>
      </trkpt>
      <trkpt lat="40.49897" lon="-2.0376">
        <ele>1229.6</ele>
        <time>2021-10-09 13:15:15</time>
      </trkpt>
      <trkpt lat="40.49896" lon="-2.03758">
        <ele>1229.8</ele>
        <time>2021-10-09 13:15:16</time>
      </trkpt>
      <trkpt lat="40.49894" lon="-2.03756">
        <ele>1230</ele>
        <time>2021-10-09 13:15:17</time>
      </trkpt>
      <trkpt lat="40.49892" lon="-2.03755">
        <ele>1230</ele>
        <time>2021-10-09 13:15:18</time>
      </trkpt>
      <trkpt lat="40.49891" lon="-2.03753">
        <ele>1230.4</ele>
        <time>2021-10-09 13:15:19</time>
      </trkpt>
      <trkpt lat="40.49889" lon="-2.03752">
        <ele>1230.4</ele>
        <time>2021-10-09 13:15:20</time>
      </trkpt>
      <trkpt lat="40.49888" lon="-2.0375">
        <ele>1230.8</ele>
        <time>2021-10-09 13:15:21</time>
      </trkpt>
      <trkpt lat="40.49886" lon="-2.03748">
        <ele>1231</ele>
        <time>2021-10-09 13:15:22</time>
      </trkpt>
      <trkpt lat="40.49885" lon="-2.03747">
        <ele>1231.2</ele>
        <time>2021-10-09 13:15:23</time>
      </trkpt>
      <trkpt lat="40.49883" lon="-2.03745">
        <ele>1231.2</ele>
        <time>2021-10-09 13:15:24</time>
      </trkpt>
      <trkpt lat="40.49882" lon="-2.03743">
        <ele>1231.6</ele>
        <time>2021-10-09 13:15:25</time>
      </trkpt>
      <trkpt lat="40.4988" lon="-2.03741">
        <ele>1231.6</ele>
        <time>2021-10-09 13:15:26</time>
      </trkpt>
      <trkpt lat="40.49879" lon="-2.0374">
        <ele>1232.4</ele>
        <time>2021-10-09 13:15:27</time>
      </trkpt>
      <trkpt lat="40.49878" lon="-2.03738">
        <ele>1232.4</ele>
        <time>2021-10-09 13:15:28</time>
      </trkpt>
      <trkpt lat="40.49876" lon="-2.03736">
        <ele>1232.8</ele>
        <time>2021-10-09 13:15:29</time>
      </trkpt>
      <trkpt lat="40.49875" lon="-2.03734">
        <ele>1232.8</ele>
        <time>2021-10-09 13:15:30</time>
      </trkpt>
      <trkpt lat="40.49873" lon="-2.03733">
        <ele>1232.8</ele>
        <time>2021-10-09 13:15:31</time>
      </trkpt>
      <trkpt lat="40.49871" lon="-2.03731">
        <ele>1232.6</ele>
        <time>2021-10-09 13:15:32</time>
      </trkpt>
      <trkpt lat="40.4987" lon="-2.0373">
        <ele>1232.8</ele>
        <time>2021-10-09 13:15:33</time>
      </trkpt>
      <trkpt lat="40.49869" lon="-2.03728">
        <ele>1233.4</ele>
        <time>2021-10-09 13:15:34</time>
      </trkpt>
      <trkpt lat="40.49867" lon="-2.03727">
        <ele>1233.8</ele>
        <time>2021-10-09 13:15:35</time>
      </trkpt>
      <trkpt lat="40.49866" lon="-2.03725">
        <ele>1233.8</ele>
        <time>2021-10-09 13:15:36</time>
      </trkpt>
      <trkpt lat="40.49864" lon="-2.03724">
        <ele>1234</ele>
        <time>2021-10-09 13:15:37</time>
      </trkpt>
      <trkpt lat="40.49863" lon="-2.03722">
        <ele>1234.4</ele>
        <time>2021-10-09 13:15:38</time>
      </trkpt>
      <trkpt lat="40.49861" lon="-2.0372">
        <ele>1234.4</ele>
        <time>2021-10-09 13:15:39</time>
      </trkpt>
      <trkpt lat="40.4986" lon="-2.03719">
        <ele>1234.6</ele>
        <time>2021-10-09 13:15:40</time>
      </trkpt>
      <trkpt lat="40.49858" lon="-2.03717">
        <ele>1234.6</ele>
        <time>2021-10-09 13:15:41</time>
      </trkpt>
      <trkpt lat="40.49857" lon="-2.03715">
        <ele>1235</ele>
        <time>2021-10-09 13:15:42</time>
      </trkpt>
      <trkpt lat="40.49855" lon="-2.03713">
        <ele>1235</ele>
        <time>2021-10-09 13:15:43</time>
      </trkpt>
      <trkpt lat="40.49853" lon="-2.03712">
        <ele>1235.2</ele>
        <time>2021-10-09 13:15:44</time>
      </trkpt>
      <trkpt lat="40.49852" lon="-2.0371">
        <ele>1235.2</ele>
        <time>2021-10-09 13:15:45</time>
      </trkpt>
      <trkpt lat="40.4985" lon="-2.03708">
        <ele>1235.2</ele>
        <time>2021-10-09 13:15:46</time>
      </trkpt>
      <trkpt lat="40.49848" lon="-2.03705">
        <ele>1235.6</ele>
        <time>2021-10-09 13:15:47</time>
      </trkpt>
      <trkpt lat="40.49846" lon="-2.03703">
        <ele>1235.6</ele>
        <time>2021-10-09 13:15:48</time>
      </trkpt>
      <trkpt lat="40.49845" lon="-2.03701">
        <ele>1236</ele>
        <time>2021-10-09 13:15:49</time>
      </trkpt>
      <trkpt lat="40.49843" lon="-2.03699">
        <ele>1236</ele>
        <time>2021-10-09 13:15:50</time>
      </trkpt>
      <trkpt lat="40.49841" lon="-2.03697">
        <ele>1236.2</ele>
        <time>2021-10-09 13:15:51</time>
      </trkpt>
      <trkpt lat="40.49838" lon="-2.03696">
        <ele>1236.2</ele>
        <time>2021-10-09 13:15:52</time>
      </trkpt>
      <trkpt lat="40.49836" lon="-2.03694">
        <ele>1236.4</ele>
        <time>2021-10-09 13:15:53</time>
      </trkpt>
      <trkpt lat="40.49834" lon="-2.03692">
        <ele>1236.4</ele>
        <time>2021-10-09 13:15:54</time>
      </trkpt>
      <trkpt lat="40.49832" lon="-2.0369">
        <ele>1236.8</ele>
        <time>2021-10-09 13:15:55</time>
      </trkpt>
      <trkpt lat="40.4983" lon="-2.03689">
        <ele>1236.8</ele>
        <time>2021-10-09 13:15:56</time>
      </trkpt>
      <trkpt lat="40.49828" lon="-2.03687">
        <ele>1237</ele>
        <time>2021-10-09 13:15:57</time>
      </trkpt>
      <trkpt lat="40.49826" lon="-2.03685">
        <ele>1237.2</ele>
        <time>2021-10-09 13:15:58</time>
      </trkpt>
      <trkpt lat="40.49824" lon="-2.03684">
        <ele>1237.2</ele>
        <time>2021-10-09 13:15:59</time>
      </trkpt>
      <trkpt lat="40.49822" lon="-2.03683">
        <ele>1237.6</ele>
        <time>2021-10-09 13:16:00</time>
      </trkpt>
      <trkpt lat="40.4982" lon="-2.03682">
        <ele>1237.6</ele>
        <time>2021-10-09 13:16:01</time>
      </trkpt>
      <trkpt lat="40.49818" lon="-2.0368">
        <ele>1237.6</ele>
        <time>2021-10-09 13:16:02</time>
      </trkpt>
      <trkpt lat="40.49816" lon="-2.03679">
        <ele>1237.8</ele>
        <time>2021-10-09 13:16:03</time>
      </trkpt>
      <trkpt lat="40.49814" lon="-2.03678">
        <ele>1237.8</ele>
        <time>2021-10-09 13:16:04</time>
      </trkpt>
      <trkpt lat="40.49811" lon="-2.03677">
        <ele>1237.8</ele>
        <time>2021-10-09 13:16:05</time>
      </trkpt>
      <trkpt lat="40.49809" lon="-2.03676">
        <ele>1238</ele>
        <time>2021-10-09 13:16:06</time>
      </trkpt>
      <trkpt lat="40.49807" lon="-2.03675">
        <ele>1238</ele>
        <time>2021-10-09 13:16:07</time>
      </trkpt>
      <trkpt lat="40.49805" lon="-2.03674">
        <ele>1238</ele>
        <time>2021-10-09 13:16:08</time>
      </trkpt>
      <trkpt lat="40.49803" lon="-2.03673">
        <ele>1238.4</ele>
        <time>2021-10-09 13:16:09</time>
      </trkpt>
      <trkpt lat="40.498" lon="-2.03672">
        <ele>1238.4</ele>
        <time>2021-10-09 13:16:10</time>
      </trkpt>
      <trkpt lat="40.49798" lon="-2.03671">
        <ele>1238.6</ele>
        <time>2021-10-09 13:16:11</time>
      </trkpt>
      <trkpt lat="40.49796" lon="-2.0367">
        <ele>1238.6</ele>
        <time>2021-10-09 13:16:12</time>
      </trkpt>
      <trkpt lat="40.49793" lon="-2.03669">
        <ele>1238.8</ele>
        <time>2021-10-09 13:16:13</time>
      </trkpt>
      <trkpt lat="40.49791" lon="-2.03668">
        <ele>1238.8</ele>
        <time>2021-10-09 13:16:14</time>
      </trkpt>
      <trkpt lat="40.49789" lon="-2.03668">
        <ele>1239.2</ele>
        <time>2021-10-09 13:16:15</time>
      </trkpt>
      <trkpt lat="40.49787" lon="-2.03667">
        <ele>1239.4</ele>
        <time>2021-10-09 13:16:16</time>
      </trkpt>
      <trkpt lat="40.49785" lon="-2.03666">
        <ele>1239.4</ele>
        <time>2021-10-09 13:16:17</time>
      </trkpt>
      <trkpt lat="40.49783" lon="-2.03666">
        <ele>1239.8</ele>
        <time>2021-10-09 13:16:18</time>
      </trkpt>
      <trkpt lat="40.49781" lon="-2.03665">
        <ele>1239.8</ele>
        <time>2021-10-09 13:16:19</time>
      </trkpt>
      <trkpt lat="40.49778" lon="-2.03664">
        <ele>1240</ele>
        <time>2021-10-09 13:16:20</time>
      </trkpt>
      <trkpt lat="40.49776" lon="-2.03664">
        <ele>1240</ele>
        <time>2021-10-09 13:16:21</time>
      </trkpt>
      <trkpt lat="40.49774" lon="-2.03663">
        <ele>1240.4</ele>
        <time>2021-10-09 13:16:22</time>
      </trkpt>
      <trkpt lat="40.49772" lon="-2.03663">
        <ele>1240.6</ele>
        <time>2021-10-09 13:16:23</time>
      </trkpt>
      <trkpt lat="40.49769" lon="-2.03662">
        <ele>1240.6</ele>
        <time>2021-10-09 13:16:24</time>
      </trkpt>
      <trkpt lat="40.49767" lon="-2.03662">
        <ele>1241</ele>
        <time>2021-10-09 13:16:25</time>
      </trkpt>
      <trkpt lat="40.49765" lon="-2.03661">
        <ele>1241</ele>
        <time>2021-10-09 13:16:26</time>
      </trkpt>
      <trkpt lat="40.49762" lon="-2.0366">
        <ele>1241.4</ele>
        <time>2021-10-09 13:16:27</time>
      </trkpt>
      <trkpt lat="40.4976" lon="-2.0366">
        <ele>1241.4</ele>
        <time>2021-10-09 13:16:28</time>
      </trkpt>
      <trkpt lat="40.49758" lon="-2.03659">
        <ele>1241.6</ele>
        <time>2021-10-09 13:16:29</time>
      </trkpt>
      <trkpt lat="40.49755" lon="-2.03658">
        <ele>1242</ele>
        <time>2021-10-09 13:16:30</time>
      </trkpt>
      <trkpt lat="40.49753" lon="-2.03658">
        <ele>1242.2</ele>
        <time>2021-10-09 13:16:31</time>
      </trkpt>
      <trkpt lat="40.49751" lon="-2.03658">
        <ele>1242.2</ele>
        <time>2021-10-09 13:16:32</time>
      </trkpt>
      <trkpt lat="40.49749" lon="-2.03657">
        <ele>1242.4</ele>
        <time>2021-10-09 13:16:33</time>
      </trkpt>
      <trkpt lat="40.49746" lon="-2.03657">
        <ele>1242.4</ele>
        <time>2021-10-09 13:16:34</time>
      </trkpt>
      <trkpt lat="40.49744" lon="-2.03656">
        <ele>1242.6</ele>
        <time>2021-10-09 13:16:35</time>
      </trkpt>
      <trkpt lat="40.49742" lon="-2.03656">
        <ele>1242.6</ele>
        <time>2021-10-09 13:16:36</time>
      </trkpt>
      <trkpt lat="40.4974" lon="-2.03655">
        <ele>1243</ele>
        <time>2021-10-09 13:16:37</time>
      </trkpt>
      <trkpt lat="40.49738" lon="-2.03655">
        <ele>1243.2</ele>
        <time>2021-10-09 13:16:38</time>
      </trkpt>
      <trkpt lat="40.49736" lon="-2.03655">
        <ele>1243.4</ele>
        <time>2021-10-09 13:16:39</time>
      </trkpt>
      <trkpt lat="40.49733" lon="-2.03654">
        <ele>1243.4</ele>
        <time>2021-10-09 13:16:40</time>
      </trkpt>
      <trkpt lat="40.49731" lon="-2.03654">
        <ele>1243.8</ele>
        <time>2021-10-09 13:16:41</time>
      </trkpt>
      <trkpt lat="40.49729" lon="-2.03653">
        <ele>1243.8</ele>
        <time>2021-10-09 13:16:42</time>
      </trkpt>
      <trkpt lat="40.49726" lon="-2.03653">
        <ele>1244</ele>
        <time>2021-10-09 13:16:43</time>
      </trkpt>
      <trkpt lat="40.49724" lon="-2.03653">
        <ele>1244</ele>
        <time>2021-10-09 13:16:44</time>
      </trkpt>
      <trkpt lat="40.49722" lon="-2.03652">
        <ele>1244.4</ele>
        <time>2021-10-09 13:16:45</time>
      </trkpt>
      <trkpt lat="40.49719" lon="-2.03652">
        <ele>1244.4</ele>
        <time>2021-10-09 13:16:46</time>
      </trkpt>
      <trkpt lat="40.49717" lon="-2.03651">
        <ele>1244.8</ele>
        <time>2021-10-09 13:16:47</time>
      </trkpt>
      <trkpt lat="40.49715" lon="-2.03651">
        <ele>1244.8</ele>
        <time>2021-10-09 13:16:48</time>
      </trkpt>
      <trkpt lat="40.49712" lon="-2.0365">
        <ele>1245.2</ele>
        <time>2021-10-09 13:16:49</time>
      </trkpt>
      <trkpt lat="40.4971" lon="-2.0365">
        <ele>1245.2</ele>
        <time>2021-10-09 13:16:50</time>
      </trkpt>
      <trkpt lat="40.49708" lon="-2.03649">
        <ele>1245.4</ele>
        <time>2021-10-09 13:16:51</time>
      </trkpt>
      <trkpt lat="40.49705" lon="-2.03648">
        <ele>1245.4</ele>
        <time>2021-10-09 13:16:52</time>
      </trkpt>
      <trkpt lat="40.49703" lon="-2.03647">
        <ele>1245.8</ele>
        <time>2021-10-09 13:16:53</time>
      </trkpt>
      <trkpt lat="40.49701" lon="-2.03646">
        <ele>1245.8</ele>
        <time>2021-10-09 13:16:54</time>
      </trkpt>
      <trkpt lat="40.49699" lon="-2.03645">
        <ele>1246.2</ele>
        <time>2021-10-09 13:16:55</time>
      </trkpt>
      <trkpt lat="40.49697" lon="-2.03644">
        <ele>1246.2</ele>
        <time>2021-10-09 13:16:56</time>
      </trkpt>
      <trkpt lat="40.49695" lon="-2.03642">
        <ele>1246.4</ele>
        <time>2021-10-09 13:16:57</time>
      </trkpt>
      <trkpt lat="40.49693" lon="-2.03641">
        <ele>1246.4</ele>
        <time>2021-10-09 13:16:58</time>
      </trkpt>
      <trkpt lat="40.49691" lon="-2.03639">
        <ele>1246.6</ele>
        <time>2021-10-09 13:16:59</time>
      </trkpt>
      <trkpt lat="40.49689" lon="-2.03637">
        <ele>1246.6</ele>
        <time>2021-10-09 13:17:00</time>
      </trkpt>
      <trkpt lat="40.49687" lon="-2.03635">
        <ele>1247</ele>
        <time>2021-10-09 13:17:01</time>
      </trkpt>
      <trkpt lat="40.49685" lon="-2.03634">
        <ele>1247.2</ele>
        <time>2021-10-09 13:17:02</time>
      </trkpt>
      <trkpt lat="40.49683" lon="-2.03632">
        <ele>1247.2</ele>
        <time>2021-10-09 13:17:03</time>
      </trkpt>
      <trkpt lat="40.49682" lon="-2.0363">
        <ele>1247.6</ele>
        <time>2021-10-09 13:17:04</time>
      </trkpt>
      <trkpt lat="40.4968" lon="-2.03627">
        <ele>1247.6</ele>
        <time>2021-10-09 13:17:05</time>
      </trkpt>
      <trkpt lat="40.49679" lon="-2.03625">
        <ele>1248</ele>
        <time>2021-10-09 13:17:06</time>
      </trkpt>
      <trkpt lat="40.49678" lon="-2.03623">
        <ele>1248</ele>
        <time>2021-10-09 13:17:07</time>
      </trkpt>
      <trkpt lat="40.49676" lon="-2.03621">
        <ele>1248.2</ele>
        <time>2021-10-09 13:17:08</time>
      </trkpt>
      <trkpt lat="40.49675" lon="-2.03618">
        <ele>1248.2</ele>
        <time>2021-10-09 13:17:09</time>
      </trkpt>
      <trkpt lat="40.49674" lon="-2.03616">
        <ele>1248.6</ele>
        <time>2021-10-09 13:17:10</time>
      </trkpt>
      <trkpt lat="40.49672" lon="-2.03613">
        <ele>1248.6</ele>
        <time>2021-10-09 13:17:11</time>
      </trkpt>
      <trkpt lat="40.49671" lon="-2.03611">
        <ele>1248.8</ele>
        <time>2021-10-09 13:17:12</time>
      </trkpt>
      <trkpt lat="40.4967" lon="-2.03609">
        <ele>1248.8</ele>
        <time>2021-10-09 13:17:13</time>
      </trkpt>
      <trkpt lat="40.49669" lon="-2.03606">
        <ele>1249.2</ele>
        <time>2021-10-09 13:17:14</time>
      </trkpt>
      <trkpt lat="40.49667" lon="-2.03604">
        <ele>1249.2</ele>
        <time>2021-10-09 13:17:15</time>
      </trkpt>
      <trkpt lat="40.49666" lon="-2.03602">
        <ele>1249.4</ele>
        <time>2021-10-09 13:17:16</time>
      </trkpt>
      <trkpt lat="40.49665" lon="-2.03599">
        <ele>1249.6</ele>
        <time>2021-10-09 13:17:17</time>
      </trkpt>
      <trkpt lat="40.49663" lon="-2.03597">
        <ele>1249.6</ele>
        <time>2021-10-09 13:17:18</time>
      </trkpt>
      <trkpt lat="40.49662" lon="-2.03595">
        <ele>1250</ele>
        <time>2021-10-09 13:17:19</time>
      </trkpt>
      <trkpt lat="40.4966" lon="-2.03592">
        <ele>1250</ele>
        <time>2021-10-09 13:17:20</time>
      </trkpt>
      <trkpt lat="40.49659" lon="-2.0359">
        <ele>1250.4</ele>
        <time>2021-10-09 13:17:21</time>
      </trkpt>
      <trkpt lat="40.49657" lon="-2.03588">
        <ele>1250.4</ele>
        <time>2021-10-09 13:17:22</time>
      </trkpt>
      <trkpt lat="40.49656" lon="-2.03586">
        <ele>1250.6</ele>
        <time>2021-10-09 13:17:23</time>
      </trkpt>
      <trkpt lat="40.49654" lon="-2.03584">
        <ele>1250.6</ele>
        <time>2021-10-09 13:17:24</time>
      </trkpt>
      <trkpt lat="40.49652" lon="-2.03582">
        <ele>1251</ele>
        <time>2021-10-09 13:17:25</time>
      </trkpt>
      <trkpt lat="40.4965" lon="-2.0358">
        <ele>1251</ele>
        <time>2021-10-09 13:17:26</time>
      </trkpt>
      <trkpt lat="40.49648" lon="-2.03578">
        <ele>1251.2</ele>
        <time>2021-10-09 13:17:27</time>
      </trkpt>
      <trkpt lat="40.49646" lon="-2.03576">
        <ele>1251.2</ele>
        <time>2021-10-09 13:17:28</time>
      </trkpt>
      <trkpt lat="40.49644" lon="-2.03574">
        <ele>1251.6</ele>
        <time>2021-10-09 13:17:29</time>
      </trkpt>
      <trkpt lat="40.49642" lon="-2.03572">
        <ele>1251.8</ele>
        <time>2021-10-09 13:17:30</time>
      </trkpt>
      <trkpt lat="40.49639" lon="-2.03571">
        <ele>1251.8</ele>
        <time>2021-10-09 13:17:31</time>
      </trkpt>
      <trkpt lat="40.49637" lon="-2.0357">
        <ele>1252.4</ele>
        <time>2021-10-09 13:17:32</time>
      </trkpt>
      <trkpt lat="40.49635" lon="-2.03569">
        <ele>1252.6</ele>
        <time>2021-10-09 13:17:33</time>
      </trkpt>
      <trkpt lat="40.49633" lon="-2.03568">
        <ele>1252.6</ele>
        <time>2021-10-09 13:17:34</time>
      </trkpt>
      <trkpt lat="40.49631" lon="-2.03568">
        <ele>1253</ele>
        <time>2021-10-09 13:17:35</time>
      </trkpt>
      <trkpt lat="40.49628" lon="-2.03567">
        <ele>1253</ele>
        <time>2021-10-09 13:17:36</time>
      </trkpt>
      <trkpt lat="40.49626" lon="-2.03567">
        <ele>1253.2</ele>
        <time>2021-10-09 13:17:37</time>
      </trkpt>
      <trkpt lat="40.49624" lon="-2.03567">
        <ele>1253.2</ele>
        <time>2021-10-09 13:17:38</time>
      </trkpt>
      <trkpt lat="40.49621" lon="-2.03567">
        <ele>1253.6</ele>
        <time>2021-10-09 13:17:39</time>
      </trkpt>
      <trkpt lat="40.49619" lon="-2.03566">
        <ele>1253.6</ele>
        <time>2021-10-09 13:17:40</time>
      </trkpt>
      <trkpt lat="40.49617" lon="-2.03566">
        <ele>1254</ele>
        <time>2021-10-09 13:17:41</time>
      </trkpt>
      <trkpt lat="40.49615" lon="-2.03566">
        <ele>1254.2</ele>
        <time>2021-10-09 13:17:42</time>
      </trkpt>
      <trkpt lat="40.49612" lon="-2.03565">
        <ele>1254.2</ele>
        <time>2021-10-09 13:17:43</time>
      </trkpt>
      <trkpt lat="40.4961" lon="-2.03565">
        <ele>1254.2</ele>
        <time>2021-10-09 13:17:44</time>
      </trkpt>
      <trkpt lat="40.49608" lon="-2.03564">
        <ele>1254.6</ele>
        <time>2021-10-09 13:17:45</time>
      </trkpt>
      <trkpt lat="40.49605" lon="-2.03564">
        <ele>1254.6</ele>
        <time>2021-10-09 13:17:46</time>
      </trkpt>
      <trkpt lat="40.49603" lon="-2.03564">
        <ele>1255</ele>
        <time>2021-10-09 13:17:47</time>
      </trkpt>
      <trkpt lat="40.49601" lon="-2.03563">
        <ele>1255</ele>
        <time>2021-10-09 13:17:48</time>
      </trkpt>
      <trkpt lat="40.49599" lon="-2.03563">
        <ele>1255.2</ele>
        <time>2021-10-09 13:17:49</time>
      </trkpt>
      <trkpt lat="40.49597" lon="-2.03562">
        <ele>1255.2</ele>
        <time>2021-10-09 13:17:50</time>
      </trkpt>
      <trkpt lat="40.49595" lon="-2.03562">
        <ele>1255.4</ele>
        <time>2021-10-09 13:17:51</time>
      </trkpt>
      <trkpt lat="40.49593" lon="-2.03562">
        <ele>1255.4</ele>
        <time>2021-10-09 13:17:52</time>
      </trkpt>
      <trkpt lat="40.49591" lon="-2.03561">
        <ele>1255.6</ele>
        <time>2021-10-09 13:17:53</time>
      </trkpt>
      <trkpt lat="40.49589" lon="-2.03561">
        <ele>1255.6</ele>
        <time>2021-10-09 13:17:54</time>
      </trkpt>
      <trkpt lat="40.49587" lon="-2.0356">
        <ele>1256</ele>
        <time>2021-10-09 13:17:55</time>
      </trkpt>
      <trkpt lat="40.49584" lon="-2.0356">
        <ele>1256</ele>
        <time>2021-10-09 13:17:56</time>
      </trkpt>
      <trkpt lat="40.49582" lon="-2.03559">
        <ele>1256.4</ele>
        <time>2021-10-09 13:17:57</time>
      </trkpt>
      <trkpt lat="40.4958" lon="-2.03559">
        <ele>1256.4</ele>
        <time>2021-10-09 13:17:58</time>
      </trkpt>
      <trkpt lat="40.49577" lon="-2.03559">
        <ele>1256.6</ele>
        <time>2021-10-09 13:17:59</time>
      </trkpt>
      <trkpt lat="40.49575" lon="-2.03558">
        <ele>1256.6</ele>
        <time>2021-10-09 13:18:00</time>
      </trkpt>
      <trkpt lat="40.49573" lon="-2.03558">
        <ele>1257</ele>
        <time>2021-10-09 13:18:01</time>
      </trkpt>
      <trkpt lat="40.49571" lon="-2.03557">
        <ele>1257</ele>
        <time>2021-10-09 13:18:02</time>
      </trkpt>
      <trkpt lat="40.49569" lon="-2.03557">
        <ele>1257.4</ele>
        <time>2021-10-09 13:18:03</time>
      </trkpt>
      <trkpt lat="40.49567" lon="-2.03557">
        <ele>1257.6</ele>
        <time>2021-10-09 13:18:04</time>
      </trkpt>
      <trkpt lat="40.49565" lon="-2.03556">
        <ele>1257.6</ele>
        <time>2021-10-09 13:18:05</time>
      </trkpt>
      <trkpt lat="40.49563" lon="-2.03556">
        <ele>1258</ele>
        <time>2021-10-09 13:18:06</time>
      </trkpt>
      <trkpt lat="40.49561" lon="-2.03556">
        <ele>1258</ele>
        <time>2021-10-09 13:18:07</time>
      </trkpt>
      <trkpt lat="40.49559" lon="-2.03555">
        <ele>1258.4</ele>
        <time>2021-10-09 13:18:08</time>
      </trkpt>
      <trkpt lat="40.49557" lon="-2.03554">
        <ele>1258.4</ele>
        <time>2021-10-09 13:18:09</time>
      </trkpt>
      <trkpt lat="40.49555" lon="-2.03554">
        <ele>1259</ele>
        <time>2021-10-09 13:18:10</time>
      </trkpt>
      <trkpt lat="40.49553" lon="-2.03553">
        <ele>1259.2</ele>
        <time>2021-10-09 13:18:11</time>
      </trkpt>
      <trkpt lat="40.49551" lon="-2.03553">
        <ele>1259.2</ele>
        <time>2021-10-09 13:18:12</time>
      </trkpt>
      <trkpt lat="40.49548" lon="-2.03553">
        <ele>1259.6</ele>
        <time>2021-10-09 13:18:13</time>
      </trkpt>
      <trkpt lat="40.49546" lon="-2.03553">
        <ele>1259.8</ele>
        <time>2021-10-09 13:18:14</time>
      </trkpt>
      <trkpt lat="40.49544" lon="-2.03552">
        <ele>1260</ele>
        <time>2021-10-09 13:18:15</time>
      </trkpt>
      <trkpt lat="40.49542" lon="-2.03552">
        <ele>1260</ele>
        <time>2021-10-09 13:18:16</time>
      </trkpt>
      <trkpt lat="40.4954" lon="-2.03551">
        <ele>1260.4</ele>
        <time>2021-10-09 13:18:17</time>
      </trkpt>
      <trkpt lat="40.49538" lon="-2.03551">
        <ele>1260.6</ele>
        <time>2021-10-09 13:18:18</time>
      </trkpt>
      <trkpt lat="40.49536" lon="-2.0355">
        <ele>1260.6</ele>
        <time>2021-10-09 13:18:19</time>
      </trkpt>
      <trkpt lat="40.49534" lon="-2.0355">
        <ele>1261</ele>
        <time>2021-10-09 13:18:20</time>
      </trkpt>
      <trkpt lat="40.49532" lon="-2.03549">
        <ele>1261.2</ele>
        <time>2021-10-09 13:18:21</time>
      </trkpt>
      <trkpt lat="40.4953" lon="-2.03549">
        <ele>1261.6</ele>
        <time>2021-10-09 13:18:22</time>
      </trkpt>
      <trkpt lat="40.49527" lon="-2.03549">
        <ele>1261.8</ele>
        <time>2021-10-09 13:18:23</time>
      </trkpt>
      <trkpt lat="40.49525" lon="-2.03548">
        <ele>1261.8</ele>
        <time>2021-10-09 13:18:24</time>
      </trkpt>
      <trkpt lat="40.49523" lon="-2.03548">
        <ele>1262.2</ele>
        <time>2021-10-09 13:18:25</time>
      </trkpt>
      <trkpt lat="40.49521" lon="-2.03547">
        <ele>1262.4</ele>
        <time>2021-10-09 13:18:26</time>
      </trkpt>
      <trkpt lat="40.49519" lon="-2.03547">
        <ele>1262.6</ele>
        <time>2021-10-09 13:18:27</time>
      </trkpt>
      <trkpt lat="40.49516" lon="-2.03546">
        <ele>1262.8</ele>
        <time>2021-10-09 13:18:28</time>
      </trkpt>
      <trkpt lat="40.49514" lon="-2.03546">
        <ele>1263</ele>
        <time>2021-10-09 13:18:29</time>
      </trkpt>
      <trkpt lat="40.49511" lon="-2.03545">
        <ele>1263.2</ele>
        <time>2021-10-09 13:18:30</time>
      </trkpt>
      <trkpt lat="40.49509" lon="-2.03545">
        <ele>1263.2</ele>
        <time>2021-10-09 13:18:31</time>
      </trkpt>
      <trkpt lat="40.49506" lon="-2.03544">
        <ele>1263.6</ele>
        <time>2021-10-09 13:18:32</time>
      </trkpt>
      <trkpt lat="40.49504" lon="-2.03544">
        <ele>1263.6</ele>
        <time>2021-10-09 13:18:33</time>
      </trkpt>
      <trkpt lat="40.49502" lon="-2.03544">
        <ele>1264</ele>
        <time>2021-10-09 13:18:34</time>
      </trkpt>
      <trkpt lat="40.49499" lon="-2.03544">
        <ele>1264</ele>
        <time>2021-10-09 13:18:35</time>
      </trkpt>
      <trkpt lat="40.49497" lon="-2.03543">
        <ele>1264</ele>
        <time>2021-10-09 13:18:36</time>
      </trkpt>
      <trkpt lat="40.49494" lon="-2.03543">
        <ele>1264.4</ele>
        <time>2021-10-09 13:18:37</time>
      </trkpt>
      <trkpt lat="40.49492" lon="-2.03543">
        <ele>1264.4</ele>
        <time>2021-10-09 13:18:38</time>
      </trkpt>
      <trkpt lat="40.49489" lon="-2.03543">
        <ele>1264.6</ele>
        <time>2021-10-09 13:18:39</time>
      </trkpt>
      <trkpt lat="40.49487" lon="-2.03543">
        <ele>1264.6</ele>
        <time>2021-10-09 13:18:40</time>
      </trkpt>
      <trkpt lat="40.49484" lon="-2.03542">
        <ele>1265</ele>
        <time>2021-10-09 13:18:41</time>
      </trkpt>
      <trkpt lat="40.49481" lon="-2.03541">
        <ele>1265</ele>
        <time>2021-10-09 13:18:42</time>
      </trkpt>
      <trkpt lat="40.49478" lon="-2.03541">
        <ele>1265.4</ele>
        <time>2021-10-09 13:18:43</time>
      </trkpt>
      <trkpt lat="40.49475" lon="-2.03539">
        <ele>1265.4</ele>
        <time>2021-10-09 13:18:44</time>
      </trkpt>
      <trkpt lat="40.49472" lon="-2.03538">
        <ele>1265.6</ele>
        <time>2021-10-09 13:18:45</time>
      </trkpt>
      <trkpt lat="40.4947" lon="-2.03537">
        <ele>1265.6</ele>
        <time>2021-10-09 13:18:46</time>
      </trkpt>
      <trkpt lat="40.49467" lon="-2.03535">
        <ele>1266</ele>
        <time>2021-10-09 13:18:47</time>
      </trkpt>
      <trkpt lat="40.49464" lon="-2.03534">
        <ele>1266</ele>
        <time>2021-10-09 13:18:48</time>
      </trkpt>
      <trkpt lat="40.49462" lon="-2.03533">
        <ele>1266.4</ele>
        <time>2021-10-09 13:18:49</time>
      </trkpt>
      <trkpt lat="40.49459" lon="-2.03531">
        <ele>1266.4</ele>
        <time>2021-10-09 13:18:50</time>
      </trkpt>
      <trkpt lat="40.49457" lon="-2.0353">
        <ele>1266.6</ele>
        <time>2021-10-09 13:18:51</time>
      </trkpt>
      <trkpt lat="40.49455" lon="-2.03528">
        <ele>1266.6</ele>
        <time>2021-10-09 13:18:52</time>
      </trkpt>
      <trkpt lat="40.49452" lon="-2.03526">
        <ele>1267</ele>
        <time>2021-10-09 13:18:53</time>
      </trkpt>
      <trkpt lat="40.4945" lon="-2.03524">
        <ele>1267</ele>
        <time>2021-10-09 13:18:54</time>
      </trkpt>
      <trkpt lat="40.49448" lon="-2.03522">
        <ele>1267.2</ele>
        <time>2021-10-09 13:18:55</time>
      </trkpt>
      <trkpt lat="40.49446" lon="-2.0352">
        <ele>1267.2</ele>
        <time>2021-10-09 13:18:56</time>
      </trkpt>
      <trkpt lat="40.49443" lon="-2.03517">
        <ele>1267.4</ele>
        <time>2021-10-09 13:18:57</time>
      </trkpt>
      <trkpt lat="40.49441" lon="-2.03514">
        <ele>1267.4</ele>
        <time>2021-10-09 13:18:58</time>
      </trkpt>
      <trkpt lat="40.49439" lon="-2.03512">
        <ele>1267.8</ele>
        <time>2021-10-09 13:18:59</time>
      </trkpt>
      <trkpt lat="40.49437" lon="-2.03509">
        <ele>1267.8</ele>
        <time>2021-10-09 13:19:00</time>
      </trkpt>
      <trkpt lat="40.49435" lon="-2.03506">
        <ele>1268</ele>
        <time>2021-10-09 13:19:01</time>
      </trkpt>
      <trkpt lat="40.49433" lon="-2.03504">
        <ele>1268</ele>
        <time>2021-10-09 13:19:02</time>
      </trkpt>
      <trkpt lat="40.49431" lon="-2.03501">
        <ele>1268.2</ele>
        <time>2021-10-09 13:19:03</time>
      </trkpt>
      <trkpt lat="40.49428" lon="-2.03499">
        <ele>1268.2</ele>
        <time>2021-10-09 13:19:04</time>
      </trkpt>
      <trkpt lat="40.49426" lon="-2.03496">
        <ele>1267.8</ele>
        <time>2021-10-09 13:19:05</time>
      </trkpt>
      <trkpt lat="40.49424" lon="-2.03494">
        <ele>1267.8</ele>
        <time>2021-10-09 13:19:06</time>
      </trkpt>
      <trkpt lat="40.49422" lon="-2.03491">
        <ele>1268.8</ele>
        <time>2021-10-09 13:19:07</time>
      </trkpt>
      <trkpt lat="40.49422" lon="-2.03491">
        <ele>1269.2</ele>
        <time>2021-10-09 13:19:08</time>
      </trkpt>
      <trkpt lat="40.49413" lon="-2.03481">
        <ele>1269.4</ele>
        <time>2021-10-09 13:19:09</time>
      </trkpt>
      <trkpt lat="40.49411" lon="-2.03479">
        <ele>1269.4</ele>
        <time>2021-10-09 13:19:10</time>
      </trkpt>
      <trkpt lat="40.49409" lon="-2.03476">
        <ele>1269.8</ele>
        <time>2021-10-09 13:19:11</time>
      </trkpt>
      <trkpt lat="40.49407" lon="-2.03474">
        <ele>1269.8</ele>
        <time>2021-10-09 13:19:12</time>
      </trkpt>
      <trkpt lat="40.49405" lon="-2.03472">
        <ele>1270.2</ele>
        <time>2021-10-09 13:19:13</time>
      </trkpt>
      <trkpt lat="40.49403" lon="-2.0347">
        <ele>1270.2</ele>
        <time>2021-10-09 13:19:14</time>
      </trkpt>
      <trkpt lat="40.49402" lon="-2.03468">
        <ele>1270.6</ele>
        <time>2021-10-09 13:19:15</time>
      </trkpt>
      <trkpt lat="40.494" lon="-2.03465">
        <ele>1270.6</ele>
        <time>2021-10-09 13:19:16</time>
      </trkpt>
      <trkpt lat="40.49398" lon="-2.03463">
        <ele>1271</ele>
        <time>2021-10-09 13:19:17</time>
      </trkpt>
      <trkpt lat="40.49396" lon="-2.03461">
        <ele>1271</ele>
        <time>2021-10-09 13:19:18</time>
      </trkpt>
      <trkpt lat="40.49394" lon="-2.03459">
        <ele>1271.2</ele>
        <time>2021-10-09 13:19:19</time>
      </trkpt>
      <trkpt lat="40.49392" lon="-2.03457">
        <ele>1271.4</ele>
        <time>2021-10-09 13:19:20</time>
      </trkpt>
      <trkpt lat="40.4939" lon="-2.03455">
        <ele>1271.6</ele>
        <time>2021-10-09 13:19:21</time>
      </trkpt>
      <trkpt lat="40.49389" lon="-2.03453">
        <ele>1271.6</ele>
        <time>2021-10-09 13:19:22</time>
      </trkpt>
      <trkpt lat="40.49387" lon="-2.03451">
        <ele>1272</ele>
        <time>2021-10-09 13:19:23</time>
      </trkpt>
      <trkpt lat="40.49384" lon="-2.03448">
        <ele>1272</ele>
        <time>2021-10-09 13:19:24</time>
      </trkpt>
      <trkpt lat="40.49382" lon="-2.03446">
        <ele>1272.4</ele>
        <time>2021-10-09 13:19:25</time>
      </trkpt>
      <trkpt lat="40.49382" lon="-2.03446">
        <ele>1272.6</ele>
        <time>2021-10-09 13:19:26</time>
      </trkpt>
      <trkpt lat="40.49378" lon="-2.03441">
        <ele>1272.8</ele>
        <time>2021-10-09 13:19:27</time>
      </trkpt>
      <trkpt lat="40.49376" lon="-2.03439">
        <ele>1273</ele>
        <time>2021-10-09 13:19:28</time>
      </trkpt>
      <trkpt lat="40.49375" lon="-2.03437">
        <ele>1273</ele>
        <time>2021-10-09 13:19:29</time>
      </trkpt>
      <trkpt lat="40.49373" lon="-2.03435">
        <ele>1273.4</ele>
        <time>2021-10-09 13:19:30</time>
      </trkpt>
      <trkpt lat="40.49371" lon="-2.03433">
        <ele>1273.4</ele>
        <time>2021-10-09 13:19:31</time>
      </trkpt>
      <trkpt lat="40.49369" lon="-2.03432">
        <ele>1273.8</ele>
        <time>2021-10-09 13:19:32</time>
      </trkpt>
      <trkpt lat="40.49367" lon="-2.0343">
        <ele>1273.8</ele>
        <time>2021-10-09 13:19:33</time>
      </trkpt>
      <trkpt lat="40.49366" lon="-2.03428">
        <ele>1274</ele>
        <time>2021-10-09 13:19:34</time>
      </trkpt>
      <trkpt lat="40.49363" lon="-2.03427">
        <ele>1274</ele>
        <time>2021-10-09 13:19:35</time>
      </trkpt>
      <trkpt lat="40.49361" lon="-2.03425">
        <ele>1274.4</ele>
        <time>2021-10-09 13:19:36</time>
      </trkpt>
      <trkpt lat="40.49359" lon="-2.03423">
        <ele>1274.4</ele>
        <time>2021-10-09 13:19:37</time>
      </trkpt>
      <trkpt lat="40.49356" lon="-2.03421">
        <ele>1274.6</ele>
        <time>2021-10-09 13:19:38</time>
      </trkpt>
      <trkpt lat="40.49354" lon="-2.03418">
        <ele>1274.6</ele>
        <time>2021-10-09 13:19:39</time>
      </trkpt>
      <trkpt lat="40.49352" lon="-2.03416">
        <ele>1275</ele>
        <time>2021-10-09 13:19:40</time>
      </trkpt>
      <trkpt lat="40.4935" lon="-2.03414">
        <ele>1275.2</ele>
        <time>2021-10-09 13:19:41</time>
      </trkpt>
      <trkpt lat="40.49348" lon="-2.03412">
        <ele>1275.2</ele>
        <time>2021-10-09 13:19:42</time>
      </trkpt>
      <trkpt lat="40.49345" lon="-2.0341">
        <ele>1275.4</ele>
        <time>2021-10-09 13:19:43</time>
      </trkpt>
      <trkpt lat="40.49343" lon="-2.03408">
        <ele>1275.4</ele>
        <time>2021-10-09 13:19:44</time>
      </trkpt>
      <trkpt lat="40.49341" lon="-2.03407">
        <ele>1275.8</ele>
        <time>2021-10-09 13:19:45</time>
      </trkpt>
      <trkpt lat="40.49339" lon="-2.03405">
        <ele>1276</ele>
        <time>2021-10-09 13:19:46</time>
      </trkpt>
      <trkpt lat="40.49337" lon="-2.03403">
        <ele>1276</ele>
        <time>2021-10-09 13:19:47</time>
      </trkpt>
      <trkpt lat="40.49335" lon="-2.03401">
        <ele>1276.4</ele>
        <time>2021-10-09 13:19:48</time>
      </trkpt>
      <trkpt lat="40.49333" lon="-2.03399">
        <ele>1276.4</ele>
        <time>2021-10-09 13:19:49</time>
      </trkpt>
      <trkpt lat="40.49331" lon="-2.03397">
        <ele>1276.8</ele>
        <time>2021-10-09 13:19:50</time>
      </trkpt>
      <trkpt lat="40.49329" lon="-2.03395">
        <ele>1276.8</ele>
        <time>2021-10-09 13:19:51</time>
      </trkpt>
      <trkpt lat="40.49328" lon="-2.03393">
        <ele>1277</ele>
        <time>2021-10-09 13:19:52</time>
      </trkpt>
      <trkpt lat="40.49326" lon="-2.03391">
        <ele>1277</ele>
        <time>2021-10-09 13:19:53</time>
      </trkpt>
      <trkpt lat="40.49324" lon="-2.03388">
        <ele>1277.4</ele>
        <time>2021-10-09 13:19:54</time>
      </trkpt>
      <trkpt lat="40.49322" lon="-2.03385">
        <ele>1277.4</ele>
        <time>2021-10-09 13:19:55</time>
      </trkpt>
      <trkpt lat="40.4932" lon="-2.03382">
        <ele>1277.6</ele>
        <time>2021-10-09 13:19:56</time>
      </trkpt>
      <trkpt lat="40.49318" lon="-2.03379">
        <ele>1277.6</ele>
        <time>2021-10-09 13:19:57</time>
      </trkpt>
      <trkpt lat="40.49317" lon="-2.03375">
        <ele>1277.8</ele>
        <time>2021-10-09 13:19:58</time>
      </trkpt>
      <trkpt lat="40.49315" lon="-2.03371">
        <ele>1277.8</ele>
        <time>2021-10-09 13:19:59</time>
      </trkpt>
      <trkpt lat="40.49314" lon="-2.03368">
        <ele>1277.8</ele>
        <time>2021-10-09 13:20:00</time>
      </trkpt>
      <trkpt lat="40.49313" lon="-2.03364">
        <ele>1278</ele>
        <time>2021-10-09 13:20:01</time>
      </trkpt>
      <trkpt lat="40.49311" lon="-2.03361">
        <ele>1278</ele>
        <time>2021-10-09 13:20:02</time>
      </trkpt>
      <trkpt lat="40.4931" lon="-2.03358">
        <ele>1278.4</ele>
        <time>2021-10-09 13:20:03</time>
      </trkpt>
      <trkpt lat="40.49309" lon="-2.03354">
        <ele>1278.4</ele>
        <time>2021-10-09 13:20:04</time>
      </trkpt>
      <trkpt lat="40.49308" lon="-2.03351">
        <ele>1278.8</ele>
        <time>2021-10-09 13:20:05</time>
      </trkpt>
      <trkpt lat="40.49307" lon="-2.03348">
        <ele>1279</ele>
        <time>2021-10-09 13:20:06</time>
      </trkpt>
      <trkpt lat="40.49306" lon="-2.03345">
        <ele>1279</ele>
        <time>2021-10-09 13:20:07</time>
      </trkpt>
      <trkpt lat="40.49305" lon="-2.03341">
        <ele>1279.2</ele>
        <time>2021-10-09 13:20:08</time>
      </trkpt>
      <trkpt lat="40.49304" lon="-2.03338">
        <ele>1279.2</ele>
        <time>2021-10-09 13:20:09</time>
      </trkpt>
      <trkpt lat="40.49302" lon="-2.03335">
        <ele>1279.6</ele>
        <time>2021-10-09 13:20:10</time>
      </trkpt>
      <trkpt lat="40.49301" lon="-2.03332">
        <ele>1279.6</ele>
        <time>2021-10-09 13:20:11</time>
      </trkpt>
      <trkpt lat="40.49299" lon="-2.03328">
        <ele>1279.8</ele>
        <time>2021-10-09 13:20:12</time>
      </trkpt>
      <trkpt lat="40.49298" lon="-2.03325">
        <ele>1279.8</ele>
        <time>2021-10-09 13:20:13</time>
      </trkpt>
      <trkpt lat="40.49297" lon="-2.03321">
        <ele>1280</ele>
        <time>2021-10-09 13:20:14</time>
      </trkpt>
      <trkpt lat="40.49295" lon="-2.03318">
        <ele>1280</ele>
        <time>2021-10-09 13:20:15</time>
      </trkpt>
      <trkpt lat="40.49294" lon="-2.03314">
        <ele>1280.4</ele>
        <time>2021-10-09 13:20:16</time>
      </trkpt>
      <trkpt lat="40.49292" lon="-2.03311">
        <ele>1280.4</ele>
        <time>2021-10-09 13:20:17</time>
      </trkpt>
      <trkpt lat="40.49291" lon="-2.03307">
        <ele>1280.6</ele>
        <time>2021-10-09 13:20:18</time>
      </trkpt>
      <trkpt lat="40.4929" lon="-2.03304">
        <ele>1280.6</ele>
        <time>2021-10-09 13:20:19</time>
      </trkpt>
      <trkpt lat="40.49288" lon="-2.033">
        <ele>1280.8</ele>
        <time>2021-10-09 13:20:20</time>
      </trkpt>
      <trkpt lat="40.49287" lon="-2.03297">
        <ele>1280.8</ele>
        <time>2021-10-09 13:20:21</time>
      </trkpt>
      <trkpt lat="40.49286" lon="-2.03293">
        <ele>1281.2</ele>
        <time>2021-10-09 13:20:22</time>
      </trkpt>
      <trkpt lat="40.49284" lon="-2.0329">
        <ele>1281.2</ele>
        <time>2021-10-09 13:20:23</time>
      </trkpt>
      <trkpt lat="40.49283" lon="-2.03287">
        <ele>1281.6</ele>
        <time>2021-10-09 13:20:24</time>
      </trkpt>
      <trkpt lat="40.49282" lon="-2.03283">
        <ele>1281.6</ele>
        <time>2021-10-09 13:20:25</time>
      </trkpt>
      <trkpt lat="40.4928" lon="-2.0328">
        <ele>1281.8</ele>
        <time>2021-10-09 13:20:26</time>
      </trkpt>
      <trkpt lat="40.49278" lon="-2.03277">
        <ele>1281.8</ele>
        <time>2021-10-09 13:20:27</time>
      </trkpt>
      <trkpt lat="40.49277" lon="-2.03274">
        <ele>1282.2</ele>
        <time>2021-10-09 13:20:28</time>
      </trkpt>
      <trkpt lat="40.49275" lon="-2.03271">
        <ele>1282.4</ele>
        <time>2021-10-09 13:20:29</time>
      </trkpt>
      <trkpt lat="40.49273" lon="-2.03268">
        <ele>1282.6</ele>
        <time>2021-10-09 13:20:30</time>
      </trkpt>
      <trkpt lat="40.49271" lon="-2.03265">
        <ele>1282.6</ele>
        <time>2021-10-09 13:20:31</time>
      </trkpt>
      <trkpt lat="40.49269" lon="-2.03262">
        <ele>1283</ele>
        <time>2021-10-09 13:20:32</time>
      </trkpt>
      <trkpt lat="40.49267" lon="-2.03259">
        <ele>1283</ele>
        <time>2021-10-09 13:20:33</time>
      </trkpt>
      <trkpt lat="40.49265" lon="-2.03257">
        <ele>1283.2</ele>
        <time>2021-10-09 13:20:34</time>
      </trkpt>
      <trkpt lat="40.49263" lon="-2.03254">
        <ele>1283.2</ele>
        <time>2021-10-09 13:20:35</time>
      </trkpt>
      <trkpt lat="40.49261" lon="-2.03251">
        <ele>1283.6</ele>
        <time>2021-10-09 13:20:36</time>
      </trkpt>
      <trkpt lat="40.49259" lon="-2.03248">
        <ele>1283.6</ele>
        <time>2021-10-09 13:20:37</time>
      </trkpt>
      <trkpt lat="40.49257" lon="-2.03246">
        <ele>1284</ele>
        <time>2021-10-09 13:20:38</time>
      </trkpt>
      <trkpt lat="40.49254" lon="-2.03243">
        <ele>1284</ele>
        <time>2021-10-09 13:20:39</time>
      </trkpt>
      <trkpt lat="40.49252" lon="-2.03241">
        <ele>1284</ele>
        <time>2021-10-09 13:20:40</time>
      </trkpt>
      <trkpt lat="40.49249" lon="-2.03238">
        <ele>1284.2</ele>
        <time>2021-10-09 13:20:41</time>
      </trkpt>
      <trkpt lat="40.49246" lon="-2.03236">
        <ele>1284.2</ele>
        <time>2021-10-09 13:20:42</time>
      </trkpt>
      <trkpt lat="40.49243" lon="-2.03233">
        <ele>1284.6</ele>
        <time>2021-10-09 13:20:43</time>
      </trkpt>
      <trkpt lat="40.49241" lon="-2.03231">
        <ele>1284.6</ele>
        <time>2021-10-09 13:20:44</time>
      </trkpt>
      <trkpt lat="40.49238" lon="-2.03229">
        <ele>1284.8</ele>
        <time>2021-10-09 13:20:45</time>
      </trkpt>
      <trkpt lat="40.49235" lon="-2.03226">
        <ele>1285</ele>
        <time>2021-10-09 13:20:46</time>
      </trkpt>
      <trkpt lat="40.49232" lon="-2.03224">
        <ele>1285</ele>
        <time>2021-10-09 13:20:47</time>
      </trkpt>
      <trkpt lat="40.49229" lon="-2.03222">
        <ele>1285.4</ele>
        <time>2021-10-09 13:20:48</time>
      </trkpt>
      <trkpt lat="40.49227" lon="-2.03219">
        <ele>1285.4</ele>
        <time>2021-10-09 13:20:49</time>
      </trkpt>
      <trkpt lat="40.49224" lon="-2.03217">
        <ele>1285.6</ele>
        <time>2021-10-09 13:20:50</time>
      </trkpt>
      <trkpt lat="40.49221" lon="-2.03215">
        <ele>1285.6</ele>
        <time>2021-10-09 13:20:51</time>
      </trkpt>
      <trkpt lat="40.49218" lon="-2.03213">
        <ele>1285.8</ele>
        <time>2021-10-09 13:20:52</time>
      </trkpt>
      <trkpt lat="40.49215" lon="-2.03211">
        <ele>1285.8</ele>
        <time>2021-10-09 13:20:53</time>
      </trkpt>
      <trkpt lat="40.49212" lon="-2.03209">
        <ele>1286</ele>
        <time>2021-10-09 13:20:54</time>
      </trkpt>
      <trkpt lat="40.4921" lon="-2.03207">
        <ele>1286.2</ele>
        <time>2021-10-09 13:20:55</time>
      </trkpt>
      <trkpt lat="40.49207" lon="-2.03206">
        <ele>1286.2</ele>
        <time>2021-10-09 13:20:56</time>
      </trkpt>
      <trkpt lat="40.49204" lon="-2.03204">
        <ele>1286.6</ele>
        <time>2021-10-09 13:20:57</time>
      </trkpt>
      <trkpt lat="40.49201" lon="-2.03202">
        <ele>1286.6</ele>
        <time>2021-10-09 13:20:58</time>
      </trkpt>
      <trkpt lat="40.49198" lon="-2.032">
        <ele>1286.8</ele>
        <time>2021-10-09 13:20:59</time>
      </trkpt>
      <trkpt lat="40.49196" lon="-2.03199">
        <ele>1286.8</ele>
        <time>2021-10-09 13:21:00</time>
      </trkpt>
      <trkpt lat="40.49193" lon="-2.03197">
        <ele>1287</ele>
        <time>2021-10-09 13:21:01</time>
      </trkpt>
      <trkpt lat="40.4919" lon="-2.03195">
        <ele>1287</ele>
        <time>2021-10-09 13:21:02</time>
      </trkpt>
      <trkpt lat="40.49187" lon="-2.03194">
        <ele>1287.4</ele>
        <time>2021-10-09 13:21:03</time>
      </trkpt>
      <trkpt lat="40.49184" lon="-2.03193">
        <ele>1287.4</ele>
        <time>2021-10-09 13:21:04</time>
      </trkpt>
      <trkpt lat="40.49181" lon="-2.03192">
        <ele>1287.6</ele>
        <time>2021-10-09 13:21:05</time>
      </trkpt>
      <trkpt lat="40.49178" lon="-2.03191">
        <ele>1287.6</ele>
        <time>2021-10-09 13:21:06</time>
      </trkpt>
      <trkpt lat="40.49175" lon="-2.0319">
        <ele>1288</ele>
        <time>2021-10-09 13:21:07</time>
      </trkpt>
      <trkpt lat="40.49172" lon="-2.03189">
        <ele>1288</ele>
        <time>2021-10-09 13:21:08</time>
      </trkpt>
      <trkpt lat="40.49169" lon="-2.03188">
        <ele>1288.2</ele>
        <time>2021-10-09 13:21:09</time>
      </trkpt>
      <trkpt lat="40.49166" lon="-2.03188">
        <ele>1288.2</ele>
        <time>2021-10-09 13:21:10</time>
      </trkpt>
      <trkpt lat="40.49163" lon="-2.03187">
        <ele>1288.4</ele>
        <time>2021-10-09 13:21:11</time>
      </trkpt>
      <trkpt lat="40.4916" lon="-2.03186">
        <ele>1288.4</ele>
        <time>2021-10-09 13:21:12</time>
      </trkpt>
      <trkpt lat="40.49157" lon="-2.03186">
        <ele>1288.4</ele>
        <time>2021-10-09 13:21:13</time>
      </trkpt>
      <trkpt lat="40.49154" lon="-2.03185">
        <ele>1288.8</ele>
        <time>2021-10-09 13:21:14</time>
      </trkpt>
      <trkpt lat="40.4915" lon="-2.03185">
        <ele>1288.8</ele>
        <time>2021-10-09 13:21:15</time>
      </trkpt>
      <trkpt lat="40.49147" lon="-2.03184">
        <ele>1289</ele>
        <time>2021-10-09 13:21:16</time>
      </trkpt>
      <trkpt lat="40.49143" lon="-2.03184">
        <ele>1289</ele>
        <time>2021-10-09 13:21:17</time>
      </trkpt>
      <trkpt lat="40.4914" lon="-2.03184">
        <ele>1289</ele>
        <time>2021-10-09 13:21:18</time>
      </trkpt>
      <trkpt lat="40.49136" lon="-2.03183">
        <ele>1289.4</ele>
        <time>2021-10-09 13:21:19</time>
      </trkpt>
      <trkpt lat="40.49133" lon="-2.03182">
        <ele>1289.4</ele>
        <time>2021-10-09 13:21:20</time>
      </trkpt>
      <trkpt lat="40.49129" lon="-2.03181">
        <ele>1289.6</ele>
        <time>2021-10-09 13:21:21</time>
      </trkpt>
      <trkpt lat="40.49126" lon="-2.03181">
        <ele>1289.6</ele>
        <time>2021-10-09 13:21:22</time>
      </trkpt>
      <trkpt lat="40.49122" lon="-2.0318">
        <ele>1289.8</ele>
        <time>2021-10-09 13:21:23</time>
      </trkpt>
      <trkpt lat="40.49119" lon="-2.0318">
        <ele>1289.8</ele>
        <time>2021-10-09 13:21:24</time>
      </trkpt>
      <trkpt lat="40.49116" lon="-2.03179">
        <ele>1290</ele>
        <time>2021-10-09 13:21:25</time>
      </trkpt>
      <trkpt lat="40.49113" lon="-2.03179">
        <ele>1290</ele>
        <time>2021-10-09 13:21:26</time>
      </trkpt>
      <trkpt lat="40.49109" lon="-2.03178">
        <ele>1290.4</ele>
        <time>2021-10-09 13:21:27</time>
      </trkpt>
      <trkpt lat="40.49106" lon="-2.03177">
        <ele>1290.4</ele>
        <time>2021-10-09 13:21:28</time>
      </trkpt>
      <trkpt lat="40.49103" lon="-2.03176">
        <ele>1290.8</ele>
        <time>2021-10-09 13:21:29</time>
      </trkpt>
      <trkpt lat="40.491" lon="-2.03175">
        <ele>1290.8</ele>
        <time>2021-10-09 13:21:30</time>
      </trkpt>
      <trkpt lat="40.49096" lon="-2.03174">
        <ele>1291</ele>
        <time>2021-10-09 13:21:31</time>
      </trkpt>
      <trkpt lat="40.49093" lon="-2.03172">
        <ele>1291</ele>
        <time>2021-10-09 13:21:32</time>
      </trkpt>
      <trkpt lat="40.49089" lon="-2.03171">
        <ele>1291.4</ele>
        <time>2021-10-09 13:21:33</time>
      </trkpt>
      <trkpt lat="40.49086" lon="-2.03169">
        <ele>1291.4</ele>
        <time>2021-10-09 13:21:34</time>
      </trkpt>
      <trkpt lat="40.49082" lon="-2.03168">
        <ele>1291.6</ele>
        <time>2021-10-09 13:21:35</time>
      </trkpt>
      <trkpt lat="40.49079" lon="-2.03167">
        <ele>1291.6</ele>
        <time>2021-10-09 13:21:36</time>
      </trkpt>
      <trkpt lat="40.49076" lon="-2.03165">
        <ele>1292</ele>
        <time>2021-10-09 13:21:37</time>
      </trkpt>
      <trkpt lat="40.49072" lon="-2.03164">
        <ele>1292</ele>
        <time>2021-10-09 13:21:38</time>
      </trkpt>
      <trkpt lat="40.49069" lon="-2.03163">
        <ele>1292.2</ele>
        <time>2021-10-09 13:21:39</time>
      </trkpt>
      <trkpt lat="40.49066" lon="-2.03162">
        <ele>1292.2</ele>
        <time>2021-10-09 13:21:40</time>
      </trkpt>
      <trkpt lat="40.49063" lon="-2.0316">
        <ele>1292.6</ele>
        <time>2021-10-09 13:21:41</time>
      </trkpt>
      <trkpt lat="40.49059" lon="-2.03159">
        <ele>1292.6</ele>
        <time>2021-10-09 13:21:42</time>
      </trkpt>
      <trkpt lat="40.49056" lon="-2.03158">
        <ele>1292.8</ele>
        <time>2021-10-09 13:21:43</time>
      </trkpt>
      <trkpt lat="40.49053" lon="-2.03156">
        <ele>1292.8</ele>
        <time>2021-10-09 13:21:44</time>
      </trkpt>
      <trkpt lat="40.4905" lon="-2.03155">
        <ele>1293</ele>
        <time>2021-10-09 13:21:45</time>
      </trkpt>
      <trkpt lat="40.49046" lon="-2.03153">
        <ele>1293</ele>
        <time>2021-10-09 13:21:46</time>
      </trkpt>
      <trkpt lat="40.49043" lon="-2.03152">
        <ele>1293.4</ele>
        <time>2021-10-09 13:21:47</time>
      </trkpt>
      <trkpt lat="40.4904" lon="-2.0315">
        <ele>1293.4</ele>
        <time>2021-10-09 13:21:48</time>
      </trkpt>
      <trkpt lat="40.49037" lon="-2.03149">
        <ele>1293.6</ele>
        <time>2021-10-09 13:21:49</time>
      </trkpt>
      <trkpt lat="40.49033" lon="-2.03147">
        <ele>1293.6</ele>
        <time>2021-10-09 13:21:50</time>
      </trkpt>
      <trkpt lat="40.4903" lon="-2.03146">
        <ele>1294</ele>
        <time>2021-10-09 13:21:51</time>
      </trkpt>
      <trkpt lat="40.49027" lon="-2.03145">
        <ele>1294</ele>
        <time>2021-10-09 13:21:52</time>
      </trkpt>
      <trkpt lat="40.49024" lon="-2.03143">
        <ele>1294.2</ele>
        <time>2021-10-09 13:21:53</time>
      </trkpt>
      <trkpt lat="40.4902" lon="-2.03142">
        <ele>1294.2</ele>
        <time>2021-10-09 13:21:54</time>
      </trkpt>
      <trkpt lat="40.49017" lon="-2.03141">
        <ele>1294.4</ele>
        <time>2021-10-09 13:21:55</time>
      </trkpt>
      <trkpt lat="40.49014" lon="-2.03139">
        <ele>1294.4</ele>
        <time>2021-10-09 13:21:56</time>
      </trkpt>
      <trkpt lat="40.49011" lon="-2.03138">
        <ele>1294.6</ele>
        <time>2021-10-09 13:21:57</time>
      </trkpt>
      <trkpt lat="40.49008" lon="-2.03136">
        <ele>1294.6</ele>
        <time>2021-10-09 13:21:58</time>
      </trkpt>
      <trkpt lat="40.49005" lon="-2.03135">
        <ele>1294.8</ele>
        <time>2021-10-09 13:21:59</time>
      </trkpt>
      <trkpt lat="40.49002" lon="-2.03133">
        <ele>1294.8</ele>
        <time>2021-10-09 13:22:00</time>
      </trkpt>
      <trkpt lat="40.48998" lon="-2.03132">
        <ele>1295.2</ele>
        <time>2021-10-09 13:22:01</time>
      </trkpt>
      <trkpt lat="40.48995" lon="-2.03131">
        <ele>1295.2</ele>
        <time>2021-10-09 13:22:02</time>
      </trkpt>
      <trkpt lat="40.48992" lon="-2.03129">
        <ele>1295.6</ele>
        <time>2021-10-09 13:22:03</time>
      </trkpt>
      <trkpt lat="40.48989" lon="-2.03128">
        <ele>1295.6</ele>
        <time>2021-10-09 13:22:04</time>
      </trkpt>
      <trkpt lat="40.48986" lon="-2.03127">
        <ele>1296</ele>
        <time>2021-10-09 13:22:05</time>
      </trkpt>
      <trkpt lat="40.48983" lon="-2.03126">
        <ele>1296</ele>
        <time>2021-10-09 13:22:06</time>
      </trkpt>
      <trkpt lat="40.48979" lon="-2.03124">
        <ele>1296.4</ele>
        <time>2021-10-09 13:22:07</time>
      </trkpt>
      <trkpt lat="40.48976" lon="-2.03123">
        <ele>1296.4</ele>
        <time>2021-10-09 13:22:08</time>
      </trkpt>
      <trkpt lat="40.48973" lon="-2.03121">
        <ele>1296.6</ele>
        <time>2021-10-09 13:22:09</time>
      </trkpt>
      <trkpt lat="40.48969" lon="-2.0312">
        <ele>1296.6</ele>
        <time>2021-10-09 13:22:10</time>
      </trkpt>
      <trkpt lat="40.48966" lon="-2.03118">
        <ele>1297</ele>
        <time>2021-10-09 13:22:11</time>
      </trkpt>
      <trkpt lat="40.48962" lon="-2.03117">
        <ele>1297</ele>
        <time>2021-10-09 13:22:12</time>
      </trkpt>
      <trkpt lat="40.48959" lon="-2.03115">
        <ele>1297.4</ele>
        <time>2021-10-09 13:22:13</time>
      </trkpt>
      <trkpt lat="40.48955" lon="-2.03113">
        <ele>1297.4</ele>
        <time>2021-10-09 13:22:14</time>
      </trkpt>
      <trkpt lat="40.48952" lon="-2.03111">
        <ele>1297.6</ele>
        <time>2021-10-09 13:22:15</time>
      </trkpt>
      <trkpt lat="40.48948" lon="-2.03109">
        <ele>1297.6</ele>
        <time>2021-10-09 13:22:16</time>
      </trkpt>
      <trkpt lat="40.48945" lon="-2.03108">
        <ele>1298.2</ele>
        <time>2021-10-09 13:22:17</time>
      </trkpt>
      <trkpt lat="40.48942" lon="-2.03106">
        <ele>1298.4</ele>
        <time>2021-10-09 13:22:18</time>
      </trkpt>
      <trkpt lat="40.48939" lon="-2.03104">
        <ele>1298.6</ele>
        <time>2021-10-09 13:22:19</time>
      </trkpt>
      <trkpt lat="40.48936" lon="-2.03101">
        <ele>1299</ele>
        <time>2021-10-09 13:22:20</time>
      </trkpt>
      <trkpt lat="40.48934" lon="-2.03099">
        <ele>1299</ele>
        <time>2021-10-09 13:22:21</time>
      </trkpt>
      <trkpt lat="40.48932" lon="-2.03096">
        <ele>1299.2</ele>
        <time>2021-10-09 13:22:22</time>
      </trkpt>
      <trkpt lat="40.4893" lon="-2.03092">
        <ele>1299.2</ele>
        <time>2021-10-09 13:22:23</time>
      </trkpt>
      <trkpt lat="40.48928" lon="-2.03088">
        <ele>1299.6</ele>
        <time>2021-10-09 13:22:24</time>
      </trkpt>
      <trkpt lat="40.48927" lon="-2.03084">
        <ele>1299.6</ele>
        <time>2021-10-09 13:22:25</time>
      </trkpt>
      <trkpt lat="40.48926" lon="-2.0308">
        <ele>1299.8</ele>
        <time>2021-10-09 13:22:26</time>
      </trkpt>
      <trkpt lat="40.48926" lon="-2.03076">
        <ele>1299.8</ele>
        <time>2021-10-09 13:22:27</time>
      </trkpt>
      <trkpt lat="40.48926" lon="-2.03072">
        <ele>1300.2</ele>
        <time>2021-10-09 13:22:28</time>
      </trkpt>
      <trkpt lat="40.48926" lon="-2.03067">
        <ele>1300.2</ele>
        <time>2021-10-09 13:22:29</time>
      </trkpt>
      <trkpt lat="40.48926" lon="-2.03063">
        <ele>1300.4</ele>
        <time>2021-10-09 13:22:30</time>
      </trkpt>
      <trkpt lat="40.48926" lon="-2.03059">
        <ele>1300.4</ele>
        <time>2021-10-09 13:22:31</time>
      </trkpt>
      <trkpt lat="40.48927" lon="-2.03055">
        <ele>1300.8</ele>
        <time>2021-10-09 13:22:32</time>
      </trkpt>
      <trkpt lat="40.48927" lon="-2.03051">
        <ele>1301.2</ele>
        <time>2021-10-09 13:22:33</time>
      </trkpt>
      <trkpt lat="40.48928" lon="-2.03047">
        <ele>1301.4</ele>
        <time>2021-10-09 13:22:34</time>
      </trkpt>
      <trkpt lat="40.48928" lon="-2.03043">
        <ele>1301.4</ele>
        <time>2021-10-09 13:22:35</time>
      </trkpt>
      <trkpt lat="40.48929" lon="-2.0304">
        <ele>1301.8</ele>
        <time>2021-10-09 13:22:36</time>
      </trkpt>
      <trkpt lat="40.4893" lon="-2.03037">
        <ele>1301.8</ele>
        <time>2021-10-09 13:22:37</time>
      </trkpt>
      <trkpt lat="40.48932" lon="-2.03033">
        <ele>1302.2</ele>
        <time>2021-10-09 13:22:38</time>
      </trkpt>
      <trkpt lat="40.48933" lon="-2.0303">
        <ele>1302.2</ele>
        <time>2021-10-09 13:22:39</time>
      </trkpt>
      <trkpt lat="40.48933" lon="-2.03027">
        <ele>1302.4</ele>
        <time>2021-10-09 13:22:40</time>
      </trkpt>
      <trkpt lat="40.48934" lon="-2.03023">
        <ele>1302.4</ele>
        <time>2021-10-09 13:22:41</time>
      </trkpt>
      <trkpt lat="40.48935" lon="-2.0302">
        <ele>1302.8</ele>
        <time>2021-10-09 13:22:42</time>
      </trkpt>
      <trkpt lat="40.48937" lon="-2.03016">
        <ele>1302.8</ele>
        <time>2021-10-09 13:22:43</time>
      </trkpt>
      <trkpt lat="40.48939" lon="-2.03013">
        <ele>1303.2</ele>
        <time>2021-10-09 13:22:44</time>
      </trkpt>
      <trkpt lat="40.48942" lon="-2.0301">
        <ele>1303.4</ele>
        <time>2021-10-09 13:22:45</time>
      </trkpt>
      <trkpt lat="40.48944" lon="-2.03007">
        <ele>1303.4</ele>
        <time>2021-10-09 13:22:46</time>
      </trkpt>
      <trkpt lat="40.48945" lon="-2.03004">
        <ele>1303.8</ele>
        <time>2021-10-09 13:22:47</time>
      </trkpt>
      <trkpt lat="40.48947" lon="-2.03">
        <ele>1303.8</ele>
        <time>2021-10-09 13:22:48</time>
      </trkpt>
      <trkpt lat="40.48948" lon="-2.02996">
        <ele>1304.2</ele>
        <time>2021-10-09 13:22:49</time>
      </trkpt>
      <trkpt lat="40.48949" lon="-2.02992">
        <ele>1304.6</ele>
        <time>2021-10-09 13:22:50</time>
      </trkpt>
      <trkpt lat="40.4895" lon="-2.02988">
        <ele>1304.6</ele>
        <time>2021-10-09 13:22:51</time>
      </trkpt>
      <trkpt lat="40.48951" lon="-2.02985">
        <ele>1304.8</ele>
        <time>2021-10-09 13:22:52</time>
      </trkpt>
      <trkpt lat="40.48952" lon="-2.02981">
        <ele>1305</ele>
        <time>2021-10-09 13:22:53</time>
      </trkpt>
      <trkpt lat="40.48952" lon="-2.02978">
        <ele>1305.2</ele>
        <time>2021-10-09 13:22:54</time>
      </trkpt>
      <trkpt lat="40.48952" lon="-2.02974">
        <ele>1305.6</ele>
        <time>2021-10-09 13:22:55</time>
      </trkpt>
      <trkpt lat="40.48953" lon="-2.02971">
        <ele>1305.6</ele>
        <time>2021-10-09 13:22:56</time>
      </trkpt>
      <trkpt lat="40.48953" lon="-2.02967">
        <ele>1306</ele>
        <time>2021-10-09 13:22:57</time>
      </trkpt>
      <trkpt lat="40.48953" lon="-2.02964">
        <ele>1306</ele>
        <time>2021-10-09 13:22:58</time>
      </trkpt>
      <trkpt lat="40.48953" lon="-2.0296">
        <ele>1306.2</ele>
        <time>2021-10-09 13:22:59</time>
      </trkpt>
      <trkpt lat="40.48953" lon="-2.02957">
        <ele>1306.2</ele>
        <time>2021-10-09 13:23:00</time>
      </trkpt>
      <trkpt lat="40.48952" lon="-2.02953">
        <ele>1306.4</ele>
        <time>2021-10-09 13:23:01</time>
      </trkpt>
      <trkpt lat="40.48952" lon="-2.0295">
        <ele>1306.4</ele>
        <time>2021-10-09 13:23:02</time>
      </trkpt>
      <trkpt lat="40.48951" lon="-2.02946">
        <ele>1306.8</ele>
        <time>2021-10-09 13:23:03</time>
      </trkpt>
      <trkpt lat="40.4895" lon="-2.02943">
        <ele>1306.8</ele>
        <time>2021-10-09 13:23:04</time>
      </trkpt>
      <trkpt lat="40.48949" lon="-2.02939">
        <ele>1307.2</ele>
        <time>2021-10-09 13:23:05</time>
      </trkpt>
      <trkpt lat="40.48947" lon="-2.02936">
        <ele>1307.2</ele>
        <time>2021-10-09 13:23:06</time>
      </trkpt>
      <trkpt lat="40.48946" lon="-2.02932">
        <ele>1307.6</ele>
        <time>2021-10-09 13:23:07</time>
      </trkpt>
      <trkpt lat="40.48944" lon="-2.02929">
        <ele>1307.8</ele>
        <time>2021-10-09 13:23:08</time>
      </trkpt>
      <trkpt lat="40.48943" lon="-2.02926">
        <ele>1307.8</ele>
        <time>2021-10-09 13:23:09</time>
      </trkpt>
      <trkpt lat="40.48941" lon="-2.02924">
        <ele>1308.2</ele>
        <time>2021-10-09 13:23:10</time>
      </trkpt>
      <trkpt lat="40.48939" lon="-2.02921">
        <ele>1308.4</ele>
        <time>2021-10-09 13:23:11</time>
      </trkpt>
      <trkpt lat="40.48937" lon="-2.02919">
        <ele>1308.4</ele>
        <time>2021-10-09 13:23:12</time>
      </trkpt>
      <trkpt lat="40.48935" lon="-2.02917">
        <ele>1308.4</ele>
        <time>2021-10-09 13:23:13</time>
      </trkpt>
      <trkpt lat="40.48933" lon="-2.02915">
        <ele>1308.6</ele>
        <time>2021-10-09 13:23:14</time>
      </trkpt>
      <trkpt lat="40.48931" lon="-2.02913">
        <ele>1308.6</ele>
        <time>2021-10-09 13:23:15</time>
      </trkpt>
      <trkpt lat="40.48928" lon="-2.0291">
        <ele>1308.6</ele>
        <time>2021-10-09 13:23:16</time>
      </trkpt>
      <trkpt lat="40.48926" lon="-2.02908">
        <ele>1309</ele>
        <time>2021-10-09 13:23:17</time>
      </trkpt>
      <trkpt lat="40.48923" lon="-2.02907">
        <ele>1309</ele>
        <time>2021-10-09 13:23:18</time>
      </trkpt>
      <trkpt lat="40.48921" lon="-2.02905">
        <ele>1309.2</ele>
        <time>2021-10-09 13:23:19</time>
      </trkpt>
      <trkpt lat="40.48918" lon="-2.02903">
        <ele>1309.2</ele>
        <time>2021-10-09 13:23:20</time>
      </trkpt>
      <trkpt lat="40.48916" lon="-2.02902">
        <ele>1309.6</ele>
        <time>2021-10-09 13:23:21</time>
      </trkpt>
      <trkpt lat="40.48913" lon="-2.029">
        <ele>1309.6</ele>
        <time>2021-10-09 13:23:22</time>
      </trkpt>
      <trkpt lat="40.48911" lon="-2.02898">
        <ele>1309.8</ele>
        <time>2021-10-09 13:23:23</time>
      </trkpt>
      <trkpt lat="40.48909" lon="-2.02896">
        <ele>1310</ele>
        <time>2021-10-09 13:23:24</time>
      </trkpt>
      <trkpt lat="40.48907" lon="-2.02894">
        <ele>1310</ele>
        <time>2021-10-09 13:23:25</time>
      </trkpt>
      <trkpt lat="40.48904" lon="-2.02892">
        <ele>1310.4</ele>
        <time>2021-10-09 13:23:26</time>
      </trkpt>
      <trkpt lat="40.48902" lon="-2.0289">
        <ele>1310.4</ele>
        <time>2021-10-09 13:23:27</time>
      </trkpt>
      <trkpt lat="40.489" lon="-2.02888">
        <ele>1310.8</ele>
        <time>2021-10-09 13:23:28</time>
      </trkpt>
      <trkpt lat="40.48898" lon="-2.02886">
        <ele>1310.8</ele>
        <time>2021-10-09 13:23:29</time>
      </trkpt>
      <trkpt lat="40.48896" lon="-2.02884">
        <ele>1310.8</ele>
        <time>2021-10-09 13:23:30</time>
      </trkpt>
      <trkpt lat="40.48893" lon="-2.02882">
        <ele>1311</ele>
        <time>2021-10-09 13:23:31</time>
      </trkpt>
      <trkpt lat="40.48891" lon="-2.02879">
        <ele>1311</ele>
        <time>2021-10-09 13:23:32</time>
      </trkpt>
      <trkpt lat="40.48889" lon="-2.02877">
        <ele>1311</ele>
        <time>2021-10-09 13:23:33</time>
      </trkpt>
      <trkpt lat="40.48887" lon="-2.02874">
        <ele>1311.4</ele>
        <time>2021-10-09 13:23:34</time>
      </trkpt>
      <trkpt lat="40.48885" lon="-2.02872">
        <ele>1311.4</ele>
        <time>2021-10-09 13:23:35</time>
      </trkpt>
      <trkpt lat="40.48883" lon="-2.0287">
        <ele>1311.6</ele>
        <time>2021-10-09 13:23:36</time>
      </trkpt>
      <trkpt lat="40.48881" lon="-2.02867">
        <ele>1311.6</ele>
        <time>2021-10-09 13:23:37</time>
      </trkpt>
      <trkpt lat="40.48879" lon="-2.02865">
        <ele>1312</ele>
        <time>2021-10-09 13:23:38</time>
      </trkpt>
      <trkpt lat="40.48877" lon="-2.02862">
        <ele>1312</ele>
        <time>2021-10-09 13:23:39</time>
      </trkpt>
      <trkpt lat="40.48874" lon="-2.0286">
        <ele>1312.2</ele>
        <time>2021-10-09 13:23:40</time>
      </trkpt>
      <trkpt lat="40.48872" lon="-2.02857">
        <ele>1312.2</ele>
        <time>2021-10-09 13:23:41</time>
      </trkpt>
      <trkpt lat="40.4887" lon="-2.02855">
        <ele>1312.4</ele>
        <time>2021-10-09 13:23:42</time>
      </trkpt>
      <trkpt lat="40.48868" lon="-2.02854">
        <ele>1312.4</ele>
        <time>2021-10-09 13:23:43</time>
      </trkpt>
      <trkpt lat="40.48865" lon="-2.02852">
        <ele>1312.6</ele>
        <time>2021-10-09 13:23:44</time>
      </trkpt>
      <trkpt lat="40.48863" lon="-2.0285">
        <ele>1312.6</ele>
        <time>2021-10-09 13:23:45</time>
      </trkpt>
      <trkpt lat="40.4886" lon="-2.02848">
        <ele>1313</ele>
        <time>2021-10-09 13:23:46</time>
      </trkpt>
      <trkpt lat="40.48858" lon="-2.02846">
        <ele>1313</ele>
        <time>2021-10-09 13:23:47</time>
      </trkpt>
      <trkpt lat="40.48855" lon="-2.02845">
        <ele>1313.2</ele>
        <time>2021-10-09 13:23:48</time>
      </trkpt>
      <trkpt lat="40.48852" lon="-2.02843">
        <ele>1313.2</ele>
        <time>2021-10-09 13:23:49</time>
      </trkpt>
      <trkpt lat="40.48849" lon="-2.02842">
        <ele>1313.2</ele>
        <time>2021-10-09 13:23:50</time>
      </trkpt>
      <trkpt lat="40.48846" lon="-2.02841">
        <ele>1313.4</ele>
        <time>2021-10-09 13:23:51</time>
      </trkpt>
      <trkpt lat="40.48843" lon="-2.0284">
        <ele>1313.4</ele>
        <time>2021-10-09 13:23:52</time>
      </trkpt>
      <trkpt lat="40.4884" lon="-2.02839">
        <ele>1313.4</ele>
        <time>2021-10-09 13:23:53</time>
      </trkpt>
      <trkpt lat="40.48837" lon="-2.02837">
        <ele>1313.8</ele>
        <time>2021-10-09 13:23:54</time>
      </trkpt>
      <trkpt lat="40.48834" lon="-2.02836">
        <ele>1313.8</ele>
        <time>2021-10-09 13:23:55</time>
      </trkpt>
      <trkpt lat="40.48831" lon="-2.02835">
        <ele>1313.8</ele>
        <time>2021-10-09 13:23:56</time>
      </trkpt>
      <trkpt lat="40.48827" lon="-2.02834">
        <ele>1313.8</ele>
        <time>2021-10-09 13:23:57</time>
      </trkpt>
      <trkpt lat="40.48824" lon="-2.02833">
        <ele>1313.8</ele>
        <time>2021-10-09 13:23:58</time>
      </trkpt>
      <trkpt lat="40.4882" lon="-2.02832">
        <ele>1313.8</ele>
        <time>2021-10-09 13:23:59</time>
      </trkpt>
      <trkpt lat="40.48816" lon="-2.02831">
        <ele>1313.8</ele>
        <time>2021-10-09 13:24:00</time>
      </trkpt>
      <trkpt lat="40.48812" lon="-2.0283">
        <ele>1313.8</ele>
        <time>2021-10-09 13:24:01</time>
      </trkpt>
      <trkpt lat="40.48808" lon="-2.02828">
        <ele>1313.8</ele>
        <time>2021-10-09 13:24:02</time>
      </trkpt>
      <trkpt lat="40.48804" lon="-2.02827">
        <ele>1313.8</ele>
        <time>2021-10-09 13:24:03</time>
      </trkpt>
      <trkpt lat="40.488" lon="-2.02824">
        <ele>1313.8</ele>
        <time>2021-10-09 13:24:04</time>
      </trkpt>
      <trkpt lat="40.48796" lon="-2.02822">
        <ele>1313.8</ele>
        <time>2021-10-09 13:24:05</time>
      </trkpt>
      <trkpt lat="40.48791" lon="-2.0282">
        <ele>1313.8</ele>
        <time>2021-10-09 13:24:06</time>
      </trkpt>
      <trkpt lat="40.48787" lon="-2.02817">
        <ele>1313.8</ele>
        <time>2021-10-09 13:24:07</time>
      </trkpt>
      <trkpt lat="40.48783" lon="-2.02814">
        <ele>1313.8</ele>
        <time>2021-10-09 13:24:08</time>
      </trkpt>
      <trkpt lat="40.48779" lon="-2.0281">
        <ele>1313.8</ele>
        <time>2021-10-09 13:24:09</time>
      </trkpt>
      <trkpt lat="40.48775" lon="-2.02807">
        <ele>1313.8</ele>
        <time>2021-10-09 13:24:10</time>
      </trkpt>
      <trkpt lat="40.48771" lon="-2.02803">
        <ele>1313.8</ele>
        <time>2021-10-09 13:24:11</time>
      </trkpt>
      <trkpt lat="40.48767" lon="-2.028">
        <ele>1313.8</ele>
        <time>2021-10-09 13:24:12</time>
      </trkpt>
      <trkpt lat="40.48763" lon="-2.02796">
        <ele>1314</ele>
        <time>2021-10-09 13:24:13</time>
      </trkpt>
      <trkpt lat="40.48758" lon="-2.02793">
        <ele>1314</ele>
        <time>2021-10-09 13:24:14</time>
      </trkpt>
      <trkpt lat="40.48755" lon="-2.02789">
        <ele>1314</ele>
        <time>2021-10-09 13:24:15</time>
      </trkpt>
      <trkpt lat="40.4875" lon="-2.02786">
        <ele>1314</ele>
        <time>2021-10-09 13:24:16</time>
      </trkpt>
      <trkpt lat="40.48746" lon="-2.02782">
        <ele>1314</ele>
        <time>2021-10-09 13:24:17</time>
      </trkpt>
      <trkpt lat="40.48742" lon="-2.02779">
        <ele>1314</ele>
        <time>2021-10-09 13:24:18</time>
      </trkpt>
      <trkpt lat="40.48737" lon="-2.02777">
        <ele>1314</ele>
        <time>2021-10-09 13:24:19</time>
      </trkpt>
      <trkpt lat="40.48733" lon="-2.02774">
        <ele>1314</ele>
        <time>2021-10-09 13:24:20</time>
      </trkpt>
      <trkpt lat="40.48729" lon="-2.02773">
        <ele>1314</ele>
        <time>2021-10-09 13:24:21</time>
      </trkpt>
      <trkpt lat="40.48723" lon="-2.02771">
        <ele>1314</ele>
        <time>2021-10-09 13:24:22</time>
      </trkpt>
      <trkpt lat="40.48719" lon="-2.02769">
        <ele>1314</ele>
        <time>2021-10-09 13:24:23</time>
      </trkpt>
      <trkpt lat="40.48714" lon="-2.02768">
        <ele>1314</ele>
        <time>2021-10-09 13:24:24</time>
      </trkpt>
      <trkpt lat="40.48708" lon="-2.02766">
        <ele>1314</ele>
        <time>2021-10-09 13:24:25</time>
      </trkpt>
      <trkpt lat="40.48704" lon="-2.02765">
        <ele>1314</ele>
        <time>2021-10-09 13:24:26</time>
      </trkpt>
      <trkpt lat="40.487" lon="-2.02764">
        <ele>1314</ele>
        <time>2021-10-09 13:24:27</time>
      </trkpt>
      <trkpt lat="40.48695" lon="-2.02762">
        <ele>1314</ele>
        <time>2021-10-09 13:24:28</time>
      </trkpt>
      <trkpt lat="40.48691" lon="-2.02758">
        <ele>1314</ele>
        <time>2021-10-09 13:24:29</time>
      </trkpt>
      <trkpt lat="40.48687" lon="-2.02754">
        <ele>1314</ele>
        <time>2021-10-09 13:24:30</time>
      </trkpt>
      <trkpt lat="40.48683" lon="-2.0275">
        <ele>1314</ele>
        <time>2021-10-09 13:24:31</time>
      </trkpt>
      <trkpt lat="40.48679" lon="-2.02746">
        <ele>1314</ele>
        <time>2021-10-09 13:24:32</time>
      </trkpt>
      <trkpt lat="40.48675" lon="-2.0274">
        <ele>1314</ele>
        <time>2021-10-09 13:24:33</time>
      </trkpt>
      <trkpt lat="40.48671" lon="-2.02736">
        <ele>1314</ele>
        <time>2021-10-09 13:24:34</time>
      </trkpt>
      <trkpt lat="40.48668" lon="-2.02731">
        <ele>1314</ele>
        <time>2021-10-09 13:24:35</time>
      </trkpt>
      <trkpt lat="40.48664" lon="-2.02727">
        <ele>1314</ele>
        <time>2021-10-09 13:24:36</time>
      </trkpt>
      <trkpt lat="40.4866" lon="-2.02723">
        <ele>1314</ele>
        <time>2021-10-09 13:24:37</time>
      </trkpt>
      <trkpt lat="40.48656" lon="-2.0272">
        <ele>1314</ele>
        <time>2021-10-09 13:24:38</time>
      </trkpt>
      <trkpt lat="40.48652" lon="-2.02716">
        <ele>1314</ele>
        <time>2021-10-09 13:24:39</time>
      </trkpt>
      <trkpt lat="40.48648" lon="-2.02714">
        <ele>1314</ele>
        <time>2021-10-09 13:24:40</time>
      </trkpt>
      <trkpt lat="40.48643" lon="-2.02711">
        <ele>1314.2</ele>
        <time>2021-10-09 13:24:41</time>
      </trkpt>
      <trkpt lat="40.48639" lon="-2.0271">
        <ele>1314.2</ele>
        <time>2021-10-09 13:24:42</time>
      </trkpt>
      <trkpt lat="40.48634" lon="-2.02708">
        <ele>1314.6</ele>
        <time>2021-10-09 13:24:43</time>
      </trkpt>
      <trkpt lat="40.48629" lon="-2.02707">
        <ele>1314.6</ele>
        <time>2021-10-09 13:24:44</time>
      </trkpt>
      <trkpt lat="40.48625" lon="-2.02706">
        <ele>1314.8</ele>
        <time>2021-10-09 13:24:45</time>
      </trkpt>
      <trkpt lat="40.4862" lon="-2.02706">
        <ele>1314.8</ele>
        <time>2021-10-09 13:24:46</time>
      </trkpt>
      <trkpt lat="40.48616" lon="-2.02705">
        <ele>1315</ele>
        <time>2021-10-09 13:24:47</time>
      </trkpt>
      <trkpt lat="40.48611" lon="-2.02704">
        <ele>1315</ele>
        <time>2021-10-09 13:24:48</time>
      </trkpt>
      <trkpt lat="40.48607" lon="-2.02703">
        <ele>1315.4</ele>
        <time>2021-10-09 13:24:49</time>
      </trkpt>
      <trkpt lat="40.48603" lon="-2.02703">
        <ele>1315.4</ele>
        <time>2021-10-09 13:24:50</time>
      </trkpt>
      <trkpt lat="40.48599" lon="-2.02702">
        <ele>1315.4</ele>
        <time>2021-10-09 13:24:51</time>
      </trkpt>
      <trkpt lat="40.48595" lon="-2.02702">
        <ele>1315.6</ele>
        <time>2021-10-09 13:24:52</time>
      </trkpt>
      <trkpt lat="40.48591" lon="-2.02701">
        <ele>1315.6</ele>
        <time>2021-10-09 13:24:53</time>
      </trkpt>
      <trkpt lat="40.48587" lon="-2.02701">
        <ele>1315.6</ele>
        <time>2021-10-09 13:24:54</time>
      </trkpt>
      <trkpt lat="40.48583" lon="-2.027">
        <ele>1315.6</ele>
        <time>2021-10-09 13:24:55</time>
      </trkpt>
      <trkpt lat="40.48579" lon="-2.02699">
        <ele>1315.8</ele>
        <time>2021-10-09 13:24:56</time>
      </trkpt>
      <trkpt lat="40.48575" lon="-2.02698">
        <ele>1315.8</ele>
        <time>2021-10-09 13:24:57</time>
      </trkpt>
      <trkpt lat="40.48571" lon="-2.02698">
        <ele>1316</ele>
        <time>2021-10-09 13:24:58</time>
      </trkpt>
      <trkpt lat="40.48568" lon="-2.02697">
        <ele>1316.2</ele>
        <time>2021-10-09 13:24:59</time>
      </trkpt>
      <trkpt lat="40.48564" lon="-2.02697">
        <ele>1316.2</ele>
        <time>2021-10-09 13:25:00</time>
      </trkpt>
      <trkpt lat="40.4856" lon="-2.02697">
        <ele>1316.4</ele>
        <time>2021-10-09 13:25:01</time>
      </trkpt>
      <trkpt lat="40.48556" lon="-2.02696">
        <ele>1316.4</ele>
        <time>2021-10-09 13:25:02</time>
      </trkpt>
      <trkpt lat="40.48553" lon="-2.02696">
        <ele>1316.6</ele>
        <time>2021-10-09 13:25:03</time>
      </trkpt>
      <trkpt lat="40.48549" lon="-2.02696">
        <ele>1316.6</ele>
        <time>2021-10-09 13:25:04</time>
      </trkpt>
      <trkpt lat="40.48546" lon="-2.02695">
        <ele>1316.6</ele>
        <time>2021-10-09 13:25:05</time>
      </trkpt>
      <trkpt lat="40.48542" lon="-2.02695">
        <ele>1317</ele>
        <time>2021-10-09 13:25:06</time>
      </trkpt>
      <trkpt lat="40.48539" lon="-2.02695">
        <ele>1317</ele>
        <time>2021-10-09 13:25:07</time>
      </trkpt>
      <trkpt lat="40.48535" lon="-2.02695">
        <ele>1317.2</ele>
        <time>2021-10-09 13:25:08</time>
      </trkpt>
      <trkpt lat="40.48532" lon="-2.02694">
        <ele>1317.2</ele>
        <time>2021-10-09 13:25:09</time>
      </trkpt>
      <trkpt lat="40.48529" lon="-2.02694">
        <ele>1317.4</ele>
        <time>2021-10-09 13:25:10</time>
      </trkpt>
      <trkpt lat="40.48526" lon="-2.02694">
        <ele>1317.4</ele>
        <time>2021-10-09 13:25:11</time>
      </trkpt>
      <trkpt lat="40.48523" lon="-2.02693">
        <ele>1317.6</ele>
        <time>2021-10-09 13:25:12</time>
      </trkpt>
      <trkpt lat="40.4852" lon="-2.02693">
        <ele>1317.6</ele>
        <time>2021-10-09 13:25:13</time>
      </trkpt>
      <trkpt lat="40.48516" lon="-2.02692">
        <ele>1318</ele>
        <time>2021-10-09 13:25:14</time>
      </trkpt>
      <trkpt lat="40.48514" lon="-2.02692">
        <ele>1318</ele>
        <time>2021-10-09 13:25:15</time>
      </trkpt>
      <trkpt lat="40.48511" lon="-2.02692">
        <ele>1318.4</ele>
        <time>2021-10-09 13:25:16</time>
      </trkpt>
      <trkpt lat="40.48508" lon="-2.02692">
        <ele>1318.6</ele>
        <time>2021-10-09 13:25:17</time>
      </trkpt>
      <trkpt lat="40.48505" lon="-2.02692">
        <ele>1318.6</ele>
        <time>2021-10-09 13:25:18</time>
      </trkpt>
      <trkpt lat="40.48502" lon="-2.02691">
        <ele>1319</ele>
        <time>2021-10-09 13:25:19</time>
      </trkpt>
      <trkpt lat="40.48499" lon="-2.02691">
        <ele>1319</ele>
        <time>2021-10-09 13:25:20</time>
      </trkpt>
      <trkpt lat="40.48496" lon="-2.02691">
        <ele>1319.4</ele>
        <time>2021-10-09 13:25:21</time>
      </trkpt>
      <trkpt lat="40.48493" lon="-2.02691">
        <ele>1319.4</ele>
        <time>2021-10-09 13:25:22</time>
      </trkpt>
      <trkpt lat="40.4849" lon="-2.02691">
        <ele>1319.6</ele>
        <time>2021-10-09 13:25:23</time>
      </trkpt>
      <trkpt lat="40.48487" lon="-2.02691">
        <ele>1319.6</ele>
        <time>2021-10-09 13:25:24</time>
      </trkpt>
      <trkpt lat="40.48484" lon="-2.02691">
        <ele>1319.8</ele>
        <time>2021-10-09 13:25:25</time>
      </trkpt>
      <trkpt lat="40.48482" lon="-2.02691">
        <ele>1319.8</ele>
        <time>2021-10-09 13:25:26</time>
      </trkpt>
      <trkpt lat="40.48479" lon="-2.0269">
        <ele>1320.2</ele>
        <time>2021-10-09 13:25:27</time>
      </trkpt>
      <trkpt lat="40.48476" lon="-2.0269">
        <ele>1320.2</ele>
        <time>2021-10-09 13:25:28</time>
      </trkpt>
      <trkpt lat="40.48473" lon="-2.0269">
        <ele>1320.4</ele>
        <time>2021-10-09 13:25:29</time>
      </trkpt>
      <trkpt lat="40.4847" lon="-2.0269">
        <ele>1320.4</ele>
        <time>2021-10-09 13:25:30</time>
      </trkpt>
      <trkpt lat="40.48467" lon="-2.0269">
        <ele>1320.4</ele>
        <time>2021-10-09 13:25:31</time>
      </trkpt>
      <trkpt lat="40.48465" lon="-2.0269">
        <ele>1320.8</ele>
        <time>2021-10-09 13:25:32</time>
      </trkpt>
      <trkpt lat="40.48462" lon="-2.02689">
        <ele>1320.8</ele>
        <time>2021-10-09 13:25:33</time>
      </trkpt>
      <trkpt lat="40.48459" lon="-2.02689">
        <ele>1321</ele>
        <time>2021-10-09 13:25:34</time>
      </trkpt>
      <trkpt lat="40.48456" lon="-2.02689">
        <ele>1321</ele>
        <time>2021-10-09 13:25:35</time>
      </trkpt>
      <trkpt lat="40.48454" lon="-2.02689">
        <ele>1321.2</ele>
        <time>2021-10-09 13:25:36</time>
      </trkpt>
      <trkpt lat="40.48451" lon="-2.02689">
        <ele>1321.2</ele>
        <time>2021-10-09 13:25:37</time>
      </trkpt>
      <trkpt lat="40.48448" lon="-2.02689">
        <ele>1321.6</ele>
        <time>2021-10-09 13:25:38</time>
      </trkpt>
      <trkpt lat="40.48446" lon="-2.02688">
        <ele>1321.8</ele>
        <time>2021-10-09 13:25:39</time>
      </trkpt>
      <trkpt lat="40.48443" lon="-2.02688">
        <ele>1321.8</ele>
        <time>2021-10-09 13:25:40</time>
      </trkpt>
      <trkpt lat="40.4844" lon="-2.02688">
        <ele>1322</ele>
        <time>2021-10-09 13:25:41</time>
      </trkpt>
      <trkpt lat="40.48437" lon="-2.02688">
        <ele>1322</ele>
        <time>2021-10-09 13:25:42</time>
      </trkpt>
      <trkpt lat="40.48435" lon="-2.02687">
        <ele>1322.4</ele>
        <time>2021-10-09 13:25:43</time>
      </trkpt>
      <trkpt lat="40.48432" lon="-2.02687">
        <ele>1322.4</ele>
        <time>2021-10-09 13:25:44</time>
      </trkpt>
      <trkpt lat="40.48429" lon="-2.02687">
        <ele>1322.6</ele>
        <time>2021-10-09 13:25:45</time>
      </trkpt>
      <trkpt lat="40.48427" lon="-2.02688">
        <ele>1322.6</ele>
        <time>2021-10-09 13:25:46</time>
      </trkpt>
      <trkpt lat="40.48424" lon="-2.02687">
        <ele>1323</ele>
        <time>2021-10-09 13:25:47</time>
      </trkpt>
      <trkpt lat="40.48421" lon="-2.02687">
        <ele>1323</ele>
        <time>2021-10-09 13:25:48</time>
      </trkpt>
      <trkpt lat="40.48419" lon="-2.02687">
        <ele>1323.4</ele>
        <time>2021-10-09 13:25:49</time>
      </trkpt>
      <trkpt lat="40.48416" lon="-2.02687">
        <ele>1323.4</ele>
        <time>2021-10-09 13:25:50</time>
      </trkpt>
      <trkpt lat="40.48413" lon="-2.02686">
        <ele>1323.6</ele>
        <time>2021-10-09 13:25:51</time>
      </trkpt>
      <trkpt lat="40.48411" lon="-2.02686">
        <ele>1323.6</ele>
        <time>2021-10-09 13:25:52</time>
      </trkpt>
      <trkpt lat="40.48409" lon="-2.02685">
        <ele>1324</ele>
        <time>2021-10-09 13:25:53</time>
      </trkpt>
      <trkpt lat="40.48406" lon="-2.02685">
        <ele>1324</ele>
        <time>2021-10-09 13:25:54</time>
      </trkpt>
      <trkpt lat="40.48404" lon="-2.02685">
        <ele>1324.2</ele>
        <time>2021-10-09 13:25:55</time>
      </trkpt>
      <trkpt lat="40.48401" lon="-2.02685">
        <ele>1324.2</ele>
        <time>2021-10-09 13:25:56</time>
      </trkpt>
      <trkpt lat="40.48399" lon="-2.02686">
        <ele>1324.4</ele>
        <time>2021-10-09 13:25:57</time>
      </trkpt>
      <trkpt lat="40.48396" lon="-2.02686">
        <ele>1324.4</ele>
        <time>2021-10-09 13:25:58</time>
      </trkpt>
      <trkpt lat="40.48393" lon="-2.02686">
        <ele>1324.6</ele>
        <time>2021-10-09 13:25:59</time>
      </trkpt>
      <trkpt lat="40.4839" lon="-2.02686">
        <ele>1324.6</ele>
        <time>2021-10-09 13:26:00</time>
      </trkpt>
      <trkpt lat="40.48388" lon="-2.02686">
        <ele>1325</ele>
        <time>2021-10-09 13:26:01</time>
      </trkpt>
      <trkpt lat="40.48385" lon="-2.02687">
        <ele>1325</ele>
        <time>2021-10-09 13:26:02</time>
      </trkpt>
      <trkpt lat="40.48382" lon="-2.02687">
        <ele>1325.2</ele>
        <time>2021-10-09 13:26:03</time>
      </trkpt>
      <trkpt lat="40.4838" lon="-2.02687">
        <ele>1325.2</ele>
        <time>2021-10-09 13:26:04</time>
      </trkpt>
      <trkpt lat="40.48377" lon="-2.02687">
        <ele>1325.4</ele>
        <time>2021-10-09 13:26:05</time>
      </trkpt>
      <trkpt lat="40.48375" lon="-2.02687">
        <ele>1325.4</ele>
        <time>2021-10-09 13:26:06</time>
      </trkpt>
      <trkpt lat="40.48372" lon="-2.02688">
        <ele>1325.8</ele>
        <time>2021-10-09 13:26:07</time>
      </trkpt>
      <trkpt lat="40.48369" lon="-2.02688">
        <ele>1325.8</ele>
        <time>2021-10-09 13:26:08</time>
      </trkpt>
      <trkpt lat="40.48367" lon="-2.02688">
        <ele>1326</ele>
        <time>2021-10-09 13:26:09</time>
      </trkpt>
      <trkpt lat="40.48364" lon="-2.02688">
        <ele>1326</ele>
        <time>2021-10-09 13:26:10</time>
      </trkpt>
      <trkpt lat="40.48361" lon="-2.02688">
        <ele>1326.2</ele>
        <time>2021-10-09 13:26:11</time>
      </trkpt>
      <trkpt lat="40.48359" lon="-2.02688">
        <ele>1326.2</ele>
        <time>2021-10-09 13:26:12</time>
      </trkpt>
      <trkpt lat="40.48356" lon="-2.02688">
        <ele>1326.6</ele>
        <time>2021-10-09 13:26:13</time>
      </trkpt>
      <trkpt lat="40.48353" lon="-2.02688">
        <ele>1326.6</ele>
        <time>2021-10-09 13:26:14</time>
      </trkpt>
      <trkpt lat="40.4835" lon="-2.02688">
        <ele>1327</ele>
        <time>2021-10-09 13:26:15</time>
      </trkpt>
      <trkpt lat="40.48347" lon="-2.02688">
        <ele>1327</ele>
        <time>2021-10-09 13:26:16</time>
      </trkpt>
      <trkpt lat="40.48344" lon="-2.02688">
        <ele>1327.2</ele>
        <time>2021-10-09 13:26:17</time>
      </trkpt>
      <trkpt lat="40.48341" lon="-2.02688">
        <ele>1327.2</ele>
        <time>2021-10-09 13:26:18</time>
      </trkpt>
      <trkpt lat="40.48339" lon="-2.02688">
        <ele>1327.4</ele>
        <time>2021-10-09 13:26:19</time>
      </trkpt>
      <trkpt lat="40.48336" lon="-2.02688">
        <ele>1327.4</ele>
        <time>2021-10-09 13:26:20</time>
      </trkpt>
      <trkpt lat="40.48333" lon="-2.02687">
        <ele>1327.6</ele>
        <time>2021-10-09 13:26:21</time>
      </trkpt>
      <trkpt lat="40.48331" lon="-2.02688">
        <ele>1327.6</ele>
        <time>2021-10-09 13:26:22</time>
      </trkpt>
      <trkpt lat="40.48328" lon="-2.02688">
        <ele>1328</ele>
        <time>2021-10-09 13:26:23</time>
      </trkpt>
      <trkpt lat="40.48326" lon="-2.02688">
        <ele>1328.2</ele>
        <time>2021-10-09 13:26:24</time>
      </trkpt>
      <trkpt lat="40.48323" lon="-2.02688">
        <ele>1328.2</ele>
        <time>2021-10-09 13:26:25</time>
      </trkpt>
      <trkpt lat="40.4832" lon="-2.02688">
        <ele>1328.6</ele>
        <time>2021-10-09 13:26:26</time>
      </trkpt>
      <trkpt lat="40.48318" lon="-2.02688">
        <ele>1328.6</ele>
        <time>2021-10-09 13:26:27</time>
      </trkpt>
      <trkpt lat="40.48315" lon="-2.02688">
        <ele>1328.8</ele>
        <time>2021-10-09 13:26:28</time>
      </trkpt>
      <trkpt lat="40.48313" lon="-2.02688">
        <ele>1329.2</ele>
        <time>2021-10-09 13:26:29</time>
      </trkpt>
      <trkpt lat="40.48311" lon="-2.02688">
        <ele>1329.2</ele>
        <time>2021-10-09 13:26:30</time>
      </trkpt>
      <trkpt lat="40.48308" lon="-2.02688">
        <ele>1329.6</ele>
        <time>2021-10-09 13:26:31</time>
      </trkpt>
      <trkpt lat="40.48305" lon="-2.02688">
        <ele>1329.6</ele>
        <time>2021-10-09 13:26:32</time>
      </trkpt>
      <trkpt lat="40.48302" lon="-2.02688">
        <ele>1329.8</ele>
        <time>2021-10-09 13:26:33</time>
      </trkpt>
      <trkpt lat="40.483" lon="-2.02688">
        <ele>1330</ele>
        <time>2021-10-09 13:26:34</time>
      </trkpt>
      <trkpt lat="40.48297" lon="-2.02688">
        <ele>1330</ele>
        <time>2021-10-09 13:26:35</time>
      </trkpt>
      <trkpt lat="40.48295" lon="-2.02688">
        <ele>1330.4</ele>
        <time>2021-10-09 13:26:36</time>
      </trkpt>
      <trkpt lat="40.48292" lon="-2.02688">
        <ele>1330.4</ele>
        <time>2021-10-09 13:26:37</time>
      </trkpt>
      <trkpt lat="40.48289" lon="-2.02688">
        <ele>1330.8</ele>
        <time>2021-10-09 13:26:38</time>
      </trkpt>
      <trkpt lat="40.48287" lon="-2.02688">
        <ele>1330.8</ele>
        <time>2021-10-09 13:26:39</time>
      </trkpt>
      <trkpt lat="40.48284" lon="-2.02688">
        <ele>1331</ele>
        <time>2021-10-09 13:26:40</time>
      </trkpt>
      <trkpt lat="40.48281" lon="-2.02688">
        <ele>1331</ele>
        <time>2021-10-09 13:26:41</time>
      </trkpt>
      <trkpt lat="40.48278" lon="-2.02688">
        <ele>1331.4</ele>
        <time>2021-10-09 13:26:42</time>
      </trkpt>
      <trkpt lat="40.48276" lon="-2.02689">
        <ele>1331.4</ele>
        <time>2021-10-09 13:26:43</time>
      </trkpt>
      <trkpt lat="40.48273" lon="-2.02689">
        <ele>1331.6</ele>
        <time>2021-10-09 13:26:44</time>
      </trkpt>
      <trkpt lat="40.48271" lon="-2.02689">
        <ele>1331.6</ele>
        <time>2021-10-09 13:26:45</time>
      </trkpt>
      <trkpt lat="40.48268" lon="-2.0269">
        <ele>1332</ele>
        <time>2021-10-09 13:26:46</time>
      </trkpt>
      <trkpt lat="40.48265" lon="-2.0269">
        <ele>1332.2</ele>
        <time>2021-10-09 13:26:47</time>
      </trkpt>
      <trkpt lat="40.48263" lon="-2.0269">
        <ele>1332.2</ele>
        <time>2021-10-09 13:26:48</time>
      </trkpt>
      <trkpt lat="40.4826" lon="-2.0269">
        <ele>1332.6</ele>
        <time>2021-10-09 13:26:49</time>
      </trkpt>
      <trkpt lat="40.48257" lon="-2.0269">
        <ele>1332.6</ele>
        <time>2021-10-09 13:26:50</time>
      </trkpt>
      <trkpt lat="40.48255" lon="-2.0269">
        <ele>1333</ele>
        <time>2021-10-09 13:26:51</time>
      </trkpt>
      <trkpt lat="40.48252" lon="-2.0269">
        <ele>1333</ele>
        <time>2021-10-09 13:26:52</time>
      </trkpt>
      <trkpt lat="40.48249" lon="-2.0269">
        <ele>1333.2</ele>
        <time>2021-10-09 13:26:53</time>
      </trkpt>
      <trkpt lat="40.48247" lon="-2.0269">
        <ele>1333.6</ele>
        <time>2021-10-09 13:26:54</time>
      </trkpt>
      <trkpt lat="40.48245" lon="-2.0269">
        <ele>1333.6</ele>
        <time>2021-10-09 13:26:55</time>
      </trkpt>
      <trkpt lat="40.48242" lon="-2.0269">
        <ele>1333.8</ele>
        <time>2021-10-09 13:26:56</time>
      </trkpt>
      <trkpt lat="40.48239" lon="-2.0269">
        <ele>1333.8</ele>
        <time>2021-10-09 13:26:57</time>
      </trkpt>
      <trkpt lat="40.48237" lon="-2.0269">
        <ele>1334.2</ele>
        <time>2021-10-09 13:26:58</time>
      </trkpt>
      <trkpt lat="40.48234" lon="-2.0269">
        <ele>1334.2</ele>
        <time>2021-10-09 13:26:59</time>
      </trkpt>
      <trkpt lat="40.48232" lon="-2.0269">
        <ele>1334.4</ele>
        <time>2021-10-09 13:27:00</time>
      </trkpt>
      <trkpt lat="40.48229" lon="-2.02691">
        <ele>1334.4</ele>
        <time>2021-10-09 13:27:01</time>
      </trkpt>
      <trkpt lat="40.48226" lon="-2.02691">
        <ele>1334.6</ele>
        <time>2021-10-09 13:27:02</time>
      </trkpt>
      <trkpt lat="40.48223" lon="-2.02691">
        <ele>1334.6</ele>
        <time>2021-10-09 13:27:03</time>
      </trkpt>
      <trkpt lat="40.4822" lon="-2.02691">
        <ele>1335</ele>
        <time>2021-10-09 13:27:04</time>
      </trkpt>
      <trkpt lat="40.48217" lon="-2.02691">
        <ele>1335</ele>
        <time>2021-10-09 13:27:05</time>
      </trkpt>
      <trkpt lat="40.48214" lon="-2.02691">
        <ele>1335.2</ele>
        <time>2021-10-09 13:27:06</time>
      </trkpt>
      <trkpt lat="40.48211" lon="-2.02691">
        <ele>1335.2</ele>
        <time>2021-10-09 13:27:07</time>
      </trkpt>
      <trkpt lat="40.48208" lon="-2.02692">
        <ele>1335.2</ele>
        <time>2021-10-09 13:27:08</time>
      </trkpt>
      <trkpt lat="40.48205" lon="-2.02691">
        <ele>1335.4</ele>
        <time>2021-10-09 13:27:09</time>
      </trkpt>
      <trkpt lat="40.48202" lon="-2.02692">
        <ele>1335.4</ele>
        <time>2021-10-09 13:27:10</time>
      </trkpt>
      <trkpt lat="40.48199" lon="-2.02692">
        <ele>1335.4</ele>
        <time>2021-10-09 13:27:11</time>
      </trkpt>
      <trkpt lat="40.48195" lon="-2.02692">
        <ele>1335.8</ele>
        <time>2021-10-09 13:27:12</time>
      </trkpt>
      <trkpt lat="40.48192" lon="-2.02692">
        <ele>1335.8</ele>
        <time>2021-10-09 13:27:13</time>
      </trkpt>
      <trkpt lat="40.48189" lon="-2.02692">
        <ele>1335.8</ele>
        <time>2021-10-09 13:27:14</time>
      </trkpt>
      <trkpt lat="40.48185" lon="-2.02692">
        <ele>1335.8</ele>
        <time>2021-10-09 13:27:15</time>
      </trkpt>
      <trkpt lat="40.48182" lon="-2.02692">
        <ele>1336</ele>
        <time>2021-10-09 13:27:16</time>
      </trkpt>
      <trkpt lat="40.48179" lon="-2.02693">
        <ele>1336</ele>
        <time>2021-10-09 13:27:17</time>
      </trkpt>
      <trkpt lat="40.48175" lon="-2.02693">
        <ele>1336</ele>
        <time>2021-10-09 13:27:18</time>
      </trkpt>
      <trkpt lat="40.48172" lon="-2.02693">
        <ele>1336.2</ele>
        <time>2021-10-09 13:27:19</time>
      </trkpt>
      <trkpt lat="40.48168" lon="-2.02693">
        <ele>1336.2</ele>
        <time>2021-10-09 13:27:20</time>
      </trkpt>
      <trkpt lat="40.48164" lon="-2.02694">
        <ele>1336.2</ele>
        <time>2021-10-09 13:27:21</time>
      </trkpt>
      <trkpt lat="40.48161" lon="-2.02694">
        <ele>1336.2</ele>
        <time>2021-10-09 13:27:22</time>
      </trkpt>
      <trkpt lat="40.48157" lon="-2.02694">
        <ele>1336.2</ele>
        <time>2021-10-09 13:27:23</time>
      </trkpt>
      <trkpt lat="40.48153" lon="-2.02693">
        <ele>1336.4</ele>
        <time>2021-10-09 13:27:24</time>
      </trkpt>
      <trkpt lat="40.48149" lon="-2.02693">
        <ele>1336.4</ele>
        <time>2021-10-09 13:27:25</time>
      </trkpt>
      <trkpt lat="40.48145" lon="-2.02693">
        <ele>1336.4</ele>
        <time>2021-10-09 13:27:26</time>
      </trkpt>
      <trkpt lat="40.48142" lon="-2.02693">
        <ele>1336.6</ele>
        <time>2021-10-09 13:27:27</time>
      </trkpt>
      <trkpt lat="40.48138" lon="-2.02693">
        <ele>1336.6</ele>
        <time>2021-10-09 13:27:28</time>
      </trkpt>
      <trkpt lat="40.48134" lon="-2.02693">
        <ele>1336.6</ele>
        <time>2021-10-09 13:27:29</time>
      </trkpt>
      <trkpt lat="40.48131" lon="-2.02692">
        <ele>1336.6</ele>
        <time>2021-10-09 13:27:30</time>
      </trkpt>
      <trkpt lat="40.48127" lon="-2.02692">
        <ele>1337</ele>
        <time>2021-10-09 13:27:31</time>
      </trkpt>
      <trkpt lat="40.48123" lon="-2.02692">
        <ele>1337</ele>
        <time>2021-10-09 13:27:32</time>
      </trkpt>
      <trkpt lat="40.48119" lon="-2.02692">
        <ele>1337</ele>
        <time>2021-10-09 13:27:33</time>
      </trkpt>
      <trkpt lat="40.48116" lon="-2.02693">
        <ele>1337</ele>
        <time>2021-10-09 13:27:34</time>
      </trkpt>
      <trkpt lat="40.48112" lon="-2.02693">
        <ele>1337.2</ele>
        <time>2021-10-09 13:27:35</time>
      </trkpt>
      <trkpt lat="40.48109" lon="-2.02693">
        <ele>1337.2</ele>
        <time>2021-10-09 13:27:36</time>
      </trkpt>
      <trkpt lat="40.48105" lon="-2.02693">
        <ele>1337.2</ele>
        <time>2021-10-09 13:27:37</time>
      </trkpt>
      <trkpt lat="40.48102" lon="-2.02694">
        <ele>1337.6</ele>
        <time>2021-10-09 13:27:38</time>
      </trkpt>
      <trkpt lat="40.48098" lon="-2.02694">
        <ele>1337.6</ele>
        <time>2021-10-09 13:27:39</time>
      </trkpt>
      <trkpt lat="40.48095" lon="-2.02694">
        <ele>1337.8</ele>
        <time>2021-10-09 13:27:40</time>
      </trkpt>
      <trkpt lat="40.48092" lon="-2.02695">
        <ele>1337.8</ele>
        <time>2021-10-09 13:27:41</time>
      </trkpt>
      <trkpt lat="40.48089" lon="-2.02695">
        <ele>1338</ele>
        <time>2021-10-09 13:27:42</time>
      </trkpt>
      <trkpt lat="40.48085" lon="-2.02696">
        <ele>1338</ele>
        <time>2021-10-09 13:27:43</time>
      </trkpt>
      <trkpt lat="40.48082" lon="-2.02697">
        <ele>1338.2</ele>
        <time>2021-10-09 13:27:44</time>
      </trkpt>
      <trkpt lat="40.48079" lon="-2.02697">
        <ele>1338.2</ele>
        <time>2021-10-09 13:27:45</time>
      </trkpt>
      <trkpt lat="40.48076" lon="-2.02698">
        <ele>1338.6</ele>
        <time>2021-10-09 13:27:46</time>
      </trkpt>
      <trkpt lat="40.48073" lon="-2.02698">
        <ele>1338.8</ele>
        <time>2021-10-09 13:27:47</time>
      </trkpt>
      <trkpt lat="40.4807" lon="-2.02699">
        <ele>1339</ele>
        <time>2021-10-09 13:27:48</time>
      </trkpt>
      <trkpt lat="40.48067" lon="-2.02699">
        <ele>1339</ele>
        <time>2021-10-09 13:27:49</time>
      </trkpt>
      <trkpt lat="40.48064" lon="-2.027">
        <ele>1339.4</ele>
        <time>2021-10-09 13:27:50</time>
      </trkpt>
      <trkpt lat="40.48061" lon="-2.02701">
        <ele>1339.6</ele>
        <time>2021-10-09 13:27:51</time>
      </trkpt>
      <trkpt lat="40.48058" lon="-2.02702">
        <ele>1339.6</ele>
        <time>2021-10-09 13:27:52</time>
      </trkpt>
      <trkpt lat="40.48055" lon="-2.02703">
        <ele>1340</ele>
        <time>2021-10-09 13:27:53</time>
      </trkpt>
      <trkpt lat="40.48052" lon="-2.02704">
        <ele>1340</ele>
        <time>2021-10-09 13:27:54</time>
      </trkpt>
      <trkpt lat="40.48049" lon="-2.02705">
        <ele>1340.2</ele>
        <time>2021-10-09 13:27:55</time>
      </trkpt>
      <trkpt lat="40.48047" lon="-2.02705">
        <ele>1340.2</ele>
        <time>2021-10-09 13:27:56</time>
      </trkpt>
      <trkpt lat="40.48044" lon="-2.02706">
        <ele>1340.6</ele>
        <time>2021-10-09 13:27:57</time>
      </trkpt>
      <trkpt lat="40.48041" lon="-2.02707">
        <ele>1340.6</ele>
        <time>2021-10-09 13:27:58</time>
      </trkpt>
      <trkpt lat="40.48039" lon="-2.02708">
        <ele>1340.8</ele>
        <time>2021-10-09 13:27:59</time>
      </trkpt>
      <trkpt lat="40.48036" lon="-2.02709">
        <ele>1340.8</ele>
        <time>2021-10-09 13:28:00</time>
      </trkpt>
      <trkpt lat="40.48033" lon="-2.0271">
        <ele>1341.2</ele>
        <time>2021-10-09 13:28:01</time>
      </trkpt>
      <trkpt lat="40.4803" lon="-2.02711">
        <ele>1341.2</ele>
        <time>2021-10-09 13:28:02</time>
      </trkpt>
      <trkpt lat="40.48027" lon="-2.02711">
        <ele>1341.4</ele>
        <time>2021-10-09 13:28:03</time>
      </trkpt>
      <trkpt lat="40.48024" lon="-2.02712">
        <ele>1341.4</ele>
        <time>2021-10-09 13:28:04</time>
      </trkpt>
      <trkpt lat="40.48021" lon="-2.02713">
        <ele>1341.4</ele>
        <time>2021-10-09 13:28:05</time>
      </trkpt>
      <trkpt lat="40.48018" lon="-2.02714">
        <ele>1341.8</ele>
        <time>2021-10-09 13:28:06</time>
      </trkpt>
      <trkpt lat="40.48015" lon="-2.02715">
        <ele>1341.8</ele>
        <time>2021-10-09 13:28:07</time>
      </trkpt>
      <trkpt lat="40.48013" lon="-2.02716">
        <ele>1342.2</ele>
        <time>2021-10-09 13:28:08</time>
      </trkpt>
      <trkpt lat="40.48009" lon="-2.02716">
        <ele>1342.2</ele>
        <time>2021-10-09 13:28:09</time>
      </trkpt>
      <trkpt lat="40.48006" lon="-2.02717">
        <ele>1342.4</ele>
        <time>2021-10-09 13:28:10</time>
      </trkpt>
      <trkpt lat="40.48003" lon="-2.02718">
        <ele>1342.4</ele>
        <time>2021-10-09 13:28:11</time>
      </trkpt>
      <trkpt lat="40.48" lon="-2.02719">
        <ele>1342.6</ele>
        <time>2021-10-09 13:28:12</time>
      </trkpt>
      <trkpt lat="40.47997" lon="-2.0272">
        <ele>1342.6</ele>
        <time>2021-10-09 13:28:13</time>
      </trkpt>
      <trkpt lat="40.47994" lon="-2.02721">
        <ele>1342.6</ele>
        <time>2021-10-09 13:28:14</time>
      </trkpt>
      <trkpt lat="40.47991" lon="-2.02723">
        <ele>1342.6</ele>
        <time>2021-10-09 13:28:15</time>
      </trkpt>
      <trkpt lat="40.47987" lon="-2.02724">
        <ele>1342.8</ele>
        <time>2021-10-09 13:28:16</time>
      </trkpt>
      <trkpt lat="40.47984" lon="-2.02725">
        <ele>1342.8</ele>
        <time>2021-10-09 13:28:17</time>
      </trkpt>
      <trkpt lat="40.4798" lon="-2.02727">
        <ele>1342.8</ele>
        <time>2021-10-09 13:28:18</time>
      </trkpt>
      <trkpt lat="40.47977" lon="-2.02729">
        <ele>1342.8</ele>
        <time>2021-10-09 13:28:19</time>
      </trkpt>
      <trkpt lat="40.47973" lon="-2.02731">
        <ele>1343</ele>
        <time>2021-10-09 13:28:20</time>
      </trkpt>
      <trkpt lat="40.47969" lon="-2.02733">
        <ele>1343</ele>
        <time>2021-10-09 13:28:21</time>
      </trkpt>
      <trkpt lat="40.47965" lon="-2.02735">
        <ele>1343</ele>
        <time>2021-10-09 13:28:22</time>
      </trkpt>
      <trkpt lat="40.47962" lon="-2.02738">
        <ele>1343</ele>
        <time>2021-10-09 13:28:23</time>
      </trkpt>
      <trkpt lat="40.47958" lon="-2.02739">
        <ele>1343</ele>
        <time>2021-10-09 13:28:24</time>
      </trkpt>
      <trkpt lat="40.47954" lon="-2.02741">
        <ele>1343</ele>
        <time>2021-10-09 13:28:25</time>
      </trkpt>
      <trkpt lat="40.4795" lon="-2.02742">
        <ele>1343</ele>
        <time>2021-10-09 13:28:26</time>
      </trkpt>
      <trkpt lat="40.47947" lon="-2.02745">
        <ele>1343</ele>
        <time>2021-10-09 13:28:27</time>
      </trkpt>
      <trkpt lat="40.47944" lon="-2.02746">
        <ele>1343</ele>
        <time>2021-10-09 13:28:28</time>
      </trkpt>
      <trkpt lat="40.47941" lon="-2.02748">
        <ele>1343.4</ele>
        <time>2021-10-09 13:28:29</time>
      </trkpt>
      <trkpt lat="40.47938" lon="-2.02749">
        <ele>1343.4</ele>
        <time>2021-10-09 13:28:30</time>
      </trkpt>
      <trkpt lat="40.47935" lon="-2.0275">
        <ele>1343.4</ele>
        <time>2021-10-09 13:28:31</time>
      </trkpt>
      <trkpt lat="40.47932" lon="-2.02752">
        <ele>1343.6</ele>
        <time>2021-10-09 13:28:32</time>
      </trkpt>
      <trkpt lat="40.4793" lon="-2.02753">
        <ele>1343.6</ele>
        <time>2021-10-09 13:28:33</time>
      </trkpt>
      <trkpt lat="40.47927" lon="-2.02754">
        <ele>1343.8</ele>
        <time>2021-10-09 13:28:34</time>
      </trkpt>
      <trkpt lat="40.47924" lon="-2.02756">
        <ele>1343.8</ele>
        <time>2021-10-09 13:28:35</time>
      </trkpt>
      <trkpt lat="40.47921" lon="-2.02757">
        <ele>1344</ele>
        <time>2021-10-09 13:28:36</time>
      </trkpt>
      <trkpt lat="40.47918" lon="-2.02759">
        <ele>1344</ele>
        <time>2021-10-09 13:28:37</time>
      </trkpt>
      <trkpt lat="40.47915" lon="-2.0276">
        <ele>1344</ele>
        <time>2021-10-09 13:28:38</time>
      </trkpt>
      <trkpt lat="40.47913" lon="-2.02762">
        <ele>1344.2</ele>
        <time>2021-10-09 13:28:39</time>
      </trkpt>
      <trkpt lat="40.4791" lon="-2.02763">
        <ele>1344.2</ele>
        <time>2021-10-09 13:28:40</time>
      </trkpt>
      <trkpt lat="40.47907" lon="-2.02764">
        <ele>1344.6</ele>
        <time>2021-10-09 13:28:41</time>
      </trkpt>
      <trkpt lat="40.47905" lon="-2.02766">
        <ele>1344.6</ele>
        <time>2021-10-09 13:28:42</time>
      </trkpt>
      <trkpt lat="40.47902" lon="-2.02767">
        <ele>1344.6</ele>
        <time>2021-10-09 13:28:43</time>
      </trkpt>
      <trkpt lat="40.47899" lon="-2.02769">
        <ele>1344.8</ele>
        <time>2021-10-09 13:28:44</time>
      </trkpt>
      <trkpt lat="40.47896" lon="-2.0277">
        <ele>1344.8</ele>
        <time>2021-10-09 13:28:45</time>
      </trkpt>
      <trkpt lat="40.47894" lon="-2.02771">
        <ele>1344.8</ele>
        <time>2021-10-09 13:28:46</time>
      </trkpt>
      <trkpt lat="40.47891" lon="-2.02773">
        <ele>1345.2</ele>
        <time>2021-10-09 13:28:47</time>
      </trkpt>
      <trkpt lat="40.47888" lon="-2.02774">
        <ele>1345.2</ele>
        <time>2021-10-09 13:28:48</time>
      </trkpt>
      <trkpt lat="40.47885" lon="-2.02776">
        <ele>1345.2</ele>
        <time>2021-10-09 13:28:49</time>
      </trkpt>
      <trkpt lat="40.47883" lon="-2.02777">
        <ele>1345.4</ele>
        <time>2021-10-09 13:28:50</time>
      </trkpt>
      <trkpt lat="40.4788" lon="-2.02778">
        <ele>1345.4</ele>
        <time>2021-10-09 13:28:51</time>
      </trkpt>
      <trkpt lat="40.47877" lon="-2.02779">
        <ele>1345.8</ele>
        <time>2021-10-09 13:28:52</time>
      </trkpt>
      <trkpt lat="40.47874" lon="-2.0278">
        <ele>1345.8</ele>
        <time>2021-10-09 13:28:53</time>
      </trkpt>
      <trkpt lat="40.47872" lon="-2.02781">
        <ele>1346</ele>
        <time>2021-10-09 13:28:54</time>
      </trkpt>
      <trkpt lat="40.47869" lon="-2.02783">
        <ele>1346</ele>
        <time>2021-10-09 13:28:55</time>
      </trkpt>
      <trkpt lat="40.47866" lon="-2.02785">
        <ele>1346.4</ele>
        <time>2021-10-09 13:28:56</time>
      </trkpt>
      <trkpt lat="40.47863" lon="-2.02786">
        <ele>1346.6</ele>
        <time>2021-10-09 13:28:57</time>
      </trkpt>
      <trkpt lat="40.47861" lon="-2.02788">
        <ele>1346.6</ele>
        <time>2021-10-09 13:28:58</time>
      </trkpt>
      <trkpt lat="40.47858" lon="-2.02789">
        <ele>1346.8</ele>
        <time>2021-10-09 13:28:59</time>
      </trkpt>
      <trkpt lat="40.47856" lon="-2.0279">
        <ele>1346.8</ele>
        <time>2021-10-09 13:29:00</time>
      </trkpt>
      <trkpt lat="40.47853" lon="-2.02791">
        <ele>1347</ele>
        <time>2021-10-09 13:29:01</time>
      </trkpt>
      <trkpt lat="40.4785" lon="-2.02792">
        <ele>1347</ele>
        <time>2021-10-09 13:29:02</time>
      </trkpt>
      <trkpt lat="40.47847" lon="-2.02793">
        <ele>1347</ele>
        <time>2021-10-09 13:29:03</time>
      </trkpt>
      <trkpt lat="40.47844" lon="-2.02794">
        <ele>1347</ele>
        <time>2021-10-09 13:29:04</time>
      </trkpt>
      <trkpt lat="40.47842" lon="-2.02796">
        <ele>1347.4</ele>
        <time>2021-10-09 13:29:05</time>
      </trkpt>
      <trkpt lat="40.47839" lon="-2.02797">
        <ele>1347.4</ele>
        <time>2021-10-09 13:29:06</time>
      </trkpt>
      <trkpt lat="40.47836" lon="-2.02798">
        <ele>1347.6</ele>
        <time>2021-10-09 13:29:07</time>
      </trkpt>
      <trkpt lat="40.47833" lon="-2.02799">
        <ele>1347.6</ele>
        <time>2021-10-09 13:29:08</time>
      </trkpt>
      <trkpt lat="40.47831" lon="-2.028">
        <ele>1347.8</ele>
        <time>2021-10-09 13:29:09</time>
      </trkpt>
      <trkpt lat="40.47828" lon="-2.02801">
        <ele>1347.8</ele>
        <time>2021-10-09 13:29:10</time>
      </trkpt>
      <trkpt lat="40.47825" lon="-2.02802">
        <ele>1348.2</ele>
        <time>2021-10-09 13:29:11</time>
      </trkpt>
      <trkpt lat="40.47822" lon="-2.02804">
        <ele>1348.2</ele>
        <time>2021-10-09 13:29:12</time>
      </trkpt>
      <trkpt lat="40.4782" lon="-2.02805">
        <ele>1348.4</ele>
        <time>2021-10-09 13:29:13</time>
      </trkpt>
      <trkpt lat="40.47817" lon="-2.02806">
        <ele>1348.4</ele>
        <time>2021-10-09 13:29:14</time>
      </trkpt>
      <trkpt lat="40.47815" lon="-2.02806">
        <ele>1348.6</ele>
        <time>2021-10-09 13:29:15</time>
      </trkpt>
      <trkpt lat="40.47812" lon="-2.02808">
        <ele>1348.6</ele>
        <time>2021-10-09 13:29:16</time>
      </trkpt>
      <trkpt lat="40.47809" lon="-2.02809">
        <ele>1349</ele>
        <time>2021-10-09 13:29:17</time>
      </trkpt>
      <trkpt lat="40.47806" lon="-2.0281">
        <ele>1349</ele>
        <time>2021-10-09 13:29:18</time>
      </trkpt>
      <trkpt lat="40.47803" lon="-2.02811">
        <ele>1349.2</ele>
        <time>2021-10-09 13:29:19</time>
      </trkpt>
      <trkpt lat="40.478" lon="-2.02812">
        <ele>1349.2</ele>
        <time>2021-10-09 13:29:20</time>
      </trkpt>
      <trkpt lat="40.47798" lon="-2.02813">
        <ele>1349.4</ele>
        <time>2021-10-09 13:29:21</time>
      </trkpt>
      <trkpt lat="40.47795" lon="-2.02814">
        <ele>1349.4</ele>
        <time>2021-10-09 13:29:22</time>
      </trkpt>
      <trkpt lat="40.47791" lon="-2.02815">
        <ele>1349.4</ele>
        <time>2021-10-09 13:29:23</time>
      </trkpt>
      <trkpt lat="40.47789" lon="-2.02816">
        <ele>1349.8</ele>
        <time>2021-10-09 13:29:24</time>
      </trkpt>
      <trkpt lat="40.47786" lon="-2.02817">
        <ele>1349.8</ele>
        <time>2021-10-09 13:29:25</time>
      </trkpt>
      <trkpt lat="40.47783" lon="-2.02818">
        <ele>1349.8</ele>
        <time>2021-10-09 13:29:26</time>
      </trkpt>
      <trkpt lat="40.4778" lon="-2.02819">
        <ele>1350</ele>
        <time>2021-10-09 13:29:27</time>
      </trkpt>
      <trkpt lat="40.47778" lon="-2.0282">
        <ele>1350</ele>
        <time>2021-10-09 13:29:28</time>
      </trkpt>
      <trkpt lat="40.47775" lon="-2.02821">
        <ele>1350.2</ele>
        <time>2021-10-09 13:29:29</time>
      </trkpt>
      <trkpt lat="40.47772" lon="-2.02822">
        <ele>1350.2</ele>
        <time>2021-10-09 13:29:30</time>
      </trkpt>
      <trkpt lat="40.4777" lon="-2.02823">
        <ele>1350.4</ele>
        <time>2021-10-09 13:29:31</time>
      </trkpt>
      <trkpt lat="40.47767" lon="-2.02824">
        <ele>1350.4</ele>
        <time>2021-10-09 13:29:32</time>
      </trkpt>
      <trkpt lat="40.47764" lon="-2.02825">
        <ele>1350.8</ele>
        <time>2021-10-09 13:29:33</time>
      </trkpt>
      <trkpt lat="40.47761" lon="-2.02826">
        <ele>1350.8</ele>
        <time>2021-10-09 13:29:34</time>
      </trkpt>
      <trkpt lat="40.47759" lon="-2.02826">
        <ele>1351</ele>
        <time>2021-10-09 13:29:35</time>
      </trkpt>
      <trkpt lat="40.47756" lon="-2.02827">
        <ele>1351</ele>
        <time>2021-10-09 13:29:36</time>
      </trkpt>
      <trkpt lat="40.47753" lon="-2.02828">
        <ele>1351.2</ele>
        <time>2021-10-09 13:29:37</time>
      </trkpt>
      <trkpt lat="40.4775" lon="-2.02829">
        <ele>1351.2</ele>
        <time>2021-10-09 13:29:38</time>
      </trkpt>
      <trkpt lat="40.47748" lon="-2.0283">
        <ele>1351.4</ele>
        <time>2021-10-09 13:29:39</time>
      </trkpt>
      <trkpt lat="40.47745" lon="-2.02831">
        <ele>1351.4</ele>
        <time>2021-10-09 13:29:40</time>
      </trkpt>
      <trkpt lat="40.47742" lon="-2.02831">
        <ele>1351.6</ele>
        <time>2021-10-09 13:29:41</time>
      </trkpt>
      <trkpt lat="40.47739" lon="-2.02832">
        <ele>1351.6</ele>
        <time>2021-10-09 13:29:42</time>
      </trkpt>
      <trkpt lat="40.47737" lon="-2.02833">
        <ele>1352</ele>
        <time>2021-10-09 13:29:43</time>
      </trkpt>
      <trkpt lat="40.47734" lon="-2.02834">
        <ele>1352</ele>
        <time>2021-10-09 13:29:44</time>
      </trkpt>
      <trkpt lat="40.47731" lon="-2.02835">
        <ele>1352.2</ele>
        <time>2021-10-09 13:29:45</time>
      </trkpt>
      <trkpt lat="40.47729" lon="-2.02836">
        <ele>1352.2</ele>
        <time>2021-10-09 13:29:46</time>
      </trkpt>
      <trkpt lat="40.47726" lon="-2.02837">
        <ele>1352.6</ele>
        <time>2021-10-09 13:29:47</time>
      </trkpt>
      <trkpt lat="40.47723" lon="-2.02838">
        <ele>1352.8</ele>
        <time>2021-10-09 13:29:48</time>
      </trkpt>
      <trkpt lat="40.4772" lon="-2.02839">
        <ele>1352.8</ele>
        <time>2021-10-09 13:29:49</time>
      </trkpt>
      <trkpt lat="40.47717" lon="-2.02839">
        <ele>1353.2</ele>
        <time>2021-10-09 13:29:50</time>
      </trkpt>
      <trkpt lat="40.47714" lon="-2.0284">
        <ele>1353.2</ele>
        <time>2021-10-09 13:29:51</time>
      </trkpt>
      <trkpt lat="40.47711" lon="-2.02841">
        <ele>1353.4</ele>
        <time>2021-10-09 13:29:52</time>
      </trkpt>
      <trkpt lat="40.47708" lon="-2.02842">
        <ele>1353.4</ele>
        <time>2021-10-09 13:29:53</time>
      </trkpt>
      <trkpt lat="40.47706" lon="-2.02844">
        <ele>1353.6</ele>
        <time>2021-10-09 13:29:54</time>
      </trkpt>
      <trkpt lat="40.47703" lon="-2.02845">
        <ele>1353.6</ele>
        <time>2021-10-09 13:29:55</time>
      </trkpt>
      <trkpt lat="40.477" lon="-2.02846">
        <ele>1353.8</ele>
        <time>2021-10-09 13:29:56</time>
      </trkpt>
      <trkpt lat="40.47698" lon="-2.02848">
        <ele>1353.8</ele>
        <time>2021-10-09 13:29:57</time>
      </trkpt>
      <trkpt lat="40.47695" lon="-2.02849">
        <ele>1354.2</ele>
        <time>2021-10-09 13:29:58</time>
      </trkpt>
      <trkpt lat="40.47692" lon="-2.02851">
        <ele>1354.2</ele>
        <time>2021-10-09 13:29:59</time>
      </trkpt>
      <trkpt lat="40.47689" lon="-2.02853">
        <ele>1354.4</ele>
        <time>2021-10-09 13:30:00</time>
      </trkpt>
      <trkpt lat="40.47687" lon="-2.02854">
        <ele>1354.4</ele>
        <time>2021-10-09 13:30:01</time>
      </trkpt>
      <trkpt lat="40.47685" lon="-2.02856">
        <ele>1354.6</ele>
        <time>2021-10-09 13:30:02</time>
      </trkpt>
      <trkpt lat="40.47682" lon="-2.02858">
        <ele>1354.6</ele>
        <time>2021-10-09 13:30:03</time>
      </trkpt>
      <trkpt lat="40.47679" lon="-2.02859">
        <ele>1354.6</ele>
        <time>2021-10-09 13:30:04</time>
      </trkpt>
      <trkpt lat="40.47677" lon="-2.02861">
        <ele>1354.8</ele>
        <time>2021-10-09 13:30:05</time>
      </trkpt>
      <trkpt lat="40.47675" lon="-2.02863">
        <ele>1354.8</ele>
        <time>2021-10-09 13:30:06</time>
      </trkpt>
      <trkpt lat="40.47672" lon="-2.02865">
        <ele>1355</ele>
        <time>2021-10-09 13:30:07</time>
      </trkpt>
      <trkpt lat="40.4767" lon="-2.02867">
        <ele>1355</ele>
        <time>2021-10-09 13:30:08</time>
      </trkpt>
      <trkpt lat="40.47667" lon="-2.02868">
        <ele>1355</ele>
        <time>2021-10-09 13:30:09</time>
      </trkpt>
      <trkpt lat="40.47665" lon="-2.0287">
        <ele>1355.2</ele>
        <time>2021-10-09 13:30:10</time>
      </trkpt>
      <trkpt lat="40.47662" lon="-2.02872">
        <ele>1355.2</ele>
        <time>2021-10-09 13:30:11</time>
      </trkpt>
      <trkpt lat="40.4766" lon="-2.02873">
        <ele>1355.4</ele>
        <time>2021-10-09 13:30:12</time>
      </trkpt>
      <trkpt lat="40.47657" lon="-2.02875">
        <ele>1355.4</ele>
        <time>2021-10-09 13:30:13</time>
      </trkpt>
      <trkpt lat="40.47655" lon="-2.02877">
        <ele>1355.8</ele>
        <time>2021-10-09 13:30:14</time>
      </trkpt>
      <trkpt lat="40.47653" lon="-2.02879">
        <ele>1355.8</ele>
        <time>2021-10-09 13:30:15</time>
      </trkpt>
      <trkpt lat="40.4765" lon="-2.02881">
        <ele>1356</ele>
        <time>2021-10-09 13:30:16</time>
      </trkpt>
      <trkpt lat="40.47648" lon="-2.02883">
        <ele>1356</ele>
        <time>2021-10-09 13:30:17</time>
      </trkpt>
      <trkpt lat="40.47645" lon="-2.02885">
        <ele>1356.4</ele>
        <time>2021-10-09 13:30:18</time>
      </trkpt>
      <trkpt lat="40.47642" lon="-2.02887">
        <ele>1356.4</ele>
        <time>2021-10-09 13:30:19</time>
      </trkpt>
      <trkpt lat="40.4764" lon="-2.02889">
        <ele>1356.6</ele>
        <time>2021-10-09 13:30:20</time>
      </trkpt>
      <trkpt lat="40.47637" lon="-2.0289">
        <ele>1356.6</ele>
        <time>2021-10-09 13:30:21</time>
      </trkpt>
      <trkpt lat="40.47635" lon="-2.02892">
        <ele>1357</ele>
        <time>2021-10-09 13:30:22</time>
      </trkpt>
      <trkpt lat="40.47633" lon="-2.02894">
        <ele>1357</ele>
        <time>2021-10-09 13:30:23</time>
      </trkpt>
      <trkpt lat="40.47631" lon="-2.02896">
        <ele>1357.4</ele>
        <time>2021-10-09 13:30:24</time>
      </trkpt>
      <trkpt lat="40.47629" lon="-2.02898">
        <ele>1357.6</ele>
        <time>2021-10-09 13:30:25</time>
      </trkpt>
      <trkpt lat="40.47626" lon="-2.02899">
        <ele>1357.6</ele>
        <time>2021-10-09 13:30:26</time>
      </trkpt>
      <trkpt lat="40.47624" lon="-2.02901">
        <ele>1357.8</ele>
        <time>2021-10-09 13:30:27</time>
      </trkpt>
      <trkpt lat="40.47622" lon="-2.02903">
        <ele>1357.8</ele>
        <time>2021-10-09 13:30:28</time>
      </trkpt>
      <trkpt lat="40.47619" lon="-2.02905">
        <ele>1358.2</ele>
        <time>2021-10-09 13:30:29</time>
      </trkpt>
      <trkpt lat="40.47617" lon="-2.02907">
        <ele>1358.2</ele>
        <time>2021-10-09 13:30:30</time>
      </trkpt>
      <trkpt lat="40.47614" lon="-2.02908">
        <ele>1358.4</ele>
        <time>2021-10-09 13:30:31</time>
      </trkpt>
      <trkpt lat="40.47612" lon="-2.0291">
        <ele>1358.8</ele>
        <time>2021-10-09 13:30:32</time>
      </trkpt>
      <trkpt lat="40.4761" lon="-2.02912">
        <ele>1359</ele>
        <time>2021-10-09 13:30:33</time>
      </trkpt>
      <trkpt lat="40.47607" lon="-2.02914">
        <ele>1359.2</ele>
        <time>2021-10-09 13:30:34</time>
      </trkpt>
      <trkpt lat="40.47605" lon="-2.02916">
        <ele>1359.2</ele>
        <time>2021-10-09 13:30:35</time>
      </trkpt>
      <trkpt lat="40.47603" lon="-2.02918">
        <ele>1359.4</ele>
        <time>2021-10-09 13:30:36</time>
      </trkpt>
      <trkpt lat="40.476" lon="-2.0292">
        <ele>1359.4</ele>
        <time>2021-10-09 13:30:37</time>
      </trkpt>
      <trkpt lat="40.47598" lon="-2.02921">
        <ele>1359.6</ele>
        <time>2021-10-09 13:30:38</time>
      </trkpt>
      <trkpt lat="40.47595" lon="-2.02923">
        <ele>1359.6</ele>
        <time>2021-10-09 13:30:39</time>
      </trkpt>
      <trkpt lat="40.47592" lon="-2.02925">
        <ele>1360</ele>
        <time>2021-10-09 13:30:40</time>
      </trkpt>
      <trkpt lat="40.4759" lon="-2.02927">
        <ele>1360</ele>
        <time>2021-10-09 13:30:41</time>
      </trkpt>
      <trkpt lat="40.47587" lon="-2.02929">
        <ele>1360.2</ele>
        <time>2021-10-09 13:30:42</time>
      </trkpt>
      <trkpt lat="40.47584" lon="-2.0293">
        <ele>1360.2</ele>
        <time>2021-10-09 13:30:43</time>
      </trkpt>
      <trkpt lat="40.47581" lon="-2.02932">
        <ele>1360.4</ele>
        <time>2021-10-09 13:30:44</time>
      </trkpt>
      <trkpt lat="40.47578" lon="-2.02933">
        <ele>1360.4</ele>
        <time>2021-10-09 13:30:45</time>
      </trkpt>
      <trkpt lat="40.47575" lon="-2.02935">
        <ele>1360.4</ele>
        <time>2021-10-09 13:30:46</time>
      </trkpt>
      <trkpt lat="40.47573" lon="-2.02936">
        <ele>1360.8</ele>
        <time>2021-10-09 13:30:47</time>
      </trkpt>
      <trkpt lat="40.4757" lon="-2.02938">
        <ele>1360.8</ele>
        <time>2021-10-09 13:30:48</time>
      </trkpt>
      <trkpt lat="40.47567" lon="-2.02939">
        <ele>1360.8</ele>
        <time>2021-10-09 13:30:49</time>
      </trkpt>
      <trkpt lat="40.47563" lon="-2.0294">
        <ele>1361.2</ele>
        <time>2021-10-09 13:30:50</time>
      </trkpt>
      <trkpt lat="40.4756" lon="-2.02941">
        <ele>1361.2</ele>
        <time>2021-10-09 13:30:51</time>
      </trkpt>
      <trkpt lat="40.47557" lon="-2.02942">
        <ele>1361.4</ele>
        <time>2021-10-09 13:30:52</time>
      </trkpt>
      <trkpt lat="40.47554" lon="-2.02943">
        <ele>1361.4</ele>
        <time>2021-10-09 13:30:53</time>
      </trkpt>
      <trkpt lat="40.4755" lon="-2.02944">
        <ele>1361.6</ele>
        <time>2021-10-09 13:30:54</time>
      </trkpt>
      <trkpt lat="40.47547" lon="-2.02945">
        <ele>1361.6</ele>
        <time>2021-10-09 13:30:55</time>
      </trkpt>
      <trkpt lat="40.47544" lon="-2.02946">
        <ele>1361.6</ele>
        <time>2021-10-09 13:30:56</time>
      </trkpt>
      <trkpt lat="40.47541" lon="-2.02946">
        <ele>1361.8</ele>
        <time>2021-10-09 13:30:57</time>
      </trkpt>
      <trkpt lat="40.47538" lon="-2.02947">
        <ele>1361.8</ele>
        <time>2021-10-09 13:30:58</time>
      </trkpt>
      <trkpt lat="40.47535" lon="-2.02948">
        <ele>1362</ele>
        <time>2021-10-09 13:30:59</time>
      </trkpt>
      <trkpt lat="40.47532" lon="-2.02948">
        <ele>1362</ele>
        <time>2021-10-09 13:31:00</time>
      </trkpt>
      <trkpt lat="40.47529" lon="-2.02949">
        <ele>1362.4</ele>
        <time>2021-10-09 13:31:01</time>
      </trkpt>
      <trkpt lat="40.47526" lon="-2.0295">
        <ele>1362.4</ele>
        <time>2021-10-09 13:31:02</time>
      </trkpt>
      <trkpt lat="40.47523" lon="-2.02951">
        <ele>1362.6</ele>
        <time>2021-10-09 13:31:03</time>
      </trkpt>
      <trkpt lat="40.4752" lon="-2.02952">
        <ele>1362.6</ele>
        <time>2021-10-09 13:31:04</time>
      </trkpt>
      <trkpt lat="40.47517" lon="-2.02952">
        <ele>1363</ele>
        <time>2021-10-09 13:31:05</time>
      </trkpt>
      <trkpt lat="40.47513" lon="-2.02952">
        <ele>1363</ele>
        <time>2021-10-09 13:31:06</time>
      </trkpt>
      <trkpt lat="40.47511" lon="-2.02953">
        <ele>1363.2</ele>
        <time>2021-10-09 13:31:07</time>
      </trkpt>
      <trkpt lat="40.47508" lon="-2.02953">
        <ele>1363.2</ele>
        <time>2021-10-09 13:31:08</time>
      </trkpt>
      <trkpt lat="40.47505" lon="-2.02954">
        <ele>1363.4</ele>
        <time>2021-10-09 13:31:09</time>
      </trkpt>
      <trkpt lat="40.47502" lon="-2.02955">
        <ele>1363.4</ele>
        <time>2021-10-09 13:31:10</time>
      </trkpt>
      <trkpt lat="40.47499" lon="-2.02955">
        <ele>1363.8</ele>
        <time>2021-10-09 13:31:11</time>
      </trkpt>
      <trkpt lat="40.47496" lon="-2.02956">
        <ele>1363.8</ele>
        <time>2021-10-09 13:31:12</time>
      </trkpt>
      <trkpt lat="40.47494" lon="-2.02956">
        <ele>1364</ele>
        <time>2021-10-09 13:31:13</time>
      </trkpt>
      <trkpt lat="40.47491" lon="-2.02957">
        <ele>1364</ele>
        <time>2021-10-09 13:31:14</time>
      </trkpt>
      <trkpt lat="40.47488" lon="-2.02958">
        <ele>1364.4</ele>
        <time>2021-10-09 13:31:15</time>
      </trkpt>
      <trkpt lat="40.47485" lon="-2.02958">
        <ele>1364.4</ele>
        <time>2021-10-09 13:31:16</time>
      </trkpt>
      <trkpt lat="40.47483" lon="-2.02959">
        <ele>1364.8</ele>
        <time>2021-10-09 13:31:17</time>
      </trkpt>
      <trkpt lat="40.4748" lon="-2.0296">
        <ele>1364.8</ele>
        <time>2021-10-09 13:31:18</time>
      </trkpt>
      <trkpt lat="40.47478" lon="-2.0296">
        <ele>1365.2</ele>
        <time>2021-10-09 13:31:19</time>
      </trkpt>
      <trkpt lat="40.47475" lon="-2.02961">
        <ele>1365.4</ele>
        <time>2021-10-09 13:31:20</time>
      </trkpt>
      <trkpt lat="40.47472" lon="-2.02961">
        <ele>1365.4</ele>
        <time>2021-10-09 13:31:21</time>
      </trkpt>
      <trkpt lat="40.47469" lon="-2.02961">
        <ele>1365.8</ele>
        <time>2021-10-09 13:31:22</time>
      </trkpt>
      <trkpt lat="40.47466" lon="-2.02961">
        <ele>1366</ele>
        <time>2021-10-09 13:31:23</time>
      </trkpt>
      <trkpt lat="40.47463" lon="-2.02961">
        <ele>1366</ele>
        <time>2021-10-09 13:31:24</time>
      </trkpt>
      <trkpt lat="40.47463" lon="-2.02961">
        <ele>1366.4</ele>
        <time>2021-10-09 13:31:25</time>
      </trkpt>
      <trkpt lat="40.4746" lon="-2.02962">
        <ele>1366.4</ele>
        <time>2021-10-09 13:31:26</time>
      </trkpt>
      <trkpt lat="40.47458" lon="-2.02962">
        <ele>1366.6</ele>
        <time>2021-10-09 13:31:27</time>
      </trkpt>
      <trkpt lat="40.47455" lon="-2.02963">
        <ele>1366.6</ele>
        <time>2021-10-09 13:31:28</time>
      </trkpt>
      <trkpt lat="40.47452" lon="-2.02963">
        <ele>1367</ele>
        <time>2021-10-09 13:31:29</time>
      </trkpt>
      <trkpt lat="40.47449" lon="-2.02964">
        <ele>1367</ele>
        <time>2021-10-09 13:31:30</time>
      </trkpt>
      <trkpt lat="40.47446" lon="-2.02964">
        <ele>1367.2</ele>
        <time>2021-10-09 13:31:31</time>
      </trkpt>
      <trkpt lat="40.47443" lon="-2.02964">
        <ele>1367.2</ele>
        <time>2021-10-09 13:31:32</time>
      </trkpt>
      <trkpt lat="40.4744" lon="-2.02965">
        <ele>1367.6</ele>
        <time>2021-10-09 13:31:33</time>
      </trkpt>
      <trkpt lat="40.47437" lon="-2.02965">
        <ele>1367.6</ele>
        <time>2021-10-09 13:31:34</time>
      </trkpt>
      <trkpt lat="40.47434" lon="-2.02966">
        <ele>1367.8</ele>
        <time>2021-10-09 13:31:35</time>
      </trkpt>
      <trkpt lat="40.47431" lon="-2.02966">
        <ele>1367.8</ele>
        <time>2021-10-09 13:31:36</time>
      </trkpt>
      <trkpt lat="40.47428" lon="-2.02966">
        <ele>1368.2</ele>
        <time>2021-10-09 13:31:37</time>
      </trkpt>
      <trkpt lat="40.47425" lon="-2.02967">
        <ele>1368.2</ele>
        <time>2021-10-09 13:31:38</time>
      </trkpt>
      <trkpt lat="40.47423" lon="-2.02967">
        <ele>1368.2</ele>
        <time>2021-10-09 13:31:39</time>
      </trkpt>
      <trkpt lat="40.47419" lon="-2.02968">
        <ele>1368.6</ele>
        <time>2021-10-09 13:31:40</time>
      </trkpt>
      <trkpt lat="40.47416" lon="-2.02968">
        <ele>1368.6</ele>
        <time>2021-10-09 13:31:41</time>
      </trkpt>
      <trkpt lat="40.47413" lon="-2.02968">
        <ele>1368.8</ele>
        <time>2021-10-09 13:31:42</time>
      </trkpt>
      <trkpt lat="40.4741" lon="-2.02969">
        <ele>1368.8</ele>
        <time>2021-10-09 13:31:43</time>
      </trkpt>
      <trkpt lat="40.47407" lon="-2.02969">
        <ele>1369.2</ele>
        <time>2021-10-09 13:31:44</time>
      </trkpt>
      <trkpt lat="40.47404" lon="-2.0297">
        <ele>1369.4</ele>
        <time>2021-10-09 13:31:45</time>
      </trkpt>
      <trkpt lat="40.474" lon="-2.0297">
        <ele>1369.4</ele>
        <time>2021-10-09 13:31:46</time>
      </trkpt>
      <trkpt lat="40.47397" lon="-2.02971">
        <ele>1369.8</ele>
        <time>2021-10-09 13:31:47</time>
      </trkpt>
      <trkpt lat="40.47395" lon="-2.02971">
        <ele>1369.8</ele>
        <time>2021-10-09 13:31:48</time>
      </trkpt>
      <trkpt lat="40.47392" lon="-2.02971">
        <ele>1370</ele>
        <time>2021-10-09 13:31:49</time>
      </trkpt>
      <trkpt lat="40.47389" lon="-2.02971">
        <ele>1370</ele>
        <time>2021-10-09 13:31:50</time>
      </trkpt>
      <trkpt lat="40.47386" lon="-2.02972">
        <ele>1370.2</ele>
        <time>2021-10-09 13:31:51</time>
      </trkpt>
      <trkpt lat="40.47382" lon="-2.02971">
        <ele>1370.2</ele>
        <time>2021-10-09 13:31:52</time>
      </trkpt>
      <trkpt lat="40.47379" lon="-2.02971">
        <ele>1370.4</ele>
        <time>2021-10-09 13:31:53</time>
      </trkpt>
      <trkpt lat="40.47375" lon="-2.02971">
        <ele>1370.4</ele>
        <time>2021-10-09 13:31:54</time>
      </trkpt>
      <trkpt lat="40.47372" lon="-2.02971">
        <ele>1370.8</ele>
        <time>2021-10-09 13:31:55</time>
      </trkpt>
      <trkpt lat="40.47369" lon="-2.02971">
        <ele>1370.8</ele>
        <time>2021-10-09 13:31:56</time>
      </trkpt>
      <trkpt lat="40.47365" lon="-2.02972">
        <ele>1371</ele>
        <time>2021-10-09 13:31:57</time>
      </trkpt>
      <trkpt lat="40.47362" lon="-2.02972">
        <ele>1371</ele>
        <time>2021-10-09 13:31:58</time>
      </trkpt>
      <trkpt lat="40.47358" lon="-2.02972">
        <ele>1371</ele>
        <time>2021-10-09 13:31:59</time>
      </trkpt>
      <trkpt lat="40.47355" lon="-2.02972">
        <ele>1371.4</ele>
        <time>2021-10-09 13:32:00</time>
      </trkpt>
      <trkpt lat="40.47352" lon="-2.02971">
        <ele>1371.4</ele>
        <time>2021-10-09 13:32:01</time>
      </trkpt>
      <trkpt lat="40.47348" lon="-2.02971">
        <ele>1371.4</ele>
        <time>2021-10-09 13:32:02</time>
      </trkpt>
      <trkpt lat="40.47345" lon="-2.0297">
        <ele>1371.6</ele>
        <time>2021-10-09 13:32:03</time>
      </trkpt>
      <trkpt lat="40.47342" lon="-2.02969">
        <ele>1371.6</ele>
        <time>2021-10-09 13:32:04</time>
      </trkpt>
      <trkpt lat="40.47339" lon="-2.02967">
        <ele>1372</ele>
        <time>2021-10-09 13:32:05</time>
      </trkpt>
      <trkpt lat="40.47336" lon="-2.02965">
        <ele>1372</ele>
        <time>2021-10-09 13:32:06</time>
      </trkpt>
      <trkpt lat="40.47333" lon="-2.02963">
        <ele>1372.2</ele>
        <time>2021-10-09 13:32:07</time>
      </trkpt>
      <trkpt lat="40.47331" lon="-2.02962">
        <ele>1372.2</ele>
        <time>2021-10-09 13:32:08</time>
      </trkpt>
      <trkpt lat="40.47328" lon="-2.02961">
        <ele>1372.6</ele>
        <time>2021-10-09 13:32:09</time>
      </trkpt>
      <trkpt lat="40.47325" lon="-2.02959">
        <ele>1372.8</ele>
        <time>2021-10-09 13:32:10</time>
      </trkpt>
      <trkpt lat="40.47323" lon="-2.02957">
        <ele>1372.8</ele>
        <time>2021-10-09 13:32:11</time>
      </trkpt>
      <trkpt lat="40.4732" lon="-2.02955">
        <ele>1373.2</ele>
        <time>2021-10-09 13:32:12</time>
      </trkpt>
      <trkpt lat="40.47317" lon="-2.02953">
        <ele>1373.2</ele>
        <time>2021-10-09 13:32:13</time>
      </trkpt>
      <trkpt lat="40.47315" lon="-2.0295">
        <ele>1373.4</ele>
        <time>2021-10-09 13:32:14</time>
      </trkpt>
      <trkpt lat="40.47312" lon="-2.02948">
        <ele>1373.4</ele>
        <time>2021-10-09 13:32:15</time>
      </trkpt>
      <trkpt lat="40.4731" lon="-2.02946">
        <ele>1373.8</ele>
        <time>2021-10-09 13:32:16</time>
      </trkpt>
      <trkpt lat="40.47307" lon="-2.02943">
        <ele>1373.8</ele>
        <time>2021-10-09 13:32:17</time>
      </trkpt>
      <trkpt lat="40.47305" lon="-2.0294">
        <ele>1374.2</ele>
        <time>2021-10-09 13:32:18</time>
      </trkpt>
      <trkpt lat="40.47303" lon="-2.02937">
        <ele>1374.2</ele>
        <time>2021-10-09 13:32:19</time>
      </trkpt>
      <trkpt lat="40.47301" lon="-2.02934">
        <ele>1374.4</ele>
        <time>2021-10-09 13:32:20</time>
      </trkpt>
      <trkpt lat="40.47299" lon="-2.02931">
        <ele>1374.4</ele>
        <time>2021-10-09 13:32:21</time>
      </trkpt>
      <trkpt lat="40.47297" lon="-2.02928">
        <ele>1374.6</ele>
        <time>2021-10-09 13:32:22</time>
      </trkpt>
      <trkpt lat="40.47295" lon="-2.02926">
        <ele>1374.6</ele>
        <time>2021-10-09 13:32:23</time>
      </trkpt>
      <trkpt lat="40.47294" lon="-2.02923">
        <ele>1374.8</ele>
        <time>2021-10-09 13:32:24</time>
      </trkpt>
      <trkpt lat="40.47292" lon="-2.02919">
        <ele>1374.8</ele>
        <time>2021-10-09 13:32:25</time>
      </trkpt>
      <trkpt lat="40.47289" lon="-2.02916">
        <ele>1375</ele>
        <time>2021-10-09 13:32:26</time>
      </trkpt>
      <trkpt lat="40.47287" lon="-2.02913">
        <ele>1375</ele>
        <time>2021-10-09 13:32:27</time>
      </trkpt>
      <trkpt lat="40.47285" lon="-2.0291">
        <ele>1375.2</ele>
        <time>2021-10-09 13:32:28</time>
      </trkpt>
      <trkpt lat="40.47284" lon="-2.02908">
        <ele>1375.2</ele>
        <time>2021-10-09 13:32:29</time>
      </trkpt>
      <trkpt lat="40.47281" lon="-2.02905">
        <ele>1375.6</ele>
        <time>2021-10-09 13:32:30</time>
      </trkpt>
      <trkpt lat="40.47279" lon="-2.02902">
        <ele>1375.6</ele>
        <time>2021-10-09 13:32:31</time>
      </trkpt>
      <trkpt lat="40.47276" lon="-2.02899">
        <ele>1375.8</ele>
        <time>2021-10-09 13:32:32</time>
      </trkpt>
      <trkpt lat="40.47273" lon="-2.02897">
        <ele>1375.8</ele>
        <time>2021-10-09 13:32:33</time>
      </trkpt>
      <trkpt lat="40.4727" lon="-2.02895">
        <ele>1375.8</ele>
        <time>2021-10-09 13:32:34</time>
      </trkpt>
      <trkpt lat="40.47267" lon="-2.02893">
        <ele>1376</ele>
        <time>2021-10-09 13:32:35</time>
      </trkpt>
      <trkpt lat="40.47264" lon="-2.0289">
        <ele>1376</ele>
        <time>2021-10-09 13:32:36</time>
      </trkpt>
      <trkpt lat="40.47261" lon="-2.02888">
        <ele>1376.4</ele>
        <time>2021-10-09 13:32:37</time>
      </trkpt>
      <trkpt lat="40.47259" lon="-2.02886">
        <ele>1376.4</ele>
        <time>2021-10-09 13:32:38</time>
      </trkpt>
      <trkpt lat="40.47256" lon="-2.02884">
        <ele>1376.6</ele>
        <time>2021-10-09 13:32:39</time>
      </trkpt>
      <trkpt lat="40.47253" lon="-2.02882">
        <ele>1376.6</ele>
        <time>2021-10-09 13:32:40</time>
      </trkpt>
      <trkpt lat="40.4725" lon="-2.02881">
        <ele>1376.8</ele>
        <time>2021-10-09 13:32:41</time>
      </trkpt>
      <trkpt lat="40.47247" lon="-2.02879">
        <ele>1376.8</ele>
        <time>2021-10-09 13:32:42</time>
      </trkpt>
      <trkpt lat="40.47243" lon="-2.02877">
        <ele>1377.2</ele>
        <time>2021-10-09 13:32:43</time>
      </trkpt>
      <trkpt lat="40.4724" lon="-2.02875">
        <ele>1377.4</ele>
        <time>2021-10-09 13:32:44</time>
      </trkpt>
      <trkpt lat="40.47237" lon="-2.02873">
        <ele>1377.4</ele>
        <time>2021-10-09 13:32:45</time>
      </trkpt>
      <trkpt lat="40.47234" lon="-2.02872">
        <ele>1377.4</ele>
        <time>2021-10-09 13:32:46</time>
      </trkpt>
      <trkpt lat="40.47231" lon="-2.0287">
        <ele>1377.6</ele>
        <time>2021-10-09 13:32:47</time>
      </trkpt>
      <trkpt lat="40.47228" lon="-2.02868">
        <ele>1377.6</ele>
        <time>2021-10-09 13:32:48</time>
      </trkpt>
      <trkpt lat="40.47225" lon="-2.02867">
        <ele>1378</ele>
        <time>2021-10-09 13:32:49</time>
      </trkpt>
      <trkpt lat="40.4722" lon="-2.02866">
        <ele>1378</ele>
        <time>2021-10-09 13:32:50</time>
      </trkpt>
      <trkpt lat="40.47217" lon="-2.02865">
        <ele>1378</ele>
        <time>2021-10-09 13:32:51</time>
      </trkpt>
      <trkpt lat="40.47214" lon="-2.02864">
        <ele>1378.2</ele>
        <time>2021-10-09 13:32:52</time>
      </trkpt>
      <trkpt lat="40.47211" lon="-2.02862">
        <ele>1378.2</ele>
        <time>2021-10-09 13:32:53</time>
      </trkpt>
      <trkpt lat="40.47208" lon="-2.0286">
        <ele>1378.2</ele>
        <time>2021-10-09 13:32:54</time>
      </trkpt>
      <trkpt lat="40.47204" lon="-2.02859">
        <ele>1378.6</ele>
        <time>2021-10-09 13:32:55</time>
      </trkpt>
      <trkpt lat="40.47201" lon="-2.02857">
        <ele>1378.6</ele>
        <time>2021-10-09 13:32:56</time>
      </trkpt>
      <trkpt lat="40.47198" lon="-2.02855">
        <ele>1378.6</ele>
        <time>2021-10-09 13:32:57</time>
      </trkpt>
      <trkpt lat="40.47194" lon="-2.02854">
        <ele>1378.8</ele>
        <time>2021-10-09 13:32:58</time>
      </trkpt>
      <trkpt lat="40.47191" lon="-2.02852">
        <ele>1378.8</ele>
        <time>2021-10-09 13:32:59</time>
      </trkpt>
      <trkpt lat="40.47187" lon="-2.02851">
        <ele>1378.8</ele>
        <time>2021-10-09 13:33:00</time>
      </trkpt>
      <trkpt lat="40.47184" lon="-2.02849">
        <ele>1379</ele>
        <time>2021-10-09 13:33:01</time>
      </trkpt>
      <trkpt lat="40.47181" lon="-2.02847">
        <ele>1379</ele>
        <time>2021-10-09 13:33:02</time>
      </trkpt>
      <trkpt lat="40.47177" lon="-2.02845">
        <ele>1379.2</ele>
        <time>2021-10-09 13:33:03</time>
      </trkpt>
      <trkpt lat="40.47174" lon="-2.02843">
        <ele>1379.2</ele>
        <time>2021-10-09 13:33:04</time>
      </trkpt>
      <trkpt lat="40.47171" lon="-2.02841">
        <ele>1379.4</ele>
        <time>2021-10-09 13:33:05</time>
      </trkpt>
      <trkpt lat="40.47167" lon="-2.02839">
        <ele>1379.4</ele>
        <time>2021-10-09 13:33:06</time>
      </trkpt>
      <trkpt lat="40.47164" lon="-2.02838">
        <ele>1379.8</ele>
        <time>2021-10-09 13:33:07</time>
      </trkpt>
      <trkpt lat="40.47161" lon="-2.02836">
        <ele>1379.8</ele>
        <time>2021-10-09 13:33:08</time>
      </trkpt>
      <trkpt lat="40.47157" lon="-2.02835">
        <ele>1380</ele>
        <time>2021-10-09 13:33:09</time>
      </trkpt>
      <trkpt lat="40.47154" lon="-2.02833">
        <ele>1380</ele>
        <time>2021-10-09 13:33:10</time>
      </trkpt>
      <trkpt lat="40.47151" lon="-2.02831">
        <ele>1380.4</ele>
        <time>2021-10-09 13:33:11</time>
      </trkpt>
      <trkpt lat="40.47148" lon="-2.02829">
        <ele>1380.4</ele>
        <time>2021-10-09 13:33:12</time>
      </trkpt>
      <trkpt lat="40.47144" lon="-2.02827">
        <ele>1380.6</ele>
        <time>2021-10-09 13:33:13</time>
      </trkpt>
      <trkpt lat="40.47141" lon="-2.02825">
        <ele>1380.6</ele>
        <time>2021-10-09 13:33:14</time>
      </trkpt>
      <trkpt lat="40.47138" lon="-2.02823">
        <ele>1381</ele>
        <time>2021-10-09 13:33:15</time>
      </trkpt>
      <trkpt lat="40.47135" lon="-2.02821">
        <ele>1381</ele>
        <time>2021-10-09 13:33:16</time>
      </trkpt>
      <trkpt lat="40.47132" lon="-2.0282">
        <ele>1381.4</ele>
        <time>2021-10-09 13:33:17</time>
      </trkpt>
      <trkpt lat="40.47129" lon="-2.02818">
        <ele>1381.4</ele>
        <time>2021-10-09 13:33:18</time>
      </trkpt>
      <trkpt lat="40.47126" lon="-2.02816">
        <ele>1381.6</ele>
        <time>2021-10-09 13:33:19</time>
      </trkpt>
      <trkpt lat="40.47123" lon="-2.02814">
        <ele>1381.6</ele>
        <time>2021-10-09 13:33:20</time>
      </trkpt>
      <trkpt lat="40.4712" lon="-2.02813">
        <ele>1381.8</ele>
        <time>2021-10-09 13:33:21</time>
      </trkpt>
      <trkpt lat="40.47117" lon="-2.02811">
        <ele>1381.8</ele>
        <time>2021-10-09 13:33:22</time>
      </trkpt>
      <trkpt lat="40.47113" lon="-2.02809">
        <ele>1382.2</ele>
        <time>2021-10-09 13:33:23</time>
      </trkpt>
      <trkpt lat="40.4711" lon="-2.02808">
        <ele>1382.2</ele>
        <time>2021-10-09 13:33:24</time>
      </trkpt>
      <trkpt lat="40.47107" lon="-2.02806">
        <ele>1382.4</ele>
        <time>2021-10-09 13:33:25</time>
      </trkpt>
      <trkpt lat="40.47104" lon="-2.02804">
        <ele>1382.4</ele>
        <time>2021-10-09 13:33:26</time>
      </trkpt>
      <trkpt lat="40.471" lon="-2.02803">
        <ele>1382.4</ele>
        <time>2021-10-09 13:33:27</time>
      </trkpt>
      <trkpt lat="40.47097" lon="-2.02801">
        <ele>1382.8</ele>
        <time>2021-10-09 13:33:28</time>
      </trkpt>
      <trkpt lat="40.47094" lon="-2.02799">
        <ele>1382.8</ele>
        <time>2021-10-09 13:33:29</time>
      </trkpt>
      <trkpt lat="40.4709" lon="-2.02799">
        <ele>1383</ele>
        <time>2021-10-09 13:33:30</time>
      </trkpt>
      <trkpt lat="40.47086" lon="-2.02798">
        <ele>1383</ele>
        <time>2021-10-09 13:33:31</time>
      </trkpt>
      <trkpt lat="40.47082" lon="-2.02798">
        <ele>1383.4</ele>
        <time>2021-10-09 13:33:32</time>
      </trkpt>
      <trkpt lat="40.47079" lon="-2.02797">
        <ele>1383.4</ele>
        <time>2021-10-09 13:33:33</time>
      </trkpt>
      <trkpt lat="40.47076" lon="-2.02797">
        <ele>1383.8</ele>
        <time>2021-10-09 13:33:34</time>
      </trkpt>
      <trkpt lat="40.47073" lon="-2.02796">
        <ele>1383.8</ele>
        <time>2021-10-09 13:33:35</time>
      </trkpt>
      <trkpt lat="40.4707" lon="-2.02795">
        <ele>1384</ele>
        <time>2021-10-09 13:33:36</time>
      </trkpt>
      <trkpt lat="40.47067" lon="-2.02794">
        <ele>1384</ele>
        <time>2021-10-09 13:33:37</time>
      </trkpt>
      <trkpt lat="40.47064" lon="-2.02793">
        <ele>1384.2</ele>
        <time>2021-10-09 13:33:38</time>
      </trkpt>
      <trkpt lat="40.47061" lon="-2.02792">
        <ele>1384.6</ele>
        <time>2021-10-09 13:33:39</time>
      </trkpt>
      <trkpt lat="40.47058" lon="-2.02792">
        <ele>1384.6</ele>
        <time>2021-10-09 13:33:40</time>
      </trkpt>
      <trkpt lat="40.47055" lon="-2.02791">
        <ele>1385</ele>
        <time>2021-10-09 13:33:41</time>
      </trkpt>
      <trkpt lat="40.47052" lon="-2.0279">
        <ele>1385</ele>
        <time>2021-10-09 13:33:42</time>
      </trkpt>
      <trkpt lat="40.4705" lon="-2.0279">
        <ele>1385.2</ele>
        <time>2021-10-09 13:33:43</time>
      </trkpt>
      <trkpt lat="40.47048" lon="-2.02789">
        <ele>1385.4</ele>
        <time>2021-10-09 13:33:44</time>
      </trkpt>
      <trkpt lat="40.47045" lon="-2.02787">
        <ele>1385.4</ele>
        <time>2021-10-09 13:33:45</time>
      </trkpt>
      <trkpt lat="40.47043" lon="-2.02786">
        <ele>1385.6</ele>
        <time>2021-10-09 13:33:46</time>
      </trkpt>
      <trkpt lat="40.4704" lon="-2.02785">
        <ele>1385.6</ele>
        <time>2021-10-09 13:33:47</time>
      </trkpt>
      <trkpt lat="40.47037" lon="-2.02784">
        <ele>1386</ele>
        <time>2021-10-09 13:33:48</time>
      </trkpt>
      <trkpt lat="40.47035" lon="-2.02783">
        <ele>1386</ele>
        <time>2021-10-09 13:33:49</time>
      </trkpt>
      <trkpt lat="40.47033" lon="-2.02781">
        <ele>1386.2</ele>
        <time>2021-10-09 13:33:50</time>
      </trkpt>
      <trkpt lat="40.47031" lon="-2.02779">
        <ele>1386.2</ele>
        <time>2021-10-09 13:33:51</time>
      </trkpt>
      <trkpt lat="40.47028" lon="-2.02777">
        <ele>1386.6</ele>
        <time>2021-10-09 13:33:52</time>
      </trkpt>
      <trkpt lat="40.47028" lon="-2.02777">
        <ele>1385.8</ele>
        <time>2021-10-09 13:33:53</time>
      </trkpt>
      <trkpt lat="40.47018" lon="-2.0277">
        <ele>1386.6</ele>
        <time>2021-10-09 13:33:54</time>
      </trkpt>
      <trkpt lat="40.47016" lon="-2.02768">
        <ele>1386.8</ele>
        <time>2021-10-09 13:33:55</time>
      </trkpt>
      <trkpt lat="40.47013" lon="-2.02766">
        <ele>1386.8</ele>
        <time>2021-10-09 13:33:56</time>
      </trkpt>
      <trkpt lat="40.47011" lon="-2.02763">
        <ele>1387.2</ele>
        <time>2021-10-09 13:33:57</time>
      </trkpt>
      <trkpt lat="40.47009" lon="-2.02761">
        <ele>1387.2</ele>
        <time>2021-10-09 13:33:58</time>
      </trkpt>
      <trkpt lat="40.47006" lon="-2.02759">
        <ele>1387.6</ele>
        <time>2021-10-09 13:33:59</time>
      </trkpt>
      <trkpt lat="40.47004" lon="-2.02757">
        <ele>1387.8</ele>
        <time>2021-10-09 13:34:00</time>
      </trkpt>
      <trkpt lat="40.47001" lon="-2.02755">
        <ele>1388</ele>
        <time>2021-10-09 13:34:01</time>
      </trkpt>
      <trkpt lat="40.46999" lon="-2.02753">
        <ele>1388.2</ele>
        <time>2021-10-09 13:34:02</time>
      </trkpt>
      <trkpt lat="40.46996" lon="-2.02751">
        <ele>1388.4</ele>
        <time>2021-10-09 13:34:03</time>
      </trkpt>
      <trkpt lat="40.46994" lon="-2.02749">
        <ele>1388.4</ele>
        <time>2021-10-09 13:34:04</time>
      </trkpt>
      <trkpt lat="40.46992" lon="-2.02747">
        <ele>1388.8</ele>
        <time>2021-10-09 13:34:05</time>
      </trkpt>
      <trkpt lat="40.4699" lon="-2.02745">
        <ele>1389</ele>
        <time>2021-10-09 13:34:06</time>
      </trkpt>
      <trkpt lat="40.46987" lon="-2.02743">
        <ele>1389.2</ele>
        <time>2021-10-09 13:34:07</time>
      </trkpt>
      <trkpt lat="40.46985" lon="-2.0274">
        <ele>1389.4</ele>
        <time>2021-10-09 13:34:08</time>
      </trkpt>
      <trkpt lat="40.46983" lon="-2.02738">
        <ele>1389.4</ele>
        <time>2021-10-09 13:34:09</time>
      </trkpt>
      <trkpt lat="40.4698" lon="-2.02736">
        <ele>1389.8</ele>
        <time>2021-10-09 13:34:10</time>
      </trkpt>
      <trkpt lat="40.46978" lon="-2.02733">
        <ele>1389.8</ele>
        <time>2021-10-09 13:34:11</time>
      </trkpt>
      <trkpt lat="40.46975" lon="-2.02731">
        <ele>1390.2</ele>
        <time>2021-10-09 13:34:12</time>
      </trkpt>
      <trkpt lat="40.46973" lon="-2.02729">
        <ele>1390.2</ele>
        <time>2021-10-09 13:34:13</time>
      </trkpt>
      <trkpt lat="40.4697" lon="-2.02726">
        <ele>1390.4</ele>
        <time>2021-10-09 13:34:14</time>
      </trkpt>
      <trkpt lat="40.46967" lon="-2.02724">
        <ele>1390.4</ele>
        <time>2021-10-09 13:34:15</time>
      </trkpt>
      <trkpt lat="40.46965" lon="-2.02722">
        <ele>1390.8</ele>
        <time>2021-10-09 13:34:16</time>
      </trkpt>
      <trkpt lat="40.46963" lon="-2.0272">
        <ele>1390.8</ele>
        <time>2021-10-09 13:34:17</time>
      </trkpt>
      <trkpt lat="40.46961" lon="-2.02719">
        <ele>1391.2</ele>
        <time>2021-10-09 13:34:18</time>
      </trkpt>
      <trkpt lat="40.46959" lon="-2.02717">
        <ele>1391.2</ele>
        <time>2021-10-09 13:34:19</time>
      </trkpt>
      <trkpt lat="40.46957" lon="-2.02716">
        <ele>1391.4</ele>
        <time>2021-10-09 13:34:20</time>
      </trkpt>
      <trkpt lat="40.46956" lon="-2.02714">
        <ele>1391.4</ele>
        <time>2021-10-09 13:34:21</time>
      </trkpt>
      <trkpt lat="40.46954" lon="-2.02712">
        <ele>1391.6</ele>
        <time>2021-10-09 13:34:22</time>
      </trkpt>
      <trkpt lat="40.46951" lon="-2.0271">
        <ele>1391.6</ele>
        <time>2021-10-09 13:34:23</time>
      </trkpt>
      <trkpt lat="40.46949" lon="-2.02708">
        <ele>1392</ele>
        <time>2021-10-09 13:34:24</time>
      </trkpt>
      <trkpt lat="40.46947" lon="-2.02706">
        <ele>1392</ele>
        <time>2021-10-09 13:34:25</time>
      </trkpt>
      <trkpt lat="40.46945" lon="-2.02704">
        <ele>1392.2</ele>
        <time>2021-10-09 13:34:26</time>
      </trkpt>
      <trkpt lat="40.46942" lon="-2.02702">
        <ele>1392.4</ele>
        <time>2021-10-09 13:34:27</time>
      </trkpt>
      <trkpt lat="40.4694" lon="-2.027">
        <ele>1392.6</ele>
        <time>2021-10-09 13:34:28</time>
      </trkpt>
      <trkpt lat="40.46938" lon="-2.02697">
        <ele>1392.8</ele>
        <time>2021-10-09 13:34:29</time>
      </trkpt>
      <trkpt lat="40.46936" lon="-2.02695">
        <ele>1392.8</ele>
        <time>2021-10-09 13:34:30</time>
      </trkpt>
      <trkpt lat="40.46934" lon="-2.02692">
        <ele>1393.2</ele>
        <time>2021-10-09 13:34:31</time>
      </trkpt>
      <trkpt lat="40.46932" lon="-2.02689">
        <ele>1393.2</ele>
        <time>2021-10-09 13:34:32</time>
      </trkpt>
      <trkpt lat="40.46929" lon="-2.02686">
        <ele>1393.4</ele>
        <time>2021-10-09 13:34:33</time>
      </trkpt>
      <trkpt lat="40.46927" lon="-2.02683">
        <ele>1393.4</ele>
        <time>2021-10-09 13:34:34</time>
      </trkpt>
      <trkpt lat="40.46925" lon="-2.02681">
        <ele>1393.8</ele>
        <time>2021-10-09 13:34:35</time>
      </trkpt>
      <trkpt lat="40.46923" lon="-2.02678">
        <ele>1393.8</ele>
        <time>2021-10-09 13:34:36</time>
      </trkpt>
      <trkpt lat="40.46921" lon="-2.02676">
        <ele>1394</ele>
        <time>2021-10-09 13:34:37</time>
      </trkpt>
      <trkpt lat="40.46921" lon="-2.02676">
        <ele>1394</ele>
        <time>2021-10-09 13:34:38</time>
      </trkpt>
      <trkpt lat="40.46918" lon="-2.02671">
        <ele>1394.2</ele>
        <time>2021-10-09 13:34:39</time>
      </trkpt>
      <trkpt lat="40.46917" lon="-2.02669">
        <ele>1394.2</ele>
        <time>2021-10-09 13:34:40</time>
      </trkpt>
      <trkpt lat="40.46915" lon="-2.02666">
        <ele>1394.6</ele>
        <time>2021-10-09 13:34:41</time>
      </trkpt>
      <trkpt lat="40.46914" lon="-2.02664">
        <ele>1394.6</ele>
        <time>2021-10-09 13:34:42</time>
      </trkpt>
      <trkpt lat="40.46913" lon="-2.02661">
        <ele>1394.8</ele>
        <time>2021-10-09 13:34:43</time>
      </trkpt>
      <trkpt lat="40.46913" lon="-2.02659">
        <ele>1394.8</ele>
        <time>2021-10-09 13:34:44</time>
      </trkpt>
      <trkpt lat="40.46912" lon="-2.02656">
        <ele>1395.2</ele>
        <time>2021-10-09 13:34:45</time>
      </trkpt>
      <trkpt lat="40.46911" lon="-2.02654">
        <ele>1395.2</ele>
        <time>2021-10-09 13:34:46</time>
      </trkpt>
      <trkpt lat="40.4691" lon="-2.02651">
        <ele>1395.4</ele>
        <time>2021-10-09 13:34:47</time>
      </trkpt>
      <trkpt lat="40.46909" lon="-2.02648">
        <ele>1395.4</ele>
        <time>2021-10-09 13:34:48</time>
      </trkpt>
      <trkpt lat="40.46909" lon="-2.02645">
        <ele>1395.4</ele>
        <time>2021-10-09 13:34:49</time>
      </trkpt>
      <trkpt lat="40.46908" lon="-2.02642">
        <ele>1395.4</ele>
        <time>2021-10-09 13:34:50</time>
      </trkpt>
      <trkpt lat="40.46908" lon="-2.02639">
        <ele>1395.6</ele>
        <time>2021-10-09 13:34:51</time>
      </trkpt>
      <trkpt lat="40.46907" lon="-2.02637">
        <ele>1395.6</ele>
        <time>2021-10-09 13:34:52</time>
      </trkpt>
      <trkpt lat="40.46907" lon="-2.02635">
        <ele>1396</ele>
        <time>2021-10-09 13:34:53</time>
      </trkpt>
      <trkpt lat="40.46907" lon="-2.02633">
        <ele>1396</ele>
        <time>2021-10-09 13:34:54</time>
      </trkpt>
      <trkpt lat="40.46907" lon="-2.0263">
        <ele>1396.2</ele>
        <time>2021-10-09 13:34:55</time>
      </trkpt>
      <trkpt lat="40.46907" lon="-2.02627">
        <ele>1396.2</ele>
        <time>2021-10-09 13:34:56</time>
      </trkpt>
      <trkpt lat="40.46907" lon="-2.02624">
        <ele>1396.2</ele>
        <time>2021-10-09 13:34:57</time>
      </trkpt>
      <trkpt lat="40.46906" lon="-2.02622">
        <ele>1396.6</ele>
        <time>2021-10-09 13:34:58</time>
      </trkpt>
      <trkpt lat="40.46905" lon="-2.0262">
        <ele>1396.6</ele>
        <time>2021-10-09 13:34:59</time>
      </trkpt>
      <trkpt lat="40.46905" lon="-2.02618">
        <ele>1396.8</ele>
        <time>2021-10-09 13:35:00</time>
      </trkpt>
      <trkpt lat="40.46904" lon="-2.02616">
        <ele>1396.8</ele>
        <time>2021-10-09 13:35:01</time>
      </trkpt>
      <trkpt lat="40.46904" lon="-2.02613">
        <ele>1397.2</ele>
        <time>2021-10-09 13:35:02</time>
      </trkpt>
      <trkpt lat="40.46903" lon="-2.02611">
        <ele>1397.2</ele>
        <time>2021-10-09 13:35:03</time>
      </trkpt>
      <trkpt lat="40.46902" lon="-2.02608">
        <ele>1397.4</ele>
        <time>2021-10-09 13:35:04</time>
      </trkpt>
      <trkpt lat="40.46902" lon="-2.02605">
        <ele>1397.4</ele>
        <time>2021-10-09 13:35:05</time>
      </trkpt>
      <trkpt lat="40.46901" lon="-2.02602">
        <ele>1397.8</ele>
        <time>2021-10-09 13:35:06</time>
      </trkpt>
      <trkpt lat="40.46901" lon="-2.02599">
        <ele>1397.8</ele>
        <time>2021-10-09 13:35:07</time>
      </trkpt>
      <trkpt lat="40.46901" lon="-2.02596">
        <ele>1398</ele>
        <time>2021-10-09 13:35:08</time>
      </trkpt>
      <trkpt lat="40.46901" lon="-2.02593">
        <ele>1398</ele>
        <time>2021-10-09 13:35:09</time>
      </trkpt>
      <trkpt lat="40.46901" lon="-2.02591">
        <ele>1398.2</ele>
        <time>2021-10-09 13:35:10</time>
      </trkpt>
      <trkpt lat="40.46901" lon="-2.02589">
        <ele>1398.2</ele>
        <time>2021-10-09 13:35:11</time>
      </trkpt>
      <trkpt lat="40.46901" lon="-2.02587">
        <ele>1398.4</ele>
        <time>2021-10-09 13:35:12</time>
      </trkpt>
      <trkpt lat="40.46901" lon="-2.02585">
        <ele>1398.4</ele>
        <time>2021-10-09 13:35:13</time>
      </trkpt>
      <trkpt lat="40.46901" lon="-2.02582">
        <ele>1398.4</ele>
        <time>2021-10-09 13:35:14</time>
      </trkpt>
      <trkpt lat="40.46901" lon="-2.0258">
        <ele>1398.8</ele>
        <time>2021-10-09 13:35:15</time>
      </trkpt>
      <trkpt lat="40.46901" lon="-2.02577">
        <ele>1398.8</ele>
        <time>2021-10-09 13:35:16</time>
      </trkpt>
      <trkpt lat="40.46902" lon="-2.02575">
        <ele>1399</ele>
        <time>2021-10-09 13:35:17</time>
      </trkpt>
      <trkpt lat="40.46902" lon="-2.02572">
        <ele>1399</ele>
        <time>2021-10-09 13:35:18</time>
      </trkpt>
      <trkpt lat="40.46902" lon="-2.02568">
        <ele>1399.4</ele>
        <time>2021-10-09 13:35:19</time>
      </trkpt>
      <trkpt lat="40.46903" lon="-2.02564">
        <ele>1399.8</ele>
        <time>2021-10-09 13:35:20</time>
      </trkpt>
      <trkpt lat="40.46904" lon="-2.0256">
        <ele>1400.2</ele>
        <time>2021-10-09 13:35:21</time>
      </trkpt>
      <trkpt lat="40.46905" lon="-2.02556">
        <ele>1400.6</ele>
        <time>2021-10-09 13:35:22</time>
      </trkpt>
      <trkpt lat="40.46905" lon="-2.02552">
        <ele>1401</ele>
        <time>2021-10-09 13:35:23</time>
      </trkpt>
      <trkpt lat="40.46906" lon="-2.02548">
        <ele>1401.4</ele>
        <time>2021-10-09 13:35:24</time>
      </trkpt>
      <trkpt lat="40.46907" lon="-2.02543">
        <ele>1402</ele>
        <time>2021-10-09 13:35:25</time>
      </trkpt>
      <trkpt lat="40.46908" lon="-2.0254">
        <ele>1402.4</ele>
        <time>2021-10-09 13:35:26</time>
      </trkpt>
      <trkpt lat="40.46909" lon="-2.02538">
        <ele>1404</ele>
        <time>2021-10-09 13:35:27</time>
      </trkpt>
      <trkpt lat="40.4691" lon="-2.02536">
        <ele>1404.2</ele>
        <time>2021-10-09 13:35:28</time>
      </trkpt>
      <trkpt lat="40.46911" lon="-2.02534">
        <ele>1404.6</ele>
        <time>2021-10-09 13:35:29</time>
      </trkpt>
      <trkpt lat="40.46912" lon="-2.02533">
        <ele>1405</ele>
        <time>2021-10-09 13:35:30</time>
      </trkpt>
      <trkpt lat="40.46913" lon="-2.02532">
        <ele>1405.2</ele>
        <time>2021-10-09 13:35:31</time>
      </trkpt>
      <trkpt lat="40.46914" lon="-2.0253">
        <ele>1405.6</ele>
        <time>2021-10-09 13:35:32</time>
      </trkpt>
      <trkpt lat="40.46915" lon="-2.02528">
        <ele>1406</ele>
        <time>2021-10-09 13:35:33</time>
      </trkpt>
      <trkpt lat="40.46915" lon="-2.02526">
        <ele>1406.4</ele>
        <time>2021-10-09 13:35:34</time>
      </trkpt>
      <trkpt lat="40.46915" lon="-2.02524">
        <ele>1406.8</ele>
        <time>2021-10-09 13:35:35</time>
      </trkpt>
      <trkpt lat="40.46916" lon="-2.02522">
        <ele>1407.2</ele>
        <time>2021-10-09 13:35:36</time>
      </trkpt>
      <trkpt lat="40.46916" lon="-2.0252">
        <ele>1407.4</ele>
        <time>2021-10-09 13:35:37</time>
      </trkpt>
      <trkpt lat="40.46917" lon="-2.02519">
        <ele>1407.8</ele>
        <time>2021-10-09 13:35:38</time>
      </trkpt>
      <trkpt lat="40.46918" lon="-2.02517">
        <ele>1408</ele>
        <time>2021-10-09 13:35:39</time>
      </trkpt>
      <trkpt lat="40.46918" lon="-2.02515">
        <ele>1408.2</ele>
        <time>2021-10-09 13:35:40</time>
      </trkpt>
      <trkpt lat="40.46918" lon="-2.02515">
        <ele>1408.4</ele>
        <time>2021-10-09 13:35:41</time>
      </trkpt>
      <trkpt lat="40.4692" lon="-2.02511">
        <ele>1408.6</ele>
        <time>2021-10-09 13:35:42</time>
      </trkpt>
      <trkpt lat="40.4692" lon="-2.02511">
        <ele>1408.6</ele>
        <time>2021-10-09 13:35:43</time>
      </trkpt>
      <trkpt lat="40.4692" lon="-2.02508">
        <ele>1409</ele>
        <time>2021-10-09 13:35:44</time>
      </trkpt>
      <trkpt lat="40.4692" lon="-2.02508">
        <ele>1409</ele>
        <time>2021-10-09 13:35:45</time>
      </trkpt>
      <trkpt lat="40.4692" lon="-2.02506">
        <ele>1409.4</ele>
        <time>2021-10-09 13:35:46</time>
      </trkpt>
      <trkpt lat="40.4692" lon="-2.02505">
        <ele>1409.4</ele>
        <time>2021-10-09 13:35:47</time>
      </trkpt>
      <trkpt lat="40.46921" lon="-2.02504">
        <ele>1409.8</ele>
        <time>2021-10-09 13:35:48</time>
      </trkpt>
      <trkpt lat="40.46921" lon="-2.02502">
        <ele>1409.8</ele>
        <time>2021-10-09 13:35:49</time>
      </trkpt>
      <trkpt lat="40.46921" lon="-2.02501">
        <ele>1410</ele>
        <time>2021-10-09 13:35:50</time>
      </trkpt>
      <trkpt lat="40.46922" lon="-2.025">
        <ele>1410</ele>
        <time>2021-10-09 13:35:51</time>
      </trkpt>
      <trkpt lat="40.46923" lon="-2.02498">
        <ele>1410.2</ele>
        <time>2021-10-09 13:35:52</time>
      </trkpt>
      <trkpt lat="40.46924" lon="-2.02497">
        <ele>1410.4</ele>
        <time>2021-10-09 13:35:53</time>
      </trkpt>
      <trkpt lat="40.46925" lon="-2.02496">
        <ele>1410.4</ele>
        <time>2021-10-09 13:35:54</time>
      </trkpt>
      <trkpt lat="40.46925" lon="-2.02495">
        <ele>1410.8</ele>
        <time>2021-10-09 13:35:55</time>
      </trkpt>
      <trkpt lat="40.46926" lon="-2.02494">
        <ele>1410.8</ele>
        <time>2021-10-09 13:35:56</time>
      </trkpt>
      <trkpt lat="40.46927" lon="-2.02493">
        <ele>1411.2</ele>
        <time>2021-10-09 13:35:57</time>
      </trkpt>
      <trkpt lat="40.46928" lon="-2.02493">
        <ele>1411.4</ele>
        <time>2021-10-09 13:35:58</time>
      </trkpt>
      <trkpt lat="40.46929" lon="-2.02492">
        <ele>1411.4</ele>
        <time>2021-10-09 13:35:59</time>
      </trkpt>
      <trkpt lat="40.46931" lon="-2.02492">
        <ele>1411.4</ele>
        <time>2021-10-09 13:36:00</time>
      </trkpt>
      <trkpt lat="40.46932" lon="-2.02492">
        <ele>1411.6</ele>
        <time>2021-10-09 13:36:01</time>
      </trkpt>
      <trkpt lat="40.46933" lon="-2.02491">
        <ele>1411.6</ele>
        <time>2021-10-09 13:36:02</time>
      </trkpt>
      <trkpt lat="40.46935" lon="-2.02491">
        <ele>1411.6</ele>
        <time>2021-10-09 13:36:03</time>
      </trkpt>
      <trkpt lat="40.46936" lon="-2.0249">
        <ele>1412</ele>
        <time>2021-10-09 13:36:04</time>
      </trkpt>
      <trkpt lat="40.46938" lon="-2.02489">
        <ele>1412</ele>
        <time>2021-10-09 13:36:05</time>
      </trkpt>
      <trkpt lat="40.46939" lon="-2.02488">
        <ele>1412.4</ele>
        <time>2021-10-09 13:36:06</time>
      </trkpt>
      <trkpt lat="40.46941" lon="-2.02488">
        <ele>1412.6</ele>
        <time>2021-10-09 13:36:07</time>
      </trkpt>
      <trkpt lat="40.46943" lon="-2.02487">
        <ele>1412.6</ele>
        <time>2021-10-09 13:36:08</time>
      </trkpt>
      <trkpt lat="40.46944" lon="-2.02486">
        <ele>1413.2</ele>
        <time>2021-10-09 13:36:09</time>
      </trkpt>
      <trkpt lat="40.46946" lon="-2.02485">
        <ele>1413.8</ele>
        <time>2021-10-09 13:36:10</time>
      </trkpt>
      <trkpt lat="40.46948" lon="-2.02484">
        <ele>1413.8</ele>
        <time>2021-10-09 13:36:11</time>
      </trkpt>
      <trkpt lat="40.4695" lon="-2.02482">
        <ele>1414.2</ele>
        <time>2021-10-09 13:36:12</time>
      </trkpt>
      <trkpt lat="40.46952" lon="-2.0248">
        <ele>1414.6</ele>
        <time>2021-10-09 13:36:13</time>
      </trkpt>
      <trkpt lat="40.46953" lon="-2.02479">
        <ele>1414.8</ele>
        <time>2021-10-09 13:36:14</time>
      </trkpt>
      <trkpt lat="40.46955" lon="-2.02478">
        <ele>1415.2</ele>
        <time>2021-10-09 13:36:15</time>
      </trkpt>
      <trkpt lat="40.46957" lon="-2.02477">
        <ele>1415.4</ele>
        <time>2021-10-09 13:36:16</time>
      </trkpt>
      <trkpt lat="40.46959" lon="-2.02476">
        <ele>1415.8</ele>
        <time>2021-10-09 13:36:17</time>
      </trkpt>
      <trkpt lat="40.46961" lon="-2.02475">
        <ele>1416.2</ele>
        <time>2021-10-09 13:36:18</time>
      </trkpt>
      <trkpt lat="40.46963" lon="-2.02474">
        <ele>1416.8</ele>
        <time>2021-10-09 13:36:19</time>
      </trkpt>
      <trkpt lat="40.46964" lon="-2.02473">
        <ele>1417.2</ele>
        <time>2021-10-09 13:36:20</time>
      </trkpt>
      <trkpt lat="40.46965" lon="-2.02471">
        <ele>1417.6</ele>
        <time>2021-10-09 13:36:21</time>
      </trkpt>
      <trkpt lat="40.46966" lon="-2.02469">
        <ele>1418</ele>
        <time>2021-10-09 13:36:22</time>
      </trkpt>
      <trkpt lat="40.46967" lon="-2.02467">
        <ele>1418.6</ele>
        <time>2021-10-09 13:36:23</time>
      </trkpt>
      <trkpt lat="40.46968" lon="-2.02465">
        <ele>1418.6</ele>
        <time>2021-10-09 13:36:24</time>
      </trkpt>
      <trkpt lat="40.4697" lon="-2.02462">
        <ele>1419</ele>
        <time>2021-10-09 13:36:25</time>
      </trkpt>
      <trkpt lat="40.46971" lon="-2.0246">
        <ele>1419.4</ele>
        <time>2021-10-09 13:36:26</time>
      </trkpt>
      <trkpt lat="40.46972" lon="-2.02459">
        <ele>1419.6</ele>
        <time>2021-10-09 13:36:27</time>
      </trkpt>
      <trkpt lat="40.46974" lon="-2.02458">
        <ele>1420</ele>
        <time>2021-10-09 13:36:28</time>
      </trkpt>
      <trkpt lat="40.46975" lon="-2.02457">
        <ele>1420.2</ele>
        <time>2021-10-09 13:36:29</time>
      </trkpt>
      <trkpt lat="40.46977" lon="-2.02455">
        <ele>1420.6</ele>
        <time>2021-10-09 13:36:30</time>
      </trkpt>
      <trkpt lat="40.46978" lon="-2.02454">
        <ele>1421</ele>
        <time>2021-10-09 13:36:31</time>
      </trkpt>
      <trkpt lat="40.4698" lon="-2.02453">
        <ele>1421.4</ele>
        <time>2021-10-09 13:36:32</time>
      </trkpt>
      <trkpt lat="40.46982" lon="-2.02452">
        <ele>1421.8</ele>
        <time>2021-10-09 13:36:33</time>
      </trkpt>
      <trkpt lat="40.46984" lon="-2.02451">
        <ele>1422.2</ele>
        <time>2021-10-09 13:36:34</time>
      </trkpt>
      <trkpt lat="40.46987" lon="-2.0245">
        <ele>1422.6</ele>
        <time>2021-10-09 13:36:35</time>
      </trkpt>
      <trkpt lat="40.46989" lon="-2.02449">
        <ele>1423</ele>
        <time>2021-10-09 13:36:36</time>
      </trkpt>
      <trkpt lat="40.46991" lon="-2.02448">
        <ele>1423.4</ele>
        <time>2021-10-09 13:36:37</time>
      </trkpt>
      <trkpt lat="40.46993" lon="-2.02446">
        <ele>1423.6</ele>
        <time>2021-10-09 13:36:38</time>
      </trkpt>
      <trkpt lat="40.46995" lon="-2.02445">
        <ele>1424</ele>
        <time>2021-10-09 13:36:39</time>
      </trkpt>
      <trkpt lat="40.46996" lon="-2.02445">
        <ele>1424.2</ele>
        <time>2021-10-09 13:36:40</time>
      </trkpt>
      <trkpt lat="40.46998" lon="-2.02444">
        <ele>1424.2</ele>
        <time>2021-10-09 13:36:41</time>
      </trkpt>
      <trkpt lat="40.46999" lon="-2.02443">
        <ele>1424.6</ele>
        <time>2021-10-09 13:36:42</time>
      </trkpt>
      <trkpt lat="40.47001" lon="-2.02443">
        <ele>1424.6</ele>
        <time>2021-10-09 13:36:43</time>
      </trkpt>
      <trkpt lat="40.47002" lon="-2.02442">
        <ele>1424.8</ele>
        <time>2021-10-09 13:36:44</time>
      </trkpt>
      <trkpt lat="40.47003" lon="-2.02442">
        <ele>1424.8</ele>
        <time>2021-10-09 13:36:45</time>
      </trkpt>
      <trkpt lat="40.47004" lon="-2.02441">
        <ele>1425.2</ele>
        <time>2021-10-09 13:36:46</time>
      </trkpt>
      <trkpt lat="40.47006" lon="-2.0244">
        <ele>1425.2</ele>
        <time>2021-10-09 13:36:47</time>
      </trkpt>
      <trkpt lat="40.47007" lon="-2.02439">
        <ele>1425.4</ele>
        <time>2021-10-09 13:36:48</time>
      </trkpt>
      <trkpt lat="40.47008" lon="-2.02438">
        <ele>1425.4</ele>
        <time>2021-10-09 13:36:49</time>
      </trkpt>
      <trkpt lat="40.47009" lon="-2.02437">
        <ele>1425.8</ele>
        <time>2021-10-09 13:36:50</time>
      </trkpt>
      <trkpt lat="40.47011" lon="-2.02437">
        <ele>1425.8</ele>
        <time>2021-10-09 13:36:51</time>
      </trkpt>
      <trkpt lat="40.47012" lon="-2.02436">
        <ele>1426</ele>
        <time>2021-10-09 13:36:52</time>
      </trkpt>
      <trkpt lat="40.47013" lon="-2.02436">
        <ele>1426</ele>
        <time>2021-10-09 13:36:53</time>
      </trkpt>
      <trkpt lat="40.47015" lon="-2.02435">
        <ele>1426.4</ele>
        <time>2021-10-09 13:36:54</time>
      </trkpt>
      <trkpt lat="40.47016" lon="-2.02434">
        <ele>1426.6</ele>
        <time>2021-10-09 13:36:55</time>
      </trkpt>
      <trkpt lat="40.47017" lon="-2.02434">
        <ele>1426.6</ele>
        <time>2021-10-09 13:36:56</time>
      </trkpt>
      <trkpt lat="40.47019" lon="-2.02434">
        <ele>1427</ele>
        <time>2021-10-09 13:36:57</time>
      </trkpt>
      <trkpt lat="40.4702" lon="-2.02433">
        <ele>1427.2</ele>
        <time>2021-10-09 13:36:58</time>
      </trkpt>
      <trkpt lat="40.47022" lon="-2.02434">
        <ele>1427.2</ele>
        <time>2021-10-09 13:36:59</time>
      </trkpt>
      <trkpt lat="40.47023" lon="-2.02434">
        <ele>1427.4</ele>
        <time>2021-10-09 13:37:00</time>
      </trkpt>
      <trkpt lat="40.47025" lon="-2.02434">
        <ele>1427.4</ele>
        <time>2021-10-09 13:37:01</time>
      </trkpt>
      <trkpt lat="40.47026" lon="-2.02434">
        <ele>1427.8</ele>
        <time>2021-10-09 13:37:02</time>
      </trkpt>
      <trkpt lat="40.47028" lon="-2.02434">
        <ele>1427.8</ele>
        <time>2021-10-09 13:37:03</time>
      </trkpt>
      <trkpt lat="40.47029" lon="-2.02434">
        <ele>1428.2</ele>
        <time>2021-10-09 13:37:04</time>
      </trkpt>
      <trkpt lat="40.4703" lon="-2.02434">
        <ele>1428.2</ele>
        <time>2021-10-09 13:37:05</time>
      </trkpt>
      <trkpt lat="40.47033" lon="-2.02434">
        <ele>1428.6</ele>
        <time>2021-10-09 13:37:06</time>
      </trkpt>
      <trkpt lat="40.47034" lon="-2.02434">
        <ele>1428.8</ele>
        <time>2021-10-09 13:37:07</time>
      </trkpt>
      <trkpt lat="40.47036" lon="-2.02434">
        <ele>1429</ele>
        <time>2021-10-09 13:37:08</time>
      </trkpt>
      <trkpt lat="40.47038" lon="-2.02434">
        <ele>1429</ele>
        <time>2021-10-09 13:37:09</time>
      </trkpt>
      <trkpt lat="40.47041" lon="-2.02434">
        <ele>1429.4</ele>
        <time>2021-10-09 13:37:10</time>
      </trkpt>
      <trkpt lat="40.47044" lon="-2.02432">
        <ele>1429.8</ele>
        <time>2021-10-09 13:37:11</time>
      </trkpt>
      <trkpt lat="40.47046" lon="-2.02431">
        <ele>1430.2</ele>
        <time>2021-10-09 13:37:12</time>
      </trkpt>
      <trkpt lat="40.47048" lon="-2.0243">
        <ele>1430.4</ele>
        <time>2021-10-09 13:37:13</time>
      </trkpt>
      <trkpt lat="40.47051" lon="-2.02428">
        <ele>1431</ele>
        <time>2021-10-09 13:37:14</time>
      </trkpt>
      <trkpt lat="40.47053" lon="-2.02427">
        <ele>1431.6</ele>
        <time>2021-10-09 13:37:15</time>
      </trkpt>
      <trkpt lat="40.47055" lon="-2.02425">
        <ele>1432</ele>
        <time>2021-10-09 13:37:16</time>
      </trkpt>
      <trkpt lat="40.47056" lon="-2.02423">
        <ele>1432.4</ele>
        <time>2021-10-09 13:37:17</time>
      </trkpt>
      <trkpt lat="40.47057" lon="-2.0242">
        <ele>1432.6</ele>
        <time>2021-10-09 13:37:18</time>
      </trkpt>
      <trkpt lat="40.47057" lon="-2.02418">
        <ele>1433</ele>
        <time>2021-10-09 13:37:19</time>
      </trkpt>
      <trkpt lat="40.47056" lon="-2.02416">
        <ele>1433.4</ele>
        <time>2021-10-09 13:37:20</time>
      </trkpt>
      <trkpt lat="40.47054" lon="-2.02413">
        <ele>1433.8</ele>
        <time>2021-10-09 13:37:21</time>
      </trkpt>
      <trkpt lat="40.47053" lon="-2.02411">
        <ele>1434</ele>
        <time>2021-10-09 13:37:22</time>
      </trkpt>
      <trkpt lat="40.47051" lon="-2.0241">
        <ele>1434.4</ele>
        <time>2021-10-09 13:37:23</time>
      </trkpt>
      <trkpt lat="40.4705" lon="-2.02408">
        <ele>1434.6</ele>
        <time>2021-10-09 13:37:24</time>
      </trkpt>
      <trkpt lat="40.47048" lon="-2.02408">
        <ele>1434.6</ele>
        <time>2021-10-09 13:37:25</time>
      </trkpt>
      <trkpt lat="40.47046" lon="-2.02408">
        <ele>1435</ele>
        <time>2021-10-09 13:37:26</time>
      </trkpt>
      <trkpt lat="40.47044" lon="-2.02407">
        <ele>1435.2</ele>
        <time>2021-10-09 13:37:27</time>
      </trkpt>
      <trkpt lat="40.47042" lon="-2.02407">
        <ele>1435.2</ele>
        <time>2021-10-09 13:37:28</time>
      </trkpt>
      <trkpt lat="40.4704" lon="-2.02407">
        <ele>1435.6</ele>
        <time>2021-10-09 13:37:29</time>
      </trkpt>
      <trkpt lat="40.47038" lon="-2.02407">
        <ele>1435.6</ele>
        <time>2021-10-09 13:37:30</time>
      </trkpt>
      <trkpt lat="40.47037" lon="-2.02406">
        <ele>1435.6</ele>
        <time>2021-10-09 13:37:31</time>
      </trkpt>
      <trkpt lat="40.47036" lon="-2.02406">
        <ele>1435.8</ele>
        <time>2021-10-09 13:37:32</time>
      </trkpt>
      <trkpt lat="40.47036" lon="-2.02405">
        <ele>1435.8</ele>
        <time>2021-10-09 13:37:33</time>
      </trkpt>
      <trkpt lat="40.47035" lon="-2.02405">
        <ele>1436</ele>
        <time>2021-10-09 13:37:34</time>
      </trkpt>
      <trkpt lat="40.47033" lon="-2.02404">
        <ele>1436</ele>
        <time>2021-10-09 13:37:35</time>
      </trkpt>
      <trkpt lat="40.47032" lon="-2.02405">
        <ele>1436</ele>
        <time>2021-10-09 13:37:36</time>
      </trkpt>
      <trkpt lat="40.47032" lon="-2.02405">
        <ele>1436.2</ele>
        <time>2021-10-09 13:37:37</time>
      </trkpt>
      <trkpt lat="40.47031" lon="-2.02405">
        <ele>1436.2</ele>
        <time>2021-10-09 13:37:38</time>
      </trkpt>
      <trkpt lat="40.47032" lon="-2.02406">
        <ele>1436.2</ele>
        <time>2021-10-09 13:37:39</time>
      </trkpt>
      <trkpt lat="40.47032" lon="-2.02406">
        <ele>1436.2</ele>
        <time>2021-10-09 13:37:40</time>
      </trkpt>
      <trkpt lat="40.47031" lon="-2.02407">
        <ele>1436</ele>
        <time>2021-10-09 13:37:41</time>
      </trkpt>
      <trkpt lat="40.47029" lon="-2.02407">
        <ele>1436.2</ele>
        <time>2021-10-09 13:37:42</time>
      </trkpt>
      <trkpt lat="40.47027" lon="-2.02407">
        <ele>1436.2</ele>
        <time>2021-10-09 13:37:43</time>
      </trkpt>
      <trkpt lat="40.47025" lon="-2.02407">
        <ele>1436.2</ele>
        <time>2021-10-09 13:37:44</time>
      </trkpt>
      <trkpt lat="40.47023" lon="-2.02407">
        <ele>1436.2</ele>
        <time>2021-10-09 13:37:45</time>
      </trkpt>
      <trkpt lat="40.47021" lon="-2.02406">
        <ele>1436.6</ele>
        <time>2021-10-09 13:37:46</time>
      </trkpt>
      <trkpt lat="40.47018" lon="-2.02406">
        <ele>1436.6</ele>
        <time>2021-10-09 13:37:47</time>
      </trkpt>
      <trkpt lat="40.47016" lon="-2.02405">
        <ele>1436.6</ele>
        <time>2021-10-09 13:37:48</time>
      </trkpt>
      <trkpt lat="40.47014" lon="-2.02405">
        <ele>1436.6</ele>
        <time>2021-10-09 13:37:49</time>
      </trkpt>
      <trkpt lat="40.47011" lon="-2.02404">
        <ele>1436.6</ele>
        <time>2021-10-09 13:37:50</time>
      </trkpt>
      <trkpt lat="40.47008" lon="-2.02404">
        <ele>1436.6</ele>
        <time>2021-10-09 13:37:51</time>
      </trkpt>
      <trkpt lat="40.47006" lon="-2.02404">
        <ele>1436.6</ele>
        <time>2021-10-09 13:37:52</time>
      </trkpt>
      <trkpt lat="40.47003" lon="-2.02404">
        <ele>1436.8</ele>
        <time>2021-10-09 13:37:53</time>
      </trkpt>
      <trkpt lat="40.47" lon="-2.02404">
        <ele>1436.8</ele>
        <time>2021-10-09 13:37:54</time>
      </trkpt>
      <trkpt lat="40.46997" lon="-2.02404">
        <ele>1436.8</ele>
        <time>2021-10-09 13:37:55</time>
      </trkpt>
      <trkpt lat="40.46994" lon="-2.02404">
        <ele>1436.8</ele>
        <time>2021-10-09 13:37:56</time>
      </trkpt>
      <trkpt lat="40.46991" lon="-2.02404">
        <ele>1437</ele>
        <time>2021-10-09 13:37:57</time>
      </trkpt>
      <trkpt lat="40.46989" lon="-2.02404">
        <ele>1437</ele>
        <time>2021-10-09 13:37:58</time>
      </trkpt>
      <trkpt lat="40.46986" lon="-2.02404">
        <ele>1437</ele>
        <time>2021-10-09 13:37:59</time>
      </trkpt>
      <trkpt lat="40.46983" lon="-2.02404">
        <ele>1437.2</ele>
        <time>2021-10-09 13:38:00</time>
      </trkpt>
      <trkpt lat="40.46981" lon="-2.02405">
        <ele>1437.2</ele>
        <time>2021-10-09 13:38:01</time>
      </trkpt>
      <trkpt lat="40.46978" lon="-2.02405">
        <ele>1437.4</ele>
        <time>2021-10-09 13:38:02</time>
      </trkpt>
      <trkpt lat="40.46975" lon="-2.02405">
        <ele>1437.4</ele>
        <time>2021-10-09 13:38:31</time>
      </trkpt>
      <trkpt lat="40.46973" lon="-2.02405">
        <ele>1437.8</ele>
        <time>2021-10-09 13:38:32</time>
      </trkpt>
      <trkpt lat="40.4697" lon="-2.02405">
        <ele>1437.8</ele>
        <time>2021-10-09 13:38:33</time>
      </trkpt>
      <trkpt lat="40.46968" lon="-2.02405">
        <ele>1438</ele>
        <time>2021-10-09 13:38:34</time>
      </trkpt>
      <trkpt lat="40.46965" lon="-2.02405">
        <ele>1438</ele>
        <time>2021-10-09 13:38:35</time>
      </trkpt>
      <trkpt lat="40.46963" lon="-2.02405">
        <ele>1438.4</ele>
        <time>2021-10-09 13:38:36</time>
      </trkpt>
      <trkpt lat="40.46961" lon="-2.02405">
        <ele>1438.6</ele>
        <time>2021-10-09 13:38:37</time>
      </trkpt>
      <trkpt lat="40.46958" lon="-2.02405">
        <ele>1438.6</ele>
        <time>2021-10-09 13:38:38</time>
      </trkpt>
      <trkpt lat="40.46956" lon="-2.02405">
        <ele>1438.8</ele>
        <time>2021-10-09 13:38:39</time>
      </trkpt>
      <trkpt lat="40.46953" lon="-2.02406">
        <ele>1438.8</ele>
        <time>2021-10-09 13:38:40</time>
      </trkpt>
      <trkpt lat="40.46951" lon="-2.02406">
        <ele>1439.2</ele>
        <time>2021-10-09 13:38:41</time>
      </trkpt>
      <trkpt lat="40.46948" lon="-2.02407">
        <ele>1439.2</ele>
        <time>2021-10-09 13:38:42</time>
      </trkpt>
      <trkpt lat="40.46946" lon="-2.02407">
        <ele>1439.6</ele>
        <time>2021-10-09 13:38:43</time>
      </trkpt>
      <trkpt lat="40.46943" lon="-2.02408">
        <ele>1439.6</ele>
        <time>2021-10-09 13:38:44</time>
      </trkpt>
      <trkpt lat="40.46941" lon="-2.02408">
        <ele>1439.8</ele>
        <time>2021-10-09 13:38:45</time>
      </trkpt>
      <trkpt lat="40.46938" lon="-2.02408">
        <ele>1439.8</ele>
        <time>2021-10-09 13:38:46</time>
      </trkpt>
      <trkpt lat="40.46936" lon="-2.02408">
        <ele>1440.2</ele>
        <time>2021-10-09 13:38:47</time>
      </trkpt>
      <trkpt lat="40.46933" lon="-2.02409">
        <ele>1440.2</ele>
        <time>2021-10-09 13:38:48</time>
      </trkpt>
      <trkpt lat="40.46931" lon="-2.02409">
        <ele>1440.4</ele>
        <time>2021-10-09 13:38:49</time>
      </trkpt>
      <trkpt lat="40.46929" lon="-2.02409">
        <ele>1440.4</ele>
        <time>2021-10-09 13:38:50</time>
      </trkpt>
      <trkpt lat="40.46927" lon="-2.02409">
        <ele>1440.8</ele>
        <time>2021-10-09 13:38:51</time>
      </trkpt>
      <trkpt lat="40.46924" lon="-2.02409">
        <ele>1440.8</ele>
        <time>2021-10-09 13:38:52</time>
      </trkpt>
      <trkpt lat="40.46922" lon="-2.0241">
        <ele>1441</ele>
        <time>2021-10-09 13:38:53</time>
      </trkpt>
      <trkpt lat="40.4692" lon="-2.0241">
        <ele>1441</ele>
        <time>2021-10-09 13:38:54</time>
      </trkpt>
      <trkpt lat="40.46918" lon="-2.0241">
        <ele>1441.4</ele>
        <time>2021-10-09 13:38:55</time>
      </trkpt>
      <trkpt lat="40.46916" lon="-2.02411">
        <ele>1441.4</ele>
        <time>2021-10-09 13:38:56</time>
      </trkpt>
      <trkpt lat="40.46913" lon="-2.02411">
        <ele>1441.4</ele>
        <time>2021-10-09 13:38:57</time>
      </trkpt>
      <trkpt lat="40.46911" lon="-2.02411">
        <ele>1441.6</ele>
        <time>2021-10-09 13:38:58</time>
      </trkpt>
      <trkpt lat="40.46909" lon="-2.02411">
        <ele>1441.6</ele>
        <time>2021-10-09 13:38:59</time>
      </trkpt>
      <trkpt lat="40.46906" lon="-2.02411">
        <ele>1441.8</ele>
        <time>2021-10-09 13:39:00</time>
      </trkpt>
      <trkpt lat="40.46903" lon="-2.02411">
        <ele>1441.8</ele>
        <time>2021-10-09 13:39:01</time>
      </trkpt>
      <trkpt lat="40.46901" lon="-2.02412">
        <ele>1442.2</ele>
        <time>2021-10-09 13:39:02</time>
      </trkpt>
      <trkpt lat="40.46898" lon="-2.02412">
        <ele>1442.2</ele>
        <time>2021-10-09 13:39:03</time>
      </trkpt>
      <trkpt lat="40.46895" lon="-2.02412">
        <ele>1442.2</ele>
        <time>2021-10-09 13:39:04</time>
      </trkpt>
      <trkpt lat="40.46893" lon="-2.02413">
        <ele>1442.4</ele>
        <time>2021-10-09 13:39:05</time>
      </trkpt>
      <trkpt lat="40.4689" lon="-2.02412">
        <ele>1442.4</ele>
        <time>2021-10-09 13:39:06</time>
      </trkpt>
      <trkpt lat="40.46888" lon="-2.02412">
        <ele>1442.8</ele>
        <time>2021-10-09 13:39:07</time>
      </trkpt>
      <trkpt lat="40.46885" lon="-2.02412">
        <ele>1442.8</ele>
        <time>2021-10-09 13:39:08</time>
      </trkpt>
      <trkpt lat="40.46883" lon="-2.02412">
        <ele>1443</ele>
        <time>2021-10-09 13:39:09</time>
      </trkpt>
      <trkpt lat="40.46881" lon="-2.02412">
        <ele>1443.2</ele>
        <time>2021-10-09 13:39:10</time>
      </trkpt>
      <trkpt lat="40.46878" lon="-2.02412">
        <ele>1443.4</ele>
        <time>2021-10-09 13:39:11</time>
      </trkpt>
      <trkpt lat="40.46876" lon="-2.02413">
        <ele>1443.4</ele>
        <time>2021-10-09 13:39:12</time>
      </trkpt>
      <trkpt lat="40.46873" lon="-2.02412">
        <ele>1443.8</ele>
        <time>2021-10-09 13:39:13</time>
      </trkpt>
      <trkpt lat="40.46871" lon="-2.02412">
        <ele>1443.8</ele>
        <time>2021-10-09 13:39:14</time>
      </trkpt>
      <trkpt lat="40.46868" lon="-2.02412">
        <ele>1444.2</ele>
        <time>2021-10-09 13:39:15</time>
      </trkpt>
      <trkpt lat="40.46866" lon="-2.02412">
        <ele>1444.2</ele>
        <time>2021-10-09 13:39:16</time>
      </trkpt>
      <trkpt lat="40.46864" lon="-2.02411">
        <ele>1444.6</ele>
        <time>2021-10-09 13:39:17</time>
      </trkpt>
      <trkpt lat="40.46862" lon="-2.02411">
        <ele>1444.6</ele>
        <time>2021-10-09 13:39:18</time>
      </trkpt>
      <trkpt lat="40.46859" lon="-2.02411">
        <ele>1445</ele>
        <time>2021-10-09 13:39:19</time>
      </trkpt>
      <trkpt lat="40.46857" lon="-2.0241">
        <ele>1445.2</ele>
        <time>2021-10-09 13:39:20</time>
      </trkpt>
      <trkpt lat="40.46854" lon="-2.02409">
        <ele>1445.2</ele>
        <time>2021-10-09 13:39:21</time>
      </trkpt>
      <trkpt lat="40.46852" lon="-2.02408">
        <ele>1445.4</ele>
        <time>2021-10-09 13:39:22</time>
      </trkpt>
      <trkpt lat="40.4685" lon="-2.02408">
        <ele>1445.4</ele>
        <time>2021-10-09 13:39:23</time>
      </trkpt>
      <trkpt lat="40.46848" lon="-2.02407">
        <ele>1445.8</ele>
        <time>2021-10-09 13:39:24</time>
      </trkpt>
      <trkpt lat="40.46846" lon="-2.02405">
        <ele>1446</ele>
        <time>2021-10-09 13:39:25</time>
      </trkpt>
      <trkpt lat="40.46844" lon="-2.02405">
        <ele>1446</ele>
        <time>2021-10-09 13:39:26</time>
      </trkpt>
      <trkpt lat="40.46842" lon="-2.02404">
        <ele>1446.4</ele>
        <time>2021-10-09 13:39:27</time>
      </trkpt>
      <trkpt lat="40.46839" lon="-2.02403">
        <ele>1446.6</ele>
        <time>2021-10-09 13:39:28</time>
      </trkpt>
      <trkpt lat="40.46837" lon="-2.02402">
        <ele>1446.8</ele>
        <time>2021-10-09 13:39:29</time>
      </trkpt>
      <trkpt lat="40.46835" lon="-2.02401">
        <ele>1447.2</ele>
        <time>2021-10-09 13:39:30</time>
      </trkpt>
      <trkpt lat="40.46834" lon="-2.02401">
        <ele>1447.4</ele>
        <time>2021-10-09 13:39:31</time>
      </trkpt>
      <trkpt lat="40.46833" lon="-2.02401">
        <ele>1447.8</ele>
        <time>2021-10-09 13:39:32</time>
      </trkpt>
      <trkpt lat="40.46832" lon="-2.024">
        <ele>1448</ele>
        <time>2021-10-09 13:39:33</time>
      </trkpt>
      <trkpt lat="40.4683" lon="-2.02399">
        <ele>1448</ele>
        <time>2021-10-09 13:39:34</time>
      </trkpt>
      <trkpt lat="40.46828" lon="-2.02398">
        <ele>1448.2</ele>
        <time>2021-10-09 13:39:35</time>
      </trkpt>
      <trkpt lat="40.46825" lon="-2.02397">
        <ele>1448.2</ele>
        <time>2021-10-09 13:39:36</time>
      </trkpt>
      <trkpt lat="40.46824" lon="-2.02396">
        <ele>1448.6</ele>
        <time>2021-10-09 13:39:37</time>
      </trkpt>
      <trkpt lat="40.46822" lon="-2.02394">
        <ele>1448.6</ele>
        <time>2021-10-09 13:39:38</time>
      </trkpt>
      <trkpt lat="40.46819" lon="-2.02393">
        <ele>1448.8</ele>
        <time>2021-10-09 13:39:39</time>
      </trkpt>
      <trkpt lat="40.46817" lon="-2.02391">
        <ele>1448.8</ele>
        <time>2021-10-09 13:39:40</time>
      </trkpt>
      <trkpt lat="40.46815" lon="-2.02389">
        <ele>1449.2</ele>
        <time>2021-10-09 13:39:41</time>
      </trkpt>
      <trkpt lat="40.46812" lon="-2.02388">
        <ele>1449.2</ele>
        <time>2021-10-09 13:39:42</time>
      </trkpt>
      <trkpt lat="40.4681" lon="-2.02387">
        <ele>1449.4</ele>
        <time>2021-10-09 13:39:43</time>
      </trkpt>
      <trkpt lat="40.46808" lon="-2.02385">
        <ele>1449.4</ele>
        <time>2021-10-09 13:39:44</time>
      </trkpt>
      <trkpt lat="40.46805" lon="-2.02384">
        <ele>1449.8</ele>
        <time>2021-10-09 13:39:45</time>
      </trkpt>
      <trkpt lat="40.46803" lon="-2.02382">
        <ele>1449.8</ele>
        <time>2021-10-09 13:39:46</time>
      </trkpt>
      <trkpt lat="40.46801" lon="-2.0238">
        <ele>1450</ele>
        <time>2021-10-09 13:39:47</time>
      </trkpt>
      <trkpt lat="40.46799" lon="-2.02378">
        <ele>1450</ele>
        <time>2021-10-09 13:39:48</time>
      </trkpt>
      <trkpt lat="40.46797" lon="-2.02376">
        <ele>1450.4</ele>
        <time>2021-10-09 13:39:49</time>
      </trkpt>
      <trkpt lat="40.46795" lon="-2.02374">
        <ele>1450.6</ele>
        <time>2021-10-09 13:39:50</time>
      </trkpt>
      <trkpt lat="40.46794" lon="-2.02371">
        <ele>1451</ele>
        <time>2021-10-09 13:39:51</time>
      </trkpt>
      <trkpt lat="40.46792" lon="-2.02368">
        <ele>1451.2</ele>
        <time>2021-10-09 13:39:52</time>
      </trkpt>
      <trkpt lat="40.46791" lon="-2.02365">
        <ele>1451.8</ele>
        <time>2021-10-09 13:39:53</time>
      </trkpt>
      <trkpt lat="40.4679" lon="-2.02362">
        <ele>1452.2</ele>
        <time>2021-10-09 13:39:54</time>
      </trkpt>
      <trkpt lat="40.4679" lon="-2.02359">
        <ele>1452.2</ele>
        <time>2021-10-09 13:39:55</time>
      </trkpt>
      <trkpt lat="40.4679" lon="-2.02357">
        <ele>1452.4</ele>
        <time>2021-10-09 13:39:56</time>
      </trkpt>
      <trkpt lat="40.46791" lon="-2.02354">
        <ele>1452.4</ele>
        <time>2021-10-09 13:39:57</time>
      </trkpt>
      <trkpt lat="40.46791" lon="-2.02351">
        <ele>1452.6</ele>
        <time>2021-10-09 13:39:58</time>
      </trkpt>
      <trkpt lat="40.46792" lon="-2.02348">
        <ele>1452.6</ele>
        <time>2021-10-09 13:39:59</time>
      </trkpt>
      <trkpt lat="40.46793" lon="-2.02345">
        <ele>1453</ele>
        <time>2021-10-09 13:40:00</time>
      </trkpt>
      <trkpt lat="40.46794" lon="-2.02342">
        <ele>1453</ele>
        <time>2021-10-09 13:40:01</time>
      </trkpt>
      <trkpt lat="40.46795" lon="-2.02339">
        <ele>1453.2</ele>
        <time>2021-10-09 13:40:02</time>
      </trkpt>
      <trkpt lat="40.46797" lon="-2.02337">
        <ele>1453.4</ele>
        <time>2021-10-09 13:40:03</time>
      </trkpt>
      <trkpt lat="40.46798" lon="-2.02335">
        <ele>1453.4</ele>
        <time>2021-10-09 13:40:04</time>
      </trkpt>
      <trkpt lat="40.46799" lon="-2.02332">
        <ele>1453.8</ele>
        <time>2021-10-09 13:40:05</time>
      </trkpt>
      <trkpt lat="40.46801" lon="-2.02329">
        <ele>1453.8</ele>
        <time>2021-10-09 13:40:06</time>
      </trkpt>
      <trkpt lat="40.46802" lon="-2.02327">
        <ele>1454.2</ele>
        <time>2021-10-09 13:40:07</time>
      </trkpt>
      <trkpt lat="40.46803" lon="-2.02324">
        <ele>1454.2</ele>
        <time>2021-10-09 13:40:08</time>
      </trkpt>
      <trkpt lat="40.46804" lon="-2.02321">
        <ele>1454.4</ele>
        <time>2021-10-09 13:40:09</time>
      </trkpt>
      <trkpt lat="40.46805" lon="-2.02318">
        <ele>1454.4</ele>
        <time>2021-10-09 13:40:10</time>
      </trkpt>
      <trkpt lat="40.46806" lon="-2.02315">
        <ele>1454.4</ele>
        <time>2021-10-09 13:40:11</time>
      </trkpt>
      <trkpt lat="40.46807" lon="-2.02311">
        <ele>1454.8</ele>
        <time>2021-10-09 13:40:12</time>
      </trkpt>
      <trkpt lat="40.46807" lon="-2.02309">
        <ele>1455</ele>
        <time>2021-10-09 13:40:13</time>
      </trkpt>
      <trkpt lat="40.46808" lon="-2.02306">
        <ele>1455</ele>
        <time>2021-10-09 13:40:14</time>
      </trkpt>
      <trkpt lat="40.46809" lon="-2.02303">
        <ele>1455.2</ele>
        <time>2021-10-09 13:40:15</time>
      </trkpt>
      <trkpt lat="40.46809" lon="-2.023">
        <ele>1455.2</ele>
        <time>2021-10-09 13:40:16</time>
      </trkpt>
      <trkpt lat="40.4681" lon="-2.02298">
        <ele>1455.2</ele>
        <time>2021-10-09 13:40:17</time>
      </trkpt>
      <trkpt lat="40.4681" lon="-2.02295">
        <ele>1455.4</ele>
        <time>2021-10-09 13:40:18</time>
      </trkpt>
      <trkpt lat="40.4681" lon="-2.02292">
        <ele>1455.8</ele>
        <time>2021-10-09 13:40:19</time>
      </trkpt>
      <trkpt lat="40.46809" lon="-2.02289">
        <ele>1455.8</ele>
        <time>2021-10-09 13:40:20</time>
      </trkpt>
      <trkpt lat="40.46808" lon="-2.02286">
        <ele>1456</ele>
        <time>2021-10-09 13:40:21</time>
      </trkpt>
      <trkpt lat="40.46806" lon="-2.02283">
        <ele>1456.4</ele>
        <time>2021-10-09 13:40:22</time>
      </trkpt>
      <trkpt lat="40.46805" lon="-2.0228">
        <ele>1456.6</ele>
        <time>2021-10-09 13:40:23</time>
      </trkpt>
      <trkpt lat="40.46804" lon="-2.02278">
        <ele>1456.6</ele>
        <time>2021-10-09 13:40:24</time>
      </trkpt>
      <trkpt lat="40.46803" lon="-2.02276">
        <ele>1456.8</ele>
        <time>2021-10-09 13:40:25</time>
      </trkpt>
      <trkpt lat="40.46802" lon="-2.02274">
        <ele>1457.2</ele>
        <time>2021-10-09 13:40:26</time>
      </trkpt>
      <trkpt lat="40.468" lon="-2.02272">
        <ele>1457.2</ele>
        <time>2021-10-09 13:40:27</time>
      </trkpt>
      <trkpt lat="40.46799" lon="-2.0227">
        <ele>1457.4</ele>
        <time>2021-10-09 13:40:28</time>
      </trkpt>
      <trkpt lat="40.46797" lon="-2.02268">
        <ele>1457.4</ele>
        <time>2021-10-09 13:40:29</time>
      </trkpt>
      <trkpt lat="40.46796" lon="-2.02267">
        <ele>1457.8</ele>
        <time>2021-10-09 13:40:30</time>
      </trkpt>
      <trkpt lat="40.46795" lon="-2.02265">
        <ele>1457.8</ele>
        <time>2021-10-09 13:40:31</time>
      </trkpt>
      <trkpt lat="40.46794" lon="-2.02264">
        <ele>1458.2</ele>
        <time>2021-10-09 13:40:32</time>
      </trkpt>
      <trkpt lat="40.46793" lon="-2.02262">
        <ele>1458.2</ele>
        <time>2021-10-09 13:40:33</time>
      </trkpt>
      <trkpt lat="40.46792" lon="-2.02261">
        <ele>1458.4</ele>
        <time>2021-10-09 13:40:34</time>
      </trkpt>
      <trkpt lat="40.4679" lon="-2.02261">
        <ele>1458.4</ele>
        <time>2021-10-09 13:40:35</time>
      </trkpt>
      <trkpt lat="40.46789" lon="-2.0226">
        <ele>1458.4</ele>
        <time>2021-10-09 13:40:36</time>
      </trkpt>
      <trkpt lat="40.46787" lon="-2.02259">
        <ele>1458.6</ele>
        <time>2021-10-09 13:40:37</time>
      </trkpt>
      <trkpt lat="40.46785" lon="-2.02257">
        <ele>1458.6</ele>
        <time>2021-10-09 13:40:38</time>
      </trkpt>
      <trkpt lat="40.46783" lon="-2.02255">
        <ele>1459</ele>
        <time>2021-10-09 13:40:39</time>
      </trkpt>
      <trkpt lat="40.46782" lon="-2.02253">
        <ele>1459</ele>
        <time>2021-10-09 13:40:40</time>
      </trkpt>
      <trkpt lat="40.4678" lon="-2.02251">
        <ele>1459</ele>
        <time>2021-10-09 13:40:41</time>
      </trkpt>
      <trkpt lat="40.46778" lon="-2.02249">
        <ele>1459</ele>
        <time>2021-10-09 13:40:42</time>
      </trkpt>
      <trkpt lat="40.46776" lon="-2.02247">
        <ele>1459</ele>
        <time>2021-10-09 13:40:43</time>
      </trkpt>
      <trkpt lat="40.46774" lon="-2.02244">
        <ele>1459</ele>
        <time>2021-10-09 13:40:44</time>
      </trkpt>
      <trkpt lat="40.46773" lon="-2.02242">
        <ele>1459</ele>
        <time>2021-10-09 13:40:45</time>
      </trkpt>
      <trkpt lat="40.46771" lon="-2.02239">
        <ele>1459</ele>
        <time>2021-10-09 13:40:46</time>
      </trkpt>
      <trkpt lat="40.46769" lon="-2.02236">
        <ele>1459</ele>
        <time>2021-10-09 13:40:47</time>
      </trkpt>
      <trkpt lat="40.46768" lon="-2.02234">
        <ele>1459</ele>
        <time>2021-10-09 13:40:48</time>
      </trkpt>
      <trkpt lat="40.46767" lon="-2.02231">
        <ele>1459</ele>
        <time>2021-10-09 13:40:49</time>
      </trkpt>
      <trkpt lat="40.46765" lon="-2.02228">
        <ele>1459</ele>
        <time>2021-10-09 13:40:50</time>
      </trkpt>
      <trkpt lat="40.46763" lon="-2.02224">
        <ele>1459</ele>
        <time>2021-10-09 13:40:51</time>
      </trkpt>
      <trkpt lat="40.46761" lon="-2.02221">
        <ele>1459</ele>
        <time>2021-10-09 13:40:52</time>
      </trkpt>
      <trkpt lat="40.4676" lon="-2.02217">
        <ele>1459</ele>
        <time>2021-10-09 13:40:53</time>
      </trkpt>
      <trkpt lat="40.46758" lon="-2.02213">
        <ele>1459</ele>
        <time>2021-10-09 13:40:54</time>
      </trkpt>
      <trkpt lat="40.46757" lon="-2.02207">
        <ele>1459</ele>
        <time>2021-10-09 13:40:55</time>
      </trkpt>
      <trkpt lat="40.46754" lon="-2.02203">
        <ele>1458.6</ele>
        <time>2021-10-09 13:40:56</time>
      </trkpt>
      <trkpt lat="40.46753" lon="-2.02198">
        <ele>1458.6</ele>
        <time>2021-10-09 13:40:57</time>
      </trkpt>
      <trkpt lat="40.4675" lon="-2.02193">
        <ele>1458.4</ele>
        <time>2021-10-09 13:40:58</time>
      </trkpt>
      <trkpt lat="40.46748" lon="-2.02187">
        <ele>1458.2</ele>
        <time>2021-10-09 13:40:59</time>
      </trkpt>
      <trkpt lat="40.46745" lon="-2.02182">
        <ele>1458.2</ele>
        <time>2021-10-09 13:41:00</time>
      </trkpt>
      <trkpt lat="40.46743" lon="-2.02176">
        <ele>1457.8</ele>
        <time>2021-10-09 13:41:01</time>
      </trkpt>
      <trkpt lat="40.4674" lon="-2.02171">
        <ele>1457.8</ele>
        <time>2021-10-09 13:41:02</time>
      </trkpt>
      <trkpt lat="40.46737" lon="-2.02165">
        <ele>1457.6</ele>
        <time>2021-10-09 13:41:03</time>
      </trkpt>
      <trkpt lat="40.46735" lon="-2.0216">
        <ele>1457.2</ele>
        <time>2021-10-09 13:41:04</time>
      </trkpt>
      <trkpt lat="40.46732" lon="-2.02155">
        <ele>1457.2</ele>
        <time>2021-10-09 13:41:05</time>
      </trkpt>
      <trkpt lat="40.46728" lon="-2.02151">
        <ele>1457</ele>
        <time>2021-10-09 13:41:06</time>
      </trkpt>
      <trkpt lat="40.46725" lon="-2.02146">
        <ele>1456.8</ele>
        <time>2021-10-09 13:41:07</time>
      </trkpt>
      <trkpt lat="40.46722" lon="-2.02142">
        <ele>1456</ele>
        <time>2021-10-09 13:41:08</time>
      </trkpt>
      <trkpt lat="40.46718" lon="-2.02138">
        <ele>1456.4</ele>
        <time>2021-10-09 13:41:09</time>
      </trkpt>
      <trkpt lat="40.46715" lon="-2.02133">
        <ele>1457</ele>
        <time>2021-10-09 13:41:10</time>
      </trkpt>
      <trkpt lat="40.46712" lon="-2.02129">
        <ele>1457</ele>
        <time>2021-10-09 13:41:11</time>
      </trkpt>
      <trkpt lat="40.46708" lon="-2.02124">
        <ele>1457</ele>
        <time>2021-10-09 13:41:12</time>
      </trkpt>
      <trkpt lat="40.46705" lon="-2.02119">
        <ele>1457</ele>
        <time>2021-10-09 13:41:13</time>
      </trkpt>
      <trkpt lat="40.46702" lon="-2.02115">
        <ele>1456.8</ele>
        <time>2021-10-09 13:41:14</time>
      </trkpt>
      <trkpt lat="40.46698" lon="-2.02111">
        <ele>1456.8</ele>
        <time>2021-10-09 13:41:15</time>
      </trkpt>
      <trkpt lat="40.46694" lon="-2.02106">
        <ele>1457.2</ele>
        <time>2021-10-09 13:41:16</time>
      </trkpt>
      <trkpt lat="40.46691" lon="-2.02102">
        <ele>1457.2</ele>
        <time>2021-10-09 13:41:17</time>
      </trkpt>
      <trkpt lat="40.46686" lon="-2.02097">
        <ele>1457.2</ele>
        <time>2021-10-09 13:41:18</time>
      </trkpt>
      <trkpt lat="40.46682" lon="-2.02092">
        <ele>1457.2</ele>
        <time>2021-10-09 13:41:19</time>
      </trkpt>
      <trkpt lat="40.46678" lon="-2.02086">
        <ele>1457.2</ele>
        <time>2021-10-09 13:41:20</time>
      </trkpt>
      <trkpt lat="40.46673" lon="-2.02081">
        <ele>1457.2</ele>
        <time>2021-10-09 13:41:21</time>
      </trkpt>
      <trkpt lat="40.46668" lon="-2.02075">
        <ele>1457</ele>
        <time>2021-10-09 13:41:22</time>
      </trkpt>
      <trkpt lat="40.46664" lon="-2.02069">
        <ele>1457</ele>
        <time>2021-10-09 13:41:23</time>
      </trkpt>
      <trkpt lat="40.4666" lon="-2.02064">
        <ele>1457</ele>
        <time>2021-10-09 13:41:24</time>
      </trkpt>
      <trkpt lat="40.46656" lon="-2.02058">
        <ele>1457</ele>
        <time>2021-10-09 13:41:25</time>
      </trkpt>
      <trkpt lat="40.46652" lon="-2.02052">
        <ele>1457</ele>
        <time>2021-10-09 13:41:26</time>
      </trkpt>
      <trkpt lat="40.46649" lon="-2.02046">
        <ele>1457</ele>
        <time>2021-10-09 13:41:27</time>
      </trkpt>
      <trkpt lat="40.46647" lon="-2.0204">
        <ele>1457</ele>
        <time>2021-10-09 13:41:28</time>
      </trkpt>
      <trkpt lat="40.46644" lon="-2.02033">
        <ele>1456.8</ele>
        <time>2021-10-09 13:41:29</time>
      </trkpt>
      <trkpt lat="40.46642" lon="-2.02025">
        <ele>1456.8</ele>
        <time>2021-10-09 13:41:30</time>
      </trkpt>
      <trkpt lat="40.46641" lon="-2.02018">
        <ele>1456.8</ele>
        <time>2021-10-09 13:41:31</time>
      </trkpt>
      <trkpt lat="40.4664" lon="-2.0201">
        <ele>1456.4</ele>
        <time>2021-10-09 13:41:32</time>
      </trkpt>
      <trkpt lat="40.4664" lon="-2.02002">
        <ele>1458.2</ele>
        <time>2021-10-09 13:41:33</time>
      </trkpt>
      <trkpt lat="40.46639" lon="-2.01994">
        <ele>1458.2</ele>
        <time>2021-10-09 13:41:34</time>
      </trkpt>
      <trkpt lat="40.46638" lon="-2.01987">
        <ele>1457.6</ele>
        <time>2021-10-09 13:41:35</time>
      </trkpt>
      <trkpt lat="40.46638" lon="-2.0198">
        <ele>1457.2</ele>
        <time>2021-10-09 13:41:36</time>
      </trkpt>
      <trkpt lat="40.46638" lon="-2.01973">
        <ele>1457</ele>
        <time>2021-10-09 13:41:37</time>
      </trkpt>
      <trkpt lat="40.46638" lon="-2.01968">
        <ele>1457</ele>
        <time>2021-10-09 13:41:38</time>
      </trkpt>
      <trkpt lat="40.46637" lon="-2.01964">
        <ele>1456.6</ele>
        <time>2021-10-09 13:41:39</time>
      </trkpt>
      <trkpt lat="40.46637" lon="-2.0196">
        <ele>1456.6</ele>
        <time>2021-10-09 13:41:40</time>
      </trkpt>
      <trkpt lat="40.46636" lon="-2.01956">
        <ele>1456.6</ele>
        <time>2021-10-09 13:41:41</time>
      </trkpt>
      <trkpt lat="40.46636" lon="-2.01952">
        <ele>1456.6</ele>
        <time>2021-10-09 13:41:42</time>
      </trkpt>
      <trkpt lat="40.46635" lon="-2.01948">
        <ele>1457</ele>
        <time>2021-10-09 13:41:43</time>
      </trkpt>
      <trkpt lat="40.46634" lon="-2.01944">
        <ele>1457</ele>
        <time>2021-10-09 13:41:44</time>
      </trkpt>
      <trkpt lat="40.46633" lon="-2.01941">
        <ele>1457</ele>
        <time>2021-10-09 13:41:45</time>
      </trkpt>
      <trkpt lat="40.46631" lon="-2.01937">
        <ele>1457.2</ele>
        <time>2021-10-09 13:41:46</time>
      </trkpt>
      <trkpt lat="40.4663" lon="-2.01934">
        <ele>1457.2</ele>
        <time>2021-10-09 13:41:47</time>
      </trkpt>
      <trkpt lat="40.46629" lon="-2.0193">
        <ele>1457.6</ele>
        <time>2021-10-09 13:41:48</time>
      </trkpt>
      <trkpt lat="40.46628" lon="-2.01928">
        <ele>1457.6</ele>
        <time>2021-10-09 13:41:49</time>
      </trkpt>
      <trkpt lat="40.46626" lon="-2.01925">
        <ele>1457.8</ele>
        <time>2021-10-09 13:41:50</time>
      </trkpt>
      <trkpt lat="40.46625" lon="-2.01922">
        <ele>1457.8</ele>
        <time>2021-10-09 13:41:51</time>
      </trkpt>
      <trkpt lat="40.46623" lon="-2.01919">
        <ele>1458</ele>
        <time>2021-10-09 13:41:52</time>
      </trkpt>
      <trkpt lat="40.46622" lon="-2.01916">
        <ele>1458</ele>
        <time>2021-10-09 13:41:53</time>
      </trkpt>
      <trkpt lat="40.46619" lon="-2.01914">
        <ele>1458.2</ele>
        <time>2021-10-09 13:41:54</time>
      </trkpt>
      <trkpt lat="40.46617" lon="-2.01911">
        <ele>1458.2</ele>
        <time>2021-10-09 13:41:55</time>
      </trkpt>
      <trkpt lat="40.46615" lon="-2.01908">
        <ele>1458.2</ele>
        <time>2021-10-09 13:41:56</time>
      </trkpt>
      <trkpt lat="40.46612" lon="-2.01906">
        <ele>1458.4</ele>
        <time>2021-10-09 13:41:57</time>
      </trkpt>
      <trkpt lat="40.4661" lon="-2.01904">
        <ele>1458.4</ele>
        <time>2021-10-09 13:41:58</time>
      </trkpt>
      <trkpt lat="40.46608" lon="-2.01902">
        <ele>1458.4</ele>
        <time>2021-10-09 13:41:59</time>
      </trkpt>
      <trkpt lat="40.46605" lon="-2.01899">
        <ele>1458.4</ele>
        <time>2021-10-09 13:42:00</time>
      </trkpt>
      <trkpt lat="40.46603" lon="-2.01897">
        <ele>1458.8</ele>
        <time>2021-10-09 13:42:01</time>
      </trkpt>
      <trkpt lat="40.466" lon="-2.01895">
        <ele>1458.8</ele>
        <time>2021-10-09 13:42:02</time>
      </trkpt>
      <trkpt lat="40.46597" lon="-2.01893">
        <ele>1458.8</ele>
        <time>2021-10-09 13:42:03</time>
      </trkpt>
      <trkpt lat="40.46594" lon="-2.0189">
        <ele>1458.8</ele>
        <time>2021-10-09 13:42:04</time>
      </trkpt>
      <trkpt lat="40.46591" lon="-2.01887">
        <ele>1459</ele>
        <time>2021-10-09 13:42:05</time>
      </trkpt>
      <trkpt lat="40.46588" lon="-2.01885">
        <ele>1459</ele>
        <time>2021-10-09 13:42:06</time>
      </trkpt>
      <trkpt lat="40.46585" lon="-2.01882">
        <ele>1459</ele>
        <time>2021-10-09 13:42:07</time>
      </trkpt>
      <trkpt lat="40.46583" lon="-2.01879">
        <ele>1459</ele>
        <time>2021-10-09 13:42:08</time>
      </trkpt>
      <trkpt lat="40.4658" lon="-2.01876">
        <ele>1459.2</ele>
        <time>2021-10-09 13:42:09</time>
      </trkpt>
      <trkpt lat="40.46578" lon="-2.01872">
        <ele>1459.2</ele>
        <time>2021-10-09 13:42:10</time>
      </trkpt>
      <trkpt lat="40.46575" lon="-2.01869">
        <ele>1459.4</ele>
        <time>2021-10-09 13:42:11</time>
      </trkpt>
      <trkpt lat="40.46573" lon="-2.01865">
        <ele>1459.4</ele>
        <time>2021-10-09 13:42:12</time>
      </trkpt>
      <trkpt lat="40.46571" lon="-2.01861">
        <ele>1459.4</ele>
        <time>2021-10-09 13:42:13</time>
      </trkpt>
      <trkpt lat="40.46569" lon="-2.01857">
        <ele>1459.4</ele>
        <time>2021-10-09 13:42:14</time>
      </trkpt>
      <trkpt lat="40.46568" lon="-2.01853">
        <ele>1459.8</ele>
        <time>2021-10-09 13:42:15</time>
      </trkpt>
      <trkpt lat="40.46567" lon="-2.01849">
        <ele>1459.8</ele>
        <time>2021-10-09 13:42:16</time>
      </trkpt>
      <trkpt lat="40.46566" lon="-2.01844">
        <ele>1459.8</ele>
        <time>2021-10-09 13:42:17</time>
      </trkpt>
      <trkpt lat="40.46564" lon="-2.0184">
        <ele>1460</ele>
        <time>2021-10-09 13:42:18</time>
      </trkpt>
      <trkpt lat="40.46563" lon="-2.01835">
        <ele>1460</ele>
        <time>2021-10-09 13:42:19</time>
      </trkpt>
      <trkpt lat="40.46562" lon="-2.0183">
        <ele>1460</ele>
        <time>2021-10-09 13:42:20</time>
      </trkpt>
      <trkpt lat="40.46561" lon="-2.01826">
        <ele>1460</ele>
        <time>2021-10-09 13:42:21</time>
      </trkpt>
      <trkpt lat="40.4656" lon="-2.01821">
        <ele>1460.2</ele>
        <time>2021-10-09 13:42:22</time>
      </trkpt>
      <trkpt lat="40.46559" lon="-2.01816">
        <ele>1460.2</ele>
        <time>2021-10-09 13:42:23</time>
      </trkpt>
      <trkpt lat="40.46558" lon="-2.01812">
        <ele>1460.2</ele>
        <time>2021-10-09 13:42:24</time>
      </trkpt>
      <trkpt lat="40.46558" lon="-2.01807">
        <ele>1460.2</ele>
        <time>2021-10-09 13:42:25</time>
      </trkpt>
      <trkpt lat="40.46557" lon="-2.01802">
        <ele>1460.4</ele>
        <time>2021-10-09 13:42:26</time>
      </trkpt>
      <trkpt lat="40.46555" lon="-2.01798">
        <ele>1460.4</ele>
        <time>2021-10-09 13:42:27</time>
      </trkpt>
      <trkpt lat="40.46554" lon="-2.01794">
        <ele>1460.6</ele>
        <time>2021-10-09 13:42:28</time>
      </trkpt>
      <trkpt lat="40.46552" lon="-2.0179">
        <ele>1460.6</ele>
        <time>2021-10-09 13:42:29</time>
      </trkpt>
      <trkpt lat="40.46551" lon="-2.01786">
        <ele>1460.6</ele>
        <time>2021-10-09 13:42:30</time>
      </trkpt>
      <trkpt lat="40.4655" lon="-2.01782">
        <ele>1460.8</ele>
        <time>2021-10-09 13:42:31</time>
      </trkpt>
      <trkpt lat="40.46548" lon="-2.01778">
        <ele>1460.8</ele>
        <time>2021-10-09 13:42:32</time>
      </trkpt>
      <trkpt lat="40.46547" lon="-2.01774">
        <ele>1461.2</ele>
        <time>2021-10-09 13:42:33</time>
      </trkpt>
      <trkpt lat="40.46544" lon="-2.0177">
        <ele>1461.2</ele>
        <time>2021-10-09 13:42:34</time>
      </trkpt>
      <trkpt lat="40.46543" lon="-2.01766">
        <ele>1461.2</ele>
        <time>2021-10-09 13:42:35</time>
      </trkpt>
      <trkpt lat="40.46541" lon="-2.01761">
        <ele>1461.2</ele>
        <time>2021-10-09 13:42:36</time>
      </trkpt>
      <trkpt lat="40.46539" lon="-2.01755">
        <ele>1461.2</ele>
        <time>2021-10-09 13:42:37</time>
      </trkpt>
      <trkpt lat="40.46538" lon="-2.0175">
        <ele>1461.4</ele>
        <time>2021-10-09 13:42:38</time>
      </trkpt>
      <trkpt lat="40.46537" lon="-2.01744">
        <ele>1461.4</ele>
        <time>2021-10-09 13:42:39</time>
      </trkpt>
      <trkpt lat="40.46536" lon="-2.01738">
        <ele>1461.4</ele>
        <time>2021-10-09 13:42:40</time>
      </trkpt>
      <trkpt lat="40.46536" lon="-2.01732">
        <ele>1461.4</ele>
        <time>2021-10-09 13:42:41</time>
      </trkpt>
      <trkpt lat="40.46536" lon="-2.01726">
        <ele>1461.4</ele>
        <time>2021-10-09 13:42:42</time>
      </trkpt>
      <trkpt lat="40.46537" lon="-2.01718">
        <ele>1461.4</ele>
        <time>2021-10-09 13:42:43</time>
      </trkpt>
      <trkpt lat="40.46539" lon="-2.01711">
        <ele>1461.2</ele>
        <time>2021-10-09 13:42:44</time>
      </trkpt>
      <trkpt lat="40.4654" lon="-2.01703">
        <ele>1460.8</ele>
        <time>2021-10-09 13:42:45</time>
      </trkpt>
      <trkpt lat="40.46541" lon="-2.01696">
        <ele>1460.8</ele>
        <time>2021-10-09 13:42:46</time>
      </trkpt>
      <trkpt lat="40.46543" lon="-2.01689">
        <ele>1460.6</ele>
        <time>2021-10-09 13:42:47</time>
      </trkpt>
      <trkpt lat="40.46544" lon="-2.01681">
        <ele>1460.6</ele>
        <time>2021-10-09 13:42:48</time>
      </trkpt>
      <trkpt lat="40.46546" lon="-2.01673">
        <ele>1460.6</ele>
        <time>2021-10-09 13:42:49</time>
      </trkpt>
      <trkpt lat="40.46548" lon="-2.01665">
        <ele>1460.6</ele>
        <time>2021-10-09 13:42:50</time>
      </trkpt>
      <trkpt lat="40.46549" lon="-2.01657">
        <ele>1460.6</ele>
        <time>2021-10-09 13:42:51</time>
      </trkpt>
      <trkpt lat="40.46551" lon="-2.01648">
        <ele>1460.6</ele>
        <time>2021-10-09 13:42:52</time>
      </trkpt>
      <trkpt lat="40.46552" lon="-2.01639">
        <ele>1460.2</ele>
        <time>2021-10-09 13:42:53</time>
      </trkpt>
      <trkpt lat="40.46553" lon="-2.01631">
        <ele>1459.8</ele>
        <time>2021-10-09 13:42:54</time>
      </trkpt>
      <trkpt lat="40.46554" lon="-2.01621">
        <ele>1459.6</ele>
        <time>2021-10-09 13:42:55</time>
      </trkpt>
      <trkpt lat="40.46554" lon="-2.01612">
        <ele>1459.4</ele>
        <time>2021-10-09 13:42:56</time>
      </trkpt>
      <trkpt lat="40.46555" lon="-2.01603">
        <ele>1459</ele>
        <time>2021-10-09 13:42:57</time>
      </trkpt>
      <trkpt lat="40.46556" lon="-2.01593">
        <ele>1458.8</ele>
        <time>2021-10-09 13:42:58</time>
      </trkpt>
      <trkpt lat="40.46557" lon="-2.01584">
        <ele>1458.4</ele>
        <time>2021-10-09 13:42:59</time>
      </trkpt>
      <trkpt lat="40.46558" lon="-2.01575">
        <ele>1458.2</ele>
        <time>2021-10-09 13:43:00</time>
      </trkpt>
      <trkpt lat="40.46558" lon="-2.01567">
        <ele>1458.2</ele>
        <time>2021-10-09 13:43:01</time>
      </trkpt>
      <trkpt lat="40.46559" lon="-2.01558">
        <ele>1457.8</ele>
        <time>2021-10-09 13:43:02</time>
      </trkpt>
      <trkpt lat="40.46559" lon="-2.0155">
        <ele>1457.8</ele>
        <time>2021-10-09 13:43:03</time>
      </trkpt>
      <trkpt lat="40.46559" lon="-2.01542">
        <ele>1457.8</ele>
        <time>2021-10-09 13:43:04</time>
      </trkpt>
      <trkpt lat="40.46559" lon="-2.01534">
        <ele>1457.8</ele>
        <time>2021-10-09 13:43:05</time>
      </trkpt>
      <trkpt lat="40.46558" lon="-2.01526">
        <ele>1457.6</ele>
        <time>2021-10-09 13:43:06</time>
      </trkpt>
      <trkpt lat="40.46559" lon="-2.01519">
        <ele>1457.6</ele>
        <time>2021-10-09 13:43:07</time>
      </trkpt>
      <trkpt lat="40.46559" lon="-2.01511">
        <ele>1457.2</ele>
        <time>2021-10-09 13:43:08</time>
      </trkpt>
      <trkpt lat="40.46561" lon="-2.01504">
        <ele>1457.2</ele>
        <time>2021-10-09 13:43:09</time>
      </trkpt>
      <trkpt lat="40.46565" lon="-2.01498">
        <ele>1457.2</ele>
        <time>2021-10-09 13:43:10</time>
      </trkpt>
      <trkpt lat="40.46568" lon="-2.01492">
        <ele>1457</ele>
        <time>2021-10-09 13:43:11</time>
      </trkpt>
      <trkpt lat="40.46573" lon="-2.01487">
        <ele>1457</ele>
        <time>2021-10-09 13:43:12</time>
      </trkpt>
      <trkpt lat="40.46578" lon="-2.01482">
        <ele>1457</ele>
        <time>2021-10-09 13:43:13</time>
      </trkpt>
      <trkpt lat="40.46584" lon="-2.01479">
        <ele>1457.2</ele>
        <time>2021-10-09 13:43:14</time>
      </trkpt>
      <trkpt lat="40.46589" lon="-2.01475">
        <ele>1457.2</ele>
        <time>2021-10-09 13:43:15</time>
      </trkpt>
      <trkpt lat="40.46595" lon="-2.01473">
        <ele>1457.6</ele>
        <time>2021-10-09 13:43:16</time>
      </trkpt>
      <trkpt lat="40.46601" lon="-2.01471">
        <ele>1457.6</ele>
        <time>2021-10-09 13:43:17</time>
      </trkpt>
      <trkpt lat="40.46608" lon="-2.0147">
        <ele>1457.6</ele>
        <time>2021-10-09 13:43:18</time>
      </trkpt>
      <trkpt lat="40.46615" lon="-2.0147">
        <ele>1457.6</ele>
        <time>2021-10-09 13:43:19</time>
      </trkpt>
      <trkpt lat="40.46621" lon="-2.01469">
        <ele>1457.6</ele>
        <time>2021-10-09 13:43:20</time>
      </trkpt>
      <trkpt lat="40.46628" lon="-2.01468">
        <ele>1457.6</ele>
        <time>2021-10-09 13:43:21</time>
      </trkpt>
      <trkpt lat="40.46635" lon="-2.01467">
        <ele>1457.6</ele>
        <time>2021-10-09 13:43:22</time>
      </trkpt>
      <trkpt lat="40.46641" lon="-2.01464">
        <ele>1457.2</ele>
        <time>2021-10-09 13:43:23</time>
      </trkpt>
      <trkpt lat="40.46645" lon="-2.0146">
        <ele>1456.8</ele>
        <time>2021-10-09 13:43:24</time>
      </trkpt>
      <trkpt lat="40.46648" lon="-2.01454">
        <ele>1456.4</ele>
        <time>2021-10-09 13:43:25</time>
      </trkpt>
      <trkpt lat="40.46649" lon="-2.01449">
        <ele>1456</ele>
        <time>2021-10-09 13:43:26</time>
      </trkpt>
      <trkpt lat="40.46648" lon="-2.01444">
        <ele>1455.8</ele>
        <time>2021-10-09 13:43:27</time>
      </trkpt>
      <trkpt lat="40.46647" lon="-2.01441">
        <ele>1455.8</ele>
        <time>2021-10-09 13:43:28</time>
      </trkpt>
      <trkpt lat="40.46646" lon="-2.01436">
        <ele>1455.6</ele>
        <time>2021-10-09 13:43:29</time>
      </trkpt>
      <trkpt lat="40.46644" lon="-2.01431">
        <ele>1455.6</ele>
        <time>2021-10-09 13:43:30</time>
      </trkpt>
      <trkpt lat="40.46642" lon="-2.01426">
        <ele>1455.6</ele>
        <time>2021-10-09 13:43:31</time>
      </trkpt>
      <trkpt lat="40.46642" lon="-2.01421">
        <ele>1455.8</ele>
        <time>2021-10-09 13:43:32</time>
      </trkpt>
      <trkpt lat="40.4664" lon="-2.01416">
        <ele>1455.8</ele>
        <time>2021-10-09 13:43:33</time>
      </trkpt>
      <trkpt lat="40.4664" lon="-2.01409">
        <ele>1455.8</ele>
        <time>2021-10-09 13:43:34</time>
      </trkpt>
      <trkpt lat="40.46639" lon="-2.01404">
        <ele>1455.8</ele>
        <time>2021-10-09 13:43:35</time>
      </trkpt>
      <trkpt lat="40.46637" lon="-2.01398">
        <ele>1455.8</ele>
        <time>2021-10-09 13:43:36</time>
      </trkpt>
      <trkpt lat="40.46636" lon="-2.01393">
        <ele>1455.8</ele>
        <time>2021-10-09 13:43:37</time>
      </trkpt>
      <trkpt lat="40.46635" lon="-2.01387">
        <ele>1455.8</ele>
        <time>2021-10-09 13:43:38</time>
      </trkpt>
      <trkpt lat="40.46634" lon="-2.01382">
        <ele>1455.8</ele>
        <time>2021-10-09 13:43:39</time>
      </trkpt>
      <trkpt lat="40.46632" lon="-2.01377">
        <ele>1455.8</ele>
        <time>2021-10-09 13:43:40</time>
      </trkpt>
      <trkpt lat="40.46631" lon="-2.01372">
        <ele>1455.8</ele>
        <time>2021-10-09 13:43:41</time>
      </trkpt>
      <trkpt lat="40.4663" lon="-2.01366">
        <ele>1455.8</ele>
        <time>2021-10-09 13:43:42</time>
      </trkpt>
      <trkpt lat="40.46628" lon="-2.0136">
        <ele>1455.8</ele>
        <time>2021-10-09 13:43:43</time>
      </trkpt>
      <trkpt lat="40.46627" lon="-2.01354">
        <ele>1455.8</ele>
        <time>2021-10-09 13:43:44</time>
      </trkpt>
      <trkpt lat="40.46625" lon="-2.01349">
        <ele>1455.8</ele>
        <time>2021-10-09 13:43:45</time>
      </trkpt>
      <trkpt lat="40.46623" lon="-2.01343">
        <ele>1456</ele>
        <time>2021-10-09 13:43:46</time>
      </trkpt>
      <trkpt lat="40.46622" lon="-2.01337">
        <ele>1456</ele>
        <time>2021-10-09 13:43:47</time>
      </trkpt>
      <trkpt lat="40.4662" lon="-2.0133">
        <ele>1456</ele>
        <time>2021-10-09 13:43:48</time>
      </trkpt>
      <trkpt lat="40.46618" lon="-2.01324">
        <ele>1456</ele>
        <time>2021-10-09 13:43:49</time>
      </trkpt>
      <trkpt lat="40.46616" lon="-2.01318">
        <ele>1456</ele>
        <time>2021-10-09 13:43:50</time>
      </trkpt>
      <trkpt lat="40.46613" lon="-2.01313">
        <ele>1456.2</ele>
        <time>2021-10-09 13:43:51</time>
      </trkpt>
      <trkpt lat="40.46612" lon="-2.01307">
        <ele>1456.2</ele>
        <time>2021-10-09 13:43:52</time>
      </trkpt>
      <trkpt lat="40.4661" lon="-2.01301">
        <ele>1456.2</ele>
        <time>2021-10-09 13:43:53</time>
      </trkpt>
      <trkpt lat="40.46607" lon="-2.01295">
        <ele>1456.2</ele>
        <time>2021-10-09 13:43:54</time>
      </trkpt>
      <trkpt lat="40.46605" lon="-2.01289">
        <ele>1456.2</ele>
        <time>2021-10-09 13:43:55</time>
      </trkpt>
      <trkpt lat="40.46602" lon="-2.01283">
        <ele>1456.2</ele>
        <time>2021-10-09 13:43:56</time>
      </trkpt>
      <trkpt lat="40.46599" lon="-2.01276">
        <ele>1456.2</ele>
        <time>2021-10-09 13:43:57</time>
      </trkpt>
      <trkpt lat="40.46597" lon="-2.0127">
        <ele>1456.4</ele>
        <time>2021-10-09 13:43:58</time>
      </trkpt>
      <trkpt lat="40.46595" lon="-2.01263">
        <ele>1456.4</ele>
        <time>2021-10-09 13:43:59</time>
      </trkpt>
      <trkpt lat="40.46592" lon="-2.01258">
        <ele>1456.4</ele>
        <time>2021-10-09 13:44:00</time>
      </trkpt>
      <trkpt lat="40.4659" lon="-2.01251">
        <ele>1456.4</ele>
        <time>2021-10-09 13:44:01</time>
      </trkpt>
      <trkpt lat="40.46588" lon="-2.01245">
        <ele>1456.4</ele>
        <time>2021-10-09 13:44:02</time>
      </trkpt>
      <trkpt lat="40.46586" lon="-2.01238">
        <ele>1456.4</ele>
        <time>2021-10-09 13:44:03</time>
      </trkpt>
      <trkpt lat="40.46583" lon="-2.01232">
        <ele>1456.4</ele>
        <time>2021-10-09 13:44:04</time>
      </trkpt>
      <trkpt lat="40.46581" lon="-2.01226">
        <ele>1456.4</ele>
        <time>2021-10-09 13:44:05</time>
      </trkpt>
      <trkpt lat="40.46578" lon="-2.01219">
        <ele>1456.4</ele>
        <time>2021-10-09 13:44:06</time>
      </trkpt>
      <trkpt lat="40.46576" lon="-2.01213">
        <ele>1456.2</ele>
        <time>2021-10-09 13:44:07</time>
      </trkpt>
      <trkpt lat="40.46574" lon="-2.01206">
        <ele>1456.2</ele>
        <time>2021-10-09 13:44:08</time>
      </trkpt>
      <trkpt lat="40.46571" lon="-2.01198">
        <ele>1456.2</ele>
        <time>2021-10-09 13:44:09</time>
      </trkpt>
      <trkpt lat="40.46568" lon="-2.01191">
        <ele>1456</ele>
        <time>2021-10-09 13:44:10</time>
      </trkpt>
      <trkpt lat="40.46566" lon="-2.01183">
        <ele>1456</ele>
        <time>2021-10-09 13:44:11</time>
      </trkpt>
      <trkpt lat="40.46562" lon="-2.01176">
        <ele>1456</ele>
        <time>2021-10-09 13:44:12</time>
      </trkpt>
      <trkpt lat="40.46559" lon="-2.01168">
        <ele>1456</ele>
        <time>2021-10-09 13:44:13</time>
      </trkpt>
      <trkpt lat="40.46556" lon="-2.01161">
        <ele>1456</ele>
        <time>2021-10-09 13:44:14</time>
      </trkpt>
      <trkpt lat="40.46552" lon="-2.01154">
        <ele>1455.6</ele>
        <time>2021-10-09 13:44:15</time>
      </trkpt>
      <trkpt lat="40.4655" lon="-2.01146">
        <ele>1455.6</ele>
        <time>2021-10-09 13:44:16</time>
      </trkpt>
      <trkpt lat="40.46546" lon="-2.01138">
        <ele>1455.6</ele>
        <time>2021-10-09 13:44:17</time>
      </trkpt>
      <trkpt lat="40.46544" lon="-2.01131">
        <ele>1455.6</ele>
        <time>2021-10-09 13:44:18</time>
      </trkpt>
      <trkpt lat="40.4654" lon="-2.01124">
        <ele>1456</ele>
        <time>2021-10-09 13:44:19</time>
      </trkpt>
      <trkpt lat="40.46537" lon="-2.01116">
        <ele>1456</ele>
        <time>2021-10-09 13:44:20</time>
      </trkpt>
      <trkpt lat="40.46535" lon="-2.01108">
        <ele>1456</ele>
        <time>2021-10-09 13:44:21</time>
      </trkpt>
      <trkpt lat="40.46531" lon="-2.011">
        <ele>1456</ele>
        <time>2021-10-09 13:44:22</time>
      </trkpt>
      <trkpt lat="40.46528" lon="-2.01093">
        <ele>1456</ele>
        <time>2021-10-09 13:44:23</time>
      </trkpt>
      <trkpt lat="40.46525" lon="-2.01085">
        <ele>1456</ele>
        <time>2021-10-09 13:44:24</time>
      </trkpt>
      <trkpt lat="40.46522" lon="-2.01077">
        <ele>1456</ele>
        <time>2021-10-09 13:44:25</time>
      </trkpt>
      <trkpt lat="40.46519" lon="-2.01069">
        <ele>1455.6</ele>
        <time>2021-10-09 13:44:26</time>
      </trkpt>
      <trkpt lat="40.46516" lon="-2.0106">
        <ele>1455.4</ele>
        <time>2021-10-09 13:44:27</time>
      </trkpt>
      <trkpt lat="40.46513" lon="-2.01052">
        <ele>1455.4</ele>
        <time>2021-10-09 13:44:28</time>
      </trkpt>
      <trkpt lat="40.46511" lon="-2.01043">
        <ele>1455.4</ele>
        <time>2021-10-09 13:44:29</time>
      </trkpt>
      <trkpt lat="40.46508" lon="-2.01034">
        <ele>1455.4</ele>
        <time>2021-10-09 13:44:30</time>
      </trkpt>
      <trkpt lat="40.46506" lon="-2.01026">
        <ele>1455.4</ele>
        <time>2021-10-09 13:44:31</time>
      </trkpt>
      <trkpt lat="40.46503" lon="-2.01017">
        <ele>1455.2</ele>
        <time>2021-10-09 13:44:32</time>
      </trkpt>
      <trkpt lat="40.46501" lon="-2.01008">
        <ele>1455</ele>
        <time>2021-10-09 13:44:33</time>
      </trkpt>
      <trkpt lat="40.46499" lon="-2.00999">
        <ele>1455</ele>
        <time>2021-10-09 13:44:34</time>
      </trkpt>
      <trkpt lat="40.46497" lon="-2.00991">
        <ele>1454.4</ele>
        <time>2021-10-09 13:44:35</time>
      </trkpt>
      <trkpt lat="40.46494" lon="-2.00982">
        <ele>1454.4</ele>
        <time>2021-10-09 13:44:36</time>
      </trkpt>
      <trkpt lat="40.46492" lon="-2.00972">
        <ele>1454.4</ele>
        <time>2021-10-09 13:44:37</time>
      </trkpt>
      <trkpt lat="40.46488" lon="-2.00963">
        <ele>1454.2</ele>
        <time>2021-10-09 13:44:38</time>
      </trkpt>
      <trkpt lat="40.46485" lon="-2.00954">
        <ele>1453.8</ele>
        <time>2021-10-09 13:44:39</time>
      </trkpt>
      <trkpt lat="40.46481" lon="-2.00944">
        <ele>1453.4</ele>
        <time>2021-10-09 13:44:40</time>
      </trkpt>
      <trkpt lat="40.46477" lon="-2.00934">
        <ele>1452.8</ele>
        <time>2021-10-09 13:44:41</time>
      </trkpt>
      <trkpt lat="40.46473" lon="-2.00925">
        <ele>1452.2</ele>
        <time>2021-10-09 13:44:42</time>
      </trkpt>
      <trkpt lat="40.46469" lon="-2.00916">
        <ele>1451.8</ele>
        <time>2021-10-09 13:44:43</time>
      </trkpt>
      <trkpt lat="40.46465" lon="-2.00906">
        <ele>1451.4</ele>
        <time>2021-10-09 13:44:44</time>
      </trkpt>
      <trkpt lat="40.46461" lon="-2.00896">
        <ele>1450.8</ele>
        <time>2021-10-09 13:44:45</time>
      </trkpt>
      <trkpt lat="40.46457" lon="-2.00887">
        <ele>1450.6</ele>
        <time>2021-10-09 13:44:46</time>
      </trkpt>
      <trkpt lat="40.46452" lon="-2.00876">
        <ele>1450.2</ele>
        <time>2021-10-09 13:44:47</time>
      </trkpt>
      <trkpt lat="40.46448" lon="-2.00866">
        <ele>1450.2</ele>
        <time>2021-10-09 13:44:48</time>
      </trkpt>
      <trkpt lat="40.46444" lon="-2.00856">
        <ele>1450.8</ele>
        <time>2021-10-09 13:44:49</time>
      </trkpt>
      <trkpt lat="40.4644" lon="-2.00846">
        <ele>1450.6</ele>
        <time>2021-10-09 13:44:50</time>
      </trkpt>
      <trkpt lat="40.46436" lon="-2.00836">
        <ele>1450.2</ele>
        <time>2021-10-09 13:44:51</time>
      </trkpt>
      <trkpt lat="40.46432" lon="-2.00826">
        <ele>1450.2</ele>
        <time>2021-10-09 13:44:52</time>
      </trkpt>
      <trkpt lat="40.46429" lon="-2.00816">
        <ele>1449.8</ele>
        <time>2021-10-09 13:44:53</time>
      </trkpt>
      <trkpt lat="40.46425" lon="-2.00806">
        <ele>1449.8</ele>
        <time>2021-10-09 13:44:54</time>
      </trkpt>
      <trkpt lat="40.46423" lon="-2.00796">
        <ele>1449.6</ele>
        <time>2021-10-09 13:44:55</time>
      </trkpt>
      <trkpt lat="40.46418" lon="-2.00786">
        <ele>1449.6</ele>
        <time>2021-10-09 13:44:56</time>
      </trkpt>
      <trkpt lat="40.46414" lon="-2.00777">
        <ele>1449.4</ele>
        <time>2021-10-09 13:44:57</time>
      </trkpt>
      <trkpt lat="40.4641" lon="-2.00768">
        <ele>1449.4</ele>
        <time>2021-10-09 13:44:58</time>
      </trkpt>
      <trkpt lat="40.46405" lon="-2.00759">
        <ele>1449</ele>
        <time>2021-10-09 13:44:59</time>
      </trkpt>
      <trkpt lat="40.46401" lon="-2.0075">
        <ele>1449</ele>
        <time>2021-10-09 13:45:00</time>
      </trkpt>
      <trkpt lat="40.46396" lon="-2.00741">
        <ele>1449</ele>
        <time>2021-10-09 13:45:01</time>
      </trkpt>
      <trkpt lat="40.46391" lon="-2.00732">
        <ele>1448.6</ele>
        <time>2021-10-09 13:45:02</time>
      </trkpt>
      <trkpt lat="40.46386" lon="-2.00723">
        <ele>1448.6</ele>
        <time>2021-10-09 13:45:03</time>
      </trkpt>
      <trkpt lat="40.4638" lon="-2.00714">
        <ele>1448.4</ele>
        <time>2021-10-09 13:45:04</time>
      </trkpt>
      <trkpt lat="40.46374" lon="-2.00705">
        <ele>1448</ele>
        <time>2021-10-09 13:45:05</time>
      </trkpt>
      <trkpt lat="40.46368" lon="-2.00699">
        <ele>1447.6</ele>
        <time>2021-10-09 13:45:06</time>
      </trkpt>
      <trkpt lat="40.46361" lon="-2.00692">
        <ele>1447.4</ele>
        <time>2021-10-09 13:45:07</time>
      </trkpt>
      <trkpt lat="40.46353" lon="-2.00686">
        <ele>1447.2</ele>
        <time>2021-10-09 13:45:08</time>
      </trkpt>
      <trkpt lat="40.46345" lon="-2.00682">
        <ele>1446.6</ele>
        <time>2021-10-09 13:45:09</time>
      </trkpt>
      <trkpt lat="40.46337" lon="-2.00678">
        <ele>1446.4</ele>
        <time>2021-10-09 13:45:10</time>
      </trkpt>
      <trkpt lat="40.46329" lon="-2.00675">
        <ele>1446.4</ele>
        <time>2021-10-09 13:45:11</time>
      </trkpt>
      <trkpt lat="40.4632" lon="-2.00671">
        <ele>1446</ele>
        <time>2021-10-09 13:45:12</time>
      </trkpt>
      <trkpt lat="40.46313" lon="-2.00669">
        <ele>1445.8</ele>
        <time>2021-10-09 13:45:13</time>
      </trkpt>
      <trkpt lat="40.46305" lon="-2.00665">
        <ele>1445.8</ele>
        <time>2021-10-09 13:45:14</time>
      </trkpt>
      <trkpt lat="40.46297" lon="-2.00661">
        <ele>1445.6</ele>
        <time>2021-10-09 13:45:15</time>
      </trkpt>
      <trkpt lat="40.46289" lon="-2.00656">
        <ele>1445.6</ele>
        <time>2021-10-09 13:45:16</time>
      </trkpt>
      <trkpt lat="40.46282" lon="-2.0065">
        <ele>1445.6</ele>
        <time>2021-10-09 13:45:17</time>
      </trkpt>
      <trkpt lat="40.46274" lon="-2.00646">
        <ele>1445.4</ele>
        <time>2021-10-09 13:45:18</time>
      </trkpt>
      <trkpt lat="40.46267" lon="-2.00642">
        <ele>1445.4</ele>
        <time>2021-10-09 13:45:19</time>
      </trkpt>
      <trkpt lat="40.4626" lon="-2.00637">
        <ele>1445.4</ele>
        <time>2021-10-09 13:45:20</time>
      </trkpt>
      <trkpt lat="40.46254" lon="-2.00633">
        <ele>1445.4</ele>
        <time>2021-10-09 13:45:21</time>
      </trkpt>
      <trkpt lat="40.46249" lon="-2.00627">
        <ele>1445.4</ele>
        <time>2021-10-09 13:45:22</time>
      </trkpt>
      <trkpt lat="40.46244" lon="-2.00622">
        <ele>1445.4</ele>
        <time>2021-10-09 13:45:23</time>
      </trkpt>
      <trkpt lat="40.46238" lon="-2.00615">
        <ele>1445</ele>
        <time>2021-10-09 13:45:24</time>
      </trkpt>
      <trkpt lat="40.46235" lon="-2.00611">
        <ele>1445</ele>
        <time>2021-10-09 13:45:25</time>
      </trkpt>
      <trkpt lat="40.4623" lon="-2.00604">
        <ele>1445</ele>
        <time>2021-10-09 13:45:26</time>
      </trkpt>
      <trkpt lat="40.46226" lon="-2.006">
        <ele>1445</ele>
        <time>2021-10-09 13:45:27</time>
      </trkpt>
      <trkpt lat="40.46221" lon="-2.00595">
        <ele>1445.4</ele>
        <time>2021-10-09 13:45:28</time>
      </trkpt>
      <trkpt lat="40.46217" lon="-2.0059">
        <ele>1445.4</ele>
        <time>2021-10-09 13:45:29</time>
      </trkpt>
      <trkpt lat="40.46212" lon="-2.00585">
        <ele>1445.4</ele>
        <time>2021-10-09 13:45:30</time>
      </trkpt>
      <trkpt lat="40.46208" lon="-2.00579">
        <ele>1445.4</ele>
        <time>2021-10-09 13:45:31</time>
      </trkpt>
      <trkpt lat="40.46204" lon="-2.00574">
        <ele>1445.4</ele>
        <time>2021-10-09 13:45:32</time>
      </trkpt>
      <trkpt lat="40.46199" lon="-2.00568">
        <ele>1445.4</ele>
        <time>2021-10-09 13:45:33</time>
      </trkpt>
      <trkpt lat="40.46194" lon="-2.00562">
        <ele>1445.4</ele>
        <time>2021-10-09 13:45:34</time>
      </trkpt>
      <trkpt lat="40.4619" lon="-2.00556">
        <ele>1445.4</ele>
        <time>2021-10-09 13:45:35</time>
      </trkpt>
      <trkpt lat="40.46185" lon="-2.00549">
        <ele>1445.4</ele>
        <time>2021-10-09 13:45:36</time>
      </trkpt>
      <trkpt lat="40.46182" lon="-2.00543">
        <ele>1445.8</ele>
        <time>2021-10-09 13:45:37</time>
      </trkpt>
      <trkpt lat="40.46177" lon="-2.00537">
        <ele>1445.8</ele>
        <time>2021-10-09 13:45:38</time>
      </trkpt>
      <trkpt lat="40.46174" lon="-2.00529">
        <ele>1445.4</ele>
        <time>2021-10-09 13:45:39</time>
      </trkpt>
      <trkpt lat="40.46169" lon="-2.00522">
        <ele>1445.4</ele>
        <time>2021-10-09 13:45:40</time>
      </trkpt>
      <trkpt lat="40.46167" lon="-2.00514">
        <ele>1445</ele>
        <time>2021-10-09 13:45:41</time>
      </trkpt>
      <trkpt lat="40.46163" lon="-2.00507">
        <ele>1445</ele>
        <time>2021-10-09 13:45:42</time>
      </trkpt>
      <trkpt lat="40.4616" lon="-2.00498">
        <ele>1444.8</ele>
        <time>2021-10-09 13:45:43</time>
      </trkpt>
      <trkpt lat="40.46158" lon="-2.00491">
        <ele>1444.8</ele>
        <time>2021-10-09 13:45:44</time>
      </trkpt>
      <trkpt lat="40.46157" lon="-2.00486">
        <ele>1444.8</ele>
        <time>2021-10-09 13:45:45</time>
      </trkpt>
      <trkpt lat="40.46156" lon="-2.0048">
        <ele>1444.8</ele>
        <time>2021-10-09 13:45:46</time>
      </trkpt>
      <trkpt lat="40.46156" lon="-2.00475">
        <ele>1444.8</ele>
        <time>2021-10-09 13:45:47</time>
      </trkpt>
      <trkpt lat="40.46158" lon="-2.00473">
        <ele>1444.8</ele>
        <time>2021-10-09 13:45:48</time>
      </trkpt>
      <trkpt lat="40.46158" lon="-2.0047">
        <ele>1444.6</ele>
        <time>2021-10-09 13:45:49</time>
      </trkpt>
      <trkpt lat="40.46156" lon="-2.00467">
        <ele>1444.6</ele>
        <time>2021-10-09 13:45:50</time>
      </trkpt>
      <trkpt lat="40.46153" lon="-2.00467">
        <ele>1444.6</ele>
        <time>2021-10-09 13:45:51</time>
      </trkpt>
      <trkpt lat="40.4615" lon="-2.00465">
        <ele>1444.6</ele>
        <time>2021-10-09 13:45:52</time>
      </trkpt>
      <trkpt lat="40.46147" lon="-2.00463">
        <ele>1444.8</ele>
        <time>2021-10-09 13:45:53</time>
      </trkpt>
      <trkpt lat="40.46144" lon="-2.00461">
        <ele>1444.8</ele>
        <time>2021-10-09 13:45:54</time>
      </trkpt>
      <trkpt lat="40.46141" lon="-2.00459">
        <ele>1444.8</ele>
        <time>2021-10-09 13:45:55</time>
      </trkpt>
      <trkpt lat="40.46137" lon="-2.00457">
        <ele>1444.8</ele>
        <time>2021-10-09 13:45:56</time>
      </trkpt>
      <trkpt lat="40.46133" lon="-2.00456">
        <ele>1444.8</ele>
        <time>2021-10-09 13:45:57</time>
      </trkpt>
      <trkpt lat="40.46129" lon="-2.00454">
        <ele>1444.8</ele>
        <time>2021-10-09 13:45:58</time>
      </trkpt>
      <trkpt lat="40.46125" lon="-2.00453">
        <ele>1445.2</ele>
        <time>2021-10-09 13:45:59</time>
      </trkpt>
      <trkpt lat="40.46121" lon="-2.00452">
        <ele>1445.2</ele>
        <time>2021-10-09 13:46:00</time>
      </trkpt>
      <trkpt lat="40.46117" lon="-2.00452">
        <ele>1445.2</ele>
        <time>2021-10-09 13:46:01</time>
      </trkpt>
      <trkpt lat="40.46113" lon="-2.00452">
        <ele>1445.2</ele>
        <time>2021-10-09 13:46:02</time>
      </trkpt>
      <trkpt lat="40.4611" lon="-2.00453">
        <ele>1445.4</ele>
        <time>2021-10-09 13:46:03</time>
      </trkpt>
      <trkpt lat="40.46106" lon="-2.00455">
        <ele>1445.4</ele>
        <time>2021-10-09 13:46:04</time>
      </trkpt>
      <trkpt lat="40.46103" lon="-2.00457">
        <ele>1445.4</ele>
        <time>2021-10-09 13:46:05</time>
      </trkpt>
      <trkpt lat="40.461" lon="-2.0046">
        <ele>1446</ele>
        <time>2021-10-09 13:46:06</time>
      </trkpt>
      <trkpt lat="40.46098" lon="-2.00464">
        <ele>1446</ele>
        <time>2021-10-09 13:46:07</time>
      </trkpt>
      <trkpt lat="40.46096" lon="-2.00468">
        <ele>1445.8</ele>
        <time>2021-10-09 13:46:08</time>
      </trkpt>
      <trkpt lat="40.46095" lon="-2.00472">
        <ele>1446.4</ele>
        <time>2021-10-09 13:46:09</time>
      </trkpt>
      <trkpt lat="40.46094" lon="-2.00477">
        <ele>1446.4</ele>
        <time>2021-10-09 13:46:10</time>
      </trkpt>
      <trkpt lat="40.46093" lon="-2.00481">
        <ele>1446.4</ele>
        <time>2021-10-09 13:46:11</time>
      </trkpt>
      <trkpt lat="40.46093" lon="-2.00486">
        <ele>1446.4</ele>
        <time>2021-10-09 13:46:12</time>
      </trkpt>
      <trkpt lat="40.46093" lon="-2.0049">
        <ele>1446.4</ele>
        <time>2021-10-09 13:46:13</time>
      </trkpt>
      <trkpt lat="40.46094" lon="-2.00494">
        <ele>1446.4</ele>
        <time>2021-10-09 13:46:14</time>
      </trkpt>
      <trkpt lat="40.46094" lon="-2.00498">
        <ele>1446</ele>
        <time>2021-10-09 13:46:15</time>
      </trkpt>
      <trkpt lat="40.46094" lon="-2.00502">
        <ele>1446.4</ele>
        <time>2021-10-09 13:46:16</time>
      </trkpt>
      <trkpt lat="40.46093" lon="-2.00506">
        <ele>1446.4</ele>
        <time>2021-10-09 13:46:17</time>
      </trkpt>
      <trkpt lat="40.46093" lon="-2.0051">
        <ele>1447.2</ele>
        <time>2021-10-09 13:46:18</time>
      </trkpt>
      <trkpt lat="40.46093" lon="-2.00514">
        <ele>1447</ele>
        <time>2021-10-09 13:46:19</time>
      </trkpt>
      <trkpt lat="40.46093" lon="-2.00518">
        <ele>1447</ele>
        <time>2021-10-09 13:46:20</time>
      </trkpt>
      <trkpt lat="40.46093" lon="-2.0052">
        <ele>1447</ele>
        <time>2021-10-09 13:46:21</time>
      </trkpt>
      <trkpt lat="40.46092" lon="-2.00524">
        <ele>1446.6</ele>
        <time>2021-10-09 13:46:22</time>
      </trkpt>
      <trkpt lat="40.46092" lon="-2.00528">
        <ele>1446.6</ele>
        <time>2021-10-09 13:46:23</time>
      </trkpt>
      <trkpt lat="40.46091" lon="-2.00532">
        <ele>1447</ele>
        <time>2021-10-09 13:46:24</time>
      </trkpt>
      <trkpt lat="40.46091" lon="-2.00536">
        <ele>1447</ele>
        <time>2021-10-09 13:46:25</time>
      </trkpt>
      <trkpt lat="40.46091" lon="-2.0054">
        <ele>1447.2</ele>
        <time>2021-10-09 13:46:26</time>
      </trkpt>
      <trkpt lat="40.4609" lon="-2.00544">
        <ele>1447.2</ele>
        <time>2021-10-09 13:46:27</time>
      </trkpt>
      <trkpt lat="40.46089" lon="-2.00548">
        <ele>1447.2</ele>
        <time>2021-10-09 13:46:28</time>
      </trkpt>
      <trkpt lat="40.46088" lon="-2.00552">
        <ele>1447.6</ele>
        <time>2021-10-09 13:46:29</time>
      </trkpt>
      <trkpt lat="40.46087" lon="-2.00555">
        <ele>1447.6</ele>
        <time>2021-10-09 13:46:30</time>
      </trkpt>
      <trkpt lat="40.46086" lon="-2.00558">
        <ele>1447.4</ele>
        <time>2021-10-09 13:46:31</time>
      </trkpt>
      <trkpt lat="40.46085" lon="-2.00562">
        <ele>1447.4</ele>
        <time>2021-10-09 13:46:32</time>
      </trkpt>
      <trkpt lat="40.46083" lon="-2.00566">
        <ele>1447.4</ele>
        <time>2021-10-09 13:46:33</time>
      </trkpt>
      <trkpt lat="40.46081" lon="-2.00569">
        <ele>1447.4</ele>
        <time>2021-10-09 13:46:34</time>
      </trkpt>
      <trkpt lat="40.46079" lon="-2.00572">
        <ele>1447.6</ele>
        <time>2021-10-09 13:46:35</time>
      </trkpt>
      <trkpt lat="40.46076" lon="-2.00575">
        <ele>1447.6</ele>
        <time>2021-10-09 13:46:36</time>
      </trkpt>
      <trkpt lat="40.46074" lon="-2.00578">
        <ele>1448</ele>
        <time>2021-10-09 13:46:37</time>
      </trkpt>
      <trkpt lat="40.46071" lon="-2.00581">
        <ele>1448</ele>
        <time>2021-10-09 13:46:38</time>
      </trkpt>
      <trkpt lat="40.46068" lon="-2.00583">
        <ele>1448.2</ele>
        <time>2021-10-09 13:46:39</time>
      </trkpt>
      <trkpt lat="40.46066" lon="-2.00586">
        <ele>1448.2</ele>
        <time>2021-10-09 13:46:40</time>
      </trkpt>
      <trkpt lat="40.46064" lon="-2.00588">
        <ele>1448.2</ele>
        <time>2021-10-09 13:46:41</time>
      </trkpt>
      <trkpt lat="40.46061" lon="-2.00591">
        <ele>1448.4</ele>
        <time>2021-10-09 13:46:42</time>
      </trkpt>
      <trkpt lat="40.46059" lon="-2.00593">
        <ele>1448.4</ele>
        <time>2021-10-09 13:46:43</time>
      </trkpt>
      <trkpt lat="40.46056" lon="-2.00596">
        <ele>1448.6</ele>
        <time>2021-10-09 13:46:44</time>
      </trkpt>
      <trkpt lat="40.46054" lon="-2.00599">
        <ele>1448.6</ele>
        <time>2021-10-09 13:46:45</time>
      </trkpt>
      <trkpt lat="40.46052" lon="-2.00602">
        <ele>1448.6</ele>
        <time>2021-10-09 13:46:46</time>
      </trkpt>
      <trkpt lat="40.4605" lon="-2.00606">
        <ele>1448.6</ele>
        <time>2021-10-09 13:46:47</time>
      </trkpt>
      <trkpt lat="40.46048" lon="-2.00609">
        <ele>1448.6</ele>
        <time>2021-10-09 13:46:48</time>
      </trkpt>
      <trkpt lat="40.46046" lon="-2.00611">
        <ele>1449</ele>
        <time>2021-10-09 13:46:49</time>
      </trkpt>
      <trkpt lat="40.46043" lon="-2.00615">
        <ele>1449.2</ele>
        <time>2021-10-09 13:46:50</time>
      </trkpt>
      <trkpt lat="40.46041" lon="-2.00618">
        <ele>1449.2</ele>
        <time>2021-10-09 13:46:51</time>
      </trkpt>
      <trkpt lat="40.4604" lon="-2.00621">
        <ele>1449.2</ele>
        <time>2021-10-09 13:46:52</time>
      </trkpt>
      <trkpt lat="40.46038" lon="-2.00625">
        <ele>1449.2</ele>
        <time>2021-10-09 13:46:53</time>
      </trkpt>
      <trkpt lat="40.46036" lon="-2.00628">
        <ele>1449.2</ele>
        <time>2021-10-09 13:46:54</time>
      </trkpt>
      <trkpt lat="40.46034" lon="-2.0063">
        <ele>1449.2</ele>
        <time>2021-10-09 13:46:55</time>
      </trkpt>
      <trkpt lat="40.46032" lon="-2.00634">
        <ele>1449.2</ele>
        <time>2021-10-09 13:46:56</time>
      </trkpt>
      <trkpt lat="40.4603" lon="-2.00637">
        <ele>1449.2</ele>
        <time>2021-10-09 13:46:57</time>
      </trkpt>
      <trkpt lat="40.46028" lon="-2.0064">
        <ele>1449.2</ele>
        <time>2021-10-09 13:46:58</time>
      </trkpt>
      <trkpt lat="40.46026" lon="-2.00643">
        <ele>1449.2</ele>
        <time>2021-10-09 13:46:59</time>
      </trkpt>
      <trkpt lat="40.46025" lon="-2.00645">
        <ele>1449.2</ele>
        <time>2021-10-09 13:47:00</time>
      </trkpt>
      <trkpt lat="40.46023" lon="-2.00648">
        <ele>1449.2</ele>
        <time>2021-10-09 13:47:01</time>
      </trkpt>
      <trkpt lat="40.46022" lon="-2.00651">
        <ele>1449.2</ele>
        <time>2021-10-09 13:47:02</time>
      </trkpt>
      <trkpt lat="40.4602" lon="-2.00654">
        <ele>1449.2</ele>
        <time>2021-10-09 13:47:03</time>
      </trkpt>
      <trkpt lat="40.46018" lon="-2.00657">
        <ele>1449.2</ele>
        <time>2021-10-09 13:47:04</time>
      </trkpt>
      <trkpt lat="40.46017" lon="-2.00661">
        <ele>1449.4</ele>
        <time>2021-10-09 13:47:05</time>
      </trkpt>
      <trkpt lat="40.46015" lon="-2.00663">
        <ele>1449.4</ele>
        <time>2021-10-09 13:47:06</time>
      </trkpt>
      <trkpt lat="40.46013" lon="-2.00667">
        <ele>1449.4</ele>
        <time>2021-10-09 13:47:07</time>
      </trkpt>
      <trkpt lat="40.46012" lon="-2.0067">
        <ele>1449.8</ele>
        <time>2021-10-09 13:47:08</time>
      </trkpt>
      <trkpt lat="40.4601" lon="-2.00673">
        <ele>1449.8</ele>
        <time>2021-10-09 13:47:09</time>
      </trkpt>
      <trkpt lat="40.46009" lon="-2.00675">
        <ele>1450</ele>
        <time>2021-10-09 13:47:10</time>
      </trkpt>
      <trkpt lat="40.46008" lon="-2.00679">
        <ele>1450</ele>
        <time>2021-10-09 13:47:11</time>
      </trkpt>
      <trkpt lat="40.46006" lon="-2.00683">
        <ele>1450.2</ele>
        <time>2021-10-09 13:47:12</time>
      </trkpt>
      <trkpt lat="40.46005" lon="-2.00686">
        <ele>1450.2</ele>
        <time>2021-10-09 13:47:13</time>
      </trkpt>
      <trkpt lat="40.46004" lon="-2.00689">
        <ele>1450.2</ele>
        <time>2021-10-09 13:47:14</time>
      </trkpt>
      <trkpt lat="40.46003" lon="-2.00692">
        <ele>1450.2</ele>
        <time>2021-10-09 13:47:15</time>
      </trkpt>
      <trkpt lat="40.46002" lon="-2.00695">
        <ele>1450.2</ele>
        <time>2021-10-09 13:47:16</time>
      </trkpt>
      <trkpt lat="40.46001" lon="-2.00698">
        <ele>1450.2</ele>
        <time>2021-10-09 13:47:17</time>
      </trkpt>
      <trkpt lat="40.46" lon="-2.00699">
        <ele>1450.4</ele>
        <time>2021-10-09 13:47:18</time>
      </trkpt>
      <trkpt lat="40.45999" lon="-2.00702">
        <ele>1450.4</ele>
        <time>2021-10-09 13:47:19</time>
      </trkpt>
      <trkpt lat="40.45998" lon="-2.00705">
        <ele>1450.4</ele>
        <time>2021-10-09 13:47:20</time>
      </trkpt>
      <trkpt lat="40.45996" lon="-2.00708">
        <ele>1450.6</ele>
        <time>2021-10-09 13:47:21</time>
      </trkpt>
      <trkpt lat="40.45995" lon="-2.0071">
        <ele>1450.6</ele>
        <time>2021-10-09 13:47:22</time>
      </trkpt>
      <trkpt lat="40.45994" lon="-2.00713">
        <ele>1450.6</ele>
        <time>2021-10-09 13:47:23</time>
      </trkpt>
      <trkpt lat="40.45993" lon="-2.00715">
        <ele>1450.6</ele>
        <time>2021-10-09 13:47:24</time>
      </trkpt>
      <trkpt lat="40.45991" lon="-2.00718">
        <ele>1450.6</ele>
        <time>2021-10-09 13:47:25</time>
      </trkpt>
      <trkpt lat="40.4599" lon="-2.0072">
        <ele>1450.6</ele>
        <time>2021-10-09 13:47:26</time>
      </trkpt>
      <trkpt lat="40.45988" lon="-2.00721">
        <ele>1450.6</ele>
        <time>2021-10-09 13:47:27</time>
      </trkpt>
      <trkpt lat="40.45987" lon="-2.00723">
        <ele>1451</ele>
        <time>2021-10-09 13:47:28</time>
      </trkpt>
      <trkpt lat="40.45985" lon="-2.00725">
        <ele>1451</ele>
        <time>2021-10-09 13:47:29</time>
      </trkpt>
      <trkpt lat="40.45984" lon="-2.00728">
        <ele>1451</ele>
        <time>2021-10-09 13:47:30</time>
      </trkpt>
      <trkpt lat="40.45983" lon="-2.0073">
        <ele>1451</ele>
        <time>2021-10-09 13:47:31</time>
      </trkpt>
      <trkpt lat="40.45981" lon="-2.00733">
        <ele>1451</ele>
        <time>2021-10-09 13:47:32</time>
      </trkpt>
      <trkpt lat="40.4598" lon="-2.00737">
        <ele>1451</ele>
        <time>2021-10-09 13:47:33</time>
      </trkpt>
      <trkpt lat="40.45978" lon="-2.0074">
        <ele>1451</ele>
        <time>2021-10-09 13:47:34</time>
      </trkpt>
      <trkpt lat="40.45976" lon="-2.00743">
        <ele>1451</ele>
        <time>2021-10-09 13:47:35</time>
      </trkpt>
      <trkpt lat="40.45974" lon="-2.00745">
        <ele>1451.2</ele>
        <time>2021-10-09 13:47:36</time>
      </trkpt>
      <trkpt lat="40.45972" lon="-2.00748">
        <ele>1451.2</ele>
        <time>2021-10-09 13:47:37</time>
      </trkpt>
      <trkpt lat="40.4597" lon="-2.0075">
        <ele>1451.4</ele>
        <time>2021-10-09 13:47:38</time>
      </trkpt>
      <trkpt lat="40.45969" lon="-2.00752">
        <ele>1451.4</ele>
        <time>2021-10-09 13:47:39</time>
      </trkpt>
      <trkpt lat="40.45967" lon="-2.00756">
        <ele>1451.4</ele>
        <time>2021-10-09 13:47:40</time>
      </trkpt>
      <trkpt lat="40.45965" lon="-2.00758">
        <ele>1451.6</ele>
        <time>2021-10-09 13:47:41</time>
      </trkpt>
      <trkpt lat="40.45964" lon="-2.00761">
        <ele>1451.6</ele>
        <time>2021-10-09 13:47:42</time>
      </trkpt>
      <trkpt lat="40.45962" lon="-2.00763">
        <ele>1451.8</ele>
        <time>2021-10-09 13:47:43</time>
      </trkpt>
      <trkpt lat="40.45961" lon="-2.00765">
        <ele>1451.8</ele>
        <time>2021-10-09 13:47:44</time>
      </trkpt>
      <trkpt lat="40.45959" lon="-2.00767">
        <ele>1451.8</ele>
        <time>2021-10-09 13:47:45</time>
      </trkpt>
      <trkpt lat="40.45956" lon="-2.0077">
        <ele>1451.8</ele>
        <time>2021-10-09 13:47:46</time>
      </trkpt>
      <trkpt lat="40.45954" lon="-2.00773">
        <ele>1452.2</ele>
        <time>2021-10-09 13:47:47</time>
      </trkpt>
      <trkpt lat="40.45953" lon="-2.00776">
        <ele>1452.2</ele>
        <time>2021-10-09 13:47:48</time>
      </trkpt>
      <trkpt lat="40.45952" lon="-2.00778">
        <ele>1452.2</ele>
        <time>2021-10-09 13:47:49</time>
      </trkpt>
      <trkpt lat="40.4595" lon="-2.00779">
        <ele>1452.2</ele>
        <time>2021-10-09 13:47:50</time>
      </trkpt>
      <trkpt lat="40.45949" lon="-2.00781">
        <ele>1452.2</ele>
        <time>2021-10-09 13:47:51</time>
      </trkpt>
      <trkpt lat="40.45947" lon="-2.00783">
        <ele>1452.2</ele>
        <time>2021-10-09 13:47:52</time>
      </trkpt>
      <trkpt lat="40.45944" lon="-2.00785">
        <ele>1452.2</ele>
        <time>2021-10-09 13:47:53</time>
      </trkpt>
      <trkpt lat="40.45941" lon="-2.00788">
        <ele>1452.4</ele>
        <time>2021-10-09 13:47:54</time>
      </trkpt>
      <trkpt lat="40.45939" lon="-2.0079">
        <ele>1452.4</ele>
        <time>2021-10-09 13:47:55</time>
      </trkpt>
      <trkpt lat="40.45936" lon="-2.00792">
        <ele>1452.8</ele>
        <time>2021-10-09 13:47:56</time>
      </trkpt>
      <trkpt lat="40.45934" lon="-2.00795">
        <ele>1452.8</ele>
        <time>2021-10-09 13:47:57</time>
      </trkpt>
      <trkpt lat="40.45932" lon="-2.00798">
        <ele>1452.8</ele>
        <time>2021-10-09 13:47:58</time>
      </trkpt>
      <trkpt lat="40.4593" lon="-2.008">
        <ele>1452.8</ele>
        <time>2021-10-09 13:47:59</time>
      </trkpt>
      <trkpt lat="40.45927" lon="-2.00803">
        <ele>1452.8</ele>
        <time>2021-10-09 13:48:00</time>
      </trkpt>
      <trkpt lat="40.45925" lon="-2.00805">
        <ele>1453</ele>
        <time>2021-10-09 13:48:01</time>
      </trkpt>
      <trkpt lat="40.45923" lon="-2.00808">
        <ele>1453</ele>
        <time>2021-10-09 13:48:02</time>
      </trkpt>
      <trkpt lat="40.4592" lon="-2.0081">
        <ele>1453.2</ele>
        <time>2021-10-09 13:48:03</time>
      </trkpt>
      <trkpt lat="40.45918" lon="-2.00812">
        <ele>1453.2</ele>
        <time>2021-10-09 13:48:04</time>
      </trkpt>
      <trkpt lat="40.45915" lon="-2.00814">
        <ele>1453.2</ele>
        <time>2021-10-09 13:48:05</time>
      </trkpt>
      <trkpt lat="40.45913" lon="-2.00816">
        <ele>1453.2</ele>
        <time>2021-10-09 13:48:06</time>
      </trkpt>
      <trkpt lat="40.4591" lon="-2.00819">
        <ele>1453.4</ele>
        <time>2021-10-09 13:48:07</time>
      </trkpt>
      <trkpt lat="40.45908" lon="-2.00821">
        <ele>1453.4</ele>
        <time>2021-10-09 13:48:08</time>
      </trkpt>
      <trkpt lat="40.45906" lon="-2.00824">
        <ele>1453.4</ele>
        <time>2021-10-09 13:48:09</time>
      </trkpt>
      <trkpt lat="40.45904" lon="-2.00826">
        <ele>1453.8</ele>
        <time>2021-10-09 13:48:10</time>
      </trkpt>
      <trkpt lat="40.45901" lon="-2.00828">
        <ele>1453.8</ele>
        <time>2021-10-09 13:48:11</time>
      </trkpt>
      <trkpt lat="40.45899" lon="-2.00829">
        <ele>1454</ele>
        <time>2021-10-09 13:48:12</time>
      </trkpt>
      <trkpt lat="40.45897" lon="-2.0083">
        <ele>1454</ele>
        <time>2021-10-09 13:48:13</time>
      </trkpt>
      <trkpt lat="40.45894" lon="-2.00832">
        <ele>1454</ele>
        <time>2021-10-09 13:48:14</time>
      </trkpt>
      <trkpt lat="40.45891" lon="-2.00834">
        <ele>1454</ele>
        <time>2021-10-09 13:48:15</time>
      </trkpt>
      <trkpt lat="40.45889" lon="-2.00837">
        <ele>1454</ele>
        <time>2021-10-09 13:48:16</time>
      </trkpt>
      <trkpt lat="40.45887" lon="-2.00839">
        <ele>1454.2</ele>
        <time>2021-10-09 13:48:17</time>
      </trkpt>
      <trkpt lat="40.45884" lon="-2.00842">
        <ele>1454.2</ele>
        <time>2021-10-09 13:48:18</time>
      </trkpt>
      <trkpt lat="40.45881" lon="-2.00845">
        <ele>1454.4</ele>
        <time>2021-10-09 13:48:19</time>
      </trkpt>
      <trkpt lat="40.45879" lon="-2.00848">
        <ele>1454.4</ele>
        <time>2021-10-09 13:48:20</time>
      </trkpt>
      <trkpt lat="40.45876" lon="-2.0085">
        <ele>1454.6</ele>
        <time>2021-10-09 13:48:21</time>
      </trkpt>
      <trkpt lat="40.45873" lon="-2.00851">
        <ele>1454.6</ele>
        <time>2021-10-09 13:48:22</time>
      </trkpt>
      <trkpt lat="40.4587" lon="-2.00852">
        <ele>1454.6</ele>
        <time>2021-10-09 13:48:23</time>
      </trkpt>
      <trkpt lat="40.45867" lon="-2.00852">
        <ele>1454.6</ele>
        <time>2021-10-09 13:48:24</time>
      </trkpt>
      <trkpt lat="40.45864" lon="-2.00854">
        <ele>1454.8</ele>
        <time>2021-10-09 13:48:25</time>
      </trkpt>
      <trkpt lat="40.4586" lon="-2.00855">
        <ele>1454.6</ele>
        <time>2021-10-09 13:48:26</time>
      </trkpt>
      <trkpt lat="40.45857" lon="-2.00857">
        <ele>1454.6</ele>
        <time>2021-10-09 13:48:27</time>
      </trkpt>
      <trkpt lat="40.45853" lon="-2.00858">
        <ele>1454.6</ele>
        <time>2021-10-09 13:48:28</time>
      </trkpt>
      <trkpt lat="40.4585" lon="-2.00859">
        <ele>1454.6</ele>
        <time>2021-10-09 13:48:29</time>
      </trkpt>
      <trkpt lat="40.45846" lon="-2.00858">
        <ele>1454.8</ele>
        <time>2021-10-09 13:48:30</time>
      </trkpt>
      <trkpt lat="40.45842" lon="-2.00858">
        <ele>1454.8</ele>
        <time>2021-10-09 13:48:31</time>
      </trkpt>
      <trkpt lat="40.45839" lon="-2.00856">
        <ele>1455</ele>
        <time>2021-10-09 13:48:32</time>
      </trkpt>
      <trkpt lat="40.45836" lon="-2.00855">
        <ele>1455</ele>
        <time>2021-10-09 13:48:33</time>
      </trkpt>
      <trkpt lat="40.45833" lon="-2.00854">
        <ele>1455.4</ele>
        <time>2021-10-09 13:48:34</time>
      </trkpt>
      <trkpt lat="40.45829" lon="-2.00853">
        <ele>1455.4</ele>
        <time>2021-10-09 13:48:35</time>
      </trkpt>
      <trkpt lat="40.45826" lon="-2.00853">
        <ele>1456.4</ele>
        <time>2021-10-09 13:48:36</time>
      </trkpt>
      <trkpt lat="40.45823" lon="-2.00852">
        <ele>1456.4</ele>
        <time>2021-10-09 13:48:37</time>
      </trkpt>
      <trkpt lat="40.4582" lon="-2.00851">
        <ele>1456.4</ele>
        <time>2021-10-09 13:48:38</time>
      </trkpt>
      <trkpt lat="40.45817" lon="-2.0085">
        <ele>1456.4</ele>
        <time>2021-10-09 13:48:39</time>
      </trkpt>
      <trkpt lat="40.45815" lon="-2.00849">
        <ele>1456.4</ele>
        <time>2021-10-09 13:48:40</time>
      </trkpt>
      <trkpt lat="40.45812" lon="-2.00848">
        <ele>1456.4</ele>
        <time>2021-10-09 13:48:41</time>
      </trkpt>
      <trkpt lat="40.4581" lon="-2.00846">
        <ele>1456.4</ele>
        <time>2021-10-09 13:48:42</time>
      </trkpt>
      <trkpt lat="40.45807" lon="-2.00845">
        <ele>1456.4</ele>
        <time>2021-10-09 13:48:43</time>
      </trkpt>
      <trkpt lat="40.45803" lon="-2.00844">
        <ele>1456.4</ele>
        <time>2021-10-09 13:48:44</time>
      </trkpt>
      <trkpt lat="40.458" lon="-2.00843">
        <ele>1456.4</ele>
        <time>2021-10-09 13:48:45</time>
      </trkpt>
      <trkpt lat="40.45797" lon="-2.00842">
        <ele>1456.4</ele>
        <time>2021-10-09 13:48:46</time>
      </trkpt>
      <trkpt lat="40.45793" lon="-2.0084">
        <ele>1456.4</ele>
        <time>2021-10-09 13:48:47</time>
      </trkpt>
      <trkpt lat="40.45789" lon="-2.00838">
        <ele>1456.6</ele>
        <time>2021-10-09 13:48:48</time>
      </trkpt>
      <trkpt lat="40.45786" lon="-2.00836">
        <ele>1456.6</ele>
        <time>2021-10-09 13:48:49</time>
      </trkpt>
      <trkpt lat="40.45783" lon="-2.00835">
        <ele>1456.6</ele>
        <time>2021-10-09 13:48:50</time>
      </trkpt>
      <trkpt lat="40.45779" lon="-2.00833">
        <ele>1456.6</ele>
        <time>2021-10-09 13:48:51</time>
      </trkpt>
      <trkpt lat="40.45775" lon="-2.00831">
        <ele>1456.6</ele>
        <time>2021-10-09 13:48:52</time>
      </trkpt>
      <trkpt lat="40.45772" lon="-2.0083">
        <ele>1457</ele>
        <time>2021-10-09 13:48:53</time>
      </trkpt>
      <trkpt lat="40.45768" lon="-2.00828">
        <ele>1457</ele>
        <time>2021-10-09 13:48:54</time>
      </trkpt>
      <trkpt lat="40.45764" lon="-2.00827">
        <ele>1457.2</ele>
        <time>2021-10-09 13:48:55</time>
      </trkpt>
      <trkpt lat="40.45761" lon="-2.00825">
        <ele>1457.2</ele>
        <time>2021-10-09 13:48:56</time>
      </trkpt>
      <trkpt lat="40.45757" lon="-2.00823">
        <ele>1457.4</ele>
        <time>2021-10-09 13:48:57</time>
      </trkpt>
      <trkpt lat="40.45753" lon="-2.0082">
        <ele>1457.4</ele>
        <time>2021-10-09 13:48:58</time>
      </trkpt>
      <trkpt lat="40.45749" lon="-2.00818">
        <ele>1457.4</ele>
        <time>2021-10-09 13:48:59</time>
      </trkpt>
      <trkpt lat="40.45746" lon="-2.00816">
        <ele>1457.4</ele>
        <time>2021-10-09 13:49:00</time>
      </trkpt>
      <trkpt lat="40.45742" lon="-2.00814">
        <ele>1457.4</ele>
        <time>2021-10-09 13:49:01</time>
      </trkpt>
      <trkpt lat="40.45738" lon="-2.00811">
        <ele>1457.8</ele>
        <time>2021-10-09 13:49:02</time>
      </trkpt>
      <trkpt lat="40.45735" lon="-2.00809">
        <ele>1457.8</ele>
        <time>2021-10-09 13:49:03</time>
      </trkpt>
      <trkpt lat="40.45731" lon="-2.00807">
        <ele>1458.6</ele>
        <time>2021-10-09 13:49:04</time>
      </trkpt>
      <trkpt lat="40.45728" lon="-2.00805">
        <ele>1458.8</ele>
        <time>2021-10-09 13:49:05</time>
      </trkpt>
      <trkpt lat="40.45725" lon="-2.00803">
        <ele>1459.2</ele>
        <time>2021-10-09 13:49:06</time>
      </trkpt>
      <trkpt lat="40.45722" lon="-2.00801">
        <ele>1459</ele>
        <time>2021-10-09 13:49:07</time>
      </trkpt>
      <trkpt lat="40.45719" lon="-2.00798">
        <ele>1459</ele>
        <time>2021-10-09 13:49:08</time>
      </trkpt>
      <trkpt lat="40.45715" lon="-2.00796">
        <ele>1459</ele>
        <time>2021-10-09 13:49:09</time>
      </trkpt>
      <trkpt lat="40.45712" lon="-2.00793">
        <ele>1459.2</ele>
        <time>2021-10-09 13:49:10</time>
      </trkpt>
      <trkpt lat="40.45708" lon="-2.00792">
        <ele>1459.2</ele>
        <time>2021-10-09 13:49:11</time>
      </trkpt>
      <trkpt lat="40.45704" lon="-2.00791">
        <ele>1459.2</ele>
        <time>2021-10-09 13:49:12</time>
      </trkpt>
      <trkpt lat="40.457" lon="-2.00789">
        <ele>1459.2</ele>
        <time>2021-10-09 13:49:13</time>
      </trkpt>
      <trkpt lat="40.45696" lon="-2.00788">
        <ele>1459.2</ele>
        <time>2021-10-09 13:49:14</time>
      </trkpt>
      <trkpt lat="40.45694" lon="-2.00787">
        <ele>1459.2</ele>
        <time>2021-10-09 13:49:15</time>
      </trkpt>
      <trkpt lat="40.4569" lon="-2.00786">
        <ele>1459.2</ele>
        <time>2021-10-09 13:49:16</time>
      </trkpt>
      <trkpt lat="40.45687" lon="-2.00785">
        <ele>1459.6</ele>
        <time>2021-10-09 13:49:17</time>
      </trkpt>
      <trkpt lat="40.45683" lon="-2.00784">
        <ele>1459.8</ele>
        <time>2021-10-09 13:49:18</time>
      </trkpt>
      <trkpt lat="40.4568" lon="-2.00782">
        <ele>1459.8</ele>
        <time>2021-10-09 13:49:19</time>
      </trkpt>
      <trkpt lat="40.45677" lon="-2.00781">
        <ele>1459.8</ele>
        <time>2021-10-09 13:49:20</time>
      </trkpt>
      <trkpt lat="40.45674" lon="-2.0078">
        <ele>1460</ele>
        <time>2021-10-09 13:49:21</time>
      </trkpt>
      <trkpt lat="40.4567" lon="-2.00778">
        <ele>1460</ele>
        <time>2021-10-09 13:49:22</time>
      </trkpt>
      <trkpt lat="40.45667" lon="-2.00777">
        <ele>1460.4</ele>
        <time>2021-10-09 13:49:23</time>
      </trkpt>
      <trkpt lat="40.45663" lon="-2.00775">
        <ele>1460.4</ele>
        <time>2021-10-09 13:49:24</time>
      </trkpt>
      <trkpt lat="40.4566" lon="-2.00773">
        <ele>1460.6</ele>
        <time>2021-10-09 13:49:25</time>
      </trkpt>
      <trkpt lat="40.45658" lon="-2.00771">
        <ele>1460.8</ele>
        <time>2021-10-09 13:49:26</time>
      </trkpt>
      <trkpt lat="40.45655" lon="-2.00769">
        <ele>1460.8</ele>
        <time>2021-10-09 13:49:27</time>
      </trkpt>
      <trkpt lat="40.45651" lon="-2.00767">
        <ele>1461.2</ele>
        <time>2021-10-09 13:49:28</time>
      </trkpt>
      <trkpt lat="40.45648" lon="-2.00764">
        <ele>1461.2</ele>
        <time>2021-10-09 13:49:29</time>
      </trkpt>
      <trkpt lat="40.45644" lon="-2.00761">
        <ele>1461.4</ele>
        <time>2021-10-09 13:49:30</time>
      </trkpt>
      <trkpt lat="40.45641" lon="-2.00759">
        <ele>1461.4</ele>
        <time>2021-10-09 13:49:31</time>
      </trkpt>
      <trkpt lat="40.45637" lon="-2.00757">
        <ele>1461.6</ele>
        <time>2021-10-09 13:49:32</time>
      </trkpt>
      <trkpt lat="40.45634" lon="-2.00756">
        <ele>1461.6</ele>
        <time>2021-10-09 13:49:33</time>
      </trkpt>
      <trkpt lat="40.4563" lon="-2.00755">
        <ele>1461.6</ele>
        <time>2021-10-09 13:49:34</time>
      </trkpt>
      <trkpt lat="40.45626" lon="-2.00755">
        <ele>1461.6</ele>
        <time>2021-10-09 13:49:35</time>
      </trkpt>
      <trkpt lat="40.45623" lon="-2.00755">
        <ele>1461.8</ele>
        <time>2021-10-09 13:49:36</time>
      </trkpt>
      <trkpt lat="40.4562" lon="-2.00755">
        <ele>1461.8</ele>
        <time>2021-10-09 13:49:37</time>
      </trkpt>
      <trkpt lat="40.45616" lon="-2.00755">
        <ele>1462.2</ele>
        <time>2021-10-09 13:49:38</time>
      </trkpt>
      <trkpt lat="40.45612" lon="-2.00755">
        <ele>1462.2</ele>
        <time>2021-10-09 13:49:39</time>
      </trkpt>
      <trkpt lat="40.45609" lon="-2.00755">
        <ele>1462.2</ele>
        <time>2021-10-09 13:49:40</time>
      </trkpt>
      <trkpt lat="40.45605" lon="-2.00756">
        <ele>1462.2</ele>
        <time>2021-10-09 13:49:41</time>
      </trkpt>
      <trkpt lat="40.45602" lon="-2.00757">
        <ele>1462.2</ele>
        <time>2021-10-09 13:49:42</time>
      </trkpt>
      <trkpt lat="40.45599" lon="-2.00759">
        <ele>1462.2</ele>
        <time>2021-10-09 13:49:43</time>
      </trkpt>
      <trkpt lat="40.45595" lon="-2.0076">
        <ele>1462.4</ele>
        <time>2021-10-09 13:49:44</time>
      </trkpt>
      <trkpt lat="40.45591" lon="-2.00762">
        <ele>1462.4</ele>
        <time>2021-10-09 13:49:45</time>
      </trkpt>
      <trkpt lat="40.45587" lon="-2.00764">
        <ele>1462.8</ele>
        <time>2021-10-09 13:49:46</time>
      </trkpt>
      <trkpt lat="40.45583" lon="-2.00767">
        <ele>1462.8</ele>
        <time>2021-10-09 13:49:47</time>
      </trkpt>
      <trkpt lat="40.45579" lon="-2.00769">
        <ele>1463.2</ele>
        <time>2021-10-09 13:49:48</time>
      </trkpt>
      <trkpt lat="40.45576" lon="-2.00771">
        <ele>1463.2</ele>
        <time>2021-10-09 13:49:49</time>
      </trkpt>
      <trkpt lat="40.45572" lon="-2.00774">
        <ele>1463.4</ele>
        <time>2021-10-09 13:49:50</time>
      </trkpt>
      <trkpt lat="40.45568" lon="-2.00776">
        <ele>1463.4</ele>
        <time>2021-10-09 13:49:51</time>
      </trkpt>
      <trkpt lat="40.45565" lon="-2.00778">
        <ele>1464</ele>
        <time>2021-10-09 13:49:52</time>
      </trkpt>
      <trkpt lat="40.45562" lon="-2.00781">
        <ele>1464</ele>
        <time>2021-10-09 13:49:53</time>
      </trkpt>
      <trkpt lat="40.45559" lon="-2.00783">
        <ele>1464</ele>
        <time>2021-10-09 13:49:54</time>
      </trkpt>
      <trkpt lat="40.45556" lon="-2.00785">
        <ele>1464</ele>
        <time>2021-10-09 13:49:55</time>
      </trkpt>
      <trkpt lat="40.45553" lon="-2.00786">
        <ele>1464.2</ele>
        <time>2021-10-09 13:49:56</time>
      </trkpt>
      <trkpt lat="40.45549" lon="-2.00786">
        <ele>1464.2</ele>
        <time>2021-10-09 13:49:57</time>
      </trkpt>
      <trkpt lat="40.45546" lon="-2.00786">
        <ele>1464.4</ele>
        <time>2021-10-09 13:49:58</time>
      </trkpt>
      <trkpt lat="40.45543" lon="-2.00785">
        <ele>1464.4</ele>
        <time>2021-10-09 13:49:59</time>
      </trkpt>
      <trkpt lat="40.45539" lon="-2.00785">
        <ele>1464.4</ele>
        <time>2021-10-09 13:50:00</time>
      </trkpt>
      <trkpt lat="40.45535" lon="-2.00784">
        <ele>1464.4</ele>
        <time>2021-10-09 13:50:01</time>
      </trkpt>
      <trkpt lat="40.45529" lon="-2.00783">
        <ele>1464.4</ele>
        <time>2021-10-09 13:50:02</time>
      </trkpt>
      <trkpt lat="40.45524" lon="-2.00784">
        <ele>1464.4</ele>
        <time>2021-10-09 13:50:03</time>
      </trkpt>
      <trkpt lat="40.4552" lon="-2.00784">
        <ele>1464.4</ele>
        <time>2021-10-09 13:50:04</time>
      </trkpt>
      <trkpt lat="40.45515" lon="-2.00784">
        <ele>1464.8</ele>
        <time>2021-10-09 13:50:05</time>
      </trkpt>
      <trkpt lat="40.4551" lon="-2.00784">
        <ele>1464.8</ele>
        <time>2021-10-09 13:50:06</time>
      </trkpt>
      <trkpt lat="40.45505" lon="-2.00784">
        <ele>1464.8</ele>
        <time>2021-10-09 13:50:07</time>
      </trkpt>
      <trkpt lat="40.455" lon="-2.00784">
        <ele>1465</ele>
        <time>2021-10-09 13:50:08</time>
      </trkpt>
      <trkpt lat="40.45496" lon="-2.00783">
        <ele>1465</ele>
        <time>2021-10-09 13:50:09</time>
      </trkpt>
      <trkpt lat="40.45492" lon="-2.00783">
        <ele>1465</ele>
        <time>2021-10-09 13:50:10</time>
      </trkpt>
      <trkpt lat="40.45488" lon="-2.00783">
        <ele>1465</ele>
        <time>2021-10-09 13:50:11</time>
      </trkpt>
      <trkpt lat="40.45483" lon="-2.00782">
        <ele>1465</ele>
        <time>2021-10-09 13:50:12</time>
      </trkpt>
      <trkpt lat="40.45479" lon="-2.00778">
        <ele>1465.4</ele>
        <time>2021-10-09 13:50:13</time>
      </trkpt>
      <trkpt lat="40.45476" lon="-2.00776">
        <ele>1465.4</ele>
        <time>2021-10-09 13:50:14</time>
      </trkpt>
      <trkpt lat="40.45471" lon="-2.00773">
        <ele>1465.4</ele>
        <time>2021-10-09 13:50:15</time>
      </trkpt>
      <trkpt lat="40.45467" lon="-2.0077">
        <ele>1465.4</ele>
        <time>2021-10-09 13:50:16</time>
      </trkpt>
      <trkpt lat="40.45464" lon="-2.00768">
        <ele>1465.4</ele>
        <time>2021-10-09 13:50:17</time>
      </trkpt>
      <trkpt lat="40.45461" lon="-2.00767">
        <ele>1465.4</ele>
        <time>2021-10-09 13:50:18</time>
      </trkpt>
      <trkpt lat="40.45456" lon="-2.00768">
        <ele>1465.4</ele>
        <time>2021-10-09 13:50:19</time>
      </trkpt>
      <trkpt lat="40.45453" lon="-2.00769">
        <ele>1465.4</ele>
        <time>2021-10-09 13:50:20</time>
      </trkpt>
      <trkpt lat="40.4545" lon="-2.0077">
        <ele>1465.6</ele>
        <time>2021-10-09 13:50:21</time>
      </trkpt>
      <trkpt lat="40.45447" lon="-2.00769">
        <ele>1465.6</ele>
        <time>2021-10-09 13:50:22</time>
      </trkpt>
      <trkpt lat="40.45443" lon="-2.00769">
        <ele>1465.6</ele>
        <time>2021-10-09 13:50:23</time>
      </trkpt>
      <trkpt lat="40.45439" lon="-2.00769">
        <ele>1465.4</ele>
        <time>2021-10-09 13:50:24</time>
      </trkpt>
      <trkpt lat="40.45434" lon="-2.00768">
        <ele>1465.4</ele>
        <time>2021-10-09 13:50:25</time>
      </trkpt>
      <trkpt lat="40.4543" lon="-2.00768">
        <ele>1465.4</ele>
        <time>2021-10-09 13:50:26</time>
      </trkpt>
      <trkpt lat="40.45426" lon="-2.00767">
        <ele>1465.6</ele>
        <time>2021-10-09 13:50:27</time>
      </trkpt>
      <trkpt lat="40.45421" lon="-2.00767">
        <ele>1465.6</ele>
        <time>2021-10-09 13:50:28</time>
      </trkpt>
      <trkpt lat="40.45417" lon="-2.00766">
        <ele>1466</ele>
        <time>2021-10-09 13:50:29</time>
      </trkpt>
      <trkpt lat="40.45413" lon="-2.00763">
        <ele>1466</ele>
        <time>2021-10-09 13:50:30</time>
      </trkpt>
      <trkpt lat="40.45411" lon="-2.00758">
        <ele>1466.2</ele>
        <time>2021-10-09 13:50:31</time>
      </trkpt>
      <trkpt lat="40.45408" lon="-2.00756">
        <ele>1466.2</ele>
        <time>2021-10-09 13:50:32</time>
      </trkpt>
      <trkpt lat="40.45406" lon="-2.00752">
        <ele>1466.2</ele>
        <time>2021-10-09 13:50:33</time>
      </trkpt>
      <trkpt lat="40.45404" lon="-2.00748">
        <ele>1466.2</ele>
        <time>2021-10-09 13:50:34</time>
      </trkpt>
      <trkpt lat="40.45402" lon="-2.00742">
        <ele>1466.2</ele>
        <time>2021-10-09 13:50:35</time>
      </trkpt>
      <trkpt lat="40.454" lon="-2.00738">
        <ele>1466.2</ele>
        <time>2021-10-09 13:50:36</time>
      </trkpt>
      <trkpt lat="40.45397" lon="-2.00734">
        <ele>1466.2</ele>
        <time>2021-10-09 13:50:37</time>
      </trkpt>
      <trkpt lat="40.45393" lon="-2.0073">
        <ele>1466.2</ele>
        <time>2021-10-09 13:50:38</time>
      </trkpt>
      <trkpt lat="40.45391" lon="-2.00725">
        <ele>1466.2</ele>
        <time>2021-10-09 13:50:39</time>
      </trkpt>
      <trkpt lat="40.45388" lon="-2.00722">
        <ele>1466.4</ele>
        <time>2021-10-09 13:50:40</time>
      </trkpt>
      <trkpt lat="40.45384" lon="-2.00719">
        <ele>1466.4</ele>
        <time>2021-10-09 13:50:41</time>
      </trkpt>
      <trkpt lat="40.45381" lon="-2.00714">
        <ele>1466.4</ele>
        <time>2021-10-09 13:50:42</time>
      </trkpt>
      <trkpt lat="40.45377" lon="-2.0071">
        <ele>1466.8</ele>
        <time>2021-10-09 13:50:43</time>
      </trkpt>
      <trkpt lat="40.45372" lon="-2.00705">
        <ele>1466.8</ele>
        <time>2021-10-09 13:50:44</time>
      </trkpt>
      <trkpt lat="40.45369" lon="-2.00701">
        <ele>1467</ele>
        <time>2021-10-09 13:50:45</time>
      </trkpt>
      <trkpt lat="40.45365" lon="-2.00696">
        <ele>1467</ele>
        <time>2021-10-09 13:50:46</time>
      </trkpt>
      <trkpt lat="40.4536" lon="-2.00693">
        <ele>1467.2</ele>
        <time>2021-10-09 13:50:47</time>
      </trkpt>
      <trkpt lat="40.45357" lon="-2.00689">
        <ele>1467.2</ele>
        <time>2021-10-09 13:50:48</time>
      </trkpt>
      <trkpt lat="40.45356" lon="-2.00687">
        <ele>1467.4</ele>
        <time>2021-10-09 13:50:49</time>
      </trkpt>
      <trkpt lat="40.45352" lon="-2.00681">
        <ele>1467.4</ele>
        <time>2021-10-09 13:50:50</time>
      </trkpt>
      <trkpt lat="40.45346" lon="-2.00674">
        <ele>1467.4</ele>
        <time>2021-10-09 13:50:51</time>
      </trkpt>
      <trkpt lat="40.45341" lon="-2.00673">
        <ele>1467.4</ele>
        <time>2021-10-09 13:50:52</time>
      </trkpt>
      <trkpt lat="40.45336" lon="-2.00669">
        <ele>1467.4</ele>
        <time>2021-10-09 13:50:53</time>
      </trkpt>
      <trkpt lat="40.45334" lon="-2.00666">
        <ele>1467.8</ele>
        <time>2021-10-09 13:50:54</time>
      </trkpt>
      <trkpt lat="40.4533" lon="-2.00663">
        <ele>1467.8</ele>
        <time>2021-10-09 13:50:55</time>
      </trkpt>
      <trkpt lat="40.45328" lon="-2.00661">
        <ele>1468</ele>
        <time>2021-10-09 13:50:56</time>
      </trkpt>
      <trkpt lat="40.45326" lon="-2.00658">
        <ele>1468</ele>
        <time>2021-10-09 13:50:57</time>
      </trkpt>
      <trkpt lat="40.45321" lon="-2.00655">
        <ele>1468</ele>
        <time>2021-10-09 13:50:58</time>
      </trkpt>
      <trkpt lat="40.45318" lon="-2.00654">
        <ele>1468</ele>
        <time>2021-10-09 13:50:59</time>
      </trkpt>
      <trkpt lat="40.45316" lon="-2.00652">
        <ele>1468</ele>
        <time>2021-10-09 13:51:00</time>
      </trkpt>
      <trkpt lat="40.45312" lon="-2.00648">
        <ele>1468</ele>
        <time>2021-10-09 13:51:01</time>
      </trkpt>
      <trkpt lat="40.45309" lon="-2.00646">
        <ele>1468</ele>
        <time>2021-10-09 13:51:02</time>
      </trkpt>
      <trkpt lat="40.45304" lon="-2.00644">
        <ele>1468</ele>
        <time>2021-10-09 13:51:03</time>
      </trkpt>
      <trkpt lat="40.45299" lon="-2.00642">
        <ele>1468.4</ele>
        <time>2021-10-09 13:51:04</time>
      </trkpt>
      <trkpt lat="40.45295" lon="-2.00642">
        <ele>1468.4</ele>
        <time>2021-10-09 13:51:05</time>
      </trkpt>
      <trkpt lat="40.45291" lon="-2.00641">
        <ele>1468.4</ele>
        <time>2021-10-09 13:51:06</time>
      </trkpt>
      <trkpt lat="40.45287" lon="-2.00641">
        <ele>1468.6</ele>
        <time>2021-10-09 13:51:07</time>
      </trkpt>
      <trkpt lat="40.45284" lon="-2.00641">
        <ele>1468.6</ele>
        <time>2021-10-09 13:51:08</time>
      </trkpt>
      <trkpt lat="40.4528" lon="-2.00642">
        <ele>1468.6</ele>
        <time>2021-10-09 13:51:09</time>
      </trkpt>
      <trkpt lat="40.45279" lon="-2.00642">
        <ele>1468.6</ele>
        <time>2021-10-09 13:51:10</time>
      </trkpt>
      <trkpt lat="40.45276" lon="-2.00642">
        <ele>1468.6</ele>
        <time>2021-10-09 13:51:11</time>
      </trkpt>
      <trkpt lat="40.45273" lon="-2.0064">
        <ele>1468.6</ele>
        <time>2021-10-09 13:51:12</time>
      </trkpt>
      <trkpt lat="40.45272" lon="-2.00641">
        <ele>1468.6</ele>
        <time>2021-10-09 13:51:13</time>
      </trkpt>
      <trkpt lat="40.45269" lon="-2.00641">
        <ele>1468.6</ele>
        <time>2021-10-09 13:51:14</time>
      </trkpt>
      <trkpt lat="40.45266" lon="-2.00639">
        <ele>1468.6</ele>
        <time>2021-10-09 13:51:15</time>
      </trkpt>
      <trkpt lat="40.45264" lon="-2.00639">
        <ele>1468.2</ele>
        <time>2021-10-09 13:51:16</time>
      </trkpt>
      <trkpt lat="40.4526" lon="-2.0064">
        <ele>1467.8</ele>
        <time>2021-10-09 13:51:17</time>
      </trkpt>
      <trkpt lat="40.45257" lon="-2.00641">
        <ele>1469.2</ele>
        <time>2021-10-09 13:51:18</time>
      </trkpt>
      <trkpt lat="40.45257" lon="-2.00641">
        <ele>1469.2</ele>
        <time>2021-10-09 13:51:19</time>
      </trkpt>
      <trkpt lat="40.45241" lon="-2.00647">
        <ele>1469.6</ele>
        <time>2021-10-09 13:51:20</time>
      </trkpt>
      <trkpt lat="40.45237" lon="-2.00648">
        <ele>1469.6</ele>
        <time>2021-10-09 13:51:21</time>
      </trkpt>
      <trkpt lat="40.45233" lon="-2.0065">
        <ele>1469.4</ele>
        <time>2021-10-09 13:51:22</time>
      </trkpt>
      <trkpt lat="40.45229" lon="-2.00651">
        <ele>1469.4</ele>
        <time>2021-10-09 13:51:23</time>
      </trkpt>
      <trkpt lat="40.45225" lon="-2.00651">
        <ele>1469.4</ele>
        <time>2021-10-09 13:51:24</time>
      </trkpt>
      <trkpt lat="40.45221" lon="-2.00651">
        <ele>1469.4</ele>
        <time>2021-10-09 13:51:25</time>
      </trkpt>
      <trkpt lat="40.45217" lon="-2.0065">
        <ele>1469.4</ele>
        <time>2021-10-09 13:51:26</time>
      </trkpt>
      <trkpt lat="40.45214" lon="-2.00651">
        <ele>1469.4</ele>
        <time>2021-10-09 13:51:27</time>
      </trkpt>
      <trkpt lat="40.4521" lon="-2.00651">
        <ele>1469.6</ele>
        <time>2021-10-09 13:51:28</time>
      </trkpt>
      <trkpt lat="40.45206" lon="-2.00651">
        <ele>1469.6</ele>
        <time>2021-10-09 13:51:29</time>
      </trkpt>
      <trkpt lat="40.45201" lon="-2.0065">
        <ele>1469.6</ele>
        <time>2021-10-09 13:51:30</time>
      </trkpt>
      <trkpt lat="40.45197" lon="-2.00648">
        <ele>1469.8</ele>
        <time>2021-10-09 13:51:31</time>
      </trkpt>
      <trkpt lat="40.45194" lon="-2.00646">
        <ele>1469.8</ele>
        <time>2021-10-09 13:51:32</time>
      </trkpt>
      <trkpt lat="40.4519" lon="-2.00643">
        <ele>1469.8</ele>
        <time>2021-10-09 13:51:33</time>
      </trkpt>
      <trkpt lat="40.45187" lon="-2.00641">
        <ele>1470</ele>
        <time>2021-10-09 13:51:34</time>
      </trkpt>
      <trkpt lat="40.45183" lon="-2.00639">
        <ele>1470</ele>
        <time>2021-10-09 13:51:35</time>
      </trkpt>
      <trkpt lat="40.4518" lon="-2.00637">
        <ele>1470.4</ele>
        <time>2021-10-09 13:51:36</time>
      </trkpt>
      <trkpt lat="40.4518" lon="-2.00637">
        <ele>1470.4</ele>
        <time>2021-10-09 13:51:37</time>
      </trkpt>
      <trkpt lat="40.45173" lon="-2.00635">
        <ele>1470.6</ele>
        <time>2021-10-09 13:51:38</time>
      </trkpt>
      <trkpt lat="40.4517" lon="-2.00634">
        <ele>1470.6</ele>
        <time>2021-10-09 13:51:39</time>
      </trkpt>
      <trkpt lat="40.45166" lon="-2.00632">
        <ele>1471</ele>
        <time>2021-10-09 13:51:40</time>
      </trkpt>
      <trkpt lat="40.45163" lon="-2.0063">
        <ele>1471</ele>
        <time>2021-10-09 13:51:41</time>
      </trkpt>
      <trkpt lat="40.4516" lon="-2.00629">
        <ele>1471.2</ele>
        <time>2021-10-09 13:51:42</time>
      </trkpt>
      <trkpt lat="40.45157" lon="-2.00627">
        <ele>1471.4</ele>
        <time>2021-10-09 13:51:43</time>
      </trkpt>
      <trkpt lat="40.45154" lon="-2.00626">
        <ele>1471.8</ele>
        <time>2021-10-09 13:51:44</time>
      </trkpt>
      <trkpt lat="40.45152" lon="-2.00623">
        <ele>1472</ele>
        <time>2021-10-09 13:51:45</time>
      </trkpt>
      <trkpt lat="40.45149" lon="-2.00621">
        <ele>1472.2</ele>
        <time>2021-10-09 13:51:46</time>
      </trkpt>
      <trkpt lat="40.45147" lon="-2.00619">
        <ele>1472.4</ele>
        <time>2021-10-09 13:51:47</time>
      </trkpt>
      <trkpt lat="40.45144" lon="-2.00618">
        <ele>1472.4</ele>
        <time>2021-10-09 13:51:48</time>
      </trkpt>
      <trkpt lat="40.45141" lon="-2.00616">
        <ele>1472.8</ele>
        <time>2021-10-09 13:51:49</time>
      </trkpt>
      <trkpt lat="40.45137" lon="-2.00614">
        <ele>1472.8</ele>
        <time>2021-10-09 13:51:50</time>
      </trkpt>
      <trkpt lat="40.45134" lon="-2.00612">
        <ele>1473.2</ele>
        <time>2021-10-09 13:51:51</time>
      </trkpt>
      <trkpt lat="40.45131" lon="-2.0061">
        <ele>1473.6</ele>
        <time>2021-10-09 13:51:52</time>
      </trkpt>
      <trkpt lat="40.45127" lon="-2.00609">
        <ele>1473.6</ele>
        <time>2021-10-09 13:51:53</time>
      </trkpt>
      <trkpt lat="40.45123" lon="-2.00608">
        <ele>1473.6</ele>
        <time>2021-10-09 13:51:54</time>
      </trkpt>
      <trkpt lat="40.45119" lon="-2.00606">
        <ele>1473.6</ele>
        <time>2021-10-09 13:51:55</time>
      </trkpt>
      <trkpt lat="40.45115" lon="-2.00605">
        <ele>1473.6</ele>
        <time>2021-10-09 13:51:56</time>
      </trkpt>
      <trkpt lat="40.45112" lon="-2.00603">
        <ele>1473.8</ele>
        <time>2021-10-09 13:51:57</time>
      </trkpt>
      <trkpt lat="40.45108" lon="-2.00601">
        <ele>1473.8</ele>
        <time>2021-10-09 13:51:58</time>
      </trkpt>
      <trkpt lat="40.45104" lon="-2.006">
        <ele>1473.8</ele>
        <time>2021-10-09 13:51:59</time>
      </trkpt>
      <trkpt lat="40.451" lon="-2.00599">
        <ele>1473.4</ele>
        <time>2021-10-09 13:52:00</time>
      </trkpt>
      <trkpt lat="40.45096" lon="-2.00595">
        <ele>1473.4</ele>
        <time>2021-10-09 13:52:01</time>
      </trkpt>
      <trkpt lat="40.45092" lon="-2.00594">
        <ele>1473.4</ele>
        <time>2021-10-09 13:52:02</time>
      </trkpt>
      <trkpt lat="40.45088" lon="-2.00591">
        <ele>1473.4</ele>
        <time>2021-10-09 13:52:03</time>
      </trkpt>
      <trkpt lat="40.45083" lon="-2.00593">
        <ele>1473.2</ele>
        <time>2021-10-09 13:52:04</time>
      </trkpt>
      <trkpt lat="40.45078" lon="-2.00592">
        <ele>1473.2</ele>
        <time>2021-10-09 13:52:05</time>
      </trkpt>
      <trkpt lat="40.45074" lon="-2.00591">
        <ele>1473.2</ele>
        <time>2021-10-09 13:52:06</time>
      </trkpt>
      <trkpt lat="40.4507" lon="-2.0059">
        <ele>1473.2</ele>
        <time>2021-10-09 13:52:07</time>
      </trkpt>
      <trkpt lat="40.45065" lon="-2.00588">
        <ele>1473.2</ele>
        <time>2021-10-09 13:52:08</time>
      </trkpt>
      <trkpt lat="40.45061" lon="-2.00586">
        <ele>1473.2</ele>
        <time>2021-10-09 13:52:09</time>
      </trkpt>
      <trkpt lat="40.45056" lon="-2.00585">
        <ele>1473.2</ele>
        <time>2021-10-09 13:52:10</time>
      </trkpt>
      <trkpt lat="40.45052" lon="-2.00583">
        <ele>1473.2</ele>
        <time>2021-10-09 13:52:11</time>
      </trkpt>
      <trkpt lat="40.45047" lon="-2.0058">
        <ele>1473.8</ele>
        <time>2021-10-09 13:52:12</time>
      </trkpt>
      <trkpt lat="40.45042" lon="-2.00579">
        <ele>1473.6</ele>
        <time>2021-10-09 13:52:13</time>
      </trkpt>
      <trkpt lat="40.45038" lon="-2.00576">
        <ele>1473.6</ele>
        <time>2021-10-09 13:52:14</time>
      </trkpt>
      <trkpt lat="40.45033" lon="-2.00574">
        <ele>1473.6</ele>
        <time>2021-10-09 13:52:15</time>
      </trkpt>
      <trkpt lat="40.45029" lon="-2.00572">
        <ele>1473.6</ele>
        <time>2021-10-09 13:52:16</time>
      </trkpt>
      <trkpt lat="40.45024" lon="-2.00571">
        <ele>1473.8</ele>
        <time>2021-10-09 13:52:17</time>
      </trkpt>
      <trkpt lat="40.4502" lon="-2.00568">
        <ele>1473.8</ele>
        <time>2021-10-09 13:52:18</time>
      </trkpt>
      <trkpt lat="40.45015" lon="-2.00567">
        <ele>1474.2</ele>
        <time>2021-10-09 13:52:19</time>
      </trkpt>
      <trkpt lat="40.45011" lon="-2.00565">
        <ele>1474.2</ele>
        <time>2021-10-09 13:52:20</time>
      </trkpt>
      <trkpt lat="40.45006" lon="-2.00565">
        <ele>1474.2</ele>
        <time>2021-10-09 13:52:21</time>
      </trkpt>
      <trkpt lat="40.45001" lon="-2.00564">
        <ele>1474.2</ele>
        <time>2021-10-09 13:52:22</time>
      </trkpt>
      <trkpt lat="40.44996" lon="-2.00564">
        <ele>1474.6</ele>
        <time>2021-10-09 13:52:23</time>
      </trkpt>
      <trkpt lat="40.44991" lon="-2.00563">
        <ele>1474.6</ele>
        <time>2021-10-09 13:52:24</time>
      </trkpt>
      <trkpt lat="40.44987" lon="-2.00563">
        <ele>1474.6</ele>
        <time>2021-10-09 13:52:25</time>
      </trkpt>
      <trkpt lat="40.44981" lon="-2.00563">
        <ele>1474.6</ele>
        <time>2021-10-09 13:52:26</time>
      </trkpt>
      <trkpt lat="40.44976" lon="-2.00563">
        <ele>1474.6</ele>
        <time>2021-10-09 13:52:27</time>
      </trkpt>
      <trkpt lat="40.4497" lon="-2.00564">
        <ele>1474.6</ele>
        <time>2021-10-09 13:52:28</time>
      </trkpt>
      <trkpt lat="40.44965" lon="-2.00565">
        <ele>1474.8</ele>
        <time>2021-10-09 13:52:29</time>
      </trkpt>
      <trkpt lat="40.4496" lon="-2.00566">
        <ele>1474.8</ele>
        <time>2021-10-09 13:52:30</time>
      </trkpt>
      <trkpt lat="40.44954" lon="-2.00566">
        <ele>1474.8</ele>
        <time>2021-10-09 13:52:31</time>
      </trkpt>
      <trkpt lat="40.44949" lon="-2.00565">
        <ele>1474.8</ele>
        <time>2021-10-09 13:52:32</time>
      </trkpt>
      <trkpt lat="40.44943" lon="-2.00564">
        <ele>1474.8</ele>
        <time>2021-10-09 13:52:33</time>
      </trkpt>
      <trkpt lat="40.44937" lon="-2.00562">
        <ele>1475.2</ele>
        <time>2021-10-09 13:52:34</time>
      </trkpt>
      <trkpt lat="40.44932" lon="-2.00558">
        <ele>1475.2</ele>
        <time>2021-10-09 13:52:35</time>
      </trkpt>
      <trkpt lat="40.44927" lon="-2.00556">
        <ele>1475.4</ele>
        <time>2021-10-09 13:52:36</time>
      </trkpt>
      <trkpt lat="40.44924" lon="-2.00551">
        <ele>1475.4</ele>
        <time>2021-10-09 13:52:37</time>
      </trkpt>
      <trkpt lat="40.44921" lon="-2.00546">
        <ele>1475.4</ele>
        <time>2021-10-09 13:52:38</time>
      </trkpt>
      <trkpt lat="40.44918" lon="-2.00541">
        <ele>1475.4</ele>
        <time>2021-10-09 13:52:39</time>
      </trkpt>
      <trkpt lat="40.44916" lon="-2.00535">
        <ele>1475.4</ele>
        <time>2021-10-09 13:52:40</time>
      </trkpt>
      <trkpt lat="40.44914" lon="-2.0053">
        <ele>1475.4</ele>
        <time>2021-10-09 13:52:41</time>
      </trkpt>
      <trkpt lat="40.44912" lon="-2.00525">
        <ele>1475.4</ele>
        <time>2021-10-09 13:52:42</time>
      </trkpt>
      <trkpt lat="40.4491" lon="-2.00518">
        <ele>1475.4</ele>
        <time>2021-10-09 13:52:43</time>
      </trkpt>
      <trkpt lat="40.44907" lon="-2.00513">
        <ele>1475.4</ele>
        <time>2021-10-09 13:52:44</time>
      </trkpt>
      <trkpt lat="40.44903" lon="-2.00508">
        <ele>1475.4</ele>
        <time>2021-10-09 13:52:45</time>
      </trkpt>
      <trkpt lat="40.449" lon="-2.00504">
        <ele>1475.4</ele>
        <time>2021-10-09 13:52:46</time>
      </trkpt>
      <trkpt lat="40.44896" lon="-2.00499">
        <ele>1475.4</ele>
        <time>2021-10-09 13:52:47</time>
      </trkpt>
      <trkpt lat="40.44892" lon="-2.00495">
        <ele>1475.4</ele>
        <time>2021-10-09 13:52:48</time>
      </trkpt>
      <trkpt lat="40.44889" lon="-2.0049">
        <ele>1475.4</ele>
        <time>2021-10-09 13:52:49</time>
      </trkpt>
      <trkpt lat="40.44886" lon="-2.00486">
        <ele>1475.4</ele>
        <time>2021-10-09 13:52:50</time>
      </trkpt>
      <trkpt lat="40.44884" lon="-2.00481">
        <ele>1475.4</ele>
        <time>2021-10-09 13:52:51</time>
      </trkpt>
      <trkpt lat="40.44881" lon="-2.00476">
        <ele>1475.8</ele>
        <time>2021-10-09 13:52:52</time>
      </trkpt>
      <trkpt lat="40.44881" lon="-2.00474">
        <ele>1475.6</ele>
        <time>2021-10-09 13:52:53</time>
      </trkpt>
      <trkpt lat="40.44877" lon="-2.00468">
        <ele>1475.6</ele>
        <time>2021-10-09 13:52:54</time>
      </trkpt>
      <trkpt lat="40.44874" lon="-2.00463">
        <ele>1475.6</ele>
        <time>2021-10-09 13:52:55</time>
      </trkpt>
      <trkpt lat="40.4487" lon="-2.00458">
        <ele>1476</ele>
        <time>2021-10-09 13:52:56</time>
      </trkpt>
      <trkpt lat="40.44868" lon="-2.00455">
        <ele>1476</ele>
        <time>2021-10-09 13:52:57</time>
      </trkpt>
      <trkpt lat="40.44864" lon="-2.00452">
        <ele>1476.4</ele>
        <time>2021-10-09 13:52:58</time>
      </trkpt>
      <trkpt lat="40.44859" lon="-2.00448">
        <ele>1476.4</ele>
        <time>2021-10-09 13:52:59</time>
      </trkpt>
      <trkpt lat="40.44855" lon="-2.00446">
        <ele>1476.6</ele>
        <time>2021-10-09 13:53:00</time>
      </trkpt>
      <trkpt lat="40.44852" lon="-2.00443">
        <ele>1476.6</ele>
        <time>2021-10-09 13:53:01</time>
      </trkpt>
      <trkpt lat="40.44848" lon="-2.00441">
        <ele>1476.8</ele>
        <time>2021-10-09 13:53:02</time>
      </trkpt>
      <trkpt lat="40.44844" lon="-2.00438">
        <ele>1476.8</ele>
        <time>2021-10-09 13:53:03</time>
      </trkpt>
      <trkpt lat="40.44842" lon="-2.00436">
        <ele>1476.8</ele>
        <time>2021-10-09 13:53:04</time>
      </trkpt>
      <trkpt lat="40.44839" lon="-2.00435">
        <ele>1476.8</ele>
        <time>2021-10-09 13:53:05</time>
      </trkpt>
      <trkpt lat="40.44837" lon="-2.0043">
        <ele>1477</ele>
        <time>2021-10-09 13:53:06</time>
      </trkpt>
      <trkpt lat="40.44834" lon="-2.00427">
        <ele>1477</ele>
        <time>2021-10-09 13:53:07</time>
      </trkpt>
      <trkpt lat="40.44831" lon="-2.00423">
        <ele>1477.4</ele>
        <time>2021-10-09 13:53:08</time>
      </trkpt>
      <trkpt lat="40.44829" lon="-2.00419">
        <ele>1477.4</ele>
        <time>2021-10-09 13:53:09</time>
      </trkpt>
      <trkpt lat="40.44828" lon="-2.00416">
        <ele>1477.6</ele>
        <time>2021-10-09 13:53:10</time>
      </trkpt>
      <trkpt lat="40.44826" lon="-2.00412">
        <ele>1477.6</ele>
        <time>2021-10-09 13:53:11</time>
      </trkpt>
      <trkpt lat="40.44824" lon="-2.00407">
        <ele>1477.6</ele>
        <time>2021-10-09 13:53:12</time>
      </trkpt>
      <trkpt lat="40.44822" lon="-2.00403">
        <ele>1478</ele>
        <time>2021-10-09 13:53:13</time>
      </trkpt>
      <trkpt lat="40.44821" lon="-2.00399">
        <ele>1478</ele>
        <time>2021-10-09 13:53:14</time>
      </trkpt>
      <trkpt lat="40.44819" lon="-2.00395">
        <ele>1478.4</ele>
        <time>2021-10-09 13:53:15</time>
      </trkpt>
      <trkpt lat="40.44816" lon="-2.00392">
        <ele>1478.4</ele>
        <time>2021-10-09 13:53:16</time>
      </trkpt>
      <trkpt lat="40.44814" lon="-2.00389">
        <ele>1478.8</ele>
        <time>2021-10-09 13:53:17</time>
      </trkpt>
      <trkpt lat="40.44811" lon="-2.00386">
        <ele>1478.8</ele>
        <time>2021-10-09 13:53:18</time>
      </trkpt>
      <trkpt lat="40.44808" lon="-2.00383">
        <ele>1479</ele>
        <time>2021-10-09 13:53:19</time>
      </trkpt>
      <trkpt lat="40.44804" lon="-2.00381">
        <ele>1479</ele>
        <time>2021-10-09 13:53:20</time>
      </trkpt>
      <trkpt lat="40.448" lon="-2.00379">
        <ele>1479.4</ele>
        <time>2021-10-09 13:53:21</time>
      </trkpt>
      <trkpt lat="40.44796" lon="-2.00377">
        <ele>1479.8</ele>
        <time>2021-10-09 13:53:22</time>
      </trkpt>
      <trkpt lat="40.44793" lon="-2.00375">
        <ele>1479.8</ele>
        <time>2021-10-09 13:53:23</time>
      </trkpt>
      <trkpt lat="40.44789" lon="-2.00374">
        <ele>1479.8</ele>
        <time>2021-10-09 13:53:24</time>
      </trkpt>
      <trkpt lat="40.44785" lon="-2.00372">
        <ele>1480</ele>
        <time>2021-10-09 13:53:25</time>
      </trkpt>
      <trkpt lat="40.44782" lon="-2.00371">
        <ele>1480</ele>
        <time>2021-10-09 13:53:26</time>
      </trkpt>
      <trkpt lat="40.44778" lon="-2.00369">
        <ele>1480.2</ele>
        <time>2021-10-09 13:53:27</time>
      </trkpt>
      <trkpt lat="40.44775" lon="-2.00366">
        <ele>1480.4</ele>
        <time>2021-10-09 13:53:28</time>
      </trkpt>
      <trkpt lat="40.44772" lon="-2.00363">
        <ele>1480.4</ele>
        <time>2021-10-09 13:53:29</time>
      </trkpt>
      <trkpt lat="40.44768" lon="-2.00361">
        <ele>1480.4</ele>
        <time>2021-10-09 13:53:30</time>
      </trkpt>
      <trkpt lat="40.44765" lon="-2.00359">
        <ele>1480.4</ele>
        <time>2021-10-09 13:53:31</time>
      </trkpt>
      <trkpt lat="40.44762" lon="-2.00357">
        <ele>1480.6</ele>
        <time>2021-10-09 13:53:32</time>
      </trkpt>
      <trkpt lat="40.44759" lon="-2.00355">
        <ele>1480.6</ele>
        <time>2021-10-09 13:53:33</time>
      </trkpt>
      <trkpt lat="40.44755" lon="-2.00354">
        <ele>1480.6</ele>
        <time>2021-10-09 13:53:34</time>
      </trkpt>
      <trkpt lat="40.44752" lon="-2.00353">
        <ele>1481</ele>
        <time>2021-10-09 13:53:35</time>
      </trkpt>
      <trkpt lat="40.44748" lon="-2.00352">
        <ele>1481</ele>
        <time>2021-10-09 13:53:36</time>
      </trkpt>
      <trkpt lat="40.44745" lon="-2.00352">
        <ele>1481.4</ele>
        <time>2021-10-09 13:53:37</time>
      </trkpt>
      <trkpt lat="40.44742" lon="-2.00351">
        <ele>1481.6</ele>
        <time>2021-10-09 13:53:38</time>
      </trkpt>
      <trkpt lat="40.44738" lon="-2.00351">
        <ele>1481.6</ele>
        <time>2021-10-09 13:53:39</time>
      </trkpt>
      <trkpt lat="40.44735" lon="-2.00351">
        <ele>1481.8</ele>
        <time>2021-10-09 13:53:40</time>
      </trkpt>
      <trkpt lat="40.44731" lon="-2.00352">
        <ele>1481.8</ele>
        <time>2021-10-09 13:53:41</time>
      </trkpt>
      <trkpt lat="40.44727" lon="-2.00353">
        <ele>1482.2</ele>
        <time>2021-10-09 13:53:42</time>
      </trkpt>
      <trkpt lat="40.44724" lon="-2.00353">
        <ele>1482.2</ele>
        <time>2021-10-09 13:53:43</time>
      </trkpt>
      <trkpt lat="40.44721" lon="-2.00352">
        <ele>1482.4</ele>
        <time>2021-10-09 13:53:44</time>
      </trkpt>
      <trkpt lat="40.44717" lon="-2.00352">
        <ele>1482.4</ele>
        <time>2021-10-09 13:53:45</time>
      </trkpt>
      <trkpt lat="40.44713" lon="-2.00351">
        <ele>1482.6</ele>
        <time>2021-10-09 13:53:46</time>
      </trkpt>
      <trkpt lat="40.4471" lon="-2.00351">
        <ele>1482.8</ele>
        <time>2021-10-09 13:53:47</time>
      </trkpt>
      <trkpt lat="40.44706" lon="-2.0035">
        <ele>1482.8</ele>
        <time>2021-10-09 13:53:48</time>
      </trkpt>
      <trkpt lat="40.44703" lon="-2.00349">
        <ele>1483</ele>
        <time>2021-10-09 13:53:49</time>
      </trkpt>
      <trkpt lat="40.447" lon="-2.00347">
        <ele>1483</ele>
        <time>2021-10-09 13:53:50</time>
      </trkpt>
      <trkpt lat="40.44697" lon="-2.00345">
        <ele>1483.4</ele>
        <time>2021-10-09 13:53:51</time>
      </trkpt>
      <trkpt lat="40.44693" lon="-2.00344">
        <ele>1483.6</ele>
        <time>2021-10-09 13:53:52</time>
      </trkpt>
      <trkpt lat="40.44691" lon="-2.00343">
        <ele>1483.6</ele>
        <time>2021-10-09 13:53:53</time>
      </trkpt>
      <trkpt lat="40.44689" lon="-2.00341">
        <ele>1483.6</ele>
        <time>2021-10-09 13:53:54</time>
      </trkpt>
      <trkpt lat="40.44687" lon="-2.00339">
        <ele>1483.8</ele>
        <time>2021-10-09 13:53:55</time>
      </trkpt>
      <trkpt lat="40.44685" lon="-2.00337">
        <ele>1483.8</ele>
        <time>2021-10-09 13:53:56</time>
      </trkpt>
      <trkpt lat="40.44683" lon="-2.00336">
        <ele>1483.8</ele>
        <time>2021-10-09 13:53:57</time>
      </trkpt>
      <trkpt lat="40.44681" lon="-2.00335">
        <ele>1484.2</ele>
        <time>2021-10-09 13:53:58</time>
      </trkpt>
      <trkpt lat="40.44679" lon="-2.00334">
        <ele>1484.2</ele>
        <time>2021-10-09 13:53:59</time>
      </trkpt>
      <trkpt lat="40.44677" lon="-2.00332">
        <ele>1484.6</ele>
        <time>2021-10-09 13:54:00</time>
      </trkpt>
      <trkpt lat="40.44675" lon="-2.00331">
        <ele>1484.6</ele>
        <time>2021-10-09 13:54:01</time>
      </trkpt>
      <trkpt lat="40.44673" lon="-2.00329">
        <ele>1484.6</ele>
        <time>2021-10-09 13:54:02</time>
      </trkpt>
      <trkpt lat="40.44672" lon="-2.00327">
        <ele>1484.6</ele>
        <time>2021-10-09 13:54:03</time>
      </trkpt>
      <trkpt lat="40.4467" lon="-2.00326">
        <ele>1485</ele>
        <time>2021-10-09 13:54:04</time>
      </trkpt>
      <trkpt lat="40.44668" lon="-2.00325">
        <ele>1485</ele>
        <time>2021-10-09 13:54:05</time>
      </trkpt>
      <trkpt lat="40.44665" lon="-2.00325">
        <ele>1484.8</ele>
        <time>2021-10-09 13:54:06</time>
      </trkpt>
      <trkpt lat="40.44662" lon="-2.00325">
        <ele>1484.8</ele>
        <time>2021-10-09 13:54:07</time>
      </trkpt>
      <trkpt lat="40.4466" lon="-2.00324">
        <ele>1484.8</ele>
        <time>2021-10-09 13:54:08</time>
      </trkpt>
      <trkpt lat="40.44657" lon="-2.00324">
        <ele>1484.8</ele>
        <time>2021-10-09 13:54:09</time>
      </trkpt>
      <trkpt lat="40.44653" lon="-2.00325">
        <ele>1484.8</ele>
        <time>2021-10-09 13:54:10</time>
      </trkpt>
      <trkpt lat="40.4465" lon="-2.00325">
        <ele>1484.8</ele>
        <time>2021-10-09 13:54:11</time>
      </trkpt>
      <trkpt lat="40.44647" lon="-2.00325">
        <ele>1484.8</ele>
        <time>2021-10-09 13:54:12</time>
      </trkpt>
      <trkpt lat="40.44644" lon="-2.00325">
        <ele>1484.8</ele>
        <time>2021-10-09 13:54:13</time>
      </trkpt>
      <trkpt lat="40.44641" lon="-2.00324">
        <ele>1484.8</ele>
        <time>2021-10-09 13:54:14</time>
      </trkpt>
      <trkpt lat="40.44638" lon="-2.00324">
        <ele>1485</ele>
        <time>2021-10-09 13:54:15</time>
      </trkpt>
      <trkpt lat="40.44635" lon="-2.00323">
        <ele>1485</ele>
        <time>2021-10-09 13:54:16</time>
      </trkpt>
      <trkpt lat="40.44632" lon="-2.00322">
        <ele>1485</ele>
        <time>2021-10-09 13:54:17</time>
      </trkpt>
      <trkpt lat="40.4463" lon="-2.00322">
        <ele>1485</ele>
        <time>2021-10-09 13:54:18</time>
      </trkpt>
      <trkpt lat="40.44627" lon="-2.00321">
        <ele>1485</ele>
        <time>2021-10-09 13:54:19</time>
      </trkpt>
      <trkpt lat="40.44624" lon="-2.00321">
        <ele>1485.4</ele>
        <time>2021-10-09 13:54:20</time>
      </trkpt>
      <trkpt lat="40.44621" lon="-2.0032">
        <ele>1485.4</ele>
        <time>2021-10-09 13:54:21</time>
      </trkpt>
      <trkpt lat="40.44618" lon="-2.00319">
        <ele>1485.4</ele>
        <time>2021-10-09 13:54:22</time>
      </trkpt>
      <trkpt lat="40.44615" lon="-2.00317">
        <ele>1485.4</ele>
        <time>2021-10-09 13:54:23</time>
      </trkpt>
      <trkpt lat="40.44612" lon="-2.00315">
        <ele>1485.4</ele>
        <time>2021-10-09 13:54:24</time>
      </trkpt>
      <trkpt lat="40.44609" lon="-2.00313">
        <ele>1485.4</ele>
        <time>2021-10-09 13:54:25</time>
      </trkpt>
      <trkpt lat="40.44605" lon="-2.00311">
        <ele>1485.6</ele>
        <time>2021-10-09 13:54:26</time>
      </trkpt>
      <trkpt lat="40.44602" lon="-2.00309">
        <ele>1485.6</ele>
        <time>2021-10-09 13:54:27</time>
      </trkpt>
      <trkpt lat="40.44599" lon="-2.00306">
        <ele>1485.6</ele>
        <time>2021-10-09 13:54:28</time>
      </trkpt>
      <trkpt lat="40.44596" lon="-2.00304">
        <ele>1485.6</ele>
        <time>2021-10-09 13:54:29</time>
      </trkpt>
      <trkpt lat="40.44593" lon="-2.00301">
        <ele>1485.6</ele>
        <time>2021-10-09 13:54:30</time>
      </trkpt>
      <trkpt lat="40.4459" lon="-2.00299">
        <ele>1485.6</ele>
        <time>2021-10-09 13:54:31</time>
      </trkpt>
      <trkpt lat="40.44588" lon="-2.00296">
        <ele>1485.6</ele>
        <time>2021-10-09 13:54:32</time>
      </trkpt>
      <trkpt lat="40.44585" lon="-2.00294">
        <ele>1485.6</ele>
        <time>2021-10-09 13:54:33</time>
      </trkpt>
      <trkpt lat="40.44582" lon="-2.00291">
        <ele>1485.6</ele>
        <time>2021-10-09 13:54:34</time>
      </trkpt>
      <trkpt lat="40.44578" lon="-2.00289">
        <ele>1485.4</ele>
        <time>2021-10-09 13:54:35</time>
      </trkpt>
      <trkpt lat="40.44575" lon="-2.00284">
        <ele>1485.4</ele>
        <time>2021-10-09 13:54:36</time>
      </trkpt>
      <trkpt lat="40.44571" lon="-2.0028">
        <ele>1485</ele>
        <time>2021-10-09 13:54:37</time>
      </trkpt>
      <trkpt lat="40.44568" lon="-2.00278">
        <ele>1484.6</ele>
        <time>2021-10-09 13:54:38</time>
      </trkpt>
      <trkpt lat="40.44565" lon="-2.00274">
        <ele>1484.6</ele>
        <time>2021-10-09 13:54:39</time>
      </trkpt>
      <trkpt lat="40.44561" lon="-2.00271">
        <ele>1484.4</ele>
        <time>2021-10-09 13:54:40</time>
      </trkpt>
      <trkpt lat="40.44558" lon="-2.00267">
        <ele>1484.4</ele>
        <time>2021-10-09 13:54:41</time>
      </trkpt>
      <trkpt lat="40.44555" lon="-2.00264">
        <ele>1484</ele>
        <time>2021-10-09 13:54:42</time>
      </trkpt>
      <trkpt lat="40.44553" lon="-2.0026">
        <ele>1484</ele>
        <time>2021-10-09 13:54:43</time>
      </trkpt>
      <trkpt lat="40.44551" lon="-2.00258">
        <ele>1484</ele>
        <time>2021-10-09 13:54:44</time>
      </trkpt>
      <trkpt lat="40.44548" lon="-2.00254">
        <ele>1484</ele>
        <time>2021-10-09 13:54:45</time>
      </trkpt>
      <trkpt lat="40.44546" lon="-2.00251">
        <ele>1484.6</ele>
        <time>2021-10-09 13:54:46</time>
      </trkpt>
      <trkpt lat="40.44543" lon="-2.00248">
        <ele>1484.6</ele>
        <time>2021-10-09 13:54:47</time>
      </trkpt>
      <trkpt lat="40.4454" lon="-2.00246">
        <ele>1484.6</ele>
        <time>2021-10-09 13:54:48</time>
      </trkpt>
      <trkpt lat="40.44539" lon="-2.00244">
        <ele>1484.4</ele>
        <time>2021-10-09 13:54:49</time>
      </trkpt>
      <trkpt lat="40.44537" lon="-2.00242">
        <ele>1484.4</ele>
        <time>2021-10-09 13:54:50</time>
      </trkpt>
      <trkpt lat="40.44537" lon="-2.00241">
        <ele>1484.4</ele>
        <time>2021-10-09 13:54:51</time>
      </trkpt>
      <trkpt lat="40.44535" lon="-2.00239">
        <ele>1485</ele>
        <time>2021-10-09 13:54:52</time>
      </trkpt>
      <trkpt lat="40.44534" lon="-2.00236">
        <ele>1485</ele>
        <time>2021-10-09 13:54:53</time>
      </trkpt>
      <trkpt lat="40.44533" lon="-2.00235">
        <ele>1485</ele>
        <time>2021-10-09 13:54:54</time>
      </trkpt>
      <trkpt lat="40.44532" lon="-2.00233">
        <ele>1484.6</ele>
        <time>2021-10-09 13:54:55</time>
      </trkpt>
      <trkpt lat="40.44531" lon="-2.0023">
        <ele>1484.6</ele>
        <time>2021-10-09 13:54:56</time>
      </trkpt>
      <trkpt lat="40.44529" lon="-2.00226">
        <ele>1484.6</ele>
        <time>2021-10-09 13:54:57</time>
      </trkpt>
      <trkpt lat="40.44527" lon="-2.00222">
        <ele>1484.6</ele>
        <time>2021-10-09 13:54:58</time>
      </trkpt>
      <trkpt lat="40.44526" lon="-2.00219">
        <ele>1484.6</ele>
        <time>2021-10-09 13:54:59</time>
      </trkpt>
      <trkpt lat="40.44524" lon="-2.00216">
        <ele>1484.4</ele>
        <time>2021-10-09 13:55:00</time>
      </trkpt>
      <trkpt lat="40.44523" lon="-2.00213">
        <ele>1484.4</ele>
        <time>2021-10-09 13:55:01</time>
      </trkpt>
      <trkpt lat="40.44521" lon="-2.0021">
        <ele>1484.4</ele>
        <time>2021-10-09 13:55:02</time>
      </trkpt>
      <trkpt lat="40.44518" lon="-2.00208">
        <ele>1484.4</ele>
        <time>2021-10-09 13:55:03</time>
      </trkpt>
      <trkpt lat="40.44516" lon="-2.00205">
        <ele>1484.4</ele>
        <time>2021-10-09 13:55:04</time>
      </trkpt>
      <trkpt lat="40.44514" lon="-2.00202">
        <ele>1484.8</ele>
        <time>2021-10-09 13:55:05</time>
      </trkpt>
      <trkpt lat="40.44512" lon="-2.00199">
        <ele>1484.8</ele>
        <time>2021-10-09 13:55:06</time>
      </trkpt>
      <trkpt lat="40.4451" lon="-2.00195">
        <ele>1485</ele>
        <time>2021-10-09 13:55:07</time>
      </trkpt>
      <trkpt lat="40.44509" lon="-2.00192">
        <ele>1485</ele>
        <time>2021-10-09 13:55:08</time>
      </trkpt>
      <trkpt lat="40.44507" lon="-2.00189">
        <ele>1485.2</ele>
        <time>2021-10-09 13:55:09</time>
      </trkpt>
      <trkpt lat="40.44504" lon="-2.00186">
        <ele>1485.2</ele>
        <time>2021-10-09 13:55:10</time>
      </trkpt>
      <trkpt lat="40.44502" lon="-2.00183">
        <ele>1485.2</ele>
        <time>2021-10-09 13:55:11</time>
      </trkpt>
      <trkpt lat="40.44499" lon="-2.00179">
        <ele>1485.2</ele>
        <time>2021-10-09 13:55:12</time>
      </trkpt>
      <trkpt lat="40.44497" lon="-2.00176">
        <ele>1485.2</ele>
        <time>2021-10-09 13:55:13</time>
      </trkpt>
      <trkpt lat="40.44495" lon="-2.00173">
        <ele>1485.2</ele>
        <time>2021-10-09 13:55:14</time>
      </trkpt>
      <trkpt lat="40.44493" lon="-2.0017">
        <ele>1485.2</ele>
        <time>2021-10-09 13:55:15</time>
      </trkpt>
      <trkpt lat="40.44491" lon="-2.00166">
        <ele>1485.2</ele>
        <time>2021-10-09 13:55:16</time>
      </trkpt>
      <trkpt lat="40.44488" lon="-2.00162">
        <ele>1485.2</ele>
        <time>2021-10-09 13:55:17</time>
      </trkpt>
      <trkpt lat="40.44486" lon="-2.00158">
        <ele>1485.2</ele>
        <time>2021-10-09 13:55:18</time>
      </trkpt>
      <trkpt lat="40.44483" lon="-2.00154">
        <ele>1485.2</ele>
        <time>2021-10-09 13:55:19</time>
      </trkpt>
      <trkpt lat="40.44481" lon="-2.00151">
        <ele>1485.2</ele>
        <time>2021-10-09 13:55:20</time>
      </trkpt>
      <trkpt lat="40.44479" lon="-2.00148">
        <ele>1485.2</ele>
        <time>2021-10-09 13:55:21</time>
      </trkpt>
      <trkpt lat="40.44476" lon="-2.00145">
        <ele>1485.2</ele>
        <time>2021-10-09 13:55:22</time>
      </trkpt>
      <trkpt lat="40.44473" lon="-2.00141">
        <ele>1485.2</ele>
        <time>2021-10-09 13:55:23</time>
      </trkpt>
      <trkpt lat="40.44471" lon="-2.00138">
        <ele>1485.2</ele>
        <time>2021-10-09 13:55:24</time>
      </trkpt>
      <trkpt lat="40.44469" lon="-2.00134">
        <ele>1485.2</ele>
        <time>2021-10-09 13:55:25</time>
      </trkpt>
      <trkpt lat="40.44467" lon="-2.00131">
        <ele>1485.2</ele>
        <time>2021-10-09 13:55:26</time>
      </trkpt>
      <trkpt lat="40.44465" lon="-2.00127">
        <ele>1485.2</ele>
        <time>2021-10-09 13:55:27</time>
      </trkpt>
      <trkpt lat="40.44463" lon="-2.00124">
        <ele>1485.2</ele>
        <time>2021-10-09 13:55:28</time>
      </trkpt>
      <trkpt lat="40.4446" lon="-2.00121">
        <ele>1485.2</ele>
        <time>2021-10-09 13:55:29</time>
      </trkpt>
      <trkpt lat="40.44459" lon="-2.00118">
        <ele>1485.2</ele>
        <time>2021-10-09 13:55:30</time>
      </trkpt>
      <trkpt lat="40.44456" lon="-2.00115">
        <ele>1485.2</ele>
        <time>2021-10-09 13:55:31</time>
      </trkpt>
      <trkpt lat="40.44454" lon="-2.00112">
        <ele>1485.2</ele>
        <time>2021-10-09 13:55:32</time>
      </trkpt>
      <trkpt lat="40.44452" lon="-2.00108">
        <ele>1485.2</ele>
        <time>2021-10-09 13:55:33</time>
      </trkpt>
      <trkpt lat="40.44451" lon="-2.00103">
        <ele>1485.2</ele>
        <time>2021-10-09 13:55:34</time>
      </trkpt>
      <trkpt lat="40.44453" lon="-2.00099">
        <ele>1485.2</ele>
        <time>2021-10-09 13:55:35</time>
      </trkpt>
      <trkpt lat="40.44455" lon="-2.00095">
        <ele>1485.2</ele>
        <time>2021-10-09 13:55:36</time>
      </trkpt>
      <trkpt lat="40.44457" lon="-2.00092">
        <ele>1485.2</ele>
        <time>2021-10-09 13:55:37</time>
      </trkpt>
      <trkpt lat="40.44458" lon="-2.00088">
        <ele>1485.2</ele>
        <time>2021-10-09 13:55:38</time>
      </trkpt>
      <trkpt lat="40.44458" lon="-2.00084">
        <ele>1485.2</ele>
        <time>2021-10-09 13:55:39</time>
      </trkpt>
      <trkpt lat="40.44458" lon="-2.00081">
        <ele>1485.6</ele>
        <time>2021-10-09 13:55:40</time>
      </trkpt>
      <trkpt lat="40.44457" lon="-2.00078">
        <ele>1485.6</ele>
        <time>2021-10-09 13:55:41</time>
      </trkpt>
      <trkpt lat="40.44457" lon="-2.00076">
        <ele>1485.6</ele>
        <time>2021-10-09 13:55:42</time>
      </trkpt>
      <trkpt lat="40.44456" lon="-2.00073">
        <ele>1485.6</ele>
        <time>2021-10-09 13:55:43</time>
      </trkpt>
      <trkpt lat="40.44455" lon="-2.00071">
        <ele>1486</ele>
        <time>2021-10-09 13:55:44</time>
      </trkpt>
      <trkpt lat="40.44454" lon="-2.00069">
        <ele>1486.2</ele>
        <time>2021-10-09 13:55:45</time>
      </trkpt>
      <trkpt lat="40.44452" lon="-2.00067">
        <ele>1486.2</ele>
        <time>2021-10-09 13:55:46</time>
      </trkpt>
      <trkpt lat="40.44451" lon="-2.00064">
        <ele>1486.8</ele>
        <time>2021-10-09 13:55:47</time>
      </trkpt>
      <trkpt lat="40.44449" lon="-2.00062">
        <ele>1487</ele>
        <time>2021-10-09 13:55:48</time>
      </trkpt>
      <trkpt lat="40.44448" lon="-2.00061">
        <ele>1487.4</ele>
        <time>2021-10-09 13:55:49</time>
      </trkpt>
      <trkpt lat="40.44447" lon="-2.00059">
        <ele>1487.8</ele>
        <time>2021-10-09 13:55:50</time>
      </trkpt>
      <trkpt lat="40.44445" lon="-2.00057">
        <ele>1488.2</ele>
        <time>2021-10-09 13:55:51</time>
      </trkpt>
      <trkpt lat="40.44444" lon="-2.00055">
        <ele>1488.6</ele>
        <time>2021-10-09 13:55:52</time>
      </trkpt>
      <trkpt lat="40.44442" lon="-2.00053">
        <ele>1488.8</ele>
        <time>2021-10-09 13:55:53</time>
      </trkpt>
      <trkpt lat="40.4444" lon="-2.00051">
        <ele>1489.2</ele>
        <time>2021-10-09 13:55:54</time>
      </trkpt>
      <trkpt lat="40.44438" lon="-2.00049">
        <ele>1489.6</ele>
        <time>2021-10-09 13:55:55</time>
      </trkpt>
      <trkpt lat="40.44436" lon="-2.00048">
        <ele>1490</ele>
        <time>2021-10-09 13:55:56</time>
      </trkpt>
      <trkpt lat="40.44435" lon="-2.00047">
        <ele>1490.4</ele>
        <time>2021-10-09 13:55:57</time>
      </trkpt>
      <trkpt lat="40.44434" lon="-2.00044">
        <ele>1490.6</ele>
        <time>2021-10-09 13:55:58</time>
      </trkpt>
      <trkpt lat="40.44432" lon="-2.00042">
        <ele>1490.8</ele>
        <time>2021-10-09 13:55:59</time>
      </trkpt>
      <trkpt lat="40.44431" lon="-2.0004">
        <ele>1491.2</ele>
        <time>2021-10-09 13:56:00</time>
      </trkpt>
      <trkpt lat="40.44429" lon="-2.00037">
        <ele>1491.2</ele>
        <time>2021-10-09 13:56:01</time>
      </trkpt>
      <trkpt lat="40.44427" lon="-2.00036">
        <ele>1491.6</ele>
        <time>2021-10-09 13:56:02</time>
      </trkpt>
      <trkpt lat="40.44425" lon="-2.00034">
        <ele>1491.6</ele>
        <time>2021-10-09 13:56:03</time>
      </trkpt>
      <trkpt lat="40.44423" lon="-2.00031">
        <ele>1492</ele>
        <time>2021-10-09 13:56:04</time>
      </trkpt>
      <trkpt lat="40.44421" lon="-2.00029">
        <ele>1492</ele>
        <time>2021-10-09 13:56:05</time>
      </trkpt>
      <trkpt lat="40.44419" lon="-2.00028">
        <ele>1492.4</ele>
        <time>2021-10-09 13:56:06</time>
      </trkpt>
      <trkpt lat="40.44417" lon="-2.00027">
        <ele>1492.4</ele>
        <time>2021-10-09 13:56:07</time>
      </trkpt>
      <trkpt lat="40.44414" lon="-2.00026">
        <ele>1492.6</ele>
        <time>2021-10-09 13:56:08</time>
      </trkpt>
      <trkpt lat="40.44411" lon="-2.00026">
        <ele>1492.6</ele>
        <time>2021-10-09 13:56:09</time>
      </trkpt>
      <trkpt lat="40.44409" lon="-2.00025">
        <ele>1492.8</ele>
        <time>2021-10-09 13:56:10</time>
      </trkpt>
      <trkpt lat="40.44406" lon="-2.00026">
        <ele>1492.8</ele>
        <time>2021-10-09 13:56:11</time>
      </trkpt>
      <trkpt lat="40.44404" lon="-2.00026">
        <ele>1492.8</ele>
        <time>2021-10-09 13:56:12</time>
      </trkpt>
      <trkpt lat="40.44401" lon="-2.00026">
        <ele>1493</ele>
        <time>2021-10-09 13:56:13</time>
      </trkpt>
      <trkpt lat="40.44398" lon="-2.00027">
        <ele>1493</ele>
        <time>2021-10-09 13:56:14</time>
      </trkpt>
      <trkpt lat="40.44395" lon="-2.00027">
        <ele>1493</ele>
        <time>2021-10-09 13:56:15</time>
      </trkpt>
      <trkpt lat="40.44392" lon="-2.00026">
        <ele>1493</ele>
        <time>2021-10-09 13:56:16</time>
      </trkpt>
      <trkpt lat="40.44389" lon="-2.00025">
        <ele>1493.4</ele>
        <time>2021-10-09 13:56:17</time>
      </trkpt>
      <trkpt lat="40.44387" lon="-2.00024">
        <ele>1493.4</ele>
        <time>2021-10-09 13:56:18</time>
      </trkpt>
      <trkpt lat="40.44385" lon="-2.00023">
        <ele>1493.4</ele>
        <time>2021-10-09 13:56:19</time>
      </trkpt>
      <trkpt lat="40.44383" lon="-2.00023">
        <ele>1493.8</ele>
        <time>2021-10-09 13:56:20</time>
      </trkpt>
      <trkpt lat="40.44381" lon="-2.00022">
        <ele>1493.6</ele>
        <time>2021-10-09 13:56:21</time>
      </trkpt>
      <trkpt lat="40.44379" lon="-2.0002">
        <ele>1493.6</ele>
        <time>2021-10-09 13:56:22</time>
      </trkpt>
      <trkpt lat="40.44377" lon="-2.00018">
        <ele>1493.6</ele>
        <time>2021-10-09 13:56:23</time>
      </trkpt>
      <trkpt lat="40.44375" lon="-2.00016">
        <ele>1493.6</ele>
        <time>2021-10-09 13:56:24</time>
      </trkpt>
      <trkpt lat="40.44373" lon="-2.00013">
        <ele>1493.6</ele>
        <time>2021-10-09 13:56:25</time>
      </trkpt>
      <trkpt lat="40.44372" lon="-2.00011">
        <ele>1493.6</ele>
        <time>2021-10-09 13:56:26</time>
      </trkpt>
      <trkpt lat="40.44371" lon="-2.00008">
        <ele>1494.4</ele>
        <time>2021-10-09 13:56:27</time>
      </trkpt>
      <trkpt lat="40.4437" lon="-2.00006">
        <ele>1494.4</ele>
        <time>2021-10-09 13:56:28</time>
      </trkpt>
      <trkpt lat="40.44368" lon="-2.00003">
        <ele>1494.4</ele>
        <time>2021-10-09 13:56:29</time>
      </trkpt>
      <trkpt lat="40.44367" lon="-2">
        <ele>1494.6</ele>
        <time>2021-10-09 13:56:30</time>
      </trkpt>
      <trkpt lat="40.44365" lon="-1.99997">
        <ele>1494.6</ele>
        <time>2021-10-09 13:56:31</time>
      </trkpt>
      <trkpt lat="40.44364" lon="-1.99995">
        <ele>1494.8</ele>
        <time>2021-10-09 13:56:32</time>
      </trkpt>
      <trkpt lat="40.44362" lon="-1.99992">
        <ele>1494.8</ele>
        <time>2021-10-09 13:56:33</time>
      </trkpt>
      <trkpt lat="40.44361" lon="-1.99989">
        <ele>1495.2</ele>
        <time>2021-10-09 13:56:34</time>
      </trkpt>
      <trkpt lat="40.4436" lon="-1.99986">
        <ele>1495.2</ele>
        <time>2021-10-09 13:56:35</time>
      </trkpt>
      <trkpt lat="40.44359" lon="-1.99983">
        <ele>1495.4</ele>
        <time>2021-10-09 13:56:36</time>
      </trkpt>
      <trkpt lat="40.44359" lon="-1.99979">
        <ele>1495.4</ele>
        <time>2021-10-09 13:56:37</time>
      </trkpt>
      <trkpt lat="40.44359" lon="-1.99976">
        <ele>1495.6</ele>
        <time>2021-10-09 13:56:38</time>
      </trkpt>
      <trkpt lat="40.44359" lon="-1.99973">
        <ele>1495.6</ele>
        <time>2021-10-09 13:56:39</time>
      </trkpt>
      <trkpt lat="40.4436" lon="-1.9997">
        <ele>1495.6</ele>
        <time>2021-10-09 13:56:40</time>
      </trkpt>
      <trkpt lat="40.44361" lon="-1.99967">
        <ele>1495.6</ele>
        <time>2021-10-09 13:56:41</time>
      </trkpt>
      <trkpt lat="40.44361" lon="-1.99963">
        <ele>1495.6</ele>
        <time>2021-10-09 13:56:42</time>
      </trkpt>
      <trkpt lat="40.44362" lon="-1.9996">
        <ele>1495.6</ele>
        <time>2021-10-09 13:56:43</time>
      </trkpt>
      <trkpt lat="40.44362" lon="-1.99957">
        <ele>1495.6</ele>
        <time>2021-10-09 13:56:44</time>
      </trkpt>
      <trkpt lat="40.44362" lon="-1.99954">
        <ele>1495.8</ele>
        <time>2021-10-09 13:56:45</time>
      </trkpt>
      <trkpt lat="40.44362" lon="-1.99951">
        <ele>1495.8</ele>
        <time>2021-10-09 13:56:46</time>
      </trkpt>
      <trkpt lat="40.44362" lon="-1.99948">
        <ele>1496</ele>
        <time>2021-10-09 13:56:47</time>
      </trkpt>
      <trkpt lat="40.44362" lon="-1.99945">
        <ele>1496</ele>
        <time>2021-10-09 13:56:48</time>
      </trkpt>
      <trkpt lat="40.44362" lon="-1.99942">
        <ele>1496.4</ele>
        <time>2021-10-09 13:56:49</time>
      </trkpt>
      <trkpt lat="40.44362" lon="-1.9994">
        <ele>1496.4</ele>
        <time>2021-10-09 13:56:50</time>
      </trkpt>
      <trkpt lat="40.44362" lon="-1.99937">
        <ele>1496.4</ele>
        <time>2021-10-09 13:56:51</time>
      </trkpt>
      <trkpt lat="40.44363" lon="-1.99935">
        <ele>1496.4</ele>
        <time>2021-10-09 13:56:52</time>
      </trkpt>
      <trkpt lat="40.44363" lon="-1.99933">
        <ele>1496.8</ele>
        <time>2021-10-09 13:56:53</time>
      </trkpt>
      <trkpt lat="40.44363" lon="-1.99931">
        <ele>1496.8</ele>
        <time>2021-10-09 13:56:54</time>
      </trkpt>
      <trkpt lat="40.44363" lon="-1.99928">
        <ele>1497.2</ele>
        <time>2021-10-09 13:56:55</time>
      </trkpt>
      <trkpt lat="40.44362" lon="-1.99925">
        <ele>1497.4</ele>
        <time>2021-10-09 13:56:56</time>
      </trkpt>
      <trkpt lat="40.44361" lon="-1.99924">
        <ele>1497.4</ele>
        <time>2021-10-09 13:56:57</time>
      </trkpt>
      <trkpt lat="40.44361" lon="-1.99922">
        <ele>1498</ele>
        <time>2021-10-09 13:56:58</time>
      </trkpt>
      <trkpt lat="40.4436" lon="-1.99919">
        <ele>1498.2</ele>
        <time>2021-10-09 13:56:59</time>
      </trkpt>
      <trkpt lat="40.44359" lon="-1.99918">
        <ele>1498.2</ele>
        <time>2021-10-09 13:57:00</time>
      </trkpt>
      <trkpt lat="40.44359" lon="-1.99915">
        <ele>1498.6</ele>
        <time>2021-10-09 13:57:01</time>
      </trkpt>
      <trkpt lat="40.44357" lon="-1.99912">
        <ele>1498.6</ele>
        <time>2021-10-09 13:57:02</time>
      </trkpt>
      <trkpt lat="40.44356" lon="-1.9991">
        <ele>1498.8</ele>
        <time>2021-10-09 13:57:03</time>
      </trkpt>
      <trkpt lat="40.44355" lon="-1.99907">
        <ele>1498.8</ele>
        <time>2021-10-09 13:57:04</time>
      </trkpt>
      <trkpt lat="40.44354" lon="-1.99904">
        <ele>1498.8</ele>
        <time>2021-10-09 13:57:05</time>
      </trkpt>
      <trkpt lat="40.44353" lon="-1.99902">
        <ele>1499</ele>
        <time>2021-10-09 13:57:06</time>
      </trkpt>
      <trkpt lat="40.44351" lon="-1.999">
        <ele>1499</ele>
        <time>2021-10-09 13:57:07</time>
      </trkpt>
      <trkpt lat="40.44349" lon="-1.99897">
        <ele>1499.4</ele>
        <time>2021-10-09 13:57:08</time>
      </trkpt>
      <trkpt lat="40.44348" lon="-1.99895">
        <ele>1499.4</ele>
        <time>2021-10-09 13:57:09</time>
      </trkpt>
      <trkpt lat="40.44347" lon="-1.99893">
        <ele>1499.8</ele>
        <time>2021-10-09 13:57:10</time>
      </trkpt>
      <trkpt lat="40.44346" lon="-1.99891">
        <ele>1499.8</ele>
        <time>2021-10-09 13:57:11</time>
      </trkpt>
      <trkpt lat="40.44345" lon="-1.99888">
        <ele>1500</ele>
        <time>2021-10-09 13:57:12</time>
      </trkpt>
      <trkpt lat="40.44344" lon="-1.99886">
        <ele>1500</ele>
        <time>2021-10-09 13:57:13</time>
      </trkpt>
      <trkpt lat="40.44343" lon="-1.99883">
        <ele>1500</ele>
        <time>2021-10-09 13:57:14</time>
      </trkpt>
      <trkpt lat="40.44342" lon="-1.9988">
        <ele>1500</ele>
        <time>2021-10-09 13:57:15</time>
      </trkpt>
      <trkpt lat="40.44341" lon="-1.99878">
        <ele>1500.2</ele>
        <time>2021-10-09 13:57:16</time>
      </trkpt>
      <trkpt lat="40.4434" lon="-1.99876">
        <ele>1500.2</ele>
        <time>2021-10-09 13:57:17</time>
      </trkpt>
      <trkpt lat="40.44339" lon="-1.99874">
        <ele>1500.2</ele>
        <time>2021-10-09 13:57:18</time>
      </trkpt>
      <trkpt lat="40.44339" lon="-1.99871">
        <ele>1500.2</ele>
        <time>2021-10-09 13:57:19</time>
      </trkpt>
      <trkpt lat="40.44338" lon="-1.99869">
        <ele>1500.4</ele>
        <time>2021-10-09 13:57:20</time>
      </trkpt>
      <trkpt lat="40.44337" lon="-1.99867">
        <ele>1500.6</ele>
        <time>2021-10-09 13:57:21</time>
      </trkpt>
      <trkpt lat="40.44336" lon="-1.99864">
        <ele>1500.6</ele>
        <time>2021-10-09 13:57:22</time>
      </trkpt>
      <trkpt lat="40.44335" lon="-1.99861">
        <ele>1500.6</ele>
        <time>2021-10-09 13:57:23</time>
      </trkpt>
      <trkpt lat="40.44335" lon="-1.99859">
        <ele>1501</ele>
        <time>2021-10-09 13:57:24</time>
      </trkpt>
      <trkpt lat="40.44334" lon="-1.99856">
        <ele>1501</ele>
        <time>2021-10-09 13:57:25</time>
      </trkpt>
      <trkpt lat="40.44334" lon="-1.99854">
        <ele>1501</ele>
        <time>2021-10-09 13:57:26</time>
      </trkpt>
      <trkpt lat="40.44333" lon="-1.99852">
        <ele>1501.2</ele>
        <time>2021-10-09 13:57:27</time>
      </trkpt>
      <trkpt lat="40.44331" lon="-1.9985">
        <ele>1501.4</ele>
        <time>2021-10-09 13:57:28</time>
      </trkpt>
      <trkpt lat="40.44329" lon="-1.99848">
        <ele>1501.6</ele>
        <time>2021-10-09 13:57:29</time>
      </trkpt>
      <trkpt lat="40.44327" lon="-1.99846">
        <ele>1501.6</ele>
        <time>2021-10-09 13:57:30</time>
      </trkpt>
      <trkpt lat="40.44325" lon="-1.99845">
        <ele>1502</ele>
        <time>2021-10-09 13:57:31</time>
      </trkpt>
      <trkpt lat="40.44324" lon="-1.99844">
        <ele>1502.2</ele>
        <time>2021-10-09 13:57:32</time>
      </trkpt>
      <trkpt lat="40.44322" lon="-1.99843">
        <ele>1502.2</ele>
        <time>2021-10-09 13:57:33</time>
      </trkpt>
      <trkpt lat="40.4432" lon="-1.99842">
        <ele>1502.4</ele>
        <time>2021-10-09 13:57:34</time>
      </trkpt>
      <trkpt lat="40.44318" lon="-1.9984">
        <ele>1502.4</ele>
        <time>2021-10-09 13:57:35</time>
      </trkpt>
      <trkpt lat="40.44315" lon="-1.99839">
        <ele>1502.8</ele>
        <time>2021-10-09 13:57:36</time>
      </trkpt>
      <trkpt lat="40.44313" lon="-1.99838">
        <ele>1502.8</ele>
        <time>2021-10-09 13:57:37</time>
      </trkpt>
      <trkpt lat="40.44311" lon="-1.99837">
        <ele>1503</ele>
        <time>2021-10-09 13:57:38</time>
      </trkpt>
      <trkpt lat="40.44308" lon="-1.99836">
        <ele>1503.4</ele>
        <time>2021-10-09 13:57:39</time>
      </trkpt>
      <trkpt lat="40.44306" lon="-1.99835">
        <ele>1503.6</ele>
        <time>2021-10-09 13:57:40</time>
      </trkpt>
      <trkpt lat="40.44304" lon="-1.99834">
        <ele>1503.6</ele>
        <time>2021-10-09 13:57:41</time>
      </trkpt>
      <trkpt lat="40.44302" lon="-1.99833">
        <ele>1503.6</ele>
        <time>2021-10-09 13:57:42</time>
      </trkpt>
      <trkpt lat="40.443" lon="-1.99832">
        <ele>1503.6</ele>
        <time>2021-10-09 13:57:43</time>
      </trkpt>
      <trkpt lat="40.44298" lon="-1.9983">
        <ele>1503.8</ele>
        <time>2021-10-09 13:57:44</time>
      </trkpt>
      <trkpt lat="40.44296" lon="-1.99829">
        <ele>1503.8</ele>
        <time>2021-10-09 13:57:45</time>
      </trkpt>
      <trkpt lat="40.44294" lon="-1.99827">
        <ele>1504.2</ele>
        <time>2021-10-09 13:57:46</time>
      </trkpt>
      <trkpt lat="40.44292" lon="-1.99826">
        <ele>1504.2</ele>
        <time>2021-10-09 13:57:47</time>
      </trkpt>
      <trkpt lat="40.4429" lon="-1.99825">
        <ele>1504.2</ele>
        <time>2021-10-09 13:57:48</time>
      </trkpt>
      <trkpt lat="40.44287" lon="-1.99824">
        <ele>1504.4</ele>
        <time>2021-10-09 13:57:49</time>
      </trkpt>
      <trkpt lat="40.44285" lon="-1.99822">
        <ele>1504.4</ele>
        <time>2021-10-09 13:57:50</time>
      </trkpt>
      <trkpt lat="40.44283" lon="-1.99821">
        <ele>1504.8</ele>
        <time>2021-10-09 13:57:51</time>
      </trkpt>
      <trkpt lat="40.4428" lon="-1.9982">
        <ele>1504.8</ele>
        <time>2021-10-09 13:57:52</time>
      </trkpt>
      <trkpt lat="40.44278" lon="-1.99818">
        <ele>1504.8</ele>
        <time>2021-10-09 13:57:53</time>
      </trkpt>
      <trkpt lat="40.44276" lon="-1.99816">
        <ele>1504.8</ele>
        <time>2021-10-09 13:57:54</time>
      </trkpt>
      <trkpt lat="40.44274" lon="-1.99815">
        <ele>1505.2</ele>
        <time>2021-10-09 13:57:55</time>
      </trkpt>
      <trkpt lat="40.44271" lon="-1.99814">
        <ele>1505.2</ele>
        <time>2021-10-09 13:57:56</time>
      </trkpt>
      <trkpt lat="40.44268" lon="-1.99813">
        <ele>1505.2</ele>
        <time>2021-10-09 13:57:57</time>
      </trkpt>
      <trkpt lat="40.44265" lon="-1.99811">
        <ele>1505.2</ele>
        <time>2021-10-09 13:57:58</time>
      </trkpt>
      <trkpt lat="40.44263" lon="-1.9981">
        <ele>1505.2</ele>
        <time>2021-10-09 13:57:59</time>
      </trkpt>
      <trkpt lat="40.4426" lon="-1.99808">
        <ele>1505.2</ele>
        <time>2021-10-09 13:58:00</time>
      </trkpt>
      <trkpt lat="40.44257" lon="-1.99805">
        <ele>1505.4</ele>
        <time>2021-10-09 13:58:01</time>
      </trkpt>
      <trkpt lat="40.44255" lon="-1.99803">
        <ele>1505.8</ele>
        <time>2021-10-09 13:58:02</time>
      </trkpt>
      <trkpt lat="40.44252" lon="-1.99801">
        <ele>1505.8</ele>
        <time>2021-10-09 13:58:03</time>
      </trkpt>
      <trkpt lat="40.4425" lon="-1.99799">
        <ele>1505.8</ele>
        <time>2021-10-09 13:58:04</time>
      </trkpt>
      <trkpt lat="40.44247" lon="-1.99797">
        <ele>1506</ele>
        <time>2021-10-09 13:58:05</time>
      </trkpt>
      <trkpt lat="40.44244" lon="-1.99795">
        <ele>1506</ele>
        <time>2021-10-09 13:58:06</time>
      </trkpt>
      <trkpt lat="40.44242" lon="-1.99793">
        <ele>1506</ele>
        <time>2021-10-09 13:58:07</time>
      </trkpt>
      <trkpt lat="40.44239" lon="-1.99791">
        <ele>1506</ele>
        <time>2021-10-09 13:58:08</time>
      </trkpt>
      <trkpt lat="40.44236" lon="-1.99789">
        <ele>1506.2</ele>
        <time>2021-10-09 13:58:09</time>
      </trkpt>
      <trkpt lat="40.44233" lon="-1.99787">
        <ele>1506.2</ele>
        <time>2021-10-09 13:58:10</time>
      </trkpt>
      <trkpt lat="40.4423" lon="-1.99784">
        <ele>1506.2</ele>
        <time>2021-10-09 13:58:11</time>
      </trkpt>
      <trkpt lat="40.44227" lon="-1.99782">
        <ele>1506.2</ele>
        <time>2021-10-09 13:58:12</time>
      </trkpt>
      <trkpt lat="40.44225" lon="-1.9978">
        <ele>1506.4</ele>
        <time>2021-10-09 13:58:13</time>
      </trkpt>
      <trkpt lat="40.44222" lon="-1.99778">
        <ele>1506.4</ele>
        <time>2021-10-09 13:58:14</time>
      </trkpt>
      <trkpt lat="40.44218" lon="-1.99776">
        <ele>1506.6</ele>
        <time>2021-10-09 13:58:15</time>
      </trkpt>
      <trkpt lat="40.44215" lon="-1.99773">
        <ele>1506.6</ele>
        <time>2021-10-09 13:58:16</time>
      </trkpt>
      <trkpt lat="40.44213" lon="-1.99771">
        <ele>1506.6</ele>
        <time>2021-10-09 13:58:17</time>
      </trkpt>
      <trkpt lat="40.4421" lon="-1.99768">
        <ele>1506.6</ele>
        <time>2021-10-09 13:58:18</time>
      </trkpt>
      <trkpt lat="40.44207" lon="-1.99765">
        <ele>1507</ele>
        <time>2021-10-09 13:58:19</time>
      </trkpt>
      <trkpt lat="40.44204" lon="-1.99761">
        <ele>1507</ele>
        <time>2021-10-09 13:58:20</time>
      </trkpt>
      <trkpt lat="40.44202" lon="-1.99758">
        <ele>1507</ele>
        <time>2021-10-09 13:58:21</time>
      </trkpt>
      <trkpt lat="40.442" lon="-1.99755">
        <ele>1507.2</ele>
        <time>2021-10-09 13:58:22</time>
      </trkpt>
      <trkpt lat="40.44197" lon="-1.99752">
        <ele>1507.2</ele>
        <time>2021-10-09 13:58:23</time>
      </trkpt>
      <trkpt lat="40.44195" lon="-1.99748">
        <ele>1507.6</ele>
        <time>2021-10-09 13:58:24</time>
      </trkpt>
      <trkpt lat="40.44193" lon="-1.99744">
        <ele>1507.6</ele>
        <time>2021-10-09 13:58:25</time>
      </trkpt>
      <trkpt lat="40.44191" lon="-1.99741">
        <ele>1507.6</ele>
        <time>2021-10-09 13:58:26</time>
      </trkpt>
      <trkpt lat="40.44189" lon="-1.99738">
        <ele>1508.2</ele>
        <time>2021-10-09 13:58:27</time>
      </trkpt>
      <trkpt lat="40.44186" lon="-1.99735">
        <ele>1508.2</ele>
        <time>2021-10-09 13:58:28</time>
      </trkpt>
      <trkpt lat="40.44184" lon="-1.99732">
        <ele>1508.2</ele>
        <time>2021-10-09 13:58:29</time>
      </trkpt>
      <trkpt lat="40.44182" lon="-1.99729">
        <ele>1508.2</ele>
        <time>2021-10-09 13:58:30</time>
      </trkpt>
      <trkpt lat="40.44181" lon="-1.99727">
        <ele>1508.4</ele>
        <time>2021-10-09 13:58:31</time>
      </trkpt>
      <trkpt lat="40.44179" lon="-1.99724">
        <ele>1508.4</ele>
        <time>2021-10-09 13:58:32</time>
      </trkpt>
      <trkpt lat="40.44178" lon="-1.99721">
        <ele>1508.4</ele>
        <time>2021-10-09 13:58:33</time>
      </trkpt>
      <trkpt lat="40.44176" lon="-1.99718">
        <ele>1508.4</ele>
        <time>2021-10-09 13:58:34</time>
      </trkpt>
      <trkpt lat="40.44175" lon="-1.99715">
        <ele>1508.6</ele>
        <time>2021-10-09 13:58:35</time>
      </trkpt>
      <trkpt lat="40.44174" lon="-1.99712">
        <ele>1508.8</ele>
        <time>2021-10-09 13:58:36</time>
      </trkpt>
      <trkpt lat="40.44173" lon="-1.9971">
        <ele>1508.8</ele>
        <time>2021-10-09 13:58:37</time>
      </trkpt>
      <trkpt lat="40.44171" lon="-1.99707">
        <ele>1509.2</ele>
        <time>2021-10-09 13:58:38</time>
      </trkpt>
      <trkpt lat="40.4417" lon="-1.99703">
        <ele>1509.2</ele>
        <time>2021-10-09 13:58:39</time>
      </trkpt>
      <trkpt lat="40.44168" lon="-1.997">
        <ele>1509.6</ele>
        <time>2021-10-09 13:58:40</time>
      </trkpt>
      <trkpt lat="40.44167" lon="-1.99697">
        <ele>1509.6</ele>
        <time>2021-10-09 13:58:41</time>
      </trkpt>
      <trkpt lat="40.44165" lon="-1.99694">
        <ele>1509.8</ele>
        <time>2021-10-09 13:58:42</time>
      </trkpt>
      <trkpt lat="40.44164" lon="-1.9969">
        <ele>1510</ele>
        <time>2021-10-09 13:58:43</time>
      </trkpt>
      <trkpt lat="40.44163" lon="-1.99687">
        <ele>1510</ele>
        <time>2021-10-09 13:58:44</time>
      </trkpt>
      <trkpt lat="40.44161" lon="-1.99684">
        <ele>1510</ele>
        <time>2021-10-09 13:58:45</time>
      </trkpt>
      <trkpt lat="40.4416" lon="-1.9968">
        <ele>1510.2</ele>
        <time>2021-10-09 13:58:46</time>
      </trkpt>
      <trkpt lat="40.44159" lon="-1.99676">
        <ele>1510.2</ele>
        <time>2021-10-09 13:58:47</time>
      </trkpt>
      <trkpt lat="40.44158" lon="-1.99673">
        <ele>1510.6</ele>
        <time>2021-10-09 13:58:48</time>
      </trkpt>
      <trkpt lat="40.44157" lon="-1.9967">
        <ele>1510.6</ele>
        <time>2021-10-09 13:58:49</time>
      </trkpt>
      <trkpt lat="40.44155" lon="-1.99667">
        <ele>1510.6</ele>
        <time>2021-10-09 13:58:50</time>
      </trkpt>
      <trkpt lat="40.44154" lon="-1.99663">
        <ele>1510.8</ele>
        <time>2021-10-09 13:58:51</time>
      </trkpt>
      <trkpt lat="40.44153" lon="-1.9966">
        <ele>1510.8</ele>
        <time>2021-10-09 13:58:52</time>
      </trkpt>
      <trkpt lat="40.44152" lon="-1.99657">
        <ele>1510.8</ele>
        <time>2021-10-09 13:58:53</time>
      </trkpt>
      <trkpt lat="40.44151" lon="-1.99653">
        <ele>1511.2</ele>
        <time>2021-10-09 13:58:54</time>
      </trkpt>
      <trkpt lat="40.4415" lon="-1.9965">
        <ele>1511.2</ele>
        <time>2021-10-09 13:58:55</time>
      </trkpt>
      <trkpt lat="40.44148" lon="-1.99647">
        <ele>1511.4</ele>
        <time>2021-10-09 13:58:56</time>
      </trkpt>
      <trkpt lat="40.44147" lon="-1.99643">
        <ele>1511.4</ele>
        <time>2021-10-09 13:58:57</time>
      </trkpt>
      <trkpt lat="40.44146" lon="-1.99639">
        <ele>1511.4</ele>
        <time>2021-10-09 13:58:58</time>
      </trkpt>
      <trkpt lat="40.44145" lon="-1.99636">
        <ele>1511.8</ele>
        <time>2021-10-09 13:58:59</time>
      </trkpt>
      <trkpt lat="40.44144" lon="-1.99632">
        <ele>1511.8</ele>
        <time>2021-10-09 13:59:00</time>
      </trkpt>
      <trkpt lat="40.44142" lon="-1.99628">
        <ele>1511.8</ele>
        <time>2021-10-09 13:59:01</time>
      </trkpt>
      <trkpt lat="40.44141" lon="-1.99624">
        <ele>1511.8</ele>
        <time>2021-10-09 13:59:02</time>
      </trkpt>
      <trkpt lat="40.4414" lon="-1.99621">
        <ele>1511.8</ele>
        <time>2021-10-09 13:59:03</time>
      </trkpt>
      <trkpt lat="40.44139" lon="-1.99617">
        <ele>1512.6</ele>
        <time>2021-10-09 13:59:04</time>
      </trkpt>
      <trkpt lat="40.44137" lon="-1.99613">
        <ele>1512.6</ele>
        <time>2021-10-09 13:59:05</time>
      </trkpt>
      <trkpt lat="40.44136" lon="-1.9961">
        <ele>1512.6</ele>
        <time>2021-10-09 13:59:06</time>
      </trkpt>
      <trkpt lat="40.44135" lon="-1.99606">
        <ele>1512.6</ele>
        <time>2021-10-09 13:59:07</time>
      </trkpt>
      <trkpt lat="40.44134" lon="-1.99602">
        <ele>1512.6</ele>
        <time>2021-10-09 13:59:08</time>
      </trkpt>
      <trkpt lat="40.44132" lon="-1.99599">
        <ele>1512.6</ele>
        <time>2021-10-09 13:59:09</time>
      </trkpt>
      <trkpt lat="40.44131" lon="-1.99595">
        <ele>1512.6</ele>
        <time>2021-10-09 13:59:10</time>
      </trkpt>
      <trkpt lat="40.4413" lon="-1.99592">
        <ele>1512.8</ele>
        <time>2021-10-09 13:59:11</time>
      </trkpt>
      <trkpt lat="40.44128" lon="-1.99589">
        <ele>1512.8</ele>
        <time>2021-10-09 13:59:12</time>
      </trkpt>
      <trkpt lat="40.44127" lon="-1.99585">
        <ele>1513.2</ele>
        <time>2021-10-09 13:59:13</time>
      </trkpt>
      <trkpt lat="40.44126" lon="-1.99581">
        <ele>1513.2</ele>
        <time>2021-10-09 13:59:14</time>
      </trkpt>
      <trkpt lat="40.44125" lon="-1.99578">
        <ele>1513.4</ele>
        <time>2021-10-09 13:59:15</time>
      </trkpt>
      <trkpt lat="40.44124" lon="-1.99574">
        <ele>1513.4</ele>
        <time>2021-10-09 13:59:16</time>
      </trkpt>
      <trkpt lat="40.44122" lon="-1.9957">
        <ele>1513.4</ele>
        <time>2021-10-09 13:59:17</time>
      </trkpt>
      <trkpt lat="40.44121" lon="-1.99566">
        <ele>1513.8</ele>
        <time>2021-10-09 13:59:18</time>
      </trkpt>
      <trkpt lat="40.4412" lon="-1.99562">
        <ele>1513.8</ele>
        <time>2021-10-09 13:59:19</time>
      </trkpt>
      <trkpt lat="40.44119" lon="-1.99559">
        <ele>1514.2</ele>
        <time>2021-10-09 13:59:20</time>
      </trkpt>
      <trkpt lat="40.44118" lon="-1.99556">
        <ele>1514.2</ele>
        <time>2021-10-09 13:59:21</time>
      </trkpt>
      <trkpt lat="40.44117" lon="-1.99552">
        <ele>1514.2</ele>
        <time>2021-10-09 13:59:22</time>
      </trkpt>
      <trkpt lat="40.44116" lon="-1.99548">
        <ele>1514.2</ele>
        <time>2021-10-09 13:59:23</time>
      </trkpt>
      <trkpt lat="40.44115" lon="-1.99545">
        <ele>1514.4</ele>
        <time>2021-10-09 13:59:24</time>
      </trkpt>
      <trkpt lat="40.44113" lon="-1.99541">
        <ele>1514.6</ele>
        <time>2021-10-09 13:59:25</time>
      </trkpt>
      <trkpt lat="40.44112" lon="-1.99537">
        <ele>1515.4</ele>
        <time>2021-10-09 13:59:26</time>
      </trkpt>
      <trkpt lat="40.44111" lon="-1.99533">
        <ele>1515.4</ele>
        <time>2021-10-09 13:59:27</time>
      </trkpt>
      <trkpt lat="40.4411" lon="-1.99529">
        <ele>1515.6</ele>
        <time>2021-10-09 13:59:28</time>
      </trkpt>
      <trkpt lat="40.44109" lon="-1.99525">
        <ele>1516</ele>
        <time>2021-10-09 13:59:29</time>
      </trkpt>
      <trkpt lat="40.44108" lon="-1.99521">
        <ele>1516</ele>
        <time>2021-10-09 13:59:30</time>
      </trkpt>
      <trkpt lat="40.44107" lon="-1.99517">
        <ele>1516.4</ele>
        <time>2021-10-09 13:59:31</time>
      </trkpt>
      <trkpt lat="40.44106" lon="-1.99514">
        <ele>1516.4</ele>
        <time>2021-10-09 13:59:32</time>
      </trkpt>
      <trkpt lat="40.44105" lon="-1.9951">
        <ele>1516.8</ele>
        <time>2021-10-09 13:59:33</time>
      </trkpt>
      <trkpt lat="40.44104" lon="-1.99506">
        <ele>1517.2</ele>
        <time>2021-10-09 13:59:34</time>
      </trkpt>
      <trkpt lat="40.44103" lon="-1.99503">
        <ele>1517.2</ele>
        <time>2021-10-09 13:59:35</time>
      </trkpt>
      <trkpt lat="40.44102" lon="-1.99499">
        <ele>1517.4</ele>
        <time>2021-10-09 13:59:36</time>
      </trkpt>
      <trkpt lat="40.44102" lon="-1.99495">
        <ele>1517.4</ele>
        <time>2021-10-09 13:59:37</time>
      </trkpt>
      <trkpt lat="40.44101" lon="-1.9949">
        <ele>1517.8</ele>
        <time>2021-10-09 13:59:38</time>
      </trkpt>
      <trkpt lat="40.44101" lon="-1.99486">
        <ele>1517.8</ele>
        <time>2021-10-09 13:59:39</time>
      </trkpt>
      <trkpt lat="40.44101" lon="-1.99482">
        <ele>1518</ele>
        <time>2021-10-09 13:59:40</time>
      </trkpt>
      <trkpt lat="40.441" lon="-1.99479">
        <ele>1518</ele>
        <time>2021-10-09 13:59:41</time>
      </trkpt>
      <trkpt lat="40.441" lon="-1.99475">
        <ele>1518.4</ele>
        <time>2021-10-09 13:59:42</time>
      </trkpt>
      <trkpt lat="40.44099" lon="-1.99472">
        <ele>1518.4</ele>
        <time>2021-10-09 13:59:43</time>
      </trkpt>
      <trkpt lat="40.44098" lon="-1.99469">
        <ele>1518.8</ele>
        <time>2021-10-09 13:59:44</time>
      </trkpt>
      <trkpt lat="40.44097" lon="-1.99466">
        <ele>1518.8</ele>
        <time>2021-10-09 13:59:45</time>
      </trkpt>
      <trkpt lat="40.44096" lon="-1.99463">
        <ele>1519</ele>
        <time>2021-10-09 13:59:46</time>
      </trkpt>
      <trkpt lat="40.44095" lon="-1.9946">
        <ele>1519</ele>
        <time>2021-10-09 13:59:47</time>
      </trkpt>
      <trkpt lat="40.44095" lon="-1.99457">
        <ele>1519.2</ele>
        <time>2021-10-09 13:59:48</time>
      </trkpt>
      <trkpt lat="40.44094" lon="-1.99454">
        <ele>1519.2</ele>
        <time>2021-10-09 13:59:49</time>
      </trkpt>
      <trkpt lat="40.44094" lon="-1.99451">
        <ele>1519.4</ele>
        <time>2021-10-09 13:59:50</time>
      </trkpt>
      <trkpt lat="40.44093" lon="-1.99448">
        <ele>1519.4</ele>
        <time>2021-10-09 13:59:51</time>
      </trkpt>
      <trkpt lat="40.44092" lon="-1.99445">
        <ele>1519.4</ele>
        <time>2021-10-09 13:59:52</time>
      </trkpt>
      <trkpt lat="40.44091" lon="-1.99442">
        <ele>1519.8</ele>
        <time>2021-10-09 13:59:53</time>
      </trkpt>
      <trkpt lat="40.4409" lon="-1.99438">
        <ele>1519.8</ele>
        <time>2021-10-09 13:59:54</time>
      </trkpt>
      <trkpt lat="40.4409" lon="-1.99435">
        <ele>1519.8</ele>
        <time>2021-10-09 13:59:55</time>
      </trkpt>
      <trkpt lat="40.4409" lon="-1.99433">
        <ele>1519.8</ele>
        <time>2021-10-09 13:59:56</time>
      </trkpt>
      <trkpt lat="40.4409" lon="-1.99432">
        <ele>1519.8</ele>
        <time>2021-10-09 13:59:57</time>
      </trkpt>
      <trkpt lat="40.4409" lon="-1.99432">
        <ele>1519.8</ele>
        <time>2021-10-09 13:59:58</time>
      </trkpt>
      <trkpt lat="40.4409" lon="-1.99432">
        <ele>1519.8</ele>
        <time>2021-10-09 13:59:59</time>
      </trkpt>
      <trkpt lat="40.4409" lon="-1.99432">
        <ele>1519.6</ele>
        <time>2021-10-09 14:00:00</time>
      </trkpt>
      <trkpt lat="40.44088" lon="-1.9943">
        <ele>1519.8</ele>
        <time>2021-10-09 14:00:01</time>
      </trkpt>
      <trkpt lat="40.44088" lon="-1.99427">
        <ele>1519.8</ele>
        <time>2021-10-09 14:00:02</time>
      </trkpt>
      <trkpt lat="40.44087" lon="-1.99424">
        <ele>1519.8</ele>
        <time>2021-10-09 14:00:03</time>
      </trkpt>
      <trkpt lat="40.44086" lon="-1.99421">
        <ele>1519.8</ele>
        <time>2021-10-09 14:00:04</time>
      </trkpt>
      <trkpt lat="40.44086" lon="-1.99418">
        <ele>1519.8</ele>
        <time>2021-10-09 14:00:05</time>
      </trkpt>
      <trkpt lat="40.44085" lon="-1.99413">
        <ele>1519.8</ele>
        <time>2021-10-09 14:00:06</time>
      </trkpt>
      <trkpt lat="40.44085" lon="-1.99409">
        <ele>1519.8</ele>
        <time>2021-10-09 14:00:07</time>
      </trkpt>
      <trkpt lat="40.44084" lon="-1.99405">
        <ele>1519.8</ele>
        <time>2021-10-09 14:00:08</time>
      </trkpt>
      <trkpt lat="40.44083" lon="-1.99401">
        <ele>1519.8</ele>
        <time>2021-10-09 14:00:09</time>
      </trkpt>
      <trkpt lat="40.44083" lon="-1.99397">
        <ele>1519.8</ele>
        <time>2021-10-09 14:00:10</time>
      </trkpt>
      <trkpt lat="40.44082" lon="-1.99392">
        <ele>1519.8</ele>
        <time>2021-10-09 14:00:11</time>
      </trkpt>
      <trkpt lat="40.44082" lon="-1.99388">
        <ele>1519.4</ele>
        <time>2021-10-09 14:00:12</time>
      </trkpt>
      <trkpt lat="40.44081" lon="-1.99383">
        <ele>1519.4</ele>
        <time>2021-10-09 14:00:13</time>
      </trkpt>
      <trkpt lat="40.4408" lon="-1.99379">
        <ele>1519.4</ele>
        <time>2021-10-09 14:00:14</time>
      </trkpt>
      <trkpt lat="40.44079" lon="-1.99374">
        <ele>1519.4</ele>
        <time>2021-10-09 14:00:15</time>
      </trkpt>
      <trkpt lat="40.44078" lon="-1.99369">
        <ele>1520</ele>
        <time>2021-10-09 14:00:16</time>
      </trkpt>
      <trkpt lat="40.44077" lon="-1.99364">
        <ele>1519.8</ele>
        <time>2021-10-09 14:00:17</time>
      </trkpt>
      <trkpt lat="40.44076" lon="-1.99358">
        <ele>1519.4</ele>
        <time>2021-10-09 14:00:18</time>
      </trkpt>
      <trkpt lat="40.44075" lon="-1.99353">
        <ele>1519.2</ele>
        <time>2021-10-09 14:00:19</time>
      </trkpt>
      <trkpt lat="40.44074" lon="-1.99346">
        <ele>1518.8</ele>
        <time>2021-10-09 14:00:20</time>
      </trkpt>
      <trkpt lat="40.44074" lon="-1.99339">
        <ele>1518.6</ele>
        <time>2021-10-09 14:00:21</time>
      </trkpt>
      <trkpt lat="40.44073" lon="-1.99332">
        <ele>1518.4</ele>
        <time>2021-10-09 14:00:22</time>
      </trkpt>
      <trkpt lat="40.44072" lon="-1.99325">
        <ele>1518</ele>
        <time>2021-10-09 14:00:23</time>
      </trkpt>
      <trkpt lat="40.4407" lon="-1.99317">
        <ele>1517.6</ele>
        <time>2021-10-09 14:00:24</time>
      </trkpt>
      <trkpt lat="40.44069" lon="-1.99309">
        <ele>1517.2</ele>
        <time>2021-10-09 14:01:28</time>
      </trkpt>
      <trkpt lat="40.44067" lon="-1.99301">
        <ele>1516.6</ele>
        <time>2021-10-09 14:01:29</time>
      </trkpt>
      <trkpt lat="40.44066" lon="-1.99293">
        <ele>1516.2</ele>
        <time>2021-10-09 14:01:30</time>
      </trkpt>
      <trkpt lat="40.44063" lon="-1.99285">
        <ele>1515.8</ele>
        <time>2021-10-09 14:01:31</time>
      </trkpt>
      <trkpt lat="40.4406" lon="-1.99277">
        <ele>1515.4</ele>
        <time>2021-10-09 14:01:32</time>
      </trkpt>
      <trkpt lat="40.44056" lon="-1.9927">
        <ele>1515</ele>
        <time>2021-10-09 14:01:33</time>
      </trkpt>
      <trkpt lat="40.44052" lon="-1.99264">
        <ele>1515</ele>
        <time>2021-10-09 14:01:34</time>
      </trkpt>
      <trkpt lat="40.44048" lon="-1.99257">
        <ele>1514.8</ele>
        <time>2021-10-09 14:01:35</time>
      </trkpt>
      <trkpt lat="40.44042" lon="-1.99251">
        <ele>1514.6</ele>
        <time>2021-10-09 14:01:36</time>
      </trkpt>
      <trkpt lat="40.44038" lon="-1.99245">
        <ele>1514.2</ele>
        <time>2021-10-09 14:01:37</time>
      </trkpt>
      <trkpt lat="40.44033" lon="-1.99239">
        <ele>1514.2</ele>
        <time>2021-10-09 14:01:38</time>
      </trkpt>
      <trkpt lat="40.44029" lon="-1.99233">
        <ele>1514</ele>
        <time>2021-10-09 14:01:39</time>
      </trkpt>
      <trkpt lat="40.44025" lon="-1.99227">
        <ele>1513.8</ele>
        <time>2021-10-09 14:01:40</time>
      </trkpt>
      <trkpt lat="40.44021" lon="-1.9922">
        <ele>1513.8</ele>
        <time>2021-10-09 14:01:41</time>
      </trkpt>
      <trkpt lat="40.44018" lon="-1.99212">
        <ele>1513.4</ele>
        <time>2021-10-09 14:01:42</time>
      </trkpt>
      <trkpt lat="40.44016" lon="-1.99205">
        <ele>1513.2</ele>
        <time>2021-10-09 14:01:43</time>
      </trkpt>
      <trkpt lat="40.44016" lon="-1.99197">
        <ele>1513.2</ele>
        <time>2021-10-09 14:01:44</time>
      </trkpt>
      <trkpt lat="40.44016" lon="-1.99191">
        <ele>1513.2</ele>
        <time>2021-10-09 14:01:45</time>
      </trkpt>
      <trkpt lat="40.44016" lon="-1.99184">
        <ele>1513.6</ele>
        <time>2021-10-09 14:01:46</time>
      </trkpt>
      <trkpt lat="40.44016" lon="-1.99177">
        <ele>1513.6</ele>
        <time>2021-10-09 14:01:47</time>
      </trkpt>
      <trkpt lat="40.44016" lon="-1.9917">
        <ele>1513.6</ele>
        <time>2021-10-09 14:01:48</time>
      </trkpt>
      <trkpt lat="40.44016" lon="-1.99163">
        <ele>1513.6</ele>
        <time>2021-10-09 14:01:49</time>
      </trkpt>
      <trkpt lat="40.44016" lon="-1.99156">
        <ele>1513.2</ele>
        <time>2021-10-09 14:01:50</time>
      </trkpt>
      <trkpt lat="40.44015" lon="-1.99149">
        <ele>1513.2</ele>
        <time>2021-10-09 14:01:51</time>
      </trkpt>
      <trkpt lat="40.44015" lon="-1.99143">
        <ele>1512.8</ele>
        <time>2021-10-09 14:01:52</time>
      </trkpt>
      <trkpt lat="40.44013" lon="-1.99136">
        <ele>1512.4</ele>
        <time>2021-10-09 14:01:53</time>
      </trkpt>
      <trkpt lat="40.44011" lon="-1.9913">
        <ele>1512.4</ele>
        <time>2021-10-09 14:01:54</time>
      </trkpt>
      <trkpt lat="40.4401" lon="-1.99123">
        <ele>1512.4</ele>
        <time>2021-10-09 14:01:55</time>
      </trkpt>
      <trkpt lat="40.44007" lon="-1.99116">
        <ele>1512.2</ele>
        <time>2021-10-09 14:01:56</time>
      </trkpt>
      <trkpt lat="40.44005" lon="-1.99109">
        <ele>1512.2</ele>
        <time>2021-10-09 14:01:57</time>
      </trkpt>
      <trkpt lat="40.44002" lon="-1.991">
        <ele>1512.2</ele>
        <time>2021-10-09 14:01:58</time>
      </trkpt>
      <trkpt lat="40.43999" lon="-1.99092">
        <ele>1511.8</ele>
        <time>2021-10-09 14:01:59</time>
      </trkpt>
      <trkpt lat="40.43997" lon="-1.99083">
        <ele>1511.4</ele>
        <time>2021-10-09 14:02:00</time>
      </trkpt>
      <trkpt lat="40.43994" lon="-1.99075">
        <ele>1511.2</ele>
        <time>2021-10-09 14:02:01</time>
      </trkpt>
      <trkpt lat="40.43992" lon="-1.99066">
        <ele>1511.2</ele>
        <time>2021-10-09 14:02:02</time>
      </trkpt>
      <trkpt lat="40.4399" lon="-1.99057">
        <ele>1510.8</ele>
        <time>2021-10-09 14:02:03</time>
      </trkpt>
      <trkpt lat="40.43987" lon="-1.99048">
        <ele>1510.8</ele>
        <time>2021-10-09 14:02:04</time>
      </trkpt>
      <trkpt lat="40.43986" lon="-1.99038">
        <ele>1510.6</ele>
        <time>2021-10-09 14:02:05</time>
      </trkpt>
      <trkpt lat="40.43985" lon="-1.99029">
        <ele>1510.2</ele>
        <time>2021-10-09 14:02:06</time>
      </trkpt>
      <trkpt lat="40.43982" lon="-1.99021">
        <ele>1510.2</ele>
        <time>2021-10-09 14:02:07</time>
      </trkpt>
      <trkpt lat="40.4398" lon="-1.99014">
        <ele>1510</ele>
        <time>2021-10-09 14:02:08</time>
      </trkpt>
      <trkpt lat="40.43978" lon="-1.99007">
        <ele>1510</ele>
        <time>2021-10-09 14:02:09</time>
      </trkpt>
      <trkpt lat="40.43976" lon="-1.98999">
        <ele>1510</ele>
        <time>2021-10-09 14:02:10</time>
      </trkpt>
      <trkpt lat="40.43974" lon="-1.98991">
        <ele>1510</ele>
        <time>2021-10-09 14:02:11</time>
      </trkpt>
      <trkpt lat="40.43973" lon="-1.98983">
        <ele>1510</ele>
        <time>2021-10-09 14:02:12</time>
      </trkpt>
      <trkpt lat="40.4397" lon="-1.98975">
        <ele>1510</ele>
        <time>2021-10-09 14:02:13</time>
      </trkpt>
      <trkpt lat="40.43967" lon="-1.98966">
        <ele>1509.8</ele>
        <time>2021-10-09 14:02:14</time>
      </trkpt>
      <trkpt lat="40.43964" lon="-1.98957">
        <ele>1509.8</ele>
        <time>2021-10-09 14:02:15</time>
      </trkpt>
      <trkpt lat="40.43961" lon="-1.9895">
        <ele>1509.8</ele>
        <time>2021-10-09 14:02:16</time>
      </trkpt>
      <trkpt lat="40.43959" lon="-1.98942">
        <ele>1509.4</ele>
        <time>2021-10-09 14:02:17</time>
      </trkpt>
      <trkpt lat="40.43956" lon="-1.98932">
        <ele>1509.4</ele>
        <time>2021-10-09 14:02:18</time>
      </trkpt>
      <trkpt lat="40.43954" lon="-1.98923">
        <ele>1509.4</ele>
        <time>2021-10-09 14:02:19</time>
      </trkpt>
      <trkpt lat="40.43952" lon="-1.98914">
        <ele>1509.4</ele>
        <time>2021-10-09 14:02:20</time>
      </trkpt>
      <trkpt lat="40.4395" lon="-1.98905">
        <ele>1509.2</ele>
        <time>2021-10-09 14:02:21</time>
      </trkpt>
      <trkpt lat="40.43948" lon="-1.98897">
        <ele>1509.8</ele>
        <time>2021-10-09 14:02:22</time>
      </trkpt>
      <trkpt lat="40.43946" lon="-1.98889">
        <ele>1509.4</ele>
        <time>2021-10-09 14:02:23</time>
      </trkpt>
      <trkpt lat="40.43943" lon="-1.98881">
        <ele>1509</ele>
        <time>2021-10-09 14:02:24</time>
      </trkpt>
      <trkpt lat="40.43943" lon="-1.98873">
        <ele>1509</ele>
        <time>2021-10-09 14:02:25</time>
      </trkpt>
      <trkpt lat="40.4394" lon="-1.98866">
        <ele>1508.8</ele>
        <time>2021-10-09 14:02:26</time>
      </trkpt>
      <trkpt lat="40.43938" lon="-1.98858">
        <ele>1508.8</ele>
        <time>2021-10-09 14:02:27</time>
      </trkpt>
      <trkpt lat="40.43937" lon="-1.9885">
        <ele>1508.6</ele>
        <time>2021-10-09 14:02:28</time>
      </trkpt>
      <trkpt lat="40.43936" lon="-1.98842">
        <ele>1508.6</ele>
        <time>2021-10-09 14:02:29</time>
      </trkpt>
      <trkpt lat="40.43933" lon="-1.98834">
        <ele>1508.2</ele>
        <time>2021-10-09 14:02:30</time>
      </trkpt>
      <trkpt lat="40.43931" lon="-1.98826">
        <ele>1508.2</ele>
        <time>2021-10-09 14:02:31</time>
      </trkpt>
      <trkpt lat="40.43929" lon="-1.98818">
        <ele>1508.6</ele>
        <time>2021-10-09 14:02:32</time>
      </trkpt>
      <trkpt lat="40.43927" lon="-1.98809">
        <ele>1508.4</ele>
        <time>2021-10-09 14:02:33</time>
      </trkpt>
      <trkpt lat="40.43925" lon="-1.988">
        <ele>1508.4</ele>
        <time>2021-10-09 14:02:34</time>
      </trkpt>
      <trkpt lat="40.43923" lon="-1.98792">
        <ele>1508</ele>
        <time>2021-10-09 14:02:35</time>
      </trkpt>
      <trkpt lat="40.43921" lon="-1.98784">
        <ele>1507.8</ele>
        <time>2021-10-09 14:02:36</time>
      </trkpt>
      <trkpt lat="40.43918" lon="-1.98776">
        <ele>1507.8</ele>
        <time>2021-10-09 14:02:37</time>
      </trkpt>
      <trkpt lat="40.43916" lon="-1.98768">
        <ele>1507.8</ele>
        <time>2021-10-09 14:02:38</time>
      </trkpt>
      <trkpt lat="40.43914" lon="-1.9876">
        <ele>1507.4</ele>
        <time>2021-10-09 14:02:39</time>
      </trkpt>
      <trkpt lat="40.43912" lon="-1.98752">
        <ele>1507.4</ele>
        <time>2021-10-09 14:02:40</time>
      </trkpt>
      <trkpt lat="40.43909" lon="-1.98744">
        <ele>1507.4</ele>
        <time>2021-10-09 14:02:41</time>
      </trkpt>
      <trkpt lat="40.43907" lon="-1.98737">
        <ele>1507.8</ele>
        <time>2021-10-09 14:02:42</time>
      </trkpt>
      <trkpt lat="40.43904" lon="-1.98731">
        <ele>1507.8</ele>
        <time>2021-10-09 14:02:43</time>
      </trkpt>
      <trkpt lat="40.43901" lon="-1.98723">
        <ele>1507.8</ele>
        <time>2021-10-09 14:02:44</time>
      </trkpt>
      <trkpt lat="40.43898" lon="-1.98717">
        <ele>1508</ele>
        <time>2021-10-09 14:02:45</time>
      </trkpt>
      <trkpt lat="40.43895" lon="-1.9871">
        <ele>1508</ele>
        <time>2021-10-09 14:02:46</time>
      </trkpt>
      <trkpt lat="40.43892" lon="-1.98704">
        <ele>1508</ele>
        <time>2021-10-09 14:02:47</time>
      </trkpt>
      <trkpt lat="40.4389" lon="-1.98697">
        <ele>1508.4</ele>
        <time>2021-10-09 14:02:48</time>
      </trkpt>
      <trkpt lat="40.43886" lon="-1.98692">
        <ele>1508.4</ele>
        <time>2021-10-09 14:02:49</time>
      </trkpt>
      <trkpt lat="40.43882" lon="-1.98686">
        <ele>1508.8</ele>
        <time>2021-10-09 14:02:50</time>
      </trkpt>
      <trkpt lat="40.43879" lon="-1.98679">
        <ele>1508.8</ele>
        <time>2021-10-09 14:02:51</time>
      </trkpt>
      <trkpt lat="40.43876" lon="-1.98673">
        <ele>1508.8</ele>
        <time>2021-10-09 14:02:52</time>
      </trkpt>
      <trkpt lat="40.43872" lon="-1.98668">
        <ele>1508.8</ele>
        <time>2021-10-09 14:02:53</time>
      </trkpt>
      <trkpt lat="40.4387" lon="-1.98662">
        <ele>1509</ele>
        <time>2021-10-09 14:02:54</time>
      </trkpt>
      <trkpt lat="40.43866" lon="-1.98656">
        <ele>1509</ele>
        <time>2021-10-09 14:02:55</time>
      </trkpt>
      <trkpt lat="40.43863" lon="-1.9865">
        <ele>1509</ele>
        <time>2021-10-09 14:02:56</time>
      </trkpt>
      <trkpt lat="40.43859" lon="-1.98644">
        <ele>1509</ele>
        <time>2021-10-09 14:02:57</time>
      </trkpt>
      <trkpt lat="40.43856" lon="-1.98637">
        <ele>1509</ele>
        <time>2021-10-09 14:02:58</time>
      </trkpt>
      <trkpt lat="40.43852" lon="-1.98631">
        <ele>1509</ele>
        <time>2021-10-09 14:02:59</time>
      </trkpt>
      <trkpt lat="40.43849" lon="-1.98625">
        <ele>1509</ele>
        <time>2021-10-09 14:03:00</time>
      </trkpt>
      <trkpt lat="40.43846" lon="-1.98618">
        <ele>1509.2</ele>
        <time>2021-10-09 14:03:01</time>
      </trkpt>
      <trkpt lat="40.43843" lon="-1.98612">
        <ele>1509.2</ele>
        <time>2021-10-09 14:03:02</time>
      </trkpt>
      <trkpt lat="40.43843" lon="-1.98612">
        <ele>1509.6</ele>
        <time>2021-10-09 14:03:03</time>
      </trkpt>
      <trkpt lat="40.43839" lon="-1.98605">
        <ele>1509.6</ele>
        <time>2021-10-09 14:03:04</time>
      </trkpt>
      <trkpt lat="40.43836" lon="-1.986">
        <ele>1509.6</ele>
        <time>2021-10-09 14:03:05</time>
      </trkpt>
      <trkpt lat="40.43828" lon="-1.98587">
        <ele>1509.6</ele>
        <time>2021-10-09 14:03:06</time>
      </trkpt>
      <trkpt lat="40.43828" lon="-1.98587">
        <ele>1509.6</ele>
        <time>2021-10-09 14:03:07</time>
      </trkpt>
      <trkpt lat="40.43821" lon="-1.98575">
        <ele>1509.4</ele>
        <time>2021-10-09 14:03:08</time>
      </trkpt>
      <trkpt lat="40.43821" lon="-1.98575">
        <ele>1509.4</ele>
        <time>2021-10-09 14:03:09</time>
      </trkpt>
      <trkpt lat="40.43818" lon="-1.98569">
        <ele>1509.6</ele>
        <time>2021-10-09 14:03:10</time>
      </trkpt>
      <trkpt lat="40.43812" lon="-1.98556">
        <ele>1509.8</ele>
        <time>2021-10-09 14:03:11</time>
      </trkpt>
      <trkpt lat="40.43812" lon="-1.98556">
        <ele>1509.8</ele>
        <time>2021-10-09 14:03:12</time>
      </trkpt>
      <trkpt lat="40.43809" lon="-1.98551">
        <ele>1510</ele>
        <time>2021-10-09 14:03:13</time>
      </trkpt>
      <trkpt lat="40.43806" lon="-1.98546">
        <ele>1510</ele>
        <time>2021-10-09 14:03:14</time>
      </trkpt>
      <trkpt lat="40.43803" lon="-1.9854">
        <ele>1510</ele>
        <time>2021-10-09 14:03:15</time>
      </trkpt>
      <trkpt lat="40.438" lon="-1.98535">
        <ele>1510.4</ele>
        <time>2021-10-09 14:03:16</time>
      </trkpt>
      <trkpt lat="40.43798" lon="-1.98529">
        <ele>1510.4</ele>
        <time>2021-10-09 14:03:17</time>
      </trkpt>
      <trkpt lat="40.43795" lon="-1.98524">
        <ele>1510.4</ele>
        <time>2021-10-09 14:03:18</time>
      </trkpt>
      <trkpt lat="40.43793" lon="-1.98519">
        <ele>1510.6</ele>
        <time>2021-10-09 14:03:19</time>
      </trkpt>
      <trkpt lat="40.4379" lon="-1.98513">
        <ele>1510.6</ele>
        <time>2021-10-09 14:03:20</time>
      </trkpt>
      <trkpt lat="40.43788" lon="-1.98508">
        <ele>1510.6</ele>
        <time>2021-10-09 14:03:21</time>
      </trkpt>
      <trkpt lat="40.43786" lon="-1.98502">
        <ele>1510.6</ele>
        <time>2021-10-09 14:03:22</time>
      </trkpt>
      <trkpt lat="40.43784" lon="-1.98497">
        <ele>1510.8</ele>
        <time>2021-10-09 14:03:23</time>
      </trkpt>
      <trkpt lat="40.43782" lon="-1.98491">
        <ele>1510.8</ele>
        <time>2021-10-09 14:03:24</time>
      </trkpt>
      <trkpt lat="40.4378" lon="-1.98486">
        <ele>1510.8</ele>
        <time>2021-10-09 14:03:25</time>
      </trkpt>
      <trkpt lat="40.43778" lon="-1.9848">
        <ele>1510.8</ele>
        <time>2021-10-09 14:03:26</time>
      </trkpt>
      <trkpt lat="40.43776" lon="-1.98475">
        <ele>1510.8</ele>
        <time>2021-10-09 14:03:27</time>
      </trkpt>
      <trkpt lat="40.43774" lon="-1.98469">
        <ele>1510.8</ele>
        <time>2021-10-09 14:03:28</time>
      </trkpt>
      <trkpt lat="40.43773" lon="-1.98462">
        <ele>1510.8</ele>
        <time>2021-10-09 14:03:29</time>
      </trkpt>
      <trkpt lat="40.43771" lon="-1.98457">
        <ele>1510.8</ele>
        <time>2021-10-09 14:03:30</time>
      </trkpt>
      <trkpt lat="40.43768" lon="-1.98451">
        <ele>1510.6</ele>
        <time>2021-10-09 14:03:31</time>
      </trkpt>
      <trkpt lat="40.43767" lon="-1.98444">
        <ele>1510.6</ele>
        <time>2021-10-09 14:03:32</time>
      </trkpt>
      <trkpt lat="40.43764" lon="-1.98438">
        <ele>1510.6</ele>
        <time>2021-10-09 14:03:33</time>
      </trkpt>
      <trkpt lat="40.43762" lon="-1.98432">
        <ele>1510.6</ele>
        <time>2021-10-09 14:03:34</time>
      </trkpt>
      <trkpt lat="40.4376" lon="-1.98425">
        <ele>1510.6</ele>
        <time>2021-10-09 14:03:35</time>
      </trkpt>
      <trkpt lat="40.43758" lon="-1.9842">
        <ele>1510.6</ele>
        <time>2021-10-09 14:03:36</time>
      </trkpt>
      <trkpt lat="40.43756" lon="-1.98414">
        <ele>1510.6</ele>
        <time>2021-10-09 14:03:37</time>
      </trkpt>
      <trkpt lat="40.43754" lon="-1.98409">
        <ele>1510.6</ele>
        <time>2021-10-09 14:03:38</time>
      </trkpt>
      <trkpt lat="40.43753" lon="-1.98403">
        <ele>1510.6</ele>
        <time>2021-10-09 14:03:39</time>
      </trkpt>
      <trkpt lat="40.43751" lon="-1.98397">
        <ele>1510.6</ele>
        <time>2021-10-09 14:03:40</time>
      </trkpt>
      <trkpt lat="40.43749" lon="-1.98393">
        <ele>1510.8</ele>
        <time>2021-10-09 14:03:41</time>
      </trkpt>
      <trkpt lat="40.43747" lon="-1.98387">
        <ele>1510.8</ele>
        <time>2021-10-09 14:03:42</time>
      </trkpt>
      <trkpt lat="40.43745" lon="-1.98382">
        <ele>1511</ele>
        <time>2021-10-09 14:03:43</time>
      </trkpt>
      <trkpt lat="40.43743" lon="-1.98377">
        <ele>1511</ele>
        <time>2021-10-09 14:03:44</time>
      </trkpt>
      <trkpt lat="40.43742" lon="-1.98372">
        <ele>1511.4</ele>
        <time>2021-10-09 14:03:45</time>
      </trkpt>
      <trkpt lat="40.43739" lon="-1.98367">
        <ele>1511.4</ele>
        <time>2021-10-09 14:03:46</time>
      </trkpt>
      <trkpt lat="40.43738" lon="-1.98361">
        <ele>1511.4</ele>
        <time>2021-10-09 14:03:47</time>
      </trkpt>
      <trkpt lat="40.43735" lon="-1.98356">
        <ele>1511.8</ele>
        <time>2021-10-09 14:03:48</time>
      </trkpt>
      <trkpt lat="40.43734" lon="-1.9835">
        <ele>1511.8</ele>
        <time>2021-10-09 14:03:49</time>
      </trkpt>
      <trkpt lat="40.43732" lon="-1.98344">
        <ele>1511.8</ele>
        <time>2021-10-09 14:03:50</time>
      </trkpt>
      <trkpt lat="40.43731" lon="-1.98339">
        <ele>1511.8</ele>
        <time>2021-10-09 14:03:51</time>
      </trkpt>
      <trkpt lat="40.4373" lon="-1.98332">
        <ele>1511.8</ele>
        <time>2021-10-09 14:03:52</time>
      </trkpt>
      <trkpt lat="40.43729" lon="-1.98327">
        <ele>1511.8</ele>
        <time>2021-10-09 14:03:53</time>
      </trkpt>
      <trkpt lat="40.43727" lon="-1.98322">
        <ele>1511.8</ele>
        <time>2021-10-09 14:03:54</time>
      </trkpt>
      <trkpt lat="40.43724" lon="-1.98316">
        <ele>1511.8</ele>
        <time>2021-10-09 14:03:55</time>
      </trkpt>
      <trkpt lat="40.43722" lon="-1.9831">
        <ele>1511.8</ele>
        <time>2021-10-09 14:03:56</time>
      </trkpt>
      <trkpt lat="40.4372" lon="-1.98304">
        <ele>1512</ele>
        <time>2021-10-09 14:03:57</time>
      </trkpt>
      <trkpt lat="40.43717" lon="-1.98299">
        <ele>1512.2</ele>
        <time>2021-10-09 14:03:58</time>
      </trkpt>
      <trkpt lat="40.43715" lon="-1.98293">
        <ele>1512.2</ele>
        <time>2021-10-09 14:03:59</time>
      </trkpt>
      <trkpt lat="40.43713" lon="-1.98287">
        <ele>1512.2</ele>
        <time>2021-10-09 14:04:00</time>
      </trkpt>
      <trkpt lat="40.43711" lon="-1.98281">
        <ele>1512.2</ele>
        <time>2021-10-09 14:04:01</time>
      </trkpt>
      <trkpt lat="40.43709" lon="-1.98275">
        <ele>1512.2</ele>
        <time>2021-10-09 14:04:02</time>
      </trkpt>
      <trkpt lat="40.43706" lon="-1.9827">
        <ele>1512.4</ele>
        <time>2021-10-09 14:04:03</time>
      </trkpt>
      <trkpt lat="40.43704" lon="-1.98264">
        <ele>1512.4</ele>
        <time>2021-10-09 14:04:04</time>
      </trkpt>
      <trkpt lat="40.43702" lon="-1.98259">
        <ele>1512.4</ele>
        <time>2021-10-09 14:04:05</time>
      </trkpt>
      <trkpt lat="40.437" lon="-1.98253">
        <ele>1512.4</ele>
        <time>2021-10-09 14:04:06</time>
      </trkpt>
      <trkpt lat="40.43697" lon="-1.98248">
        <ele>1512.6</ele>
        <time>2021-10-09 14:04:07</time>
      </trkpt>
      <trkpt lat="40.43694" lon="-1.98243">
        <ele>1512.6</ele>
        <time>2021-10-09 14:04:08</time>
      </trkpt>
      <trkpt lat="40.43692" lon="-1.98237">
        <ele>1512.6</ele>
        <time>2021-10-09 14:04:09</time>
      </trkpt>
      <trkpt lat="40.43688" lon="-1.98233">
        <ele>1512.6</ele>
        <time>2021-10-09 14:04:10</time>
      </trkpt>
      <trkpt lat="40.43685" lon="-1.98228">
        <ele>1512.6</ele>
        <time>2021-10-09 14:04:11</time>
      </trkpt>
      <trkpt lat="40.43681" lon="-1.98224">
        <ele>1513</ele>
        <time>2021-10-09 14:04:12</time>
      </trkpt>
      <trkpt lat="40.43677" lon="-1.9822">
        <ele>1513</ele>
        <time>2021-10-09 14:04:13</time>
      </trkpt>
      <trkpt lat="40.43673" lon="-1.98216">
        <ele>1513</ele>
        <time>2021-10-09 14:04:14</time>
      </trkpt>
      <trkpt lat="40.43669" lon="-1.98213">
        <ele>1513</ele>
        <time>2021-10-09 14:04:15</time>
      </trkpt>
      <trkpt lat="40.43665" lon="-1.9821">
        <ele>1513.4</ele>
        <time>2021-10-09 14:04:16</time>
      </trkpt>
      <trkpt lat="40.4366" lon="-1.98208">
        <ele>1513.4</ele>
        <time>2021-10-09 14:04:17</time>
      </trkpt>
      <trkpt lat="40.43656" lon="-1.98205">
        <ele>1513.4</ele>
        <time>2021-10-09 14:04:18</time>
      </trkpt>
      <trkpt lat="40.43652" lon="-1.98203">
        <ele>1513.4</ele>
        <time>2021-10-09 14:04:19</time>
      </trkpt>
      <trkpt lat="40.43647" lon="-1.982">
        <ele>1513.4</ele>
        <time>2021-10-09 14:04:20</time>
      </trkpt>
      <trkpt lat="40.43643" lon="-1.98198">
        <ele>1513.4</ele>
        <time>2021-10-09 14:04:21</time>
      </trkpt>
      <trkpt lat="40.43639" lon="-1.98195">
        <ele>1513.6</ele>
        <time>2021-10-09 14:04:22</time>
      </trkpt>
      <trkpt lat="40.43634" lon="-1.98193">
        <ele>1513.6</ele>
        <time>2021-10-09 14:04:23</time>
      </trkpt>
      <trkpt lat="40.4363" lon="-1.98191">
        <ele>1513.6</ele>
        <time>2021-10-09 14:04:24</time>
      </trkpt>
      <trkpt lat="40.43626" lon="-1.98188">
        <ele>1513.6</ele>
        <time>2021-10-09 14:04:25</time>
      </trkpt>
      <trkpt lat="40.43616" lon="-1.98182">
        <ele>1513.8</ele>
        <time>2021-10-09 14:04:26</time>
      </trkpt>
      <trkpt lat="40.43611" lon="-1.9818">
        <ele>1513.8</ele>
        <time>2021-10-09 14:04:27</time>
      </trkpt>
      <trkpt lat="40.43606" lon="-1.98178">
        <ele>1513.8</ele>
        <time>2021-10-09 14:04:28</time>
      </trkpt>
      <trkpt lat="40.43601" lon="-1.98175">
        <ele>1514.2</ele>
        <time>2021-10-09 14:04:29</time>
      </trkpt>
      <trkpt lat="40.43596" lon="-1.98173">
        <ele>1514.2</ele>
        <time>2021-10-09 14:04:30</time>
      </trkpt>
      <trkpt lat="40.43591" lon="-1.98171">
        <ele>1514.4</ele>
        <time>2021-10-09 14:04:31</time>
      </trkpt>
      <trkpt lat="40.43587" lon="-1.98169">
        <ele>1514.4</ele>
        <time>2021-10-09 14:04:32</time>
      </trkpt>
      <trkpt lat="40.43582" lon="-1.98166">
        <ele>1514.4</ele>
        <time>2021-10-09 14:04:33</time>
      </trkpt>
      <trkpt lat="40.43578" lon="-1.98164">
        <ele>1514.6</ele>
        <time>2021-10-09 14:04:34</time>
      </trkpt>
      <trkpt lat="40.43573" lon="-1.98162">
        <ele>1514.6</ele>
        <time>2021-10-09 14:04:35</time>
      </trkpt>
      <trkpt lat="40.43569" lon="-1.98159">
        <ele>1514.8</ele>
        <time>2021-10-09 14:04:36</time>
      </trkpt>
      <trkpt lat="40.43566" lon="-1.98157">
        <ele>1514.8</ele>
        <time>2021-10-09 14:04:37</time>
      </trkpt>
      <trkpt lat="40.43562" lon="-1.98156">
        <ele>1514.8</ele>
        <time>2021-10-09 14:04:38</time>
      </trkpt>
      <trkpt lat="40.43558" lon="-1.98154">
        <ele>1515.2</ele>
        <time>2021-10-09 14:04:39</time>
      </trkpt>
      <trkpt lat="40.43555" lon="-1.98151">
        <ele>1515.2</ele>
        <time>2021-10-09 14:04:40</time>
      </trkpt>
      <trkpt lat="40.43552" lon="-1.98151">
        <ele>1515.4</ele>
        <time>2021-10-09 14:04:41</time>
      </trkpt>
      <trkpt lat="40.43549" lon="-1.98149">
        <ele>1515.4</ele>
        <time>2021-10-09 14:04:42</time>
      </trkpt>
      <trkpt lat="40.43546" lon="-1.98147">
        <ele>1516</ele>
        <time>2021-10-09 14:04:43</time>
      </trkpt>
      <trkpt lat="40.43543" lon="-1.98146">
        <ele>1516</ele>
        <time>2021-10-09 14:04:44</time>
      </trkpt>
      <trkpt lat="40.43541" lon="-1.98145">
        <ele>1516</ele>
        <time>2021-10-09 14:04:45</time>
      </trkpt>
      <trkpt lat="40.43538" lon="-1.98143">
        <ele>1516.2</ele>
        <time>2021-10-09 14:04:46</time>
      </trkpt>
      <trkpt lat="40.43535" lon="-1.98142">
        <ele>1516.2</ele>
        <time>2021-10-09 14:04:47</time>
      </trkpt>
      <trkpt lat="40.43533" lon="-1.9814">
        <ele>1516.6</ele>
        <time>2021-10-09 14:04:48</time>
      </trkpt>
      <trkpt lat="40.4353" lon="-1.98139">
        <ele>1516.6</ele>
        <time>2021-10-09 14:04:49</time>
      </trkpt>
      <trkpt lat="40.43527" lon="-1.98138">
        <ele>1516.8</ele>
        <time>2021-10-09 14:04:50</time>
      </trkpt>
      <trkpt lat="40.43525" lon="-1.98137">
        <ele>1516.8</ele>
        <time>2021-10-09 14:04:51</time>
      </trkpt>
      <trkpt lat="40.43523" lon="-1.98136">
        <ele>1516.8</ele>
        <time>2021-10-09 14:04:52</time>
      </trkpt>
      <trkpt lat="40.4352" lon="-1.98134">
        <ele>1517.2</ele>
        <time>2021-10-09 14:04:53</time>
      </trkpt>
      <trkpt lat="40.43518" lon="-1.98133">
        <ele>1517.2</ele>
        <time>2021-10-09 14:04:54</time>
      </trkpt>
      <trkpt lat="40.43516" lon="-1.98132">
        <ele>1517.6</ele>
        <time>2021-10-09 14:04:55</time>
      </trkpt>
      <trkpt lat="40.43513" lon="-1.9813">
        <ele>1517.6</ele>
        <time>2021-10-09 14:04:56</time>
      </trkpt>
      <trkpt lat="40.43511" lon="-1.98129">
        <ele>1517.8</ele>
        <time>2021-10-09 14:04:57</time>
      </trkpt>
      <trkpt lat="40.43508" lon="-1.98128">
        <ele>1517.8</ele>
        <time>2021-10-09 14:04:58</time>
      </trkpt>
      <trkpt lat="40.43506" lon="-1.98127">
        <ele>1518</ele>
        <time>2021-10-09 14:04:59</time>
      </trkpt>
      <trkpt lat="40.43503" lon="-1.98126">
        <ele>1518</ele>
        <time>2021-10-09 14:05:00</time>
      </trkpt>
      <trkpt lat="40.435" lon="-1.98126">
        <ele>1518.2</ele>
        <time>2021-10-09 14:05:01</time>
      </trkpt>
      <trkpt lat="40.43497" lon="-1.98125">
        <ele>1518.6</ele>
        <time>2021-10-09 14:05:02</time>
      </trkpt>
      <trkpt lat="40.43495" lon="-1.98124">
        <ele>1518.8</ele>
        <time>2021-10-09 14:05:03</time>
      </trkpt>
      <trkpt lat="40.43492" lon="-1.98123">
        <ele>1518.8</ele>
        <time>2021-10-09 14:05:04</time>
      </trkpt>
      <trkpt lat="40.4349" lon="-1.98121">
        <ele>1519</ele>
        <time>2021-10-09 14:05:05</time>
      </trkpt>
      <trkpt lat="40.43487" lon="-1.9812">
        <ele>1519</ele>
        <time>2021-10-09 14:05:06</time>
      </trkpt>
      <trkpt lat="40.43485" lon="-1.98119">
        <ele>1519.4</ele>
        <time>2021-10-09 14:05:07</time>
      </trkpt>
      <trkpt lat="40.43482" lon="-1.98117">
        <ele>1519.4</ele>
        <time>2021-10-09 14:05:08</time>
      </trkpt>
      <trkpt lat="40.43479" lon="-1.98115">
        <ele>1519.6</ele>
        <time>2021-10-09 14:05:09</time>
      </trkpt>
      <trkpt lat="40.43476" lon="-1.98114">
        <ele>1519.6</ele>
        <time>2021-10-09 14:05:10</time>
      </trkpt>
      <trkpt lat="40.43474" lon="-1.98112">
        <ele>1520</ele>
        <time>2021-10-09 14:05:11</time>
      </trkpt>
      <trkpt lat="40.43471" lon="-1.9811">
        <ele>1520</ele>
        <time>2021-10-09 14:05:12</time>
      </trkpt>
      <trkpt lat="40.43468" lon="-1.98109">
        <ele>1520.2</ele>
        <time>2021-10-09 14:05:13</time>
      </trkpt>
      <trkpt lat="40.43465" lon="-1.98107">
        <ele>1520.2</ele>
        <time>2021-10-09 14:05:14</time>
      </trkpt>
      <trkpt lat="40.43462" lon="-1.98105">
        <ele>1520.2</ele>
        <time>2021-10-09 14:05:15</time>
      </trkpt>
      <trkpt lat="40.43459" lon="-1.98103">
        <ele>1520.4</ele>
        <time>2021-10-09 14:05:16</time>
      </trkpt>
      <trkpt lat="40.43457" lon="-1.98101">
        <ele>1520.4</ele>
        <time>2021-10-09 14:05:17</time>
      </trkpt>
      <trkpt lat="40.43454" lon="-1.98099">
        <ele>1520.8</ele>
        <time>2021-10-09 14:05:18</time>
      </trkpt>
      <trkpt lat="40.43451" lon="-1.98097">
        <ele>1520.8</ele>
        <time>2021-10-09 14:05:19</time>
      </trkpt>
      <trkpt lat="40.43448" lon="-1.98095">
        <ele>1521</ele>
        <time>2021-10-09 14:05:20</time>
      </trkpt>
      <trkpt lat="40.43445" lon="-1.98092">
        <ele>1521</ele>
        <time>2021-10-09 14:05:21</time>
      </trkpt>
      <trkpt lat="40.43443" lon="-1.9809">
        <ele>1521.4</ele>
        <time>2021-10-09 14:05:22</time>
      </trkpt>
      <trkpt lat="40.4344" lon="-1.98088">
        <ele>1521.4</ele>
        <time>2021-10-09 14:05:23</time>
      </trkpt>
      <trkpt lat="40.43437" lon="-1.98085">
        <ele>1521.6</ele>
        <time>2021-10-09 14:05:24</time>
      </trkpt>
      <trkpt lat="40.43435" lon="-1.98083">
        <ele>1521.6</ele>
        <time>2021-10-09 14:05:25</time>
      </trkpt>
      <trkpt lat="40.43432" lon="-1.98081">
        <ele>1521.6</ele>
        <time>2021-10-09 14:05:26</time>
      </trkpt>
      <trkpt lat="40.4343" lon="-1.98079">
        <ele>1521.6</ele>
        <time>2021-10-09 14:05:27</time>
      </trkpt>
      <trkpt lat="40.43428" lon="-1.98076">
        <ele>1521.6</ele>
        <time>2021-10-09 14:05:28</time>
      </trkpt>
      <trkpt lat="40.43426" lon="-1.98074">
        <ele>1521.8</ele>
        <time>2021-10-09 14:05:29</time>
      </trkpt>
      <trkpt lat="40.43423" lon="-1.98071">
        <ele>1521.8</ele>
        <time>2021-10-09 14:05:30</time>
      </trkpt>
      <trkpt lat="40.43421" lon="-1.98069">
        <ele>1522.2</ele>
        <time>2021-10-09 14:05:31</time>
      </trkpt>
      <trkpt lat="40.43418" lon="-1.98066">
        <ele>1522.2</ele>
        <time>2021-10-09 14:05:32</time>
      </trkpt>
      <trkpt lat="40.43416" lon="-1.98064">
        <ele>1522.2</ele>
        <time>2021-10-09 14:05:33</time>
      </trkpt>
      <trkpt lat="40.43414" lon="-1.98061">
        <ele>1522.2</ele>
        <time>2021-10-09 14:05:34</time>
      </trkpt>
      <trkpt lat="40.43411" lon="-1.98059">
        <ele>1522.2</ele>
        <time>2021-10-09 14:05:35</time>
      </trkpt>
      <trkpt lat="40.43408" lon="-1.98057">
        <ele>1522.2</ele>
        <time>2021-10-09 14:05:36</time>
      </trkpt>
      <trkpt lat="40.43406" lon="-1.98054">
        <ele>1522.2</ele>
        <time>2021-10-09 14:05:37</time>
      </trkpt>
      <trkpt lat="40.43403" lon="-1.98052">
        <ele>1522.2</ele>
        <time>2021-10-09 14:05:38</time>
      </trkpt>
      <trkpt lat="40.43401" lon="-1.98049">
        <ele>1522.2</ele>
        <time>2021-10-09 14:05:39</time>
      </trkpt>
      <trkpt lat="40.43398" lon="-1.98047">
        <ele>1522.2</ele>
        <time>2021-10-09 14:05:40</time>
      </trkpt>
      <trkpt lat="40.43396" lon="-1.98045">
        <ele>1522.2</ele>
        <time>2021-10-09 14:05:41</time>
      </trkpt>
      <trkpt lat="40.43394" lon="-1.98042">
        <ele>1521.8</ele>
        <time>2021-10-09 14:05:42</time>
      </trkpt>
      <trkpt lat="40.43391" lon="-1.9804">
        <ele>1521.8</ele>
        <time>2021-10-09 14:05:43</time>
      </trkpt>
      <trkpt lat="40.43388" lon="-1.98037">
        <ele>1521.8</ele>
        <time>2021-10-09 14:05:44</time>
      </trkpt>
      <trkpt lat="40.43386" lon="-1.98034">
        <ele>1521.8</ele>
        <time>2021-10-09 14:05:45</time>
      </trkpt>
      <trkpt lat="40.43383" lon="-1.98032">
        <ele>1521.8</ele>
        <time>2021-10-09 14:05:46</time>
      </trkpt>
      <trkpt lat="40.43381" lon="-1.98029">
        <ele>1521.8</ele>
        <time>2021-10-09 14:05:47</time>
      </trkpt>
      <trkpt lat="40.43378" lon="-1.98026">
        <ele>1521.8</ele>
        <time>2021-10-09 14:05:48</time>
      </trkpt>
      <trkpt lat="40.43375" lon="-1.98024">
        <ele>1521.8</ele>
        <time>2021-10-09 14:05:49</time>
      </trkpt>
      <trkpt lat="40.43373" lon="-1.98022">
        <ele>1521.8</ele>
        <time>2021-10-09 14:05:50</time>
      </trkpt>
      <trkpt lat="40.4337" lon="-1.98019">
        <ele>1521.8</ele>
        <time>2021-10-09 14:05:51</time>
      </trkpt>
      <trkpt lat="40.43367" lon="-1.98017">
        <ele>1522.2</ele>
        <time>2021-10-09 14:05:52</time>
      </trkpt>
      <trkpt lat="40.43364" lon="-1.98015">
        <ele>1522.2</ele>
        <time>2021-10-09 14:05:53</time>
      </trkpt>
      <trkpt lat="40.43361" lon="-1.98013">
        <ele>1522.6</ele>
        <time>2021-10-09 14:05:54</time>
      </trkpt>
      <trkpt lat="40.43358" lon="-1.98011">
        <ele>1522.6</ele>
        <time>2021-10-09 14:05:55</time>
      </trkpt>
      <trkpt lat="40.43356" lon="-1.98009">
        <ele>1522.6</ele>
        <time>2021-10-09 14:05:56</time>
      </trkpt>
      <trkpt lat="40.43353" lon="-1.98007">
        <ele>1522.6</ele>
        <time>2021-10-09 14:05:57</time>
      </trkpt>
      <trkpt lat="40.43351" lon="-1.98006">
        <ele>1522.6</ele>
        <time>2021-10-09 14:05:58</time>
      </trkpt>
      <trkpt lat="40.43348" lon="-1.98004">
        <ele>1522.8</ele>
        <time>2021-10-09 14:05:59</time>
      </trkpt>
      <trkpt lat="40.43345" lon="-1.98002">
        <ele>1523.2</ele>
        <time>2021-10-09 14:06:00</time>
      </trkpt>
      <trkpt lat="40.43342" lon="-1.98">
        <ele>1523.2</ele>
        <time>2021-10-09 14:06:01</time>
      </trkpt>
      <trkpt lat="40.4334" lon="-1.97999">
        <ele>1523.4</ele>
        <time>2021-10-09 14:06:02</time>
      </trkpt>
      <trkpt lat="40.43337" lon="-1.97997">
        <ele>1523.4</ele>
        <time>2021-10-09 14:06:03</time>
      </trkpt>
      <trkpt lat="40.43334" lon="-1.97995">
        <ele>1523.6</ele>
        <time>2021-10-09 14:06:04</time>
      </trkpt>
      <trkpt lat="40.43332" lon="-1.97993">
        <ele>1523.6</ele>
        <time>2021-10-09 14:06:05</time>
      </trkpt>
      <trkpt lat="40.43329" lon="-1.97991">
        <ele>1524</ele>
        <time>2021-10-09 14:06:06</time>
      </trkpt>
      <trkpt lat="40.43326" lon="-1.97989">
        <ele>1524.2</ele>
        <time>2021-10-09 14:06:07</time>
      </trkpt>
      <trkpt lat="40.43324" lon="-1.97987">
        <ele>1524.4</ele>
        <time>2021-10-09 14:06:08</time>
      </trkpt>
      <trkpt lat="40.43321" lon="-1.97985">
        <ele>1524.4</ele>
        <time>2021-10-09 14:06:09</time>
      </trkpt>
      <trkpt lat="40.43318" lon="-1.97984">
        <ele>1525</ele>
        <time>2021-10-09 14:06:10</time>
      </trkpt>
      <trkpt lat="40.43315" lon="-1.97982">
        <ele>1525</ele>
        <time>2021-10-09 14:06:11</time>
      </trkpt>
      <trkpt lat="40.43312" lon="-1.97981">
        <ele>1525</ele>
        <time>2021-10-09 14:06:12</time>
      </trkpt>
      <trkpt lat="40.4331" lon="-1.97979">
        <ele>1525</ele>
        <time>2021-10-09 14:06:13</time>
      </trkpt>
      <trkpt lat="40.43307" lon="-1.97977">
        <ele>1525</ele>
        <time>2021-10-09 14:06:14</time>
      </trkpt>
      <trkpt lat="40.43304" lon="-1.97975">
        <ele>1525</ele>
        <time>2021-10-09 14:06:15</time>
      </trkpt>
      <trkpt lat="40.43301" lon="-1.97973">
        <ele>1525</ele>
        <time>2021-10-09 14:06:16</time>
      </trkpt>
      <trkpt lat="40.43299" lon="-1.97971">
        <ele>1525.4</ele>
        <time>2021-10-09 14:06:17</time>
      </trkpt>
      <trkpt lat="40.43296" lon="-1.97969">
        <ele>1525.4</ele>
        <time>2021-10-09 14:06:18</time>
      </trkpt>
      <trkpt lat="40.43293" lon="-1.97967">
        <ele>1525.4</ele>
        <time>2021-10-09 14:06:19</time>
      </trkpt>
      <trkpt lat="40.4329" lon="-1.97965">
        <ele>1525.6</ele>
        <time>2021-10-09 14:06:20</time>
      </trkpt>
      <trkpt lat="40.43287" lon="-1.97964">
        <ele>1525.6</ele>
        <time>2021-10-09 14:06:21</time>
      </trkpt>
      <trkpt lat="40.43285" lon="-1.97962">
        <ele>1525.8</ele>
        <time>2021-10-09 14:06:22</time>
      </trkpt>
      <trkpt lat="40.43281" lon="-1.9796">
        <ele>1525.8</ele>
        <time>2021-10-09 14:06:23</time>
      </trkpt>
      <trkpt lat="40.43279" lon="-1.97957">
        <ele>1527</ele>
        <time>2021-10-09 14:06:24</time>
      </trkpt>
      <trkpt lat="40.43276" lon="-1.97955">
        <ele>1527</ele>
        <time>2021-10-09 14:06:25</time>
      </trkpt>
      <trkpt lat="40.43273" lon="-1.97953">
        <ele>1526.8</ele>
        <time>2021-10-09 14:06:26</time>
      </trkpt>
      <trkpt lat="40.4327" lon="-1.97951">
        <ele>1526.8</ele>
        <time>2021-10-09 14:06:27</time>
      </trkpt>
      <trkpt lat="40.43267" lon="-1.97949">
        <ele>1526.8</ele>
        <time>2021-10-09 14:06:28</time>
      </trkpt>
      <trkpt lat="40.43264" lon="-1.97947">
        <ele>1526.8</ele>
        <time>2021-10-09 14:06:29</time>
      </trkpt>
      <trkpt lat="40.4326" lon="-1.97945">
        <ele>1526.8</ele>
        <time>2021-10-09 14:06:30</time>
      </trkpt>
      <trkpt lat="40.43257" lon="-1.97943">
        <ele>1526.8</ele>
        <time>2021-10-09 14:06:31</time>
      </trkpt>
      <trkpt lat="40.43254" lon="-1.97941">
        <ele>1526.8</ele>
        <time>2021-10-09 14:06:32</time>
      </trkpt>
      <trkpt lat="40.43251" lon="-1.97938">
        <ele>1527</ele>
        <time>2021-10-09 14:06:33</time>
      </trkpt>
      <trkpt lat="40.43248" lon="-1.97936">
        <ele>1527</ele>
        <time>2021-10-09 14:06:34</time>
      </trkpt>
      <trkpt lat="40.43245" lon="-1.97934">
        <ele>1527.4</ele>
        <time>2021-10-09 14:06:35</time>
      </trkpt>
      <trkpt lat="40.43242" lon="-1.97932">
        <ele>1527.4</ele>
        <time>2021-10-09 14:06:36</time>
      </trkpt>
      <trkpt lat="40.4324" lon="-1.9793">
        <ele>1527.6</ele>
        <time>2021-10-09 14:06:37</time>
      </trkpt>
      <trkpt lat="40.43237" lon="-1.97928">
        <ele>1527.6</ele>
        <time>2021-10-09 14:06:38</time>
      </trkpt>
      <trkpt lat="40.43234" lon="-1.97927">
        <ele>1527.6</ele>
        <time>2021-10-09 14:06:39</time>
      </trkpt>
      <trkpt lat="40.43232" lon="-1.97925">
        <ele>1527.8</ele>
        <time>2021-10-09 14:06:40</time>
      </trkpt>
      <trkpt lat="40.43229" lon="-1.97923">
        <ele>1528.4</ele>
        <time>2021-10-09 14:06:41</time>
      </trkpt>
      <trkpt lat="40.43226" lon="-1.97921">
        <ele>1528.4</ele>
        <time>2021-10-09 14:06:42</time>
      </trkpt>
      <trkpt lat="40.43223" lon="-1.97919">
        <ele>1528.4</ele>
        <time>2021-10-09 14:06:43</time>
      </trkpt>
      <trkpt lat="40.43221" lon="-1.97917">
        <ele>1528.8</ele>
        <time>2021-10-09 14:06:44</time>
      </trkpt>
      <trkpt lat="40.43219" lon="-1.97915">
        <ele>1529.2</ele>
        <time>2021-10-09 14:06:45</time>
      </trkpt>
      <trkpt lat="40.43217" lon="-1.97913">
        <ele>1529.2</ele>
        <time>2021-10-09 14:06:46</time>
      </trkpt>
      <trkpt lat="40.43215" lon="-1.97912">
        <ele>1529.2</ele>
        <time>2021-10-09 14:06:47</time>
      </trkpt>
      <trkpt lat="40.43213" lon="-1.9791">
        <ele>1529.6</ele>
        <time>2021-10-09 14:06:48</time>
      </trkpt>
      <trkpt lat="40.43211" lon="-1.97908">
        <ele>1530</ele>
        <time>2021-10-09 14:06:49</time>
      </trkpt>
      <trkpt lat="40.43208" lon="-1.97907">
        <ele>1530</ele>
        <time>2021-10-09 14:06:50</time>
      </trkpt>
      <trkpt lat="40.43206" lon="-1.97905">
        <ele>1530.2</ele>
        <time>2021-10-09 14:06:51</time>
      </trkpt>
      <trkpt lat="40.43203" lon="-1.97903">
        <ele>1530.2</ele>
        <time>2021-10-09 14:06:52</time>
      </trkpt>
      <trkpt lat="40.43201" lon="-1.97901">
        <ele>1530.4</ele>
        <time>2021-10-09 14:06:53</time>
      </trkpt>
      <trkpt lat="40.43198" lon="-1.979">
        <ele>1530.4</ele>
        <time>2021-10-09 14:06:54</time>
      </trkpt>
      <trkpt lat="40.43196" lon="-1.97898">
        <ele>1530.4</ele>
        <time>2021-10-09 14:06:55</time>
      </trkpt>
      <trkpt lat="40.43194" lon="-1.97897">
        <ele>1530.6</ele>
        <time>2021-10-09 14:06:56</time>
      </trkpt>
      <trkpt lat="40.43192" lon="-1.97895">
        <ele>1530.6</ele>
        <time>2021-10-09 14:06:57</time>
      </trkpt>
      <trkpt lat="40.4319" lon="-1.97894">
        <ele>1531</ele>
        <time>2021-10-09 14:06:58</time>
      </trkpt>
      <trkpt lat="40.43188" lon="-1.97892">
        <ele>1531</ele>
        <time>2021-10-09 14:06:59</time>
      </trkpt>
      <trkpt lat="40.43186" lon="-1.9789">
        <ele>1531.2</ele>
        <time>2021-10-09 14:07:00</time>
      </trkpt>
      <trkpt lat="40.43184" lon="-1.97888">
        <ele>1531.2</ele>
        <time>2021-10-09 14:07:01</time>
      </trkpt>
      <trkpt lat="40.43182" lon="-1.97886">
        <ele>1531.4</ele>
        <time>2021-10-09 14:07:02</time>
      </trkpt>
      <trkpt lat="40.4318" lon="-1.97884">
        <ele>1531.6</ele>
        <time>2021-10-09 14:07:03</time>
      </trkpt>
      <trkpt lat="40.43178" lon="-1.97882">
        <ele>1531.6</ele>
        <time>2021-10-09 14:07:04</time>
      </trkpt>
      <trkpt lat="40.43176" lon="-1.97879">
        <ele>1532</ele>
        <time>2021-10-09 14:07:05</time>
      </trkpt>
      <trkpt lat="40.43174" lon="-1.97877">
        <ele>1532</ele>
        <time>2021-10-09 14:07:06</time>
      </trkpt>
      <trkpt lat="40.43172" lon="-1.97875">
        <ele>1532</ele>
        <time>2021-10-09 14:07:07</time>
      </trkpt>
      <trkpt lat="40.4317" lon="-1.97873">
        <ele>1532.2</ele>
        <time>2021-10-09 14:07:08</time>
      </trkpt>
      <trkpt lat="40.43167" lon="-1.9787">
        <ele>1532.2</ele>
        <time>2021-10-09 14:07:09</time>
      </trkpt>
      <trkpt lat="40.43165" lon="-1.97868">
        <ele>1532.2</ele>
        <time>2021-10-09 14:07:10</time>
      </trkpt>
      <trkpt lat="40.43163" lon="-1.97866">
        <ele>1532.4</ele>
        <time>2021-10-09 14:07:11</time>
      </trkpt>
      <trkpt lat="40.43161" lon="-1.97863">
        <ele>1532.4</ele>
        <time>2021-10-09 14:07:12</time>
      </trkpt>
      <trkpt lat="40.43159" lon="-1.9786">
        <ele>1532.4</ele>
        <time>2021-10-09 14:07:13</time>
      </trkpt>
      <trkpt lat="40.43157" lon="-1.97857">
        <ele>1532.8</ele>
        <time>2021-10-09 14:07:14</time>
      </trkpt>
      <trkpt lat="40.43155" lon="-1.97854">
        <ele>1532.8</ele>
        <time>2021-10-09 14:07:15</time>
      </trkpt>
      <trkpt lat="40.43153" lon="-1.97851">
        <ele>1532.8</ele>
        <time>2021-10-09 14:07:16</time>
      </trkpt>
      <trkpt lat="40.43151" lon="-1.97848">
        <ele>1533</ele>
        <time>2021-10-09 14:07:17</time>
      </trkpt>
      <trkpt lat="40.43149" lon="-1.97845">
        <ele>1533</ele>
        <time>2021-10-09 14:07:18</time>
      </trkpt>
      <trkpt lat="40.43147" lon="-1.97842">
        <ele>1533.2</ele>
        <time>2021-10-09 14:07:19</time>
      </trkpt>
      <trkpt lat="40.43145" lon="-1.97839">
        <ele>1533.6</ele>
        <time>2021-10-09 14:07:20</time>
      </trkpt>
      <trkpt lat="40.43143" lon="-1.97836">
        <ele>1533.6</ele>
        <time>2021-10-09 14:07:21</time>
      </trkpt>
      <trkpt lat="40.43141" lon="-1.97833">
        <ele>1533.8</ele>
        <time>2021-10-09 14:07:22</time>
      </trkpt>
      <trkpt lat="40.43139" lon="-1.9783">
        <ele>1533.8</ele>
        <time>2021-10-09 14:07:23</time>
      </trkpt>
      <trkpt lat="40.43137" lon="-1.97827">
        <ele>1533.8</ele>
        <time>2021-10-09 14:07:24</time>
      </trkpt>
      <trkpt lat="40.43135" lon="-1.97824">
        <ele>1534</ele>
        <time>2021-10-09 14:07:25</time>
      </trkpt>
      <trkpt lat="40.43133" lon="-1.97821">
        <ele>1534</ele>
        <time>2021-10-09 14:07:26</time>
      </trkpt>
      <trkpt lat="40.43132" lon="-1.97818">
        <ele>1534.2</ele>
        <time>2021-10-09 14:07:27</time>
      </trkpt>
      <trkpt lat="40.4313" lon="-1.97815">
        <ele>1534.2</ele>
        <time>2021-10-09 14:07:28</time>
      </trkpt>
      <trkpt lat="40.43128" lon="-1.97812">
        <ele>1534.2</ele>
        <time>2021-10-09 14:07:29</time>
      </trkpt>
      <trkpt lat="40.43126" lon="-1.97809">
        <ele>1534.6</ele>
        <time>2021-10-09 14:07:30</time>
      </trkpt>
      <trkpt lat="40.43123" lon="-1.97806">
        <ele>1534.6</ele>
        <time>2021-10-09 14:07:31</time>
      </trkpt>
      <trkpt lat="40.43121" lon="-1.97803">
        <ele>1534.6</ele>
        <time>2021-10-09 14:07:32</time>
      </trkpt>
      <trkpt lat="40.43119" lon="-1.978">
        <ele>1534.8</ele>
        <time>2021-10-09 14:07:33</time>
      </trkpt>
      <trkpt lat="40.43116" lon="-1.97796">
        <ele>1534.8</ele>
        <time>2021-10-09 14:07:34</time>
      </trkpt>
      <trkpt lat="40.43114" lon="-1.97793">
        <ele>1535</ele>
        <time>2021-10-09 14:07:35</time>
      </trkpt>
      <trkpt lat="40.43112" lon="-1.9779">
        <ele>1535</ele>
        <time>2021-10-09 14:07:36</time>
      </trkpt>
      <trkpt lat="40.4311" lon="-1.97786">
        <ele>1535</ele>
        <time>2021-10-09 14:07:37</time>
      </trkpt>
      <trkpt lat="40.43108" lon="-1.97783">
        <ele>1535</ele>
        <time>2021-10-09 14:07:38</time>
      </trkpt>
      <trkpt lat="40.43105" lon="-1.97779">
        <ele>1535</ele>
        <time>2021-10-09 14:07:39</time>
      </trkpt>
      <trkpt lat="40.43103" lon="-1.97775">
        <ele>1535</ele>
        <time>2021-10-09 14:07:40</time>
      </trkpt>
      <trkpt lat="40.431" lon="-1.97771">
        <ele>1535</ele>
        <time>2021-10-09 14:07:41</time>
      </trkpt>
      <trkpt lat="40.43098" lon="-1.97765">
        <ele>1535</ele>
        <time>2021-10-09 14:07:42</time>
      </trkpt>
      <trkpt lat="40.43095" lon="-1.9776">
        <ele>1534.8</ele>
        <time>2021-10-09 14:07:43</time>
      </trkpt>
      <trkpt lat="40.43092" lon="-1.97755">
        <ele>1534.8</ele>
        <time>2021-10-09 14:07:44</time>
      </trkpt>
      <trkpt lat="40.43089" lon="-1.9775">
        <ele>1534.8</ele>
        <time>2021-10-09 14:07:45</time>
      </trkpt>
      <trkpt lat="40.43086" lon="-1.97744">
        <ele>1534.6</ele>
        <time>2021-10-09 14:07:46</time>
      </trkpt>
      <trkpt lat="40.43083" lon="-1.97738">
        <ele>1534.6</ele>
        <time>2021-10-09 14:07:47</time>
      </trkpt>
      <trkpt lat="40.43082" lon="-1.97732">
        <ele>1534.6</ele>
        <time>2021-10-09 14:07:48</time>
      </trkpt>
      <trkpt lat="40.43079" lon="-1.97727">
        <ele>1534.6</ele>
        <time>2021-10-09 14:07:49</time>
      </trkpt>
      <trkpt lat="40.43075" lon="-1.97724">
        <ele>1534.6</ele>
        <time>2021-10-09 14:07:50</time>
      </trkpt>
      <trkpt lat="40.43072" lon="-1.97719">
        <ele>1534.6</ele>
        <time>2021-10-09 14:07:51</time>
      </trkpt>
      <trkpt lat="40.43069" lon="-1.97714">
        <ele>1534.6</ele>
        <time>2021-10-09 14:07:52</time>
      </trkpt>
      <trkpt lat="40.43065" lon="-1.97709">
        <ele>1534.6</ele>
        <time>2021-10-09 14:07:53</time>
      </trkpt>
      <trkpt lat="40.43062" lon="-1.97704">
        <ele>1534.6</ele>
        <time>2021-10-09 14:07:54</time>
      </trkpt>
      <trkpt lat="40.43058" lon="-1.97699">
        <ele>1534.6</ele>
        <time>2021-10-09 14:07:55</time>
      </trkpt>
      <trkpt lat="40.43055" lon="-1.97695">
        <ele>1534.6</ele>
        <time>2021-10-09 14:07:56</time>
      </trkpt>
      <trkpt lat="40.43052" lon="-1.9769">
        <ele>1535</ele>
        <time>2021-10-09 14:07:57</time>
      </trkpt>
      <trkpt lat="40.43049" lon="-1.97685">
        <ele>1535</ele>
        <time>2021-10-09 14:07:58</time>
      </trkpt>
      <trkpt lat="40.43047" lon="-1.97681">
        <ele>1535.2</ele>
        <time>2021-10-09 14:07:59</time>
      </trkpt>
      <trkpt lat="40.43044" lon="-1.97677">
        <ele>1535.2</ele>
        <time>2021-10-09 14:08:00</time>
      </trkpt>
      <trkpt lat="40.43042" lon="-1.97673">
        <ele>1535.2</ele>
        <time>2021-10-09 14:08:01</time>
      </trkpt>
      <trkpt lat="40.4304" lon="-1.97669">
        <ele>1535.4</ele>
        <time>2021-10-09 14:08:02</time>
      </trkpt>
      <trkpt lat="40.43037" lon="-1.97665">
        <ele>1535.4</ele>
        <time>2021-10-09 14:08:03</time>
      </trkpt>
      <trkpt lat="40.43035" lon="-1.97662">
        <ele>1535.4</ele>
        <time>2021-10-09 14:08:04</time>
      </trkpt>
      <trkpt lat="40.43032" lon="-1.97658">
        <ele>1535.4</ele>
        <time>2021-10-09 14:08:05</time>
      </trkpt>
      <trkpt lat="40.4303" lon="-1.97654">
        <ele>1535.4</ele>
        <time>2021-10-09 14:08:06</time>
      </trkpt>
      <trkpt lat="40.43028" lon="-1.9765">
        <ele>1535.4</ele>
        <time>2021-10-09 14:08:07</time>
      </trkpt>
      <trkpt lat="40.43026" lon="-1.97646">
        <ele>1535.8</ele>
        <time>2021-10-09 14:08:08</time>
      </trkpt>
      <trkpt lat="40.43023" lon="-1.97643">
        <ele>1535.8</ele>
        <time>2021-10-09 14:08:09</time>
      </trkpt>
      <trkpt lat="40.43021" lon="-1.97639">
        <ele>1535.8</ele>
        <time>2021-10-09 14:08:10</time>
      </trkpt>
      <trkpt lat="40.43019" lon="-1.97635">
        <ele>1536</ele>
        <time>2021-10-09 14:08:11</time>
      </trkpt>
      <trkpt lat="40.43016" lon="-1.97631">
        <ele>1536</ele>
        <time>2021-10-09 14:08:12</time>
      </trkpt>
      <trkpt lat="40.43014" lon="-1.97628">
        <ele>1536.2</ele>
        <time>2021-10-09 14:08:13</time>
      </trkpt>
      <trkpt lat="40.43012" lon="-1.97625">
        <ele>1536.2</ele>
        <time>2021-10-09 14:08:14</time>
      </trkpt>
      <trkpt lat="40.4301" lon="-1.97622">
        <ele>1536.2</ele>
        <time>2021-10-09 14:08:15</time>
      </trkpt>
      <trkpt lat="40.43008" lon="-1.97619">
        <ele>1536.6</ele>
        <time>2021-10-09 14:08:16</time>
      </trkpt>
      <trkpt lat="40.43006" lon="-1.97617">
        <ele>1537</ele>
        <time>2021-10-09 14:08:17</time>
      </trkpt>
      <trkpt lat="40.43004" lon="-1.97614">
        <ele>1537</ele>
        <time>2021-10-09 14:08:18</time>
      </trkpt>
      <trkpt lat="40.43003" lon="-1.97611">
        <ele>1537</ele>
        <time>2021-10-09 14:08:19</time>
      </trkpt>
      <trkpt lat="40.43001" lon="-1.97609">
        <ele>1537.2</ele>
        <time>2021-10-09 14:08:20</time>
      </trkpt>
      <trkpt lat="40.42999" lon="-1.97606">
        <ele>1537.4</ele>
        <time>2021-10-09 14:08:21</time>
      </trkpt>
      <trkpt lat="40.42997" lon="-1.97603">
        <ele>1537.4</ele>
        <time>2021-10-09 14:08:22</time>
      </trkpt>
      <trkpt lat="40.42996" lon="-1.976">
        <ele>1537.6</ele>
        <time>2021-10-09 14:08:23</time>
      </trkpt>
      <trkpt lat="40.42994" lon="-1.97597">
        <ele>1537.6</ele>
        <time>2021-10-09 14:08:24</time>
      </trkpt>
      <trkpt lat="40.42992" lon="-1.97594">
        <ele>1538</ele>
        <time>2021-10-09 14:08:25</time>
      </trkpt>
      <trkpt lat="40.4299" lon="-1.97591">
        <ele>1538</ele>
        <time>2021-10-09 14:08:26</time>
      </trkpt>
      <trkpt lat="40.42988" lon="-1.97587">
        <ele>1538.4</ele>
        <time>2021-10-09 14:08:27</time>
      </trkpt>
      <trkpt lat="40.42985" lon="-1.97584">
        <ele>1538.4</ele>
        <time>2021-10-09 14:08:28</time>
      </trkpt>
      <trkpt lat="40.42983" lon="-1.97581">
        <ele>1538.4</ele>
        <time>2021-10-09 14:08:29</time>
      </trkpt>
      <trkpt lat="40.42981" lon="-1.97578">
        <ele>1538.6</ele>
        <time>2021-10-09 14:08:30</time>
      </trkpt>
      <trkpt lat="40.42979" lon="-1.97575">
        <ele>1538.6</ele>
        <time>2021-10-09 14:08:31</time>
      </trkpt>
      <trkpt lat="40.42977" lon="-1.97571">
        <ele>1538.6</ele>
        <time>2021-10-09 14:08:32</time>
      </trkpt>
      <trkpt lat="40.42975" lon="-1.97568">
        <ele>1539</ele>
        <time>2021-10-09 14:08:33</time>
      </trkpt>
      <trkpt lat="40.42974" lon="-1.97565">
        <ele>1539</ele>
        <time>2021-10-09 14:08:34</time>
      </trkpt>
      <trkpt lat="40.42972" lon="-1.97562">
        <ele>1539.2</ele>
        <time>2021-10-09 14:08:35</time>
      </trkpt>
      <trkpt lat="40.4297" lon="-1.97559">
        <ele>1539.2</ele>
        <time>2021-10-09 14:08:36</time>
      </trkpt>
      <trkpt lat="40.42968" lon="-1.97555">
        <ele>1539.2</ele>
        <time>2021-10-09 14:08:37</time>
      </trkpt>
      <trkpt lat="40.42966" lon="-1.97552">
        <ele>1539.6</ele>
        <time>2021-10-09 14:08:38</time>
      </trkpt>
      <trkpt lat="40.42965" lon="-1.97549">
        <ele>1539.6</ele>
        <time>2021-10-09 14:08:39</time>
      </trkpt>
      <trkpt lat="40.42962" lon="-1.97545">
        <ele>1539.6</ele>
        <time>2021-10-09 14:08:40</time>
      </trkpt>
      <trkpt lat="40.4296" lon="-1.97542">
        <ele>1539.8</ele>
        <time>2021-10-09 14:08:41</time>
      </trkpt>
      <trkpt lat="40.42958" lon="-1.97538">
        <ele>1539.8</ele>
        <time>2021-10-09 14:08:42</time>
      </trkpt>
      <trkpt lat="40.42956" lon="-1.97535">
        <ele>1539.8</ele>
        <time>2021-10-09 14:08:43</time>
      </trkpt>
      <trkpt lat="40.42954" lon="-1.97531">
        <ele>1539.8</ele>
        <time>2021-10-09 14:08:44</time>
      </trkpt>
      <trkpt lat="40.42952" lon="-1.97527">
        <ele>1539.8</ele>
        <time>2021-10-09 14:08:45</time>
      </trkpt>
      <trkpt lat="40.4295" lon="-1.97522">
        <ele>1539.8</ele>
        <time>2021-10-09 14:08:46</time>
      </trkpt>
      <trkpt lat="40.42947" lon="-1.97518">
        <ele>1539.8</ele>
        <time>2021-10-09 14:08:47</time>
      </trkpt>
      <trkpt lat="40.42945" lon="-1.97513">
        <ele>1539.8</ele>
        <time>2021-10-09 14:08:48</time>
      </trkpt>
      <trkpt lat="40.42943" lon="-1.97508">
        <ele>1539.8</ele>
        <time>2021-10-09 14:08:49</time>
      </trkpt>
      <trkpt lat="40.4294" lon="-1.97504">
        <ele>1540.2</ele>
        <time>2021-10-09 14:08:50</time>
      </trkpt>
      <trkpt lat="40.42936" lon="-1.97499">
        <ele>1540.2</ele>
        <time>2021-10-09 14:08:51</time>
      </trkpt>
      <trkpt lat="40.42933" lon="-1.97495">
        <ele>1540.2</ele>
        <time>2021-10-09 14:08:52</time>
      </trkpt>
      <trkpt lat="40.4293" lon="-1.97491">
        <ele>1540.2</ele>
        <time>2021-10-09 14:08:53</time>
      </trkpt>
      <trkpt lat="40.42927" lon="-1.97485">
        <ele>1540.2</ele>
        <time>2021-10-09 14:08:54</time>
      </trkpt>
      <trkpt lat="40.42927" lon="-1.97485">
        <ele>1540.2</ele>
        <time>2021-10-09 14:08:55</time>
      </trkpt>
      <trkpt lat="40.42919" lon="-1.97477">
        <ele>1540.2</ele>
        <time>2021-10-09 14:08:56</time>
      </trkpt>
      <trkpt lat="40.42917" lon="-1.97471">
        <ele>1539.8</ele>
        <time>2021-10-09 14:08:57</time>
      </trkpt>
      <trkpt lat="40.42913" lon="-1.97466">
        <ele>1539.8</ele>
        <time>2021-10-09 14:08:58</time>
      </trkpt>
      <trkpt lat="40.42909" lon="-1.97461">
        <ele>1539.8</ele>
        <time>2021-10-09 14:08:59</time>
      </trkpt>
      <trkpt lat="40.42906" lon="-1.97456">
        <ele>1539.8</ele>
        <time>2021-10-09 14:09:00</time>
      </trkpt>
      <trkpt lat="40.42902" lon="-1.97451">
        <ele>1539.4</ele>
        <time>2021-10-09 14:09:01</time>
      </trkpt>
      <trkpt lat="40.42898" lon="-1.97446">
        <ele>1539.2</ele>
        <time>2021-10-09 14:09:02</time>
      </trkpt>
      <trkpt lat="40.42895" lon="-1.97441">
        <ele>1539</ele>
        <time>2021-10-09 14:09:03</time>
      </trkpt>
      <trkpt lat="40.42892" lon="-1.97435">
        <ele>1538.4</ele>
        <time>2021-10-09 14:09:04</time>
      </trkpt>
      <trkpt lat="40.42888" lon="-1.9743">
        <ele>1538.4</ele>
        <time>2021-10-09 14:09:05</time>
      </trkpt>
      <trkpt lat="40.42884" lon="-1.97424">
        <ele>1538.4</ele>
        <time>2021-10-09 14:09:06</time>
      </trkpt>
      <trkpt lat="40.4288" lon="-1.97418">
        <ele>1538.4</ele>
        <time>2021-10-09 14:09:07</time>
      </trkpt>
      <trkpt lat="40.42875" lon="-1.97413">
        <ele>1538.2</ele>
        <time>2021-10-09 14:09:08</time>
      </trkpt>
      <trkpt lat="40.42872" lon="-1.97407">
        <ele>1538.2</ele>
        <time>2021-10-09 14:09:09</time>
      </trkpt>
      <trkpt lat="40.42868" lon="-1.97402">
        <ele>1538.2</ele>
        <time>2021-10-09 14:09:10</time>
      </trkpt>
      <trkpt lat="40.42864" lon="-1.97395">
        <ele>1538.2</ele>
        <time>2021-10-09 14:09:11</time>
      </trkpt>
      <trkpt lat="40.4286" lon="-1.97389">
        <ele>1538.4</ele>
        <time>2021-10-09 14:09:12</time>
      </trkpt>
      <trkpt lat="40.42857" lon="-1.97381">
        <ele>1538.4</ele>
        <time>2021-10-09 14:09:13</time>
      </trkpt>
      <trkpt lat="40.42853" lon="-1.97375">
        <ele>1538.2</ele>
        <time>2021-10-09 14:09:14</time>
      </trkpt>
      <trkpt lat="40.4285" lon="-1.97368">
        <ele>1538.2</ele>
        <time>2021-10-09 14:09:15</time>
      </trkpt>
      <trkpt lat="40.42847" lon="-1.97363">
        <ele>1538.2</ele>
        <time>2021-10-09 14:09:16</time>
      </trkpt>
      <trkpt lat="40.42844" lon="-1.97356">
        <ele>1538.2</ele>
        <time>2021-10-09 14:09:17</time>
      </trkpt>
      <trkpt lat="40.42841" lon="-1.9735">
        <ele>1538.2</ele>
        <time>2021-10-09 14:09:18</time>
      </trkpt>
      <trkpt lat="40.42837" lon="-1.97345">
        <ele>1538.2</ele>
        <time>2021-10-09 14:09:19</time>
      </trkpt>
      <trkpt lat="40.42833" lon="-1.9734">
        <ele>1538.4</ele>
        <time>2021-10-09 14:09:20</time>
      </trkpt>
      <trkpt lat="40.4283" lon="-1.97335">
        <ele>1538.4</ele>
        <time>2021-10-09 14:09:21</time>
      </trkpt>
      <trkpt lat="40.42827" lon="-1.97329">
        <ele>1538.6</ele>
        <time>2021-10-09 14:09:22</time>
      </trkpt>
      <trkpt lat="40.42824" lon="-1.97323">
        <ele>1538.6</ele>
        <time>2021-10-09 14:09:23</time>
      </trkpt>
      <trkpt lat="40.42819" lon="-1.97317">
        <ele>1538.2</ele>
        <time>2021-10-09 14:09:24</time>
      </trkpt>
      <trkpt lat="40.42815" lon="-1.97312">
        <ele>1538.2</ele>
        <time>2021-10-09 14:09:25</time>
      </trkpt>
      <trkpt lat="40.42811" lon="-1.97305">
        <ele>1538.2</ele>
        <time>2021-10-09 14:09:26</time>
      </trkpt>
      <trkpt lat="40.42807" lon="-1.97299">
        <ele>1538.2</ele>
        <time>2021-10-09 14:09:27</time>
      </trkpt>
      <trkpt lat="40.42803" lon="-1.97292">
        <ele>1538.2</ele>
        <time>2021-10-09 14:09:28</time>
      </trkpt>
      <trkpt lat="40.42799" lon="-1.97286">
        <ele>1538.2</ele>
        <time>2021-10-09 14:09:29</time>
      </trkpt>
      <trkpt lat="40.42795" lon="-1.9728">
        <ele>1538.2</ele>
        <time>2021-10-09 14:09:30</time>
      </trkpt>
      <trkpt lat="40.42791" lon="-1.97273">
        <ele>1538.2</ele>
        <time>2021-10-09 14:09:31</time>
      </trkpt>
      <trkpt lat="40.42787" lon="-1.97267">
        <ele>1538.2</ele>
        <time>2021-10-09 14:09:32</time>
      </trkpt>
      <trkpt lat="40.42783" lon="-1.97262">
        <ele>1538</ele>
        <time>2021-10-09 14:09:33</time>
      </trkpt>
      <trkpt lat="40.42778" lon="-1.97256">
        <ele>1538</ele>
        <time>2021-10-09 14:09:34</time>
      </trkpt>
      <trkpt lat="40.42773" lon="-1.9725">
        <ele>1537.6</ele>
        <time>2021-10-09 14:09:35</time>
      </trkpt>
      <trkpt lat="40.42768" lon="-1.97245">
        <ele>1537.6</ele>
        <time>2021-10-09 14:09:36</time>
      </trkpt>
      <trkpt lat="40.42763" lon="-1.9724">
        <ele>1537</ele>
        <time>2021-10-09 14:09:37</time>
      </trkpt>
      <trkpt lat="40.42759" lon="-1.97233">
        <ele>1536.6</ele>
        <time>2021-10-09 14:09:38</time>
      </trkpt>
      <trkpt lat="40.42755" lon="-1.97227">
        <ele>1536.6</ele>
        <time>2021-10-09 14:09:39</time>
      </trkpt>
      <trkpt lat="40.42752" lon="-1.97222">
        <ele>1536.6</ele>
        <time>2021-10-09 14:09:40</time>
      </trkpt>
      <trkpt lat="40.42749" lon="-1.97215">
        <ele>1536.6</ele>
        <time>2021-10-09 14:09:41</time>
      </trkpt>
      <trkpt lat="40.42746" lon="-1.9721">
        <ele>1536.4</ele>
        <time>2021-10-09 14:09:42</time>
      </trkpt>
      <trkpt lat="40.42742" lon="-1.97204">
        <ele>1536.4</ele>
        <time>2021-10-09 14:09:43</time>
      </trkpt>
      <trkpt lat="40.42739" lon="-1.97199">
        <ele>1536.4</ele>
        <time>2021-10-09 14:09:44</time>
      </trkpt>
      <trkpt lat="40.42735" lon="-1.97193">
        <ele>1536.4</ele>
        <time>2021-10-09 14:09:45</time>
      </trkpt>
      <trkpt lat="40.42733" lon="-1.97187">
        <ele>1536.4</ele>
        <time>2021-10-09 14:09:46</time>
      </trkpt>
      <trkpt lat="40.4273" lon="-1.97182">
        <ele>1536.4</ele>
        <time>2021-10-09 14:09:47</time>
      </trkpt>
      <trkpt lat="40.42727" lon="-1.97176">
        <ele>1536.6</ele>
        <time>2021-10-09 14:09:48</time>
      </trkpt>
      <trkpt lat="40.42724" lon="-1.9717">
        <ele>1536.6</ele>
        <time>2021-10-09 14:09:49</time>
      </trkpt>
      <trkpt lat="40.42721" lon="-1.97163">
        <ele>1536.6</ele>
        <time>2021-10-09 14:09:50</time>
      </trkpt>
      <trkpt lat="40.42718" lon="-1.97156">
        <ele>1536.6</ele>
        <time>2021-10-09 14:09:51</time>
      </trkpt>
      <trkpt lat="40.42715" lon="-1.97149">
        <ele>1536.6</ele>
        <time>2021-10-09 14:09:52</time>
      </trkpt>
      <trkpt lat="40.42713" lon="-1.97142">
        <ele>1536.6</ele>
        <time>2021-10-09 14:09:53</time>
      </trkpt>
      <trkpt lat="40.4271" lon="-1.97135">
        <ele>1536.6</ele>
        <time>2021-10-09 14:09:54</time>
      </trkpt>
      <trkpt lat="40.42708" lon="-1.97127">
        <ele>1536.6</ele>
        <time>2021-10-09 14:09:55</time>
      </trkpt>
      <trkpt lat="40.42706" lon="-1.97118">
        <ele>1536.6</ele>
        <time>2021-10-09 14:09:56</time>
      </trkpt>
      <trkpt lat="40.42704" lon="-1.97111">
        <ele>1536.6</ele>
        <time>2021-10-09 14:09:57</time>
      </trkpt>
      <trkpt lat="40.42701" lon="-1.97102">
        <ele>1536.6</ele>
        <time>2021-10-09 14:09:58</time>
      </trkpt>
      <trkpt lat="40.42698" lon="-1.97094">
        <ele>1536.6</ele>
        <time>2021-10-09 14:09:59</time>
      </trkpt>
      <trkpt lat="40.42695" lon="-1.97087">
        <ele>1536.4</ele>
        <time>2021-10-09 14:10:00</time>
      </trkpt>
      <trkpt lat="40.42692" lon="-1.97079">
        <ele>1536.4</ele>
        <time>2021-10-09 14:10:01</time>
      </trkpt>
      <trkpt lat="40.42689" lon="-1.97071">
        <ele>1536</ele>
        <time>2021-10-09 14:10:02</time>
      </trkpt>
      <trkpt lat="40.42685" lon="-1.97062">
        <ele>1535.6</ele>
        <time>2021-10-09 14:10:03</time>
      </trkpt>
      <trkpt lat="40.42681" lon="-1.97054">
        <ele>1535.6</ele>
        <time>2021-10-09 14:10:04</time>
      </trkpt>
      <trkpt lat="40.42677" lon="-1.97047">
        <ele>1535</ele>
        <time>2021-10-09 14:10:05</time>
      </trkpt>
      <trkpt lat="40.42672" lon="-1.97039">
        <ele>1534.8</ele>
        <time>2021-10-09 14:10:06</time>
      </trkpt>
      <trkpt lat="40.42668" lon="-1.97032">
        <ele>1534.8</ele>
        <time>2021-10-09 14:10:07</time>
      </trkpt>
      <trkpt lat="40.42663" lon="-1.97024">
        <ele>1534</ele>
        <time>2021-10-09 14:10:08</time>
      </trkpt>
      <trkpt lat="40.42659" lon="-1.97016">
        <ele>1534</ele>
        <time>2021-10-09 14:10:09</time>
      </trkpt>
      <trkpt lat="40.42654" lon="-1.97009">
        <ele>1533.4</ele>
        <time>2021-10-09 14:10:10</time>
      </trkpt>
      <trkpt lat="40.42649" lon="-1.97002">
        <ele>1533</ele>
        <time>2021-10-09 14:10:11</time>
      </trkpt>
      <trkpt lat="40.42644" lon="-1.96994">
        <ele>1532.8</ele>
        <time>2021-10-09 14:10:12</time>
      </trkpt>
      <trkpt lat="40.4264" lon="-1.96986">
        <ele>1532.8</ele>
        <time>2021-10-09 14:10:13</time>
      </trkpt>
      <trkpt lat="40.42636" lon="-1.96978">
        <ele>1532.4</ele>
        <time>2021-10-09 14:10:14</time>
      </trkpt>
      <trkpt lat="40.42631" lon="-1.96971">
        <ele>1532.2</ele>
        <time>2021-10-09 14:10:15</time>
      </trkpt>
      <trkpt lat="40.42628" lon="-1.96962">
        <ele>1532</ele>
        <time>2021-10-09 14:10:16</time>
      </trkpt>
      <trkpt lat="40.42624" lon="-1.96955">
        <ele>1531.6</ele>
        <time>2021-10-09 14:10:17</time>
      </trkpt>
      <trkpt lat="40.42621" lon="-1.96945">
        <ele>1531.4</ele>
        <time>2021-10-09 14:10:18</time>
      </trkpt>
      <trkpt lat="40.42619" lon="-1.96937">
        <ele>1531.2</ele>
        <time>2021-10-09 14:10:19</time>
      </trkpt>
      <trkpt lat="40.42617" lon="-1.96929">
        <ele>1531.2</ele>
        <time>2021-10-09 14:10:20</time>
      </trkpt>
      <trkpt lat="40.42614" lon="-1.96919">
        <ele>1531.2</ele>
        <time>2021-10-09 14:10:21</time>
      </trkpt>
      <trkpt lat="40.42612" lon="-1.96911">
        <ele>1531.2</ele>
        <time>2021-10-09 14:10:22</time>
      </trkpt>
      <trkpt lat="40.42609" lon="-1.96903">
        <ele>1531</ele>
        <time>2021-10-09 14:10:23</time>
      </trkpt>
      <trkpt lat="40.42607" lon="-1.96894">
        <ele>1531</ele>
        <time>2021-10-09 14:10:24</time>
      </trkpt>
      <trkpt lat="40.42604" lon="-1.96886">
        <ele>1530.6</ele>
        <time>2021-10-09 14:10:25</time>
      </trkpt>
      <trkpt lat="40.42602" lon="-1.96878">
        <ele>1530.6</ele>
        <time>2021-10-09 14:10:26</time>
      </trkpt>
      <trkpt lat="40.42599" lon="-1.9687">
        <ele>1530.4</ele>
        <time>2021-10-09 14:10:27</time>
      </trkpt>
      <trkpt lat="40.42596" lon="-1.96862">
        <ele>1530.4</ele>
        <time>2021-10-09 14:10:28</time>
      </trkpt>
      <trkpt lat="40.42594" lon="-1.96854">
        <ele>1530</ele>
        <time>2021-10-09 14:10:29</time>
      </trkpt>
      <trkpt lat="40.42591" lon="-1.96847">
        <ele>1530</ele>
        <time>2021-10-09 14:10:30</time>
      </trkpt>
      <trkpt lat="40.42589" lon="-1.96839">
        <ele>1530</ele>
        <time>2021-10-09 14:10:31</time>
      </trkpt>
      <trkpt lat="40.42587" lon="-1.96831">
        <ele>1530</ele>
        <time>2021-10-09 14:10:32</time>
      </trkpt>
      <trkpt lat="40.42586" lon="-1.96824">
        <ele>1530</ele>
        <time>2021-10-09 14:10:33</time>
      </trkpt>
      <trkpt lat="40.42583" lon="-1.96817">
        <ele>1529.6</ele>
        <time>2021-10-09 14:10:34</time>
      </trkpt>
      <trkpt lat="40.4258" lon="-1.9681">
        <ele>1529.2</ele>
        <time>2021-10-09 14:10:35</time>
      </trkpt>
      <trkpt lat="40.42578" lon="-1.96803">
        <ele>1529.2</ele>
        <time>2021-10-09 14:10:36</time>
      </trkpt>
      <trkpt lat="40.42575" lon="-1.96796">
        <ele>1528.8</ele>
        <time>2021-10-09 14:10:37</time>
      </trkpt>
      <trkpt lat="40.42573" lon="-1.96789">
        <ele>1528.8</ele>
        <time>2021-10-09 14:10:38</time>
      </trkpt>
      <trkpt lat="40.42569" lon="-1.96784">
        <ele>1528.4</ele>
        <time>2021-10-09 14:10:39</time>
      </trkpt>
      <trkpt lat="40.42566" lon="-1.96777">
        <ele>1528</ele>
        <time>2021-10-09 14:10:40</time>
      </trkpt>
      <trkpt lat="40.42561" lon="-1.96772">
        <ele>1528</ele>
        <time>2021-10-09 14:10:41</time>
      </trkpt>
      <trkpt lat="40.42558" lon="-1.96766">
        <ele>1527.6</ele>
        <time>2021-10-09 14:10:42</time>
      </trkpt>
      <trkpt lat="40.42554" lon="-1.9676">
        <ele>1527.6</ele>
        <time>2021-10-09 14:10:43</time>
      </trkpt>
      <trkpt lat="40.42551" lon="-1.96754">
        <ele>1527.6</ele>
        <time>2021-10-09 14:10:44</time>
      </trkpt>
      <trkpt lat="40.42547" lon="-1.96747">
        <ele>1527.4</ele>
        <time>2021-10-09 14:10:45</time>
      </trkpt>
      <trkpt lat="40.42543" lon="-1.96742">
        <ele>1527.4</ele>
        <time>2021-10-09 14:10:46</time>
      </trkpt>
      <trkpt lat="40.4254" lon="-1.96736">
        <ele>1527</ele>
        <time>2021-10-09 14:10:47</time>
      </trkpt>
      <trkpt lat="40.42535" lon="-1.9673">
        <ele>1526.8</ele>
        <time>2021-10-09 14:10:48</time>
      </trkpt>
      <trkpt lat="40.42532" lon="-1.96724">
        <ele>1526.8</ele>
        <time>2021-10-09 14:10:49</time>
      </trkpt>
      <trkpt lat="40.42527" lon="-1.96719">
        <ele>1526.6</ele>
        <time>2021-10-09 14:10:50</time>
      </trkpt>
      <trkpt lat="40.42523" lon="-1.96715">
        <ele>1526.4</ele>
        <time>2021-10-09 14:10:51</time>
      </trkpt>
      <trkpt lat="40.42518" lon="-1.9671">
        <ele>1526</ele>
        <time>2021-10-09 14:10:52</time>
      </trkpt>
      <trkpt lat="40.42514" lon="-1.96705">
        <ele>1526</ele>
        <time>2021-10-09 14:10:53</time>
      </trkpt>
      <trkpt lat="40.4251" lon="-1.967">
        <ele>1525.8</ele>
        <time>2021-10-09 14:10:54</time>
      </trkpt>
      <trkpt lat="40.42505" lon="-1.96695">
        <ele>1525.8</ele>
        <time>2021-10-09 14:10:55</time>
      </trkpt>
      <trkpt lat="40.42501" lon="-1.9669">
        <ele>1525.6</ele>
        <time>2021-10-09 14:10:56</time>
      </trkpt>
      <trkpt lat="40.42497" lon="-1.96686">
        <ele>1525.2</ele>
        <time>2021-10-09 14:10:57</time>
      </trkpt>
      <trkpt lat="40.42492" lon="-1.96683">
        <ele>1525.2</ele>
        <time>2021-10-09 14:10:58</time>
      </trkpt>
      <trkpt lat="40.42486" lon="-1.96681">
        <ele>1525.2</ele>
        <time>2021-10-09 14:10:59</time>
      </trkpt>
      <trkpt lat="40.42482" lon="-1.96678">
        <ele>1525.2</ele>
        <time>2021-10-09 14:11:00</time>
      </trkpt>
      <trkpt lat="40.42478" lon="-1.96674">
        <ele>1525</ele>
        <time>2021-10-09 14:11:01</time>
      </trkpt>
      <trkpt lat="40.42475" lon="-1.9667">
        <ele>1525</ele>
        <time>2021-10-09 14:11:02</time>
      </trkpt>
      <trkpt lat="40.42471" lon="-1.96667">
        <ele>1525</ele>
        <time>2021-10-09 14:11:03</time>
      </trkpt>
      <trkpt lat="40.42467" lon="-1.96664">
        <ele>1524.6</ele>
        <time>2021-10-09 14:11:04</time>
      </trkpt>
      <trkpt lat="40.42464" lon="-1.96659">
        <ele>1524.6</ele>
        <time>2021-10-09 14:11:05</time>
      </trkpt>
      <trkpt lat="40.4246" lon="-1.96656">
        <ele>1524.6</ele>
        <time>2021-10-09 14:11:06</time>
      </trkpt>
      <trkpt lat="40.42456" lon="-1.96651">
        <ele>1524.6</ele>
        <time>2021-10-09 14:11:07</time>
      </trkpt>
      <trkpt lat="40.42453" lon="-1.96647">
        <ele>1524.6</ele>
        <time>2021-10-09 14:11:08</time>
      </trkpt>
      <trkpt lat="40.42449" lon="-1.96641">
        <ele>1524.6</ele>
        <time>2021-10-09 14:11:09</time>
      </trkpt>
      <trkpt lat="40.42446" lon="-1.96637">
        <ele>1524.6</ele>
        <time>2021-10-09 14:11:10</time>
      </trkpt>
      <trkpt lat="40.42442" lon="-1.96634">
        <ele>1524.6</ele>
        <time>2021-10-09 14:11:11</time>
      </trkpt>
      <trkpt lat="40.42438" lon="-1.96631">
        <ele>1524.6</ele>
        <time>2021-10-09 14:11:12</time>
      </trkpt>
      <trkpt lat="40.42434" lon="-1.96627">
        <ele>1524.6</ele>
        <time>2021-10-09 14:11:13</time>
      </trkpt>
      <trkpt lat="40.42431" lon="-1.96622">
        <ele>1524.6</ele>
        <time>2021-10-09 14:11:14</time>
      </trkpt>
      <trkpt lat="40.42428" lon="-1.96619">
        <ele>1524.6</ele>
        <time>2021-10-09 14:11:15</time>
      </trkpt>
      <trkpt lat="40.42424" lon="-1.96616">
        <ele>1524.6</ele>
        <time>2021-10-09 14:11:16</time>
      </trkpt>
      <trkpt lat="40.4242" lon="-1.96612">
        <ele>1524.6</ele>
        <time>2021-10-09 14:11:17</time>
      </trkpt>
      <trkpt lat="40.42417" lon="-1.96607">
        <ele>1524.4</ele>
        <time>2021-10-09 14:11:18</time>
      </trkpt>
      <trkpt lat="40.42414" lon="-1.96602">
        <ele>1524.4</ele>
        <time>2021-10-09 14:11:19</time>
      </trkpt>
      <trkpt lat="40.4241" lon="-1.96599">
        <ele>1524.4</ele>
        <time>2021-10-09 14:11:20</time>
      </trkpt>
      <trkpt lat="40.42408" lon="-1.96595">
        <ele>1524.4</ele>
        <time>2021-10-09 14:11:21</time>
      </trkpt>
      <trkpt lat="40.42405" lon="-1.96591">
        <ele>1524.4</ele>
        <time>2021-10-09 14:11:22</time>
      </trkpt>
      <trkpt lat="40.42401" lon="-1.96589">
        <ele>1524.4</ele>
        <time>2021-10-09 14:11:23</time>
      </trkpt>
      <trkpt lat="40.42399" lon="-1.96585">
        <ele>1524.2</ele>
        <time>2021-10-09 14:11:24</time>
      </trkpt>
      <trkpt lat="40.42396" lon="-1.96581">
        <ele>1524.2</ele>
        <time>2021-10-09 14:11:25</time>
      </trkpt>
      <trkpt lat="40.42392" lon="-1.96578">
        <ele>1524.2</ele>
        <time>2021-10-09 14:11:26</time>
      </trkpt>
      <trkpt lat="40.4239" lon="-1.96574">
        <ele>1524.2</ele>
        <time>2021-10-09 14:11:27</time>
      </trkpt>
      <trkpt lat="40.42386" lon="-1.9657">
        <ele>1524.2</ele>
        <time>2021-10-09 14:11:28</time>
      </trkpt>
      <trkpt lat="40.42384" lon="-1.96567">
        <ele>1524.2</ele>
        <time>2021-10-09 14:11:29</time>
      </trkpt>
      <trkpt lat="40.42381" lon="-1.96565">
        <ele>1524.2</ele>
        <time>2021-10-09 14:11:30</time>
      </trkpt>
      <trkpt lat="40.42378" lon="-1.96562">
        <ele>1524.2</ele>
        <time>2021-10-09 14:11:31</time>
      </trkpt>
      <trkpt lat="40.42375" lon="-1.96559">
        <ele>1524.2</ele>
        <time>2021-10-09 14:11:32</time>
      </trkpt>
      <trkpt lat="40.42371" lon="-1.96557">
        <ele>1524.6</ele>
        <time>2021-10-09 14:11:33</time>
      </trkpt>
      <trkpt lat="40.42368" lon="-1.96554">
        <ele>1524.6</ele>
        <time>2021-10-09 14:11:34</time>
      </trkpt>
      <trkpt lat="40.42365" lon="-1.96551">
        <ele>1524.6</ele>
        <time>2021-10-09 14:11:35</time>
      </trkpt>
      <trkpt lat="40.42362" lon="-1.96549">
        <ele>1524.6</ele>
        <time>2021-10-09 14:11:36</time>
      </trkpt>
      <trkpt lat="40.42358" lon="-1.96546">
        <ele>1524.2</ele>
        <time>2021-10-09 14:11:37</time>
      </trkpt>
      <trkpt lat="40.42355" lon="-1.96543">
        <ele>1524.2</ele>
        <time>2021-10-09 14:11:38</time>
      </trkpt>
      <trkpt lat="40.42351" lon="-1.9654">
        <ele>1524.6</ele>
        <time>2021-10-09 14:11:39</time>
      </trkpt>
      <trkpt lat="40.42347" lon="-1.96537">
        <ele>1524.6</ele>
        <time>2021-10-09 14:11:40</time>
      </trkpt>
      <trkpt lat="40.42343" lon="-1.96534">
        <ele>1524.4</ele>
        <time>2021-10-09 14:11:41</time>
      </trkpt>
      <trkpt lat="40.42338" lon="-1.96531">
        <ele>1524.4</ele>
        <time>2021-10-09 14:11:42</time>
      </trkpt>
      <trkpt lat="40.42334" lon="-1.96529">
        <ele>1524.4</ele>
        <time>2021-10-09 14:11:43</time>
      </trkpt>
      <trkpt lat="40.4233" lon="-1.96525">
        <ele>1524.4</ele>
        <time>2021-10-09 14:11:44</time>
      </trkpt>
      <trkpt lat="40.42326" lon="-1.96522">
        <ele>1524.4</ele>
        <time>2021-10-09 14:11:45</time>
      </trkpt>
      <trkpt lat="40.42323" lon="-1.96519">
        <ele>1524</ele>
        <time>2021-10-09 14:11:46</time>
      </trkpt>
      <trkpt lat="40.42319" lon="-1.96515">
        <ele>1524</ele>
        <time>2021-10-09 14:11:47</time>
      </trkpt>
      <trkpt lat="40.42315" lon="-1.96512">
        <ele>1524</ele>
        <time>2021-10-09 14:11:48</time>
      </trkpt>
      <trkpt lat="40.42311" lon="-1.96507">
        <ele>1523.8</ele>
        <time>2021-10-09 14:11:49</time>
      </trkpt>
      <trkpt lat="40.42307" lon="-1.96503">
        <ele>1523.8</ele>
        <time>2021-10-09 14:11:50</time>
      </trkpt>
      <trkpt lat="40.42303" lon="-1.96498">
        <ele>1523.8</ele>
        <time>2021-10-09 14:11:51</time>
      </trkpt>
      <trkpt lat="40.423" lon="-1.96493">
        <ele>1523.8</ele>
        <time>2021-10-09 14:11:52</time>
      </trkpt>
      <trkpt lat="40.42297" lon="-1.96489">
        <ele>1523.8</ele>
        <time>2021-10-09 14:11:53</time>
      </trkpt>
      <trkpt lat="40.42293" lon="-1.96483">
        <ele>1523.8</ele>
        <time>2021-10-09 14:11:54</time>
      </trkpt>
      <trkpt lat="40.4229" lon="-1.96478">
        <ele>1523.4</ele>
        <time>2021-10-09 14:11:55</time>
      </trkpt>
      <trkpt lat="40.42286" lon="-1.96474">
        <ele>1523.4</ele>
        <time>2021-10-09 14:11:56</time>
      </trkpt>
      <trkpt lat="40.42282" lon="-1.96469">
        <ele>1523.4</ele>
        <time>2021-10-09 14:11:57</time>
      </trkpt>
      <trkpt lat="40.4228" lon="-1.96465">
        <ele>1523.2</ele>
        <time>2021-10-09 14:11:58</time>
      </trkpt>
      <trkpt lat="40.42276" lon="-1.9646">
        <ele>1523.2</ele>
        <time>2021-10-09 14:11:59</time>
      </trkpt>
      <trkpt lat="40.42273" lon="-1.96455">
        <ele>1523.2</ele>
        <time>2021-10-09 14:12:00</time>
      </trkpt>
      <trkpt lat="40.4227" lon="-1.9645">
        <ele>1522.8</ele>
        <time>2021-10-09 14:12:01</time>
      </trkpt>
      <trkpt lat="40.42266" lon="-1.96445">
        <ele>1522.6</ele>
        <time>2021-10-09 14:12:02</time>
      </trkpt>
      <trkpt lat="40.42263" lon="-1.9644">
        <ele>1522.6</ele>
        <time>2021-10-09 14:12:03</time>
      </trkpt>
      <trkpt lat="40.42261" lon="-1.96434">
        <ele>1522.2</ele>
        <time>2021-10-09 14:12:04</time>
      </trkpt>
      <trkpt lat="40.42257" lon="-1.96431">
        <ele>1522.2</ele>
        <time>2021-10-09 14:12:05</time>
      </trkpt>
      <trkpt lat="40.42253" lon="-1.96427">
        <ele>1522</ele>
        <time>2021-10-09 14:12:06</time>
      </trkpt>
      <trkpt lat="40.42251" lon="-1.96422">
        <ele>1521.8</ele>
        <time>2021-10-09 14:12:07</time>
      </trkpt>
      <trkpt lat="40.42248" lon="-1.96418">
        <ele>1521.8</ele>
        <time>2021-10-09 14:12:08</time>
      </trkpt>
      <trkpt lat="40.42244" lon="-1.96413">
        <ele>1521.8</ele>
        <time>2021-10-09 14:12:09</time>
      </trkpt>
      <trkpt lat="40.4224" lon="-1.96409">
        <ele>1521.8</ele>
        <time>2021-10-09 14:12:10</time>
      </trkpt>
      <trkpt lat="40.42236" lon="-1.96404">
        <ele>1521.4</ele>
        <time>2021-10-09 14:12:11</time>
      </trkpt>
      <trkpt lat="40.42233" lon="-1.96399">
        <ele>1521.4</ele>
        <time>2021-10-09 14:12:12</time>
      </trkpt>
      <trkpt lat="40.4223" lon="-1.96395">
        <ele>1521.4</ele>
        <time>2021-10-09 14:12:13</time>
      </trkpt>
      <trkpt lat="40.42227" lon="-1.96391">
        <ele>1521.4</ele>
        <time>2021-10-09 14:12:14</time>
      </trkpt>
      <trkpt lat="40.42224" lon="-1.96387">
        <ele>1521.4</ele>
        <time>2021-10-09 14:12:15</time>
      </trkpt>
      <trkpt lat="40.42221" lon="-1.96383">
        <ele>1521.4</ele>
        <time>2021-10-09 14:12:16</time>
      </trkpt>
      <trkpt lat="40.42218" lon="-1.96378">
        <ele>1521.4</ele>
        <time>2021-10-09 14:12:17</time>
      </trkpt>
      <trkpt lat="40.42214" lon="-1.96374">
        <ele>1521.4</ele>
        <time>2021-10-09 14:12:18</time>
      </trkpt>
      <trkpt lat="40.42211" lon="-1.96368">
        <ele>1521.4</ele>
        <time>2021-10-09 14:12:19</time>
      </trkpt>
      <trkpt lat="40.42208" lon="-1.96364">
        <ele>1521.4</ele>
        <time>2021-10-09 14:12:20</time>
      </trkpt>
      <trkpt lat="40.42204" lon="-1.96359">
        <ele>1521.8</ele>
        <time>2021-10-09 14:12:21</time>
      </trkpt>
      <trkpt lat="40.42201" lon="-1.96355">
        <ele>1521.8</ele>
        <time>2021-10-09 14:12:22</time>
      </trkpt>
      <trkpt lat="40.42198" lon="-1.9635">
        <ele>1521.8</ele>
        <time>2021-10-09 14:12:23</time>
      </trkpt>
      <trkpt lat="40.42195" lon="-1.96345">
        <ele>1522.2</ele>
        <time>2021-10-09 14:12:24</time>
      </trkpt>
      <trkpt lat="40.42191" lon="-1.96341">
        <ele>1522.2</ele>
        <time>2021-10-09 14:12:25</time>
      </trkpt>
      <trkpt lat="40.42188" lon="-1.96335">
        <ele>1522.2</ele>
        <time>2021-10-09 14:12:26</time>
      </trkpt>
      <trkpt lat="40.42185" lon="-1.96331">
        <ele>1522.2</ele>
        <time>2021-10-09 14:12:27</time>
      </trkpt>
      <trkpt lat="40.42182" lon="-1.96326">
        <ele>1522.2</ele>
        <time>2021-10-09 14:12:28</time>
      </trkpt>
      <trkpt lat="40.4218" lon="-1.96321">
        <ele>1522.6</ele>
        <time>2021-10-09 14:12:29</time>
      </trkpt>
      <trkpt lat="40.42176" lon="-1.96317">
        <ele>1522.6</ele>
        <time>2021-10-09 14:12:30</time>
      </trkpt>
      <trkpt lat="40.42175" lon="-1.96314">
        <ele>1522.8</ele>
        <time>2021-10-09 14:12:31</time>
      </trkpt>
      <trkpt lat="40.42173" lon="-1.96309">
        <ele>1523</ele>
        <time>2021-10-09 14:12:32</time>
      </trkpt>
      <trkpt lat="40.42171" lon="-1.96304">
        <ele>1523.2</ele>
        <time>2021-10-09 14:12:33</time>
      </trkpt>
      <trkpt lat="40.4217" lon="-1.96298">
        <ele>1523.2</ele>
        <time>2021-10-09 14:12:34</time>
      </trkpt>
      <trkpt lat="40.42166" lon="-1.96294">
        <ele>1523.2</ele>
        <time>2021-10-09 14:12:35</time>
      </trkpt>
      <trkpt lat="40.42166" lon="-1.96288">
        <ele>1523.8</ele>
        <time>2021-10-09 14:12:36</time>
      </trkpt>
      <trkpt lat="40.42164" lon="-1.96283">
        <ele>1523.8</ele>
        <time>2021-10-09 14:12:37</time>
      </trkpt>
      <trkpt lat="40.42164" lon="-1.96278">
        <ele>1523.8</ele>
        <time>2021-10-09 14:12:38</time>
      </trkpt>
      <trkpt lat="40.42163" lon="-1.96274">
        <ele>1523.8</ele>
        <time>2021-10-09 14:12:39</time>
      </trkpt>
      <trkpt lat="40.42162" lon="-1.9627">
        <ele>1523.8</ele>
        <time>2021-10-09 14:12:40</time>
      </trkpt>
      <trkpt lat="40.42161" lon="-1.96266">
        <ele>1524.4</ele>
        <time>2021-10-09 14:12:41</time>
      </trkpt>
      <trkpt lat="40.4216" lon="-1.96262">
        <ele>1524.4</ele>
        <time>2021-10-09 14:12:42</time>
      </trkpt>
      <trkpt lat="40.42159" lon="-1.96258">
        <ele>1524.4</ele>
        <time>2021-10-09 14:12:43</time>
      </trkpt>
      <trkpt lat="40.42159" lon="-1.96254">
        <ele>1524.4</ele>
        <time>2021-10-09 14:12:44</time>
      </trkpt>
      <trkpt lat="40.42158" lon="-1.96249">
        <ele>1524.6</ele>
        <time>2021-10-09 14:12:45</time>
      </trkpt>
      <trkpt lat="40.42157" lon="-1.96243">
        <ele>1524.6</ele>
        <time>2021-10-09 14:12:46</time>
      </trkpt>
      <trkpt lat="40.42156" lon="-1.96238">
        <ele>1524.6</ele>
        <time>2021-10-09 14:12:47</time>
      </trkpt>
      <trkpt lat="40.42155" lon="-1.96233">
        <ele>1524.6</ele>
        <time>2021-10-09 14:12:48</time>
      </trkpt>
      <trkpt lat="40.42154" lon="-1.96229">
        <ele>1524.2</ele>
        <time>2021-10-09 14:12:49</time>
      </trkpt>
      <trkpt lat="40.42154" lon="-1.96229">
        <ele>1524.8</ele>
        <time>2021-10-09 14:12:50</time>
      </trkpt>
      <trkpt lat="40.42154" lon="-1.96216">
        <ele>1524.6</ele>
        <time>2021-10-09 14:12:51</time>
      </trkpt>
      <trkpt lat="40.42154" lon="-1.96216">
        <ele>1524</ele>
        <time>2021-10-09 14:12:52</time>
      </trkpt>
      <trkpt lat="40.42154" lon="-1.96212">
        <ele>1524</ele>
        <time>2021-10-09 14:12:53</time>
      </trkpt>
      <trkpt lat="40.42154" lon="-1.96208">
        <ele>1524.4</ele>
        <time>2021-10-09 14:12:54</time>
      </trkpt>
      <trkpt lat="40.42154" lon="-1.96205">
        <ele>1524.4</ele>
        <time>2021-10-09 14:12:55</time>
      </trkpt>
      <trkpt lat="40.42153" lon="-1.96201">
        <ele>1524.4</ele>
        <time>2021-10-09 14:12:56</time>
      </trkpt>
      <trkpt lat="40.42153" lon="-1.96198">
        <ele>1524.4</ele>
        <time>2021-10-09 14:12:57</time>
      </trkpt>
      <trkpt lat="40.42153" lon="-1.96195">
        <ele>1524.4</ele>
        <time>2021-10-09 14:12:58</time>
      </trkpt>
      <trkpt lat="40.42154" lon="-1.96192">
        <ele>1524.4</ele>
        <time>2021-10-09 14:12:59</time>
      </trkpt>
      <trkpt lat="40.42154" lon="-1.96189">
        <ele>1524.4</ele>
        <time>2021-10-09 14:13:00</time>
      </trkpt>
      <trkpt lat="40.42154" lon="-1.96186">
        <ele>1524.6</ele>
        <time>2021-10-09 14:13:01</time>
      </trkpt>
      <trkpt lat="40.42154" lon="-1.96183">
        <ele>1524.6</ele>
        <time>2021-10-09 14:13:02</time>
      </trkpt>
      <trkpt lat="40.42154" lon="-1.96179">
        <ele>1524.6</ele>
        <time>2021-10-09 14:13:03</time>
      </trkpt>
      <trkpt lat="40.42155" lon="-1.96175">
        <ele>1524.2</ele>
        <time>2021-10-09 14:13:04</time>
      </trkpt>
      <trkpt lat="40.42155" lon="-1.9617">
        <ele>1524.2</ele>
        <time>2021-10-09 14:13:05</time>
      </trkpt>
      <trkpt lat="40.42155" lon="-1.96166">
        <ele>1523.8</ele>
        <time>2021-10-09 14:13:06</time>
      </trkpt>
      <trkpt lat="40.42155" lon="-1.96162">
        <ele>1523.8</ele>
        <time>2021-10-09 14:13:07</time>
      </trkpt>
      <trkpt lat="40.42155" lon="-1.96158">
        <ele>1523.6</ele>
        <time>2021-10-09 14:13:08</time>
      </trkpt>
      <trkpt lat="40.42155" lon="-1.96153">
        <ele>1523.6</ele>
        <time>2021-10-09 14:13:09</time>
      </trkpt>
      <trkpt lat="40.42155" lon="-1.96149">
        <ele>1523.2</ele>
        <time>2021-10-09 14:13:10</time>
      </trkpt>
      <trkpt lat="40.42155" lon="-1.96144">
        <ele>1523.2</ele>
        <time>2021-10-09 14:13:11</time>
      </trkpt>
      <trkpt lat="40.42155" lon="-1.96138">
        <ele>1523</ele>
        <time>2021-10-09 14:13:12</time>
      </trkpt>
      <trkpt lat="40.42155" lon="-1.96132">
        <ele>1522.6</ele>
        <time>2021-10-09 14:13:13</time>
      </trkpt>
      <trkpt lat="40.42155" lon="-1.96126">
        <ele>1522.4</ele>
        <time>2021-10-09 14:13:14</time>
      </trkpt>
      <trkpt lat="40.42155" lon="-1.96119">
        <ele>1522.2</ele>
        <time>2021-10-09 14:13:15</time>
      </trkpt>
      <trkpt lat="40.42155" lon="-1.96112">
        <ele>1522.2</ele>
        <time>2021-10-09 14:13:16</time>
      </trkpt>
      <trkpt lat="40.42154" lon="-1.96104">
        <ele>1521.4</ele>
        <time>2021-10-09 14:13:17</time>
      </trkpt>
      <trkpt lat="40.42154" lon="-1.96096">
        <ele>1521</ele>
        <time>2021-10-09 14:13:18</time>
      </trkpt>
      <trkpt lat="40.42154" lon="-1.96088">
        <ele>1520.4</ele>
        <time>2021-10-09 14:13:19</time>
      </trkpt>
      <trkpt lat="40.42154" lon="-1.96079">
        <ele>1520</ele>
        <time>2021-10-09 14:13:20</time>
      </trkpt>
      <trkpt lat="40.42154" lon="-1.96071">
        <ele>1519.6</ele>
        <time>2021-10-09 14:13:21</time>
      </trkpt>
      <trkpt lat="40.42153" lon="-1.96062">
        <ele>1519</ele>
        <time>2021-10-09 14:13:22</time>
      </trkpt>
      <trkpt lat="40.42153" lon="-1.96054">
        <ele>1518.6</ele>
        <time>2021-10-09 14:13:23</time>
      </trkpt>
      <trkpt lat="40.42152" lon="-1.96045">
        <ele>1518.6</ele>
        <time>2021-10-09 14:13:24</time>
      </trkpt>
      <trkpt lat="40.42151" lon="-1.96037">
        <ele>1517.6</ele>
        <time>2021-10-09 14:13:25</time>
      </trkpt>
      <trkpt lat="40.4215" lon="-1.9603">
        <ele>1517</ele>
        <time>2021-10-09 14:13:26</time>
      </trkpt>
      <trkpt lat="40.42148" lon="-1.96022">
        <ele>1516.6</ele>
        <time>2021-10-09 14:13:27</time>
      </trkpt>
      <trkpt lat="40.42148" lon="-1.96013">
        <ele>1516.2</ele>
        <time>2021-10-09 14:13:28</time>
      </trkpt>
      <trkpt lat="40.42147" lon="-1.96006">
        <ele>1515.8</ele>
        <time>2021-10-09 14:13:29</time>
      </trkpt>
      <trkpt lat="40.42145" lon="-1.95998">
        <ele>1515.4</ele>
        <time>2021-10-09 14:13:30</time>
      </trkpt>
      <trkpt lat="40.42144" lon="-1.9599">
        <ele>1515</ele>
        <time>2021-10-09 14:13:31</time>
      </trkpt>
      <trkpt lat="40.42142" lon="-1.95981">
        <ele>1514.4</ele>
        <time>2021-10-09 14:13:32</time>
      </trkpt>
      <trkpt lat="40.42138" lon="-1.95972">
        <ele>1513.8</ele>
        <time>2021-10-09 14:13:33</time>
      </trkpt>
      <trkpt lat="40.42135" lon="-1.95963">
        <ele>1513.4</ele>
        <time>2021-10-09 14:13:34</time>
      </trkpt>
      <trkpt lat="40.42133" lon="-1.95953">
        <ele>1512.8</ele>
        <time>2021-10-09 14:13:35</time>
      </trkpt>
      <trkpt lat="40.4213" lon="-1.95933">
        <ele>1512.8</ele>
        <time>2021-10-09 14:13:36</time>
      </trkpt>
      <trkpt lat="40.42127" lon="-1.95922">
        <ele>1512.2</ele>
        <time>2021-10-09 14:13:37</time>
      </trkpt>
      <trkpt lat="40.42124" lon="-1.95913">
        <ele>1512.2</ele>
        <time>2021-10-09 14:13:38</time>
      </trkpt>
      <trkpt lat="40.42122" lon="-1.95903">
        <ele>1511.4</ele>
        <time>2021-10-09 14:13:39</time>
      </trkpt>
      <trkpt lat="40.42117" lon="-1.95891">
        <ele>1511.2</ele>
        <time>2021-10-09 14:13:40</time>
      </trkpt>
      <trkpt lat="40.42113" lon="-1.95883">
        <ele>1510.8</ele>
        <time>2021-10-09 14:13:41</time>
      </trkpt>
      <trkpt lat="40.42111" lon="-1.95873">
        <ele>1510.6</ele>
        <time>2021-10-09 14:13:42</time>
      </trkpt>
      <trkpt lat="40.4211" lon="-1.95864">
        <ele>1510</ele>
        <time>2021-10-09 14:13:43</time>
      </trkpt>
      <trkpt lat="40.42106" lon="-1.95855">
        <ele>1509.4</ele>
        <time>2021-10-09 14:13:44</time>
      </trkpt>
      <trkpt lat="40.421" lon="-1.95845">
        <ele>1509</ele>
        <time>2021-10-09 14:13:45</time>
      </trkpt>
      <trkpt lat="40.42096" lon="-1.95835">
        <ele>1509.2</ele>
        <time>2021-10-09 14:13:46</time>
      </trkpt>
      <trkpt lat="40.42093" lon="-1.95828">
        <ele>1508.4</ele>
        <time>2021-10-09 14:13:47</time>
      </trkpt>
      <trkpt lat="40.42086" lon="-1.95818">
        <ele>1507.6</ele>
        <time>2021-10-09 14:13:48</time>
      </trkpt>
      <trkpt lat="40.4208" lon="-1.95809">
        <ele>1507.6</ele>
        <time>2021-10-09 14:13:49</time>
      </trkpt>
      <trkpt lat="40.42074" lon="-1.95802">
        <ele>1506.8</ele>
        <time>2021-10-09 14:13:50</time>
      </trkpt>
      <trkpt lat="40.42068" lon="-1.95792">
        <ele>1506</ele>
        <time>2021-10-09 14:13:51</time>
      </trkpt>
      <trkpt lat="40.42062" lon="-1.95783">
        <ele>1505.6</ele>
        <time>2021-10-09 14:13:52</time>
      </trkpt>
      <trkpt lat="40.42054" lon="-1.95774">
        <ele>1505.2</ele>
        <time>2021-10-09 14:13:53</time>
      </trkpt>
      <trkpt lat="40.4205" lon="-1.95763">
        <ele>1504.6</ele>
        <time>2021-10-09 14:13:54</time>
      </trkpt>
      <trkpt lat="40.42044" lon="-1.95753">
        <ele>1504.2</ele>
        <time>2021-10-09 14:13:55</time>
      </trkpt>
      <trkpt lat="40.42038" lon="-1.95741">
        <ele>1503.4</ele>
        <time>2021-10-09 14:13:56</time>
      </trkpt>
      <trkpt lat="40.42035" lon="-1.95731">
        <ele>1502.4</ele>
        <time>2021-10-09 14:13:57</time>
      </trkpt>
      <trkpt lat="40.42028" lon="-1.95721">
        <ele>1501.8</ele>
        <time>2021-10-09 14:13:58</time>
      </trkpt>
      <trkpt lat="40.42022" lon="-1.95711">
        <ele>1501.4</ele>
        <time>2021-10-09 14:13:59</time>
      </trkpt>
      <trkpt lat="40.42019" lon="-1.95703">
        <ele>1500.4</ele>
        <time>2021-10-09 14:14:00</time>
      </trkpt>
      <trkpt lat="40.42013" lon="-1.95694">
        <ele>1499.8</ele>
        <time>2021-10-09 14:14:01</time>
      </trkpt>
      <trkpt lat="40.42009" lon="-1.95685">
        <ele>1499.2</ele>
        <time>2021-10-09 14:14:02</time>
      </trkpt>
      <trkpt lat="40.42003" lon="-1.95674">
        <ele>1499.2</ele>
        <time>2021-10-09 14:14:03</time>
      </trkpt>
      <trkpt lat="40.41997" lon="-1.95665">
        <ele>1498.2</ele>
        <time>2021-10-09 14:14:04</time>
      </trkpt>
      <trkpt lat="40.41993" lon="-1.95656">
        <ele>1497.4</ele>
        <time>2021-10-09 14:14:05</time>
      </trkpt>
      <trkpt lat="40.41987" lon="-1.95647">
        <ele>1496.8</ele>
        <time>2021-10-09 14:14:06</time>
      </trkpt>
      <trkpt lat="40.41982" lon="-1.95639">
        <ele>1496.4</ele>
        <time>2021-10-09 14:14:07</time>
      </trkpt>
      <trkpt lat="40.41976" lon="-1.95629">
        <ele>1496</ele>
        <time>2021-10-09 14:14:08</time>
      </trkpt>
      <trkpt lat="40.4197" lon="-1.95618">
        <ele>1495.6</ele>
        <time>2021-10-09 14:14:09</time>
      </trkpt>
      <trkpt lat="40.41964" lon="-1.95609">
        <ele>1495.6</ele>
        <time>2021-10-09 14:14:10</time>
      </trkpt>
      <trkpt lat="40.41958" lon="-1.95599">
        <ele>1494.8</ele>
        <time>2021-10-09 14:14:11</time>
      </trkpt>
      <trkpt lat="40.41953" lon="-1.9559">
        <ele>1494.2</ele>
        <time>2021-10-09 14:14:12</time>
      </trkpt>
      <trkpt lat="40.41947" lon="-1.95581">
        <ele>1493.6</ele>
        <time>2021-10-09 14:14:13</time>
      </trkpt>
      <trkpt lat="40.41942" lon="-1.95572">
        <ele>1493.6</ele>
        <time>2021-10-09 14:14:14</time>
      </trkpt>
      <trkpt lat="40.41937" lon="-1.95563">
        <ele>1493.2</ele>
        <time>2021-10-09 14:14:15</time>
      </trkpt>
      <trkpt lat="40.41932" lon="-1.95554">
        <ele>1492.4</ele>
        <time>2021-10-09 14:14:16</time>
      </trkpt>
      <trkpt lat="40.41925" lon="-1.95545">
        <ele>1491.6</ele>
        <time>2021-10-09 14:14:17</time>
      </trkpt>
      <trkpt lat="40.4192" lon="-1.95535">
        <ele>1491</ele>
        <time>2021-10-09 14:14:18</time>
      </trkpt>
      <trkpt lat="40.41915" lon="-1.95526">
        <ele>1490.6</ele>
        <time>2021-10-09 14:14:19</time>
      </trkpt>
      <trkpt lat="40.41911" lon="-1.95516">
        <ele>1490</ele>
        <time>2021-10-09 14:14:20</time>
      </trkpt>
      <trkpt lat="40.41906" lon="-1.95506">
        <ele>1489.8</ele>
        <time>2021-10-09 14:14:21</time>
      </trkpt>
      <trkpt lat="40.41903" lon="-1.95498">
        <ele>1489.4</ele>
        <time>2021-10-09 14:14:22</time>
      </trkpt>
      <trkpt lat="40.41898" lon="-1.95488">
        <ele>1489.2</ele>
        <time>2021-10-09 14:14:23</time>
      </trkpt>
      <trkpt lat="40.41894" lon="-1.95479">
        <ele>1488.8</ele>
        <time>2021-10-09 14:14:24</time>
      </trkpt>
      <trkpt lat="40.41891" lon="-1.95468">
        <ele>1488.8</ele>
        <time>2021-10-09 14:14:25</time>
      </trkpt>
      <trkpt lat="40.41887" lon="-1.95459">
        <ele>1488.4</ele>
        <time>2021-10-09 14:14:26</time>
      </trkpt>
      <trkpt lat="40.41884" lon="-1.9545">
        <ele>1488.2</ele>
        <time>2021-10-09 14:14:27</time>
      </trkpt>
      <trkpt lat="40.4188" lon="-1.95441">
        <ele>1487.6</ele>
        <time>2021-10-09 14:14:28</time>
      </trkpt>
      <trkpt lat="40.41876" lon="-1.95432">
        <ele>1487.6</ele>
        <time>2021-10-09 14:14:29</time>
      </trkpt>
      <trkpt lat="40.41871" lon="-1.95424">
        <ele>1487</ele>
        <time>2021-10-09 14:14:30</time>
      </trkpt>
      <trkpt lat="40.41867" lon="-1.95417">
        <ele>1486.6</ele>
        <time>2021-10-09 14:14:31</time>
      </trkpt>
      <trkpt lat="40.41863" lon="-1.9541">
        <ele>1486.4</ele>
        <time>2021-10-09 14:14:32</time>
      </trkpt>
      <trkpt lat="40.41859" lon="-1.95403">
        <ele>1486</ele>
        <time>2021-10-09 14:14:33</time>
      </trkpt>
      <trkpt lat="40.41855" lon="-1.95397">
        <ele>1485.8</ele>
        <time>2021-10-09 14:14:34</time>
      </trkpt>
      <trkpt lat="40.4185" lon="-1.95392">
        <ele>1485.6</ele>
        <time>2021-10-09 14:14:35</time>
      </trkpt>
      <trkpt lat="40.41846" lon="-1.95385">
        <ele>1485.4</ele>
        <time>2021-10-09 14:14:36</time>
      </trkpt>
      <trkpt lat="40.41842" lon="-1.9538">
        <ele>1485.2</ele>
        <time>2021-10-09 14:14:37</time>
      </trkpt>
      <trkpt lat="40.41838" lon="-1.95374">
        <ele>1485.2</ele>
        <time>2021-10-09 14:14:38</time>
      </trkpt>
      <trkpt lat="40.41834" lon="-1.95368">
        <ele>1484.8</ele>
        <time>2021-10-09 14:14:39</time>
      </trkpt>
      <trkpt lat="40.41831" lon="-1.95363">
        <ele>1484.4</ele>
        <time>2021-10-09 14:14:40</time>
      </trkpt>
      <trkpt lat="40.41828" lon="-1.95357">
        <ele>1484.4</ele>
        <time>2021-10-09 14:14:41</time>
      </trkpt>
      <trkpt lat="40.41824" lon="-1.95353">
        <ele>1484</ele>
        <time>2021-10-09 14:14:42</time>
      </trkpt>
      <trkpt lat="40.4182" lon="-1.95348">
        <ele>1483.8</ele>
        <time>2021-10-09 14:14:43</time>
      </trkpt>
      <trkpt lat="40.41816" lon="-1.95342">
        <ele>1483.8</ele>
        <time>2021-10-09 14:14:44</time>
      </trkpt>
      <trkpt lat="40.41812" lon="-1.95338">
        <ele>1483.8</ele>
        <time>2021-10-09 14:14:45</time>
      </trkpt>
      <trkpt lat="40.41808" lon="-1.95333">
        <ele>1483.4</ele>
        <time>2021-10-09 14:14:46</time>
      </trkpt>
      <trkpt lat="40.41805" lon="-1.95329">
        <ele>1483.4</ele>
        <time>2021-10-09 14:14:47</time>
      </trkpt>
      <trkpt lat="40.41801" lon="-1.95324">
        <ele>1483.4</ele>
        <time>2021-10-09 14:14:48</time>
      </trkpt>
      <trkpt lat="40.41798" lon="-1.95319">
        <ele>1483.2</ele>
        <time>2021-10-09 14:14:49</time>
      </trkpt>
      <trkpt lat="40.41794" lon="-1.95314">
        <ele>1482.8</ele>
        <time>2021-10-09 14:14:50</time>
      </trkpt>
      <trkpt lat="40.41791" lon="-1.95309">
        <ele>1482.6</ele>
        <time>2021-10-09 14:14:51</time>
      </trkpt>
      <trkpt lat="40.41788" lon="-1.95303">
        <ele>1482.6</ele>
        <time>2021-10-09 14:14:52</time>
      </trkpt>
      <trkpt lat="40.41784" lon="-1.95299">
        <ele>1482.2</ele>
        <time>2021-10-09 14:14:53</time>
      </trkpt>
      <trkpt lat="40.41781" lon="-1.95294">
        <ele>1482.2</ele>
        <time>2021-10-09 14:14:54</time>
      </trkpt>
      <trkpt lat="40.41778" lon="-1.9529">
        <ele>1482.2</ele>
        <time>2021-10-09 14:14:55</time>
      </trkpt>
      <trkpt lat="40.41774" lon="-1.95285">
        <ele>1482</ele>
        <time>2021-10-09 14:14:56</time>
      </trkpt>
      <trkpt lat="40.41771" lon="-1.9528">
        <ele>1482</ele>
        <time>2021-10-09 14:14:57</time>
      </trkpt>
      <trkpt lat="40.41768" lon="-1.95276">
        <ele>1482</ele>
        <time>2021-10-09 14:14:58</time>
      </trkpt>
      <trkpt lat="40.41765" lon="-1.95271">
        <ele>1482</ele>
        <time>2021-10-09 14:14:59</time>
      </trkpt>
      <trkpt lat="40.41762" lon="-1.95266">
        <ele>1481.6</ele>
        <time>2021-10-09 14:15:00</time>
      </trkpt>
      <trkpt lat="40.41759" lon="-1.95262">
        <ele>1481.4</ele>
        <time>2021-10-09 14:15:01</time>
      </trkpt>
      <trkpt lat="40.41755" lon="-1.95258">
        <ele>1481.4</ele>
        <time>2021-10-09 14:15:02</time>
      </trkpt>
      <trkpt lat="40.41752" lon="-1.95254">
        <ele>1481</ele>
        <time>2021-10-09 14:15:03</time>
      </trkpt>
      <trkpt lat="40.4175" lon="-1.9525">
        <ele>1480.8</ele>
        <time>2021-10-09 14:15:04</time>
      </trkpt>
      <trkpt lat="40.41746" lon="-1.95246">
        <ele>1480.8</ele>
        <time>2021-10-09 14:15:05</time>
      </trkpt>
      <trkpt lat="40.41744" lon="-1.95241">
        <ele>1480.4</ele>
        <time>2021-10-09 14:15:06</time>
      </trkpt>
      <trkpt lat="40.41741" lon="-1.95237">
        <ele>1480.2</ele>
        <time>2021-10-09 14:15:07</time>
      </trkpt>
      <trkpt lat="40.41739" lon="-1.95233">
        <ele>1479.8</ele>
        <time>2021-10-09 14:15:08</time>
      </trkpt>
      <trkpt lat="40.41736" lon="-1.95229">
        <ele>1479.6</ele>
        <time>2021-10-09 14:15:09</time>
      </trkpt>
      <trkpt lat="40.41734" lon="-1.95225">
        <ele>1479.4</ele>
        <time>2021-10-09 14:15:10</time>
      </trkpt>
      <trkpt lat="40.4173" lon="-1.95221">
        <ele>1479.4</ele>
        <time>2021-10-09 14:15:11</time>
      </trkpt>
      <trkpt lat="40.41727" lon="-1.95217">
        <ele>1479</ele>
        <time>2021-10-09 14:15:12</time>
      </trkpt>
      <trkpt lat="40.41723" lon="-1.95212">
        <ele>1478.8</ele>
        <time>2021-10-09 14:15:13</time>
      </trkpt>
      <trkpt lat="40.41719" lon="-1.95209">
        <ele>1478.8</ele>
        <time>2021-10-09 14:15:14</time>
      </trkpt>
      <trkpt lat="40.41716" lon="-1.95203">
        <ele>1478.2</ele>
        <time>2021-10-09 14:15:15</time>
      </trkpt>
      <trkpt lat="40.41713" lon="-1.95198">
        <ele>1478.2</ele>
        <time>2021-10-09 14:15:16</time>
      </trkpt>
      <trkpt lat="40.41709" lon="-1.95193">
        <ele>1478</ele>
        <time>2021-10-09 14:15:17</time>
      </trkpt>
      <trkpt lat="40.41706" lon="-1.95188">
        <ele>1477.6</ele>
        <time>2021-10-09 14:15:18</time>
      </trkpt>
      <trkpt lat="40.41702" lon="-1.95183">
        <ele>1477.4</ele>
        <time>2021-10-09 14:15:19</time>
      </trkpt>
      <trkpt lat="40.41698" lon="-1.95177">
        <ele>1477.4</ele>
        <time>2021-10-09 14:15:20</time>
      </trkpt>
      <trkpt lat="40.41695" lon="-1.95172">
        <ele>1477.4</ele>
        <time>2021-10-09 14:15:21</time>
      </trkpt>
      <trkpt lat="40.41691" lon="-1.95167">
        <ele>1477</ele>
        <time>2021-10-09 14:15:22</time>
      </trkpt>
      <trkpt lat="40.41687" lon="-1.95163">
        <ele>1477</ele>
        <time>2021-10-09 14:15:23</time>
      </trkpt>
      <trkpt lat="40.41684" lon="-1.95157">
        <ele>1476.8</ele>
        <time>2021-10-09 14:15:24</time>
      </trkpt>
      <trkpt lat="40.4168" lon="-1.95152">
        <ele>1476.8</ele>
        <time>2021-10-09 14:15:25</time>
      </trkpt>
      <trkpt lat="40.41677" lon="-1.95147">
        <ele>1476.8</ele>
        <time>2021-10-09 14:15:26</time>
      </trkpt>
      <trkpt lat="40.41674" lon="-1.95142">
        <ele>1476.4</ele>
        <time>2021-10-09 14:15:27</time>
      </trkpt>
      <trkpt lat="40.41671" lon="-1.95136">
        <ele>1476.2</ele>
        <time>2021-10-09 14:15:28</time>
      </trkpt>
      <trkpt lat="40.41667" lon="-1.95132">
        <ele>1476.2</ele>
        <time>2021-10-09 14:15:29</time>
      </trkpt>
      <trkpt lat="40.41664" lon="-1.95127">
        <ele>1475.8</ele>
        <time>2021-10-09 14:15:30</time>
      </trkpt>
      <trkpt lat="40.4166" lon="-1.95121">
        <ele>1476</ele>
        <time>2021-10-09 14:15:31</time>
      </trkpt>
      <trkpt lat="40.41657" lon="-1.95115">
        <ele>1475.6</ele>
        <time>2021-10-09 14:15:32</time>
      </trkpt>
      <trkpt lat="40.41653" lon="-1.95108">
        <ele>1475.6</ele>
        <time>2021-10-09 14:15:33</time>
      </trkpt>
      <trkpt lat="40.41648" lon="-1.95101">
        <ele>1475.2</ele>
        <time>2021-10-09 14:15:34</time>
      </trkpt>
      <trkpt lat="40.41644" lon="-1.95094">
        <ele>1475.2</ele>
        <time>2021-10-09 14:15:35</time>
      </trkpt>
      <trkpt lat="40.41639" lon="-1.95087">
        <ele>1474.6</ele>
        <time>2021-10-09 14:15:36</time>
      </trkpt>
      <trkpt lat="40.41634" lon="-1.9508">
        <ele>1474</ele>
        <time>2021-10-09 14:15:37</time>
      </trkpt>
      <trkpt lat="40.41631" lon="-1.95074">
        <ele>1473.8</ele>
        <time>2021-10-09 14:15:38</time>
      </trkpt>
      <trkpt lat="40.41626" lon="-1.95068">
        <ele>1473.4</ele>
        <time>2021-10-09 14:15:39</time>
      </trkpt>
      <trkpt lat="40.41622" lon="-1.95062">
        <ele>1473</ele>
        <time>2021-10-09 14:15:40</time>
      </trkpt>
      <trkpt lat="40.41619" lon="-1.95055">
        <ele>1473</ele>
        <time>2021-10-09 14:15:41</time>
      </trkpt>
      <trkpt lat="40.41615" lon="-1.95048">
        <ele>1472.6</ele>
        <time>2021-10-09 14:15:42</time>
      </trkpt>
      <trkpt lat="40.4161" lon="-1.95042">
        <ele>1472.2</ele>
        <time>2021-10-09 14:15:43</time>
      </trkpt>
      <trkpt lat="40.41605" lon="-1.95035">
        <ele>1472.2</ele>
        <time>2021-10-09 14:15:44</time>
      </trkpt>
      <trkpt lat="40.416" lon="-1.95029">
        <ele>1471.8</ele>
        <time>2021-10-09 14:15:45</time>
      </trkpt>
      <trkpt lat="40.41595" lon="-1.95023">
        <ele>1471.8</ele>
        <time>2021-10-09 14:15:46</time>
      </trkpt>
      <trkpt lat="40.41591" lon="-1.95016">
        <ele>1471.8</ele>
        <time>2021-10-09 14:15:47</time>
      </trkpt>
      <trkpt lat="40.41587" lon="-1.95009">
        <ele>1471.4</ele>
        <time>2021-10-09 14:15:48</time>
      </trkpt>
      <trkpt lat="40.41583" lon="-1.95003">
        <ele>1472</ele>
        <time>2021-10-09 14:15:49</time>
      </trkpt>
      <trkpt lat="40.4158" lon="-1.94996">
        <ele>1471.6</ele>
        <time>2021-10-09 14:15:50</time>
      </trkpt>
      <trkpt lat="40.41577" lon="-1.9499">
        <ele>1471.6</ele>
        <time>2021-10-09 14:15:51</time>
      </trkpt>
      <trkpt lat="40.41575" lon="-1.94984">
        <ele>1471.6</ele>
        <time>2021-10-09 14:15:52</time>
      </trkpt>
      <trkpt lat="40.41572" lon="-1.94977">
        <ele>1471.6</ele>
        <time>2021-10-09 14:15:53</time>
      </trkpt>
      <trkpt lat="40.41569" lon="-1.9497">
        <ele>1471</ele>
        <time>2021-10-09 14:15:54</time>
      </trkpt>
      <trkpt lat="40.41565" lon="-1.94963">
        <ele>1470.4</ele>
        <time>2021-10-09 14:15:55</time>
      </trkpt>
      <trkpt lat="40.41561" lon="-1.94957">
        <ele>1470.6</ele>
        <time>2021-10-09 14:15:56</time>
      </trkpt>
      <trkpt lat="40.41557" lon="-1.94952">
        <ele>1470</ele>
        <time>2021-10-09 14:15:57</time>
      </trkpt>
      <trkpt lat="40.41553" lon="-1.94946">
        <ele>1469.4</ele>
        <time>2021-10-09 14:15:58</time>
      </trkpt>
      <trkpt lat="40.41549" lon="-1.94941">
        <ele>1468.8</ele>
        <time>2021-10-09 14:15:59</time>
      </trkpt>
      <trkpt lat="40.41545" lon="-1.94936">
        <ele>1468.8</ele>
        <time>2021-10-09 14:16:00</time>
      </trkpt>
      <trkpt lat="40.41539" lon="-1.94932">
        <ele>1468.4</ele>
        <time>2021-10-09 14:16:01</time>
      </trkpt>
      <trkpt lat="40.41535" lon="-1.94927">
        <ele>1468.4</ele>
        <time>2021-10-09 14:16:02</time>
      </trkpt>
      <trkpt lat="40.4153" lon="-1.94923">
        <ele>1468.2</ele>
        <time>2021-10-09 14:16:03</time>
      </trkpt>
      <trkpt lat="40.41526" lon="-1.9492">
        <ele>1468.2</ele>
        <time>2021-10-09 14:16:04</time>
      </trkpt>
      <trkpt lat="40.41521" lon="-1.94917">
        <ele>1468.2</ele>
        <time>2021-10-09 14:16:05</time>
      </trkpt>
      <trkpt lat="40.41516" lon="-1.94912">
        <ele>1467.8</ele>
        <time>2021-10-09 14:16:06</time>
      </trkpt>
      <trkpt lat="40.41512" lon="-1.94908">
        <ele>1467.8</ele>
        <time>2021-10-09 14:16:07</time>
      </trkpt>
      <trkpt lat="40.41508" lon="-1.94904">
        <ele>1467.8</ele>
        <time>2021-10-09 14:16:08</time>
      </trkpt>
      <trkpt lat="40.41503" lon="-1.94902">
        <ele>1467.8</ele>
        <time>2021-10-09 14:16:09</time>
      </trkpt>
      <trkpt lat="40.41499" lon="-1.94898">
        <ele>1467.8</ele>
        <time>2021-10-09 14:16:10</time>
      </trkpt>
      <trkpt lat="40.41495" lon="-1.94896">
        <ele>1467.8</ele>
        <time>2021-10-09 14:16:11</time>
      </trkpt>
      <trkpt lat="40.41492" lon="-1.94892">
        <ele>1467.8</ele>
        <time>2021-10-09 14:16:12</time>
      </trkpt>
      <trkpt lat="40.41488" lon="-1.94888">
        <ele>1467.8</ele>
        <time>2021-10-09 14:16:13</time>
      </trkpt>
      <trkpt lat="40.41483" lon="-1.94886">
        <ele>1468</ele>
        <time>2021-10-09 14:16:14</time>
      </trkpt>
      <trkpt lat="40.4148" lon="-1.94881">
        <ele>1468</ele>
        <time>2021-10-09 14:16:15</time>
      </trkpt>
      <trkpt lat="40.41476" lon="-1.94878">
        <ele>1468.4</ele>
        <time>2021-10-09 14:16:16</time>
      </trkpt>
      <trkpt lat="40.41473" lon="-1.94872">
        <ele>1468.4</ele>
        <time>2021-10-09 14:16:17</time>
      </trkpt>
      <trkpt lat="40.4147" lon="-1.94868">
        <ele>1468.8</ele>
        <time>2021-10-09 14:16:18</time>
      </trkpt>
      <trkpt lat="40.41467" lon="-1.94864">
        <ele>1468.8</ele>
        <time>2021-10-09 14:16:19</time>
      </trkpt>
      <trkpt lat="40.41463" lon="-1.94857">
        <ele>1469</ele>
        <time>2021-10-09 14:16:20</time>
      </trkpt>
      <trkpt lat="40.41458" lon="-1.94853">
        <ele>1469</ele>
        <time>2021-10-09 14:16:21</time>
      </trkpt>
      <trkpt lat="40.41455" lon="-1.94847">
        <ele>1469.4</ele>
        <time>2021-10-09 14:16:22</time>
      </trkpt>
      <trkpt lat="40.4145" lon="-1.94841">
        <ele>1469.4</ele>
        <time>2021-10-09 14:16:23</time>
      </trkpt>
      <trkpt lat="40.41446" lon="-1.94834">
        <ele>1469</ele>
        <time>2021-10-09 14:16:24</time>
      </trkpt>
      <trkpt lat="40.41443" lon="-1.94827">
        <ele>1469</ele>
        <time>2021-10-09 14:16:25</time>
      </trkpt>
      <trkpt lat="40.41438" lon="-1.94819">
        <ele>1468.8</ele>
        <time>2021-10-09 14:16:26</time>
      </trkpt>
      <trkpt lat="40.41433" lon="-1.94811">
        <ele>1468.6</ele>
        <time>2021-10-09 14:16:27</time>
      </trkpt>
      <trkpt lat="40.41428" lon="-1.94802">
        <ele>1468.6</ele>
        <time>2021-10-09 14:16:28</time>
      </trkpt>
      <trkpt lat="40.41423" lon="-1.94793">
        <ele>1468.2</ele>
        <time>2021-10-09 14:16:29</time>
      </trkpt>
      <trkpt lat="40.41418" lon="-1.94785">
        <ele>1467.8</ele>
        <time>2021-10-09 14:16:30</time>
      </trkpt>
      <trkpt lat="40.41414" lon="-1.94775">
        <ele>1467.6</ele>
        <time>2021-10-09 14:16:31</time>
      </trkpt>
      <trkpt lat="40.41409" lon="-1.94766">
        <ele>1466.6</ele>
        <time>2021-10-09 14:16:32</time>
      </trkpt>
      <trkpt lat="40.41405" lon="-1.94757">
        <ele>1466.4</ele>
        <time>2021-10-09 14:16:33</time>
      </trkpt>
      <trkpt lat="40.41401" lon="-1.94749">
        <ele>1466.4</ele>
        <time>2021-10-09 14:16:34</time>
      </trkpt>
      <trkpt lat="40.414" lon="-1.94742">
        <ele>1465.4</ele>
        <time>2021-10-09 14:16:35</time>
      </trkpt>
      <trkpt lat="40.41393" lon="-1.9473">
        <ele>1464.2</ele>
        <time>2021-10-09 14:16:36</time>
      </trkpt>
      <trkpt lat="40.41389" lon="-1.94721">
        <ele>1463.4</ele>
        <time>2021-10-09 14:16:37</time>
      </trkpt>
      <trkpt lat="40.41385" lon="-1.94711">
        <ele>1462.4</ele>
        <time>2021-10-09 14:16:38</time>
      </trkpt>
      <trkpt lat="40.41382" lon="-1.94702">
        <ele>1462.4</ele>
        <time>2021-10-09 14:16:39</time>
      </trkpt>
      <trkpt lat="40.41379" lon="-1.94694">
        <ele>1461.8</ele>
        <time>2021-10-09 14:16:40</time>
      </trkpt>
      <trkpt lat="40.41373" lon="-1.94685">
        <ele>1461.4</ele>
        <time>2021-10-09 14:16:41</time>
      </trkpt>
      <trkpt lat="40.41371" lon="-1.94679">
        <ele>1460.2</ele>
        <time>2021-10-09 14:16:42</time>
      </trkpt>
      <trkpt lat="40.41368" lon="-1.94669">
        <ele>1459.4</ele>
        <time>2021-10-09 14:16:43</time>
      </trkpt>
      <trkpt lat="40.41366" lon="-1.9466">
        <ele>1460.8</ele>
        <time>2021-10-09 14:16:44</time>
      </trkpt>
      <trkpt lat="40.41364" lon="-1.94651">
        <ele>1459.4</ele>
        <time>2021-10-09 14:16:45</time>
      </trkpt>
      <trkpt lat="40.4136" lon="-1.94642">
        <ele>1458.8</ele>
        <time>2021-10-09 14:16:46</time>
      </trkpt>
      <trkpt lat="40.41356" lon="-1.94633">
        <ele>1457.4</ele>
        <time>2021-10-09 14:16:47</time>
      </trkpt>
      <trkpt lat="40.41355" lon="-1.94626">
        <ele>1456.2</ele>
        <time>2021-10-09 14:16:48</time>
      </trkpt>
      <trkpt lat="40.41353" lon="-1.94619">
        <ele>1455</ele>
        <time>2021-10-09 14:16:49</time>
      </trkpt>
      <trkpt lat="40.41351" lon="-1.94611">
        <ele>1455</ele>
        <time>2021-10-09 14:16:50</time>
      </trkpt>
      <trkpt lat="40.41348" lon="-1.94602">
        <ele>1453.8</ele>
        <time>2021-10-09 14:16:51</time>
      </trkpt>
      <trkpt lat="40.41345" lon="-1.94593">
        <ele>1452.8</ele>
        <time>2021-10-09 14:16:52</time>
      </trkpt>
      <trkpt lat="40.41343" lon="-1.94585">
        <ele>1451.8</ele>
        <time>2021-10-09 14:16:53</time>
      </trkpt>
      <trkpt lat="40.4134" lon="-1.94576">
        <ele>1451</ele>
        <time>2021-10-09 14:16:54</time>
      </trkpt>
      <trkpt lat="40.41339" lon="-1.94567">
        <ele>1450.4</ele>
        <time>2021-10-09 14:16:55</time>
      </trkpt>
      <trkpt lat="40.41336" lon="-1.94557">
        <ele>1449.4</ele>
        <time>2021-10-09 14:16:56</time>
      </trkpt>
      <trkpt lat="40.41334" lon="-1.94548">
        <ele>1449</ele>
        <time>2021-10-09 14:16:57</time>
      </trkpt>
      <trkpt lat="40.41332" lon="-1.94538">
        <ele>1448.4</ele>
        <time>2021-10-09 14:16:58</time>
      </trkpt>
      <trkpt lat="40.41329" lon="-1.94529">
        <ele>1447.6</ele>
        <time>2021-10-09 14:16:59</time>
      </trkpt>
      <trkpt lat="40.41326" lon="-1.94521">
        <ele>1446.8</ele>
        <time>2021-10-09 14:17:00</time>
      </trkpt>
      <trkpt lat="40.41324" lon="-1.94512">
        <ele>1446.2</ele>
        <time>2021-10-09 14:17:01</time>
      </trkpt>
      <trkpt lat="40.41323" lon="-1.94503">
        <ele>1445.4</ele>
        <time>2021-10-09 14:17:02</time>
      </trkpt>
      <trkpt lat="40.41321" lon="-1.94494">
        <ele>1444.4</ele>
        <time>2021-10-09 14:17:03</time>
      </trkpt>
      <trkpt lat="40.4132" lon="-1.94485">
        <ele>1443.8</ele>
        <time>2021-10-09 14:17:04</time>
      </trkpt>
      <trkpt lat="40.41317" lon="-1.94477">
        <ele>1443</ele>
        <time>2021-10-09 14:17:05</time>
      </trkpt>
      <trkpt lat="40.41313" lon="-1.94469">
        <ele>1442.6</ele>
        <time>2021-10-09 14:17:06</time>
      </trkpt>
      <trkpt lat="40.41311" lon="-1.94462">
        <ele>1441.2</ele>
        <time>2021-10-09 14:17:07</time>
      </trkpt>
      <trkpt lat="40.41307" lon="-1.94455">
        <ele>1440.2</ele>
        <time>2021-10-09 14:17:08</time>
      </trkpt>
      <trkpt lat="40.41304" lon="-1.94447">
        <ele>1439.6</ele>
        <time>2021-10-09 14:17:09</time>
      </trkpt>
      <trkpt lat="40.41301" lon="-1.94439">
        <ele>1439</ele>
        <time>2021-10-09 14:17:10</time>
      </trkpt>
      <trkpt lat="40.41299" lon="-1.9443">
        <ele>1438.4</ele>
        <time>2021-10-09 14:17:11</time>
      </trkpt>
      <trkpt lat="40.41296" lon="-1.94421">
        <ele>1438</ele>
        <time>2021-10-09 14:17:12</time>
      </trkpt>
      <trkpt lat="40.41294" lon="-1.94411">
        <ele>1437.6</ele>
        <time>2021-10-09 14:17:13</time>
      </trkpt>
      <trkpt lat="40.41292" lon="-1.94402">
        <ele>1437.6</ele>
        <time>2021-10-09 14:17:14</time>
      </trkpt>
      <trkpt lat="40.41291" lon="-1.94393">
        <ele>1436.8</ele>
        <time>2021-10-09 14:17:15</time>
      </trkpt>
      <trkpt lat="40.4129" lon="-1.94385">
        <ele>1436.2</ele>
        <time>2021-10-09 14:17:16</time>
      </trkpt>
      <trkpt lat="40.41289" lon="-1.94376">
        <ele>1435.4</ele>
        <time>2021-10-09 14:17:17</time>
      </trkpt>
      <trkpt lat="40.41289" lon="-1.94367">
        <ele>1434.4</ele>
        <time>2021-10-09 14:17:18</time>
      </trkpt>
      <trkpt lat="40.4129" lon="-1.9436">
        <ele>1434.4</ele>
        <time>2021-10-09 14:17:19</time>
      </trkpt>
      <trkpt lat="40.41289" lon="-1.94352">
        <ele>1433.8</ele>
        <time>2021-10-09 14:17:20</time>
      </trkpt>
      <trkpt lat="40.4129" lon="-1.94344">
        <ele>1433</ele>
        <time>2021-10-09 14:17:21</time>
      </trkpt>
      <trkpt lat="40.41291" lon="-1.94337">
        <ele>1432.2</ele>
        <time>2021-10-09 14:17:22</time>
      </trkpt>
      <trkpt lat="40.41292" lon="-1.94329">
        <ele>1431.2</ele>
        <time>2021-10-09 14:17:23</time>
      </trkpt>
      <trkpt lat="40.41294" lon="-1.94319">
        <ele>1430.8</ele>
        <time>2021-10-09 14:17:24</time>
      </trkpt>
      <trkpt lat="40.41295" lon="-1.9431">
        <ele>1430.8</ele>
        <time>2021-10-09 14:17:25</time>
      </trkpt>
      <trkpt lat="40.41294" lon="-1.94301">
        <ele>1430</ele>
        <time>2021-10-09 14:17:26</time>
      </trkpt>
      <trkpt lat="40.41295" lon="-1.94291">
        <ele>1429.4</ele>
        <time>2021-10-09 14:17:27</time>
      </trkpt>
      <trkpt lat="40.41295" lon="-1.94282">
        <ele>1429</ele>
        <time>2021-10-09 14:17:28</time>
      </trkpt>
      <trkpt lat="40.41295" lon="-1.94272">
        <ele>1428.2</ele>
        <time>2021-10-09 14:17:29</time>
      </trkpt>
      <trkpt lat="40.41296" lon="-1.94263">
        <ele>1428</ele>
        <time>2021-10-09 14:17:30</time>
      </trkpt>
      <trkpt lat="40.41297" lon="-1.94253">
        <ele>1427.4</ele>
        <time>2021-10-09 14:17:31</time>
      </trkpt>
      <trkpt lat="40.41297" lon="-1.94244">
        <ele>1426.6</ele>
        <time>2021-10-09 14:17:32</time>
      </trkpt>
      <trkpt lat="40.41295" lon="-1.94234">
        <ele>1426</ele>
        <time>2021-10-09 14:17:33</time>
      </trkpt>
      <trkpt lat="40.41295" lon="-1.94225">
        <ele>1425.6</ele>
        <time>2021-10-09 14:17:34</time>
      </trkpt>
      <trkpt lat="40.41293" lon="-1.94215">
        <ele>1425</ele>
        <time>2021-10-09 14:17:35</time>
      </trkpt>
      <trkpt lat="40.41291" lon="-1.94205">
        <ele>1424.6</ele>
        <time>2021-10-09 14:17:36</time>
      </trkpt>
      <trkpt lat="40.4129" lon="-1.94196">
        <ele>1425.2</ele>
        <time>2021-10-09 14:17:37</time>
      </trkpt>
      <trkpt lat="40.4129" lon="-1.94186">
        <ele>1424.4</ele>
        <time>2021-10-09 14:17:38</time>
      </trkpt>
      <trkpt lat="40.41292" lon="-1.94179">
        <ele>1423.8</ele>
        <time>2021-10-09 14:17:39</time>
      </trkpt>
      <trkpt lat="40.41293" lon="-1.94172">
        <ele>1423.2</ele>
        <time>2021-10-09 14:17:40</time>
      </trkpt>
      <trkpt lat="40.4129" lon="-1.94164">
        <ele>1423</ele>
        <time>2021-10-09 14:17:41</time>
      </trkpt>
      <trkpt lat="40.41288" lon="-1.94155">
        <ele>1422.4</ele>
        <time>2021-10-09 14:17:42</time>
      </trkpt>
      <trkpt lat="40.41285" lon="-1.94145">
        <ele>1422</ele>
        <time>2021-10-09 14:17:43</time>
      </trkpt>
      <trkpt lat="40.41284" lon="-1.94137">
        <ele>1421.4</ele>
        <time>2021-10-09 14:17:44</time>
      </trkpt>
      <trkpt lat="40.41282" lon="-1.94128">
        <ele>1421</ele>
        <time>2021-10-09 14:17:45</time>
      </trkpt>
      <trkpt lat="40.41281" lon="-1.94119">
        <ele>1421</ele>
        <time>2021-10-09 14:17:46</time>
      </trkpt>
      <trkpt lat="40.41278" lon="-1.94111">
        <ele>1420.2</ele>
        <time>2021-10-09 14:17:47</time>
      </trkpt>
      <trkpt lat="40.41276" lon="-1.94102">
        <ele>1419.4</ele>
        <time>2021-10-09 14:17:48</time>
      </trkpt>
      <trkpt lat="40.41273" lon="-1.94098">
        <ele>1418.8</ele>
        <time>2021-10-09 14:17:49</time>
      </trkpt>
      <trkpt lat="40.41269" lon="-1.94092">
        <ele>1418.4</ele>
        <time>2021-10-09 14:17:50</time>
      </trkpt>
      <trkpt lat="40.41264" lon="-1.94087">
        <ele>1418.2</ele>
        <time>2021-10-09 14:17:51</time>
      </trkpt>
      <trkpt lat="40.41259" lon="-1.94082">
        <ele>1418.2</ele>
        <time>2021-10-09 14:17:52</time>
      </trkpt>
      <trkpt lat="40.41256" lon="-1.94076">
        <ele>1417.8</ele>
        <time>2021-10-09 14:17:53</time>
      </trkpt>
      <trkpt lat="40.41252" lon="-1.94072">
        <ele>1417.8</ele>
        <time>2021-10-09 14:17:54</time>
      </trkpt>
      <trkpt lat="40.41252" lon="-1.9407">
        <ele>1417.8</ele>
        <time>2021-10-09 14:17:55</time>
      </trkpt>
      <trkpt lat="40.4125" lon="-1.94067">
        <ele>1418.2</ele>
        <time>2021-10-09 14:17:56</time>
      </trkpt>
      <trkpt lat="40.41249" lon="-1.94064">
        <ele>1418.2</ele>
        <time>2021-10-09 14:17:57</time>
      </trkpt>
      <trkpt lat="40.41246" lon="-1.94061">
        <ele>1418.2</ele>
        <time>2021-10-09 14:17:58</time>
      </trkpt>
      <trkpt lat="40.41244" lon="-1.94057">
        <ele>1418.6</ele>
        <time>2021-10-09 14:17:59</time>
      </trkpt>
      <trkpt lat="40.41241" lon="-1.94054">
        <ele>1418.6</ele>
        <time>2021-10-09 14:18:00</time>
      </trkpt>
      <trkpt lat="40.41239" lon="-1.94051">
        <ele>1418.8</ele>
        <time>2021-10-09 14:18:01</time>
      </trkpt>
      <trkpt lat="40.41237" lon="-1.94048">
        <ele>1418.8</ele>
        <time>2021-10-09 14:18:02</time>
      </trkpt>
      <trkpt lat="40.41236" lon="-1.94047">
        <ele>1418.8</ele>
        <time>2021-10-09 14:18:03</time>
      </trkpt>
      <trkpt lat="40.41233" lon="-1.94045">
        <ele>1419</ele>
        <time>2021-10-09 14:18:04</time>
      </trkpt>
      <trkpt lat="40.41231" lon="-1.94043">
        <ele>1419</ele>
        <time>2021-10-09 14:18:05</time>
      </trkpt>
      <trkpt lat="40.41229" lon="-1.9404">
        <ele>1420</ele>
        <time>2021-10-09 14:18:06</time>
      </trkpt>
      <trkpt lat="40.41226" lon="-1.94037">
        <ele>1419.6</ele>
        <time>2021-10-09 14:18:07</time>
      </trkpt>
      <trkpt lat="40.41224" lon="-1.94035">
        <ele>1419.4</ele>
        <time>2021-10-09 14:18:08</time>
      </trkpt>
      <trkpt lat="40.41221" lon="-1.94032">
        <ele>1419.2</ele>
        <time>2021-10-09 14:18:09</time>
      </trkpt>
      <trkpt lat="40.41218" lon="-1.94029">
        <ele>1419.6</ele>
        <time>2021-10-09 14:18:10</time>
      </trkpt>
      <trkpt lat="40.41215" lon="-1.94025">
        <ele>1419.2</ele>
        <time>2021-10-09 14:18:11</time>
      </trkpt>
      <trkpt lat="40.41212" lon="-1.94021">
        <ele>1418.8</ele>
        <time>2021-10-09 14:18:12</time>
      </trkpt>
      <trkpt lat="40.41209" lon="-1.94017">
        <ele>1418.6</ele>
        <time>2021-10-09 14:18:13</time>
      </trkpt>
      <trkpt lat="40.41203" lon="-1.94011">
        <ele>1418.4</ele>
        <time>2021-10-09 14:18:14</time>
      </trkpt>
      <trkpt lat="40.41199" lon="-1.94006">
        <ele>1417.8</ele>
        <time>2021-10-09 14:18:15</time>
      </trkpt>
      <trkpt lat="40.41194" lon="-1.94">
        <ele>1417.2</ele>
        <time>2021-10-09 14:18:16</time>
      </trkpt>
      <trkpt lat="40.4119" lon="-1.93992">
        <ele>1416.6</ele>
        <time>2021-10-09 14:18:17</time>
      </trkpt>
      <trkpt lat="40.41186" lon="-1.93983">
        <ele>1416</ele>
        <time>2021-10-09 14:18:18</time>
      </trkpt>
      <trkpt lat="40.41182" lon="-1.93975">
        <ele>1415.2</ele>
        <time>2021-10-09 14:18:19</time>
      </trkpt>
      <trkpt lat="40.41179" lon="-1.93966">
        <ele>1414.8</ele>
        <time>2021-10-09 14:18:20</time>
      </trkpt>
      <trkpt lat="40.41178" lon="-1.93957">
        <ele>1414.6</ele>
        <time>2021-10-09 14:18:21</time>
      </trkpt>
      <trkpt lat="40.41177" lon="-1.93946">
        <ele>1414.6</ele>
        <time>2021-10-09 14:18:22</time>
      </trkpt>
      <trkpt lat="40.41176" lon="-1.93935">
        <ele>1413.8</ele>
        <time>2021-10-09 14:18:23</time>
      </trkpt>
      <trkpt lat="40.41176" lon="-1.93924">
        <ele>1413.4</ele>
        <time>2021-10-09 14:18:24</time>
      </trkpt>
      <trkpt lat="40.41175" lon="-1.93913">
        <ele>1412.8</ele>
        <time>2021-10-09 14:18:25</time>
      </trkpt>
      <trkpt lat="40.41176" lon="-1.93901">
        <ele>1412.4</ele>
        <time>2021-10-09 14:18:26</time>
      </trkpt>
      <trkpt lat="40.41175" lon="-1.93889">
        <ele>1412</ele>
        <time>2021-10-09 14:18:27</time>
      </trkpt>
      <trkpt lat="40.41174" lon="-1.93877">
        <ele>1411.6</ele>
        <time>2021-10-09 14:18:28</time>
      </trkpt>
      <trkpt lat="40.41173" lon="-1.93866">
        <ele>1411.2</ele>
        <time>2021-10-09 14:18:29</time>
      </trkpt>
      <trkpt lat="40.41172" lon="-1.93855">
        <ele>1410.8</ele>
        <time>2021-10-09 14:18:30</time>
      </trkpt>
      <trkpt lat="40.41172" lon="-1.93843">
        <ele>1410.4</ele>
        <time>2021-10-09 14:18:31</time>
      </trkpt>
      <trkpt lat="40.41171" lon="-1.93833">
        <ele>1410.2</ele>
        <time>2021-10-09 14:18:32</time>
      </trkpt>
      <trkpt lat="40.41172" lon="-1.9382">
        <ele>1410</ele>
        <time>2021-10-09 14:18:33</time>
      </trkpt>
      <trkpt lat="40.41172" lon="-1.93809">
        <ele>1409.8</ele>
        <time>2021-10-09 14:18:34</time>
      </trkpt>
      <trkpt lat="40.41172" lon="-1.93809">
        <ele>1409.8</ele>
        <time>2021-10-09 14:18:35</time>
      </trkpt>
      <trkpt lat="40.41173" lon="-1.93797">
        <ele>1409.4</ele>
        <time>2021-10-09 14:18:36</time>
      </trkpt>
      <trkpt lat="40.41173" lon="-1.93787">
        <ele>1409.4</ele>
        <time>2021-10-09 14:18:37</time>
      </trkpt>
      <trkpt lat="40.41175" lon="-1.93777">
        <ele>1409.4</ele>
        <time>2021-10-09 14:18:38</time>
      </trkpt>
      <trkpt lat="40.41173" lon="-1.93768">
        <ele>1409.4</ele>
        <time>2021-10-09 14:18:39</time>
      </trkpt>
      <trkpt lat="40.41173" lon="-1.93758">
        <ele>1409.4</ele>
        <time>2021-10-09 14:18:40</time>
      </trkpt>
      <trkpt lat="40.41172" lon="-1.93749">
        <ele>1409.4</ele>
        <time>2021-10-09 14:18:41</time>
      </trkpt>
      <trkpt lat="40.41172" lon="-1.9374">
        <ele>1409.4</ele>
        <time>2021-10-09 14:18:42</time>
      </trkpt>
      <trkpt lat="40.41171" lon="-1.93731">
        <ele>1409.4</ele>
        <time>2021-10-09 14:18:43</time>
      </trkpt>
      <trkpt lat="40.41172" lon="-1.93722">
        <ele>1409.4</ele>
        <time>2021-10-09 14:18:44</time>
      </trkpt>
      <trkpt lat="40.41171" lon="-1.93714">
        <ele>1409.4</ele>
        <time>2021-10-09 14:18:45</time>
      </trkpt>
      <trkpt lat="40.4117" lon="-1.93705">
        <ele>1409.4</ele>
        <time>2021-10-09 14:18:46</time>
      </trkpt>
      <trkpt lat="40.41171" lon="-1.93696">
        <ele>1409.4</ele>
        <time>2021-10-09 14:18:47</time>
      </trkpt>
      <trkpt lat="40.4117" lon="-1.93687">
        <ele>1408.8</ele>
        <time>2021-10-09 14:18:48</time>
      </trkpt>
      <trkpt lat="40.41169" lon="-1.93677">
        <ele>1408.4</ele>
        <time>2021-10-09 14:18:49</time>
      </trkpt>
      <trkpt lat="40.41168" lon="-1.93668">
        <ele>1408</ele>
        <time>2021-10-09 14:18:50</time>
      </trkpt>
      <trkpt lat="40.41168" lon="-1.93657">
        <ele>1407.4</ele>
        <time>2021-10-09 14:18:51</time>
      </trkpt>
      <trkpt lat="40.41166" lon="-1.93647">
        <ele>1407</ele>
        <time>2021-10-09 14:18:52</time>
      </trkpt>
      <trkpt lat="40.41165" lon="-1.93635">
        <ele>1406.4</ele>
        <time>2021-10-09 14:18:53</time>
      </trkpt>
      <trkpt lat="40.41164" lon="-1.93624">
        <ele>1405.8</ele>
        <time>2021-10-09 14:18:54</time>
      </trkpt>
      <trkpt lat="40.41162" lon="-1.93612">
        <ele>1405.4</ele>
        <time>2021-10-09 14:18:55</time>
      </trkpt>
      <trkpt lat="40.41159" lon="-1.93601">
        <ele>1405</ele>
        <time>2021-10-09 14:18:56</time>
      </trkpt>
      <trkpt lat="40.41158" lon="-1.93591">
        <ele>1404.6</ele>
        <time>2021-10-09 14:18:57</time>
      </trkpt>
      <trkpt lat="40.41156" lon="-1.93582">
        <ele>1404</ele>
        <time>2021-10-09 14:18:58</time>
      </trkpt>
      <trkpt lat="40.41159" lon="-1.93572">
        <ele>1403.8</ele>
        <time>2021-10-09 14:18:59</time>
      </trkpt>
      <trkpt lat="40.41155" lon="-1.93565">
        <ele>1403.4</ele>
        <time>2021-10-09 14:19:00</time>
      </trkpt>
      <trkpt lat="40.41154" lon="-1.93557">
        <ele>1403.2</ele>
        <time>2021-10-09 14:19:01</time>
      </trkpt>
      <trkpt lat="40.41152" lon="-1.9355">
        <ele>1403.8</ele>
        <time>2021-10-09 14:19:02</time>
      </trkpt>
      <trkpt lat="40.41152" lon="-1.93542">
        <ele>1403.4</ele>
        <time>2021-10-09 14:19:03</time>
      </trkpt>
      <trkpt lat="40.41149" lon="-1.93536">
        <ele>1403</ele>
        <time>2021-10-09 14:19:04</time>
      </trkpt>
      <trkpt lat="40.41148" lon="-1.93527">
        <ele>1402.8</ele>
        <time>2021-10-09 14:19:05</time>
      </trkpt>
      <trkpt lat="40.41144" lon="-1.93517">
        <ele>1402.4</ele>
        <time>2021-10-09 14:19:06</time>
      </trkpt>
      <trkpt lat="40.4114" lon="-1.93509">
        <ele>1402</ele>
        <time>2021-10-09 14:19:07</time>
      </trkpt>
      <trkpt lat="40.41138" lon="-1.935">
        <ele>1401.6</ele>
        <time>2021-10-09 14:19:08</time>
      </trkpt>
      <trkpt lat="40.41134" lon="-1.93491">
        <ele>1401.4</ele>
        <time>2021-10-09 14:19:09</time>
      </trkpt>
      <trkpt lat="40.4113" lon="-1.93481">
        <ele>1401.2</ele>
        <time>2021-10-09 14:19:10</time>
      </trkpt>
      <trkpt lat="40.41125" lon="-1.93472">
        <ele>1400.8</ele>
        <time>2021-10-09 14:19:11</time>
      </trkpt>
      <trkpt lat="40.41122" lon="-1.93464">
        <ele>1400.2</ele>
        <time>2021-10-09 14:19:12</time>
      </trkpt>
      <trkpt lat="40.41116" lon="-1.93455">
        <ele>1399.4</ele>
        <time>2021-10-09 14:19:13</time>
      </trkpt>
      <trkpt lat="40.41114" lon="-1.93446">
        <ele>1398.6</ele>
        <time>2021-10-09 14:19:14</time>
      </trkpt>
      <trkpt lat="40.41112" lon="-1.93436">
        <ele>1398</ele>
        <time>2021-10-09 14:19:15</time>
      </trkpt>
      <trkpt lat="40.4111" lon="-1.93424">
        <ele>1397.4</ele>
        <time>2021-10-09 14:19:16</time>
      </trkpt>
      <trkpt lat="40.41111" lon="-1.93412">
        <ele>1396.8</ele>
        <time>2021-10-09 14:19:17</time>
      </trkpt>
      <trkpt lat="40.41113" lon="-1.93399">
        <ele>1395.8</ele>
        <time>2021-10-09 14:19:18</time>
      </trkpt>
      <trkpt lat="40.41117" lon="-1.93387">
        <ele>1395.2</ele>
        <time>2021-10-09 14:19:19</time>
      </trkpt>
      <trkpt lat="40.41121" lon="-1.93374">
        <ele>1394.6</ele>
        <time>2021-10-09 14:19:20</time>
      </trkpt>
      <trkpt lat="40.41125" lon="-1.93363">
        <ele>1394</ele>
        <time>2021-10-09 14:19:21</time>
      </trkpt>
      <trkpt lat="40.41133" lon="-1.93353">
        <ele>1393.6</ele>
        <time>2021-10-09 14:19:22</time>
      </trkpt>
      <trkpt lat="40.41142" lon="-1.93343">
        <ele>1393.2</ele>
        <time>2021-10-09 14:19:23</time>
      </trkpt>
      <trkpt lat="40.4115" lon="-1.93333">
        <ele>1392.8</ele>
        <time>2021-10-09 14:19:24</time>
      </trkpt>
      <trkpt lat="40.41157" lon="-1.93324">
        <ele>1392.4</ele>
        <time>2021-10-09 14:19:25</time>
      </trkpt>
      <trkpt lat="40.41162" lon="-1.93315">
        <ele>1392.2</ele>
        <time>2021-10-09 14:19:26</time>
      </trkpt>
      <trkpt lat="40.41167" lon="-1.93307">
        <ele>1392.2</ele>
        <time>2021-10-09 14:19:27</time>
      </trkpt>
      <trkpt lat="40.41172" lon="-1.93298">
        <ele>1391.6</ele>
        <time>2021-10-09 14:19:28</time>
      </trkpt>
      <trkpt lat="40.41176" lon="-1.93289">
        <ele>1391.2</ele>
        <time>2021-10-09 14:19:29</time>
      </trkpt>
      <trkpt lat="40.41179" lon="-1.93279">
        <ele>1391</ele>
        <time>2021-10-09 14:19:30</time>
      </trkpt>
      <trkpt lat="40.4118" lon="-1.93267">
        <ele>1390.8</ele>
        <time>2021-10-09 14:19:31</time>
      </trkpt>
      <trkpt lat="40.41182" lon="-1.93257">
        <ele>1390.6</ele>
        <time>2021-10-09 14:19:32</time>
      </trkpt>
      <trkpt lat="40.41183" lon="-1.93247">
        <ele>1390.6</ele>
        <time>2021-10-09 14:19:33</time>
      </trkpt>
      <trkpt lat="40.41184" lon="-1.93238">
        <ele>1390.2</ele>
        <time>2021-10-09 14:19:34</time>
      </trkpt>
      <trkpt lat="40.41181" lon="-1.93228">
        <ele>1392.6</ele>
        <time>2021-10-09 14:19:35</time>
      </trkpt>
      <trkpt lat="40.41182" lon="-1.93219">
        <ele>1391.6</ele>
        <time>2021-10-09 14:19:36</time>
      </trkpt>
      <trkpt lat="40.4118" lon="-1.93212">
        <ele>1391.6</ele>
        <time>2021-10-09 14:19:37</time>
      </trkpt>
      <trkpt lat="40.4118" lon="-1.93205">
        <ele>1390.8</ele>
        <time>2021-10-09 14:19:38</time>
      </trkpt>
      <trkpt lat="40.41183" lon="-1.93197">
        <ele>1389.8</ele>
        <time>2021-10-09 14:19:39</time>
      </trkpt>
      <trkpt lat="40.41181" lon="-1.9319">
        <ele>1389.8</ele>
        <time>2021-10-09 14:19:40</time>
      </trkpt>
      <trkpt lat="40.41179" lon="-1.93184">
        <ele>1389.8</ele>
        <time>2021-10-09 14:19:41</time>
      </trkpt>
      <trkpt lat="40.41177" lon="-1.9318">
        <ele>1389.4</ele>
        <time>2021-10-09 14:19:42</time>
      </trkpt>
      <trkpt lat="40.41176" lon="-1.93178">
        <ele>1389.4</ele>
        <time>2021-10-09 14:19:43</time>
      </trkpt>
      <trkpt lat="40.41172" lon="-1.93174">
        <ele>1389.4</ele>
        <time>2021-10-09 14:19:44</time>
      </trkpt>
      <trkpt lat="40.4117" lon="-1.9317">
        <ele>1389.4</ele>
        <time>2021-10-09 14:19:45</time>
      </trkpt>
      <trkpt lat="40.41166" lon="-1.93164">
        <ele>1389.4</ele>
        <time>2021-10-09 14:19:46</time>
      </trkpt>
      <trkpt lat="40.41162" lon="-1.93159">
        <ele>1389</ele>
        <time>2021-10-09 14:19:47</time>
      </trkpt>
      <trkpt lat="40.41158" lon="-1.93156">
        <ele>1389</ele>
        <time>2021-10-09 14:19:48</time>
      </trkpt>
      <trkpt lat="40.41154" lon="-1.93152">
        <ele>1389</ele>
        <time>2021-10-09 14:19:49</time>
      </trkpt>
      <trkpt lat="40.4115" lon="-1.93149">
        <ele>1389</ele>
        <time>2021-10-09 14:19:50</time>
      </trkpt>
      <trkpt lat="40.41147" lon="-1.93145">
        <ele>1389.2</ele>
        <time>2021-10-09 14:19:51</time>
      </trkpt>
      <trkpt lat="40.41142" lon="-1.93141">
        <ele>1389.2</ele>
        <time>2021-10-09 14:19:52</time>
      </trkpt>
      <trkpt lat="40.41139" lon="-1.93137">
        <ele>1389.2</ele>
        <time>2021-10-09 14:19:53</time>
      </trkpt>
      <trkpt lat="40.41135" lon="-1.93132">
        <ele>1390.2</ele>
        <time>2021-10-09 14:19:54</time>
      </trkpt>
      <trkpt lat="40.41134" lon="-1.9313">
        <ele>1390.2</ele>
        <time>2021-10-09 14:19:55</time>
      </trkpt>
      <trkpt lat="40.41131" lon="-1.93126">
        <ele>1390.2</ele>
        <time>2021-10-09 14:19:56</time>
      </trkpt>
      <trkpt lat="40.41124" lon="-1.93117">
        <ele>1390.2</ele>
        <time>2021-10-09 14:19:57</time>
      </trkpt>
      <trkpt lat="40.41122" lon="-1.93114">
        <ele>1390.2</ele>
        <time>2021-10-09 14:19:58</time>
      </trkpt>
      <trkpt lat="40.41119" lon="-1.93109">
        <ele>1390.2</ele>
        <time>2021-10-09 14:19:59</time>
      </trkpt>
      <trkpt lat="40.41117" lon="-1.93104">
        <ele>1390.2</ele>
        <time>2021-10-09 14:20:00</time>
      </trkpt>
      <trkpt lat="40.41116" lon="-1.93101">
        <ele>1390.2</ele>
        <time>2021-10-09 14:20:01</time>
      </trkpt>
      <trkpt lat="40.41116" lon="-1.93095">
        <ele>1390.8</ele>
        <time>2021-10-09 14:20:02</time>
      </trkpt>
      <trkpt lat="40.41115" lon="-1.9309">
        <ele>1390.8</ele>
        <time>2021-10-09 14:20:03</time>
      </trkpt>
      <trkpt lat="40.41115" lon="-1.93084">
        <ele>1390.8</ele>
        <time>2021-10-09 14:20:04</time>
      </trkpt>
      <trkpt lat="40.41116" lon="-1.93078">
        <ele>1390.8</ele>
        <time>2021-10-09 14:20:05</time>
      </trkpt>
      <trkpt lat="40.41119" lon="-1.93072">
        <ele>1390.8</ele>
        <time>2021-10-09 14:20:06</time>
      </trkpt>
      <trkpt lat="40.4112" lon="-1.93066">
        <ele>1390.8</ele>
        <time>2021-10-09 14:20:07</time>
      </trkpt>
      <trkpt lat="40.41123" lon="-1.93061">
        <ele>1391</ele>
        <time>2021-10-09 14:20:08</time>
      </trkpt>
      <trkpt lat="40.41124" lon="-1.93057">
        <ele>1391</ele>
        <time>2021-10-09 14:20:09</time>
      </trkpt>
      <trkpt lat="40.41125" lon="-1.93055">
        <ele>1391</ele>
        <time>2021-10-09 14:20:10</time>
      </trkpt>
      <trkpt lat="40.41127" lon="-1.93051">
        <ele>1391</ele>
        <time>2021-10-09 14:20:11</time>
      </trkpt>
      <trkpt lat="40.41128" lon="-1.93048">
        <ele>1391.2</ele>
        <time>2021-10-09 14:20:12</time>
      </trkpt>
      <trkpt lat="40.4113" lon="-1.93043">
        <ele>1391.2</ele>
        <time>2021-10-09 14:20:13</time>
      </trkpt>
      <trkpt lat="40.41131" lon="-1.9304">
        <ele>1391.6</ele>
        <time>2021-10-09 14:20:14</time>
      </trkpt>
      <trkpt lat="40.41131" lon="-1.93035">
        <ele>1391.8</ele>
        <time>2021-10-09 14:20:15</time>
      </trkpt>
      <trkpt lat="40.41131" lon="-1.93031">
        <ele>1391.8</ele>
        <time>2021-10-09 14:20:16</time>
      </trkpt>
      <trkpt lat="40.4113" lon="-1.93027">
        <ele>1392</ele>
        <time>2021-10-09 14:20:17</time>
      </trkpt>
      <trkpt lat="40.41129" lon="-1.93023">
        <ele>1392</ele>
        <time>2021-10-09 14:20:18</time>
      </trkpt>
      <trkpt lat="40.41127" lon="-1.93019">
        <ele>1392</ele>
        <time>2021-10-09 14:20:19</time>
      </trkpt>
      <trkpt lat="40.41126" lon="-1.93015">
        <ele>1392.4</ele>
        <time>2021-10-09 14:20:20</time>
      </trkpt>
      <trkpt lat="40.41125" lon="-1.93011">
        <ele>1392.4</ele>
        <time>2021-10-09 14:20:21</time>
      </trkpt>
      <trkpt lat="40.41123" lon="-1.93007">
        <ele>1392.6</ele>
        <time>2021-10-09 14:20:22</time>
      </trkpt>
      <trkpt lat="40.41122" lon="-1.93004">
        <ele>1392.6</ele>
        <time>2021-10-09 14:20:23</time>
      </trkpt>
      <trkpt lat="40.41121" lon="-1.93">
        <ele>1392.8</ele>
        <time>2021-10-09 14:20:24</time>
      </trkpt>
      <trkpt lat="40.4112" lon="-1.92995">
        <ele>1392.8</ele>
        <time>2021-10-09 14:20:25</time>
      </trkpt>
      <trkpt lat="40.41119" lon="-1.92991">
        <ele>1393.2</ele>
        <time>2021-10-09 14:20:26</time>
      </trkpt>
      <trkpt lat="40.41117" lon="-1.92987">
        <ele>1393.2</ele>
        <time>2021-10-09 14:20:27</time>
      </trkpt>
      <trkpt lat="40.41116" lon="-1.92983">
        <ele>1393.6</ele>
        <time>2021-10-09 14:20:28</time>
      </trkpt>
      <trkpt lat="40.41115" lon="-1.92978">
        <ele>1393.6</ele>
        <time>2021-10-09 14:20:29</time>
      </trkpt>
      <trkpt lat="40.41113" lon="-1.92974">
        <ele>1393.6</ele>
        <time>2021-10-09 14:20:30</time>
      </trkpt>
      <trkpt lat="40.41111" lon="-1.9297">
        <ele>1393.6</ele>
        <time>2021-10-09 14:20:31</time>
      </trkpt>
      <trkpt lat="40.41109" lon="-1.92965">
        <ele>1393.8</ele>
        <time>2021-10-09 14:20:32</time>
      </trkpt>
      <trkpt lat="40.41108" lon="-1.92961">
        <ele>1393.8</ele>
        <time>2021-10-09 14:20:33</time>
      </trkpt>
      <trkpt lat="40.41106" lon="-1.92957">
        <ele>1393.8</ele>
        <time>2021-10-09 14:20:34</time>
      </trkpt>
      <trkpt lat="40.41104" lon="-1.92952">
        <ele>1394</ele>
        <time>2021-10-09 14:20:35</time>
      </trkpt>
      <trkpt lat="40.41102" lon="-1.92948">
        <ele>1394</ele>
        <time>2021-10-09 14:20:36</time>
      </trkpt>
      <trkpt lat="40.411" lon="-1.92943">
        <ele>1394.2</ele>
        <time>2021-10-09 14:20:37</time>
      </trkpt>
      <trkpt lat="40.41098" lon="-1.92939">
        <ele>1394.2</ele>
        <time>2021-10-09 14:20:38</time>
      </trkpt>
      <trkpt lat="40.41097" lon="-1.92935">
        <ele>1394.6</ele>
        <time>2021-10-09 14:20:39</time>
      </trkpt>
      <trkpt lat="40.41095" lon="-1.92931">
        <ele>1394.6</ele>
        <time>2021-10-09 14:20:40</time>
      </trkpt>
      <trkpt lat="40.41093" lon="-1.92926">
        <ele>1394.6</ele>
        <time>2021-10-09 14:20:41</time>
      </trkpt>
      <trkpt lat="40.41092" lon="-1.92922">
        <ele>1394.8</ele>
        <time>2021-10-09 14:20:42</time>
      </trkpt>
      <trkpt lat="40.41091" lon="-1.92917">
        <ele>1394.8</ele>
        <time>2021-10-09 14:20:43</time>
      </trkpt>
      <trkpt lat="40.4109" lon="-1.92912">
        <ele>1394.8</ele>
        <time>2021-10-09 14:20:44</time>
      </trkpt>
      <trkpt lat="40.41089" lon="-1.92907">
        <ele>1395</ele>
        <time>2021-10-09 14:20:45</time>
      </trkpt>
      <trkpt lat="40.41088" lon="-1.92903">
        <ele>1395</ele>
        <time>2021-10-09 14:20:46</time>
      </trkpt>
      <trkpt lat="40.41087" lon="-1.92898">
        <ele>1395.4</ele>
        <time>2021-10-09 14:20:47</time>
      </trkpt>
      <trkpt lat="40.41087" lon="-1.92893">
        <ele>1395.4</ele>
        <time>2021-10-09 14:20:48</time>
      </trkpt>
      <trkpt lat="40.41087" lon="-1.92888">
        <ele>1395.4</ele>
        <time>2021-10-09 14:20:49</time>
      </trkpt>
      <trkpt lat="40.41087" lon="-1.92884">
        <ele>1395.4</ele>
        <time>2021-10-09 14:20:50</time>
      </trkpt>
      <trkpt lat="40.41087" lon="-1.9288">
        <ele>1395.4</ele>
        <time>2021-10-09 14:20:51</time>
      </trkpt>
      <trkpt lat="40.41087" lon="-1.92875">
        <ele>1395.4</ele>
        <time>2021-10-09 14:20:52</time>
      </trkpt>
      <trkpt lat="40.41088" lon="-1.92871">
        <ele>1395.2</ele>
        <time>2021-10-09 14:20:53</time>
      </trkpt>
      <trkpt lat="40.41087" lon="-1.92863">
        <ele>1395.2</ele>
        <time>2021-10-09 14:20:54</time>
      </trkpt>
      <trkpt lat="40.41087" lon="-1.92857">
        <ele>1395</ele>
        <time>2021-10-09 14:20:55</time>
      </trkpt>
      <trkpt lat="40.41086" lon="-1.92851">
        <ele>1395</ele>
        <time>2021-10-09 14:20:56</time>
      </trkpt>
      <trkpt lat="40.41083" lon="-1.92847">
        <ele>1394.6</ele>
        <time>2021-10-09 14:20:57</time>
      </trkpt>
      <trkpt lat="40.4108" lon="-1.92841">
        <ele>1394.6</ele>
        <time>2021-10-09 14:20:58</time>
      </trkpt>
      <trkpt lat="40.41078" lon="-1.92838">
        <ele>1394.4</ele>
        <time>2021-10-09 14:20:59</time>
      </trkpt>
      <trkpt lat="40.41075" lon="-1.92834">
        <ele>1394.4</ele>
        <time>2021-10-09 14:21:00</time>
      </trkpt>
      <trkpt lat="40.41073" lon="-1.92831">
        <ele>1394.4</ele>
        <time>2021-10-09 14:21:01</time>
      </trkpt>
      <trkpt lat="40.4107" lon="-1.92828">
        <ele>1394.4</ele>
        <time>2021-10-09 14:21:02</time>
      </trkpt>
      <trkpt lat="40.41067" lon="-1.92826">
        <ele>1394.4</ele>
        <time>2021-10-09 14:21:03</time>
      </trkpt>
      <trkpt lat="40.41064" lon="-1.92823">
        <ele>1394.4</ele>
        <time>2021-10-09 14:21:04</time>
      </trkpt>
      <trkpt lat="40.4106" lon="-1.92821">
        <ele>1394.4</ele>
        <time>2021-10-09 14:21:05</time>
      </trkpt>
      <trkpt lat="40.41057" lon="-1.92818">
        <ele>1394.8</ele>
        <time>2021-10-09 14:21:06</time>
      </trkpt>
      <trkpt lat="40.41054" lon="-1.92815">
        <ele>1394.8</ele>
        <time>2021-10-09 14:21:07</time>
      </trkpt>
      <trkpt lat="40.41052" lon="-1.92813">
        <ele>1394.8</ele>
        <time>2021-10-09 14:21:08</time>
      </trkpt>
      <trkpt lat="40.41049" lon="-1.9281">
        <ele>1394.8</ele>
        <time>2021-10-09 14:21:09</time>
      </trkpt>
      <trkpt lat="40.41046" lon="-1.92807">
        <ele>1395</ele>
        <time>2021-10-09 14:21:10</time>
      </trkpt>
      <trkpt lat="40.41043" lon="-1.92804">
        <ele>1395</ele>
        <time>2021-10-09 14:21:11</time>
      </trkpt>
      <trkpt lat="40.4104" lon="-1.92801">
        <ele>1395.4</ele>
        <time>2021-10-09 14:21:12</time>
      </trkpt>
      <trkpt lat="40.41038" lon="-1.92799">
        <ele>1395.4</ele>
        <time>2021-10-09 14:21:13</time>
      </trkpt>
      <trkpt lat="40.41036" lon="-1.92796">
        <ele>1395.6</ele>
        <time>2021-10-09 14:21:14</time>
      </trkpt>
      <trkpt lat="40.41033" lon="-1.92792">
        <ele>1395.6</ele>
        <time>2021-10-09 14:21:15</time>
      </trkpt>
      <trkpt lat="40.4103" lon="-1.92789">
        <ele>1395.8</ele>
        <time>2021-10-09 14:21:16</time>
      </trkpt>
      <trkpt lat="40.41027" lon="-1.92785">
        <ele>1395.8</ele>
        <time>2021-10-09 14:21:17</time>
      </trkpt>
      <trkpt lat="40.41024" lon="-1.92781">
        <ele>1395.8</ele>
        <time>2021-10-09 14:21:18</time>
      </trkpt>
      <trkpt lat="40.41022" lon="-1.92777">
        <ele>1395.8</ele>
        <time>2021-10-09 14:21:19</time>
      </trkpt>
      <trkpt lat="40.41019" lon="-1.92769">
        <ele>1395.8</ele>
        <time>2021-10-09 14:21:20</time>
      </trkpt>
      <trkpt lat="40.41017" lon="-1.92765">
        <ele>1395.8</ele>
        <time>2021-10-09 14:21:21</time>
      </trkpt>
      <trkpt lat="40.41014" lon="-1.92761">
        <ele>1396.2</ele>
        <time>2021-10-09 14:21:22</time>
      </trkpt>
      <trkpt lat="40.41012" lon="-1.92757">
        <ele>1396.2</ele>
        <time>2021-10-09 14:21:23</time>
      </trkpt>
      <trkpt lat="40.41011" lon="-1.92755">
        <ele>1396.2</ele>
        <time>2021-10-09 14:21:24</time>
      </trkpt>
      <trkpt lat="40.41008" lon="-1.92751">
        <ele>1396.2</ele>
        <time>2021-10-09 14:21:25</time>
      </trkpt>
      <trkpt lat="40.41006" lon="-1.92749">
        <ele>1396.2</ele>
        <time>2021-10-09 14:21:26</time>
      </trkpt>
      <trkpt lat="40.41005" lon="-1.92743">
        <ele>1396.2</ele>
        <time>2021-10-09 14:21:27</time>
      </trkpt>
      <trkpt lat="40.41005" lon="-1.92737">
        <ele>1396.2</ele>
        <time>2021-10-09 14:21:28</time>
      </trkpt>
      <trkpt lat="40.41004" lon="-1.92733">
        <ele>1396.2</ele>
        <time>2021-10-09 14:21:29</time>
      </trkpt>
      <trkpt lat="40.41003" lon="-1.92729">
        <ele>1396.2</ele>
        <time>2021-10-09 14:21:30</time>
      </trkpt>
      <trkpt lat="40.41002" lon="-1.92723">
        <ele>1396.2</ele>
        <time>2021-10-09 14:21:31</time>
      </trkpt>
      <trkpt lat="40.41" lon="-1.92719">
        <ele>1396.2</ele>
        <time>2021-10-09 14:21:32</time>
      </trkpt>
      <trkpt lat="40.40998" lon="-1.92714">
        <ele>1396.2</ele>
        <time>2021-10-09 14:21:33</time>
      </trkpt>
      <trkpt lat="40.40996" lon="-1.92708">
        <ele>1396.2</ele>
        <time>2021-10-09 14:21:34</time>
      </trkpt>
      <trkpt lat="40.40995" lon="-1.92704">
        <ele>1396.2</ele>
        <time>2021-10-09 14:21:35</time>
      </trkpt>
      <trkpt lat="40.40994" lon="-1.927">
        <ele>1396.2</ele>
        <time>2021-10-09 14:21:36</time>
      </trkpt>
      <trkpt lat="40.40993" lon="-1.92695">
        <ele>1396.2</ele>
        <time>2021-10-09 14:21:37</time>
      </trkpt>
      <trkpt lat="40.40991" lon="-1.92691">
        <ele>1396.4</ele>
        <time>2021-10-09 14:21:38</time>
      </trkpt>
      <trkpt lat="40.40991" lon="-1.92686">
        <ele>1396.4</ele>
        <time>2021-10-09 14:21:39</time>
      </trkpt>
      <trkpt lat="40.4099" lon="-1.9268">
        <ele>1396.4</ele>
        <time>2021-10-09 14:21:40</time>
      </trkpt>
      <trkpt lat="40.40989" lon="-1.92676">
        <ele>1396.4</ele>
        <time>2021-10-09 14:21:41</time>
      </trkpt>
      <trkpt lat="40.40988" lon="-1.92671">
        <ele>1396.8</ele>
        <time>2021-10-09 14:21:42</time>
      </trkpt>
      <trkpt lat="40.40988" lon="-1.92666">
        <ele>1396.8</ele>
        <time>2021-10-09 14:21:43</time>
      </trkpt>
      <trkpt lat="40.40987" lon="-1.92661">
        <ele>1397</ele>
        <time>2021-10-09 14:21:44</time>
      </trkpt>
      <trkpt lat="40.40986" lon="-1.92657">
        <ele>1397</ele>
        <time>2021-10-09 14:21:45</time>
      </trkpt>
      <trkpt lat="40.40985" lon="-1.92652">
        <ele>1397.2</ele>
        <time>2021-10-09 14:21:46</time>
      </trkpt>
      <trkpt lat="40.40984" lon="-1.92648">
        <ele>1397.2</ele>
        <time>2021-10-09 14:21:47</time>
      </trkpt>
      <trkpt lat="40.40983" lon="-1.92644">
        <ele>1397.4</ele>
        <time>2021-10-09 14:21:48</time>
      </trkpt>
      <trkpt lat="40.40982" lon="-1.92639">
        <ele>1397.4</ele>
        <time>2021-10-09 14:21:49</time>
      </trkpt>
      <trkpt lat="40.40981" lon="-1.92635">
        <ele>1397.8</ele>
        <time>2021-10-09 14:21:50</time>
      </trkpt>
      <trkpt lat="40.40981" lon="-1.92631">
        <ele>1397.8</ele>
        <time>2021-10-09 14:21:51</time>
      </trkpt>
      <trkpt lat="40.4098" lon="-1.92626">
        <ele>1398</ele>
        <time>2021-10-09 14:21:52</time>
      </trkpt>
      <trkpt lat="40.40978" lon="-1.92622">
        <ele>1397.8</ele>
        <time>2021-10-09 14:21:53</time>
      </trkpt>
      <trkpt lat="40.40976" lon="-1.92618">
        <ele>1398</ele>
        <time>2021-10-09 14:21:54</time>
      </trkpt>
      <trkpt lat="40.40974" lon="-1.92614">
        <ele>1398</ele>
        <time>2021-10-09 14:21:55</time>
      </trkpt>
      <trkpt lat="40.40973" lon="-1.92609">
        <ele>1398.2</ele>
        <time>2021-10-09 14:21:56</time>
      </trkpt>
      <trkpt lat="40.40972" lon="-1.92605">
        <ele>1398.4</ele>
        <time>2021-10-09 14:21:57</time>
      </trkpt>
      <trkpt lat="40.40971" lon="-1.92601">
        <ele>1397.6</ele>
        <time>2021-10-09 14:21:58</time>
      </trkpt>
      <trkpt lat="40.4097" lon="-1.92598">
        <ele>1397.2</ele>
        <time>2021-10-09 14:21:59</time>
      </trkpt>
      <trkpt lat="40.40969" lon="-1.92595">
        <ele>1398.4</ele>
        <time>2021-10-09 14:22:00</time>
      </trkpt>
      <trkpt lat="40.40969" lon="-1.92591">
        <ele>1398.8</ele>
        <time>2021-10-09 14:22:01</time>
      </trkpt>
      <trkpt lat="40.40967" lon="-1.92586">
        <ele>1399</ele>
        <time>2021-10-09 14:22:02</time>
      </trkpt>
      <trkpt lat="40.40966" lon="-1.92581">
        <ele>1399.2</ele>
        <time>2021-10-09 14:22:03</time>
      </trkpt>
      <trkpt lat="40.40965" lon="-1.92578">
        <ele>1399.2</ele>
        <time>2021-10-09 14:22:04</time>
      </trkpt>
      <trkpt lat="40.40965" lon="-1.92575">
        <ele>1399.2</ele>
        <time>2021-10-09 14:22:05</time>
      </trkpt>
      <trkpt lat="40.40964" lon="-1.92571">
        <ele>1399.6</ele>
        <time>2021-10-09 14:22:06</time>
      </trkpt>
      <trkpt lat="40.40964" lon="-1.92568">
        <ele>1399.6</ele>
        <time>2021-10-09 14:22:07</time>
      </trkpt>
      <trkpt lat="40.40965" lon="-1.92565">
        <ele>1399.8</ele>
        <time>2021-10-09 14:22:08</time>
      </trkpt>
      <trkpt lat="40.40965" lon="-1.92563">
        <ele>1399.8</ele>
        <time>2021-10-09 14:22:09</time>
      </trkpt>
      <trkpt lat="40.40965" lon="-1.92561">
        <ele>1400.2</ele>
        <time>2021-10-09 14:22:10</time>
      </trkpt>
      <trkpt lat="40.40966" lon="-1.92558">
        <ele>1400.2</ele>
        <time>2021-10-09 14:22:11</time>
      </trkpt>
      <trkpt lat="40.40967" lon="-1.92555">
        <ele>1400.4</ele>
        <time>2021-10-09 14:22:12</time>
      </trkpt>
      <trkpt lat="40.40969" lon="-1.92553">
        <ele>1400.6</ele>
        <time>2021-10-09 14:22:13</time>
      </trkpt>
      <trkpt lat="40.4097" lon="-1.9255">
        <ele>1400.8</ele>
        <time>2021-10-09 14:22:14</time>
      </trkpt>
      <trkpt lat="40.40971" lon="-1.92547">
        <ele>1400.8</ele>
        <time>2021-10-09 14:22:15</time>
      </trkpt>
      <trkpt lat="40.40972" lon="-1.92544">
        <ele>1401</ele>
        <time>2021-10-09 14:22:16</time>
      </trkpt>
      <trkpt lat="40.40973" lon="-1.92541">
        <ele>1401.2</ele>
        <time>2021-10-09 14:22:17</time>
      </trkpt>
      <trkpt lat="40.40973" lon="-1.92538">
        <ele>1401.6</ele>
        <time>2021-10-09 14:22:18</time>
      </trkpt>
      <trkpt lat="40.40973" lon="-1.92535">
        <ele>1401.8</ele>
        <time>2021-10-09 14:22:19</time>
      </trkpt>
      <trkpt lat="40.40974" lon="-1.92531">
        <ele>1402</ele>
        <time>2021-10-09 14:22:20</time>
      </trkpt>
      <trkpt lat="40.40974" lon="-1.92528">
        <ele>1402.2</ele>
        <time>2021-10-09 14:22:21</time>
      </trkpt>
      <trkpt lat="40.40975" lon="-1.92525">
        <ele>1402.2</ele>
        <time>2021-10-09 14:22:22</time>
      </trkpt>
      <trkpt lat="40.40975" lon="-1.92522">
        <ele>1402.6</ele>
        <time>2021-10-09 14:22:23</time>
      </trkpt>
      <trkpt lat="40.40975" lon="-1.9252">
        <ele>1402.6</ele>
        <time>2021-10-09 14:22:24</time>
      </trkpt>
      <trkpt lat="40.40976" lon="-1.92518">
        <ele>1402.8</ele>
        <time>2021-10-09 14:22:25</time>
      </trkpt>
      <trkpt lat="40.40976" lon="-1.92515">
        <ele>1402.8</ele>
        <time>2021-10-09 14:22:26</time>
      </trkpt>
      <trkpt lat="40.40976" lon="-1.92513">
        <ele>1402.8</ele>
        <time>2021-10-09 14:22:27</time>
      </trkpt>
      <trkpt lat="40.40976" lon="-1.9251">
        <ele>1403</ele>
        <time>2021-10-09 14:22:28</time>
      </trkpt>
      <trkpt lat="40.40976" lon="-1.92507">
        <ele>1403</ele>
        <time>2021-10-09 14:22:29</time>
      </trkpt>
      <trkpt lat="40.40975" lon="-1.92504">
        <ele>1403</ele>
        <time>2021-10-09 14:22:30</time>
      </trkpt>
      <trkpt lat="40.40975" lon="-1.92501">
        <ele>1403</ele>
        <time>2021-10-09 14:22:31</time>
      </trkpt>
      <trkpt lat="40.40973" lon="-1.92498">
        <ele>1403</ele>
        <time>2021-10-09 14:22:32</time>
      </trkpt>
      <trkpt lat="40.40971" lon="-1.92495">
        <ele>1403.2</ele>
        <time>2021-10-09 14:22:33</time>
      </trkpt>
      <trkpt lat="40.40969" lon="-1.92493">
        <ele>1403.2</ele>
        <time>2021-10-09 14:22:34</time>
      </trkpt>
      <trkpt lat="40.40967" lon="-1.92493">
        <ele>1403.4</ele>
        <time>2021-10-09 14:22:35</time>
      </trkpt>
      <trkpt lat="40.40964" lon="-1.92494">
        <ele>1403.4</ele>
        <time>2021-10-09 14:22:36</time>
      </trkpt>
      <trkpt lat="40.40963" lon="-1.92495">
        <ele>1403.4</ele>
        <time>2021-10-09 14:22:37</time>
      </trkpt>
      <trkpt lat="40.40962" lon="-1.92497">
        <ele>1403.8</ele>
        <time>2021-10-09 14:22:38</time>
      </trkpt>
      <trkpt lat="40.4096" lon="-1.92499">
        <ele>1403.8</ele>
        <time>2021-10-09 14:22:39</time>
      </trkpt>
      <trkpt lat="40.40959" lon="-1.92502">
        <ele>1404.2</ele>
        <time>2021-10-09 14:22:40</time>
      </trkpt>
      <trkpt lat="40.40958" lon="-1.92504">
        <ele>1404.4</ele>
        <time>2021-10-09 14:22:41</time>
      </trkpt>
      <trkpt lat="40.40957" lon="-1.92505">
        <ele>1404.6</ele>
        <time>2021-10-09 14:22:42</time>
      </trkpt>
      <trkpt lat="40.40956" lon="-1.92507">
        <ele>1404.8</ele>
        <time>2021-10-09 14:22:43</time>
      </trkpt>
      <trkpt lat="40.40955" lon="-1.92508">
        <ele>1405.2</ele>
        <time>2021-10-09 14:22:44</time>
      </trkpt>
      <trkpt lat="40.40954" lon="-1.92509">
        <ele>1405.4</ele>
        <time>2021-10-09 14:22:45</time>
      </trkpt>
      <trkpt lat="40.40953" lon="-1.9251">
        <ele>1405.4</ele>
        <time>2021-10-09 14:22:46</time>
      </trkpt>
      <trkpt lat="40.40952" lon="-1.92511">
        <ele>1406</ele>
        <time>2021-10-09 14:22:47</time>
      </trkpt>
      <trkpt lat="40.40951" lon="-1.92513">
        <ele>1406</ele>
        <time>2021-10-09 14:22:48</time>
      </trkpt>
      <trkpt lat="40.40949" lon="-1.92515">
        <ele>1406.2</ele>
        <time>2021-10-09 14:22:49</time>
      </trkpt>
      <trkpt lat="40.40948" lon="-1.92515">
        <ele>1406.2</ele>
        <time>2021-10-09 14:22:50</time>
      </trkpt>
      <trkpt lat="40.40946" lon="-1.92515">
        <ele>1406.6</ele>
        <time>2021-10-09 14:22:51</time>
      </trkpt>
      <trkpt lat="40.40944" lon="-1.92514">
        <ele>1406.6</ele>
        <time>2021-10-09 14:22:52</time>
      </trkpt>
      <trkpt lat="40.40942" lon="-1.92514">
        <ele>1406.8</ele>
        <time>2021-10-09 14:22:53</time>
      </trkpt>
      <trkpt lat="40.4094" lon="-1.92515">
        <ele>1406.8</ele>
        <time>2021-10-09 14:22:54</time>
      </trkpt>
      <trkpt lat="40.40937" lon="-1.92514">
        <ele>1406.8</ele>
        <time>2021-10-09 14:22:55</time>
      </trkpt>
      <trkpt lat="40.40935" lon="-1.92514">
        <ele>1407</ele>
        <time>2021-10-09 14:22:56</time>
      </trkpt>
      <trkpt lat="40.40934" lon="-1.92514">
        <ele>1407</ele>
        <time>2021-10-09 14:22:57</time>
      </trkpt>
      <trkpt lat="40.40932" lon="-1.92514">
        <ele>1407.2</ele>
        <time>2021-10-09 14:22:58</time>
      </trkpt>
      <trkpt lat="40.4093" lon="-1.92514">
        <ele>1407.2</ele>
        <time>2021-10-09 14:22:59</time>
      </trkpt>
      <trkpt lat="40.40928" lon="-1.92515">
        <ele>1407.2</ele>
        <time>2021-10-09 14:23:00</time>
      </trkpt>
      <trkpt lat="40.40926" lon="-1.92516">
        <ele>1407.4</ele>
        <time>2021-10-09 14:23:01</time>
      </trkpt>
      <trkpt lat="40.40924" lon="-1.92516">
        <ele>1407.4</ele>
        <time>2021-10-09 14:23:02</time>
      </trkpt>
      <trkpt lat="40.40923" lon="-1.92516">
        <ele>1407.4</ele>
        <time>2021-10-09 14:23:03</time>
      </trkpt>
      <trkpt lat="40.40922" lon="-1.92517">
        <ele>1407.6</ele>
        <time>2021-10-09 14:23:04</time>
      </trkpt>
      <trkpt lat="40.4092" lon="-1.92518">
        <ele>1407.6</ele>
        <time>2021-10-09 14:23:05</time>
      </trkpt>
      <trkpt lat="40.40919" lon="-1.92519">
        <ele>1407.8</ele>
        <time>2021-10-09 14:23:06</time>
      </trkpt>
      <trkpt lat="40.40918" lon="-1.9252">
        <ele>1407.8</ele>
        <time>2021-10-09 14:23:07</time>
      </trkpt>
      <trkpt lat="40.40917" lon="-1.9252">
        <ele>1407.8</ele>
        <time>2021-10-09 14:23:08</time>
      </trkpt>
      <trkpt lat="40.40916" lon="-1.9252">
        <ele>1408.2</ele>
        <time>2021-10-09 14:23:09</time>
      </trkpt>
      <trkpt lat="40.40915" lon="-1.92522">
        <ele>1408.2</ele>
        <time>2021-10-09 14:23:10</time>
      </trkpt>
      <trkpt lat="40.40913" lon="-1.92523">
        <ele>1408.4</ele>
        <time>2021-10-09 14:23:11</time>
      </trkpt>
      <trkpt lat="40.40911" lon="-1.92523">
        <ele>1408.4</ele>
        <time>2021-10-09 14:23:12</time>
      </trkpt>
      <trkpt lat="40.4091" lon="-1.92523">
        <ele>1408.6</ele>
        <time>2021-10-09 14:23:13</time>
      </trkpt>
      <trkpt lat="40.40909" lon="-1.92524">
        <ele>1408.6</ele>
        <time>2021-10-09 14:23:14</time>
      </trkpt>
      <trkpt lat="40.40907" lon="-1.92524">
        <ele>1408.8</ele>
        <time>2021-10-09 14:23:15</time>
      </trkpt>
      <trkpt lat="40.40905" lon="-1.92525">
        <ele>1408.8</ele>
        <time>2021-10-09 14:23:16</time>
      </trkpt>
      <trkpt lat="40.40903" lon="-1.92526">
        <ele>1409</ele>
        <time>2021-10-09 14:23:17</time>
      </trkpt>
      <trkpt lat="40.40901" lon="-1.92527">
        <ele>1409.4</ele>
        <time>2021-10-09 14:23:18</time>
      </trkpt>
      <trkpt lat="40.40899" lon="-1.92528">
        <ele>1409.4</ele>
        <time>2021-10-09 14:23:19</time>
      </trkpt>
      <trkpt lat="40.40898" lon="-1.92529">
        <ele>1409.6</ele>
        <time>2021-10-09 14:23:20</time>
      </trkpt>
      <trkpt lat="40.40896" lon="-1.9253">
        <ele>1409.6</ele>
        <time>2021-10-09 14:23:21</time>
      </trkpt>
      <trkpt lat="40.40894" lon="-1.92531">
        <ele>1409.8</ele>
        <time>2021-10-09 14:23:22</time>
      </trkpt>
      <trkpt lat="40.40893" lon="-1.92532">
        <ele>1409.8</ele>
        <time>2021-10-09 14:23:23</time>
      </trkpt>
      <trkpt lat="40.4089" lon="-1.92533">
        <ele>1410</ele>
        <time>2021-10-09 14:23:24</time>
      </trkpt>
      <trkpt lat="40.40888" lon="-1.92533">
        <ele>1410</ele>
        <time>2021-10-09 14:23:25</time>
      </trkpt>
      <trkpt lat="40.40886" lon="-1.92534">
        <ele>1410</ele>
        <time>2021-10-09 14:23:26</time>
      </trkpt>
      <trkpt lat="40.40882" lon="-1.92536">
        <ele>1410.2</ele>
        <time>2021-10-09 14:23:27</time>
      </trkpt>
      <trkpt lat="40.4088" lon="-1.92537">
        <ele>1410.2</ele>
        <time>2021-10-09 14:23:28</time>
      </trkpt>
      <trkpt lat="40.40877" lon="-1.92538">
        <ele>1410.6</ele>
        <time>2021-10-09 14:23:29</time>
      </trkpt>
      <trkpt lat="40.40875" lon="-1.92539">
        <ele>1410.6</ele>
        <time>2021-10-09 14:23:30</time>
      </trkpt>
      <trkpt lat="40.40873" lon="-1.9254">
        <ele>1410.6</ele>
        <time>2021-10-09 14:23:31</time>
      </trkpt>
      <trkpt lat="40.4087" lon="-1.92541">
        <ele>1410.8</ele>
        <time>2021-10-09 14:23:32</time>
      </trkpt>
      <trkpt lat="40.40868" lon="-1.92542">
        <ele>1410.8</ele>
        <time>2021-10-09 14:23:33</time>
      </trkpt>
      <trkpt lat="40.40865" lon="-1.92542">
        <ele>1410.8</ele>
        <time>2021-10-09 14:23:34</time>
      </trkpt>
      <trkpt lat="40.40863" lon="-1.92543">
        <ele>1411</ele>
        <time>2021-10-09 14:23:35</time>
      </trkpt>
      <trkpt lat="40.40859" lon="-1.92544">
        <ele>1411</ele>
        <time>2021-10-09 14:23:36</time>
      </trkpt>
      <trkpt lat="40.40856" lon="-1.92545">
        <ele>1411</ele>
        <time>2021-10-09 14:23:37</time>
      </trkpt>
      <trkpt lat="40.40853" lon="-1.92545">
        <ele>1411</ele>
        <time>2021-10-09 14:23:38</time>
      </trkpt>
      <trkpt lat="40.40849" lon="-1.92546">
        <ele>1411.2</ele>
        <time>2021-10-09 14:23:39</time>
      </trkpt>
      <trkpt lat="40.40847" lon="-1.92546">
        <ele>1411.2</ele>
        <time>2021-10-09 14:23:40</time>
      </trkpt>
      <trkpt lat="40.40844" lon="-1.92548">
        <ele>1411.2</ele>
        <time>2021-10-09 14:23:41</time>
      </trkpt>
      <trkpt lat="40.40841" lon="-1.92549">
        <ele>1411.2</ele>
        <time>2021-10-09 14:23:42</time>
      </trkpt>
      <trkpt lat="40.40839" lon="-1.92551">
        <ele>1411.4</ele>
        <time>2021-10-09 14:23:43</time>
      </trkpt>
      <trkpt lat="40.40837" lon="-1.92552">
        <ele>1411.4</ele>
        <time>2021-10-09 14:23:44</time>
      </trkpt>
      <trkpt lat="40.40835" lon="-1.92553">
        <ele>1411.6</ele>
        <time>2021-10-09 14:23:45</time>
      </trkpt>
      <trkpt lat="40.40833" lon="-1.92554">
        <ele>1411.6</ele>
        <time>2021-10-09 14:23:46</time>
      </trkpt>
      <trkpt lat="40.40831" lon="-1.92554">
        <ele>1411.8</ele>
        <time>2021-10-09 14:23:47</time>
      </trkpt>
      <trkpt lat="40.40828" lon="-1.92555">
        <ele>1411.8</ele>
        <time>2021-10-09 14:23:48</time>
      </trkpt>
      <trkpt lat="40.40825" lon="-1.92555">
        <ele>1411.8</ele>
        <time>2021-10-09 14:23:49</time>
      </trkpt>
      <trkpt lat="40.40822" lon="-1.92554">
        <ele>1412.2</ele>
        <time>2021-10-09 14:23:50</time>
      </trkpt>
      <trkpt lat="40.4082" lon="-1.92553">
        <ele>1412.2</ele>
        <time>2021-10-09 14:23:51</time>
      </trkpt>
      <trkpt lat="40.40817" lon="-1.92552">
        <ele>1412.4</ele>
        <time>2021-10-09 14:23:52</time>
      </trkpt>
      <trkpt lat="40.40815" lon="-1.92551">
        <ele>1412.4</ele>
        <time>2021-10-09 14:23:53</time>
      </trkpt>
      <trkpt lat="40.40812" lon="-1.92549">
        <ele>1412.4</ele>
        <time>2021-10-09 14:23:54</time>
      </trkpt>
      <trkpt lat="40.40809" lon="-1.92548">
        <ele>1412.8</ele>
        <time>2021-10-09 14:23:55</time>
      </trkpt>
      <trkpt lat="40.40807" lon="-1.92546">
        <ele>1412.8</ele>
        <time>2021-10-09 14:23:56</time>
      </trkpt>
      <trkpt lat="40.40804" lon="-1.92544">
        <ele>1412.8</ele>
        <time>2021-10-09 14:23:57</time>
      </trkpt>
      <trkpt lat="40.40801" lon="-1.92541">
        <ele>1412.8</ele>
        <time>2021-10-09 14:23:58</time>
      </trkpt>
      <trkpt lat="40.40799" lon="-1.92538">
        <ele>1412.8</ele>
        <time>2021-10-09 14:23:59</time>
      </trkpt>
      <trkpt lat="40.40796" lon="-1.92535">
        <ele>1412.8</ele>
        <time>2021-10-09 14:24:00</time>
      </trkpt>
      <trkpt lat="40.40793" lon="-1.92533">
        <ele>1412.8</ele>
        <time>2021-10-09 14:24:01</time>
      </trkpt>
      <trkpt lat="40.4079" lon="-1.9253">
        <ele>1412.8</ele>
        <time>2021-10-09 14:24:02</time>
      </trkpt>
      <trkpt lat="40.40786" lon="-1.92527">
        <ele>1412.8</ele>
        <time>2021-10-09 14:24:03</time>
      </trkpt>
      <trkpt lat="40.40783" lon="-1.92524">
        <ele>1412.8</ele>
        <time>2021-10-09 14:24:04</time>
      </trkpt>
      <trkpt lat="40.40779" lon="-1.9252">
        <ele>1412.8</ele>
        <time>2021-10-09 14:24:05</time>
      </trkpt>
      <trkpt lat="40.40775" lon="-1.92517">
        <ele>1412.8</ele>
        <time>2021-10-09 14:24:06</time>
      </trkpt>
      <trkpt lat="40.40772" lon="-1.92515">
        <ele>1412.8</ele>
        <time>2021-10-09 14:24:07</time>
      </trkpt>
      <trkpt lat="40.40768" lon="-1.92512">
        <ele>1413</ele>
        <time>2021-10-09 14:24:08</time>
      </trkpt>
      <trkpt lat="40.40765" lon="-1.92509">
        <ele>1413</ele>
        <time>2021-10-09 14:24:09</time>
      </trkpt>
      <trkpt lat="40.40761" lon="-1.92507">
        <ele>1413.4</ele>
        <time>2021-10-09 14:24:10</time>
      </trkpt>
      <trkpt lat="40.40757" lon="-1.92505">
        <ele>1413.4</ele>
        <time>2021-10-09 14:24:11</time>
      </trkpt>
      <trkpt lat="40.40754" lon="-1.92503">
        <ele>1413.4</ele>
        <time>2021-10-09 14:24:12</time>
      </trkpt>
      <trkpt lat="40.4075" lon="-1.925">
        <ele>1413.4</ele>
        <time>2021-10-09 14:24:13</time>
      </trkpt>
      <trkpt lat="40.40747" lon="-1.92498">
        <ele>1413.4</ele>
        <time>2021-10-09 14:24:14</time>
      </trkpt>
      <trkpt lat="40.40743" lon="-1.92496">
        <ele>1413.4</ele>
        <time>2021-10-09 14:24:15</time>
      </trkpt>
      <trkpt lat="40.4074" lon="-1.92494">
        <ele>1413.6</ele>
        <time>2021-10-09 14:24:16</time>
      </trkpt>
      <trkpt lat="40.40737" lon="-1.92493">
        <ele>1413.6</ele>
        <time>2021-10-09 14:24:17</time>
      </trkpt>
      <trkpt lat="40.40734" lon="-1.9249">
        <ele>1413.6</ele>
        <time>2021-10-09 14:24:18</time>
      </trkpt>
      <trkpt lat="40.40731" lon="-1.92488">
        <ele>1413.6</ele>
        <time>2021-10-09 14:24:19</time>
      </trkpt>
      <trkpt lat="40.40728" lon="-1.92486">
        <ele>1414</ele>
        <time>2021-10-09 14:24:20</time>
      </trkpt>
      <trkpt lat="40.40725" lon="-1.92484">
        <ele>1414</ele>
        <time>2021-10-09 14:24:21</time>
      </trkpt>
      <trkpt lat="40.40722" lon="-1.92482">
        <ele>1414</ele>
        <time>2021-10-09 14:24:22</time>
      </trkpt>
      <trkpt lat="40.40718" lon="-1.9248">
        <ele>1414</ele>
        <time>2021-10-09 14:24:23</time>
      </trkpt>
      <trkpt lat="40.40715" lon="-1.92479">
        <ele>1414.2</ele>
        <time>2021-10-09 14:24:24</time>
      </trkpt>
      <trkpt lat="40.40712" lon="-1.92478">
        <ele>1414.2</ele>
        <time>2021-10-09 14:24:25</time>
      </trkpt>
      <trkpt lat="40.4071" lon="-1.92477">
        <ele>1414.2</ele>
        <time>2021-10-09 14:24:26</time>
      </trkpt>
      <trkpt lat="40.40707" lon="-1.92476">
        <ele>1414.2</ele>
        <time>2021-10-09 14:24:27</time>
      </trkpt>
      <trkpt lat="40.40705" lon="-1.92475">
        <ele>1414.2</ele>
        <time>2021-10-09 14:24:28</time>
      </trkpt>
      <trkpt lat="40.40703" lon="-1.92474">
        <ele>1414.4</ele>
        <time>2021-10-09 14:24:29</time>
      </trkpt>
      <trkpt lat="40.40701" lon="-1.92473">
        <ele>1414.4</ele>
        <time>2021-10-09 14:24:30</time>
      </trkpt>
      <trkpt lat="40.40697" lon="-1.92472">
        <ele>1414.6</ele>
        <time>2021-10-09 14:24:31</time>
      </trkpt>
      <trkpt lat="40.40694" lon="-1.92471">
        <ele>1414.6</ele>
        <time>2021-10-09 14:24:32</time>
      </trkpt>
      <trkpt lat="40.40691" lon="-1.9247">
        <ele>1414.6</ele>
        <time>2021-10-09 14:24:33</time>
      </trkpt>
      <trkpt lat="40.40689" lon="-1.9247">
        <ele>1415</ele>
        <time>2021-10-09 14:24:34</time>
      </trkpt>
      <trkpt lat="40.40687" lon="-1.92469">
        <ele>1415.2</ele>
        <time>2021-10-09 14:24:35</time>
      </trkpt>
      <trkpt lat="40.40684" lon="-1.92469">
        <ele>1415.2</ele>
        <time>2021-10-09 14:24:36</time>
      </trkpt>
      <trkpt lat="40.40682" lon="-1.92469">
        <ele>1415.4</ele>
        <time>2021-10-09 14:24:37</time>
      </trkpt>
      <trkpt lat="40.40679" lon="-1.92468">
        <ele>1415.4</ele>
        <time>2021-10-09 14:24:38</time>
      </trkpt>
      <trkpt lat="40.40677" lon="-1.92468">
        <ele>1415.8</ele>
        <time>2021-10-09 14:24:39</time>
      </trkpt>
      <trkpt lat="40.40674" lon="-1.92468">
        <ele>1415.8</ele>
        <time>2021-10-09 14:24:40</time>
      </trkpt>
      <trkpt lat="40.40671" lon="-1.92468">
        <ele>1415.8</ele>
        <time>2021-10-09 14:24:41</time>
      </trkpt>
      <trkpt lat="40.40669" lon="-1.92468">
        <ele>1416.2</ele>
        <time>2021-10-09 14:24:42</time>
      </trkpt>
      <trkpt lat="40.40668" lon="-1.92467">
        <ele>1416.2</ele>
        <time>2021-10-09 14:24:43</time>
      </trkpt>
      <trkpt lat="40.40666" lon="-1.92467">
        <ele>1416.4</ele>
        <time>2021-10-09 14:24:44</time>
      </trkpt>
      <trkpt lat="40.40664" lon="-1.92468">
        <ele>1416.4</ele>
        <time>2021-10-09 14:24:45</time>
      </trkpt>
      <trkpt lat="40.40661" lon="-1.92468">
        <ele>1416.6</ele>
        <time>2021-10-09 14:24:46</time>
      </trkpt>
      <trkpt lat="40.40659" lon="-1.92468">
        <ele>1416.6</ele>
        <time>2021-10-09 14:24:47</time>
      </trkpt>
      <trkpt lat="40.40657" lon="-1.92468">
        <ele>1417</ele>
        <time>2021-10-09 14:24:48</time>
      </trkpt>
      <trkpt lat="40.40654" lon="-1.92468">
        <ele>1417.2</ele>
        <time>2021-10-09 14:24:49</time>
      </trkpt>
      <trkpt lat="40.40652" lon="-1.92469">
        <ele>1417.2</ele>
        <time>2021-10-09 14:24:50</time>
      </trkpt>
      <trkpt lat="40.4065" lon="-1.9247">
        <ele>1417.6</ele>
        <time>2021-10-09 14:24:51</time>
      </trkpt>
      <trkpt lat="40.40648" lon="-1.92471">
        <ele>1417.6</ele>
        <time>2021-10-09 14:24:52</time>
      </trkpt>
      <trkpt lat="40.40647" lon="-1.92472">
        <ele>1417.8</ele>
        <time>2021-10-09 14:24:53</time>
      </trkpt>
      <trkpt lat="40.40645" lon="-1.92473">
        <ele>1418.2</ele>
        <time>2021-10-09 14:24:54</time>
      </trkpt>
      <trkpt lat="40.40643" lon="-1.92474">
        <ele>1418.2</ele>
        <time>2021-10-09 14:24:55</time>
      </trkpt>
      <trkpt lat="40.4064" lon="-1.92475">
        <ele>1418.6</ele>
        <time>2021-10-09 14:24:56</time>
      </trkpt>
      <trkpt lat="40.40638" lon="-1.92476">
        <ele>1418.6</ele>
        <time>2021-10-09 14:24:57</time>
      </trkpt>
      <trkpt lat="40.40636" lon="-1.92477">
        <ele>1418.8</ele>
        <time>2021-10-09 14:24:58</time>
      </trkpt>
      <trkpt lat="40.40634" lon="-1.92477">
        <ele>1418.8</ele>
        <time>2021-10-09 14:24:59</time>
      </trkpt>
      <trkpt lat="40.40633" lon="-1.92478">
        <ele>1418.8</ele>
        <time>2021-10-09 14:25:00</time>
      </trkpt>
      <trkpt lat="40.40632" lon="-1.92478">
        <ele>1419</ele>
        <time>2021-10-09 14:25:01</time>
      </trkpt>
      <trkpt lat="40.4063" lon="-1.92479">
        <ele>1419</ele>
        <time>2021-10-09 14:25:02</time>
      </trkpt>
      <trkpt lat="40.40627" lon="-1.9248">
        <ele>1419.4</ele>
        <time>2021-10-09 14:25:03</time>
      </trkpt>
      <trkpt lat="40.40625" lon="-1.92481">
        <ele>1419.4</ele>
        <time>2021-10-09 14:25:04</time>
      </trkpt>
      <trkpt lat="40.40624" lon="-1.92482">
        <ele>1419.6</ele>
        <time>2021-10-09 14:25:05</time>
      </trkpt>
      <trkpt lat="40.40622" lon="-1.92483">
        <ele>1419.6</ele>
        <time>2021-10-09 14:25:06</time>
      </trkpt>
      <trkpt lat="40.40619" lon="-1.92485">
        <ele>1420</ele>
        <time>2021-10-09 14:25:07</time>
      </trkpt>
      <trkpt lat="40.40618" lon="-1.92487">
        <ele>1420</ele>
        <time>2021-10-09 14:25:08</time>
      </trkpt>
      <trkpt lat="40.40616" lon="-1.92489">
        <ele>1420.4</ele>
        <time>2021-10-09 14:25:09</time>
      </trkpt>
      <trkpt lat="40.40614" lon="-1.9249">
        <ele>1420.4</ele>
        <time>2021-10-09 14:25:10</time>
      </trkpt>
      <trkpt lat="40.40611" lon="-1.92492">
        <ele>1420.6</ele>
        <time>2021-10-09 14:25:11</time>
      </trkpt>
      <trkpt lat="40.40609" lon="-1.92493">
        <ele>1420.6</ele>
        <time>2021-10-09 14:25:12</time>
      </trkpt>
      <trkpt lat="40.40608" lon="-1.92495">
        <ele>1421</ele>
        <time>2021-10-09 14:25:13</time>
      </trkpt>
      <trkpt lat="40.40607" lon="-1.92496">
        <ele>1421.2</ele>
        <time>2021-10-09 14:25:14</time>
      </trkpt>
      <trkpt lat="40.40606" lon="-1.92496">
        <ele>1421.4</ele>
        <time>2021-10-09 14:25:15</time>
      </trkpt>
      <trkpt lat="40.40604" lon="-1.92497">
        <ele>1421.4</ele>
        <time>2021-10-09 14:25:16</time>
      </trkpt>
      <trkpt lat="40.40602" lon="-1.92499">
        <ele>1421.8</ele>
        <time>2021-10-09 14:25:17</time>
      </trkpt>
      <trkpt lat="40.40601" lon="-1.92501">
        <ele>1421.8</ele>
        <time>2021-10-09 14:25:18</time>
      </trkpt>
      <trkpt lat="40.406" lon="-1.92503">
        <ele>1422</ele>
        <time>2021-10-09 14:25:19</time>
      </trkpt>
      <trkpt lat="40.40598" lon="-1.92504">
        <ele>1422.2</ele>
        <time>2021-10-09 14:25:20</time>
      </trkpt>
      <trkpt lat="40.40596" lon="-1.92505">
        <ele>1422.6</ele>
        <time>2021-10-09 14:25:21</time>
      </trkpt>
      <trkpt lat="40.40594" lon="-1.92506">
        <ele>1422.8</ele>
        <time>2021-10-09 14:25:22</time>
      </trkpt>
      <trkpt lat="40.40591" lon="-1.92507">
        <ele>1422.8</ele>
        <time>2021-10-09 14:25:23</time>
      </trkpt>
      <trkpt lat="40.40589" lon="-1.92507">
        <ele>1422.8</ele>
        <time>2021-10-09 14:25:24</time>
      </trkpt>
      <trkpt lat="40.40586" lon="-1.92507">
        <ele>1423</ele>
        <time>2021-10-09 14:25:25</time>
      </trkpt>
      <trkpt lat="40.40584" lon="-1.92506">
        <ele>1423</ele>
        <time>2021-10-09 14:25:26</time>
      </trkpt>
      <trkpt lat="40.40581" lon="-1.92505">
        <ele>1423</ele>
        <time>2021-10-09 14:25:27</time>
      </trkpt>
      <trkpt lat="40.40579" lon="-1.92504">
        <ele>1423</ele>
        <time>2021-10-09 14:25:28</time>
      </trkpt>
      <trkpt lat="40.40576" lon="-1.92502">
        <ele>1423.4</ele>
        <time>2021-10-09 14:25:29</time>
      </trkpt>
      <trkpt lat="40.40574" lon="-1.92501">
        <ele>1423.4</ele>
        <time>2021-10-09 14:25:30</time>
      </trkpt>
      <trkpt lat="40.40571" lon="-1.925">
        <ele>1423.6</ele>
        <time>2021-10-09 14:25:31</time>
      </trkpt>
      <trkpt lat="40.40569" lon="-1.92499">
        <ele>1423.6</ele>
        <time>2021-10-09 14:25:32</time>
      </trkpt>
      <trkpt lat="40.40567" lon="-1.92498">
        <ele>1424</ele>
        <time>2021-10-09 14:25:33</time>
      </trkpt>
      <trkpt lat="40.40565" lon="-1.92497">
        <ele>1424</ele>
        <time>2021-10-09 14:25:34</time>
      </trkpt>
      <trkpt lat="40.40564" lon="-1.92496">
        <ele>1424</ele>
        <time>2021-10-09 14:25:35</time>
      </trkpt>
      <trkpt lat="40.40563" lon="-1.92494">
        <ele>1424</ele>
        <time>2021-10-09 14:25:36</time>
      </trkpt>
      <trkpt lat="40.4056" lon="-1.92491">
        <ele>1423.8</ele>
        <time>2021-10-09 14:25:37</time>
      </trkpt>
      <trkpt lat="40.40556" lon="-1.92488">
        <ele>1423.8</ele>
        <time>2021-10-09 14:25:38</time>
      </trkpt>
      <trkpt lat="40.40549" lon="-1.92485">
        <ele>1423.8</ele>
        <time>2021-10-09 14:25:39</time>
      </trkpt>
      <trkpt lat="40.40545" lon="-1.92483">
        <ele>1423.6</ele>
        <time>2021-10-09 14:25:40</time>
      </trkpt>
      <trkpt lat="40.40541" lon="-1.92478">
        <ele>1423.4</ele>
        <time>2021-10-09 14:25:41</time>
      </trkpt>
      <trkpt lat="40.40537" lon="-1.92475">
        <ele>1423.4</ele>
        <time>2021-10-09 14:25:42</time>
      </trkpt>
      <trkpt lat="40.40532" lon="-1.92471">
        <ele>1422.8</ele>
        <time>2021-10-09 14:25:43</time>
      </trkpt>
      <trkpt lat="40.40527" lon="-1.92468">
        <ele>1422.4</ele>
        <time>2021-10-09 14:25:44</time>
      </trkpt>
      <trkpt lat="40.40521" lon="-1.92462">
        <ele>1422</ele>
        <time>2021-10-09 14:25:45</time>
      </trkpt>
      <trkpt lat="40.40516" lon="-1.92458">
        <ele>1421.6</ele>
        <time>2021-10-09 14:25:46</time>
      </trkpt>
      <trkpt lat="40.4051" lon="-1.92453">
        <ele>1421.6</ele>
        <time>2021-10-09 14:25:47</time>
      </trkpt>
      <trkpt lat="40.40503" lon="-1.92447">
        <ele>1420.4</ele>
        <time>2021-10-09 14:25:48</time>
      </trkpt>
      <trkpt lat="40.40497" lon="-1.9244">
        <ele>1419</ele>
        <time>2021-10-09 14:25:49</time>
      </trkpt>
      <trkpt lat="40.40491" lon="-1.92433">
        <ele>1418</ele>
        <time>2021-10-09 14:25:50</time>
      </trkpt>
      <trkpt lat="40.40484" lon="-1.92427">
        <ele>1417.4</ele>
        <time>2021-10-09 14:25:51</time>
      </trkpt>
      <trkpt lat="40.40477" lon="-1.92418">
        <ele>1416.8</ele>
        <time>2021-10-09 14:25:52</time>
      </trkpt>
      <trkpt lat="40.40471" lon="-1.92409">
        <ele>1416</ele>
        <time>2021-10-09 14:25:53</time>
      </trkpt>
      <trkpt lat="40.40466" lon="-1.92401">
        <ele>1415.4</ele>
        <time>2021-10-09 14:25:54</time>
      </trkpt>
      <trkpt lat="40.4046" lon="-1.92392">
        <ele>1416</ele>
        <time>2021-10-09 14:25:55</time>
      </trkpt>
      <trkpt lat="40.40455" lon="-1.92384">
        <ele>1415.4</ele>
        <time>2021-10-09 14:25:56</time>
      </trkpt>
      <trkpt lat="40.4045" lon="-1.92375">
        <ele>1415.4</ele>
        <time>2021-10-09 14:25:57</time>
      </trkpt>
      <trkpt lat="40.40446" lon="-1.92368">
        <ele>1415</ele>
        <time>2021-10-09 14:25:58</time>
      </trkpt>
      <trkpt lat="40.40443" lon="-1.92362">
        <ele>1415</ele>
        <time>2021-10-09 14:25:59</time>
      </trkpt>
      <trkpt lat="40.40439" lon="-1.92356">
        <ele>1414.6</ele>
        <time>2021-10-09 14:26:00</time>
      </trkpt>
      <trkpt lat="40.40435" lon="-1.92352">
        <ele>1414.6</ele>
        <time>2021-10-09 14:26:01</time>
      </trkpt>
      <trkpt lat="40.40431" lon="-1.92349">
        <ele>1414.6</ele>
        <time>2021-10-09 14:26:02</time>
      </trkpt>
      <trkpt lat="40.40428" lon="-1.92346">
        <ele>1414.6</ele>
        <time>2021-10-09 14:26:03</time>
      </trkpt>
      <trkpt lat="40.40424" lon="-1.92342">
        <ele>1414.6</ele>
        <time>2021-10-09 14:26:04</time>
      </trkpt>
      <trkpt lat="40.4042" lon="-1.92339">
        <ele>1414.8</ele>
        <time>2021-10-09 14:26:05</time>
      </trkpt>
      <trkpt lat="40.40415" lon="-1.92337">
        <ele>1415.2</ele>
        <time>2021-10-09 14:26:06</time>
      </trkpt>
      <trkpt lat="40.40412" lon="-1.92333">
        <ele>1415.2</ele>
        <time>2021-10-09 14:26:07</time>
      </trkpt>
      <trkpt lat="40.4041" lon="-1.9233">
        <ele>1415.8</ele>
        <time>2021-10-09 14:26:08</time>
      </trkpt>
      <trkpt lat="40.40407" lon="-1.92326">
        <ele>1415.8</ele>
        <time>2021-10-09 14:26:09</time>
      </trkpt>
      <trkpt lat="40.40402" lon="-1.92324">
        <ele>1416.2</ele>
        <time>2021-10-09 14:26:10</time>
      </trkpt>
      <trkpt lat="40.40399" lon="-1.92319">
        <ele>1416.4</ele>
        <time>2021-10-09 14:26:11</time>
      </trkpt>
      <trkpt lat="40.40394" lon="-1.92315">
        <ele>1416.4</ele>
        <time>2021-10-09 14:26:12</time>
      </trkpt>
      <trkpt lat="40.4039" lon="-1.92311">
        <ele>1416.4</ele>
        <time>2021-10-09 14:26:13</time>
      </trkpt>
      <trkpt lat="40.40385" lon="-1.92308">
        <ele>1416.4</ele>
        <time>2021-10-09 14:26:14</time>
      </trkpt>
      <trkpt lat="40.40381" lon="-1.92303">
        <ele>1416.4</ele>
        <time>2021-10-09 14:26:15</time>
      </trkpt>
      <trkpt lat="40.40376" lon="-1.92299">
        <ele>1416.4</ele>
        <time>2021-10-09 14:26:16</time>
      </trkpt>
      <trkpt lat="40.40372" lon="-1.92295">
        <ele>1416.4</ele>
        <time>2021-10-09 14:26:17</time>
      </trkpt>
      <trkpt lat="40.40368" lon="-1.9229">
        <ele>1416</ele>
        <time>2021-10-09 14:26:18</time>
      </trkpt>
      <trkpt lat="40.40368" lon="-1.9229">
        <ele>1415.8</ele>
        <time>2021-10-09 14:26:19</time>
      </trkpt>
      <trkpt lat="40.40356" lon="-1.92278">
        <ele>1415.8</ele>
        <time>2021-10-09 14:26:20</time>
      </trkpt>
      <trkpt lat="40.40354" lon="-1.92276">
        <ele>1415.8</ele>
        <time>2021-10-09 14:26:21</time>
      </trkpt>
      <trkpt lat="40.40353" lon="-1.92274">
        <ele>1415.6</ele>
        <time>2021-10-09 14:26:22</time>
      </trkpt>
      <trkpt lat="40.40354" lon="-1.92273">
        <ele>1415.6</ele>
        <time>2021-10-09 14:26:23</time>
      </trkpt>
      <trkpt lat="40.40355" lon="-1.9227">
        <ele>1416</ele>
        <time>2021-10-09 14:26:24</time>
      </trkpt>
      <trkpt lat="40.40355" lon="-1.92269">
        <ele>1416.2</ele>
        <time>2021-10-09 14:26:25</time>
      </trkpt>
      <trkpt lat="40.40354" lon="-1.92267">
        <ele>1416.4</ele>
        <time>2021-10-09 14:26:26</time>
      </trkpt>
      <trkpt lat="40.40354" lon="-1.92267">
        <ele>1416.4</ele>
        <time>2021-10-09 14:26:27</time>
      </trkpt>
      <trkpt lat="40.40355" lon="-1.92267">
        <ele>1416.6</ele>
        <time>2021-10-09 14:26:28</time>
      </trkpt>
      <trkpt lat="40.40355" lon="-1.92266">
        <ele>1416.6</ele>
        <time>2021-10-09 14:26:29</time>
      </trkpt>
      <trkpt lat="40.40354" lon="-1.92265">
        <ele>1417</ele>
        <time>2021-10-09 14:26:30</time>
      </trkpt>
      <trkpt lat="40.40354" lon="-1.92264">
        <ele>1417</ele>
        <time>2021-10-09 14:26:31</time>
      </trkpt>
      <trkpt lat="40.40354" lon="-1.92264">
        <ele>1417</ele>
        <time>2021-10-09 14:26:32</time>
      </trkpt>
      <trkpt lat="40.40354" lon="-1.92263">
        <ele>1417</ele>
        <time>2021-10-09 14:26:33</time>
      </trkpt>
      <trkpt lat="40.40353" lon="-1.92263">
        <ele>1417</ele>
        <time>2021-10-09 14:26:34</time>
      </trkpt>
      <trkpt lat="40.40351" lon="-1.92263">
        <ele>1417</ele>
        <time>2021-10-09 14:26:35</time>
      </trkpt>
      <trkpt lat="40.4035" lon="-1.92263">
        <ele>1417</ele>
        <time>2021-10-09 14:26:36</time>
      </trkpt>
      <trkpt lat="40.4035" lon="-1.92265">
        <ele>1417</ele>
        <time>2021-10-09 14:26:37</time>
      </trkpt>
      <trkpt lat="40.40349" lon="-1.92267">
        <ele>1417</ele>
        <time>2021-10-09 14:26:38</time>
      </trkpt>
      <trkpt lat="40.40349" lon="-1.92269">
        <ele>1417</ele>
        <time>2021-10-09 14:26:39</time>
      </trkpt>
      <trkpt lat="40.40348" lon="-1.92271">
        <ele>1417.2</ele>
        <time>2021-10-09 14:26:40</time>
      </trkpt>
      <trkpt lat="40.40347" lon="-1.92274">
        <ele>1417.2</ele>
        <time>2021-10-09 14:26:41</time>
      </trkpt>
      <trkpt lat="40.40345" lon="-1.92276">
        <ele>1417.2</ele>
        <time>2021-10-09 14:26:42</time>
      </trkpt>
      <trkpt lat="40.40343" lon="-1.92278">
        <ele>1417.2</ele>
        <time>2021-10-09 14:26:43</time>
      </trkpt>
      <trkpt lat="40.40341" lon="-1.92281">
        <ele>1417.6</ele>
        <time>2021-10-09 14:26:44</time>
      </trkpt>
      <trkpt lat="40.40339" lon="-1.92284">
        <ele>1417.6</ele>
        <time>2021-10-09 14:26:45</time>
      </trkpt>
      <trkpt lat="40.40337" lon="-1.92287">
        <ele>1417.6</ele>
        <time>2021-10-09 14:26:46</time>
      </trkpt>
      <trkpt lat="40.40335" lon="-1.9229">
        <ele>1417.6</ele>
        <time>2021-10-09 14:26:47</time>
      </trkpt>
      <trkpt lat="40.40334" lon="-1.92294">
        <ele>1417.6</ele>
        <time>2021-10-09 14:26:48</time>
      </trkpt>
      <trkpt lat="40.40332" lon="-1.92297">
        <ele>1417.8</ele>
        <time>2021-10-09 14:26:49</time>
      </trkpt>
      <trkpt lat="40.4033" lon="-1.92301">
        <ele>1417.8</ele>
        <time>2021-10-09 14:26:50</time>
      </trkpt>
      <trkpt lat="40.40327" lon="-1.92304">
        <ele>1417.8</ele>
        <time>2021-10-09 14:26:51</time>
      </trkpt>
      <trkpt lat="40.40325" lon="-1.92307">
        <ele>1417.8</ele>
        <time>2021-10-09 14:26:52</time>
      </trkpt>
      <trkpt lat="40.40323" lon="-1.9231">
        <ele>1417.8</ele>
        <time>2021-10-09 14:26:53</time>
      </trkpt>
      <trkpt lat="40.40321" lon="-1.92313">
        <ele>1417.8</ele>
        <time>2021-10-09 14:26:54</time>
      </trkpt>
      <trkpt lat="40.4032" lon="-1.92316">
        <ele>1417.8</ele>
        <time>2021-10-09 14:26:55</time>
      </trkpt>
      <trkpt lat="40.40317" lon="-1.92319">
        <ele>1417.8</ele>
        <time>2021-10-09 14:26:56</time>
      </trkpt>
      <trkpt lat="40.40315" lon="-1.92321">
        <ele>1418</ele>
        <time>2021-10-09 14:26:57</time>
      </trkpt>
      <trkpt lat="40.40312" lon="-1.92323">
        <ele>1418</ele>
        <time>2021-10-09 14:26:58</time>
      </trkpt>
      <trkpt lat="40.40309" lon="-1.92324">
        <ele>1418</ele>
        <time>2021-10-09 14:26:59</time>
      </trkpt>
      <trkpt lat="40.40306" lon="-1.92325">
        <ele>1418</ele>
        <time>2021-10-09 14:27:00</time>
      </trkpt>
      <trkpt lat="40.40303" lon="-1.92325">
        <ele>1418</ele>
        <time>2021-10-09 14:27:01</time>
      </trkpt>
      <trkpt lat="40.40301" lon="-1.92324">
        <ele>1418</ele>
        <time>2021-10-09 14:27:02</time>
      </trkpt>
      <trkpt lat="40.40298" lon="-1.92322">
        <ele>1418.4</ele>
        <time>2021-10-09 14:27:03</time>
      </trkpt>
      <trkpt lat="40.40296" lon="-1.9232">
        <ele>1418.4</ele>
        <time>2021-10-09 14:27:04</time>
      </trkpt>
      <trkpt lat="40.40293" lon="-1.92317">
        <ele>1418.4</ele>
        <time>2021-10-09 14:27:05</time>
      </trkpt>
      <trkpt lat="40.4029" lon="-1.92315">
        <ele>1418.4</ele>
        <time>2021-10-09 14:27:06</time>
      </trkpt>
      <trkpt lat="40.40287" lon="-1.92313">
        <ele>1418.4</ele>
        <time>2021-10-09 14:27:07</time>
      </trkpt>
      <trkpt lat="40.40285" lon="-1.92311">
        <ele>1418.6</ele>
        <time>2021-10-09 14:27:08</time>
      </trkpt>
      <trkpt lat="40.40282" lon="-1.9231">
        <ele>1418.6</ele>
        <time>2021-10-09 14:27:09</time>
      </trkpt>
      <trkpt lat="40.4028" lon="-1.9231">
        <ele>1417.4</ele>
        <time>2021-10-09 14:27:10</time>
      </trkpt>
      <trkpt lat="40.4028" lon="-1.9231">
        <ele>1418.4</ele>
        <time>2021-10-09 14:27:11</time>
      </trkpt>
      <trkpt lat="40.40272" lon="-1.92307">
        <ele>1420.2</ele>
        <time>2021-10-09 14:27:12</time>
      </trkpt>
      <trkpt lat="40.40269" lon="-1.92307">
        <ele>1420.2</ele>
        <time>2021-10-09 14:27:13</time>
      </trkpt>
      <trkpt lat="40.40265" lon="-1.92306">
        <ele>1420.2</ele>
        <time>2021-10-09 14:27:14</time>
      </trkpt>
      <trkpt lat="40.40262" lon="-1.92305">
        <ele>1420.4</ele>
        <time>2021-10-09 14:27:15</time>
      </trkpt>
      <trkpt lat="40.40259" lon="-1.92304">
        <ele>1420.4</ele>
        <time>2021-10-09 14:27:16</time>
      </trkpt>
      <trkpt lat="40.40256" lon="-1.92304">
        <ele>1420.8</ele>
        <time>2021-10-09 14:27:17</time>
      </trkpt>
      <trkpt lat="40.40253" lon="-1.92304">
        <ele>1420.8</ele>
        <time>2021-10-09 14:27:18</time>
      </trkpt>
      <trkpt lat="40.4025" lon="-1.92303">
        <ele>1421</ele>
        <time>2021-10-09 14:27:19</time>
      </trkpt>
      <trkpt lat="40.40247" lon="-1.92302">
        <ele>1421</ele>
        <time>2021-10-09 14:27:20</time>
      </trkpt>
      <trkpt lat="40.40244" lon="-1.92301">
        <ele>1421.2</ele>
        <time>2021-10-09 14:27:21</time>
      </trkpt>
      <trkpt lat="40.40241" lon="-1.923">
        <ele>1421.6</ele>
        <time>2021-10-09 14:27:22</time>
      </trkpt>
      <trkpt lat="40.40238" lon="-1.92299">
        <ele>1422.2</ele>
        <time>2021-10-09 14:27:23</time>
      </trkpt>
      <trkpt lat="40.40236" lon="-1.92298">
        <ele>1422.2</ele>
        <time>2021-10-09 14:27:24</time>
      </trkpt>
      <trkpt lat="40.40234" lon="-1.92297">
        <ele>1422.6</ele>
        <time>2021-10-09 14:27:25</time>
      </trkpt>
      <trkpt lat="40.40232" lon="-1.92297">
        <ele>1422.6</ele>
        <time>2021-10-09 14:27:26</time>
      </trkpt>
      <trkpt lat="40.4023" lon="-1.92297">
        <ele>1422.6</ele>
        <time>2021-10-09 14:27:27</time>
      </trkpt>
      <trkpt lat="40.40227" lon="-1.92297">
        <ele>1422.6</ele>
        <time>2021-10-09 14:27:28</time>
      </trkpt>
      <trkpt lat="40.40224" lon="-1.92296">
        <ele>1422.6</ele>
        <time>2021-10-09 14:27:29</time>
      </trkpt>
      <trkpt lat="40.40222" lon="-1.92296">
        <ele>1422.6</ele>
        <time>2021-10-09 14:27:30</time>
      </trkpt>
      <trkpt lat="40.40219" lon="-1.92295">
        <ele>1422.6</ele>
        <time>2021-10-09 14:27:31</time>
      </trkpt>
      <trkpt lat="40.40216" lon="-1.92294">
        <ele>1422.8</ele>
        <time>2021-10-09 14:27:32</time>
      </trkpt>
      <trkpt lat="40.40213" lon="-1.92293">
        <ele>1422.8</ele>
        <time>2021-10-09 14:27:33</time>
      </trkpt>
      <trkpt lat="40.4021" lon="-1.92292">
        <ele>1423</ele>
        <time>2021-10-09 14:27:34</time>
      </trkpt>
      <trkpt lat="40.40207" lon="-1.92291">
        <ele>1423</ele>
        <time>2021-10-09 14:27:35</time>
      </trkpt>
      <trkpt lat="40.40204" lon="-1.9229">
        <ele>1423.2</ele>
        <time>2021-10-09 14:27:36</time>
      </trkpt>
      <trkpt lat="40.40201" lon="-1.92289">
        <ele>1423.2</ele>
        <time>2021-10-09 14:27:37</time>
      </trkpt>
      <trkpt lat="40.40198" lon="-1.92289">
        <ele>1423.2</ele>
        <time>2021-10-09 14:27:38</time>
      </trkpt>
      <trkpt lat="40.40195" lon="-1.92287">
        <ele>1423.6</ele>
        <time>2021-10-09 14:27:39</time>
      </trkpt>
      <trkpt lat="40.40192" lon="-1.92286">
        <ele>1423.6</ele>
        <time>2021-10-09 14:27:40</time>
      </trkpt>
      <trkpt lat="40.40189" lon="-1.92285">
        <ele>1423.8</ele>
        <time>2021-10-09 14:27:41</time>
      </trkpt>
      <trkpt lat="40.40186" lon="-1.92284">
        <ele>1423.8</ele>
        <time>2021-10-09 14:27:42</time>
      </trkpt>
      <trkpt lat="40.40183" lon="-1.92283">
        <ele>1424</ele>
        <time>2021-10-09 14:27:43</time>
      </trkpt>
      <trkpt lat="40.4018" lon="-1.92281">
        <ele>1424</ele>
        <time>2021-10-09 14:27:44</time>
      </trkpt>
      <trkpt lat="40.40176" lon="-1.92279">
        <ele>1424</ele>
        <time>2021-10-09 14:27:45</time>
      </trkpt>
      <trkpt lat="40.40173" lon="-1.92278">
        <ele>1424.2</ele>
        <time>2021-10-09 14:27:46</time>
      </trkpt>
      <trkpt lat="40.4017" lon="-1.92276">
        <ele>1424.2</ele>
        <time>2021-10-09 14:27:47</time>
      </trkpt>
      <trkpt lat="40.40166" lon="-1.92274">
        <ele>1424.6</ele>
        <time>2021-10-09 14:27:48</time>
      </trkpt>
      <trkpt lat="40.40163" lon="-1.92272">
        <ele>1424.6</ele>
        <time>2021-10-09 14:27:49</time>
      </trkpt>
      <trkpt lat="40.40159" lon="-1.92271">
        <ele>1424.8</ele>
        <time>2021-10-09 14:27:50</time>
      </trkpt>
      <trkpt lat="40.40155" lon="-1.92269">
        <ele>1424.8</ele>
        <time>2021-10-09 14:27:51</time>
      </trkpt>
      <trkpt lat="40.40151" lon="-1.92268">
        <ele>1425</ele>
        <time>2021-10-09 14:27:52</time>
      </trkpt>
      <trkpt lat="40.40148" lon="-1.92268">
        <ele>1425</ele>
        <time>2021-10-09 14:27:53</time>
      </trkpt>
      <trkpt lat="40.40144" lon="-1.92267">
        <ele>1425</ele>
        <time>2021-10-09 14:27:54</time>
      </trkpt>
      <trkpt lat="40.4014" lon="-1.92266">
        <ele>1425</ele>
        <time>2021-10-09 14:27:55</time>
      </trkpt>
      <trkpt lat="40.40137" lon="-1.92265">
        <ele>1425</ele>
        <time>2021-10-09 14:27:56</time>
      </trkpt>
      <trkpt lat="40.40133" lon="-1.92265">
        <ele>1425.2</ele>
        <time>2021-10-09 14:27:57</time>
      </trkpt>
      <trkpt lat="40.4013" lon="-1.92266">
        <ele>1425.2</ele>
        <time>2021-10-09 14:27:58</time>
      </trkpt>
      <trkpt lat="40.40126" lon="-1.92266">
        <ele>1425.2</ele>
        <time>2021-10-09 14:27:59</time>
      </trkpt>
      <trkpt lat="40.40122" lon="-1.92267">
        <ele>1425.4</ele>
        <time>2021-10-09 14:28:00</time>
      </trkpt>
      <trkpt lat="40.40119" lon="-1.92269">
        <ele>1425.4</ele>
        <time>2021-10-09 14:28:01</time>
      </trkpt>
      <trkpt lat="40.40115" lon="-1.9227">
        <ele>1425.4</ele>
        <time>2021-10-09 14:28:02</time>
      </trkpt>
      <trkpt lat="40.40112" lon="-1.92272">
        <ele>1425.8</ele>
        <time>2021-10-09 14:28:03</time>
      </trkpt>
      <trkpt lat="40.40109" lon="-1.92274">
        <ele>1425.8</ele>
        <time>2021-10-09 14:28:04</time>
      </trkpt>
      <trkpt lat="40.40106" lon="-1.92276">
        <ele>1426</ele>
        <time>2021-10-09 14:28:05</time>
      </trkpt>
      <trkpt lat="40.40103" lon="-1.92278">
        <ele>1426</ele>
        <time>2021-10-09 14:28:06</time>
      </trkpt>
      <trkpt lat="40.401" lon="-1.9228">
        <ele>1426</ele>
        <time>2021-10-09 14:28:07</time>
      </trkpt>
      <trkpt lat="40.40097" lon="-1.92281">
        <ele>1426.2</ele>
        <time>2021-10-09 14:28:08</time>
      </trkpt>
      <trkpt lat="40.40094" lon="-1.92282">
        <ele>1426.2</ele>
        <time>2021-10-09 14:28:09</time>
      </trkpt>
      <trkpt lat="40.40091" lon="-1.92282">
        <ele>1426.6</ele>
        <time>2021-10-09 14:28:10</time>
      </trkpt>
      <trkpt lat="40.40088" lon="-1.92282">
        <ele>1426.6</ele>
        <time>2021-10-09 14:28:11</time>
      </trkpt>
      <trkpt lat="40.40085" lon="-1.92282">
        <ele>1426.8</ele>
        <time>2021-10-09 14:28:12</time>
      </trkpt>
      <trkpt lat="40.40082" lon="-1.92281">
        <ele>1426.8</ele>
        <time>2021-10-09 14:28:13</time>
      </trkpt>
      <trkpt lat="40.40079" lon="-1.9228">
        <ele>1427</ele>
        <time>2021-10-09 14:28:14</time>
      </trkpt>
      <trkpt lat="40.40077" lon="-1.92279">
        <ele>1427</ele>
        <time>2021-10-09 14:28:15</time>
      </trkpt>
      <trkpt lat="40.40074" lon="-1.92277">
        <ele>1427.6</ele>
        <time>2021-10-09 14:28:16</time>
      </trkpt>
      <trkpt lat="40.40072" lon="-1.92275">
        <ele>1427.6</ele>
        <time>2021-10-09 14:28:17</time>
      </trkpt>
      <trkpt lat="40.4007" lon="-1.92273">
        <ele>1427.8</ele>
        <time>2021-10-09 14:28:18</time>
      </trkpt>
      <trkpt lat="40.40068" lon="-1.9227">
        <ele>1427.8</ele>
        <time>2021-10-09 14:28:19</time>
      </trkpt>
      <trkpt lat="40.40067" lon="-1.92268">
        <ele>1428.2</ele>
        <time>2021-10-09 14:28:20</time>
      </trkpt>
      <trkpt lat="40.40066" lon="-1.92265">
        <ele>1428.2</ele>
        <time>2021-10-09 14:28:21</time>
      </trkpt>
      <trkpt lat="40.40064" lon="-1.92262">
        <ele>1428.6</ele>
        <time>2021-10-09 14:28:22</time>
      </trkpt>
      <trkpt lat="40.40062" lon="-1.9226">
        <ele>1428.8</ele>
        <time>2021-10-09 14:28:23</time>
      </trkpt>
      <trkpt lat="40.40061" lon="-1.92257">
        <ele>1428.8</ele>
        <time>2021-10-09 14:28:24</time>
      </trkpt>
      <trkpt lat="40.40059" lon="-1.92255">
        <ele>1429</ele>
        <time>2021-10-09 14:28:25</time>
      </trkpt>
      <trkpt lat="40.40058" lon="-1.92252">
        <ele>1429.4</ele>
        <time>2021-10-09 14:28:26</time>
      </trkpt>
      <trkpt lat="40.40056" lon="-1.92249">
        <ele>1429.4</ele>
        <time>2021-10-09 14:28:27</time>
      </trkpt>
      <trkpt lat="40.40055" lon="-1.92246">
        <ele>1429.6</ele>
        <time>2021-10-09 14:28:28</time>
      </trkpt>
      <trkpt lat="40.40054" lon="-1.92244">
        <ele>1429.6</ele>
        <time>2021-10-09 14:28:29</time>
      </trkpt>
      <trkpt lat="40.40052" lon="-1.92241">
        <ele>1430</ele>
        <time>2021-10-09 14:28:30</time>
      </trkpt>
      <trkpt lat="40.4005" lon="-1.92238">
        <ele>1430</ele>
        <time>2021-10-09 14:28:31</time>
      </trkpt>
      <trkpt lat="40.40048" lon="-1.92236">
        <ele>1430.2</ele>
        <time>2021-10-09 14:28:32</time>
      </trkpt>
      <trkpt lat="40.40047" lon="-1.92233">
        <ele>1430.2</ele>
        <time>2021-10-09 14:28:33</time>
      </trkpt>
      <trkpt lat="40.40045" lon="-1.9223">
        <ele>1430.4</ele>
        <time>2021-10-09 14:28:34</time>
      </trkpt>
      <trkpt lat="40.40044" lon="-1.92228">
        <ele>1430.8</ele>
        <time>2021-10-09 14:28:35</time>
      </trkpt>
      <trkpt lat="40.40042" lon="-1.92225">
        <ele>1430.8</ele>
        <time>2021-10-09 14:28:36</time>
      </trkpt>
      <trkpt lat="40.40041" lon="-1.92223">
        <ele>1430.8</ele>
        <time>2021-10-09 14:28:37</time>
      </trkpt>
      <trkpt lat="40.40039" lon="-1.9222">
        <ele>1431</ele>
        <time>2021-10-09 14:28:38</time>
      </trkpt>
      <trkpt lat="40.40038" lon="-1.92217">
        <ele>1431</ele>
        <time>2021-10-09 14:28:39</time>
      </trkpt>
      <trkpt lat="40.40037" lon="-1.92214">
        <ele>1431.4</ele>
        <time>2021-10-09 14:28:40</time>
      </trkpt>
      <trkpt lat="40.40035" lon="-1.92211">
        <ele>1431.4</ele>
        <time>2021-10-09 14:28:41</time>
      </trkpt>
      <trkpt lat="40.40034" lon="-1.92208">
        <ele>1431.6</ele>
        <time>2021-10-09 14:28:42</time>
      </trkpt>
      <trkpt lat="40.40032" lon="-1.92205">
        <ele>1431.6</ele>
        <time>2021-10-09 14:28:43</time>
      </trkpt>
      <trkpt lat="40.40031" lon="-1.92202">
        <ele>1431.6</ele>
        <time>2021-10-09 14:28:44</time>
      </trkpt>
      <trkpt lat="40.40029" lon="-1.92199">
        <ele>1431.8</ele>
        <time>2021-10-09 14:28:45</time>
      </trkpt>
      <trkpt lat="40.40027" lon="-1.92197">
        <ele>1431.8</ele>
        <time>2021-10-09 14:28:46</time>
      </trkpt>
      <trkpt lat="40.40026" lon="-1.92194">
        <ele>1431.8</ele>
        <time>2021-10-09 14:28:47</time>
      </trkpt>
      <trkpt lat="40.40024" lon="-1.92191">
        <ele>1432</ele>
        <time>2021-10-09 14:28:48</time>
      </trkpt>
      <trkpt lat="40.40022" lon="-1.92188">
        <ele>1432</ele>
        <time>2021-10-09 14:28:49</time>
      </trkpt>
      <trkpt lat="40.40021" lon="-1.92185">
        <ele>1432.2</ele>
        <time>2021-10-09 14:28:50</time>
      </trkpt>
      <trkpt lat="40.40019" lon="-1.92183">
        <ele>1432.2</ele>
        <time>2021-10-09 14:28:51</time>
      </trkpt>
      <trkpt lat="40.40018" lon="-1.9218">
        <ele>1432.6</ele>
        <time>2021-10-09 14:28:52</time>
      </trkpt>
      <trkpt lat="40.40016" lon="-1.92177">
        <ele>1432.6</ele>
        <time>2021-10-09 14:28:53</time>
      </trkpt>
      <trkpt lat="40.40014" lon="-1.92174">
        <ele>1432.6</ele>
        <time>2021-10-09 14:28:54</time>
      </trkpt>
      <trkpt lat="40.40012" lon="-1.92172">
        <ele>1433</ele>
        <time>2021-10-09 14:28:55</time>
      </trkpt>
      <trkpt lat="40.40011" lon="-1.92169">
        <ele>1433</ele>
        <time>2021-10-09 14:28:56</time>
      </trkpt>
      <trkpt lat="40.40009" lon="-1.92166">
        <ele>1433.2</ele>
        <time>2021-10-09 14:28:57</time>
      </trkpt>
      <trkpt lat="40.40008" lon="-1.92163">
        <ele>1433.2</ele>
        <time>2021-10-09 14:28:58</time>
      </trkpt>
      <trkpt lat="40.40007" lon="-1.9216">
        <ele>1433.6</ele>
        <time>2021-10-09 14:28:59</time>
      </trkpt>
      <trkpt lat="40.40006" lon="-1.92157">
        <ele>1433.6</ele>
        <time>2021-10-09 14:29:00</time>
      </trkpt>
      <trkpt lat="40.40004" lon="-1.92154">
        <ele>1433.8</ele>
        <time>2021-10-09 14:29:01</time>
      </trkpt>
      <trkpt lat="40.40003" lon="-1.92152">
        <ele>1433.8</ele>
        <time>2021-10-09 14:29:02</time>
      </trkpt>
      <trkpt lat="40.40001" lon="-1.92149">
        <ele>1434</ele>
        <time>2021-10-09 14:29:03</time>
      </trkpt>
      <trkpt lat="40.4" lon="-1.92146">
        <ele>1434.4</ele>
        <time>2021-10-09 14:29:04</time>
      </trkpt>
      <trkpt lat="40.39999" lon="-1.92143">
        <ele>1434.4</ele>
        <time>2021-10-09 14:29:05</time>
      </trkpt>
      <trkpt lat="40.39997" lon="-1.9214">
        <ele>1434.6</ele>
        <time>2021-10-09 14:29:06</time>
      </trkpt>
      <trkpt lat="40.39996" lon="-1.92137">
        <ele>1434.6</ele>
        <time>2021-10-09 14:29:07</time>
      </trkpt>
      <trkpt lat="40.39994" lon="-1.92134">
        <ele>1434.8</ele>
        <time>2021-10-09 14:29:08</time>
      </trkpt>
      <trkpt lat="40.39992" lon="-1.92132">
        <ele>1434.8</ele>
        <time>2021-10-09 14:29:09</time>
      </trkpt>
      <trkpt lat="40.39991" lon="-1.92129">
        <ele>1435.2</ele>
        <time>2021-10-09 14:29:10</time>
      </trkpt>
      <trkpt lat="40.39989" lon="-1.92126">
        <ele>1435.6</ele>
        <time>2021-10-09 14:29:11</time>
      </trkpt>
      <trkpt lat="40.39988" lon="-1.92123">
        <ele>1435.8</ele>
        <time>2021-10-09 14:29:12</time>
      </trkpt>
      <trkpt lat="40.39987" lon="-1.9212">
        <ele>1436</ele>
        <time>2021-10-09 14:29:13</time>
      </trkpt>
      <trkpt lat="40.39986" lon="-1.92117">
        <ele>1436.2</ele>
        <time>2021-10-09 14:29:14</time>
      </trkpt>
      <trkpt lat="40.39984" lon="-1.92114">
        <ele>1436.2</ele>
        <time>2021-10-09 14:29:15</time>
      </trkpt>
      <trkpt lat="40.39983" lon="-1.92111">
        <ele>1436.4</ele>
        <time>2021-10-09 14:29:16</time>
      </trkpt>
      <trkpt lat="40.39981" lon="-1.92108">
        <ele>1436.8</ele>
        <time>2021-10-09 14:29:17</time>
      </trkpt>
      <trkpt lat="40.3998" lon="-1.92105">
        <ele>1436.8</ele>
        <time>2021-10-09 14:29:18</time>
      </trkpt>
      <trkpt lat="40.39979" lon="-1.92103">
        <ele>1436.8</ele>
        <time>2021-10-09 14:29:19</time>
      </trkpt>
      <trkpt lat="40.39977" lon="-1.921">
        <ele>1436.8</ele>
        <time>2021-10-09 14:29:20</time>
      </trkpt>
      <trkpt lat="40.39976" lon="-1.92097">
        <ele>1436.8</ele>
        <time>2021-10-09 14:29:21</time>
      </trkpt>
      <trkpt lat="40.39974" lon="-1.92093">
        <ele>1436.8</ele>
        <time>2021-10-09 14:29:22</time>
      </trkpt>
      <trkpt lat="40.39973" lon="-1.9209">
        <ele>1437</ele>
        <time>2021-10-09 14:29:23</time>
      </trkpt>
      <trkpt lat="40.39972" lon="-1.92087">
        <ele>1437</ele>
        <time>2021-10-09 14:29:24</time>
      </trkpt>
      <trkpt lat="40.39971" lon="-1.92084">
        <ele>1437.2</ele>
        <time>2021-10-09 14:29:25</time>
      </trkpt>
      <trkpt lat="40.39969" lon="-1.92081">
        <ele>1437.2</ele>
        <time>2021-10-09 14:29:26</time>
      </trkpt>
      <trkpt lat="40.39967" lon="-1.92079">
        <ele>1437.2</ele>
        <time>2021-10-09 14:29:27</time>
      </trkpt>
      <trkpt lat="40.39966" lon="-1.92077">
        <ele>1437.6</ele>
        <time>2021-10-09 14:29:28</time>
      </trkpt>
      <trkpt lat="40.39964" lon="-1.92074">
        <ele>1437.6</ele>
        <time>2021-10-09 14:29:29</time>
      </trkpt>
      <trkpt lat="40.39963" lon="-1.9207">
        <ele>1437.6</ele>
        <time>2021-10-09 14:29:30</time>
      </trkpt>
      <trkpt lat="40.39962" lon="-1.92067">
        <ele>1437.8</ele>
        <time>2021-10-09 14:29:31</time>
      </trkpt>
      <trkpt lat="40.39961" lon="-1.92064">
        <ele>1437.8</ele>
        <time>2021-10-09 14:29:32</time>
      </trkpt>
      <trkpt lat="40.39959" lon="-1.92061">
        <ele>1438</ele>
        <time>2021-10-09 14:29:33</time>
      </trkpt>
      <trkpt lat="40.39957" lon="-1.92057">
        <ele>1438</ele>
        <time>2021-10-09 14:29:34</time>
      </trkpt>
      <trkpt lat="40.39956" lon="-1.92054">
        <ele>1438.4</ele>
        <time>2021-10-09 14:29:35</time>
      </trkpt>
      <trkpt lat="40.39954" lon="-1.92052">
        <ele>1438.4</ele>
        <time>2021-10-09 14:29:36</time>
      </trkpt>
      <trkpt lat="40.39952" lon="-1.92049">
        <ele>1438.6</ele>
        <time>2021-10-09 14:29:37</time>
      </trkpt>
      <trkpt lat="40.3995" lon="-1.92047">
        <ele>1439</ele>
        <time>2021-10-09 14:29:38</time>
      </trkpt>
      <trkpt lat="40.39948" lon="-1.92045">
        <ele>1439</ele>
        <time>2021-10-09 14:29:39</time>
      </trkpt>
      <trkpt lat="40.39946" lon="-1.92043">
        <ele>1439.2</ele>
        <time>2021-10-09 14:29:40</time>
      </trkpt>
      <trkpt lat="40.39944" lon="-1.9204">
        <ele>1439.2</ele>
        <time>2021-10-09 14:29:41</time>
      </trkpt>
      <trkpt lat="40.39942" lon="-1.92038">
        <ele>1439.4</ele>
        <time>2021-10-09 14:29:42</time>
      </trkpt>
      <trkpt lat="40.3994" lon="-1.92035">
        <ele>1439.4</ele>
        <time>2021-10-09 14:29:43</time>
      </trkpt>
      <trkpt lat="40.39938" lon="-1.92033">
        <ele>1439.4</ele>
        <time>2021-10-09 14:29:44</time>
      </trkpt>
      <trkpt lat="40.39937" lon="-1.9203">
        <ele>1439.6</ele>
        <time>2021-10-09 14:29:45</time>
      </trkpt>
      <trkpt lat="40.39935" lon="-1.92027">
        <ele>1439.6</ele>
        <time>2021-10-09 14:29:46</time>
      </trkpt>
      <trkpt lat="40.39933" lon="-1.92025">
        <ele>1439.6</ele>
        <time>2021-10-09 14:29:47</time>
      </trkpt>
      <trkpt lat="40.39932" lon="-1.92022">
        <ele>1440</ele>
        <time>2021-10-09 14:29:48</time>
      </trkpt>
      <trkpt lat="40.3993" lon="-1.9202">
        <ele>1440</ele>
        <time>2021-10-09 14:29:49</time>
      </trkpt>
      <trkpt lat="40.39928" lon="-1.92017">
        <ele>1440</ele>
        <time>2021-10-09 14:29:50</time>
      </trkpt>
      <trkpt lat="40.39926" lon="-1.92015">
        <ele>1440.2</ele>
        <time>2021-10-09 14:29:51</time>
      </trkpt>
      <trkpt lat="40.39924" lon="-1.92012">
        <ele>1440.2</ele>
        <time>2021-10-09 14:29:52</time>
      </trkpt>
      <trkpt lat="40.39923" lon="-1.92009">
        <ele>1440.4</ele>
        <time>2021-10-09 14:29:53</time>
      </trkpt>
      <trkpt lat="40.39921" lon="-1.92007">
        <ele>1440.4</ele>
        <time>2021-10-09 14:29:54</time>
      </trkpt>
      <trkpt lat="40.3992" lon="-1.92004">
        <ele>1440.6</ele>
        <time>2021-10-09 14:29:55</time>
      </trkpt>
      <trkpt lat="40.39919" lon="-1.92002">
        <ele>1440.6</ele>
        <time>2021-10-09 14:29:56</time>
      </trkpt>
      <trkpt lat="40.39917" lon="-1.92">
        <ele>1440.6</ele>
        <time>2021-10-09 14:29:57</time>
      </trkpt>
      <trkpt lat="40.39916" lon="-1.91997">
        <ele>1440.8</ele>
        <time>2021-10-09 14:29:58</time>
      </trkpt>
      <trkpt lat="40.39914" lon="-1.91994">
        <ele>1440.8</ele>
        <time>2021-10-09 14:29:59</time>
      </trkpt>
      <trkpt lat="40.39912" lon="-1.91991">
        <ele>1440.8</ele>
        <time>2021-10-09 14:30:00</time>
      </trkpt>
      <trkpt lat="40.3991" lon="-1.91989">
        <ele>1441</ele>
        <time>2021-10-09 14:30:01</time>
      </trkpt>
      <trkpt lat="40.39909" lon="-1.91986">
        <ele>1441</ele>
        <time>2021-10-09 14:30:02</time>
      </trkpt>
      <trkpt lat="40.39907" lon="-1.91984">
        <ele>1441.2</ele>
        <time>2021-10-09 14:30:03</time>
      </trkpt>
      <trkpt lat="40.39905" lon="-1.91982">
        <ele>1441.2</ele>
        <time>2021-10-09 14:30:04</time>
      </trkpt>
      <trkpt lat="40.39904" lon="-1.9198">
        <ele>1441.6</ele>
        <time>2021-10-09 14:30:05</time>
      </trkpt>
      <trkpt lat="40.39903" lon="-1.91977">
        <ele>1441.6</ele>
        <time>2021-10-09 14:30:06</time>
      </trkpt>
      <trkpt lat="40.39901" lon="-1.91975">
        <ele>1441.6</ele>
        <time>2021-10-09 14:30:07</time>
      </trkpt>
      <trkpt lat="40.39899" lon="-1.91972">
        <ele>1442</ele>
        <time>2021-10-09 14:30:08</time>
      </trkpt>
      <trkpt lat="40.39898" lon="-1.91969">
        <ele>1442</ele>
        <time>2021-10-09 14:30:09</time>
      </trkpt>
      <trkpt lat="40.39896" lon="-1.91966">
        <ele>1442.4</ele>
        <time>2021-10-09 14:30:10</time>
      </trkpt>
      <trkpt lat="40.39894" lon="-1.91963">
        <ele>1442.4</ele>
        <time>2021-10-09 14:30:11</time>
      </trkpt>
      <trkpt lat="40.39892" lon="-1.91961">
        <ele>1442.6</ele>
        <time>2021-10-09 14:30:12</time>
      </trkpt>
      <trkpt lat="40.3989" lon="-1.91959">
        <ele>1442.6</ele>
        <time>2021-10-09 14:30:13</time>
      </trkpt>
      <trkpt lat="40.39889" lon="-1.91956">
        <ele>1442.8</ele>
        <time>2021-10-09 14:30:14</time>
      </trkpt>
      <trkpt lat="40.39888" lon="-1.91953">
        <ele>1443.2</ele>
        <time>2021-10-09 14:30:15</time>
      </trkpt>
      <trkpt lat="40.39887" lon="-1.9195">
        <ele>1443.4</ele>
        <time>2021-10-09 14:30:16</time>
      </trkpt>
      <trkpt lat="40.39886" lon="-1.91947">
        <ele>1443.4</ele>
        <time>2021-10-09 14:30:17</time>
      </trkpt>
      <trkpt lat="40.39884" lon="-1.91944">
        <ele>1443.6</ele>
        <time>2021-10-09 14:30:18</time>
      </trkpt>
      <trkpt lat="40.39882" lon="-1.91941">
        <ele>1443.6</ele>
        <time>2021-10-09 14:30:19</time>
      </trkpt>
      <trkpt lat="40.3988" lon="-1.91939">
        <ele>1443.8</ele>
        <time>2021-10-09 14:30:20</time>
      </trkpt>
      <trkpt lat="40.39879" lon="-1.91936">
        <ele>1443.8</ele>
        <time>2021-10-09 14:30:21</time>
      </trkpt>
      <trkpt lat="40.39877" lon="-1.91933">
        <ele>1444</ele>
        <time>2021-10-09 14:30:22</time>
      </trkpt>
      <trkpt lat="40.39875" lon="-1.9193">
        <ele>1444</ele>
        <time>2021-10-09 14:30:23</time>
      </trkpt>
      <trkpt lat="40.39874" lon="-1.91927">
        <ele>1444.2</ele>
        <time>2021-10-09 14:30:24</time>
      </trkpt>
      <trkpt lat="40.39872" lon="-1.91924">
        <ele>1444.2</ele>
        <time>2021-10-09 14:30:25</time>
      </trkpt>
      <trkpt lat="40.3987" lon="-1.9192">
        <ele>1444.4</ele>
        <time>2021-10-09 14:30:26</time>
      </trkpt>
      <trkpt lat="40.39868" lon="-1.91917">
        <ele>1444.4</ele>
        <time>2021-10-09 14:30:27</time>
      </trkpt>
      <trkpt lat="40.39867" lon="-1.91915">
        <ele>1444.6</ele>
        <time>2021-10-09 14:30:28</time>
      </trkpt>
      <trkpt lat="40.39865" lon="-1.91912">
        <ele>1444.6</ele>
        <time>2021-10-09 14:30:29</time>
      </trkpt>
      <trkpt lat="40.39864" lon="-1.91909">
        <ele>1445</ele>
        <time>2021-10-09 14:30:30</time>
      </trkpt>
      <trkpt lat="40.39862" lon="-1.91905">
        <ele>1445</ele>
        <time>2021-10-09 14:30:31</time>
      </trkpt>
      <trkpt lat="40.3986" lon="-1.91902">
        <ele>1445</ele>
        <time>2021-10-09 14:30:32</time>
      </trkpt>
      <trkpt lat="40.39859" lon="-1.91899">
        <ele>1445.2</ele>
        <time>2021-10-09 14:30:33</time>
      </trkpt>
      <trkpt lat="40.39857" lon="-1.91896">
        <ele>1445.2</ele>
        <time>2021-10-09 14:30:34</time>
      </trkpt>
      <trkpt lat="40.39856" lon="-1.91893">
        <ele>1445.6</ele>
        <time>2021-10-09 14:30:35</time>
      </trkpt>
      <trkpt lat="40.39855" lon="-1.91889">
        <ele>1445.6</ele>
        <time>2021-10-09 14:30:36</time>
      </trkpt>
      <trkpt lat="40.39853" lon="-1.91886">
        <ele>1445.8</ele>
        <time>2021-10-09 14:30:37</time>
      </trkpt>
      <trkpt lat="40.39852" lon="-1.91883">
        <ele>1445.8</ele>
        <time>2021-10-09 14:30:38</time>
      </trkpt>
      <trkpt lat="40.3985" lon="-1.91879">
        <ele>1445.8</ele>
        <time>2021-10-09 14:30:39</time>
      </trkpt>
      <trkpt lat="40.39849" lon="-1.91876">
        <ele>1445.8</ele>
        <time>2021-10-09 14:30:40</time>
      </trkpt>
      <trkpt lat="40.39848" lon="-1.91873">
        <ele>1445.8</ele>
        <time>2021-10-09 14:30:41</time>
      </trkpt>
      <trkpt lat="40.39846" lon="-1.91869">
        <ele>1446.2</ele>
        <time>2021-10-09 14:30:42</time>
      </trkpt>
      <trkpt lat="40.39845" lon="-1.91865">
        <ele>1446.2</ele>
        <time>2021-10-09 14:30:43</time>
      </trkpt>
      <trkpt lat="40.39844" lon="-1.91861">
        <ele>1446.2</ele>
        <time>2021-10-09 14:30:44</time>
      </trkpt>
      <trkpt lat="40.39842" lon="-1.91858">
        <ele>1446.4</ele>
        <time>2021-10-09 14:30:45</time>
      </trkpt>
      <trkpt lat="40.39841" lon="-1.91855">
        <ele>1446.4</ele>
        <time>2021-10-09 14:30:46</time>
      </trkpt>
      <trkpt lat="40.3984" lon="-1.91852">
        <ele>1446.4</ele>
        <time>2021-10-09 14:30:47</time>
      </trkpt>
      <trkpt lat="40.39839" lon="-1.91848">
        <ele>1446.6</ele>
        <time>2021-10-09 14:30:48</time>
      </trkpt>
      <trkpt lat="40.39837" lon="-1.91845">
        <ele>1446.6</ele>
        <time>2021-10-09 14:30:49</time>
      </trkpt>
      <trkpt lat="40.39836" lon="-1.91842">
        <ele>1446.8</ele>
        <time>2021-10-09 14:30:50</time>
      </trkpt>
      <trkpt lat="40.39835" lon="-1.91839">
        <ele>1446.8</ele>
        <time>2021-10-09 14:30:51</time>
      </trkpt>
      <trkpt lat="40.39833" lon="-1.91836">
        <ele>1446.8</ele>
        <time>2021-10-09 14:30:52</time>
      </trkpt>
      <trkpt lat="40.39831" lon="-1.91833">
        <ele>1447.2</ele>
        <time>2021-10-09 14:30:53</time>
      </trkpt>
      <trkpt lat="40.3983" lon="-1.91829">
        <ele>1447.2</ele>
        <time>2021-10-09 14:30:54</time>
      </trkpt>
      <trkpt lat="40.39829" lon="-1.91826">
        <ele>1447.6</ele>
        <time>2021-10-09 14:30:55</time>
      </trkpt>
      <trkpt lat="40.39827" lon="-1.91824">
        <ele>1447.6</ele>
        <time>2021-10-09 14:30:56</time>
      </trkpt>
      <trkpt lat="40.39826" lon="-1.91821">
        <ele>1447.6</ele>
        <time>2021-10-09 14:30:57</time>
      </trkpt>
      <trkpt lat="40.39825" lon="-1.91818">
        <ele>1447.8</ele>
        <time>2021-10-09 14:30:58</time>
      </trkpt>
      <trkpt lat="40.39824" lon="-1.91815">
        <ele>1447.8</ele>
        <time>2021-10-09 14:30:59</time>
      </trkpt>
      <trkpt lat="40.39823" lon="-1.91812">
        <ele>1448</ele>
        <time>2021-10-09 14:31:00</time>
      </trkpt>
      <trkpt lat="40.39822" lon="-1.9181">
        <ele>1448.6</ele>
        <time>2021-10-09 14:31:01</time>
      </trkpt>
      <trkpt lat="40.3982" lon="-1.91807">
        <ele>1448.6</ele>
        <time>2021-10-09 14:31:02</time>
      </trkpt>
      <trkpt lat="40.39819" lon="-1.91803">
        <ele>1448.6</ele>
        <time>2021-10-09 14:31:03</time>
      </trkpt>
      <trkpt lat="40.39818" lon="-1.918">
        <ele>1448.6</ele>
        <time>2021-10-09 14:31:04</time>
      </trkpt>
      <trkpt lat="40.39817" lon="-1.91797">
        <ele>1448.6</ele>
        <time>2021-10-09 14:31:05</time>
      </trkpt>
      <trkpt lat="40.39815" lon="-1.91793">
        <ele>1449.2</ele>
        <time>2021-10-09 14:31:06</time>
      </trkpt>
      <trkpt lat="40.39814" lon="-1.9179">
        <ele>1449.2</ele>
        <time>2021-10-09 14:31:07</time>
      </trkpt>
      <trkpt lat="40.39812" lon="-1.91786">
        <ele>1449.2</ele>
        <time>2021-10-09 14:31:08</time>
      </trkpt>
      <trkpt lat="40.39811" lon="-1.91783">
        <ele>1449.6</ele>
        <time>2021-10-09 14:31:09</time>
      </trkpt>
      <trkpt lat="40.3981" lon="-1.91778">
        <ele>1449.6</ele>
        <time>2021-10-09 14:31:10</time>
      </trkpt>
      <trkpt lat="40.39808" lon="-1.91774">
        <ele>1449.6</ele>
        <time>2021-10-09 14:31:11</time>
      </trkpt>
      <trkpt lat="40.39807" lon="-1.91771">
        <ele>1450</ele>
        <time>2021-10-09 14:31:12</time>
      </trkpt>
      <trkpt lat="40.39806" lon="-1.91768">
        <ele>1450</ele>
        <time>2021-10-09 14:31:13</time>
      </trkpt>
      <trkpt lat="40.39804" lon="-1.91764">
        <ele>1450.2</ele>
        <time>2021-10-09 14:31:14</time>
      </trkpt>
      <trkpt lat="40.39802" lon="-1.91761">
        <ele>1450.2</ele>
        <time>2021-10-09 14:31:15</time>
      </trkpt>
      <trkpt lat="40.39801" lon="-1.91757">
        <ele>1450.6</ele>
        <time>2021-10-09 14:31:16</time>
      </trkpt>
      <trkpt lat="40.398" lon="-1.91754">
        <ele>1450.8</ele>
        <time>2021-10-09 14:31:17</time>
      </trkpt>
      <trkpt lat="40.39799" lon="-1.91751">
        <ele>1451</ele>
        <time>2021-10-09 14:31:18</time>
      </trkpt>
      <trkpt lat="40.39797" lon="-1.91748">
        <ele>1451</ele>
        <time>2021-10-09 14:31:19</time>
      </trkpt>
      <trkpt lat="40.39796" lon="-1.91745">
        <ele>1451.4</ele>
        <time>2021-10-09 14:31:20</time>
      </trkpt>
      <trkpt lat="40.39794" lon="-1.91742">
        <ele>1451.6</ele>
        <time>2021-10-09 14:31:21</time>
      </trkpt>
      <trkpt lat="40.39793" lon="-1.91739">
        <ele>1451.6</ele>
        <time>2021-10-09 14:31:22</time>
      </trkpt>
      <trkpt lat="40.39792" lon="-1.91736">
        <ele>1451.8</ele>
        <time>2021-10-09 14:31:23</time>
      </trkpt>
      <trkpt lat="40.39791" lon="-1.91732">
        <ele>1452</ele>
        <time>2021-10-09 14:31:24</time>
      </trkpt>
      <trkpt lat="40.39789" lon="-1.91728">
        <ele>1452.2</ele>
        <time>2021-10-09 14:31:25</time>
      </trkpt>
      <trkpt lat="40.39788" lon="-1.91725">
        <ele>1452.2</ele>
        <time>2021-10-09 14:31:26</time>
      </trkpt>
      <trkpt lat="40.39787" lon="-1.91722">
        <ele>1452.6</ele>
        <time>2021-10-09 14:31:27</time>
      </trkpt>
      <trkpt lat="40.39785" lon="-1.91718">
        <ele>1452.6</ele>
        <time>2021-10-09 14:31:28</time>
      </trkpt>
      <trkpt lat="40.39784" lon="-1.91714">
        <ele>1453</ele>
        <time>2021-10-09 14:31:29</time>
      </trkpt>
      <trkpt lat="40.39783" lon="-1.91711">
        <ele>1453</ele>
        <time>2021-10-09 14:31:30</time>
      </trkpt>
      <trkpt lat="40.39782" lon="-1.91708">
        <ele>1453.2</ele>
        <time>2021-10-09 14:31:31</time>
      </trkpt>
      <trkpt lat="40.3978" lon="-1.91705">
        <ele>1453.6</ele>
        <time>2021-10-09 14:31:32</time>
      </trkpt>
      <trkpt lat="40.39778" lon="-1.91701">
        <ele>1453.6</ele>
        <time>2021-10-09 14:31:33</time>
      </trkpt>
      <trkpt lat="40.39777" lon="-1.91698">
        <ele>1453.8</ele>
        <time>2021-10-09 14:31:34</time>
      </trkpt>
      <trkpt lat="40.39775" lon="-1.91694">
        <ele>1454.2</ele>
        <time>2021-10-09 14:31:35</time>
      </trkpt>
      <trkpt lat="40.39774" lon="-1.91691">
        <ele>1454.4</ele>
        <time>2021-10-09 14:31:36</time>
      </trkpt>
      <trkpt lat="40.39772" lon="-1.91688">
        <ele>1454.6</ele>
        <time>2021-10-09 14:31:37</time>
      </trkpt>
      <trkpt lat="40.39771" lon="-1.91684">
        <ele>1454.6</ele>
        <time>2021-10-09 14:31:38</time>
      </trkpt>
      <trkpt lat="40.39769" lon="-1.9168">
        <ele>1454.8</ele>
        <time>2021-10-09 14:31:39</time>
      </trkpt>
      <trkpt lat="40.39767" lon="-1.91677">
        <ele>1455.2</ele>
        <time>2021-10-09 14:31:40</time>
      </trkpt>
      <trkpt lat="40.39765" lon="-1.91673">
        <ele>1455.2</ele>
        <time>2021-10-09 14:31:41</time>
      </trkpt>
      <trkpt lat="40.39763" lon="-1.9167">
        <ele>1455.6</ele>
        <time>2021-10-09 14:31:42</time>
      </trkpt>
      <trkpt lat="40.39761" lon="-1.91667">
        <ele>1455.6</ele>
        <time>2021-10-09 14:31:43</time>
      </trkpt>
      <trkpt lat="40.3976" lon="-1.91664">
        <ele>1455.8</ele>
        <time>2021-10-09 14:31:44</time>
      </trkpt>
      <trkpt lat="40.39758" lon="-1.91662">
        <ele>1455.8</ele>
        <time>2021-10-09 14:31:45</time>
      </trkpt>
      <trkpt lat="40.39756" lon="-1.91659">
        <ele>1456.2</ele>
        <time>2021-10-09 14:31:46</time>
      </trkpt>
      <trkpt lat="40.39754" lon="-1.91657">
        <ele>1456.2</ele>
        <time>2021-10-09 14:31:47</time>
      </trkpt>
      <trkpt lat="40.39752" lon="-1.91654">
        <ele>1456.4</ele>
        <time>2021-10-09 14:31:48</time>
      </trkpt>
      <trkpt lat="40.3975" lon="-1.91652">
        <ele>1456.4</ele>
        <time>2021-10-09 14:31:49</time>
      </trkpt>
      <trkpt lat="40.39748" lon="-1.91649">
        <ele>1456.8</ele>
        <time>2021-10-09 14:31:50</time>
      </trkpt>
      <trkpt lat="40.39746" lon="-1.91646">
        <ele>1457</ele>
        <time>2021-10-09 14:31:51</time>
      </trkpt>
      <trkpt lat="40.39744" lon="-1.91642">
        <ele>1457</ele>
        <time>2021-10-09 14:31:52</time>
      </trkpt>
      <trkpt lat="40.39743" lon="-1.91639">
        <ele>1457.2</ele>
        <time>2021-10-09 14:31:53</time>
      </trkpt>
      <trkpt lat="40.3974" lon="-1.91636">
        <ele>1457.2</ele>
        <time>2021-10-09 14:31:54</time>
      </trkpt>
      <trkpt lat="40.39737" lon="-1.91634">
        <ele>1457.6</ele>
        <time>2021-10-09 14:31:55</time>
      </trkpt>
      <trkpt lat="40.39735" lon="-1.91631">
        <ele>1457.6</ele>
        <time>2021-10-09 14:31:56</time>
      </trkpt>
      <trkpt lat="40.39734" lon="-1.91628">
        <ele>1458</ele>
        <time>2021-10-09 14:31:57</time>
      </trkpt>
      <trkpt lat="40.39732" lon="-1.91626">
        <ele>1458</ele>
        <time>2021-10-09 14:31:58</time>
      </trkpt>
      <trkpt lat="40.39731" lon="-1.91623">
        <ele>1458</ele>
        <time>2021-10-09 14:31:59</time>
      </trkpt>
      <trkpt lat="40.3973" lon="-1.9162">
        <ele>1458.2</ele>
        <time>2021-10-09 14:32:00</time>
      </trkpt>
      <trkpt lat="40.39728" lon="-1.91617">
        <ele>1458.2</ele>
        <time>2021-10-09 14:32:01</time>
      </trkpt>
      <trkpt lat="40.39727" lon="-1.91615">
        <ele>1458.2</ele>
        <time>2021-10-09 14:32:02</time>
      </trkpt>
      <trkpt lat="40.39726" lon="-1.91611">
        <ele>1458.4</ele>
        <time>2021-10-09 14:32:03</time>
      </trkpt>
      <trkpt lat="40.39724" lon="-1.91609">
        <ele>1458.4</ele>
        <time>2021-10-09 14:32:04</time>
      </trkpt>
      <trkpt lat="40.39722" lon="-1.91606">
        <ele>1458.4</ele>
        <time>2021-10-09 14:32:05</time>
      </trkpt>
      <trkpt lat="40.3972" lon="-1.91604">
        <ele>1458.4</ele>
        <time>2021-10-09 14:32:06</time>
      </trkpt>
      <trkpt lat="40.39718" lon="-1.91601">
        <ele>1458.6</ele>
        <time>2021-10-09 14:32:07</time>
      </trkpt>
      <trkpt lat="40.39716" lon="-1.91598">
        <ele>1458.6</ele>
        <time>2021-10-09 14:32:08</time>
      </trkpt>
      <trkpt lat="40.39715" lon="-1.91595">
        <ele>1459</ele>
        <time>2021-10-09 14:32:09</time>
      </trkpt>
      <trkpt lat="40.39714" lon="-1.91592">
        <ele>1459</ele>
        <time>2021-10-09 14:32:10</time>
      </trkpt>
      <trkpt lat="40.39713" lon="-1.9159">
        <ele>1459.4</ele>
        <time>2021-10-09 14:32:11</time>
      </trkpt>
      <trkpt lat="40.39711" lon="-1.91587">
        <ele>1459.4</ele>
        <time>2021-10-09 14:32:12</time>
      </trkpt>
      <trkpt lat="40.39709" lon="-1.91584">
        <ele>1459.4</ele>
        <time>2021-10-09 14:32:13</time>
      </trkpt>
      <trkpt lat="40.39708" lon="-1.91582">
        <ele>1459.6</ele>
        <time>2021-10-09 14:32:14</time>
      </trkpt>
      <trkpt lat="40.39706" lon="-1.91579">
        <ele>1459.6</ele>
        <time>2021-10-09 14:32:15</time>
      </trkpt>
      <trkpt lat="40.39704" lon="-1.91576">
        <ele>1460</ele>
        <time>2021-10-09 14:32:16</time>
      </trkpt>
      <trkpt lat="40.39703" lon="-1.91573">
        <ele>1460</ele>
        <time>2021-10-09 14:32:17</time>
      </trkpt>
      <trkpt lat="40.39701" lon="-1.91571">
        <ele>1460.2</ele>
        <time>2021-10-09 14:32:18</time>
      </trkpt>
      <trkpt lat="40.39699" lon="-1.91568">
        <ele>1460.2</ele>
        <time>2021-10-09 14:32:19</time>
      </trkpt>
      <trkpt lat="40.39698" lon="-1.91566">
        <ele>1460.2</ele>
        <time>2021-10-09 14:32:20</time>
      </trkpt>
      <trkpt lat="40.39696" lon="-1.91563">
        <ele>1460.6</ele>
        <time>2021-10-09 14:32:21</time>
      </trkpt>
      <trkpt lat="40.39695" lon="-1.91561">
        <ele>1460.6</ele>
        <time>2021-10-09 14:32:22</time>
      </trkpt>
      <trkpt lat="40.39694" lon="-1.91558">
        <ele>1460.6</ele>
        <time>2021-10-09 14:32:23</time>
      </trkpt>
      <trkpt lat="40.39692" lon="-1.91555">
        <ele>1460.6</ele>
        <time>2021-10-09 14:32:24</time>
      </trkpt>
      <trkpt lat="40.39691" lon="-1.91552">
        <ele>1460.6</ele>
        <time>2021-10-09 14:32:25</time>
      </trkpt>
      <trkpt lat="40.3969" lon="-1.91549">
        <ele>1460.6</ele>
        <time>2021-10-09 14:32:26</time>
      </trkpt>
      <trkpt lat="40.39689" lon="-1.91546">
        <ele>1460.8</ele>
        <time>2021-10-09 14:32:27</time>
      </trkpt>
      <trkpt lat="40.39688" lon="-1.91544">
        <ele>1460.8</ele>
        <time>2021-10-09 14:32:28</time>
      </trkpt>
      <trkpt lat="40.39688" lon="-1.91541">
        <ele>1460.8</ele>
        <time>2021-10-09 14:32:29</time>
      </trkpt>
      <trkpt lat="40.39687" lon="-1.91538">
        <ele>1461</ele>
        <time>2021-10-09 14:32:30</time>
      </trkpt>
      <trkpt lat="40.39685" lon="-1.91534">
        <ele>1461</ele>
        <time>2021-10-09 14:32:31</time>
      </trkpt>
      <trkpt lat="40.39684" lon="-1.91531">
        <ele>1461</ele>
        <time>2021-10-09 14:32:32</time>
      </trkpt>
      <trkpt lat="40.39683" lon="-1.91526">
        <ele>1461</ele>
        <time>2021-10-09 14:32:33</time>
      </trkpt>
      <trkpt lat="40.39682" lon="-1.91522">
        <ele>1461</ele>
        <time>2021-10-09 14:32:34</time>
      </trkpt>
      <trkpt lat="40.3968" lon="-1.91516">
        <ele>1460.8</ele>
        <time>2021-10-09 14:32:35</time>
      </trkpt>
      <trkpt lat="40.3968" lon="-1.9151">
        <ele>1460.8</ele>
        <time>2021-10-09 14:32:36</time>
      </trkpt>
      <trkpt lat="40.39679" lon="-1.91503">
        <ele>1460.6</ele>
        <time>2021-10-09 14:32:37</time>
      </trkpt>
      <trkpt lat="40.39678" lon="-1.91497">
        <ele>1460.6</ele>
        <time>2021-10-09 14:32:38</time>
      </trkpt>
      <trkpt lat="40.39677" lon="-1.91489">
        <ele>1460.2</ele>
        <time>2021-10-09 14:32:39</time>
      </trkpt>
      <trkpt lat="40.39676" lon="-1.91482">
        <ele>1459.8</ele>
        <time>2021-10-09 14:32:40</time>
      </trkpt>
      <trkpt lat="40.39674" lon="-1.91473">
        <ele>1459.8</ele>
        <time>2021-10-09 14:32:41</time>
      </trkpt>
      <trkpt lat="40.39673" lon="-1.91465">
        <ele>1459.6</ele>
        <time>2021-10-09 14:32:42</time>
      </trkpt>
      <trkpt lat="40.39671" lon="-1.91456">
        <ele>1459.2</ele>
        <time>2021-10-09 14:32:43</time>
      </trkpt>
      <trkpt lat="40.3967" lon="-1.91447">
        <ele>1459</ele>
        <time>2021-10-09 14:32:44</time>
      </trkpt>
      <trkpt lat="40.39668" lon="-1.91437">
        <ele>1458.4</ele>
        <time>2021-10-09 14:32:45</time>
      </trkpt>
      <trkpt lat="40.39667" lon="-1.91428">
        <ele>1458</ele>
        <time>2021-10-09 14:32:46</time>
      </trkpt>
      <trkpt lat="40.39664" lon="-1.91418">
        <ele>1457.6</ele>
        <time>2021-10-09 14:32:47</time>
      </trkpt>
      <trkpt lat="40.39663" lon="-1.91408">
        <ele>1457</ele>
        <time>2021-10-09 14:32:48</time>
      </trkpt>
      <trkpt lat="40.39661" lon="-1.914">
        <ele>1456.4</ele>
        <time>2021-10-09 14:32:49</time>
      </trkpt>
      <trkpt lat="40.39658" lon="-1.91392">
        <ele>1455.8</ele>
        <time>2021-10-09 14:32:50</time>
      </trkpt>
      <trkpt lat="40.39653" lon="-1.91384">
        <ele>1455.4</ele>
        <time>2021-10-09 14:32:51</time>
      </trkpt>
      <trkpt lat="40.39647" lon="-1.91378">
        <ele>1455</ele>
        <time>2021-10-09 14:32:52</time>
      </trkpt>
      <trkpt lat="40.39641" lon="-1.91375">
        <ele>1454.6</ele>
        <time>2021-10-09 14:32:53</time>
      </trkpt>
      <trkpt lat="40.39635" lon="-1.9137">
        <ele>1454.4</ele>
        <time>2021-10-09 14:32:54</time>
      </trkpt>
      <trkpt lat="40.39628" lon="-1.91366">
        <ele>1454</ele>
        <time>2021-10-09 14:32:55</time>
      </trkpt>
      <trkpt lat="40.39621" lon="-1.91362">
        <ele>1453.6</ele>
        <time>2021-10-09 14:32:56</time>
      </trkpt>
      <trkpt lat="40.39615" lon="-1.91356">
        <ele>1453.2</ele>
        <time>2021-10-09 14:32:57</time>
      </trkpt>
      <trkpt lat="40.39609" lon="-1.91349">
        <ele>1453.2</ele>
        <time>2021-10-09 14:32:58</time>
      </trkpt>
      <trkpt lat="40.39604" lon="-1.9134">
        <ele>1452.6</ele>
        <time>2021-10-09 14:32:59</time>
      </trkpt>
      <trkpt lat="40.39599" lon="-1.91331">
        <ele>1452.2</ele>
        <time>2021-10-09 14:33:00</time>
      </trkpt>
      <trkpt lat="40.39595" lon="-1.91321">
        <ele>1451.8</ele>
        <time>2021-10-09 14:33:01</time>
      </trkpt>
      <trkpt lat="40.39591" lon="-1.91311">
        <ele>1451.2</ele>
        <time>2021-10-09 14:33:02</time>
      </trkpt>
      <trkpt lat="40.39586" lon="-1.913">
        <ele>1450.6</ele>
        <time>2021-10-09 14:33:03</time>
      </trkpt>
      <trkpt lat="40.39583" lon="-1.91288">
        <ele>1450.2</ele>
        <time>2021-10-09 14:33:04</time>
      </trkpt>
      <trkpt lat="40.39578" lon="-1.91278">
        <ele>1450</ele>
        <time>2021-10-09 14:33:05</time>
      </trkpt>
      <trkpt lat="40.39574" lon="-1.91267">
        <ele>1449.2</ele>
        <time>2021-10-09 14:33:06</time>
      </trkpt>
      <trkpt lat="40.39569" lon="-1.91256">
        <ele>1448.6</ele>
        <time>2021-10-09 14:33:07</time>
      </trkpt>
      <trkpt lat="40.39565" lon="-1.91246">
        <ele>1448.6</ele>
        <time>2021-10-09 14:33:08</time>
      </trkpt>
      <trkpt lat="40.3956" lon="-1.91235">
        <ele>1448.6</ele>
        <time>2021-10-09 14:33:09</time>
      </trkpt>
      <trkpt lat="40.39556" lon="-1.91224">
        <ele>1448</ele>
        <time>2021-10-09 14:33:10</time>
      </trkpt>
      <trkpt lat="40.39551" lon="-1.91216">
        <ele>1447.2</ele>
        <time>2021-10-09 14:33:11</time>
      </trkpt>
      <trkpt lat="40.39546" lon="-1.9121">
        <ele>1446.8</ele>
        <time>2021-10-09 14:33:12</time>
      </trkpt>
      <trkpt lat="40.3954" lon="-1.91205">
        <ele>1446.8</ele>
        <time>2021-10-09 14:33:13</time>
      </trkpt>
      <trkpt lat="40.39533" lon="-1.912">
        <ele>1446.6</ele>
        <time>2021-10-09 14:33:14</time>
      </trkpt>
      <trkpt lat="40.39527" lon="-1.91197">
        <ele>1446.6</ele>
        <time>2021-10-09 14:33:15</time>
      </trkpt>
      <trkpt lat="40.39522" lon="-1.91193">
        <ele>1446.4</ele>
        <time>2021-10-09 14:33:16</time>
      </trkpt>
      <trkpt lat="40.39517" lon="-1.91189">
        <ele>1446.4</ele>
        <time>2021-10-09 14:33:17</time>
      </trkpt>
      <trkpt lat="40.39511" lon="-1.91184">
        <ele>1446.4</ele>
        <time>2021-10-09 14:33:18</time>
      </trkpt>
      <trkpt lat="40.39506" lon="-1.91179">
        <ele>1446.4</ele>
        <time>2021-10-09 14:33:19</time>
      </trkpt>
      <trkpt lat="40.39501" lon="-1.91173">
        <ele>1446.4</ele>
        <time>2021-10-09 14:33:20</time>
      </trkpt>
      <trkpt lat="40.39496" lon="-1.91167">
        <ele>1446.8</ele>
        <time>2021-10-09 14:33:21</time>
      </trkpt>
      <trkpt lat="40.39492" lon="-1.91162">
        <ele>1446.8</ele>
        <time>2021-10-09 14:33:22</time>
      </trkpt>
      <trkpt lat="40.39488" lon="-1.91158">
        <ele>1446.8</ele>
        <time>2021-10-09 14:33:23</time>
      </trkpt>
      <trkpt lat="40.39483" lon="-1.91152">
        <ele>1446.4</ele>
        <time>2021-10-09 14:33:24</time>
      </trkpt>
      <trkpt lat="40.39479" lon="-1.91146">
        <ele>1446.4</ele>
        <time>2021-10-09 14:33:25</time>
      </trkpt>
      <trkpt lat="40.39475" lon="-1.9114">
        <ele>1446.8</ele>
        <time>2021-10-09 14:33:26</time>
      </trkpt>
      <trkpt lat="40.39472" lon="-1.91134">
        <ele>1446.8</ele>
        <time>2021-10-09 14:33:27</time>
      </trkpt>
      <trkpt lat="40.39467" lon="-1.91129">
        <ele>1447</ele>
        <time>2021-10-09 14:33:28</time>
      </trkpt>
      <trkpt lat="40.39463" lon="-1.91125">
        <ele>1447</ele>
        <time>2021-10-09 14:33:29</time>
      </trkpt>
      <trkpt lat="40.3946" lon="-1.9112">
        <ele>1447</ele>
        <time>2021-10-09 14:33:30</time>
      </trkpt>
      <trkpt lat="40.39456" lon="-1.91115">
        <ele>1446.8</ele>
        <time>2021-10-09 14:33:31</time>
      </trkpt>
      <trkpt lat="40.39452" lon="-1.9111">
        <ele>1446.8</ele>
        <time>2021-10-09 14:33:32</time>
      </trkpt>
      <trkpt lat="40.39448" lon="-1.91106">
        <ele>1446.8</ele>
        <time>2021-10-09 14:33:33</time>
      </trkpt>
      <trkpt lat="40.39444" lon="-1.91101">
        <ele>1446.8</ele>
        <time>2021-10-09 14:33:34</time>
      </trkpt>
      <trkpt lat="40.3944" lon="-1.91096">
        <ele>1446.8</ele>
        <time>2021-10-09 14:33:35</time>
      </trkpt>
      <trkpt lat="40.39436" lon="-1.91091">
        <ele>1446.8</ele>
        <time>2021-10-09 14:33:36</time>
      </trkpt>
      <trkpt lat="40.39432" lon="-1.91087">
        <ele>1446.8</ele>
        <time>2021-10-09 14:33:37</time>
      </trkpt>
      <trkpt lat="40.39428" lon="-1.91082">
        <ele>1447</ele>
        <time>2021-10-09 14:33:38</time>
      </trkpt>
      <trkpt lat="40.39424" lon="-1.91078">
        <ele>1447</ele>
        <time>2021-10-09 14:33:39</time>
      </trkpt>
      <trkpt lat="40.39421" lon="-1.91073">
        <ele>1447</ele>
        <time>2021-10-09 14:33:40</time>
      </trkpt>
      <trkpt lat="40.39418" lon="-1.91068">
        <ele>1447</ele>
        <time>2021-10-09 14:33:41</time>
      </trkpt>
      <trkpt lat="40.39414" lon="-1.91064">
        <ele>1447.2</ele>
        <time>2021-10-09 14:33:42</time>
      </trkpt>
      <trkpt lat="40.39411" lon="-1.91059">
        <ele>1447.2</ele>
        <time>2021-10-09 14:33:43</time>
      </trkpt>
      <trkpt lat="40.39407" lon="-1.91055">
        <ele>1447.2</ele>
        <time>2021-10-09 14:33:44</time>
      </trkpt>
      <trkpt lat="40.39404" lon="-1.91051">
        <ele>1447.4</ele>
        <time>2021-10-09 14:33:45</time>
      </trkpt>
      <trkpt lat="40.394" lon="-1.91047">
        <ele>1447.4</ele>
        <time>2021-10-09 14:33:46</time>
      </trkpt>
      <trkpt lat="40.39396" lon="-1.91043">
        <ele>1447.4</ele>
        <time>2021-10-09 14:33:47</time>
      </trkpt>
      <trkpt lat="40.39393" lon="-1.91039">
        <ele>1447.4</ele>
        <time>2021-10-09 14:33:48</time>
      </trkpt>
      <trkpt lat="40.3939" lon="-1.91035">
        <ele>1447.6</ele>
        <time>2021-10-09 14:33:49</time>
      </trkpt>
      <trkpt lat="40.39386" lon="-1.91031">
        <ele>1447.8</ele>
        <time>2021-10-09 14:33:50</time>
      </trkpt>
      <trkpt lat="40.39382" lon="-1.91026">
        <ele>1447.8</ele>
        <time>2021-10-09 14:33:51</time>
      </trkpt>
      <trkpt lat="40.39378" lon="-1.91022">
        <ele>1447.8</ele>
        <time>2021-10-09 14:33:52</time>
      </trkpt>
      <trkpt lat="40.39374" lon="-1.91018">
        <ele>1447.6</ele>
        <time>2021-10-09 14:33:53</time>
      </trkpt>
      <trkpt lat="40.3937" lon="-1.91014">
        <ele>1447.6</ele>
        <time>2021-10-09 14:33:54</time>
      </trkpt>
      <trkpt lat="40.39365" lon="-1.91011">
        <ele>1447.6</ele>
        <time>2021-10-09 14:33:55</time>
      </trkpt>
      <trkpt lat="40.39361" lon="-1.91009">
        <ele>1447.6</ele>
        <time>2021-10-09 14:33:56</time>
      </trkpt>
      <trkpt lat="40.39356" lon="-1.91008">
        <ele>1447.4</ele>
        <time>2021-10-09 14:33:57</time>
      </trkpt>
      <trkpt lat="40.39352" lon="-1.91005">
        <ele>1447.4</ele>
        <time>2021-10-09 14:33:58</time>
      </trkpt>
      <trkpt lat="40.39348" lon="-1.91004">
        <ele>1447.4</ele>
        <time>2021-10-09 14:33:59</time>
      </trkpt>
      <trkpt lat="40.39344" lon="-1.91002">
        <ele>1447.4</ele>
        <time>2021-10-09 14:34:00</time>
      </trkpt>
      <trkpt lat="40.39339" lon="-1.91">
        <ele>1447.4</ele>
        <time>2021-10-09 14:34:01</time>
      </trkpt>
      <trkpt lat="40.39335" lon="-1.91">
        <ele>1447.4</ele>
        <time>2021-10-09 14:34:02</time>
      </trkpt>
      <trkpt lat="40.3933" lon="-1.91">
        <ele>1447.4</ele>
        <time>2021-10-09 14:34:03</time>
      </trkpt>
      <trkpt lat="40.39325" lon="-1.90998">
        <ele>1447.4</ele>
        <time>2021-10-09 14:34:04</time>
      </trkpt>
      <trkpt lat="40.3932" lon="-1.90997">
        <ele>1447.4</ele>
        <time>2021-10-09 14:34:05</time>
      </trkpt>
      <trkpt lat="40.39316" lon="-1.90995">
        <ele>1447.8</ele>
        <time>2021-10-09 14:34:06</time>
      </trkpt>
      <trkpt lat="40.39311" lon="-1.90995">
        <ele>1447.8</ele>
        <time>2021-10-09 14:34:07</time>
      </trkpt>
      <trkpt lat="40.39307" lon="-1.90993">
        <ele>1448</ele>
        <time>2021-10-09 14:34:08</time>
      </trkpt>
      <trkpt lat="40.39303" lon="-1.90991">
        <ele>1448</ele>
        <time>2021-10-09 14:34:09</time>
      </trkpt>
      <trkpt lat="40.39299" lon="-1.90989">
        <ele>1448</ele>
        <time>2021-10-09 14:34:10</time>
      </trkpt>
      <trkpt lat="40.39299" lon="-1.90989">
        <ele>1448.4</ele>
        <time>2021-10-09 14:34:11</time>
      </trkpt>
      <trkpt lat="40.39295" lon="-1.90987">
        <ele>1448.4</ele>
        <time>2021-10-09 14:34:12</time>
      </trkpt>
      <trkpt lat="40.39292" lon="-1.90985">
        <ele>1448.6</ele>
        <time>2021-10-09 14:34:13</time>
      </trkpt>
      <trkpt lat="40.39289" lon="-1.90983">
        <ele>1448.8</ele>
        <time>2021-10-09 14:34:14</time>
      </trkpt>
      <trkpt lat="40.39286" lon="-1.90981">
        <ele>1448.8</ele>
        <time>2021-10-09 14:34:15</time>
      </trkpt>
      <trkpt lat="40.39283" lon="-1.90979">
        <ele>1449.2</ele>
        <time>2021-10-09 14:34:16</time>
      </trkpt>
      <trkpt lat="40.3928" lon="-1.90976">
        <ele>1449.2</ele>
        <time>2021-10-09 14:34:17</time>
      </trkpt>
      <trkpt lat="40.39278" lon="-1.90974">
        <ele>1449.4</ele>
        <time>2021-10-09 14:34:18</time>
      </trkpt>
      <trkpt lat="40.39275" lon="-1.90972">
        <ele>1449.4</ele>
        <time>2021-10-09 14:34:19</time>
      </trkpt>
      <trkpt lat="40.39273" lon="-1.9097">
        <ele>1449.8</ele>
        <time>2021-10-09 14:34:20</time>
      </trkpt>
      <trkpt lat="40.3927" lon="-1.90968">
        <ele>1450</ele>
        <time>2021-10-09 14:34:21</time>
      </trkpt>
      <trkpt lat="40.39268" lon="-1.90966">
        <ele>1450</ele>
        <time>2021-10-09 14:34:22</time>
      </trkpt>
      <trkpt lat="40.39265" lon="-1.90964">
        <ele>1450.4</ele>
        <time>2021-10-09 14:34:23</time>
      </trkpt>
      <trkpt lat="40.39263" lon="-1.90962">
        <ele>1450.4</ele>
        <time>2021-10-09 14:34:24</time>
      </trkpt>
      <trkpt lat="40.39261" lon="-1.9096">
        <ele>1450.8</ele>
        <time>2021-10-09 14:34:25</time>
      </trkpt>
      <trkpt lat="40.39259" lon="-1.90958">
        <ele>1450.8</ele>
        <time>2021-10-09 14:34:26</time>
      </trkpt>
      <trkpt lat="40.39258" lon="-1.90956">
        <ele>1451</ele>
        <time>2021-10-09 14:34:27</time>
      </trkpt>
      <trkpt lat="40.39255" lon="-1.90954">
        <ele>1451</ele>
        <time>2021-10-09 14:34:28</time>
      </trkpt>
      <trkpt lat="40.39253" lon="-1.90952">
        <ele>1451.4</ele>
        <time>2021-10-09 14:34:29</time>
      </trkpt>
      <trkpt lat="40.39251" lon="-1.9095">
        <ele>1451.4</ele>
        <time>2021-10-09 14:34:30</time>
      </trkpt>
      <trkpt lat="40.39249" lon="-1.90949">
        <ele>1451.8</ele>
        <time>2021-10-09 14:34:31</time>
      </trkpt>
      <trkpt lat="40.39247" lon="-1.90947">
        <ele>1451.8</ele>
        <time>2021-10-09 14:34:32</time>
      </trkpt>
      <trkpt lat="40.39246" lon="-1.90945">
        <ele>1452.2</ele>
        <time>2021-10-09 14:34:33</time>
      </trkpt>
      <trkpt lat="40.39244" lon="-1.90943">
        <ele>1452.2</ele>
        <time>2021-10-09 14:34:34</time>
      </trkpt>
      <trkpt lat="40.39242" lon="-1.90941">
        <ele>1452.4</ele>
        <time>2021-10-09 14:34:35</time>
      </trkpt>
      <trkpt lat="40.3924" lon="-1.90939">
        <ele>1452.4</ele>
        <time>2021-10-09 14:34:36</time>
      </trkpt>
      <trkpt lat="40.39238" lon="-1.90937">
        <ele>1452.8</ele>
        <time>2021-10-09 14:34:37</time>
      </trkpt>
      <trkpt lat="40.39236" lon="-1.90935">
        <ele>1453</ele>
        <time>2021-10-09 14:34:38</time>
      </trkpt>
      <trkpt lat="40.39234" lon="-1.90934">
        <ele>1453</ele>
        <time>2021-10-09 14:34:39</time>
      </trkpt>
      <trkpt lat="40.39232" lon="-1.90932">
        <ele>1453.2</ele>
        <time>2021-10-09 14:34:40</time>
      </trkpt>
      <trkpt lat="40.3923" lon="-1.9093">
        <ele>1453.2</ele>
        <time>2021-10-09 14:34:41</time>
      </trkpt>
      <trkpt lat="40.39229" lon="-1.90929">
        <ele>1453.4</ele>
        <time>2021-10-09 14:34:42</time>
      </trkpt>
      <trkpt lat="40.39227" lon="-1.90927">
        <ele>1453.4</ele>
        <time>2021-10-09 14:34:43</time>
      </trkpt>
      <trkpt lat="40.39225" lon="-1.90925">
        <ele>1453.4</ele>
        <time>2021-10-09 14:34:44</time>
      </trkpt>
      <trkpt lat="40.39223" lon="-1.90923">
        <ele>1453.8</ele>
        <time>2021-10-09 14:34:45</time>
      </trkpt>
      <trkpt lat="40.39222" lon="-1.90921">
        <ele>1453.8</ele>
        <time>2021-10-09 14:34:46</time>
      </trkpt>
      <trkpt lat="40.3922" lon="-1.90919">
        <ele>1454</ele>
        <time>2021-10-09 14:34:47</time>
      </trkpt>
      <trkpt lat="40.39218" lon="-1.90917">
        <ele>1454</ele>
        <time>2021-10-09 14:34:48</time>
      </trkpt>
      <trkpt lat="40.39216" lon="-1.90915">
        <ele>1454.4</ele>
        <time>2021-10-09 14:34:49</time>
      </trkpt>
      <trkpt lat="40.39214" lon="-1.90913">
        <ele>1454.4</ele>
        <time>2021-10-09 14:34:50</time>
      </trkpt>
      <trkpt lat="40.39212" lon="-1.90911">
        <ele>1454.4</ele>
        <time>2021-10-09 14:34:51</time>
      </trkpt>
      <trkpt lat="40.39211" lon="-1.90909">
        <ele>1454.6</ele>
        <time>2021-10-09 14:34:52</time>
      </trkpt>
      <trkpt lat="40.3921" lon="-1.90907">
        <ele>1454.6</ele>
        <time>2021-10-09 14:34:53</time>
      </trkpt>
      <trkpt lat="40.39209" lon="-1.90905">
        <ele>1455</ele>
        <time>2021-10-09 14:34:54</time>
      </trkpt>
      <trkpt lat="40.39208" lon="-1.90903">
        <ele>1455</ele>
        <time>2021-10-09 14:34:55</time>
      </trkpt>
      <trkpt lat="40.39206" lon="-1.90902">
        <ele>1455.2</ele>
        <time>2021-10-09 14:34:56</time>
      </trkpt>
      <trkpt lat="40.39204" lon="-1.90901">
        <ele>1455.2</ele>
        <time>2021-10-09 14:34:57</time>
      </trkpt>
      <trkpt lat="40.39202" lon="-1.909">
        <ele>1455.6</ele>
        <time>2021-10-09 14:34:58</time>
      </trkpt>
      <trkpt lat="40.392" lon="-1.90898">
        <ele>1455.6</ele>
        <time>2021-10-09 14:34:59</time>
      </trkpt>
      <trkpt lat="40.39198" lon="-1.90896">
        <ele>1455.8</ele>
        <time>2021-10-09 14:35:00</time>
      </trkpt>
      <trkpt lat="40.39196" lon="-1.90894">
        <ele>1456</ele>
        <time>2021-10-09 14:35:01</time>
      </trkpt>
      <trkpt lat="40.39194" lon="-1.90892">
        <ele>1456</ele>
        <time>2021-10-09 14:35:02</time>
      </trkpt>
      <trkpt lat="40.39192" lon="-1.9089">
        <ele>1456</ele>
        <time>2021-10-09 14:35:03</time>
      </trkpt>
      <trkpt lat="40.3919" lon="-1.90887">
        <ele>1456.2</ele>
        <time>2021-10-09 14:35:04</time>
      </trkpt>
      <trkpt lat="40.39188" lon="-1.90885">
        <ele>1456.2</ele>
        <time>2021-10-09 14:35:05</time>
      </trkpt>
      <trkpt lat="40.39187" lon="-1.90882">
        <ele>1456.2</ele>
        <time>2021-10-09 14:35:06</time>
      </trkpt>
      <trkpt lat="40.39185" lon="-1.9088">
        <ele>1456.6</ele>
        <time>2021-10-09 14:35:07</time>
      </trkpt>
      <trkpt lat="40.39184" lon="-1.90877">
        <ele>1456.6</ele>
        <time>2021-10-09 14:35:08</time>
      </trkpt>
      <trkpt lat="40.39182" lon="-1.90875">
        <ele>1456.6</ele>
        <time>2021-10-09 14:35:09</time>
      </trkpt>
      <trkpt lat="40.39181" lon="-1.90874">
        <ele>1456.8</ele>
        <time>2021-10-09 14:35:10</time>
      </trkpt>
      <trkpt lat="40.39179" lon="-1.90871">
        <ele>1456.8</ele>
        <time>2021-10-09 14:35:11</time>
      </trkpt>
      <trkpt lat="40.39177" lon="-1.90869">
        <ele>1457</ele>
        <time>2021-10-09 14:35:12</time>
      </trkpt>
      <trkpt lat="40.39175" lon="-1.90866">
        <ele>1457</ele>
        <time>2021-10-09 14:35:13</time>
      </trkpt>
      <trkpt lat="40.39174" lon="-1.90863">
        <ele>1457.6</ele>
        <time>2021-10-09 14:35:14</time>
      </trkpt>
      <trkpt lat="40.39172" lon="-1.90861">
        <ele>1457.6</ele>
        <time>2021-10-09 14:35:15</time>
      </trkpt>
      <trkpt lat="40.39171" lon="-1.90858">
        <ele>1457.8</ele>
        <time>2021-10-09 14:35:16</time>
      </trkpt>
      <trkpt lat="40.3917" lon="-1.90856">
        <ele>1457.8</ele>
        <time>2021-10-09 14:35:17</time>
      </trkpt>
      <trkpt lat="40.39168" lon="-1.90854">
        <ele>1458.2</ele>
        <time>2021-10-09 14:35:18</time>
      </trkpt>
      <trkpt lat="40.39166" lon="-1.90851">
        <ele>1458.2</ele>
        <time>2021-10-09 14:35:19</time>
      </trkpt>
      <trkpt lat="40.39165" lon="-1.90849">
        <ele>1458.2</ele>
        <time>2021-10-09 14:35:20</time>
      </trkpt>
      <trkpt lat="40.39163" lon="-1.90846">
        <ele>1458.4</ele>
        <time>2021-10-09 14:35:21</time>
      </trkpt>
      <trkpt lat="40.39162" lon="-1.90844">
        <ele>1458.4</ele>
        <time>2021-10-09 14:35:22</time>
      </trkpt>
      <trkpt lat="40.3916" lon="-1.90841">
        <ele>1458.4</ele>
        <time>2021-10-09 14:35:23</time>
      </trkpt>
      <trkpt lat="40.39159" lon="-1.90838">
        <ele>1458.4</ele>
        <time>2021-10-09 14:35:24</time>
      </trkpt>
      <trkpt lat="40.39157" lon="-1.90836">
        <ele>1458.8</ele>
        <time>2021-10-09 14:35:25</time>
      </trkpt>
      <trkpt lat="40.39155" lon="-1.90833">
        <ele>1458.8</ele>
        <time>2021-10-09 14:35:26</time>
      </trkpt>
      <trkpt lat="40.39154" lon="-1.90831">
        <ele>1458.8</ele>
        <time>2021-10-09 14:35:27</time>
      </trkpt>
      <trkpt lat="40.39152" lon="-1.90828">
        <ele>1458.8</ele>
        <time>2021-10-09 14:35:28</time>
      </trkpt>
      <trkpt lat="40.39151" lon="-1.90826">
        <ele>1459.2</ele>
        <time>2021-10-09 14:35:29</time>
      </trkpt>
      <trkpt lat="40.39149" lon="-1.90823">
        <ele>1459.2</ele>
        <time>2021-10-09 14:35:30</time>
      </trkpt>
      <trkpt lat="40.39148" lon="-1.9082">
        <ele>1459.4</ele>
        <time>2021-10-09 14:35:31</time>
      </trkpt>
      <trkpt lat="40.39146" lon="-1.90817">
        <ele>1459.4</ele>
        <time>2021-10-09 14:35:32</time>
      </trkpt>
      <trkpt lat="40.39145" lon="-1.90814">
        <ele>1459.4</ele>
        <time>2021-10-09 14:35:33</time>
      </trkpt>
      <trkpt lat="40.39144" lon="-1.90812">
        <ele>1459.6</ele>
        <time>2021-10-09 14:35:34</time>
      </trkpt>
      <trkpt lat="40.39142" lon="-1.9081">
        <ele>1459.8</ele>
        <time>2021-10-09 14:35:35</time>
      </trkpt>
      <trkpt lat="40.39141" lon="-1.90807">
        <ele>1459.8</ele>
        <time>2021-10-09 14:35:36</time>
      </trkpt>
      <trkpt lat="40.39139" lon="-1.90805">
        <ele>1460.2</ele>
        <time>2021-10-09 14:35:37</time>
      </trkpt>
      <trkpt lat="40.39136" lon="-1.908">
        <ele>1460.2</ele>
        <time>2021-10-09 14:35:38</time>
      </trkpt>
      <trkpt lat="40.39135" lon="-1.90798">
        <ele>1460.6</ele>
        <time>2021-10-09 14:35:39</time>
      </trkpt>
      <trkpt lat="40.39133" lon="-1.90796">
        <ele>1460.6</ele>
        <time>2021-10-09 14:35:40</time>
      </trkpt>
      <trkpt lat="40.39132" lon="-1.90793">
        <ele>1460.6</ele>
        <time>2021-10-09 14:35:41</time>
      </trkpt>
      <trkpt lat="40.3913" lon="-1.90791">
        <ele>1460.8</ele>
        <time>2021-10-09 14:35:42</time>
      </trkpt>
      <trkpt lat="40.39129" lon="-1.90789">
        <ele>1460.8</ele>
        <time>2021-10-09 14:35:43</time>
      </trkpt>
      <trkpt lat="40.39127" lon="-1.90786">
        <ele>1460.8</ele>
        <time>2021-10-09 14:35:44</time>
      </trkpt>
      <trkpt lat="40.39126" lon="-1.90784">
        <ele>1460.8</ele>
        <time>2021-10-09 14:35:45</time>
      </trkpt>
      <trkpt lat="40.39125" lon="-1.90782">
        <ele>1460.8</ele>
        <time>2021-10-09 14:35:46</time>
      </trkpt>
      <trkpt lat="40.39124" lon="-1.90779">
        <ele>1460.8</ele>
        <time>2021-10-09 14:35:47</time>
      </trkpt>
      <trkpt lat="40.39123" lon="-1.90777">
        <ele>1460.8</ele>
        <time>2021-10-09 14:35:48</time>
      </trkpt>
      <trkpt lat="40.39121" lon="-1.90774">
        <ele>1461</ele>
        <time>2021-10-09 14:35:49</time>
      </trkpt>
      <trkpt lat="40.3912" lon="-1.90772">
        <ele>1461</ele>
        <time>2021-10-09 14:35:50</time>
      </trkpt>
      <trkpt lat="40.39118" lon="-1.9077">
        <ele>1461.2</ele>
        <time>2021-10-09 14:35:51</time>
      </trkpt>
      <trkpt lat="40.39116" lon="-1.90768">
        <ele>1461.2</ele>
        <time>2021-10-09 14:35:52</time>
      </trkpt>
      <trkpt lat="40.39115" lon="-1.90766">
        <ele>1461.2</ele>
        <time>2021-10-09 14:35:53</time>
      </trkpt>
      <trkpt lat="40.39114" lon="-1.90763">
        <ele>1461.4</ele>
        <time>2021-10-09 14:35:54</time>
      </trkpt>
      <trkpt lat="40.39112" lon="-1.90761">
        <ele>1461.4</ele>
        <time>2021-10-09 14:35:55</time>
      </trkpt>
      <trkpt lat="40.39111" lon="-1.90758">
        <ele>1461.4</ele>
        <time>2021-10-09 14:35:56</time>
      </trkpt>
      <trkpt lat="40.39109" lon="-1.90756">
        <ele>1461.4</ele>
        <time>2021-10-09 14:35:57</time>
      </trkpt>
      <trkpt lat="40.39108" lon="-1.90753">
        <ele>1461.4</ele>
        <time>2021-10-09 14:35:58</time>
      </trkpt>
      <trkpt lat="40.39107" lon="-1.90751">
        <ele>1461.6</ele>
        <time>2021-10-09 14:35:59</time>
      </trkpt>
      <trkpt lat="40.39106" lon="-1.90749">
        <ele>1461.6</ele>
        <time>2021-10-09 14:36:00</time>
      </trkpt>
      <trkpt lat="40.39104" lon="-1.90746">
        <ele>1462</ele>
        <time>2021-10-09 14:36:01</time>
      </trkpt>
      <trkpt lat="40.39103" lon="-1.90743">
        <ele>1462</ele>
        <time>2021-10-09 14:36:02</time>
      </trkpt>
      <trkpt lat="40.39101" lon="-1.9074">
        <ele>1462.2</ele>
        <time>2021-10-09 14:36:03</time>
      </trkpt>
      <trkpt lat="40.391" lon="-1.90738">
        <ele>1462.2</ele>
        <time>2021-10-09 14:36:04</time>
      </trkpt>
      <trkpt lat="40.39099" lon="-1.90735">
        <ele>1462.6</ele>
        <time>2021-10-09 14:36:05</time>
      </trkpt>
      <trkpt lat="40.39097" lon="-1.90732">
        <ele>1462.6</ele>
        <time>2021-10-09 14:36:06</time>
      </trkpt>
      <trkpt lat="40.39096" lon="-1.9073">
        <ele>1463</ele>
        <time>2021-10-09 14:36:07</time>
      </trkpt>
      <trkpt lat="40.39094" lon="-1.90728">
        <ele>1463.2</ele>
        <time>2021-10-09 14:36:08</time>
      </trkpt>
      <trkpt lat="40.39093" lon="-1.90726">
        <ele>1463.4</ele>
        <time>2021-10-09 14:36:09</time>
      </trkpt>
      <trkpt lat="40.39092" lon="-1.90724">
        <ele>1463.4</ele>
        <time>2021-10-09 14:36:10</time>
      </trkpt>
      <trkpt lat="40.39091" lon="-1.90721">
        <ele>1463.4</ele>
        <time>2021-10-09 14:36:11</time>
      </trkpt>
      <trkpt lat="40.39089" lon="-1.90719">
        <ele>1463.6</ele>
        <time>2021-10-09 14:36:12</time>
      </trkpt>
      <trkpt lat="40.39088" lon="-1.90716">
        <ele>1463.6</ele>
        <time>2021-10-09 14:36:13</time>
      </trkpt>
      <trkpt lat="40.39086" lon="-1.90714">
        <ele>1463.6</ele>
        <time>2021-10-09 14:36:14</time>
      </trkpt>
      <trkpt lat="40.39085" lon="-1.90712">
        <ele>1464</ele>
        <time>2021-10-09 14:36:15</time>
      </trkpt>
      <trkpt lat="40.39084" lon="-1.9071">
        <ele>1464.2</ele>
        <time>2021-10-09 14:36:16</time>
      </trkpt>
      <trkpt lat="40.39082" lon="-1.90708">
        <ele>1464.2</ele>
        <time>2021-10-09 14:36:17</time>
      </trkpt>
      <trkpt lat="40.39081" lon="-1.90706">
        <ele>1464.6</ele>
        <time>2021-10-09 14:36:18</time>
      </trkpt>
      <trkpt lat="40.3908" lon="-1.90704">
        <ele>1464.6</ele>
        <time>2021-10-09 14:36:19</time>
      </trkpt>
      <trkpt lat="40.39078" lon="-1.90701">
        <ele>1464.8</ele>
        <time>2021-10-09 14:36:20</time>
      </trkpt>
      <trkpt lat="40.39078" lon="-1.907">
        <ele>1464.8</ele>
        <time>2021-10-09 14:36:21</time>
      </trkpt>
      <trkpt lat="40.39077" lon="-1.90699">
        <ele>1464.8</ele>
        <time>2021-10-09 14:36:22</time>
      </trkpt>
      <trkpt lat="40.39076" lon="-1.90697">
        <ele>1465.2</ele>
        <time>2021-10-09 14:36:23</time>
      </trkpt>
      <trkpt lat="40.39075" lon="-1.90694">
        <ele>1465.2</ele>
        <time>2021-10-09 14:36:24</time>
      </trkpt>
      <trkpt lat="40.39075" lon="-1.90692">
        <ele>1465.4</ele>
        <time>2021-10-09 14:36:25</time>
      </trkpt>
      <trkpt lat="40.39074" lon="-1.9069">
        <ele>1465.4</ele>
        <time>2021-10-09 14:36:26</time>
      </trkpt>
      <trkpt lat="40.39072" lon="-1.90688">
        <ele>1465.8</ele>
        <time>2021-10-09 14:36:27</time>
      </trkpt>
      <trkpt lat="40.39071" lon="-1.90686">
        <ele>1465.8</ele>
        <time>2021-10-09 14:36:28</time>
      </trkpt>
      <trkpt lat="40.39069" lon="-1.90684">
        <ele>1466</ele>
        <time>2021-10-09 14:36:29</time>
      </trkpt>
      <trkpt lat="40.39068" lon="-1.90682">
        <ele>1466</ele>
        <time>2021-10-09 14:36:30</time>
      </trkpt>
      <trkpt lat="40.39066" lon="-1.90681">
        <ele>1466.4</ele>
        <time>2021-10-09 14:36:31</time>
      </trkpt>
      <trkpt lat="40.39065" lon="-1.90678">
        <ele>1466.6</ele>
        <time>2021-10-09 14:36:32</time>
      </trkpt>
      <trkpt lat="40.39063" lon="-1.90676">
        <ele>1467</ele>
        <time>2021-10-09 14:36:33</time>
      </trkpt>
      <trkpt lat="40.39061" lon="-1.90674">
        <ele>1467.4</ele>
        <time>2021-10-09 14:36:34</time>
      </trkpt>
      <trkpt lat="40.3906" lon="-1.90672">
        <ele>1467.4</ele>
        <time>2021-10-09 14:36:35</time>
      </trkpt>
      <trkpt lat="40.39059" lon="-1.90669">
        <ele>1467.6</ele>
        <time>2021-10-09 14:36:36</time>
      </trkpt>
      <trkpt lat="40.39057" lon="-1.90667">
        <ele>1467.6</ele>
        <time>2021-10-09 14:36:37</time>
      </trkpt>
      <trkpt lat="40.39056" lon="-1.90665">
        <ele>1468</ele>
        <time>2021-10-09 14:36:38</time>
      </trkpt>
      <trkpt lat="40.39054" lon="-1.90663">
        <ele>1468</ele>
        <time>2021-10-09 14:36:39</time>
      </trkpt>
      <trkpt lat="40.39053" lon="-1.90662">
        <ele>1468.2</ele>
        <time>2021-10-09 14:36:40</time>
      </trkpt>
      <trkpt lat="40.39051" lon="-1.9066">
        <ele>1468.2</ele>
        <time>2021-10-09 14:36:41</time>
      </trkpt>
      <trkpt lat="40.39049" lon="-1.90658">
        <ele>1468.6</ele>
        <time>2021-10-09 14:36:42</time>
      </trkpt>
      <trkpt lat="40.39048" lon="-1.90656">
        <ele>1468.6</ele>
        <time>2021-10-09 14:36:43</time>
      </trkpt>
      <trkpt lat="40.39047" lon="-1.90654">
        <ele>1469</ele>
        <time>2021-10-09 14:36:44</time>
      </trkpt>
      <trkpt lat="40.39045" lon="-1.90652">
        <ele>1469</ele>
        <time>2021-10-09 14:36:45</time>
      </trkpt>
      <trkpt lat="40.39043" lon="-1.9065">
        <ele>1469.2</ele>
        <time>2021-10-09 14:36:46</time>
      </trkpt>
      <trkpt lat="40.39042" lon="-1.90648">
        <ele>1469.2</ele>
        <time>2021-10-09 14:36:47</time>
      </trkpt>
      <trkpt lat="40.3904" lon="-1.90647">
        <ele>1469.6</ele>
        <time>2021-10-09 14:36:48</time>
      </trkpt>
      <trkpt lat="40.39038" lon="-1.90645">
        <ele>1470</ele>
        <time>2021-10-09 14:36:49</time>
      </trkpt>
      <trkpt lat="40.39037" lon="-1.90643">
        <ele>1470</ele>
        <time>2021-10-09 14:36:50</time>
      </trkpt>
      <trkpt lat="40.39035" lon="-1.90642">
        <ele>1470.2</ele>
        <time>2021-10-09 14:36:51</time>
      </trkpt>
      <trkpt lat="40.39033" lon="-1.90642">
        <ele>1470.4</ele>
        <time>2021-10-09 14:36:52</time>
      </trkpt>
      <trkpt lat="40.39031" lon="-1.90641">
        <ele>1470.6</ele>
        <time>2021-10-09 14:36:53</time>
      </trkpt>
      <trkpt lat="40.39029" lon="-1.9064">
        <ele>1470.6</ele>
        <time>2021-10-09 14:36:54</time>
      </trkpt>
      <trkpt lat="40.39027" lon="-1.90639">
        <ele>1471</ele>
        <time>2021-10-09 14:36:55</time>
      </trkpt>
      <trkpt lat="40.39025" lon="-1.90637">
        <ele>1471.2</ele>
        <time>2021-10-09 14:36:56</time>
      </trkpt>
      <trkpt lat="40.39023" lon="-1.90635">
        <ele>1471.4</ele>
        <time>2021-10-09 14:36:57</time>
      </trkpt>
      <trkpt lat="40.39022" lon="-1.90633">
        <ele>1471.6</ele>
        <time>2021-10-09 14:36:58</time>
      </trkpt>
      <trkpt lat="40.39021" lon="-1.90631">
        <ele>1471.6</ele>
        <time>2021-10-09 14:36:59</time>
      </trkpt>
      <trkpt lat="40.39019" lon="-1.90629">
        <ele>1472</ele>
        <time>2021-10-09 14:37:00</time>
      </trkpt>
      <trkpt lat="40.39017" lon="-1.90626">
        <ele>1472</ele>
        <time>2021-10-09 14:37:01</time>
      </trkpt>
      <trkpt lat="40.39016" lon="-1.90624">
        <ele>1472.2</ele>
        <time>2021-10-09 14:37:02</time>
      </trkpt>
      <trkpt lat="40.39015" lon="-1.90622">
        <ele>1472.2</ele>
        <time>2021-10-09 14:37:03</time>
      </trkpt>
      <trkpt lat="40.39014" lon="-1.9062">
        <ele>1472.6</ele>
        <time>2021-10-09 14:37:04</time>
      </trkpt>
      <trkpt lat="40.39012" lon="-1.90618">
        <ele>1472.6</ele>
        <time>2021-10-09 14:37:05</time>
      </trkpt>
      <trkpt lat="40.3901" lon="-1.90616">
        <ele>1472.6</ele>
        <time>2021-10-09 14:37:06</time>
      </trkpt>
      <trkpt lat="40.39008" lon="-1.90614">
        <ele>1472.6</ele>
        <time>2021-10-09 14:37:07</time>
      </trkpt>
      <trkpt lat="40.39007" lon="-1.90612">
        <ele>1472.6</ele>
        <time>2021-10-09 14:37:08</time>
      </trkpt>
      <trkpt lat="40.39005" lon="-1.9061">
        <ele>1472.6</ele>
        <time>2021-10-09 14:37:09</time>
      </trkpt>
      <trkpt lat="40.39003" lon="-1.90607">
        <ele>1472.8</ele>
        <time>2021-10-09 14:37:10</time>
      </trkpt>
      <trkpt lat="40.39001" lon="-1.90605">
        <ele>1472.8</ele>
        <time>2021-10-09 14:37:11</time>
      </trkpt>
      <trkpt lat="40.38999" lon="-1.90602">
        <ele>1472.8</ele>
        <time>2021-10-09 14:37:12</time>
      </trkpt>
      <trkpt lat="40.38997" lon="-1.906">
        <ele>1472.8</ele>
        <time>2021-10-09 14:37:13</time>
      </trkpt>
      <trkpt lat="40.38995" lon="-1.90598">
        <ele>1473</ele>
        <time>2021-10-09 14:37:14</time>
      </trkpt>
      <trkpt lat="40.38993" lon="-1.90596">
        <ele>1473</ele>
        <time>2021-10-09 14:37:15</time>
      </trkpt>
      <trkpt lat="40.38991" lon="-1.90593">
        <ele>1473</ele>
        <time>2021-10-09 14:37:16</time>
      </trkpt>
      <trkpt lat="40.38989" lon="-1.90591">
        <ele>1473</ele>
        <time>2021-10-09 14:37:17</time>
      </trkpt>
      <trkpt lat="40.38987" lon="-1.90589">
        <ele>1473</ele>
        <time>2021-10-09 14:37:18</time>
      </trkpt>
      <trkpt lat="40.38985" lon="-1.90586">
        <ele>1473.4</ele>
        <time>2021-10-09 14:37:19</time>
      </trkpt>
      <trkpt lat="40.38983" lon="-1.90584">
        <ele>1473.4</ele>
        <time>2021-10-09 14:37:20</time>
      </trkpt>
      <trkpt lat="40.38982" lon="-1.90582">
        <ele>1473.4</ele>
        <time>2021-10-09 14:37:21</time>
      </trkpt>
      <trkpt lat="40.3898" lon="-1.9058">
        <ele>1473.4</ele>
        <time>2021-10-09 14:37:22</time>
      </trkpt>
      <trkpt lat="40.38978" lon="-1.90577">
        <ele>1473.4</ele>
        <time>2021-10-09 14:37:23</time>
      </trkpt>
      <trkpt lat="40.38976" lon="-1.90575">
        <ele>1473.4</ele>
        <time>2021-10-09 14:37:24</time>
      </trkpt>
      <trkpt lat="40.38974" lon="-1.90573">
        <ele>1473.4</ele>
        <time>2021-10-09 14:37:25</time>
      </trkpt>
      <trkpt lat="40.38972" lon="-1.90571">
        <ele>1473.4</ele>
        <time>2021-10-09 14:37:26</time>
      </trkpt>
      <trkpt lat="40.38971" lon="-1.90569">
        <ele>1473.6</ele>
        <time>2021-10-09 14:37:27</time>
      </trkpt>
      <trkpt lat="40.38969" lon="-1.90568">
        <ele>1474</ele>
        <time>2021-10-09 14:37:28</time>
      </trkpt>
      <trkpt lat="40.38967" lon="-1.90566">
        <ele>1474</ele>
        <time>2021-10-09 14:37:29</time>
      </trkpt>
      <trkpt lat="40.38965" lon="-1.90564">
        <ele>1474.2</ele>
        <time>2021-10-09 14:37:30</time>
      </trkpt>
      <trkpt lat="40.38964" lon="-1.90562">
        <ele>1474.4</ele>
        <time>2021-10-09 14:37:31</time>
      </trkpt>
      <trkpt lat="40.38962" lon="-1.90559">
        <ele>1474.4</ele>
        <time>2021-10-09 14:37:32</time>
      </trkpt>
      <trkpt lat="40.38961" lon="-1.90557">
        <ele>1474.4</ele>
        <time>2021-10-09 14:37:33</time>
      </trkpt>
      <trkpt lat="40.38959" lon="-1.90554">
        <ele>1474.8</ele>
        <time>2021-10-09 14:37:34</time>
      </trkpt>
      <trkpt lat="40.38957" lon="-1.90552">
        <ele>1474.8</ele>
        <time>2021-10-09 14:37:35</time>
      </trkpt>
      <trkpt lat="40.38955" lon="-1.9055">
        <ele>1475</ele>
        <time>2021-10-09 14:37:36</time>
      </trkpt>
      <trkpt lat="40.38954" lon="-1.90548">
        <ele>1475</ele>
        <time>2021-10-09 14:37:37</time>
      </trkpt>
      <trkpt lat="40.38952" lon="-1.90546">
        <ele>1475.4</ele>
        <time>2021-10-09 14:37:38</time>
      </trkpt>
      <trkpt lat="40.3895" lon="-1.90543">
        <ele>1475.4</ele>
        <time>2021-10-09 14:37:39</time>
      </trkpt>
      <trkpt lat="40.38949" lon="-1.90541">
        <ele>1475.4</ele>
        <time>2021-10-09 14:37:40</time>
      </trkpt>
      <trkpt lat="40.38947" lon="-1.90539">
        <ele>1475.6</ele>
        <time>2021-10-09 14:37:41</time>
      </trkpt>
      <trkpt lat="40.38946" lon="-1.90536">
        <ele>1475.6</ele>
        <time>2021-10-09 14:37:42</time>
      </trkpt>
      <trkpt lat="40.38945" lon="-1.90534">
        <ele>1475.6</ele>
        <time>2021-10-09 14:37:43</time>
      </trkpt>
      <trkpt lat="40.38944" lon="-1.90532">
        <ele>1475.8</ele>
        <time>2021-10-09 14:37:44</time>
      </trkpt>
      <trkpt lat="40.38942" lon="-1.9053">
        <ele>1475.8</ele>
        <time>2021-10-09 14:37:45</time>
      </trkpt>
      <trkpt lat="40.38941" lon="-1.90527">
        <ele>1475.8</ele>
        <time>2021-10-09 14:37:46</time>
      </trkpt>
      <trkpt lat="40.3894" lon="-1.90525">
        <ele>1475.8</ele>
        <time>2021-10-09 14:37:47</time>
      </trkpt>
      <trkpt lat="40.38939" lon="-1.90523">
        <ele>1475.8</ele>
        <time>2021-10-09 14:37:48</time>
      </trkpt>
      <trkpt lat="40.38938" lon="-1.90521">
        <ele>1476.2</ele>
        <time>2021-10-09 14:37:49</time>
      </trkpt>
      <trkpt lat="40.38937" lon="-1.90519">
        <ele>1476.2</ele>
        <time>2021-10-09 14:37:50</time>
      </trkpt>
      <trkpt lat="40.38936" lon="-1.90517">
        <ele>1476.4</ele>
        <time>2021-10-09 14:37:51</time>
      </trkpt>
      <trkpt lat="40.38936" lon="-1.90515">
        <ele>1476.4</ele>
        <time>2021-10-09 14:37:52</time>
      </trkpt>
      <trkpt lat="40.38935" lon="-1.90513">
        <ele>1476.8</ele>
        <time>2021-10-09 14:37:53</time>
      </trkpt>
      <trkpt lat="40.38935" lon="-1.90511">
        <ele>1477</ele>
        <time>2021-10-09 14:37:54</time>
      </trkpt>
      <trkpt lat="40.38933" lon="-1.90509">
        <ele>1477</ele>
        <time>2021-10-09 14:37:55</time>
      </trkpt>
      <trkpt lat="40.38932" lon="-1.90507">
        <ele>1477</ele>
        <time>2021-10-09 14:37:56</time>
      </trkpt>
      <trkpt lat="40.38931" lon="-1.90505">
        <ele>1477</ele>
        <time>2021-10-09 14:37:57</time>
      </trkpt>
      <trkpt lat="40.38929" lon="-1.90503">
        <ele>1477.2</ele>
        <time>2021-10-09 14:37:58</time>
      </trkpt>
      <trkpt lat="40.38927" lon="-1.905">
        <ele>1477.2</ele>
        <time>2021-10-09 14:37:59</time>
      </trkpt>
      <trkpt lat="40.38926" lon="-1.90498">
        <ele>1477.4</ele>
        <time>2021-10-09 14:38:00</time>
      </trkpt>
      <trkpt lat="40.38924" lon="-1.90495">
        <ele>1477.4</ele>
        <time>2021-10-09 14:38:01</time>
      </trkpt>
      <trkpt lat="40.38923" lon="-1.90493">
        <ele>1477.4</ele>
        <time>2021-10-09 14:38:02</time>
      </trkpt>
      <trkpt lat="40.38923" lon="-1.9049">
        <ele>1477.4</ele>
        <time>2021-10-09 14:38:03</time>
      </trkpt>
      <trkpt lat="40.38922" lon="-1.90487">
        <ele>1477.4</ele>
        <time>2021-10-09 14:38:04</time>
      </trkpt>
      <trkpt lat="40.3892" lon="-1.90485">
        <ele>1477.4</ele>
        <time>2021-10-09 14:38:05</time>
      </trkpt>
      <trkpt lat="40.38919" lon="-1.90483">
        <ele>1477.8</ele>
        <time>2021-10-09 14:38:06</time>
      </trkpt>
      <trkpt lat="40.38918" lon="-1.9048">
        <ele>1477.8</ele>
        <time>2021-10-09 14:38:07</time>
      </trkpt>
      <trkpt lat="40.38916" lon="-1.90478">
        <ele>1477.8</ele>
        <time>2021-10-09 14:38:08</time>
      </trkpt>
      <trkpt lat="40.38915" lon="-1.90476">
        <ele>1478</ele>
        <time>2021-10-09 14:38:09</time>
      </trkpt>
      <trkpt lat="40.38914" lon="-1.90473">
        <ele>1478</ele>
        <time>2021-10-09 14:38:10</time>
      </trkpt>
      <trkpt lat="40.38912" lon="-1.90471">
        <ele>1478.2</ele>
        <time>2021-10-09 14:38:11</time>
      </trkpt>
      <trkpt lat="40.38911" lon="-1.90468">
        <ele>1478.2</ele>
        <time>2021-10-09 14:38:12</time>
      </trkpt>
      <trkpt lat="40.38909" lon="-1.90466">
        <ele>1478.4</ele>
        <time>2021-10-09 14:38:13</time>
      </trkpt>
      <trkpt lat="40.38908" lon="-1.90464">
        <ele>1478.4</ele>
        <time>2021-10-09 14:38:14</time>
      </trkpt>
      <trkpt lat="40.38907" lon="-1.90461">
        <ele>1478.6</ele>
        <time>2021-10-09 14:38:15</time>
      </trkpt>
      <trkpt lat="40.38905" lon="-1.90459">
        <ele>1478.6</ele>
        <time>2021-10-09 14:38:16</time>
      </trkpt>
      <trkpt lat="40.38904" lon="-1.90456">
        <ele>1478.6</ele>
        <time>2021-10-09 14:38:17</time>
      </trkpt>
      <trkpt lat="40.38902" lon="-1.90455">
        <ele>1478.8</ele>
        <time>2021-10-09 14:38:18</time>
      </trkpt>
      <trkpt lat="40.389" lon="-1.90453">
        <ele>1478.8</ele>
        <time>2021-10-09 14:38:19</time>
      </trkpt>
      <trkpt lat="40.38898" lon="-1.90452">
        <ele>1478.8</ele>
        <time>2021-10-09 14:38:20</time>
      </trkpt>
      <trkpt lat="40.38897" lon="-1.9045">
        <ele>1479</ele>
        <time>2021-10-09 14:38:21</time>
      </trkpt>
      <trkpt lat="40.38896" lon="-1.90448">
        <ele>1479</ele>
        <time>2021-10-09 14:38:22</time>
      </trkpt>
      <trkpt lat="40.38894" lon="-1.90446">
        <ele>1479.4</ele>
        <time>2021-10-09 14:38:23</time>
      </trkpt>
      <trkpt lat="40.38893" lon="-1.90445">
        <ele>1479.4</ele>
        <time>2021-10-09 14:38:24</time>
      </trkpt>
      <trkpt lat="40.38892" lon="-1.90443">
        <ele>1479.8</ele>
        <time>2021-10-09 14:38:25</time>
      </trkpt>
      <trkpt lat="40.3889" lon="-1.90439">
        <ele>1479.8</ele>
        <time>2021-10-09 14:38:26</time>
      </trkpt>
      <trkpt lat="40.38889" lon="-1.90436">
        <ele>1480.2</ele>
        <time>2021-10-09 14:38:27</time>
      </trkpt>
      <trkpt lat="40.38888" lon="-1.90434">
        <ele>1480.2</ele>
        <time>2021-10-09 14:38:28</time>
      </trkpt>
      <trkpt lat="40.38887" lon="-1.90432">
        <ele>1480.4</ele>
        <time>2021-10-09 14:38:29</time>
      </trkpt>
      <trkpt lat="40.38886" lon="-1.90429">
        <ele>1480.4</ele>
        <time>2021-10-09 14:38:30</time>
      </trkpt>
      <trkpt lat="40.38884" lon="-1.90426">
        <ele>1480.6</ele>
        <time>2021-10-09 14:38:31</time>
      </trkpt>
      <trkpt lat="40.38883" lon="-1.90424">
        <ele>1480.8</ele>
        <time>2021-10-09 14:38:32</time>
      </trkpt>
      <trkpt lat="40.38882" lon="-1.90421">
        <ele>1480.8</ele>
        <time>2021-10-09 14:38:33</time>
      </trkpt>
      <trkpt lat="40.38881" lon="-1.90419">
        <ele>1481.2</ele>
        <time>2021-10-09 14:38:34</time>
      </trkpt>
      <trkpt lat="40.3888" lon="-1.90417">
        <ele>1481.2</ele>
        <time>2021-10-09 14:38:35</time>
      </trkpt>
      <trkpt lat="40.38879" lon="-1.90414">
        <ele>1481.6</ele>
        <time>2021-10-09 14:38:36</time>
      </trkpt>
      <trkpt lat="40.38878" lon="-1.90412">
        <ele>1481.6</ele>
        <time>2021-10-09 14:38:37</time>
      </trkpt>
      <trkpt lat="40.38877" lon="-1.9041">
        <ele>1481.8</ele>
        <time>2021-10-09 14:38:38</time>
      </trkpt>
      <trkpt lat="40.38875" lon="-1.90408">
        <ele>1481.8</ele>
        <time>2021-10-09 14:38:39</time>
      </trkpt>
      <trkpt lat="40.38874" lon="-1.90405">
        <ele>1482</ele>
        <time>2021-10-09 14:38:40</time>
      </trkpt>
      <trkpt lat="40.38872" lon="-1.90403">
        <ele>1482</ele>
        <time>2021-10-09 14:38:41</time>
      </trkpt>
      <trkpt lat="40.38871" lon="-1.904">
        <ele>1482</ele>
        <time>2021-10-09 14:38:42</time>
      </trkpt>
      <trkpt lat="40.3887" lon="-1.90398">
        <ele>1482.4</ele>
        <time>2021-10-09 14:38:43</time>
      </trkpt>
      <trkpt lat="40.38869" lon="-1.90396">
        <ele>1482.4</ele>
        <time>2021-10-09 14:38:44</time>
      </trkpt>
      <trkpt lat="40.38867" lon="-1.90394">
        <ele>1482.8</ele>
        <time>2021-10-09 14:38:45</time>
      </trkpt>
      <trkpt lat="40.38866" lon="-1.90391">
        <ele>1482.8</ele>
        <time>2021-10-09 14:38:46</time>
      </trkpt>
      <trkpt lat="40.38865" lon="-1.90389">
        <ele>1482.8</ele>
        <time>2021-10-09 14:38:47</time>
      </trkpt>
      <trkpt lat="40.38864" lon="-1.90386">
        <ele>1483.2</ele>
        <time>2021-10-09 14:38:48</time>
      </trkpt>
      <trkpt lat="40.38863" lon="-1.90384">
        <ele>1483.4</ele>
        <time>2021-10-09 14:38:49</time>
      </trkpt>
      <trkpt lat="40.38862" lon="-1.90382">
        <ele>1483.4</ele>
        <time>2021-10-09 14:38:50</time>
      </trkpt>
      <trkpt lat="40.38861" lon="-1.90379">
        <ele>1483.6</ele>
        <time>2021-10-09 14:38:51</time>
      </trkpt>
      <trkpt lat="40.38859" lon="-1.90378">
        <ele>1483.6</ele>
        <time>2021-10-09 14:38:52</time>
      </trkpt>
      <trkpt lat="40.38858" lon="-1.90376">
        <ele>1484</ele>
        <time>2021-10-09 14:38:53</time>
      </trkpt>
      <trkpt lat="40.38857" lon="-1.90374">
        <ele>1484</ele>
        <time>2021-10-09 14:38:54</time>
      </trkpt>
      <trkpt lat="40.38856" lon="-1.90372">
        <ele>1484.2</ele>
        <time>2021-10-09 14:38:55</time>
      </trkpt>
      <trkpt lat="40.38855" lon="-1.9037">
        <ele>1484.2</ele>
        <time>2021-10-09 14:38:56</time>
      </trkpt>
      <trkpt lat="40.38853" lon="-1.90367">
        <ele>1484.6</ele>
        <time>2021-10-09 14:38:57</time>
      </trkpt>
      <trkpt lat="40.38852" lon="-1.90365">
        <ele>1484.8</ele>
        <time>2021-10-09 14:38:58</time>
      </trkpt>
      <trkpt lat="40.38852" lon="-1.90363">
        <ele>1485</ele>
        <time>2021-10-09 14:38:59</time>
      </trkpt>
      <trkpt lat="40.38851" lon="-1.90361">
        <ele>1485</ele>
        <time>2021-10-09 14:39:00</time>
      </trkpt>
      <trkpt lat="40.3885" lon="-1.90359">
        <ele>1485.4</ele>
        <time>2021-10-09 14:39:01</time>
      </trkpt>
      <trkpt lat="40.38849" lon="-1.90356">
        <ele>1485.8</ele>
        <time>2021-10-09 14:39:02</time>
      </trkpt>
      <trkpt lat="40.38848" lon="-1.90355">
        <ele>1486</ele>
        <time>2021-10-09 14:39:03</time>
      </trkpt>
      <trkpt lat="40.38847" lon="-1.90354">
        <ele>1486</ele>
        <time>2021-10-09 14:39:04</time>
      </trkpt>
      <trkpt lat="40.38846" lon="-1.90352">
        <ele>1486.4</ele>
        <time>2021-10-09 14:39:05</time>
      </trkpt>
      <trkpt lat="40.38844" lon="-1.90351">
        <ele>1486.4</ele>
        <time>2021-10-09 14:39:06</time>
      </trkpt>
      <trkpt lat="40.38843" lon="-1.90349">
        <ele>1486.8</ele>
        <time>2021-10-09 14:39:07</time>
      </trkpt>
      <trkpt lat="40.38842" lon="-1.90347">
        <ele>1486.8</ele>
        <time>2021-10-09 14:39:08</time>
      </trkpt>
      <trkpt lat="40.38841" lon="-1.90345">
        <ele>1487</ele>
        <time>2021-10-09 14:39:09</time>
      </trkpt>
      <trkpt lat="40.3884" lon="-1.90343">
        <ele>1487</ele>
        <time>2021-10-09 14:39:10</time>
      </trkpt>
      <trkpt lat="40.38839" lon="-1.90341">
        <ele>1487.4</ele>
        <time>2021-10-09 14:39:11</time>
      </trkpt>
      <trkpt lat="40.38838" lon="-1.90339">
        <ele>1487.6</ele>
        <time>2021-10-09 14:39:12</time>
      </trkpt>
      <trkpt lat="40.38837" lon="-1.90337">
        <ele>1487.8</ele>
        <time>2021-10-09 14:39:13</time>
      </trkpt>
      <trkpt lat="40.38836" lon="-1.90335">
        <ele>1487.8</ele>
        <time>2021-10-09 14:39:14</time>
      </trkpt>
      <trkpt lat="40.38835" lon="-1.90333">
        <ele>1488.2</ele>
        <time>2021-10-09 14:39:15</time>
      </trkpt>
      <trkpt lat="40.38834" lon="-1.90331">
        <ele>1488.2</ele>
        <time>2021-10-09 14:39:16</time>
      </trkpt>
      <trkpt lat="40.38832" lon="-1.9033">
        <ele>1488.2</ele>
        <time>2021-10-09 14:39:17</time>
      </trkpt>
      <trkpt lat="40.38831" lon="-1.90328">
        <ele>1488.4</ele>
        <time>2021-10-09 14:39:18</time>
      </trkpt>
      <trkpt lat="40.38829" lon="-1.90326">
        <ele>1488.4</ele>
        <time>2021-10-09 14:39:19</time>
      </trkpt>
      <trkpt lat="40.38827" lon="-1.90324">
        <ele>1488.8</ele>
        <time>2021-10-09 14:39:20</time>
      </trkpt>
      <trkpt lat="40.38826" lon="-1.90323">
        <ele>1488.8</ele>
        <time>2021-10-09 14:39:21</time>
      </trkpt>
      <trkpt lat="40.38824" lon="-1.90321">
        <ele>1489</ele>
        <time>2021-10-09 14:39:22</time>
      </trkpt>
      <trkpt lat="40.38822" lon="-1.90319">
        <ele>1489</ele>
        <time>2021-10-09 14:39:23</time>
      </trkpt>
      <trkpt lat="40.38821" lon="-1.90318">
        <ele>1489.4</ele>
        <time>2021-10-09 14:39:24</time>
      </trkpt>
      <trkpt lat="40.38819" lon="-1.90317">
        <ele>1489.4</ele>
        <time>2021-10-09 14:39:25</time>
      </trkpt>
      <trkpt lat="40.38818" lon="-1.90317">
        <ele>1489.8</ele>
        <time>2021-10-09 14:39:26</time>
      </trkpt>
      <trkpt lat="40.38816" lon="-1.90316">
        <ele>1489.8</ele>
        <time>2021-10-09 14:39:27</time>
      </trkpt>
      <trkpt lat="40.38814" lon="-1.90315">
        <ele>1490</ele>
        <time>2021-10-09 14:39:28</time>
      </trkpt>
      <trkpt lat="40.38812" lon="-1.90315">
        <ele>1490.2</ele>
        <time>2021-10-09 14:39:29</time>
      </trkpt>
      <trkpt lat="40.3881" lon="-1.90315">
        <ele>1490.6</ele>
        <time>2021-10-09 14:39:30</time>
      </trkpt>
      <trkpt lat="40.38809" lon="-1.90315">
        <ele>1490.8</ele>
        <time>2021-10-09 14:39:31</time>
      </trkpt>
      <trkpt lat="40.38807" lon="-1.90315">
        <ele>1491</ele>
        <time>2021-10-09 14:39:32</time>
      </trkpt>
      <trkpt lat="40.38805" lon="-1.90314">
        <ele>1491.2</ele>
        <time>2021-10-09 14:39:33</time>
      </trkpt>
      <trkpt lat="40.38804" lon="-1.90314">
        <ele>1491.4</ele>
        <time>2021-10-09 14:39:34</time>
      </trkpt>
      <trkpt lat="40.38802" lon="-1.90314">
        <ele>1491.6</ele>
        <time>2021-10-09 14:39:35</time>
      </trkpt>
      <trkpt lat="40.38801" lon="-1.90313">
        <ele>1491.6</ele>
        <time>2021-10-09 14:39:36</time>
      </trkpt>
      <trkpt lat="40.38799" lon="-1.90312">
        <ele>1492</ele>
        <time>2021-10-09 14:39:37</time>
      </trkpt>
      <trkpt lat="40.38797" lon="-1.9031">
        <ele>1492.4</ele>
        <time>2021-10-09 14:39:38</time>
      </trkpt>
      <trkpt lat="40.38796" lon="-1.90309">
        <ele>1492.4</ele>
        <time>2021-10-09 14:39:39</time>
      </trkpt>
      <trkpt lat="40.38795" lon="-1.90307">
        <ele>1492.6</ele>
        <time>2021-10-09 14:39:40</time>
      </trkpt>
      <trkpt lat="40.38794" lon="-1.90306">
        <ele>1492.6</ele>
        <time>2021-10-09 14:39:41</time>
      </trkpt>
      <trkpt lat="40.38794" lon="-1.90305">
        <ele>1493</ele>
        <time>2021-10-09 14:39:42</time>
      </trkpt>
      <trkpt lat="40.38792" lon="-1.90303">
        <ele>1493</ele>
        <time>2021-10-09 14:39:43</time>
      </trkpt>
      <trkpt lat="40.38791" lon="-1.90301">
        <ele>1493.2</ele>
        <time>2021-10-09 14:39:44</time>
      </trkpt>
      <trkpt lat="40.38789" lon="-1.90299">
        <ele>1493.2</ele>
        <time>2021-10-09 14:39:45</time>
      </trkpt>
      <trkpt lat="40.38787" lon="-1.90297">
        <ele>1493.6</ele>
        <time>2021-10-09 14:39:46</time>
      </trkpt>
      <trkpt lat="40.38786" lon="-1.90295">
        <ele>1493.8</ele>
        <time>2021-10-09 14:39:47</time>
      </trkpt>
      <trkpt lat="40.38785" lon="-1.90294">
        <ele>1493.8</ele>
        <time>2021-10-09 14:39:48</time>
      </trkpt>
      <trkpt lat="40.38784" lon="-1.90292">
        <ele>1494.2</ele>
        <time>2021-10-09 14:39:49</time>
      </trkpt>
      <trkpt lat="40.38783" lon="-1.9029">
        <ele>1494.2</ele>
        <time>2021-10-09 14:39:50</time>
      </trkpt>
      <trkpt lat="40.38782" lon="-1.90288">
        <ele>1494.6</ele>
        <time>2021-10-09 14:39:51</time>
      </trkpt>
      <trkpt lat="40.38781" lon="-1.90286">
        <ele>1494.6</ele>
        <time>2021-10-09 14:39:52</time>
      </trkpt>
      <trkpt lat="40.38779" lon="-1.90284">
        <ele>1494.8</ele>
        <time>2021-10-09 14:39:53</time>
      </trkpt>
      <trkpt lat="40.38778" lon="-1.90282">
        <ele>1494.8</ele>
        <time>2021-10-09 14:39:54</time>
      </trkpt>
      <trkpt lat="40.38777" lon="-1.90281">
        <ele>1495.2</ele>
        <time>2021-10-09 14:39:55</time>
      </trkpt>
      <trkpt lat="40.38776" lon="-1.90279">
        <ele>1495.4</ele>
        <time>2021-10-09 14:39:56</time>
      </trkpt>
      <trkpt lat="40.38775" lon="-1.90278">
        <ele>1495.8</ele>
        <time>2021-10-09 14:39:57</time>
      </trkpt>
      <trkpt lat="40.38774" lon="-1.90276">
        <ele>1496.2</ele>
        <time>2021-10-09 14:39:58</time>
      </trkpt>
      <trkpt lat="40.38774" lon="-1.90274">
        <ele>1496.6</ele>
        <time>2021-10-09 14:39:59</time>
      </trkpt>
      <trkpt lat="40.38773" lon="-1.90272">
        <ele>1496.6</ele>
        <time>2021-10-09 14:40:00</time>
      </trkpt>
      <trkpt lat="40.38771" lon="-1.9027">
        <ele>1496.8</ele>
        <time>2021-10-09 14:40:01</time>
      </trkpt>
      <trkpt lat="40.3877" lon="-1.90268">
        <ele>1496.8</ele>
        <time>2021-10-09 14:40:02</time>
      </trkpt>
      <trkpt lat="40.38769" lon="-1.90266">
        <ele>1497</ele>
        <time>2021-10-09 14:40:03</time>
      </trkpt>
      <trkpt lat="40.38768" lon="-1.90264">
        <ele>1497</ele>
        <time>2021-10-09 14:40:04</time>
      </trkpt>
      <trkpt lat="40.38767" lon="-1.90262">
        <ele>1497.4</ele>
        <time>2021-10-09 14:40:05</time>
      </trkpt>
      <trkpt lat="40.38766" lon="-1.9026">
        <ele>1497.8</ele>
        <time>2021-10-09 14:40:06</time>
      </trkpt>
      <trkpt lat="40.38766" lon="-1.90258">
        <ele>1497.8</ele>
        <time>2021-10-09 14:40:07</time>
      </trkpt>
      <trkpt lat="40.38765" lon="-1.90256">
        <ele>1498</ele>
        <time>2021-10-09 14:40:08</time>
      </trkpt>
      <trkpt lat="40.38764" lon="-1.90255">
        <ele>1498</ele>
        <time>2021-10-09 14:40:09</time>
      </trkpt>
      <trkpt lat="40.38763" lon="-1.90253">
        <ele>1498.4</ele>
        <time>2021-10-09 14:40:10</time>
      </trkpt>
      <trkpt lat="40.38761" lon="-1.90251">
        <ele>1498.4</ele>
        <time>2021-10-09 14:40:11</time>
      </trkpt>
      <trkpt lat="40.3876" lon="-1.90249">
        <ele>1498.4</ele>
        <time>2021-10-09 14:40:12</time>
      </trkpt>
      <trkpt lat="40.3876" lon="-1.90247">
        <ele>1498.6</ele>
        <time>2021-10-09 14:40:13</time>
      </trkpt>
      <trkpt lat="40.38759" lon="-1.90245">
        <ele>1498.6</ele>
        <time>2021-10-09 14:40:14</time>
      </trkpt>
      <trkpt lat="40.38758" lon="-1.90243">
        <ele>1498.6</ele>
        <time>2021-10-09 14:40:15</time>
      </trkpt>
      <trkpt lat="40.38757" lon="-1.90241">
        <ele>1499</ele>
        <time>2021-10-09 14:40:16</time>
      </trkpt>
      <trkpt lat="40.38756" lon="-1.90239">
        <ele>1499</ele>
        <time>2021-10-09 14:40:17</time>
      </trkpt>
      <trkpt lat="40.38755" lon="-1.90236">
        <ele>1499</ele>
        <time>2021-10-09 14:40:18</time>
      </trkpt>
      <trkpt lat="40.38754" lon="-1.90234">
        <ele>1499.2</ele>
        <time>2021-10-09 14:40:19</time>
      </trkpt>
      <trkpt lat="40.38753" lon="-1.90231">
        <ele>1499.2</ele>
        <time>2021-10-09 14:40:20</time>
      </trkpt>
      <trkpt lat="40.38753" lon="-1.90229">
        <ele>1499.2</ele>
        <time>2021-10-09 14:40:21</time>
      </trkpt>
      <trkpt lat="40.38752" lon="-1.90226">
        <ele>1499.6</ele>
        <time>2021-10-09 14:40:22</time>
      </trkpt>
      <trkpt lat="40.38751" lon="-1.90224">
        <ele>1499.6</ele>
        <time>2021-10-09 14:40:23</time>
      </trkpt>
      <trkpt lat="40.3875" lon="-1.90222">
        <ele>1499.6</ele>
        <time>2021-10-09 14:40:24</time>
      </trkpt>
      <trkpt lat="40.3875" lon="-1.9022">
        <ele>1499.8</ele>
        <time>2021-10-09 14:40:25</time>
      </trkpt>
      <trkpt lat="40.38749" lon="-1.90217">
        <ele>1499.8</ele>
        <time>2021-10-09 14:40:26</time>
      </trkpt>
      <trkpt lat="40.38748" lon="-1.90215">
        <ele>1499.8</ele>
        <time>2021-10-09 14:40:27</time>
      </trkpt>
      <trkpt lat="40.38747" lon="-1.90213">
        <ele>1499.8</ele>
        <time>2021-10-09 14:40:28</time>
      </trkpt>
      <trkpt lat="40.38746" lon="-1.90211">
        <ele>1500</ele>
        <time>2021-10-09 14:40:29</time>
      </trkpt>
      <trkpt lat="40.38745" lon="-1.90209">
        <ele>1500</ele>
        <time>2021-10-09 14:40:30</time>
      </trkpt>
      <trkpt lat="40.38744" lon="-1.90208">
        <ele>1500</ele>
        <time>2021-10-09 14:40:31</time>
      </trkpt>
      <trkpt lat="40.38743" lon="-1.90206">
        <ele>1500.2</ele>
        <time>2021-10-09 14:40:32</time>
      </trkpt>
      <trkpt lat="40.38742" lon="-1.90203">
        <ele>1500.2</ele>
        <time>2021-10-09 14:40:33</time>
      </trkpt>
      <trkpt lat="40.38741" lon="-1.902">
        <ele>1500.6</ele>
        <time>2021-10-09 14:40:34</time>
      </trkpt>
      <trkpt lat="40.3874" lon="-1.90197">
        <ele>1500.6</ele>
        <time>2021-10-09 14:40:35</time>
      </trkpt>
      <trkpt lat="40.38739" lon="-1.90194">
        <ele>1500.8</ele>
        <time>2021-10-09 14:40:36</time>
      </trkpt>
      <trkpt lat="40.38738" lon="-1.90191">
        <ele>1501.2</ele>
        <time>2021-10-09 14:40:37</time>
      </trkpt>
      <trkpt lat="40.38737" lon="-1.90189">
        <ele>1501.4</ele>
        <time>2021-10-09 14:40:38</time>
      </trkpt>
      <trkpt lat="40.38737" lon="-1.90187">
        <ele>1501.6</ele>
        <time>2021-10-09 14:40:39</time>
      </trkpt>
      <trkpt lat="40.38737" lon="-1.90186">
        <ele>1501.6</ele>
        <time>2021-10-09 14:40:40</time>
      </trkpt>
      <trkpt lat="40.38736" lon="-1.90184">
        <ele>1501.6</ele>
        <time>2021-10-09 14:40:41</time>
      </trkpt>
      <trkpt lat="40.38736" lon="-1.90182">
        <ele>1501.8</ele>
        <time>2021-10-09 14:40:42</time>
      </trkpt>
      <trkpt lat="40.38736" lon="-1.9018">
        <ele>1501.8</ele>
        <time>2021-10-09 14:40:43</time>
      </trkpt>
      <trkpt lat="40.38736" lon="-1.90177">
        <ele>1501.8</ele>
        <time>2021-10-09 14:40:44</time>
      </trkpt>
      <trkpt lat="40.38735" lon="-1.90176">
        <ele>1502</ele>
        <time>2021-10-09 14:40:45</time>
      </trkpt>
      <trkpt lat="40.38735" lon="-1.90175">
        <ele>1502</ele>
        <time>2021-10-09 14:40:46</time>
      </trkpt>
      <trkpt lat="40.38735" lon="-1.90172">
        <ele>1502.4</ele>
        <time>2021-10-09 14:40:47</time>
      </trkpt>
      <trkpt lat="40.38734" lon="-1.90171">
        <ele>1502.4</ele>
        <time>2021-10-09 14:40:48</time>
      </trkpt>
      <trkpt lat="40.38733" lon="-1.90169">
        <ele>1502.8</ele>
        <time>2021-10-09 14:40:49</time>
      </trkpt>
      <trkpt lat="40.38732" lon="-1.90166">
        <ele>1502.8</ele>
        <time>2021-10-09 14:40:50</time>
      </trkpt>
      <trkpt lat="40.38731" lon="-1.90164">
        <ele>1503</ele>
        <time>2021-10-09 14:40:51</time>
      </trkpt>
      <trkpt lat="40.3873" lon="-1.90162">
        <ele>1503</ele>
        <time>2021-10-09 14:40:52</time>
      </trkpt>
      <trkpt lat="40.38729" lon="-1.90161">
        <ele>1503.4</ele>
        <time>2021-10-09 14:40:53</time>
      </trkpt>
      <trkpt lat="40.38728" lon="-1.90159">
        <ele>1503.4</ele>
        <time>2021-10-09 14:40:54</time>
      </trkpt>
      <trkpt lat="40.38728" lon="-1.90157">
        <ele>1503.8</ele>
        <time>2021-10-09 14:40:55</time>
      </trkpt>
      <trkpt lat="40.38726" lon="-1.90155">
        <ele>1503.8</ele>
        <time>2021-10-09 14:40:56</time>
      </trkpt>
      <trkpt lat="40.38725" lon="-1.90153">
        <ele>1504</ele>
        <time>2021-10-09 14:40:57</time>
      </trkpt>
      <trkpt lat="40.38724" lon="-1.90151">
        <ele>1504</ele>
        <time>2021-10-09 14:40:58</time>
      </trkpt>
      <trkpt lat="40.38723" lon="-1.90149">
        <ele>1504.4</ele>
        <time>2021-10-09 14:40:59</time>
      </trkpt>
      <trkpt lat="40.38722" lon="-1.90147">
        <ele>1504.4</ele>
        <time>2021-10-09 14:41:00</time>
      </trkpt>
      <trkpt lat="40.38722" lon="-1.90145">
        <ele>1505</ele>
        <time>2021-10-09 14:41:01</time>
      </trkpt>
      <trkpt lat="40.38721" lon="-1.90143">
        <ele>1505.2</ele>
        <time>2021-10-09 14:41:02</time>
      </trkpt>
      <trkpt lat="40.3872" lon="-1.90141">
        <ele>1505.4</ele>
        <time>2021-10-09 14:41:03</time>
      </trkpt>
      <trkpt lat="40.38719" lon="-1.90139">
        <ele>1505.4</ele>
        <time>2021-10-09 14:41:04</time>
      </trkpt>
      <trkpt lat="40.38718" lon="-1.90137">
        <ele>1505.6</ele>
        <time>2021-10-09 14:41:05</time>
      </trkpt>
      <trkpt lat="40.38717" lon="-1.90135">
        <ele>1505.6</ele>
        <time>2021-10-09 14:41:06</time>
      </trkpt>
      <trkpt lat="40.38716" lon="-1.90133">
        <ele>1506</ele>
        <time>2021-10-09 14:41:07</time>
      </trkpt>
      <trkpt lat="40.38714" lon="-1.90132">
        <ele>1506</ele>
        <time>2021-10-09 14:41:08</time>
      </trkpt>
      <trkpt lat="40.38713" lon="-1.9013">
        <ele>1506.4</ele>
        <time>2021-10-09 14:41:09</time>
      </trkpt>
      <trkpt lat="40.38712" lon="-1.90128">
        <ele>1506.6</ele>
        <time>2021-10-09 14:41:10</time>
      </trkpt>
      <trkpt lat="40.38711" lon="-1.90126">
        <ele>1506.6</ele>
        <time>2021-10-09 14:41:11</time>
      </trkpt>
      <trkpt lat="40.3871" lon="-1.90123">
        <ele>1507</ele>
        <time>2021-10-09 14:41:12</time>
      </trkpt>
      <trkpt lat="40.38709" lon="-1.90121">
        <ele>1507.2</ele>
        <time>2021-10-09 14:41:13</time>
      </trkpt>
      <trkpt lat="40.38708" lon="-1.90119">
        <ele>1507.2</ele>
        <time>2021-10-09 14:41:14</time>
      </trkpt>
      <trkpt lat="40.38707" lon="-1.90117">
        <ele>1507.4</ele>
        <time>2021-10-09 14:41:15</time>
      </trkpt>
      <trkpt lat="40.38707" lon="-1.90115">
        <ele>1507.4</ele>
        <time>2021-10-09 14:41:16</time>
      </trkpt>
      <trkpt lat="40.38706" lon="-1.90112">
        <ele>1507.8</ele>
        <time>2021-10-09 14:41:17</time>
      </trkpt>
      <trkpt lat="40.38704" lon="-1.9011">
        <ele>1507.8</ele>
        <time>2021-10-09 14:41:18</time>
      </trkpt>
      <trkpt lat="40.38703" lon="-1.90108">
        <ele>1508.2</ele>
        <time>2021-10-09 14:41:19</time>
      </trkpt>
      <trkpt lat="40.38702" lon="-1.90106">
        <ele>1508.2</ele>
        <time>2021-10-09 14:41:20</time>
      </trkpt>
      <trkpt lat="40.38701" lon="-1.90104">
        <ele>1508.6</ele>
        <time>2021-10-09 14:41:21</time>
      </trkpt>
      <trkpt lat="40.387" lon="-1.90102">
        <ele>1508.6</ele>
        <time>2021-10-09 14:41:22</time>
      </trkpt>
      <trkpt lat="40.38699" lon="-1.90101">
        <ele>1508.8</ele>
        <time>2021-10-09 14:41:23</time>
      </trkpt>
      <trkpt lat="40.38698" lon="-1.901">
        <ele>1508.8</ele>
        <time>2021-10-09 14:41:24</time>
      </trkpt>
      <trkpt lat="40.38696" lon="-1.90098">
        <ele>1509.2</ele>
        <time>2021-10-09 14:41:25</time>
      </trkpt>
      <trkpt lat="40.38694" lon="-1.90097">
        <ele>1509.2</ele>
        <time>2021-10-09 14:41:26</time>
      </trkpt>
      <trkpt lat="40.38693" lon="-1.90095">
        <ele>1509.6</ele>
        <time>2021-10-09 14:41:27</time>
      </trkpt>
      <trkpt lat="40.38692" lon="-1.90093">
        <ele>1509.6</ele>
        <time>2021-10-09 14:41:28</time>
      </trkpt>
      <trkpt lat="40.38691" lon="-1.90091">
        <ele>1510</ele>
        <time>2021-10-09 14:41:29</time>
      </trkpt>
      <trkpt lat="40.38691" lon="-1.90089">
        <ele>1510</ele>
        <time>2021-10-09 14:41:30</time>
      </trkpt>
      <trkpt lat="40.3869" lon="-1.90086">
        <ele>1510.2</ele>
        <time>2021-10-09 14:41:31</time>
      </trkpt>
      <trkpt lat="40.38689" lon="-1.90084">
        <ele>1510.6</ele>
        <time>2021-10-09 14:41:32</time>
      </trkpt>
      <trkpt lat="40.38688" lon="-1.90082">
        <ele>1510.6</ele>
        <time>2021-10-09 14:41:33</time>
      </trkpt>
      <trkpt lat="40.38687" lon="-1.9008">
        <ele>1510.8</ele>
        <time>2021-10-09 14:41:34</time>
      </trkpt>
      <trkpt lat="40.38686" lon="-1.90077">
        <ele>1511</ele>
        <time>2021-10-09 14:41:35</time>
      </trkpt>
      <trkpt lat="40.38684" lon="-1.90074">
        <ele>1511</ele>
        <time>2021-10-09 14:41:36</time>
      </trkpt>
      <trkpt lat="40.38683" lon="-1.90072">
        <ele>1511.2</ele>
        <time>2021-10-09 14:41:37</time>
      </trkpt>
      <trkpt lat="40.38682" lon="-1.9007">
        <ele>1511.2</ele>
        <time>2021-10-09 14:41:38</time>
      </trkpt>
      <trkpt lat="40.38681" lon="-1.90068">
        <ele>1511.4</ele>
        <time>2021-10-09 14:41:39</time>
      </trkpt>
      <trkpt lat="40.3868" lon="-1.90066">
        <ele>1511.4</ele>
        <time>2021-10-09 14:41:40</time>
      </trkpt>
      <trkpt lat="40.38679" lon="-1.90063">
        <ele>1511.4</ele>
        <time>2021-10-09 14:41:41</time>
      </trkpt>
      <trkpt lat="40.38678" lon="-1.90062">
        <ele>1511.8</ele>
        <time>2021-10-09 14:41:42</time>
      </trkpt>
      <trkpt lat="40.38678" lon="-1.90061">
        <ele>1511.8</ele>
        <time>2021-10-09 14:41:43</time>
      </trkpt>
      <trkpt lat="40.38678" lon="-1.90059">
        <ele>1511.8</ele>
        <time>2021-10-09 14:41:44</time>
      </trkpt>
      <trkpt lat="40.38677" lon="-1.90056">
        <ele>1512.2</ele>
        <time>2021-10-09 14:41:45</time>
      </trkpt>
      <trkpt lat="40.38676" lon="-1.90053">
        <ele>1512.2</ele>
        <time>2021-10-09 14:41:46</time>
      </trkpt>
      <trkpt lat="40.38676" lon="-1.90051">
        <ele>1512.4</ele>
        <time>2021-10-09 14:41:47</time>
      </trkpt>
      <trkpt lat="40.38675" lon="-1.90049">
        <ele>1512.4</ele>
        <time>2021-10-09 14:41:48</time>
      </trkpt>
      <trkpt lat="40.38674" lon="-1.90047">
        <ele>1512.4</ele>
        <time>2021-10-09 14:41:49</time>
      </trkpt>
      <trkpt lat="40.38673" lon="-1.90045">
        <ele>1512.8</ele>
        <time>2021-10-09 14:41:50</time>
      </trkpt>
      <trkpt lat="40.38672" lon="-1.90043">
        <ele>1512.8</ele>
        <time>2021-10-09 14:41:51</time>
      </trkpt>
      <trkpt lat="40.3867" lon="-1.9004">
        <ele>1513</ele>
        <time>2021-10-09 14:41:52</time>
      </trkpt>
      <trkpt lat="40.38669" lon="-1.90037">
        <ele>1513</ele>
        <time>2021-10-09 14:41:53</time>
      </trkpt>
      <trkpt lat="40.38668" lon="-1.90034">
        <ele>1513</ele>
        <time>2021-10-09 14:41:54</time>
      </trkpt>
      <trkpt lat="40.38667" lon="-1.90032">
        <ele>1513</ele>
        <time>2021-10-09 14:41:55</time>
      </trkpt>
      <trkpt lat="40.38666" lon="-1.9003">
        <ele>1513.2</ele>
        <time>2021-10-09 14:41:56</time>
      </trkpt>
      <trkpt lat="40.38664" lon="-1.90028">
        <ele>1513.6</ele>
        <time>2021-10-09 14:41:57</time>
      </trkpt>
      <trkpt lat="40.38663" lon="-1.90026">
        <ele>1513.6</ele>
        <time>2021-10-09 14:41:58</time>
      </trkpt>
      <trkpt lat="40.38662" lon="-1.90024">
        <ele>1513.8</ele>
        <time>2021-10-09 14:41:59</time>
      </trkpt>
      <trkpt lat="40.38661" lon="-1.90022">
        <ele>1513.8</ele>
        <time>2021-10-09 14:42:00</time>
      </trkpt>
      <trkpt lat="40.3866" lon="-1.90019">
        <ele>1514.2</ele>
        <time>2021-10-09 14:42:01</time>
      </trkpt>
      <trkpt lat="40.38659" lon="-1.90017">
        <ele>1514.2</ele>
        <time>2021-10-09 14:42:02</time>
      </trkpt>
      <trkpt lat="40.38659" lon="-1.90014">
        <ele>1514.2</ele>
        <time>2021-10-09 14:42:03</time>
      </trkpt>
      <trkpt lat="40.38659" lon="-1.90014">
        <ele>1514.4</ele>
        <time>2021-10-09 14:42:04</time>
      </trkpt>
      <trkpt lat="40.38653" lon="-1.90005">
        <ele>1514.6</ele>
        <time>2021-10-09 14:42:05</time>
      </trkpt>
      <trkpt lat="40.38652" lon="-1.90003">
        <ele>1514.6</ele>
        <time>2021-10-09 14:42:06</time>
      </trkpt>
      <trkpt lat="40.38651" lon="-1.90001">
        <ele>1514.6</ele>
        <time>2021-10-09 14:42:07</time>
      </trkpt>
      <trkpt lat="40.3865" lon="-1.89999">
        <ele>1514.6</ele>
        <time>2021-10-09 14:42:08</time>
      </trkpt>
      <trkpt lat="40.38649" lon="-1.89996">
        <ele>1515</ele>
        <time>2021-10-09 14:42:09</time>
      </trkpt>
      <trkpt lat="40.38648" lon="-1.89994">
        <ele>1515</ele>
        <time>2021-10-09 14:42:10</time>
      </trkpt>
      <trkpt lat="40.38647" lon="-1.89991">
        <ele>1515.2</ele>
        <time>2021-10-09 14:42:11</time>
      </trkpt>
      <trkpt lat="40.38646" lon="-1.89988">
        <ele>1515.2</ele>
        <time>2021-10-09 14:42:12</time>
      </trkpt>
      <trkpt lat="40.38645" lon="-1.89986">
        <ele>1515.4</ele>
        <time>2021-10-09 14:42:13</time>
      </trkpt>
      <trkpt lat="40.38643" lon="-1.89983">
        <ele>1515.4</ele>
        <time>2021-10-09 14:42:14</time>
      </trkpt>
      <trkpt lat="40.38642" lon="-1.89981">
        <ele>1515.6</ele>
        <time>2021-10-09 14:42:15</time>
      </trkpt>
      <trkpt lat="40.3864" lon="-1.89979">
        <ele>1515.6</ele>
        <time>2021-10-09 14:42:16</time>
      </trkpt>
      <trkpt lat="40.38639" lon="-1.89977">
        <ele>1515.6</ele>
        <time>2021-10-09 14:42:17</time>
      </trkpt>
      <trkpt lat="40.38638" lon="-1.89975">
        <ele>1516</ele>
        <time>2021-10-09 14:42:18</time>
      </trkpt>
      <trkpt lat="40.38636" lon="-1.89973">
        <ele>1516</ele>
        <time>2021-10-09 14:42:19</time>
      </trkpt>
      <trkpt lat="40.38635" lon="-1.89971">
        <ele>1516.2</ele>
        <time>2021-10-09 14:42:20</time>
      </trkpt>
      <trkpt lat="40.38633" lon="-1.89969">
        <ele>1516.2</ele>
        <time>2021-10-09 14:42:21</time>
      </trkpt>
      <trkpt lat="40.38631" lon="-1.89967">
        <ele>1516.2</ele>
        <time>2021-10-09 14:42:22</time>
      </trkpt>
      <trkpt lat="40.3863" lon="-1.89965">
        <ele>1516.6</ele>
        <time>2021-10-09 14:42:23</time>
      </trkpt>
      <trkpt lat="40.38629" lon="-1.89963">
        <ele>1516.6</ele>
        <time>2021-10-09 14:42:24</time>
      </trkpt>
      <trkpt lat="40.38628" lon="-1.89962">
        <ele>1516.6</ele>
        <time>2021-10-09 14:42:25</time>
      </trkpt>
      <trkpt lat="40.38627" lon="-1.8996">
        <ele>1516.8</ele>
        <time>2021-10-09 14:42:26</time>
      </trkpt>
      <trkpt lat="40.38625" lon="-1.89958">
        <ele>1516.8</ele>
        <time>2021-10-09 14:42:27</time>
      </trkpt>
      <trkpt lat="40.38624" lon="-1.89956">
        <ele>1516.8</ele>
        <time>2021-10-09 14:42:28</time>
      </trkpt>
      <trkpt lat="40.38623" lon="-1.89955">
        <ele>1517</ele>
        <time>2021-10-09 14:42:29</time>
      </trkpt>
      <trkpt lat="40.38623" lon="-1.89955">
        <ele>1517</ele>
        <time>2021-10-09 14:42:30</time>
      </trkpt>
      <trkpt lat="40.38621" lon="-1.89953">
        <ele>1517</ele>
        <time>2021-10-09 14:42:31</time>
      </trkpt>
      <trkpt lat="40.3862" lon="-1.8995">
        <ele>1517</ele>
        <time>2021-10-09 14:42:32</time>
      </trkpt>
      <trkpt lat="40.38618" lon="-1.89948">
        <ele>1517</ele>
        <time>2021-10-09 14:42:33</time>
      </trkpt>
      <trkpt lat="40.38616" lon="-1.89946">
        <ele>1517</ele>
        <time>2021-10-09 14:42:34</time>
      </trkpt>
      <trkpt lat="40.38614" lon="-1.89943">
        <ele>1517</ele>
        <time>2021-10-09 14:42:35</time>
      </trkpt>
      <trkpt lat="40.38612" lon="-1.89941">
        <ele>1517.4</ele>
        <time>2021-10-09 14:42:36</time>
      </trkpt>
      <trkpt lat="40.38611" lon="-1.89938">
        <ele>1517.4</ele>
        <time>2021-10-09 14:42:37</time>
      </trkpt>
      <trkpt lat="40.38609" lon="-1.89935">
        <ele>1517.4</ele>
        <time>2021-10-09 14:42:38</time>
      </trkpt>
      <trkpt lat="40.38608" lon="-1.89933">
        <ele>1517.4</ele>
        <time>2021-10-09 14:42:39</time>
      </trkpt>
      <trkpt lat="40.38606" lon="-1.8993">
        <ele>1517.4</ele>
        <time>2021-10-09 14:42:40</time>
      </trkpt>
      <trkpt lat="40.38605" lon="-1.89928">
        <ele>1517.4</ele>
        <time>2021-10-09 14:42:41</time>
      </trkpt>
      <trkpt lat="40.38603" lon="-1.89926">
        <ele>1517.4</ele>
        <time>2021-10-09 14:42:42</time>
      </trkpt>
      <trkpt lat="40.38601" lon="-1.89924">
        <ele>1517.4</ele>
        <time>2021-10-09 14:42:43</time>
      </trkpt>
      <trkpt lat="40.38599" lon="-1.89922">
        <ele>1517.6</ele>
        <time>2021-10-09 14:42:44</time>
      </trkpt>
      <trkpt lat="40.38598" lon="-1.8992">
        <ele>1517.6</ele>
        <time>2021-10-09 14:42:45</time>
      </trkpt>
      <trkpt lat="40.38596" lon="-1.89918">
        <ele>1518</ele>
        <time>2021-10-09 14:42:46</time>
      </trkpt>
      <trkpt lat="40.38595" lon="-1.89915">
        <ele>1518</ele>
        <time>2021-10-09 14:42:47</time>
      </trkpt>
      <trkpt lat="40.38594" lon="-1.89913">
        <ele>1518</ele>
        <time>2021-10-09 14:42:48</time>
      </trkpt>
      <trkpt lat="40.38592" lon="-1.89911">
        <ele>1518.2</ele>
        <time>2021-10-09 14:42:49</time>
      </trkpt>
      <trkpt lat="40.38591" lon="-1.89909">
        <ele>1518.2</ele>
        <time>2021-10-09 14:42:50</time>
      </trkpt>
      <trkpt lat="40.38589" lon="-1.89907">
        <ele>1518.2</ele>
        <time>2021-10-09 14:42:51</time>
      </trkpt>
      <trkpt lat="40.38587" lon="-1.89905">
        <ele>1518.2</ele>
        <time>2021-10-09 14:42:52</time>
      </trkpt>
      <trkpt lat="40.38586" lon="-1.89903">
        <ele>1518.6</ele>
        <time>2021-10-09 14:42:53</time>
      </trkpt>
      <trkpt lat="40.38583" lon="-1.89899">
        <ele>1518.6</ele>
        <time>2021-10-09 14:42:54</time>
      </trkpt>
      <trkpt lat="40.38581" lon="-1.89896">
        <ele>1518.6</ele>
        <time>2021-10-09 14:42:55</time>
      </trkpt>
      <trkpt lat="40.38579" lon="-1.89894">
        <ele>1518.8</ele>
        <time>2021-10-09 14:42:56</time>
      </trkpt>
      <trkpt lat="40.38577" lon="-1.89892">
        <ele>1518.8</ele>
        <time>2021-10-09 14:42:57</time>
      </trkpt>
      <trkpt lat="40.38575" lon="-1.8989">
        <ele>1518.8</ele>
        <time>2021-10-09 14:42:58</time>
      </trkpt>
      <trkpt lat="40.38573" lon="-1.89889">
        <ele>1518.8</ele>
        <time>2021-10-09 14:42:59</time>
      </trkpt>
      <trkpt lat="40.3857" lon="-1.89887">
        <ele>1518.6</ele>
        <time>2021-10-09 14:43:00</time>
      </trkpt>
      <trkpt lat="40.38567" lon="-1.89887">
        <ele>1518.6</ele>
        <time>2021-10-09 14:43:01</time>
      </trkpt>
      <trkpt lat="40.38565" lon="-1.89887">
        <ele>1518.6</ele>
        <time>2021-10-09 14:43:02</time>
      </trkpt>
      <trkpt lat="40.38564" lon="-1.89888">
        <ele>1518.6</ele>
        <time>2021-10-09 14:43:03</time>
      </trkpt>
      <trkpt lat="40.38562" lon="-1.89889">
        <ele>1518.6</ele>
        <time>2021-10-09 14:43:04</time>
      </trkpt>
      <trkpt lat="40.38561" lon="-1.89891">
        <ele>1518.6</ele>
        <time>2021-10-09 14:43:05</time>
      </trkpt>
      <trkpt lat="40.3856" lon="-1.89892">
        <ele>1518.6</ele>
        <time>2021-10-09 14:43:06</time>
      </trkpt>
      <trkpt lat="40.38559" lon="-1.89895">
        <ele>1518.6</ele>
        <time>2021-10-09 14:43:07</time>
      </trkpt>
      <trkpt lat="40.38558" lon="-1.89897">
        <ele>1518.6</ele>
        <time>2021-10-09 14:43:08</time>
      </trkpt>
      <trkpt lat="40.38557" lon="-1.89899">
        <ele>1518.6</ele>
        <time>2021-10-09 14:43:09</time>
      </trkpt>
      <trkpt lat="40.38556" lon="-1.899">
        <ele>1518.8</ele>
        <time>2021-10-09 14:43:10</time>
      </trkpt>
      <trkpt lat="40.38556" lon="-1.89902">
        <ele>1518.8</ele>
        <time>2021-10-09 14:43:11</time>
      </trkpt>
      <trkpt lat="40.38555" lon="-1.89905">
        <ele>1518.8</ele>
        <time>2021-10-09 14:43:12</time>
      </trkpt>
      <trkpt lat="40.38554" lon="-1.89907">
        <ele>1519.2</ele>
        <time>2021-10-09 14:43:13</time>
      </trkpt>
      <trkpt lat="40.38554" lon="-1.89909">
        <ele>1519.2</ele>
        <time>2021-10-09 14:43:14</time>
      </trkpt>
      <trkpt lat="40.38553" lon="-1.8991">
        <ele>1519.2</ele>
        <time>2021-10-09 14:43:15</time>
      </trkpt>
      <trkpt lat="40.38552" lon="-1.89912">
        <ele>1519.2</ele>
        <time>2021-10-09 14:43:16</time>
      </trkpt>
      <trkpt lat="40.38551" lon="-1.89914">
        <ele>1519.2</ele>
        <time>2021-10-09 14:43:17</time>
      </trkpt>
      <trkpt lat="40.38551" lon="-1.89917">
        <ele>1519.4</ele>
        <time>2021-10-09 14:43:18</time>
      </trkpt>
      <trkpt lat="40.3855" lon="-1.89919">
        <ele>1519.4</ele>
        <time>2021-10-09 14:43:19</time>
      </trkpt>
      <trkpt lat="40.38549" lon="-1.89922">
        <ele>1519.4</ele>
        <time>2021-10-09 14:43:20</time>
      </trkpt>
      <trkpt lat="40.38549" lon="-1.89924">
        <ele>1519.6</ele>
        <time>2021-10-09 14:43:21</time>
      </trkpt>
      <trkpt lat="40.38548" lon="-1.89926">
        <ele>1519.8</ele>
        <time>2021-10-09 14:43:22</time>
      </trkpt>
      <trkpt lat="40.38547" lon="-1.89928">
        <ele>1519.8</ele>
        <time>2021-10-09 14:43:23</time>
      </trkpt>
      <trkpt lat="40.38547" lon="-1.89929">
        <ele>1520</ele>
        <time>2021-10-09 14:43:24</time>
      </trkpt>
      <trkpt lat="40.38547" lon="-1.89929">
        <ele>1520</ele>
        <time>2021-10-09 14:43:25</time>
      </trkpt>
      <trkpt lat="40.38547" lon="-1.89928">
        <ele>1520.2</ele>
        <time>2021-10-09 14:43:26</time>
      </trkpt>
      <trkpt lat="40.38547" lon="-1.89929">
        <ele>1520.4</ele>
        <time>2021-10-09 14:43:27</time>
      </trkpt>
      <trkpt lat="40.38547" lon="-1.89931">
        <ele>1520.4</ele>
        <time>2021-10-09 14:43:28</time>
      </trkpt>
      <trkpt lat="40.38547" lon="-1.89933">
        <ele>1520.4</ele>
        <time>2021-10-09 14:43:29</time>
      </trkpt>
      <trkpt lat="40.38546" lon="-1.89935">
        <ele>1520.6</ele>
        <time>2021-10-09 14:43:30</time>
      </trkpt>
      <trkpt lat="40.38545" lon="-1.89938">
        <ele>1520.6</ele>
        <time>2021-10-09 14:43:31</time>
      </trkpt>
      <trkpt lat="40.38545" lon="-1.8994">
        <ele>1520.6</ele>
        <time>2021-10-09 14:43:32</time>
      </trkpt>
      <trkpt lat="40.38544" lon="-1.89941">
        <ele>1520.6</ele>
        <time>2021-10-09 14:43:33</time>
      </trkpt>
      <trkpt lat="40.38543" lon="-1.89943">
        <ele>1520.6</ele>
        <time>2021-10-09 14:43:34</time>
      </trkpt>
      <trkpt lat="40.38542" lon="-1.89945">
        <ele>1520.6</ele>
        <time>2021-10-09 14:43:35</time>
      </trkpt>
      <trkpt lat="40.38542" lon="-1.89947">
        <ele>1520.6</ele>
        <time>2021-10-09 14:43:36</time>
      </trkpt>
      <trkpt lat="40.38541" lon="-1.89949">
        <ele>1521</ele>
        <time>2021-10-09 14:43:37</time>
      </trkpt>
      <trkpt lat="40.38541" lon="-1.8995">
        <ele>1521</ele>
        <time>2021-10-09 14:43:38</time>
      </trkpt>
      <trkpt lat="40.3854" lon="-1.89952">
        <ele>1521.2</ele>
        <time>2021-10-09 14:43:39</time>
      </trkpt>
      <trkpt lat="40.3854" lon="-1.89953">
        <ele>1521.2</ele>
        <time>2021-10-09 14:43:40</time>
      </trkpt>
      <trkpt lat="40.3854" lon="-1.89955">
        <ele>1521.2</ele>
        <time>2021-10-09 14:43:41</time>
      </trkpt>
      <trkpt lat="40.3854" lon="-1.89957">
        <ele>1521.2</ele>
        <time>2021-10-09 14:43:42</time>
      </trkpt>
      <trkpt lat="40.38539" lon="-1.89958">
        <ele>1521.6</ele>
        <time>2021-10-09 14:43:43</time>
      </trkpt>
      <trkpt lat="40.38539" lon="-1.8996">
        <ele>1521.6</ele>
        <time>2021-10-09 14:43:44</time>
      </trkpt>
      <trkpt lat="40.38539" lon="-1.89962">
        <ele>1521.8</ele>
        <time>2021-10-09 14:43:45</time>
      </trkpt>
      <trkpt lat="40.38539" lon="-1.89964">
        <ele>1521.8</ele>
        <time>2021-10-09 14:43:46</time>
      </trkpt>
      <trkpt lat="40.38538" lon="-1.89967">
        <ele>1522</ele>
        <time>2021-10-09 14:43:47</time>
      </trkpt>
      <trkpt lat="40.38538" lon="-1.89969">
        <ele>1522</ele>
        <time>2021-10-09 14:43:48</time>
      </trkpt>
      <trkpt lat="40.38538" lon="-1.8997">
        <ele>1522</ele>
        <time>2021-10-09 14:43:49</time>
      </trkpt>
      <trkpt lat="40.38538" lon="-1.89972">
        <ele>1522.4</ele>
        <time>2021-10-09 14:43:50</time>
      </trkpt>
      <trkpt lat="40.38538" lon="-1.89973">
        <ele>1522.4</ele>
        <time>2021-10-09 14:43:51</time>
      </trkpt>
      <trkpt lat="40.38537" lon="-1.89975">
        <ele>1522.6</ele>
        <time>2021-10-09 14:43:52</time>
      </trkpt>
      <trkpt lat="40.38537" lon="-1.89977">
        <ele>1522.6</ele>
        <time>2021-10-09 14:43:53</time>
      </trkpt>
      <trkpt lat="40.38536" lon="-1.89978">
        <ele>1523</ele>
        <time>2021-10-09 14:43:54</time>
      </trkpt>
      <trkpt lat="40.38536" lon="-1.89978">
        <ele>1523</ele>
        <time>2021-10-09 14:43:55</time>
      </trkpt>
      <trkpt lat="40.38536" lon="-1.89978">
        <ele>1523.2</ele>
        <time>2021-10-09 14:43:56</time>
      </trkpt>
      <trkpt lat="40.38536" lon="-1.89978">
        <ele>1523.2</ele>
        <time>2021-10-09 14:44:10</time>
      </trkpt>
      <trkpt lat="40.38537" lon="-1.89978">
        <ele>1523.6</ele>
        <time>2021-10-09 14:44:11</time>
      </trkpt>
      <trkpt lat="40.38537" lon="-1.89978">
        <ele>1523.8</ele>
        <time>2021-10-09 14:44:12</time>
      </trkpt>
      <trkpt lat="40.38537" lon="-1.89977">
        <ele>1523.8</ele>
        <time>2021-10-09 14:44:13</time>
      </trkpt>
      <trkpt lat="40.38536" lon="-1.89977">
        <ele>1523.8</ele>
        <time>2021-10-09 14:44:14</time>
      </trkpt>
      <trkpt lat="40.38536" lon="-1.89978">
        <ele>1523.8</ele>
        <time>2021-10-09 14:44:15</time>
      </trkpt>
      <trkpt lat="40.38535" lon="-1.89979">
        <ele>1523.8</ele>
        <time>2021-10-09 14:44:16</time>
      </trkpt>
      <trkpt lat="40.38535" lon="-1.89979">
        <ele>1524.2</ele>
        <time>2021-10-09 14:44:17</time>
      </trkpt>
      <trkpt lat="40.38534" lon="-1.8998">
        <ele>1524.2</ele>
        <time>2021-10-09 14:44:18</time>
      </trkpt>
      <trkpt lat="40.38534" lon="-1.89981">
        <ele>1524.2</ele>
        <time>2021-10-09 14:44:19</time>
      </trkpt>
      <trkpt lat="40.38533" lon="-1.89982">
        <ele>1524.2</ele>
        <time>2021-10-09 14:44:20</time>
      </trkpt>
      <trkpt lat="40.38533" lon="-1.89983">
        <ele>1524.2</ele>
        <time>2021-10-09 14:44:21</time>
      </trkpt>
      <trkpt lat="40.38533" lon="-1.89984">
        <ele>1523.8</ele>
        <time>2021-10-09 14:44:22</time>
      </trkpt>
      <trkpt lat="40.38533" lon="-1.89985">
        <ele>1523.8</ele>
        <time>2021-10-09 14:44:23</time>
      </trkpt>
      <trkpt lat="40.38533" lon="-1.89986">
        <ele>1523.8</ele>
        <time>2021-10-09 14:44:24</time>
      </trkpt>
      <trkpt lat="40.38533" lon="-1.89987">
        <ele>1523.8</ele>
        <time>2021-10-09 14:44:25</time>
      </trkpt>
      <trkpt lat="40.38533" lon="-1.89988">
        <ele>1523.8</ele>
        <time>2021-10-09 14:44:26</time>
      </trkpt>
      <trkpt lat="40.38533" lon="-1.89989">
        <ele>1524.2</ele>
        <time>2021-10-09 14:44:27</time>
      </trkpt>
      <trkpt lat="40.38533" lon="-1.8999">
        <ele>1524.4</ele>
        <time>2021-10-09 14:44:28</time>
      </trkpt>
      <trkpt lat="40.38534" lon="-1.89992">
        <ele>1524.4</ele>
        <time>2021-10-09 14:44:29</time>
      </trkpt>
      <trkpt lat="40.38534" lon="-1.89993">
        <ele>1524.4</ele>
        <time>2021-10-09 14:44:30</time>
      </trkpt>
      <trkpt lat="40.38535" lon="-1.89994">
        <ele>1524.6</ele>
        <time>2021-10-09 14:44:31</time>
      </trkpt>
      <trkpt lat="40.38535" lon="-1.89996">
        <ele>1524.6</ele>
        <time>2021-10-09 14:44:32</time>
      </trkpt>
      <trkpt lat="40.38535" lon="-1.89997">
        <ele>1524.6</ele>
        <time>2021-10-09 14:44:33</time>
      </trkpt>
      <trkpt lat="40.38535" lon="-1.89999">
        <ele>1524.6</ele>
        <time>2021-10-09 14:44:34</time>
      </trkpt>
      <trkpt lat="40.38534" lon="-1.9">
        <ele>1525</ele>
        <time>2021-10-09 14:44:35</time>
      </trkpt>
      <trkpt lat="40.38534" lon="-1.90002">
        <ele>1525.2</ele>
        <time>2021-10-09 14:44:36</time>
      </trkpt>
      <trkpt lat="40.38534" lon="-1.90003">
        <ele>1525.2</ele>
        <time>2021-10-09 14:44:37</time>
      </trkpt>
      <trkpt lat="40.38534" lon="-1.90005">
        <ele>1525.2</ele>
        <time>2021-10-09 14:44:38</time>
      </trkpt>
      <trkpt lat="40.38534" lon="-1.90007">
        <ele>1525.6</ele>
        <time>2021-10-09 14:44:39</time>
      </trkpt>
      <trkpt lat="40.38534" lon="-1.90009">
        <ele>1525.6</ele>
        <time>2021-10-09 14:44:40</time>
      </trkpt>
      <trkpt lat="40.38533" lon="-1.9001">
        <ele>1525.8</ele>
        <time>2021-10-09 14:44:49</time>
      </trkpt>
      <trkpt lat="40.38533" lon="-1.90011">
        <ele>1525.8</ele>
        <time>2021-10-09 14:44:50</time>
      </trkpt>
      <trkpt lat="40.38532" lon="-1.90012">
        <ele>1525.8</ele>
        <time>2021-10-09 14:44:51</time>
      </trkpt>
      <trkpt lat="40.38532" lon="-1.90013">
        <ele>1525.8</ele>
        <time>2021-10-09 14:44:57</time>
      </trkpt>
      <trkpt lat="40.38531" lon="-1.90013">
        <ele>1526.2</ele>
        <time>2021-10-09 14:44:58</time>
      </trkpt>
      <trkpt lat="40.38531" lon="-1.90014">
        <ele>1526.2</ele>
        <time>2021-10-09 14:44:59</time>
      </trkpt>
      <trkpt lat="40.38531" lon="-1.90014">
        <ele>1526.2</ele>
        <time>2021-10-09 14:45:00</time>
      </trkpt>
      <trkpt lat="40.38531" lon="-1.90014">
        <ele>1526.2</ele>
        <time>2021-10-09 14:45:01</time>
      </trkpt>
      <trkpt lat="40.38531" lon="-1.90015">
        <ele>1526.6</ele>
        <time>2021-10-09 14:45:02</time>
      </trkpt>
      <trkpt lat="40.38531" lon="-1.90015">
        <ele>1526.6</ele>
        <time>2021-10-09 14:45:03</time>
      </trkpt>
      <trkpt lat="40.38531" lon="-1.90016">
        <ele>1526.6</ele>
        <time>2021-10-09 14:45:04</time>
      </trkpt>
      <trkpt lat="40.38532" lon="-1.90018">
        <ele>1526.6</ele>
        <time>2021-10-09 14:45:05</time>
      </trkpt>
      <trkpt lat="40.38532" lon="-1.90018">
        <ele>1526.6</ele>
        <time>2021-10-09 14:45:06</time>
      </trkpt>
      <trkpt lat="40.38533" lon="-1.90018">
        <ele>1526.6</ele>
        <time>2021-10-09 14:45:07</time>
      </trkpt>
      <trkpt lat="40.38533" lon="-1.90021">
        <ele>1526.8</ele>
        <time>2021-10-09 14:45:08</time>
      </trkpt>
      <trkpt lat="40.38533" lon="-1.90022">
        <ele>1526.8</ele>
        <time>2021-10-09 14:45:09</time>
      </trkpt>
      <trkpt lat="40.38533" lon="-1.90023">
        <ele>1526.8</ele>
        <time>2021-10-09 14:45:10</time>
      </trkpt>
      <trkpt lat="40.38532" lon="-1.90025">
        <ele>1526.8</ele>
        <time>2021-10-09 14:45:11</time>
      </trkpt>
      <trkpt lat="40.38531" lon="-1.90027">
        <ele>1526.8</ele>
        <time>2021-10-09 14:45:12</time>
      </trkpt>
      <trkpt lat="40.38531" lon="-1.90029">
        <ele>1526.8</ele>
        <time>2021-10-09 14:45:13</time>
      </trkpt>
      <trkpt lat="40.3853" lon="-1.90031">
        <ele>1527</ele>
        <time>2021-10-09 14:45:14</time>
      </trkpt>
      <trkpt lat="40.3853" lon="-1.90033">
        <ele>1527</ele>
        <time>2021-10-09 14:45:15</time>
      </trkpt>
      <trkpt lat="40.38529" lon="-1.90035">
        <ele>1527.4</ele>
        <time>2021-10-09 14:45:16</time>
      </trkpt>
      <trkpt lat="40.38529" lon="-1.90037">
        <ele>1527.6</ele>
        <time>2021-10-09 14:45:17</time>
      </trkpt>
      <trkpt lat="40.38528" lon="-1.90039">
        <ele>1527.8</ele>
        <time>2021-10-09 14:45:18</time>
      </trkpt>
      <trkpt lat="40.38528" lon="-1.90042">
        <ele>1527.8</ele>
        <time>2021-10-09 14:45:19</time>
      </trkpt>
      <trkpt lat="40.38527" lon="-1.90043">
        <ele>1527.8</ele>
        <time>2021-10-09 14:45:20</time>
      </trkpt>
      <trkpt lat="40.38526" lon="-1.90045">
        <ele>1528</ele>
        <time>2021-10-09 14:45:21</time>
      </trkpt>
      <trkpt lat="40.38525" lon="-1.90047">
        <ele>1528</ele>
        <time>2021-10-09 14:45:22</time>
      </trkpt>
      <trkpt lat="40.38524" lon="-1.90048">
        <ele>1528.4</ele>
        <time>2021-10-09 14:45:23</time>
      </trkpt>
      <trkpt lat="40.38523" lon="-1.9005">
        <ele>1528.4</ele>
        <time>2021-10-09 14:45:24</time>
      </trkpt>
      <trkpt lat="40.38523" lon="-1.90052">
        <ele>1528.6</ele>
        <time>2021-10-09 14:45:25</time>
      </trkpt>
      <trkpt lat="40.38522" lon="-1.90054">
        <ele>1528.8</ele>
        <time>2021-10-09 14:45:26</time>
      </trkpt>
      <trkpt lat="40.38521" lon="-1.90056">
        <ele>1528.8</ele>
        <time>2021-10-09 14:45:27</time>
      </trkpt>
      <trkpt lat="40.3852" lon="-1.90058">
        <ele>1529.2</ele>
        <time>2021-10-09 14:45:28</time>
      </trkpt>
      <trkpt lat="40.38519" lon="-1.90059">
        <ele>1529.4</ele>
        <time>2021-10-09 14:45:29</time>
      </trkpt>
      <trkpt lat="40.38518" lon="-1.90061">
        <ele>1529.6</ele>
        <time>2021-10-09 14:45:30</time>
      </trkpt>
      <trkpt lat="40.38518" lon="-1.90063">
        <ele>1529.6</ele>
        <time>2021-10-09 14:45:31</time>
      </trkpt>
      <trkpt lat="40.38518" lon="-1.90064">
        <ele>1530</ele>
        <time>2021-10-09 14:53:52</time>
      </trkpt>
      <trkpt lat="40.38518" lon="-1.90066">
        <ele>1530.2</ele>
        <time>2021-10-09 14:53:53</time>
      </trkpt>
      <trkpt lat="40.38518" lon="-1.90068">
        <ele>1530.4</ele>
        <time>2021-10-09 14:53:54</time>
      </trkpt>
      <trkpt lat="40.38517" lon="-1.9007">
        <ele>1530.4</ele>
        <time>2021-10-09 14:53:58</time>
      </trkpt>
      <trkpt lat="40.38516" lon="-1.90072">
        <ele>1530.8</ele>
        <time>2021-10-09 14:53:59</time>
      </trkpt>
      <trkpt lat="40.38516" lon="-1.90073">
        <ele>1530.8</ele>
        <time>2021-10-09 14:54:00</time>
      </trkpt>
      <trkpt lat="40.38515" lon="-1.90075">
        <ele>1531.2</ele>
        <time>2021-10-09 14:54:14</time>
      </trkpt>
      <trkpt lat="40.38515" lon="-1.90075">
        <ele>1531.2</ele>
        <time>2021-10-09 14:54:15</time>
      </trkpt>
      <trkpt lat="40.38515" lon="-1.90077">
        <ele>1531.4</ele>
        <time>2021-10-09 14:54:16</time>
      </trkpt>
      <trkpt lat="40.38514" lon="-1.9008">
        <ele>1531.4</ele>
        <time>2021-10-09 14:54:17</time>
      </trkpt>
      <trkpt lat="40.38514" lon="-1.9008">
        <ele>1531.6</ele>
        <time>2021-10-09 14:54:18</time>
      </trkpt>
      <trkpt lat="40.38514" lon="-1.90082">
        <ele>1531.6</ele>
        <time>2021-10-09 14:54:19</time>
      </trkpt>
      <trkpt lat="40.38514" lon="-1.90084">
        <ele>1532</ele>
        <time>2021-10-09 14:54:20</time>
      </trkpt>
      <trkpt lat="40.38513" lon="-1.90086">
        <ele>1532</ele>
        <time>2021-10-09 14:54:21</time>
      </trkpt>
      <trkpt lat="40.38512" lon="-1.90088">
        <ele>1532.4</ele>
        <time>2021-10-09 14:54:22</time>
      </trkpt>
      <trkpt lat="40.38512" lon="-1.90089">
        <ele>1532.6</ele>
        <time>2021-10-09 14:54:23</time>
      </trkpt>
      <trkpt lat="40.38512" lon="-1.90091">
        <ele>1532.8</ele>
        <time>2021-10-09 14:54:24</time>
      </trkpt>
      <trkpt lat="40.38512" lon="-1.90092">
        <ele>1532.8</ele>
        <time>2021-10-09 14:54:25</time>
      </trkpt>
      <trkpt lat="40.38512" lon="-1.90094">
        <ele>1533</ele>
        <time>2021-10-09 14:54:26</time>
      </trkpt>
      <trkpt lat="40.38512" lon="-1.90096">
        <ele>1533</ele>
        <time>2021-10-09 14:54:27</time>
      </trkpt>
      <trkpt lat="40.38512" lon="-1.90099">
        <ele>1533</ele>
        <time>2021-10-09 14:54:28</time>
      </trkpt>
      <trkpt lat="40.38512" lon="-1.90101">
        <ele>1533.4</ele>
        <time>2021-10-09 14:54:29</time>
      </trkpt>
      <trkpt lat="40.38512" lon="-1.90103">
        <ele>1533.4</ele>
        <time>2021-10-09 14:54:30</time>
      </trkpt>
      <trkpt lat="40.38512" lon="-1.90105">
        <ele>1533.8</ele>
        <time>2021-10-09 14:54:31</time>
      </trkpt>
      <trkpt lat="40.38512" lon="-1.90107">
        <ele>1533.8</ele>
        <time>2021-10-09 14:54:32</time>
      </trkpt>
      <trkpt lat="40.38513" lon="-1.90109">
        <ele>1534</ele>
        <time>2021-10-09 14:54:33</time>
      </trkpt>
      <trkpt lat="40.38513" lon="-1.90111">
        <ele>1534.4</ele>
        <time>2021-10-09 14:54:34</time>
      </trkpt>
      <trkpt lat="40.38513" lon="-1.90113">
        <ele>1534.4</ele>
        <time>2021-10-09 14:54:35</time>
      </trkpt>
      <trkpt lat="40.38514" lon="-1.90115">
        <ele>1535.2</ele>
        <time>2021-10-09 14:54:36</time>
      </trkpt>
      <trkpt lat="40.38514" lon="-1.90117">
        <ele>1535.2</ele>
        <time>2021-10-09 14:54:37</time>
      </trkpt>
      <trkpt lat="40.38514" lon="-1.90119">
        <ele>1535.2</ele>
        <time>2021-10-09 14:54:38</time>
      </trkpt>
      <trkpt lat="40.38514" lon="-1.90121">
        <ele>1535.4</ele>
        <time>2021-10-09 14:54:39</time>
      </trkpt>
      <trkpt lat="40.38514" lon="-1.90123">
        <ele>1535.4</ele>
        <time>2021-10-09 14:54:40</time>
      </trkpt>
      <trkpt lat="40.38514" lon="-1.90124">
        <ele>1535.8</ele>
        <time>2021-10-09 14:54:41</time>
      </trkpt>
      <trkpt lat="40.38514" lon="-1.90126">
        <ele>1535.8</ele>
        <time>2021-10-09 14:54:42</time>
      </trkpt>
      <trkpt lat="40.38514" lon="-1.90129">
        <ele>1536</ele>
        <time>2021-10-09 14:54:43</time>
      </trkpt>
      <trkpt lat="40.38513" lon="-1.90131">
        <ele>1536.4</ele>
        <time>2021-10-09 14:54:44</time>
      </trkpt>
      <trkpt lat="40.38513" lon="-1.90133">
        <ele>1536.4</ele>
        <time>2021-10-09 14:54:45</time>
      </trkpt>
      <trkpt lat="40.38513" lon="-1.90135">
        <ele>1536.4</ele>
        <time>2021-10-09 14:54:46</time>
      </trkpt>
      <trkpt lat="40.38514" lon="-1.90137">
        <ele>1536.6</ele>
        <time>2021-10-09 14:54:47</time>
      </trkpt>
      <trkpt lat="40.38514" lon="-1.90138">
        <ele>1536.6</ele>
        <time>2021-10-09 14:54:48</time>
      </trkpt>
      <trkpt lat="40.38514" lon="-1.9014">
        <ele>1537</ele>
        <time>2021-10-09 14:54:49</time>
      </trkpt>
      <trkpt lat="40.38514" lon="-1.90142">
        <ele>1537.2</ele>
        <time>2021-10-09 14:54:50</time>
      </trkpt>
      <trkpt lat="40.38514" lon="-1.90144">
        <ele>1537.2</ele>
        <time>2021-10-09 14:54:51</time>
      </trkpt>
      <trkpt lat="40.38514" lon="-1.90146">
        <ele>1537.4</ele>
        <time>2021-10-09 14:54:52</time>
      </trkpt>
      <trkpt lat="40.38514" lon="-1.90148">
        <ele>1537.4</ele>
        <time>2021-10-09 14:54:53</time>
      </trkpt>
      <trkpt lat="40.38513" lon="-1.90149">
        <ele>1537.8</ele>
        <time>2021-10-09 14:54:54</time>
      </trkpt>
      <trkpt lat="40.38513" lon="-1.90151">
        <ele>1537.8</ele>
        <time>2021-10-09 14:54:55</time>
      </trkpt>
      <trkpt lat="40.38513" lon="-1.90153">
        <ele>1538</ele>
        <time>2021-10-09 14:54:56</time>
      </trkpt>
      <trkpt lat="40.38513" lon="-1.90155">
        <ele>1538</ele>
        <time>2021-10-09 14:54:57</time>
      </trkpt>
      <trkpt lat="40.38514" lon="-1.90157">
        <ele>1538</ele>
        <time>2021-10-09 14:54:58</time>
      </trkpt>
      <trkpt lat="40.38514" lon="-1.90159">
        <ele>1538.2</ele>
        <time>2021-10-09 14:54:59</time>
      </trkpt>
      <trkpt lat="40.38514" lon="-1.90162">
        <ele>1538.2</ele>
        <time>2021-10-09 14:55:00</time>
      </trkpt>
      <trkpt lat="40.38514" lon="-1.90164">
        <ele>1538.6</ele>
        <time>2021-10-09 14:55:01</time>
      </trkpt>
      <trkpt lat="40.38514" lon="-1.90166">
        <ele>1538.6</ele>
        <time>2021-10-09 14:55:02</time>
      </trkpt>
      <trkpt lat="40.38514" lon="-1.90169">
        <ele>1539</ele>
        <time>2021-10-09 14:55:03</time>
      </trkpt>
      <trkpt lat="40.38514" lon="-1.9017">
        <ele>1539.2</ele>
        <time>2021-10-09 14:55:04</time>
      </trkpt>
      <trkpt lat="40.38514" lon="-1.90172">
        <ele>1539.2</ele>
        <time>2021-10-09 14:55:05</time>
      </trkpt>
      <trkpt lat="40.38514" lon="-1.90174">
        <ele>1539.8</ele>
        <time>2021-10-09 14:55:06</time>
      </trkpt>
      <trkpt lat="40.38514" lon="-1.90175">
        <ele>1540</ele>
        <time>2021-10-09 14:55:07</time>
      </trkpt>
      <trkpt lat="40.38514" lon="-1.90177">
        <ele>1540</ele>
        <time>2021-10-09 14:55:08</time>
      </trkpt>
      <trkpt lat="40.38513" lon="-1.90179">
        <ele>1540.4</ele>
        <time>2021-10-09 14:55:09</time>
      </trkpt>
      <trkpt lat="40.38513" lon="-1.90181">
        <ele>1540.6</ele>
        <time>2021-10-09 14:55:10</time>
      </trkpt>
      <trkpt lat="40.38513" lon="-1.90183">
        <ele>1540.6</ele>
        <time>2021-10-09 14:55:11</time>
      </trkpt>
      <trkpt lat="40.38513" lon="-1.90185">
        <ele>1540.8</ele>
        <time>2021-10-09 14:55:12</time>
      </trkpt>
      <trkpt lat="40.38513" lon="-1.90188">
        <ele>1540.8</ele>
        <time>2021-10-09 14:55:13</time>
      </trkpt>
      <trkpt lat="40.38513" lon="-1.9019">
        <ele>1540.8</ele>
        <time>2021-10-09 14:55:14</time>
      </trkpt>
      <trkpt lat="40.38513" lon="-1.90191">
        <ele>1541.2</ele>
        <time>2021-10-09 14:55:15</time>
      </trkpt>
      <trkpt lat="40.38513" lon="-1.90193">
        <ele>1541.2</ele>
        <time>2021-10-09 14:55:16</time>
      </trkpt>
      <trkpt lat="40.38513" lon="-1.90194">
        <ele>1541.2</ele>
        <time>2021-10-09 14:55:17</time>
      </trkpt>
      <trkpt lat="40.38513" lon="-1.90196">
        <ele>1541.4</ele>
        <time>2021-10-09 14:55:18</time>
      </trkpt>
      <trkpt lat="40.38513" lon="-1.90198">
        <ele>1541.8</ele>
        <time>2021-10-09 14:55:19</time>
      </trkpt>
      <trkpt lat="40.38513" lon="-1.902">
        <ele>1541.8</ele>
        <time>2021-10-09 14:55:20</time>
      </trkpt>
      <trkpt lat="40.38513" lon="-1.90202">
        <ele>1541.8</ele>
        <time>2021-10-09 14:55:21</time>
      </trkpt>
      <trkpt lat="40.38513" lon="-1.90203">
        <ele>1542</ele>
        <time>2021-10-09 14:55:22</time>
      </trkpt>
      <trkpt lat="40.38513" lon="-1.90205">
        <ele>1542</ele>
        <time>2021-10-09 14:55:23</time>
      </trkpt>
      <trkpt lat="40.38512" lon="-1.90207">
        <ele>1542.2</ele>
        <time>2021-10-09 14:55:24</time>
      </trkpt>
      <trkpt lat="40.38512" lon="-1.9021">
        <ele>1542.6</ele>
        <time>2021-10-09 14:55:25</time>
      </trkpt>
      <trkpt lat="40.38511" lon="-1.90213">
        <ele>1542.6</ele>
        <time>2021-10-09 14:55:26</time>
      </trkpt>
      <trkpt lat="40.38511" lon="-1.90215">
        <ele>1542.8</ele>
        <time>2021-10-09 14:55:27</time>
      </trkpt>
      <trkpt lat="40.38511" lon="-1.90217">
        <ele>1543.2</ele>
        <time>2021-10-09 14:55:28</time>
      </trkpt>
      <trkpt lat="40.38511" lon="-1.9022">
        <ele>1543.4</ele>
        <time>2021-10-09 14:55:29</time>
      </trkpt>
      <trkpt lat="40.38511" lon="-1.90223">
        <ele>1543.4</ele>
        <time>2021-10-09 14:55:30</time>
      </trkpt>
      <trkpt lat="40.38512" lon="-1.90225">
        <ele>1543.6</ele>
        <time>2021-10-09 14:55:31</time>
      </trkpt>
      <trkpt lat="40.38512" lon="-1.90226">
        <ele>1543.6</ele>
        <time>2021-10-09 14:55:32</time>
      </trkpt>
      <trkpt lat="40.38511" lon="-1.90228">
        <ele>1544</ele>
        <time>2021-10-09 14:55:33</time>
      </trkpt>
      <trkpt lat="40.38511" lon="-1.9023">
        <ele>1544</ele>
        <time>2021-10-09 14:55:34</time>
      </trkpt>
      <trkpt lat="40.38511" lon="-1.90233">
        <ele>1544.4</ele>
        <time>2021-10-09 14:55:35</time>
      </trkpt>
      <trkpt lat="40.3851" lon="-1.90237">
        <ele>1544.4</ele>
        <time>2021-10-09 14:55:36</time>
      </trkpt>
      <trkpt lat="40.3851" lon="-1.9024">
        <ele>1544.8</ele>
        <time>2021-10-09 14:55:37</time>
      </trkpt>
      <trkpt lat="40.3851" lon="-1.90243">
        <ele>1544.8</ele>
        <time>2021-10-09 14:55:38</time>
      </trkpt>
      <trkpt lat="40.3851" lon="-1.90245">
        <ele>1545</ele>
        <time>2021-10-09 14:55:39</time>
      </trkpt>
      <trkpt lat="40.3851" lon="-1.90247">
        <ele>1545</ele>
        <time>2021-10-09 14:55:40</time>
      </trkpt>
      <trkpt lat="40.3851" lon="-1.90249">
        <ele>1545.2</ele>
        <time>2021-10-09 14:55:41</time>
      </trkpt>
      <trkpt lat="40.3851" lon="-1.90252">
        <ele>1545.2</ele>
        <time>2021-10-09 14:55:42</time>
      </trkpt>
      <trkpt lat="40.3851" lon="-1.90254">
        <ele>1545.6</ele>
        <time>2021-10-09 14:55:43</time>
      </trkpt>
      <trkpt lat="40.3851" lon="-1.90257">
        <ele>1545.6</ele>
        <time>2021-10-09 14:55:44</time>
      </trkpt>
      <trkpt lat="40.3851" lon="-1.90259">
        <ele>1546</ele>
        <time>2021-10-09 14:55:45</time>
      </trkpt>
      <trkpt lat="40.3851" lon="-1.90262">
        <ele>1546</ele>
        <time>2021-10-09 14:55:46</time>
      </trkpt>
      <trkpt lat="40.3851" lon="-1.90264">
        <ele>1546.2</ele>
        <time>2021-10-09 14:55:47</time>
      </trkpt>
      <trkpt lat="40.3851" lon="-1.90267">
        <ele>1546.2</ele>
        <time>2021-10-09 14:55:48</time>
      </trkpt>
      <trkpt lat="40.38511" lon="-1.9027">
        <ele>1546.6</ele>
        <time>2021-10-09 14:55:49</time>
      </trkpt>
      <trkpt lat="40.38511" lon="-1.90272">
        <ele>1546.6</ele>
        <time>2021-10-09 14:55:50</time>
      </trkpt>
      <trkpt lat="40.38511" lon="-1.90275">
        <ele>1546.8</ele>
        <time>2021-10-09 14:55:51</time>
      </trkpt>
      <trkpt lat="40.38511" lon="-1.90277">
        <ele>1546.8</ele>
        <time>2021-10-09 14:55:52</time>
      </trkpt>
      <trkpt lat="40.38511" lon="-1.9028">
        <ele>1547.2</ele>
        <time>2021-10-09 14:55:53</time>
      </trkpt>
      <trkpt lat="40.38511" lon="-1.90282">
        <ele>1547.2</ele>
        <time>2021-10-09 14:55:54</time>
      </trkpt>
      <trkpt lat="40.38511" lon="-1.90284">
        <ele>1547.6</ele>
        <time>2021-10-09 14:55:55</time>
      </trkpt>
      <trkpt lat="40.38511" lon="-1.90286">
        <ele>1547.8</ele>
        <time>2021-10-09 14:55:56</time>
      </trkpt>
      <trkpt lat="40.38511" lon="-1.90289">
        <ele>1547.8</ele>
        <time>2021-10-09 14:55:57</time>
      </trkpt>
      <trkpt lat="40.38511" lon="-1.90291">
        <ele>1548.2</ele>
        <time>2021-10-09 14:55:58</time>
      </trkpt>
      <trkpt lat="40.38511" lon="-1.90294">
        <ele>1548.4</ele>
        <time>2021-10-09 14:55:59</time>
      </trkpt>
      <trkpt lat="40.38512" lon="-1.90297">
        <ele>1548.6</ele>
        <time>2021-10-09 14:56:00</time>
      </trkpt>
      <trkpt lat="40.38512" lon="-1.90299">
        <ele>1548.8</ele>
        <time>2021-10-09 14:56:01</time>
      </trkpt>
      <trkpt lat="40.38512" lon="-1.90301">
        <ele>1548.8</ele>
        <time>2021-10-09 14:56:02</time>
      </trkpt>
      <trkpt lat="40.38512" lon="-1.90303">
        <ele>1548.8</ele>
        <time>2021-10-09 14:56:03</time>
      </trkpt>
      <trkpt lat="40.38512" lon="-1.90305">
        <ele>1549</ele>
        <time>2021-10-09 14:56:04</time>
      </trkpt>
      <trkpt lat="40.38512" lon="-1.90308">
        <ele>1549</ele>
        <time>2021-10-09 14:56:05</time>
      </trkpt>
      <trkpt lat="40.38512" lon="-1.90311">
        <ele>1549.4</ele>
        <time>2021-10-09 14:56:06</time>
      </trkpt>
      <trkpt lat="40.38512" lon="-1.90314">
        <ele>1549.4</ele>
        <time>2021-10-09 14:56:07</time>
      </trkpt>
      <trkpt lat="40.38513" lon="-1.90317">
        <ele>1549.6</ele>
        <time>2021-10-09 14:56:08</time>
      </trkpt>
      <trkpt lat="40.38513" lon="-1.9032">
        <ele>1549.8</ele>
        <time>2021-10-09 14:56:09</time>
      </trkpt>
      <trkpt lat="40.38513" lon="-1.90323">
        <ele>1549.8</ele>
        <time>2021-10-09 14:56:10</time>
      </trkpt>
      <trkpt lat="40.38513" lon="-1.90325">
        <ele>1550.2</ele>
        <time>2021-10-09 14:56:11</time>
      </trkpt>
      <trkpt lat="40.38513" lon="-1.90328">
        <ele>1550.2</ele>
        <time>2021-10-09 14:56:12</time>
      </trkpt>
      <trkpt lat="40.38513" lon="-1.90331">
        <ele>1550.2</ele>
        <time>2021-10-09 14:56:13</time>
      </trkpt>
      <trkpt lat="40.38514" lon="-1.90334">
        <ele>1550.4</ele>
        <time>2021-10-09 14:56:14</time>
      </trkpt>
      <trkpt lat="40.38514" lon="-1.90337">
        <ele>1550.6</ele>
        <time>2021-10-09 14:56:15</time>
      </trkpt>
      <trkpt lat="40.38514" lon="-1.90339">
        <ele>1550.6</ele>
        <time>2021-10-09 14:56:16</time>
      </trkpt>
      <trkpt lat="40.38515" lon="-1.90341">
        <ele>1551</ele>
        <time>2021-10-09 14:56:17</time>
      </trkpt>
      <trkpt lat="40.38515" lon="-1.90344">
        <ele>1551</ele>
        <time>2021-10-09 14:56:18</time>
      </trkpt>
      <trkpt lat="40.38515" lon="-1.90347">
        <ele>1551.4</ele>
        <time>2021-10-09 14:56:19</time>
      </trkpt>
      <trkpt lat="40.38515" lon="-1.90349">
        <ele>1551.4</ele>
        <time>2021-10-09 14:56:20</time>
      </trkpt>
      <trkpt lat="40.38516" lon="-1.90353">
        <ele>1551.6</ele>
        <time>2021-10-09 14:56:21</time>
      </trkpt>
      <trkpt lat="40.38516" lon="-1.90356">
        <ele>1551.6</ele>
        <time>2021-10-09 14:56:22</time>
      </trkpt>
      <trkpt lat="40.38516" lon="-1.90359">
        <ele>1552</ele>
        <time>2021-10-09 14:56:23</time>
      </trkpt>
      <trkpt lat="40.38516" lon="-1.90361">
        <ele>1552.4</ele>
        <time>2021-10-09 14:56:24</time>
      </trkpt>
      <trkpt lat="40.38516" lon="-1.90364">
        <ele>1552.6</ele>
        <time>2021-10-09 14:56:25</time>
      </trkpt>
      <trkpt lat="40.38516" lon="-1.90367">
        <ele>1553</ele>
        <time>2021-10-09 14:56:26</time>
      </trkpt>
      <trkpt lat="40.38516" lon="-1.9037">
        <ele>1553.2</ele>
        <time>2021-10-09 14:56:27</time>
      </trkpt>
      <trkpt lat="40.38516" lon="-1.90373">
        <ele>1553.4</ele>
        <time>2021-10-09 14:56:28</time>
      </trkpt>
      <trkpt lat="40.38516" lon="-1.90376">
        <ele>1553.8</ele>
        <time>2021-10-09 14:56:29</time>
      </trkpt>
      <trkpt lat="40.38516" lon="-1.90378">
        <ele>1554</ele>
        <time>2021-10-09 14:56:30</time>
      </trkpt>
      <trkpt lat="40.38516" lon="-1.90381">
        <ele>1554.4</ele>
        <time>2021-10-09 14:56:31</time>
      </trkpt>
      <trkpt lat="40.38515" lon="-1.90384">
        <ele>1554.4</ele>
        <time>2021-10-09 14:56:32</time>
      </trkpt>
      <trkpt lat="40.38514" lon="-1.90386">
        <ele>1554.6</ele>
        <time>2021-10-09 14:56:33</time>
      </trkpt>
      <trkpt lat="40.38512" lon="-1.90388">
        <ele>1554.8</ele>
        <time>2021-10-09 14:56:34</time>
      </trkpt>
      <trkpt lat="40.38511" lon="-1.90389">
        <ele>1554.8</ele>
        <time>2021-10-09 14:56:35</time>
      </trkpt>
      <trkpt lat="40.38509" lon="-1.9039">
        <ele>1555.2</ele>
        <time>2021-10-09 14:56:36</time>
      </trkpt>
      <trkpt lat="40.38507" lon="-1.90392">
        <ele>1555.2</ele>
        <time>2021-10-09 14:56:37</time>
      </trkpt>
      <trkpt lat="40.38505" lon="-1.90392">
        <ele>1555.8</ele>
        <time>2021-10-09 14:56:38</time>
      </trkpt>
      <trkpt lat="40.38504" lon="-1.90393">
        <ele>1555.8</ele>
        <time>2021-10-09 14:56:39</time>
      </trkpt>
      <trkpt lat="40.38501" lon="-1.90392">
        <ele>1556</ele>
        <time>2021-10-09 14:56:40</time>
      </trkpt>
      <trkpt lat="40.38499" lon="-1.90391">
        <ele>1556</ele>
        <time>2021-10-09 14:56:41</time>
      </trkpt>
      <trkpt lat="40.38498" lon="-1.9039">
        <ele>1556.4</ele>
        <time>2021-10-09 14:56:42</time>
      </trkpt>
      <trkpt lat="40.38496" lon="-1.90388">
        <ele>1556.4</ele>
        <time>2021-10-09 14:56:43</time>
      </trkpt>
      <trkpt lat="40.38494" lon="-1.90387">
        <ele>1556.6</ele>
        <time>2021-10-09 14:56:44</time>
      </trkpt>
      <trkpt lat="40.38492" lon="-1.90385">
        <ele>1556.6</ele>
        <time>2021-10-09 14:56:45</time>
      </trkpt>
      <trkpt lat="40.3849" lon="-1.90383">
        <ele>1557</ele>
        <time>2021-10-09 14:56:46</time>
      </trkpt>
      <trkpt lat="40.38489" lon="-1.90381">
        <ele>1557</ele>
        <time>2021-10-09 14:56:47</time>
      </trkpt>
      <trkpt lat="40.38487" lon="-1.90379">
        <ele>1557.2</ele>
        <time>2021-10-09 14:56:48</time>
      </trkpt>
      <trkpt lat="40.38486" lon="-1.90377">
        <ele>1557.2</ele>
        <time>2021-10-09 14:56:49</time>
      </trkpt>
      <trkpt lat="40.38485" lon="-1.90374">
        <ele>1557.2</ele>
        <time>2021-10-09 14:56:50</time>
      </trkpt>
      <trkpt lat="40.38484" lon="-1.90372">
        <ele>1557.6</ele>
        <time>2021-10-09 14:56:51</time>
      </trkpt>
      <trkpt lat="40.38483" lon="-1.90369">
        <ele>1557.6</ele>
        <time>2021-10-09 14:56:52</time>
      </trkpt>
      <trkpt lat="40.38482" lon="-1.90367">
        <ele>1557.8</ele>
        <time>2021-10-09 14:56:53</time>
      </trkpt>
      <trkpt lat="40.3848" lon="-1.90364">
        <ele>1557.8</ele>
        <time>2021-10-09 14:56:54</time>
      </trkpt>
      <trkpt lat="40.38479" lon="-1.90362">
        <ele>1558.2</ele>
        <time>2021-10-09 14:56:55</time>
      </trkpt>
      <trkpt lat="40.38478" lon="-1.90359">
        <ele>1558.6</ele>
        <time>2021-10-09 14:56:56</time>
      </trkpt>
      <trkpt lat="40.38476" lon="-1.90357">
        <ele>1558.6</ele>
        <time>2021-10-09 14:56:57</time>
      </trkpt>
      <trkpt lat="40.38475" lon="-1.90354">
        <ele>1558.8</ele>
        <time>2021-10-09 14:56:58</time>
      </trkpt>
      <trkpt lat="40.38474" lon="-1.90352">
        <ele>1558.8</ele>
        <time>2021-10-09 14:56:59</time>
      </trkpt>
      <trkpt lat="40.38472" lon="-1.9035">
        <ele>1559.2</ele>
        <time>2021-10-09 14:57:00</time>
      </trkpt>
      <trkpt lat="40.38471" lon="-1.90348">
        <ele>1559.2</ele>
        <time>2021-10-09 14:57:01</time>
      </trkpt>
      <trkpt lat="40.3847" lon="-1.90346">
        <ele>1559.2</ele>
        <time>2021-10-09 14:57:02</time>
      </trkpt>
      <trkpt lat="40.38469" lon="-1.90344">
        <ele>1559.4</ele>
        <time>2021-10-09 14:57:03</time>
      </trkpt>
      <trkpt lat="40.38468" lon="-1.90342">
        <ele>1559.6</ele>
        <time>2021-10-09 14:57:04</time>
      </trkpt>
      <trkpt lat="40.38467" lon="-1.90339">
        <ele>1559.6</ele>
        <time>2021-10-09 14:57:05</time>
      </trkpt>
      <trkpt lat="40.38466" lon="-1.90337">
        <ele>1559.6</ele>
        <time>2021-10-09 14:57:06</time>
      </trkpt>
      <trkpt lat="40.38465" lon="-1.90335">
        <ele>1559.6</ele>
        <time>2021-10-09 14:57:07</time>
      </trkpt>
      <trkpt lat="40.38464" lon="-1.90333">
        <ele>1559.6</ele>
        <time>2021-10-09 14:57:08</time>
      </trkpt>
      <trkpt lat="40.38462" lon="-1.9033">
        <ele>1559.6</ele>
        <time>2021-10-09 14:57:09</time>
      </trkpt>
      <trkpt lat="40.38461" lon="-1.90328">
        <ele>1559.8</ele>
        <time>2021-10-09 14:57:10</time>
      </trkpt>
      <trkpt lat="40.3846" lon="-1.90326">
        <ele>1559.8</ele>
        <time>2021-10-09 14:57:11</time>
      </trkpt>
      <trkpt lat="40.38459" lon="-1.90324">
        <ele>1559.8</ele>
        <time>2021-10-09 14:57:12</time>
      </trkpt>
      <trkpt lat="40.38457" lon="-1.90322">
        <ele>1560.2</ele>
        <time>2021-10-09 14:57:13</time>
      </trkpt>
      <trkpt lat="40.38456" lon="-1.9032">
        <ele>1560.2</ele>
        <time>2021-10-09 14:57:14</time>
      </trkpt>
      <trkpt lat="40.38455" lon="-1.90318">
        <ele>1560.2</ele>
        <time>2021-10-09 14:57:15</time>
      </trkpt>
      <trkpt lat="40.38453" lon="-1.90317">
        <ele>1560.2</ele>
        <time>2021-10-09 14:57:16</time>
      </trkpt>
      <trkpt lat="40.38452" lon="-1.90315">
        <ele>1560.6</ele>
        <time>2021-10-09 14:57:17</time>
      </trkpt>
      <trkpt lat="40.38451" lon="-1.90313">
        <ele>1560.6</ele>
        <time>2021-10-09 14:57:18</time>
      </trkpt>
      <trkpt lat="40.3845" lon="-1.90311">
        <ele>1560.8</ele>
        <time>2021-10-09 14:57:19</time>
      </trkpt>
      <trkpt lat="40.3845" lon="-1.90309">
        <ele>1560.8</ele>
        <time>2021-10-09 14:57:20</time>
      </trkpt>
      <trkpt lat="40.3845" lon="-1.90307">
        <ele>1560.8</ele>
        <time>2021-10-09 14:57:21</time>
      </trkpt>
      <trkpt lat="40.38449" lon="-1.90305">
        <ele>1561.2</ele>
        <time>2021-10-09 14:57:22</time>
      </trkpt>
      <trkpt lat="40.38448" lon="-1.90303">
        <ele>1561.2</ele>
        <time>2021-10-09 14:57:23</time>
      </trkpt>
      <trkpt lat="40.38446" lon="-1.90301">
        <ele>1561.4</ele>
        <time>2021-10-09 14:57:24</time>
      </trkpt>
      <trkpt lat="40.38445" lon="-1.90299">
        <ele>1561.4</ele>
        <time>2021-10-09 14:57:25</time>
      </trkpt>
      <trkpt lat="40.38444" lon="-1.90296">
        <ele>1561.8</ele>
        <time>2021-10-09 14:57:26</time>
      </trkpt>
      <trkpt lat="40.38443" lon="-1.90294">
        <ele>1561.8</ele>
        <time>2021-10-09 14:57:27</time>
      </trkpt>
      <trkpt lat="40.38442" lon="-1.90292">
        <ele>1562</ele>
        <time>2021-10-09 14:57:28</time>
      </trkpt>
      <trkpt lat="40.38442" lon="-1.9029">
        <ele>1562</ele>
        <time>2021-10-09 14:57:29</time>
      </trkpt>
      <trkpt lat="40.38441" lon="-1.90288">
        <ele>1562.2</ele>
        <time>2021-10-09 14:57:30</time>
      </trkpt>
      <trkpt lat="40.3844" lon="-1.90286">
        <ele>1562.2</ele>
        <time>2021-10-09 14:57:31</time>
      </trkpt>
      <trkpt lat="40.3844" lon="-1.90285">
        <ele>1562.2</ele>
        <time>2021-10-09 14:57:32</time>
      </trkpt>
      <trkpt lat="40.38438" lon="-1.90282">
        <ele>1562.4</ele>
        <time>2021-10-09 14:57:33</time>
      </trkpt>
      <trkpt lat="40.38437" lon="-1.9028">
        <ele>1562.4</ele>
        <time>2021-10-09 14:57:34</time>
      </trkpt>
      <trkpt lat="40.38435" lon="-1.90278">
        <ele>1562.6</ele>
        <time>2021-10-09 14:57:35</time>
      </trkpt>
      <trkpt lat="40.38434" lon="-1.90276">
        <ele>1562.6</ele>
        <time>2021-10-09 14:57:36</time>
      </trkpt>
      <trkpt lat="40.38433" lon="-1.90274">
        <ele>1562.8</ele>
        <time>2021-10-09 14:57:37</time>
      </trkpt>
      <trkpt lat="40.38432" lon="-1.90272">
        <ele>1562.8</ele>
        <time>2021-10-09 14:57:38</time>
      </trkpt>
      <trkpt lat="40.3843" lon="-1.9027">
        <ele>1563</ele>
        <time>2021-10-09 14:57:39</time>
      </trkpt>
      <trkpt lat="40.38429" lon="-1.90268">
        <ele>1563</ele>
        <time>2021-10-09 14:57:40</time>
      </trkpt>
      <trkpt lat="40.38427" lon="-1.90267">
        <ele>1563.6</ele>
        <time>2021-10-09 14:57:41</time>
      </trkpt>
      <trkpt lat="40.38426" lon="-1.90265">
        <ele>1563.6</ele>
        <time>2021-10-09 14:57:42</time>
      </trkpt>
      <trkpt lat="40.38425" lon="-1.90263">
        <ele>1564</ele>
        <time>2021-10-09 14:57:43</time>
      </trkpt>
      <trkpt lat="40.38423" lon="-1.90261">
        <ele>1564</ele>
        <time>2021-10-09 14:57:44</time>
      </trkpt>
      <trkpt lat="40.38422" lon="-1.9026">
        <ele>1564.2</ele>
        <time>2021-10-09 14:57:45</time>
      </trkpt>
      <trkpt lat="40.38421" lon="-1.90258">
        <ele>1564.2</ele>
        <time>2021-10-09 14:57:46</time>
      </trkpt>
      <trkpt lat="40.3842" lon="-1.90256">
        <ele>1564.4</ele>
        <time>2021-10-09 14:57:47</time>
      </trkpt>
      <trkpt lat="40.38419" lon="-1.90255">
        <ele>1564.4</ele>
        <time>2021-10-09 14:57:48</time>
      </trkpt>
      <trkpt lat="40.38417" lon="-1.90253">
        <ele>1564.8</ele>
        <time>2021-10-09 14:57:49</time>
      </trkpt>
      <trkpt lat="40.38415" lon="-1.90251">
        <ele>1564.8</ele>
        <time>2021-10-09 14:57:50</time>
      </trkpt>
      <trkpt lat="40.38414" lon="-1.9025">
        <ele>1565</ele>
        <time>2021-10-09 14:57:51</time>
      </trkpt>
      <trkpt lat="40.38413" lon="-1.90248">
        <ele>1565</ele>
        <time>2021-10-09 14:57:52</time>
      </trkpt>
      <trkpt lat="40.38412" lon="-1.90246">
        <ele>1565.2</ele>
        <time>2021-10-09 14:57:53</time>
      </trkpt>
      <trkpt lat="40.38411" lon="-1.90245">
        <ele>1565.4</ele>
        <time>2021-10-09 14:57:54</time>
      </trkpt>
      <trkpt lat="40.3841" lon="-1.90244">
        <ele>1565.4</ele>
        <time>2021-10-09 14:57:55</time>
      </trkpt>
      <trkpt lat="40.38409" lon="-1.90243">
        <ele>1565.8</ele>
        <time>2021-10-09 14:57:56</time>
      </trkpt>
      <trkpt lat="40.38408" lon="-1.90241">
        <ele>1565.8</ele>
        <time>2021-10-09 14:57:57</time>
      </trkpt>
      <trkpt lat="40.38406" lon="-1.90239">
        <ele>1565.8</ele>
        <time>2021-10-09 14:57:58</time>
      </trkpt>
      <trkpt lat="40.38404" lon="-1.90238">
        <ele>1566</ele>
        <time>2021-10-09 14:57:59</time>
      </trkpt>
      <trkpt lat="40.38403" lon="-1.90236">
        <ele>1566</ele>
        <time>2021-10-09 14:58:00</time>
      </trkpt>
      <trkpt lat="40.38401" lon="-1.90234">
        <ele>1566</ele>
        <time>2021-10-09 14:58:01</time>
      </trkpt>
      <trkpt lat="40.384" lon="-1.90232">
        <ele>1566.2</ele>
        <time>2021-10-09 14:58:02</time>
      </trkpt>
      <trkpt lat="40.38398" lon="-1.90231">
        <ele>1566.2</ele>
        <time>2021-10-09 14:58:03</time>
      </trkpt>
      <trkpt lat="40.38397" lon="-1.90229">
        <ele>1566.4</ele>
        <time>2021-10-09 14:58:04</time>
      </trkpt>
      <trkpt lat="40.38396" lon="-1.90228">
        <ele>1566.4</ele>
        <time>2021-10-09 14:58:05</time>
      </trkpt>
      <trkpt lat="40.38395" lon="-1.90227">
        <ele>1566.8</ele>
        <time>2021-10-09 14:58:06</time>
      </trkpt>
      <trkpt lat="40.38393" lon="-1.90226">
        <ele>1566.8</ele>
        <time>2021-10-09 14:58:07</time>
      </trkpt>
      <trkpt lat="40.38391" lon="-1.90224">
        <ele>1567</ele>
        <time>2021-10-09 14:58:08</time>
      </trkpt>
      <trkpt lat="40.3839" lon="-1.90222">
        <ele>1567</ele>
        <time>2021-10-09 14:58:09</time>
      </trkpt>
      <trkpt lat="40.38388" lon="-1.90219">
        <ele>1567</ele>
        <time>2021-10-09 14:58:10</time>
      </trkpt>
      <trkpt lat="40.38387" lon="-1.90217">
        <ele>1567</ele>
        <time>2021-10-09 14:58:11</time>
      </trkpt>
      <trkpt lat="40.38385" lon="-1.90216">
        <ele>1567.4</ele>
        <time>2021-10-09 14:58:12</time>
      </trkpt>
      <trkpt lat="40.38384" lon="-1.90215">
        <ele>1567.4</ele>
        <time>2021-10-09 14:58:13</time>
      </trkpt>
      <trkpt lat="40.38383" lon="-1.90213">
        <ele>1567.6</ele>
        <time>2021-10-09 14:58:14</time>
      </trkpt>
      <trkpt lat="40.38382" lon="-1.90212">
        <ele>1567.6</ele>
        <time>2021-10-09 14:58:15</time>
      </trkpt>
      <trkpt lat="40.38381" lon="-1.90211">
        <ele>1567.8</ele>
        <time>2021-10-09 14:58:16</time>
      </trkpt>
      <trkpt lat="40.38379" lon="-1.90209">
        <ele>1567.8</ele>
        <time>2021-10-09 14:58:17</time>
      </trkpt>
      <trkpt lat="40.38376" lon="-1.90208">
        <ele>1568.2</ele>
        <time>2021-10-09 14:58:18</time>
      </trkpt>
      <trkpt lat="40.38374" lon="-1.90207">
        <ele>1568.2</ele>
        <time>2021-10-09 14:58:19</time>
      </trkpt>
      <trkpt lat="40.38372" lon="-1.90205">
        <ele>1568.2</ele>
        <time>2021-10-09 14:58:20</time>
      </trkpt>
      <trkpt lat="40.3837" lon="-1.90204">
        <ele>1568.6</ele>
        <time>2021-10-09 14:58:21</time>
      </trkpt>
      <trkpt lat="40.38369" lon="-1.90202">
        <ele>1568.6</ele>
        <time>2021-10-09 14:58:22</time>
      </trkpt>
      <trkpt lat="40.38367" lon="-1.902">
        <ele>1568.6</ele>
        <time>2021-10-09 14:58:23</time>
      </trkpt>
      <trkpt lat="40.38366" lon="-1.90197">
        <ele>1569</ele>
        <time>2021-10-09 14:58:24</time>
      </trkpt>
      <trkpt lat="40.38365" lon="-1.90195">
        <ele>1569</ele>
        <time>2021-10-09 14:58:25</time>
      </trkpt>
      <trkpt lat="40.38364" lon="-1.90193">
        <ele>1569</ele>
        <time>2021-10-09 14:58:26</time>
      </trkpt>
      <trkpt lat="40.38362" lon="-1.90191">
        <ele>1569.2</ele>
        <time>2021-10-09 14:58:27</time>
      </trkpt>
      <trkpt lat="40.38361" lon="-1.9019">
        <ele>1569.4</ele>
        <time>2021-10-09 14:58:28</time>
      </trkpt>
      <trkpt lat="40.38359" lon="-1.90188">
        <ele>1569.4</ele>
        <time>2021-10-09 14:58:29</time>
      </trkpt>
      <trkpt lat="40.38357" lon="-1.90187">
        <ele>1569.8</ele>
        <time>2021-10-09 14:58:30</time>
      </trkpt>
      <trkpt lat="40.38355" lon="-1.90186">
        <ele>1569.8</ele>
        <time>2021-10-09 14:58:31</time>
      </trkpt>
      <trkpt lat="40.38353" lon="-1.90184">
        <ele>1570</ele>
        <time>2021-10-09 14:58:32</time>
      </trkpt>
      <trkpt lat="40.38351" lon="-1.90184">
        <ele>1570</ele>
        <time>2021-10-09 14:58:33</time>
      </trkpt>
      <trkpt lat="40.38349" lon="-1.90183">
        <ele>1570.4</ele>
        <time>2021-10-09 14:58:34</time>
      </trkpt>
      <trkpt lat="40.38347" lon="-1.90182">
        <ele>1570.4</ele>
        <time>2021-10-09 14:58:35</time>
      </trkpt>
      <trkpt lat="40.38346" lon="-1.90182">
        <ele>1570.8</ele>
        <time>2021-10-09 14:58:36</time>
      </trkpt>
      <trkpt lat="40.38345" lon="-1.90182">
        <ele>1570.8</ele>
        <time>2021-10-09 14:58:37</time>
      </trkpt>
      <trkpt lat="40.38343" lon="-1.90182">
        <ele>1571</ele>
        <time>2021-10-09 14:58:38</time>
      </trkpt>
      <trkpt lat="40.38341" lon="-1.90182">
        <ele>1571</ele>
        <time>2021-10-09 14:58:39</time>
      </trkpt>
      <trkpt lat="40.38339" lon="-1.90183">
        <ele>1571.4</ele>
        <time>2021-10-09 14:58:40</time>
      </trkpt>
      <trkpt lat="40.38337" lon="-1.90185">
        <ele>1571.4</ele>
        <time>2021-10-09 14:58:41</time>
      </trkpt>
      <trkpt lat="40.38335" lon="-1.90186">
        <ele>1571.4</ele>
        <time>2021-10-09 14:58:42</time>
      </trkpt>
      <trkpt lat="40.38334" lon="-1.90188">
        <ele>1571.6</ele>
        <time>2021-10-09 14:58:43</time>
      </trkpt>
      <trkpt lat="40.38332" lon="-1.9019">
        <ele>1571.6</ele>
        <time>2021-10-09 14:58:44</time>
      </trkpt>
      <trkpt lat="40.38331" lon="-1.90191">
        <ele>1571.6</ele>
        <time>2021-10-09 14:58:45</time>
      </trkpt>
      <trkpt lat="40.3833" lon="-1.90194">
        <ele>1571.8</ele>
        <time>2021-10-09 14:58:46</time>
      </trkpt>
      <trkpt lat="40.38329" lon="-1.90196">
        <ele>1571.8</ele>
        <time>2021-10-09 14:58:47</time>
      </trkpt>
      <trkpt lat="40.38329" lon="-1.90198">
        <ele>1571.8</ele>
        <time>2021-10-09 14:58:48</time>
      </trkpt>
      <trkpt lat="40.38328" lon="-1.902">
        <ele>1572.2</ele>
        <time>2021-10-09 14:58:49</time>
      </trkpt>
      <trkpt lat="40.38328" lon="-1.90201">
        <ele>1572.2</ele>
        <time>2021-10-09 14:58:50</time>
      </trkpt>
      <trkpt lat="40.38329" lon="-1.90203">
        <ele>1572.2</ele>
        <time>2021-10-09 14:58:51</time>
      </trkpt>
      <trkpt lat="40.38329" lon="-1.90205">
        <ele>1572.2</ele>
        <time>2021-10-09 14:58:52</time>
      </trkpt>
      <trkpt lat="40.38329" lon="-1.90208">
        <ele>1572.4</ele>
        <time>2021-10-09 14:58:53</time>
      </trkpt>
      <trkpt lat="40.3833" lon="-1.9021">
        <ele>1572.4</ele>
        <time>2021-10-09 14:58:54</time>
      </trkpt>
      <trkpt lat="40.3833" lon="-1.90212">
        <ele>1572.4</ele>
        <time>2021-10-09 14:58:55</time>
      </trkpt>
      <trkpt lat="40.38331" lon="-1.90214">
        <ele>1572.6</ele>
        <time>2021-10-09 14:58:56</time>
      </trkpt>
      <trkpt lat="40.38331" lon="-1.90217">
        <ele>1572.6</ele>
        <time>2021-10-09 14:58:57</time>
      </trkpt>
      <trkpt lat="40.38331" lon="-1.90219">
        <ele>1572.6</ele>
        <time>2021-10-09 14:58:58</time>
      </trkpt>
      <trkpt lat="40.38331" lon="-1.90221">
        <ele>1572.8</ele>
        <time>2021-10-09 14:58:59</time>
      </trkpt>
      <trkpt lat="40.38331" lon="-1.90223">
        <ele>1572.8</ele>
        <time>2021-10-09 14:59:00</time>
      </trkpt>
      <trkpt lat="40.38331" lon="-1.90224">
        <ele>1573.2</ele>
        <time>2021-10-09 14:59:01</time>
      </trkpt>
      <trkpt lat="40.3833" lon="-1.90226">
        <ele>1573.4</ele>
        <time>2021-10-09 14:59:02</time>
      </trkpt>
      <trkpt lat="40.3833" lon="-1.90229">
        <ele>1573.4</ele>
        <time>2021-10-09 14:59:03</time>
      </trkpt>
      <trkpt lat="40.38329" lon="-1.90231">
        <ele>1573.8</ele>
        <time>2021-10-09 14:59:04</time>
      </trkpt>
      <trkpt lat="40.38329" lon="-1.90234">
        <ele>1574</ele>
        <time>2021-10-09 14:59:05</time>
      </trkpt>
      <trkpt lat="40.38329" lon="-1.90236">
        <ele>1574</ele>
        <time>2021-10-09 14:59:06</time>
      </trkpt>
      <trkpt lat="40.38329" lon="-1.90239">
        <ele>1574</ele>
        <time>2021-10-09 14:59:07</time>
      </trkpt>
      <trkpt lat="40.38329" lon="-1.90241">
        <ele>1574.2</ele>
        <time>2021-10-09 14:59:08</time>
      </trkpt>
      <trkpt lat="40.38329" lon="-1.90244">
        <ele>1574.2</ele>
        <time>2021-10-09 14:59:09</time>
      </trkpt>
      <trkpt lat="40.38328" lon="-1.90246">
        <ele>1574.6</ele>
        <time>2021-10-09 14:59:10</time>
      </trkpt>
      <trkpt lat="40.38328" lon="-1.90248">
        <ele>1574.8</ele>
        <time>2021-10-09 14:59:11</time>
      </trkpt>
      <trkpt lat="40.38328" lon="-1.9025">
        <ele>1574.8</ele>
        <time>2021-10-09 14:59:12</time>
      </trkpt>
      <trkpt lat="40.38328" lon="-1.90252">
        <ele>1574.8</ele>
        <time>2021-10-09 14:59:13</time>
      </trkpt>
      <trkpt lat="40.38328" lon="-1.90254">
        <ele>1574.2</ele>
        <time>2021-10-09 14:59:14</time>
      </trkpt>
      <trkpt lat="40.38328" lon="-1.90257">
        <ele>1574.6</ele>
        <time>2021-10-09 14:59:15</time>
      </trkpt>
      <trkpt lat="40.38328" lon="-1.90259">
        <ele>1575.2</ele>
        <time>2021-10-09 14:59:16</time>
      </trkpt>
      <trkpt lat="40.38329" lon="-1.90261">
        <ele>1575.6</ele>
        <time>2021-10-09 14:59:17</time>
      </trkpt>
      <trkpt lat="40.38329" lon="-1.90263">
        <ele>1575.8</ele>
        <time>2021-10-09 14:59:18</time>
      </trkpt>
      <trkpt lat="40.38329" lon="-1.90265">
        <ele>1575.8</ele>
        <time>2021-10-09 14:59:19</time>
      </trkpt>
      <trkpt lat="40.3833" lon="-1.90267">
        <ele>1576</ele>
        <time>2021-10-09 14:59:20</time>
      </trkpt>
      <trkpt lat="40.3833" lon="-1.90269">
        <ele>1576</ele>
        <time>2021-10-09 14:59:21</time>
      </trkpt>
      <trkpt lat="40.38331" lon="-1.90272">
        <ele>1576.2</ele>
        <time>2021-10-09 14:59:22</time>
      </trkpt>
      <trkpt lat="40.38332" lon="-1.90274">
        <ele>1576.2</ele>
        <time>2021-10-09 14:59:23</time>
      </trkpt>
      <trkpt lat="40.38332" lon="-1.90276">
        <ele>1576.2</ele>
        <time>2021-10-09 14:59:24</time>
      </trkpt>
      <trkpt lat="40.38332" lon="-1.90278">
        <ele>1576.6</ele>
        <time>2021-10-09 14:59:25</time>
      </trkpt>
      <trkpt lat="40.38333" lon="-1.9028">
        <ele>1576.6</ele>
        <time>2021-10-09 14:59:26</time>
      </trkpt>
      <trkpt lat="40.38333" lon="-1.90283">
        <ele>1577</ele>
        <time>2021-10-09 14:59:27</time>
      </trkpt>
      <trkpt lat="40.38334" lon="-1.90285">
        <ele>1577</ele>
        <time>2021-10-09 14:59:28</time>
      </trkpt>
      <trkpt lat="40.38335" lon="-1.90288">
        <ele>1577.2</ele>
        <time>2021-10-09 14:59:29</time>
      </trkpt>
      <trkpt lat="40.38335" lon="-1.9029">
        <ele>1577.2</ele>
        <time>2021-10-09 14:59:30</time>
      </trkpt>
      <trkpt lat="40.38336" lon="-1.90293">
        <ele>1577.6</ele>
        <time>2021-10-09 14:59:31</time>
      </trkpt>
      <trkpt lat="40.38336" lon="-1.90296">
        <ele>1577.6</ele>
        <time>2021-10-09 14:59:32</time>
      </trkpt>
      <trkpt lat="40.38337" lon="-1.90298">
        <ele>1577.8</ele>
        <time>2021-10-09 14:59:33</time>
      </trkpt>
      <trkpt lat="40.38337" lon="-1.903">
        <ele>1578</ele>
        <time>2021-10-09 14:59:34</time>
      </trkpt>
      <trkpt lat="40.38337" lon="-1.90303">
        <ele>1578</ele>
        <time>2021-10-09 14:59:35</time>
      </trkpt>
      <trkpt lat="40.38338" lon="-1.90305">
        <ele>1578.2</ele>
        <time>2021-10-09 14:59:36</time>
      </trkpt>
      <trkpt lat="40.38338" lon="-1.90308">
        <ele>1578.2</ele>
        <time>2021-10-09 14:59:37</time>
      </trkpt>
      <trkpt lat="40.38339" lon="-1.9031">
        <ele>1578.2</ele>
        <time>2021-10-09 14:59:38</time>
      </trkpt>
      <trkpt lat="40.38339" lon="-1.90312">
        <ele>1578.6</ele>
        <time>2021-10-09 14:59:39</time>
      </trkpt>
      <trkpt lat="40.38339" lon="-1.90314">
        <ele>1578.6</ele>
        <time>2021-10-09 14:59:40</time>
      </trkpt>
      <trkpt lat="40.3834" lon="-1.90316">
        <ele>1578.6</ele>
        <time>2021-10-09 14:59:41</time>
      </trkpt>
      <trkpt lat="40.3834" lon="-1.90318">
        <ele>1579</ele>
        <time>2021-10-09 14:59:42</time>
      </trkpt>
      <trkpt lat="40.38341" lon="-1.9032">
        <ele>1579</ele>
        <time>2021-10-09 14:59:43</time>
      </trkpt>
      <trkpt lat="40.38341" lon="-1.90323">
        <ele>1579.2</ele>
        <time>2021-10-09 14:59:44</time>
      </trkpt>
      <trkpt lat="40.38342" lon="-1.90325">
        <ele>1579.4</ele>
        <time>2021-10-09 14:59:45</time>
      </trkpt>
      <trkpt lat="40.38342" lon="-1.90328">
        <ele>1579.6</ele>
        <time>2021-10-09 14:59:46</time>
      </trkpt>
      <trkpt lat="40.38343" lon="-1.9033">
        <ele>1579.6</ele>
        <time>2021-10-09 14:59:47</time>
      </trkpt>
      <trkpt lat="40.38343" lon="-1.90332">
        <ele>1580</ele>
        <time>2021-10-09 14:59:48</time>
      </trkpt>
      <trkpt lat="40.38344" lon="-1.90334">
        <ele>1580</ele>
        <time>2021-10-09 14:59:49</time>
      </trkpt>
      <trkpt lat="40.38344" lon="-1.90336">
        <ele>1580.4</ele>
        <time>2021-10-09 14:59:50</time>
      </trkpt>
      <trkpt lat="40.38344" lon="-1.90338">
        <ele>1580.6</ele>
        <time>2021-10-09 14:59:51</time>
      </trkpt>
      <trkpt lat="40.38344" lon="-1.9034">
        <ele>1580.6</ele>
        <time>2021-10-09 14:59:52</time>
      </trkpt>
      <trkpt lat="40.38344" lon="-1.90342">
        <ele>1581</ele>
        <time>2021-10-09 14:59:53</time>
      </trkpt>
      <trkpt lat="40.38345" lon="-1.90344">
        <ele>1581.2</ele>
        <time>2021-10-09 14:59:54</time>
      </trkpt>
      <trkpt lat="40.38346" lon="-1.90346">
        <ele>1581.2</ele>
        <time>2021-10-09 14:59:55</time>
      </trkpt>
      <trkpt lat="40.38347" lon="-1.90347">
        <ele>1581.2</ele>
        <time>2021-10-09 14:59:56</time>
      </trkpt>
      <trkpt lat="40.38347" lon="-1.90348">
        <ele>1581.2</ele>
        <time>2021-10-09 14:59:57</time>
      </trkpt>
      <trkpt lat="40.38346" lon="-1.90348">
        <ele>1581.4</ele>
        <time>2021-10-09 14:59:58</time>
      </trkpt>
      <trkpt lat="40.38346" lon="-1.90348">
        <ele>1581.4</ele>
        <time>2021-10-09 14:59:59</time>
      </trkpt>
      <trkpt lat="40.38346" lon="-1.90348">
        <ele>1581.4</ele>
        <time>2021-10-09 15:00:00</time>
      </trkpt>
      <trkpt lat="40.38345" lon="-1.90348">
        <ele>1581.4</ele>
        <time>2021-10-09 15:00:01</time>
      </trkpt>
      <trkpt lat="40.38346" lon="-1.90348">
        <ele>1581.6</ele>
        <time>2021-10-09 15:00:02</time>
      </trkpt>
      <trkpt lat="40.38347" lon="-1.9035">
        <ele>1581.6</ele>
        <time>2021-10-09 15:00:03</time>
      </trkpt>
      <trkpt lat="40.38347" lon="-1.90352">
        <ele>1581.6</ele>
        <time>2021-10-09 15:00:04</time>
      </trkpt>
      <trkpt lat="40.38347" lon="-1.90355">
        <ele>1581.6</ele>
        <time>2021-10-09 15:00:05</time>
      </trkpt>
      <trkpt lat="40.38348" lon="-1.90358">
        <ele>1582</ele>
        <time>2021-10-09 15:00:06</time>
      </trkpt>
      <trkpt lat="40.38348" lon="-1.90361">
        <ele>1582</ele>
        <time>2021-10-09 15:00:07</time>
      </trkpt>
      <trkpt lat="40.38348" lon="-1.90364">
        <ele>1582.2</ele>
        <time>2021-10-09 15:00:08</time>
      </trkpt>
      <trkpt lat="40.38348" lon="-1.90367">
        <ele>1582.4</ele>
        <time>2021-10-09 15:00:09</time>
      </trkpt>
      <trkpt lat="40.38348" lon="-1.9037">
        <ele>1582.6</ele>
        <time>2021-10-09 15:00:10</time>
      </trkpt>
      <trkpt lat="40.38349" lon="-1.90372">
        <ele>1582.6</ele>
        <time>2021-10-09 15:00:11</time>
      </trkpt>
      <trkpt lat="40.38349" lon="-1.90375">
        <ele>1583</ele>
        <time>2021-10-09 15:00:12</time>
      </trkpt>
      <trkpt lat="40.38349" lon="-1.90377">
        <ele>1583</ele>
        <time>2021-10-09 15:00:13</time>
      </trkpt>
      <trkpt lat="40.3835" lon="-1.9038">
        <ele>1583.4</ele>
        <time>2021-10-09 15:00:14</time>
      </trkpt>
      <trkpt lat="40.3835" lon="-1.90382">
        <ele>1583.6</ele>
        <time>2021-10-09 15:00:15</time>
      </trkpt>
      <trkpt lat="40.3835" lon="-1.90384">
        <ele>1583.6</ele>
        <time>2021-10-09 15:00:16</time>
      </trkpt>
      <trkpt lat="40.3835" lon="-1.90387">
        <ele>1584</ele>
        <time>2021-10-09 15:00:17</time>
      </trkpt>
      <trkpt lat="40.3835" lon="-1.9039">
        <ele>1584</ele>
        <time>2021-10-09 15:00:18</time>
      </trkpt>
      <trkpt lat="40.38351" lon="-1.90393">
        <ele>1584.4</ele>
        <time>2021-10-09 15:00:19</time>
      </trkpt>
      <trkpt lat="40.38351" lon="-1.90396">
        <ele>1584.8</ele>
        <time>2021-10-09 15:00:20</time>
      </trkpt>
      <trkpt lat="40.38352" lon="-1.90398">
        <ele>1584.8</ele>
        <time>2021-10-09 15:00:21</time>
      </trkpt>
      <trkpt lat="40.38352" lon="-1.904">
        <ele>1585</ele>
        <time>2021-10-09 15:00:22</time>
      </trkpt>
      <trkpt lat="40.38353" lon="-1.90403">
        <ele>1585</ele>
        <time>2021-10-09 15:00:23</time>
      </trkpt>
      <trkpt lat="40.38353" lon="-1.90405">
        <ele>1585</ele>
        <time>2021-10-09 15:00:24</time>
      </trkpt>
      <trkpt lat="40.38354" lon="-1.90407">
        <ele>1585.4</ele>
        <time>2021-10-09 15:00:25</time>
      </trkpt>
      <trkpt lat="40.38354" lon="-1.90409">
        <ele>1585.4</ele>
        <time>2021-10-09 15:00:26</time>
      </trkpt>
      <trkpt lat="40.38354" lon="-1.90411">
        <ele>1585.8</ele>
        <time>2021-10-09 15:00:27</time>
      </trkpt>
      <trkpt lat="40.38355" lon="-1.90414">
        <ele>1586</ele>
        <time>2021-10-09 15:00:28</time>
      </trkpt>
      <trkpt lat="40.38355" lon="-1.90417">
        <ele>1586.2</ele>
        <time>2021-10-09 15:00:29</time>
      </trkpt>
      <trkpt lat="40.38355" lon="-1.90419">
        <ele>1586.4</ele>
        <time>2021-10-09 15:00:30</time>
      </trkpt>
      <trkpt lat="40.38355" lon="-1.90421">
        <ele>1586.4</ele>
        <time>2021-10-09 15:00:31</time>
      </trkpt>
      <trkpt lat="40.38355" lon="-1.90423">
        <ele>1586.8</ele>
        <time>2021-10-09 15:00:34</time>
      </trkpt>
      <trkpt lat="40.38356" lon="-1.90425">
        <ele>1587</ele>
        <time>2021-10-09 15:00:35</time>
      </trkpt>
      <trkpt lat="40.38356" lon="-1.90427">
        <ele>1587.4</ele>
        <time>2021-10-09 15:00:36</time>
      </trkpt>
      <trkpt lat="40.38355" lon="-1.9043">
        <ele>1587.4</ele>
        <time>2021-10-09 15:00:37</time>
      </trkpt>
      <trkpt lat="40.38355" lon="-1.90432">
        <ele>1587.6</ele>
        <time>2021-10-09 15:00:38</time>
      </trkpt>
      <trkpt lat="40.38355" lon="-1.90434">
        <ele>1587.6</ele>
        <time>2021-10-09 15:00:39</time>
      </trkpt>
      <trkpt lat="40.38354" lon="-1.90437">
        <ele>1587.8</ele>
        <time>2021-10-09 15:00:40</time>
      </trkpt>
      <trkpt lat="40.38354" lon="-1.9044">
        <ele>1588.2</ele>
        <time>2021-10-09 15:00:41</time>
      </trkpt>
      <trkpt lat="40.38354" lon="-1.90442">
        <ele>1588.4</ele>
        <time>2021-10-09 15:00:42</time>
      </trkpt>
      <trkpt lat="40.38354" lon="-1.90444">
        <ele>1588.8</ele>
        <time>2021-10-09 15:00:43</time>
      </trkpt>
      <trkpt lat="40.38354" lon="-1.90446">
        <ele>1588.8</ele>
        <time>2021-10-09 15:00:44</time>
      </trkpt>
      <trkpt lat="40.38354" lon="-1.90448">
        <ele>1589.2</ele>
        <time>2021-10-09 15:00:45</time>
      </trkpt>
      <trkpt lat="40.38353" lon="-1.9045">
        <ele>1589.2</ele>
        <time>2021-10-09 15:00:46</time>
      </trkpt>
      <trkpt lat="40.38353" lon="-1.90452">
        <ele>1589.6</ele>
        <time>2021-10-09 15:00:47</time>
      </trkpt>
      <trkpt lat="40.38352" lon="-1.90454">
        <ele>1589.8</ele>
        <time>2021-10-09 15:00:48</time>
      </trkpt>
      <trkpt lat="40.38351" lon="-1.90456">
        <ele>1590.2</ele>
        <time>2021-10-09 15:00:49</time>
      </trkpt>
      <trkpt lat="40.3835" lon="-1.90458">
        <ele>1590.4</ele>
        <time>2021-10-09 15:00:50</time>
      </trkpt>
      <trkpt lat="40.3835" lon="-1.9046">
        <ele>1590.6</ele>
        <time>2021-10-09 15:00:51</time>
      </trkpt>
      <trkpt lat="40.38349" lon="-1.90463">
        <ele>1590.6</ele>
        <time>2021-10-09 15:00:52</time>
      </trkpt>
      <trkpt lat="40.38349" lon="-1.90465">
        <ele>1591</ele>
        <time>2021-10-09 15:00:53</time>
      </trkpt>
      <trkpt lat="40.38348" lon="-1.90467">
        <ele>1591</ele>
        <time>2021-10-09 15:00:54</time>
      </trkpt>
      <trkpt lat="40.38348" lon="-1.90469">
        <ele>1591.4</ele>
        <time>2021-10-09 15:00:55</time>
      </trkpt>
      <trkpt lat="40.38347" lon="-1.90471">
        <ele>1591.8</ele>
        <time>2021-10-09 15:00:56</time>
      </trkpt>
      <trkpt lat="40.38346" lon="-1.90472">
        <ele>1592</ele>
        <time>2021-10-09 15:00:57</time>
      </trkpt>
      <trkpt lat="40.38345" lon="-1.90474">
        <ele>1592.4</ele>
        <time>2021-10-09 15:00:58</time>
      </trkpt>
      <trkpt lat="40.38344" lon="-1.90476">
        <ele>1592.6</ele>
        <time>2021-10-09 15:00:59</time>
      </trkpt>
      <trkpt lat="40.38342" lon="-1.90478">
        <ele>1593</ele>
        <time>2021-10-09 15:01:00</time>
      </trkpt>
      <trkpt lat="40.38341" lon="-1.90479">
        <ele>1593</ele>
        <time>2021-10-09 15:01:01</time>
      </trkpt>
      <trkpt lat="40.3834" lon="-1.9048">
        <ele>1593.2</ele>
        <time>2021-10-09 15:01:02</time>
      </trkpt>
      <trkpt lat="40.38338" lon="-1.9048">
        <ele>1593.6</ele>
        <time>2021-10-09 15:01:03</time>
      </trkpt>
      <trkpt lat="40.38337" lon="-1.90481">
        <ele>1593.8</ele>
        <time>2021-10-09 15:01:04</time>
      </trkpt>
      <trkpt lat="40.38336" lon="-1.90481">
        <ele>1594</ele>
        <time>2021-10-09 15:01:05</time>
      </trkpt>
      <trkpt lat="40.38334" lon="-1.90481">
        <ele>1594</ele>
        <time>2021-10-09 15:01:06</time>
      </trkpt>
      <trkpt lat="40.38333" lon="-1.90481">
        <ele>1594.4</ele>
        <time>2021-10-09 15:01:07</time>
      </trkpt>
      <trkpt lat="40.38331" lon="-1.90481">
        <ele>1594.4</ele>
        <time>2021-10-09 15:01:08</time>
      </trkpt>
      <trkpt lat="40.3833" lon="-1.9048">
        <ele>1595</ele>
        <time>2021-10-09 15:01:09</time>
      </trkpt>
      <trkpt lat="40.38328" lon="-1.9048">
        <ele>1595</ele>
        <time>2021-10-09 15:01:10</time>
      </trkpt>
      <trkpt lat="40.38327" lon="-1.90479">
        <ele>1595.2</ele>
        <time>2021-10-09 15:01:11</time>
      </trkpt>
      <trkpt lat="40.38326" lon="-1.90478">
        <ele>1595.4</ele>
        <time>2021-10-09 15:01:12</time>
      </trkpt>
      <trkpt lat="40.38325" lon="-1.90477">
        <ele>1595.6</ele>
        <time>2021-10-09 15:01:13</time>
      </trkpt>
      <trkpt lat="40.38324" lon="-1.90477">
        <ele>1596</ele>
        <time>2021-10-09 15:01:14</time>
      </trkpt>
      <trkpt lat="40.38323" lon="-1.90476">
        <ele>1596</ele>
        <time>2021-10-09 15:01:15</time>
      </trkpt>
      <trkpt lat="40.38322" lon="-1.90475">
        <ele>1596.4</ele>
        <time>2021-10-09 15:01:16</time>
      </trkpt>
      <trkpt lat="40.38321" lon="-1.90475">
        <ele>1596.4</ele>
        <time>2021-10-09 15:01:17</time>
      </trkpt>
      <trkpt lat="40.3832" lon="-1.90473">
        <ele>1596.6</ele>
        <time>2021-10-09 15:01:18</time>
      </trkpt>
      <trkpt lat="40.3832" lon="-1.90472">
        <ele>1596.6</ele>
        <time>2021-10-09 15:01:19</time>
      </trkpt>
      <trkpt lat="40.3832" lon="-1.9047">
        <ele>1597</ele>
        <time>2021-10-09 15:01:20</time>
      </trkpt>
      <trkpt lat="40.3832" lon="-1.90469">
        <ele>1597.4</ele>
        <time>2021-10-09 15:01:21</time>
      </trkpt>
      <trkpt lat="40.38319" lon="-1.90467">
        <ele>1597.4</ele>
        <time>2021-10-09 15:01:22</time>
      </trkpt>
      <trkpt lat="40.38318" lon="-1.90465">
        <ele>1597.6</ele>
        <time>2021-10-09 15:01:23</time>
      </trkpt>
      <trkpt lat="40.38317" lon="-1.90464">
        <ele>1597.8</ele>
        <time>2021-10-09 15:01:24</time>
      </trkpt>
      <trkpt lat="40.38317" lon="-1.90463">
        <ele>1597.8</ele>
        <time>2021-10-09 15:01:25</time>
      </trkpt>
      <trkpt lat="40.38316" lon="-1.90461">
        <ele>1598.2</ele>
        <time>2021-10-09 15:01:26</time>
      </trkpt>
      <trkpt lat="40.38316" lon="-1.9046">
        <ele>1598.2</ele>
        <time>2021-10-09 15:01:27</time>
      </trkpt>
      <trkpt lat="40.38316" lon="-1.9046">
        <ele>1598.4</ele>
        <time>2021-10-09 15:01:28</time>
      </trkpt>
      <trkpt lat="40.38315" lon="-1.90458">
        <ele>1598.4</ele>
        <time>2021-10-09 15:01:29</time>
      </trkpt>
      <trkpt lat="40.38314" lon="-1.90456">
        <ele>1598.6</ele>
        <time>2021-10-09 15:01:30</time>
      </trkpt>
      <trkpt lat="40.38313" lon="-1.90455">
        <ele>1598.6</ele>
        <time>2021-10-09 15:01:31</time>
      </trkpt>
      <trkpt lat="40.38312" lon="-1.90454">
        <ele>1598.6</ele>
        <time>2021-10-09 15:01:32</time>
      </trkpt>
      <trkpt lat="40.38311" lon="-1.90453">
        <ele>1599</ele>
        <time>2021-10-09 15:01:33</time>
      </trkpt>
      <trkpt lat="40.3831" lon="-1.90451">
        <ele>1599</ele>
        <time>2021-10-09 15:01:34</time>
      </trkpt>
      <trkpt lat="40.38309" lon="-1.9045">
        <ele>1599.2</ele>
        <time>2021-10-09 15:01:35</time>
      </trkpt>
      <trkpt lat="40.38308" lon="-1.90448">
        <ele>1599.2</ele>
        <time>2021-10-09 15:01:36</time>
      </trkpt>
      <trkpt lat="40.38307" lon="-1.90447">
        <ele>1599.2</ele>
        <time>2021-10-09 15:01:37</time>
      </trkpt>
      <trkpt lat="40.38306" lon="-1.90445">
        <ele>1599.4</ele>
        <time>2021-10-09 15:01:38</time>
      </trkpt>
      <trkpt lat="40.38305" lon="-1.90444">
        <ele>1599.4</ele>
        <time>2021-10-09 15:01:39</time>
      </trkpt>
      <trkpt lat="40.38304" lon="-1.90442">
        <ele>1599.8</ele>
        <time>2021-10-09 15:01:40</time>
      </trkpt>
      <trkpt lat="40.38304" lon="-1.9044">
        <ele>1599.8</ele>
        <time>2021-10-09 15:01:41</time>
      </trkpt>
      <trkpt lat="40.38303" lon="-1.90439">
        <ele>1600</ele>
        <time>2021-10-09 15:01:42</time>
      </trkpt>
      <trkpt lat="40.38302" lon="-1.90437">
        <ele>1600</ele>
        <time>2021-10-09 15:01:43</time>
      </trkpt>
      <trkpt lat="40.38301" lon="-1.90436">
        <ele>1600</ele>
        <time>2021-10-09 15:01:44</time>
      </trkpt>
      <trkpt lat="40.383" lon="-1.90435">
        <ele>1600.4</ele>
        <time>2021-10-09 15:01:45</time>
      </trkpt>
      <trkpt lat="40.38299" lon="-1.90433">
        <ele>1600.4</ele>
        <time>2021-10-09 15:01:46</time>
      </trkpt>
      <trkpt lat="40.38298" lon="-1.90431">
        <ele>1600.6</ele>
        <time>2021-10-09 15:01:47</time>
      </trkpt>
      <trkpt lat="40.38297" lon="-1.9043">
        <ele>1600.6</ele>
        <time>2021-10-09 15:01:48</time>
      </trkpt>
      <trkpt lat="40.38296" lon="-1.90429">
        <ele>1600.6</ele>
        <time>2021-10-09 15:01:49</time>
      </trkpt>
      <trkpt lat="40.38295" lon="-1.90427">
        <ele>1600.6</ele>
        <time>2021-10-09 15:01:50</time>
      </trkpt>
      <trkpt lat="40.38294" lon="-1.90426">
        <ele>1600.8</ele>
        <time>2021-10-09 15:01:51</time>
      </trkpt>
      <trkpt lat="40.38293" lon="-1.90424">
        <ele>1600.8</ele>
        <time>2021-10-09 15:01:52</time>
      </trkpt>
      <trkpt lat="40.38292" lon="-1.90422">
        <ele>1601</ele>
        <time>2021-10-09 15:01:53</time>
      </trkpt>
      <trkpt lat="40.38291" lon="-1.9042">
        <ele>1601</ele>
        <time>2021-10-09 15:01:54</time>
      </trkpt>
      <trkpt lat="40.38291" lon="-1.90418">
        <ele>1601.4</ele>
        <time>2021-10-09 15:01:55</time>
      </trkpt>
      <trkpt lat="40.3829" lon="-1.90417">
        <ele>1601.4</ele>
        <time>2021-10-09 15:01:56</time>
      </trkpt>
      <trkpt lat="40.3829" lon="-1.90416">
        <ele>1601.6</ele>
        <time>2021-10-09 15:01:57</time>
      </trkpt>
      <trkpt lat="40.38289" lon="-1.90415">
        <ele>1601.6</ele>
        <time>2021-10-09 15:01:58</time>
      </trkpt>
      <trkpt lat="40.38288" lon="-1.90413">
        <ele>1601.8</ele>
        <time>2021-10-09 15:01:59</time>
      </trkpt>
      <trkpt lat="40.38287" lon="-1.90412">
        <ele>1601.8</ele>
        <time>2021-10-09 15:02:00</time>
      </trkpt>
      <trkpt lat="40.38287" lon="-1.90411">
        <ele>1602.2</ele>
        <time>2021-10-09 15:02:01</time>
      </trkpt>
      <trkpt lat="40.38286" lon="-1.9041">
        <ele>1602.2</ele>
        <time>2021-10-09 15:02:02</time>
      </trkpt>
      <trkpt lat="40.38284" lon="-1.90408">
        <ele>1602.2</ele>
        <time>2021-10-09 15:02:03</time>
      </trkpt>
      <trkpt lat="40.38283" lon="-1.90407">
        <ele>1602.6</ele>
        <time>2021-10-09 15:02:04</time>
      </trkpt>
      <trkpt lat="40.38282" lon="-1.90405">
        <ele>1602.6</ele>
        <time>2021-10-09 15:02:05</time>
      </trkpt>
      <trkpt lat="40.38281" lon="-1.90404">
        <ele>1602.8</ele>
        <time>2021-10-09 15:02:06</time>
      </trkpt>
      <trkpt lat="40.3828" lon="-1.90402">
        <ele>1602.8</ele>
        <time>2021-10-09 15:02:07</time>
      </trkpt>
      <trkpt lat="40.3828" lon="-1.90402">
        <ele>1603</ele>
        <time>2021-10-09 15:02:08</time>
      </trkpt>
      <trkpt lat="40.38279" lon="-1.904">
        <ele>1603</ele>
        <time>2021-10-09 15:02:09</time>
      </trkpt>
      <trkpt lat="40.38278" lon="-1.90399">
        <ele>1603.2</ele>
        <time>2021-10-09 15:02:10</time>
      </trkpt>
      <trkpt lat="40.38277" lon="-1.90398">
        <ele>1603.2</ele>
        <time>2021-10-09 15:02:11</time>
      </trkpt>
      <trkpt lat="40.38276" lon="-1.90397">
        <ele>1603.6</ele>
        <time>2021-10-09 15:02:12</time>
      </trkpt>
      <trkpt lat="40.38275" lon="-1.90396">
        <ele>1603.6</ele>
        <time>2021-10-09 15:02:13</time>
      </trkpt>
      <trkpt lat="40.38274" lon="-1.90394">
        <ele>1603.8</ele>
        <time>2021-10-09 15:02:14</time>
      </trkpt>
      <trkpt lat="40.38273" lon="-1.90392">
        <ele>1603.8</ele>
        <time>2021-10-09 15:02:15</time>
      </trkpt>
      <trkpt lat="40.38273" lon="-1.90391">
        <ele>1604</ele>
        <time>2021-10-09 15:02:16</time>
      </trkpt>
      <trkpt lat="40.38272" lon="-1.90389">
        <ele>1604</ele>
        <time>2021-10-09 15:02:17</time>
      </trkpt>
      <trkpt lat="40.38271" lon="-1.90388">
        <ele>1604</ele>
        <time>2021-10-09 15:02:18</time>
      </trkpt>
      <trkpt lat="40.38271" lon="-1.90386">
        <ele>1604.4</ele>
        <time>2021-10-09 15:02:19</time>
      </trkpt>
      <trkpt lat="40.38269" lon="-1.90384">
        <ele>1604.6</ele>
        <time>2021-10-09 15:02:20</time>
      </trkpt>
      <trkpt lat="40.38268" lon="-1.90383">
        <ele>1604.6</ele>
        <time>2021-10-09 15:02:21</time>
      </trkpt>
      <trkpt lat="40.38267" lon="-1.90381">
        <ele>1604.6</ele>
        <time>2021-10-09 15:02:22</time>
      </trkpt>
      <trkpt lat="40.38266" lon="-1.90379">
        <ele>1604.6</ele>
        <time>2021-10-09 15:02:23</time>
      </trkpt>
      <trkpt lat="40.38265" lon="-1.90378">
        <ele>1604.8</ele>
        <time>2021-10-09 15:02:24</time>
      </trkpt>
      <trkpt lat="40.38264" lon="-1.90377">
        <ele>1604.8</ele>
        <time>2021-10-09 15:02:25</time>
      </trkpt>
      <trkpt lat="40.38263" lon="-1.90375">
        <ele>1605</ele>
        <time>2021-10-09 15:02:26</time>
      </trkpt>
      <trkpt lat="40.38262" lon="-1.90373">
        <ele>1605.4</ele>
        <time>2021-10-09 15:02:27</time>
      </trkpt>
      <trkpt lat="40.38261" lon="-1.90371">
        <ele>1605.4</ele>
        <time>2021-10-09 15:02:28</time>
      </trkpt>
      <trkpt lat="40.38261" lon="-1.9037">
        <ele>1605.6</ele>
        <time>2021-10-09 15:02:29</time>
      </trkpt>
      <trkpt lat="40.3826" lon="-1.90368">
        <ele>1605.6</ele>
        <time>2021-10-09 15:02:30</time>
      </trkpt>
      <trkpt lat="40.38259" lon="-1.90366">
        <ele>1605.6</ele>
        <time>2021-10-09 15:02:31</time>
      </trkpt>
      <trkpt lat="40.38258" lon="-1.90364">
        <ele>1606</ele>
        <time>2021-10-09 15:02:32</time>
      </trkpt>
      <trkpt lat="40.38256" lon="-1.90362">
        <ele>1606.2</ele>
        <time>2021-10-09 15:02:33</time>
      </trkpt>
      <trkpt lat="40.38255" lon="-1.90359">
        <ele>1606.2</ele>
        <time>2021-10-09 15:02:34</time>
      </trkpt>
      <trkpt lat="40.38254" lon="-1.90357">
        <ele>1606.4</ele>
        <time>2021-10-09 15:02:35</time>
      </trkpt>
      <trkpt lat="40.38253" lon="-1.90355">
        <ele>1606.4</ele>
        <time>2021-10-09 15:02:36</time>
      </trkpt>
      <trkpt lat="40.38252" lon="-1.90353">
        <ele>1606.4</ele>
        <time>2021-10-09 15:02:37</time>
      </trkpt>
      <trkpt lat="40.38251" lon="-1.90352">
        <ele>1606.4</ele>
        <time>2021-10-09 15:02:38</time>
      </trkpt>
      <trkpt lat="40.38251" lon="-1.9035">
        <ele>1606.8</ele>
        <time>2021-10-09 15:02:39</time>
      </trkpt>
      <trkpt lat="40.3825" lon="-1.90349">
        <ele>1606.8</ele>
        <time>2021-10-09 15:02:40</time>
      </trkpt>
      <trkpt lat="40.38249" lon="-1.90347">
        <ele>1607</ele>
        <time>2021-10-09 15:02:41</time>
      </trkpt>
      <trkpt lat="40.38249" lon="-1.90346">
        <ele>1607</ele>
        <time>2021-10-09 15:02:42</time>
      </trkpt>
      <trkpt lat="40.38248" lon="-1.90344">
        <ele>1607</ele>
        <time>2021-10-09 15:02:43</time>
      </trkpt>
      <trkpt lat="40.38247" lon="-1.90342">
        <ele>1607.2</ele>
        <time>2021-10-09 15:02:44</time>
      </trkpt>
      <trkpt lat="40.38246" lon="-1.90341">
        <ele>1607.2</ele>
        <time>2021-10-09 15:02:45</time>
      </trkpt>
      <trkpt lat="40.38245" lon="-1.90339">
        <ele>1607.2</ele>
        <time>2021-10-09 15:02:46</time>
      </trkpt>
      <trkpt lat="40.38244" lon="-1.90337">
        <ele>1607.6</ele>
        <time>2021-10-09 15:02:47</time>
      </trkpt>
      <trkpt lat="40.38244" lon="-1.90335">
        <ele>1607.6</ele>
        <time>2021-10-09 15:02:48</time>
      </trkpt>
      <trkpt lat="40.38243" lon="-1.90333">
        <ele>1607.6</ele>
        <time>2021-10-09 15:02:49</time>
      </trkpt>
      <trkpt lat="40.38242" lon="-1.90331">
        <ele>1607.6</ele>
        <time>2021-10-09 15:02:50</time>
      </trkpt>
      <trkpt lat="40.38241" lon="-1.90329">
        <ele>1607.6</ele>
        <time>2021-10-09 15:02:51</time>
      </trkpt>
      <trkpt lat="40.3824" lon="-1.90326">
        <ele>1607.8</ele>
        <time>2021-10-09 15:02:52</time>
      </trkpt>
      <trkpt lat="40.38238" lon="-1.90324">
        <ele>1607.8</ele>
        <time>2021-10-09 15:02:53</time>
      </trkpt>
      <trkpt lat="40.38238" lon="-1.90321">
        <ele>1607.8</ele>
        <time>2021-10-09 15:02:54</time>
      </trkpt>
      <trkpt lat="40.38237" lon="-1.90318">
        <ele>1607.8</ele>
        <time>2021-10-09 15:02:55</time>
      </trkpt>
      <trkpt lat="40.38236" lon="-1.90316">
        <ele>1607.8</ele>
        <time>2021-10-09 15:02:56</time>
      </trkpt>
      <trkpt lat="40.38235" lon="-1.90313">
        <ele>1607.8</ele>
        <time>2021-10-09 15:02:57</time>
      </trkpt>
      <trkpt lat="40.38234" lon="-1.9031">
        <ele>1607.8</ele>
        <time>2021-10-09 15:02:58</time>
      </trkpt>
      <trkpt lat="40.38233" lon="-1.90308">
        <ele>1607.8</ele>
        <time>2021-10-09 15:02:59</time>
      </trkpt>
      <trkpt lat="40.38232" lon="-1.90305">
        <ele>1607.8</ele>
        <time>2021-10-09 15:03:00</time>
      </trkpt>
      <trkpt lat="40.38231" lon="-1.90302">
        <ele>1607.8</ele>
        <time>2021-10-09 15:03:01</time>
      </trkpt>
      <trkpt lat="40.38231" lon="-1.903">
        <ele>1608</ele>
        <time>2021-10-09 15:03:02</time>
      </trkpt>
      <trkpt lat="40.3823" lon="-1.90297">
        <ele>1608</ele>
        <time>2021-10-09 15:03:03</time>
      </trkpt>
      <trkpt lat="40.38229" lon="-1.90294">
        <ele>1608</ele>
        <time>2021-10-09 15:03:04</time>
      </trkpt>
      <trkpt lat="40.38229" lon="-1.90291">
        <ele>1608</ele>
        <time>2021-10-09 15:03:05</time>
      </trkpt>
      <trkpt lat="40.38228" lon="-1.90288">
        <ele>1608.2</ele>
        <time>2021-10-09 15:03:06</time>
      </trkpt>
      <trkpt lat="40.38227" lon="-1.90285">
        <ele>1608.2</ele>
        <time>2021-10-09 15:03:07</time>
      </trkpt>
      <trkpt lat="40.38226" lon="-1.90282">
        <ele>1608.2</ele>
        <time>2021-10-09 15:03:08</time>
      </trkpt>
      <trkpt lat="40.38226" lon="-1.9028">
        <ele>1608.4</ele>
        <time>2021-10-09 15:03:09</time>
      </trkpt>
      <trkpt lat="40.38225" lon="-1.90277">
        <ele>1608.4</ele>
        <time>2021-10-09 15:03:10</time>
      </trkpt>
      <trkpt lat="40.38225" lon="-1.90273">
        <ele>1608.4</ele>
        <time>2021-10-09 15:03:11</time>
      </trkpt>
      <trkpt lat="40.38225" lon="-1.9027">
        <ele>1608.4</ele>
        <time>2021-10-09 15:03:12</time>
      </trkpt>
      <trkpt lat="40.38224" lon="-1.90267">
        <ele>1608.4</ele>
        <time>2021-10-09 15:03:13</time>
      </trkpt>
      <trkpt lat="40.38223" lon="-1.90263">
        <ele>1608.4</ele>
        <time>2021-10-09 15:03:14</time>
      </trkpt>
      <trkpt lat="40.38222" lon="-1.9026">
        <ele>1608.4</ele>
        <time>2021-10-09 15:03:15</time>
      </trkpt>
      <trkpt lat="40.38221" lon="-1.90256">
        <ele>1608.6</ele>
        <time>2021-10-09 15:03:16</time>
      </trkpt>
      <trkpt lat="40.3822" lon="-1.90252">
        <ele>1608.6</ele>
        <time>2021-10-09 15:03:17</time>
      </trkpt>
      <trkpt lat="40.3822" lon="-1.90248">
        <ele>1608.6</ele>
        <time>2021-10-09 15:03:18</time>
      </trkpt>
      <trkpt lat="40.38219" lon="-1.90244">
        <ele>1609</ele>
        <time>2021-10-09 15:03:19</time>
      </trkpt>
      <trkpt lat="40.38219" lon="-1.9024">
        <ele>1609</ele>
        <time>2021-10-09 15:03:20</time>
      </trkpt>
      <trkpt lat="40.38219" lon="-1.90237">
        <ele>1609</ele>
        <time>2021-10-09 15:03:21</time>
      </trkpt>
      <trkpt lat="40.38219" lon="-1.90234">
        <ele>1609.2</ele>
        <time>2021-10-09 15:03:22</time>
      </trkpt>
      <trkpt lat="40.38218" lon="-1.9023">
        <ele>1609.2</ele>
        <time>2021-10-09 15:03:23</time>
      </trkpt>
      <trkpt lat="40.38218" lon="-1.90226">
        <ele>1609.2</ele>
        <time>2021-10-09 15:03:24</time>
      </trkpt>
      <trkpt lat="40.38218" lon="-1.90221">
        <ele>1609.4</ele>
        <time>2021-10-09 15:03:25</time>
      </trkpt>
      <trkpt lat="40.38218" lon="-1.90217">
        <ele>1609.4</ele>
        <time>2021-10-09 15:03:26</time>
      </trkpt>
      <trkpt lat="40.38218" lon="-1.90214">
        <ele>1609.4</ele>
        <time>2021-10-09 15:03:27</time>
      </trkpt>
      <trkpt lat="40.38218" lon="-1.9021">
        <ele>1609.4</ele>
        <time>2021-10-09 15:03:28</time>
      </trkpt>
      <trkpt lat="40.38218" lon="-1.90207">
        <ele>1609.4</ele>
        <time>2021-10-09 15:03:29</time>
      </trkpt>
      <trkpt lat="40.38217" lon="-1.90204">
        <ele>1609.4</ele>
        <time>2021-10-09 15:03:30</time>
      </trkpt>
      <trkpt lat="40.38217" lon="-1.90201">
        <ele>1609.6</ele>
        <time>2021-10-09 15:03:31</time>
      </trkpt>
      <trkpt lat="40.38216" lon="-1.90197">
        <ele>1609.6</ele>
        <time>2021-10-09 15:03:32</time>
      </trkpt>
      <trkpt lat="40.38216" lon="-1.90194">
        <ele>1609.8</ele>
        <time>2021-10-09 15:03:33</time>
      </trkpt>
      <trkpt lat="40.38215" lon="-1.90191">
        <ele>1609.8</ele>
        <time>2021-10-09 15:03:34</time>
      </trkpt>
      <trkpt lat="40.38214" lon="-1.90189">
        <ele>1610.2</ele>
        <time>2021-10-09 15:03:35</time>
      </trkpt>
      <trkpt lat="40.38213" lon="-1.90186">
        <ele>1610.2</ele>
        <time>2021-10-09 15:03:36</time>
      </trkpt>
      <trkpt lat="40.38212" lon="-1.90183">
        <ele>1610.4</ele>
        <time>2021-10-09 15:03:37</time>
      </trkpt>
      <trkpt lat="40.38211" lon="-1.90181">
        <ele>1610.4</ele>
        <time>2021-10-09 15:03:38</time>
      </trkpt>
      <trkpt lat="40.3821" lon="-1.90179">
        <ele>1610.6</ele>
        <time>2021-10-09 15:03:39</time>
      </trkpt>
      <trkpt lat="40.38209" lon="-1.90176">
        <ele>1610.6</ele>
        <time>2021-10-09 15:03:40</time>
      </trkpt>
      <trkpt lat="40.38208" lon="-1.90174">
        <ele>1611</ele>
        <time>2021-10-09 15:03:41</time>
      </trkpt>
      <trkpt lat="40.38206" lon="-1.90172">
        <ele>1611</ele>
        <time>2021-10-09 15:03:42</time>
      </trkpt>
      <trkpt lat="40.38205" lon="-1.9017">
        <ele>1611.2</ele>
        <time>2021-10-09 15:03:43</time>
      </trkpt>
      <trkpt lat="40.38203" lon="-1.90167">
        <ele>1611.4</ele>
        <time>2021-10-09 15:03:44</time>
      </trkpt>
      <trkpt lat="40.38202" lon="-1.90166">
        <ele>1611.4</ele>
        <time>2021-10-09 15:03:45</time>
      </trkpt>
      <trkpt lat="40.38201" lon="-1.90164">
        <ele>1611.8</ele>
        <time>2021-10-09 15:03:46</time>
      </trkpt>
      <trkpt lat="40.38199" lon="-1.90162">
        <ele>1611.8</ele>
        <time>2021-10-09 15:03:47</time>
      </trkpt>
      <trkpt lat="40.38197" lon="-1.90161">
        <ele>1612.2</ele>
        <time>2021-10-09 15:03:48</time>
      </trkpt>
      <trkpt lat="40.38196" lon="-1.90159">
        <ele>1612.2</ele>
        <time>2021-10-09 15:03:49</time>
      </trkpt>
      <trkpt lat="40.38194" lon="-1.90157">
        <ele>1612.6</ele>
        <time>2021-10-09 15:03:50</time>
      </trkpt>
      <trkpt lat="40.38193" lon="-1.90155">
        <ele>1612.8</ele>
        <time>2021-10-09 15:03:51</time>
      </trkpt>
      <trkpt lat="40.38192" lon="-1.90153">
        <ele>1612.8</ele>
        <time>2021-10-09 15:03:52</time>
      </trkpt>
      <trkpt lat="40.38191" lon="-1.90152">
        <ele>1613.2</ele>
        <time>2021-10-09 15:03:53</time>
      </trkpt>
      <trkpt lat="40.38191" lon="-1.9015">
        <ele>1613.2</ele>
        <time>2021-10-09 15:03:54</time>
      </trkpt>
      <trkpt lat="40.3819" lon="-1.90148">
        <ele>1613.4</ele>
        <time>2021-10-09 15:03:55</time>
      </trkpt>
      <trkpt lat="40.38189" lon="-1.90146">
        <ele>1613.8</ele>
        <time>2021-10-09 15:03:56</time>
      </trkpt>
      <trkpt lat="40.38188" lon="-1.90145">
        <ele>1613.8</ele>
        <time>2021-10-09 15:03:57</time>
      </trkpt>
      <trkpt lat="40.38187" lon="-1.90143">
        <ele>1614</ele>
        <time>2021-10-09 15:03:58</time>
      </trkpt>
      <trkpt lat="40.38185" lon="-1.90141">
        <ele>1614.4</ele>
        <time>2021-10-09 15:03:59</time>
      </trkpt>
      <trkpt lat="40.38184" lon="-1.90139">
        <ele>1614.4</ele>
        <time>2021-10-09 15:04:00</time>
      </trkpt>
      <trkpt lat="40.38183" lon="-1.90137">
        <ele>1614.6</ele>
        <time>2021-10-09 15:04:01</time>
      </trkpt>
      <trkpt lat="40.38182" lon="-1.90136">
        <ele>1614.6</ele>
        <time>2021-10-09 15:04:02</time>
      </trkpt>
      <trkpt lat="40.38181" lon="-1.90134">
        <ele>1614.6</ele>
        <time>2021-10-09 15:04:03</time>
      </trkpt>
      <trkpt lat="40.38179" lon="-1.90132">
        <ele>1614.8</ele>
        <time>2021-10-09 15:04:04</time>
      </trkpt>
      <trkpt lat="40.38178" lon="-1.9013">
        <ele>1614.8</ele>
        <time>2021-10-09 15:04:05</time>
      </trkpt>
      <trkpt lat="40.38176" lon="-1.90127">
        <ele>1615</ele>
        <time>2021-10-09 15:04:06</time>
      </trkpt>
      <trkpt lat="40.38175" lon="-1.90125">
        <ele>1615</ele>
        <time>2021-10-09 15:04:07</time>
      </trkpt>
      <trkpt lat="40.38174" lon="-1.90122">
        <ele>1615</ele>
        <time>2021-10-09 15:04:08</time>
      </trkpt>
      <trkpt lat="40.38172" lon="-1.90119">
        <ele>1615.2</ele>
        <time>2021-10-09 15:04:09</time>
      </trkpt>
      <trkpt lat="40.3817" lon="-1.90116">
        <ele>1615.2</ele>
        <time>2021-10-09 15:04:10</time>
      </trkpt>
      <trkpt lat="40.38168" lon="-1.90113">
        <ele>1615.2</ele>
        <time>2021-10-09 15:04:11</time>
      </trkpt>
      <trkpt lat="40.38167" lon="-1.9011">
        <ele>1615.2</ele>
        <time>2021-10-09 15:04:12</time>
      </trkpt>
      <trkpt lat="40.38165" lon="-1.90107">
        <ele>1615.2</ele>
        <time>2021-10-09 15:04:13</time>
      </trkpt>
      <trkpt lat="40.38164" lon="-1.90103">
        <ele>1615.2</ele>
        <time>2021-10-09 15:04:14</time>
      </trkpt>
      <trkpt lat="40.38162" lon="-1.90099">
        <ele>1615.2</ele>
        <time>2021-10-09 15:04:15</time>
      </trkpt>
      <trkpt lat="40.38159" lon="-1.90095">
        <ele>1615.6</ele>
        <time>2021-10-09 15:04:16</time>
      </trkpt>
      <trkpt lat="40.38157" lon="-1.90091">
        <ele>1615.6</ele>
        <time>2021-10-09 15:04:17</time>
      </trkpt>
      <trkpt lat="40.38155" lon="-1.90088">
        <ele>1615.6</ele>
        <time>2021-10-09 15:04:18</time>
      </trkpt>
      <trkpt lat="40.38152" lon="-1.90083">
        <ele>1615.6</ele>
        <time>2021-10-09 15:04:19</time>
      </trkpt>
      <trkpt lat="40.3815" lon="-1.9008">
        <ele>1615.6</ele>
        <time>2021-10-09 15:04:20</time>
      </trkpt>
      <trkpt lat="40.38147" lon="-1.90076">
        <ele>1615.6</ele>
        <time>2021-10-09 15:04:21</time>
      </trkpt>
      <trkpt lat="40.38145" lon="-1.90073">
        <ele>1615.6</ele>
        <time>2021-10-09 15:04:22</time>
      </trkpt>
      <trkpt lat="40.38143" lon="-1.9007">
        <ele>1615.6</ele>
        <time>2021-10-09 15:04:23</time>
      </trkpt>
      <trkpt lat="40.38141" lon="-1.90067">
        <ele>1615.6</ele>
        <time>2021-10-09 15:04:24</time>
      </trkpt>
      <trkpt lat="40.38139" lon="-1.90065">
        <ele>1615.6</ele>
        <time>2021-10-09 15:04:25</time>
      </trkpt>
      <trkpt lat="40.38137" lon="-1.90062">
        <ele>1615.8</ele>
        <time>2021-10-09 15:04:26</time>
      </trkpt>
      <trkpt lat="40.38135" lon="-1.90059">
        <ele>1615.8</ele>
        <time>2021-10-09 15:04:27</time>
      </trkpt>
      <trkpt lat="40.38133" lon="-1.90055">
        <ele>1615.8</ele>
        <time>2021-10-09 15:04:28</time>
      </trkpt>
      <trkpt lat="40.3813" lon="-1.90053">
        <ele>1615.8</ele>
        <time>2021-10-09 15:04:29</time>
      </trkpt>
      <trkpt lat="40.38128" lon="-1.9005">
        <ele>1616</ele>
        <time>2021-10-09 15:04:30</time>
      </trkpt>
      <trkpt lat="40.38125" lon="-1.90047">
        <ele>1616</ele>
        <time>2021-10-09 15:04:31</time>
      </trkpt>
      <trkpt lat="40.38123" lon="-1.90044">
        <ele>1616.4</ele>
        <time>2021-10-09 15:04:32</time>
      </trkpt>
      <trkpt lat="40.3812" lon="-1.90041">
        <ele>1616.4</ele>
        <time>2021-10-09 15:04:33</time>
      </trkpt>
      <trkpt lat="40.38118" lon="-1.90038">
        <ele>1616.4</ele>
        <time>2021-10-09 15:04:34</time>
      </trkpt>
      <trkpt lat="40.38115" lon="-1.90035">
        <ele>1616.6</ele>
        <time>2021-10-09 15:04:35</time>
      </trkpt>
      <trkpt lat="40.38113" lon="-1.90032">
        <ele>1616.6</ele>
        <time>2021-10-09 15:04:36</time>
      </trkpt>
      <trkpt lat="40.3811" lon="-1.9003">
        <ele>1616.6</ele>
        <time>2021-10-09 15:04:37</time>
      </trkpt>
      <trkpt lat="40.38107" lon="-1.90028">
        <ele>1617</ele>
        <time>2021-10-09 15:04:38</time>
      </trkpt>
      <trkpt lat="40.38104" lon="-1.90026">
        <ele>1617</ele>
        <time>2021-10-09 15:04:39</time>
      </trkpt>
      <trkpt lat="40.38101" lon="-1.90024">
        <ele>1617.2</ele>
        <time>2021-10-09 15:04:40</time>
      </trkpt>
      <trkpt lat="40.38099" lon="-1.90022">
        <ele>1617.2</ele>
        <time>2021-10-09 15:04:41</time>
      </trkpt>
      <trkpt lat="40.38096" lon="-1.90019">
        <ele>1617.2</ele>
        <time>2021-10-09 15:04:42</time>
      </trkpt>
      <trkpt lat="40.38094" lon="-1.90016">
        <ele>1617.6</ele>
        <time>2021-10-09 15:04:43</time>
      </trkpt>
      <trkpt lat="40.38092" lon="-1.90014">
        <ele>1617.6</ele>
        <time>2021-10-09 15:04:44</time>
      </trkpt>
      <trkpt lat="40.38089" lon="-1.90011">
        <ele>1617.8</ele>
        <time>2021-10-09 15:04:45</time>
      </trkpt>
      <trkpt lat="40.38087" lon="-1.90008">
        <ele>1617.8</ele>
        <time>2021-10-09 15:04:46</time>
      </trkpt>
      <trkpt lat="40.38084" lon="-1.90006">
        <ele>1618</ele>
        <time>2021-10-09 15:04:47</time>
      </trkpt>
      <trkpt lat="40.38082" lon="-1.90003">
        <ele>1618</ele>
        <time>2021-10-09 15:04:48</time>
      </trkpt>
      <trkpt lat="40.38079" lon="-1.9">
        <ele>1618.4</ele>
        <time>2021-10-09 15:04:49</time>
      </trkpt>
      <trkpt lat="40.38077" lon="-1.89997">
        <ele>1618.4</ele>
        <time>2021-10-09 15:04:50</time>
      </trkpt>
      <trkpt lat="40.38074" lon="-1.89994">
        <ele>1618.6</ele>
        <time>2021-10-09 15:04:51</time>
      </trkpt>
      <trkpt lat="40.38072" lon="-1.89992">
        <ele>1618.6</ele>
        <time>2021-10-09 15:04:52</time>
      </trkpt>
      <trkpt lat="40.38069" lon="-1.89989">
        <ele>1618.6</ele>
        <time>2021-10-09 15:04:53</time>
      </trkpt>
      <trkpt lat="40.38066" lon="-1.89987">
        <ele>1619</ele>
        <time>2021-10-09 15:04:54</time>
      </trkpt>
      <trkpt lat="40.38063" lon="-1.89985">
        <ele>1619</ele>
        <time>2021-10-09 15:04:55</time>
      </trkpt>
      <trkpt lat="40.38061" lon="-1.89982">
        <ele>1619</ele>
        <time>2021-10-09 15:04:56</time>
      </trkpt>
      <trkpt lat="40.38059" lon="-1.89979">
        <ele>1619.2</ele>
        <time>2021-10-09 15:04:57</time>
      </trkpt>
      <trkpt lat="40.38056" lon="-1.89976">
        <ele>1619.2</ele>
        <time>2021-10-09 15:04:58</time>
      </trkpt>
      <trkpt lat="40.38054" lon="-1.89973">
        <ele>1619.2</ele>
        <time>2021-10-09 15:04:59</time>
      </trkpt>
      <trkpt lat="40.38052" lon="-1.8997">
        <ele>1619.4</ele>
        <time>2021-10-09 15:05:00</time>
      </trkpt>
      <trkpt lat="40.3805" lon="-1.89967">
        <ele>1619.4</ele>
        <time>2021-10-09 15:05:01</time>
      </trkpt>
      <trkpt lat="40.38048" lon="-1.89965">
        <ele>1619.4</ele>
        <time>2021-10-09 15:05:02</time>
      </trkpt>
      <trkpt lat="40.38047" lon="-1.89962">
        <ele>1619.6</ele>
        <time>2021-10-09 15:05:03</time>
      </trkpt>
      <trkpt lat="40.38045" lon="-1.8996">
        <ele>1619.6</ele>
        <time>2021-10-09 15:05:04</time>
      </trkpt>
      <trkpt lat="40.38043" lon="-1.89957">
        <ele>1620</ele>
        <time>2021-10-09 15:05:05</time>
      </trkpt>
      <trkpt lat="40.38041" lon="-1.89954">
        <ele>1620</ele>
        <time>2021-10-09 15:05:06</time>
      </trkpt>
      <trkpt lat="40.3804" lon="-1.8995">
        <ele>1620.2</ele>
        <time>2021-10-09 15:05:07</time>
      </trkpt>
      <trkpt lat="40.38039" lon="-1.89946">
        <ele>1620.2</ele>
        <time>2021-10-09 15:05:08</time>
      </trkpt>
      <trkpt lat="40.38038" lon="-1.89942">
        <ele>1620.6</ele>
        <time>2021-10-09 15:05:09</time>
      </trkpt>
      <trkpt lat="40.38037" lon="-1.89937">
        <ele>1620.6</ele>
        <time>2021-10-09 15:05:10</time>
      </trkpt>
      <trkpt lat="40.38037" lon="-1.89932">
        <ele>1621</ele>
        <time>2021-10-09 15:05:11</time>
      </trkpt>
      <trkpt lat="40.38036" lon="-1.89927">
        <ele>1621.2</ele>
        <time>2021-10-09 15:05:12</time>
      </trkpt>
      <trkpt lat="40.38034" lon="-1.89923">
        <ele>1621.6</ele>
        <time>2021-10-09 15:05:13</time>
      </trkpt>
      <trkpt lat="40.38033" lon="-1.89919">
        <ele>1621.8</ele>
        <time>2021-10-09 15:05:14</time>
      </trkpt>
      <trkpt lat="40.38031" lon="-1.89915">
        <ele>1622</ele>
        <time>2021-10-09 15:05:15</time>
      </trkpt>
      <trkpt lat="40.38029" lon="-1.89911">
        <ele>1622.4</ele>
        <time>2021-10-09 15:05:16</time>
      </trkpt>
      <trkpt lat="40.38026" lon="-1.89907">
        <ele>1622.6</ele>
        <time>2021-10-09 15:05:17</time>
      </trkpt>
      <trkpt lat="40.38023" lon="-1.89905">
        <ele>1622.6</ele>
        <time>2021-10-09 15:05:18</time>
      </trkpt>
      <trkpt lat="40.3802" lon="-1.89904">
        <ele>1623</ele>
        <time>2021-10-09 15:05:19</time>
      </trkpt>
      <trkpt lat="40.38015" lon="-1.89904">
        <ele>1623.2</ele>
        <time>2021-10-09 15:05:20</time>
      </trkpt>
      <trkpt lat="40.38012" lon="-1.89905">
        <ele>1623.6</ele>
        <time>2021-10-09 15:05:21</time>
      </trkpt>
      <trkpt lat="40.38009" lon="-1.89908">
        <ele>1623.8</ele>
        <time>2021-10-09 15:05:22</time>
      </trkpt>
      <trkpt lat="40.38006" lon="-1.89911">
        <ele>1624.4</ele>
        <time>2021-10-09 15:05:23</time>
      </trkpt>
      <trkpt lat="40.38003" lon="-1.89915">
        <ele>1624.4</ele>
        <time>2021-10-09 15:05:24</time>
      </trkpt>
      <trkpt lat="40.38002" lon="-1.8992">
        <ele>1624.8</ele>
        <time>2021-10-09 15:05:25</time>
      </trkpt>
      <trkpt lat="40.38001" lon="-1.89924">
        <ele>1625.8</ele>
        <time>2021-10-09 15:05:26</time>
      </trkpt>
      <trkpt lat="40.38" lon="-1.89929">
        <ele>1625.8</ele>
        <time>2021-10-09 15:05:27</time>
      </trkpt>
      <trkpt lat="40.37999" lon="-1.89933">
        <ele>1625.8</ele>
        <time>2021-10-09 15:05:28</time>
      </trkpt>
      <trkpt lat="40.37998" lon="-1.89938">
        <ele>1625.8</ele>
        <time>2021-10-09 15:05:29</time>
      </trkpt>
      <trkpt lat="40.37996" lon="-1.89942">
        <ele>1625.8</ele>
        <time>2021-10-09 15:05:30</time>
      </trkpt>
      <trkpt lat="40.37995" lon="-1.89945">
        <ele>1625.8</ele>
        <time>2021-10-09 15:05:31</time>
      </trkpt>
      <trkpt lat="40.37994" lon="-1.8995">
        <ele>1626.2</ele>
        <time>2021-10-09 15:05:32</time>
      </trkpt>
      <trkpt lat="40.37993" lon="-1.89953">
        <ele>1626.4</ele>
        <time>2021-10-09 15:05:33</time>
      </trkpt>
      <trkpt lat="40.37993" lon="-1.89957">
        <ele>1626.4</ele>
        <time>2021-10-09 15:05:34</time>
      </trkpt>
      <trkpt lat="40.37991" lon="-1.89961">
        <ele>1626.8</ele>
        <time>2021-10-09 15:05:35</time>
      </trkpt>
      <trkpt lat="40.3799" lon="-1.89965">
        <ele>1626.8</ele>
        <time>2021-10-09 15:05:36</time>
      </trkpt>
      <trkpt lat="40.3799" lon="-1.89969">
        <ele>1627.2</ele>
        <time>2021-10-09 15:05:37</time>
      </trkpt>
      <trkpt lat="40.37989" lon="-1.89973">
        <ele>1627.2</ele>
        <time>2021-10-09 15:05:38</time>
      </trkpt>
      <trkpt lat="40.37988" lon="-1.89976">
        <ele>1627.6</ele>
        <time>2021-10-09 15:05:39</time>
      </trkpt>
      <trkpt lat="40.37988" lon="-1.89979">
        <ele>1627.6</ele>
        <time>2021-10-09 15:05:40</time>
      </trkpt>
      <trkpt lat="40.37987" lon="-1.89982">
        <ele>1627.6</ele>
        <time>2021-10-09 15:05:41</time>
      </trkpt>
      <trkpt lat="40.37986" lon="-1.89984">
        <ele>1627.8</ele>
        <time>2021-10-09 15:05:42</time>
      </trkpt>
      <trkpt lat="40.37985" lon="-1.89987">
        <ele>1628.2</ele>
        <time>2021-10-09 15:05:43</time>
      </trkpt>
      <trkpt lat="40.37984" lon="-1.8999">
        <ele>1628.2</ele>
        <time>2021-10-09 15:05:44</time>
      </trkpt>
      <trkpt lat="40.37983" lon="-1.89993">
        <ele>1628.4</ele>
        <time>2021-10-09 15:05:45</time>
      </trkpt>
      <trkpt lat="40.37981" lon="-1.89995">
        <ele>1628.6</ele>
        <time>2021-10-09 15:05:46</time>
      </trkpt>
      <trkpt lat="40.3798" lon="-1.89999">
        <ele>1628.6</ele>
        <time>2021-10-09 15:05:47</time>
      </trkpt>
      <trkpt lat="40.3798" lon="-1.90002">
        <ele>1629</ele>
        <time>2021-10-09 15:05:48</time>
      </trkpt>
      <trkpt lat="40.37979" lon="-1.90004">
        <ele>1629</ele>
        <time>2021-10-09 15:05:49</time>
      </trkpt>
      <trkpt lat="40.37978" lon="-1.90007">
        <ele>1629.2</ele>
        <time>2021-10-09 15:05:50</time>
      </trkpt>
      <trkpt lat="40.37978" lon="-1.9001">
        <ele>1629.2</ele>
        <time>2021-10-09 15:05:51</time>
      </trkpt>
      <trkpt lat="40.37977" lon="-1.90013">
        <ele>1629.6</ele>
        <time>2021-10-09 15:05:52</time>
      </trkpt>
      <trkpt lat="40.37976" lon="-1.90016">
        <ele>1629.6</ele>
        <time>2021-10-09 15:05:53</time>
      </trkpt>
      <trkpt lat="40.37975" lon="-1.90019">
        <ele>1629.8</ele>
        <time>2021-10-09 15:05:54</time>
      </trkpt>
      <trkpt lat="40.37975" lon="-1.90022">
        <ele>1629.8</ele>
        <time>2021-10-09 15:05:55</time>
      </trkpt>
      <trkpt lat="40.37975" lon="-1.90025">
        <ele>1630.2</ele>
        <time>2021-10-09 15:05:56</time>
      </trkpt>
      <trkpt lat="40.37975" lon="-1.90027">
        <ele>1630.2</ele>
        <time>2021-10-09 15:05:57</time>
      </trkpt>
      <trkpt lat="40.37975" lon="-1.90029">
        <ele>1630.4</ele>
        <time>2021-10-09 15:05:58</time>
      </trkpt>
      <trkpt lat="40.37975" lon="-1.90032">
        <ele>1630.4</ele>
        <time>2021-10-09 15:05:59</time>
      </trkpt>
      <trkpt lat="40.37975" lon="-1.90034">
        <ele>1630.6</ele>
        <time>2021-10-09 15:06:00</time>
      </trkpt>
      <trkpt lat="40.37974" lon="-1.90037">
        <ele>1631</ele>
        <time>2021-10-09 15:06:01</time>
      </trkpt>
      <trkpt lat="40.37974" lon="-1.9004">
        <ele>1631</ele>
        <time>2021-10-09 15:06:02</time>
      </trkpt>
      <trkpt lat="40.37975" lon="-1.90043">
        <ele>1631.2</ele>
        <time>2021-10-09 15:06:03</time>
      </trkpt>
      <trkpt lat="40.37975" lon="-1.90046">
        <ele>1631.2</ele>
        <time>2021-10-09 15:06:04</time>
      </trkpt>
      <trkpt lat="40.37975" lon="-1.9005">
        <ele>1631.4</ele>
        <time>2021-10-09 15:06:05</time>
      </trkpt>
      <trkpt lat="40.37976" lon="-1.90053">
        <ele>1631.6</ele>
        <time>2021-10-09 15:06:06</time>
      </trkpt>
      <trkpt lat="40.37976" lon="-1.90056">
        <ele>1631.6</ele>
        <time>2021-10-09 15:06:07</time>
      </trkpt>
      <trkpt lat="40.37976" lon="-1.90059">
        <ele>1631.8</ele>
        <time>2021-10-09 15:06:08</time>
      </trkpt>
      <trkpt lat="40.37977" lon="-1.90062">
        <ele>1631.8</ele>
        <time>2021-10-09 15:06:09</time>
      </trkpt>
      <trkpt lat="40.37978" lon="-1.90066">
        <ele>1632.2</ele>
        <time>2021-10-09 15:06:10</time>
      </trkpt>
      <trkpt lat="40.37979" lon="-1.90069">
        <ele>1632.2</ele>
        <time>2021-10-09 15:06:11</time>
      </trkpt>
      <trkpt lat="40.37979" lon="-1.90073">
        <ele>1632.6</ele>
        <time>2021-10-09 15:06:12</time>
      </trkpt>
      <trkpt lat="40.37979" lon="-1.90075">
        <ele>1632.6</ele>
        <time>2021-10-09 15:06:13</time>
      </trkpt>
      <trkpt lat="40.3798" lon="-1.90078">
        <ele>1632.8</ele>
        <time>2021-10-09 15:06:14</time>
      </trkpt>
      <trkpt lat="40.3798" lon="-1.90081">
        <ele>1633</ele>
        <time>2021-10-09 15:06:15</time>
      </trkpt>
      <trkpt lat="40.37981" lon="-1.90085">
        <ele>1633</ele>
        <time>2021-10-09 15:06:16</time>
      </trkpt>
      <trkpt lat="40.37982" lon="-1.90088">
        <ele>1633.4</ele>
        <time>2021-10-09 15:06:17</time>
      </trkpt>
      <trkpt lat="40.37982" lon="-1.9009">
        <ele>1633.4</ele>
        <time>2021-10-09 15:06:18</time>
      </trkpt>
      <trkpt lat="40.37983" lon="-1.90093">
        <ele>1633.6</ele>
        <time>2021-10-09 15:06:19</time>
      </trkpt>
      <trkpt lat="40.37984" lon="-1.90096">
        <ele>1633.8</ele>
        <time>2021-10-09 15:06:20</time>
      </trkpt>
      <trkpt lat="40.37984" lon="-1.90099">
        <ele>1633.8</ele>
        <time>2021-10-09 15:06:21</time>
      </trkpt>
      <trkpt lat="40.37985" lon="-1.90102">
        <ele>1634.2</ele>
        <time>2021-10-09 15:06:22</time>
      </trkpt>
      <trkpt lat="40.37985" lon="-1.90105">
        <ele>1634.4</ele>
        <time>2021-10-09 15:06:23</time>
      </trkpt>
      <trkpt lat="40.37985" lon="-1.90109">
        <ele>1634.4</ele>
        <time>2021-10-09 15:06:24</time>
      </trkpt>
      <trkpt lat="40.37985" lon="-1.90112">
        <ele>1634.8</ele>
        <time>2021-10-09 15:06:25</time>
      </trkpt>
      <trkpt lat="40.37984" lon="-1.90116">
        <ele>1634.8</ele>
        <time>2021-10-09 15:06:26</time>
      </trkpt>
      <trkpt lat="40.37984" lon="-1.90119">
        <ele>1635</ele>
        <time>2021-10-09 15:06:27</time>
      </trkpt>
      <trkpt lat="40.37983" lon="-1.90122">
        <ele>1635</ele>
        <time>2021-10-09 15:06:28</time>
      </trkpt>
      <trkpt lat="40.37982" lon="-1.90125">
        <ele>1635.4</ele>
        <time>2021-10-09 15:06:29</time>
      </trkpt>
      <trkpt lat="40.3798" lon="-1.90128">
        <ele>1635.4</ele>
        <time>2021-10-09 15:06:30</time>
      </trkpt>
      <trkpt lat="40.37979" lon="-1.9013">
        <ele>1635.6</ele>
        <time>2021-10-09 15:06:31</time>
      </trkpt>
      <trkpt lat="40.37977" lon="-1.90133">
        <ele>1635.6</ele>
        <time>2021-10-09 15:06:32</time>
      </trkpt>
      <trkpt lat="40.37976" lon="-1.90136">
        <ele>1636</ele>
        <time>2021-10-09 15:06:33</time>
      </trkpt>
      <trkpt lat="40.37974" lon="-1.90139">
        <ele>1636</ele>
        <time>2021-10-09 15:06:34</time>
      </trkpt>
      <trkpt lat="40.37973" lon="-1.90141">
        <ele>1636.4</ele>
        <time>2021-10-09 15:06:35</time>
      </trkpt>
      <trkpt lat="40.37971" lon="-1.90144">
        <ele>1636.6</ele>
        <time>2021-10-09 15:06:36</time>
      </trkpt>
      <trkpt lat="40.37969" lon="-1.90146">
        <ele>1636.6</ele>
        <time>2021-10-09 15:06:37</time>
      </trkpt>
      <trkpt lat="40.37966" lon="-1.90148">
        <ele>1636.6</ele>
        <time>2021-10-09 15:06:38</time>
      </trkpt>
      <trkpt lat="40.37964" lon="-1.9015">
        <ele>1636.8</ele>
        <time>2021-10-09 15:06:39</time>
      </trkpt>
      <trkpt lat="40.37962" lon="-1.90152">
        <ele>1636.8</ele>
        <time>2021-10-09 15:06:40</time>
      </trkpt>
      <trkpt lat="40.37959" lon="-1.90153">
        <ele>1637</ele>
        <time>2021-10-09 15:06:41</time>
      </trkpt>
      <trkpt lat="40.37956" lon="-1.90154">
        <ele>1637</ele>
        <time>2021-10-09 15:06:42</time>
      </trkpt>
      <trkpt lat="40.37954" lon="-1.90154">
        <ele>1637</ele>
        <time>2021-10-09 15:06:43</time>
      </trkpt>
      <trkpt lat="40.37952" lon="-1.90154">
        <ele>1637.4</ele>
        <time>2021-10-09 15:06:44</time>
      </trkpt>
      <trkpt lat="40.37949" lon="-1.90153">
        <ele>1637.4</ele>
        <time>2021-10-09 15:06:45</time>
      </trkpt>
      <trkpt lat="40.37947" lon="-1.90153">
        <ele>1637.4</ele>
        <time>2021-10-09 15:06:46</time>
      </trkpt>
      <trkpt lat="40.37945" lon="-1.90152">
        <ele>1637.4</ele>
        <time>2021-10-09 15:06:47</time>
      </trkpt>
      <trkpt lat="40.37943" lon="-1.90151">
        <ele>1637.4</ele>
        <time>2021-10-09 15:06:48</time>
      </trkpt>
      <trkpt lat="40.37941" lon="-1.90149">
        <ele>1637.6</ele>
        <time>2021-10-09 15:06:49</time>
      </trkpt>
      <trkpt lat="40.37939" lon="-1.90147">
        <ele>1637.6</ele>
        <time>2021-10-09 15:06:50</time>
      </trkpt>
      <trkpt lat="40.37938" lon="-1.90146">
        <ele>1637.8</ele>
        <time>2021-10-09 15:06:51</time>
      </trkpt>
      <trkpt lat="40.37936" lon="-1.90144">
        <ele>1637.8</ele>
        <time>2021-10-09 15:06:52</time>
      </trkpt>
      <trkpt lat="40.37934" lon="-1.9014">
        <ele>1638.2</ele>
        <time>2021-10-09 15:06:53</time>
      </trkpt>
      <trkpt lat="40.37933" lon="-1.90138">
        <ele>1638.2</ele>
        <time>2021-10-09 15:06:54</time>
      </trkpt>
      <trkpt lat="40.37932" lon="-1.90136">
        <ele>1638.6</ele>
        <time>2021-10-09 15:06:55</time>
      </trkpt>
      <trkpt lat="40.37931" lon="-1.90135">
        <ele>1638.6</ele>
        <time>2021-10-09 15:06:56</time>
      </trkpt>
      <trkpt lat="40.37931" lon="-1.90132">
        <ele>1639</ele>
        <time>2021-10-09 15:06:57</time>
      </trkpt>
      <trkpt lat="40.3793" lon="-1.9013">
        <ele>1639</ele>
        <time>2021-10-09 15:06:58</time>
      </trkpt>
      <trkpt lat="40.3793" lon="-1.90127">
        <ele>1639.6</ele>
        <time>2021-10-09 15:06:59</time>
      </trkpt>
      <trkpt lat="40.3793" lon="-1.90125">
        <ele>1639.8</ele>
        <time>2021-10-09 15:07:00</time>
      </trkpt>
      <trkpt lat="40.37929" lon="-1.90123">
        <ele>1640</ele>
        <time>2021-10-09 15:07:01</time>
      </trkpt>
      <trkpt lat="40.37928" lon="-1.9012">
        <ele>1640.4</ele>
        <time>2021-10-09 15:07:02</time>
      </trkpt>
      <trkpt lat="40.37927" lon="-1.90118">
        <ele>1640.6</ele>
        <time>2021-10-09 15:07:03</time>
      </trkpt>
      <trkpt lat="40.37927" lon="-1.90115">
        <ele>1640.8</ele>
        <time>2021-10-09 15:07:04</time>
      </trkpt>
      <trkpt lat="40.37926" lon="-1.90113">
        <ele>1640.8</ele>
        <time>2021-10-09 15:07:05</time>
      </trkpt>
      <trkpt lat="40.37925" lon="-1.90111">
        <ele>1641.2</ele>
        <time>2021-10-09 15:07:06</time>
      </trkpt>
      <trkpt lat="40.37924" lon="-1.90108">
        <ele>1641.2</ele>
        <time>2021-10-09 15:07:07</time>
      </trkpt>
      <trkpt lat="40.37923" lon="-1.90105">
        <ele>1641.6</ele>
        <time>2021-10-09 15:07:08</time>
      </trkpt>
      <trkpt lat="40.37922" lon="-1.90102">
        <ele>1641.8</ele>
        <time>2021-10-09 15:07:09</time>
      </trkpt>
      <trkpt lat="40.37921" lon="-1.901">
        <ele>1641.8</ele>
        <time>2021-10-09 15:07:10</time>
      </trkpt>
      <trkpt lat="40.37919" lon="-1.90097">
        <ele>1642.2</ele>
        <time>2021-10-09 15:07:11</time>
      </trkpt>
      <trkpt lat="40.37918" lon="-1.90095">
        <ele>1642.2</ele>
        <time>2021-10-09 15:07:12</time>
      </trkpt>
      <trkpt lat="40.37917" lon="-1.90093">
        <ele>1642.2</ele>
        <time>2021-10-09 15:07:13</time>
      </trkpt>
      <trkpt lat="40.37916" lon="-1.90091">
        <ele>1642.6</ele>
        <time>2021-10-09 15:07:14</time>
      </trkpt>
      <trkpt lat="40.37916" lon="-1.90089">
        <ele>1642.6</ele>
        <time>2021-10-09 15:07:15</time>
      </trkpt>
      <trkpt lat="40.37915" lon="-1.90087">
        <ele>1642.8</ele>
        <time>2021-10-09 15:07:16</time>
      </trkpt>
      <trkpt lat="40.37914" lon="-1.90085">
        <ele>1642.8</ele>
        <time>2021-10-09 15:07:17</time>
      </trkpt>
      <trkpt lat="40.37913" lon="-1.90083">
        <ele>1642.8</ele>
        <time>2021-10-09 15:07:18</time>
      </trkpt>
      <trkpt lat="40.37913" lon="-1.9008">
        <ele>1643</ele>
        <time>2021-10-09 15:07:19</time>
      </trkpt>
      <trkpt lat="40.37912" lon="-1.90078">
        <ele>1643</ele>
        <time>2021-10-09 15:07:20</time>
      </trkpt>
      <trkpt lat="40.3791" lon="-1.90075">
        <ele>1643</ele>
        <time>2021-10-09 15:07:21</time>
      </trkpt>
      <trkpt lat="40.3791" lon="-1.90073">
        <ele>1643.2</ele>
        <time>2021-10-09 15:07:22</time>
      </trkpt>
      <trkpt lat="40.37909" lon="-1.90071">
        <ele>1643.2</ele>
        <time>2021-10-09 15:07:23</time>
      </trkpt>
      <trkpt lat="40.37908" lon="-1.90067">
        <ele>1643.6</ele>
        <time>2021-10-09 15:07:24</time>
      </trkpt>
      <trkpt lat="40.37907" lon="-1.90064">
        <ele>1643.6</ele>
        <time>2021-10-09 15:07:25</time>
      </trkpt>
      <trkpt lat="40.37906" lon="-1.90061">
        <ele>1643.6</ele>
        <time>2021-10-09 15:07:26</time>
      </trkpt>
      <trkpt lat="40.37905" lon="-1.90059">
        <ele>1643.8</ele>
        <time>2021-10-09 15:07:27</time>
      </trkpt>
      <trkpt lat="40.37904" lon="-1.90056">
        <ele>1643.8</ele>
        <time>2021-10-09 15:07:28</time>
      </trkpt>
      <trkpt lat="40.37903" lon="-1.90054">
        <ele>1644.2</ele>
        <time>2021-10-09 15:07:29</time>
      </trkpt>
      <trkpt lat="40.37903" lon="-1.90051">
        <ele>1644.2</ele>
        <time>2021-10-09 15:07:30</time>
      </trkpt>
      <trkpt lat="40.37902" lon="-1.90048">
        <ele>1644.2</ele>
        <time>2021-10-09 15:07:31</time>
      </trkpt>
      <trkpt lat="40.37901" lon="-1.90045">
        <ele>1644.4</ele>
        <time>2021-10-09 15:07:32</time>
      </trkpt>
      <trkpt lat="40.379" lon="-1.90042">
        <ele>1644.4</ele>
        <time>2021-10-09 15:07:33</time>
      </trkpt>
      <trkpt lat="40.37899" lon="-1.9004">
        <ele>1644.4</ele>
        <time>2021-10-09 15:07:34</time>
      </trkpt>
      <trkpt lat="40.37898" lon="-1.90037">
        <ele>1644.6</ele>
        <time>2021-10-09 15:07:35</time>
      </trkpt>
      <trkpt lat="40.37897" lon="-1.90034">
        <ele>1644.6</ele>
        <time>2021-10-09 15:07:36</time>
      </trkpt>
      <trkpt lat="40.37896" lon="-1.9003">
        <ele>1645</ele>
        <time>2021-10-09 15:07:37</time>
      </trkpt>
      <trkpt lat="40.37895" lon="-1.90027">
        <ele>1645</ele>
        <time>2021-10-09 15:07:38</time>
      </trkpt>
      <trkpt lat="40.37894" lon="-1.90024">
        <ele>1645.2</ele>
        <time>2021-10-09 15:07:39</time>
      </trkpt>
      <trkpt lat="40.37893" lon="-1.90021">
        <ele>1645.2</ele>
        <time>2021-10-09 15:07:40</time>
      </trkpt>
      <trkpt lat="40.37892" lon="-1.90019">
        <ele>1645.2</ele>
        <time>2021-10-09 15:07:41</time>
      </trkpt>
      <trkpt lat="40.37891" lon="-1.90016">
        <ele>1645.6</ele>
        <time>2021-10-09 15:07:42</time>
      </trkpt>
      <trkpt lat="40.3789" lon="-1.90013">
        <ele>1645.6</ele>
        <time>2021-10-09 15:07:43</time>
      </trkpt>
      <trkpt lat="40.37889" lon="-1.9001">
        <ele>1645.8</ele>
        <time>2021-10-09 15:07:44</time>
      </trkpt>
      <trkpt lat="40.37887" lon="-1.90007">
        <ele>1645.8</ele>
        <time>2021-10-09 15:07:45</time>
      </trkpt>
      <trkpt lat="40.37886" lon="-1.90003">
        <ele>1646.2</ele>
        <time>2021-10-09 15:07:46</time>
      </trkpt>
      <trkpt lat="40.37884" lon="-1.9">
        <ele>1646.2</ele>
        <time>2021-10-09 15:07:47</time>
      </trkpt>
      <trkpt lat="40.37883" lon="-1.89997">
        <ele>1646.4</ele>
        <time>2021-10-09 15:07:48</time>
      </trkpt>
      <trkpt lat="40.37882" lon="-1.89995">
        <ele>1646.6</ele>
        <time>2021-10-09 15:07:49</time>
      </trkpt>
      <trkpt lat="40.3788" lon="-1.89991">
        <ele>1646.6</ele>
        <time>2021-10-09 15:07:50</time>
      </trkpt>
      <trkpt lat="40.37879" lon="-1.89988">
        <ele>1646.6</ele>
        <time>2021-10-09 15:07:51</time>
      </trkpt>
      <trkpt lat="40.37878" lon="-1.89984">
        <ele>1647</ele>
        <time>2021-10-09 15:07:52</time>
      </trkpt>
      <trkpt lat="40.37877" lon="-1.89982">
        <ele>1647</ele>
        <time>2021-10-09 15:07:53</time>
      </trkpt>
      <trkpt lat="40.37876" lon="-1.89979">
        <ele>1647.4</ele>
        <time>2021-10-09 15:07:54</time>
      </trkpt>
      <trkpt lat="40.37875" lon="-1.89977">
        <ele>1647.8</ele>
        <time>2021-10-09 15:07:55</time>
      </trkpt>
      <trkpt lat="40.37875" lon="-1.89975">
        <ele>1648</ele>
        <time>2021-10-09 15:07:56</time>
      </trkpt>
      <trkpt lat="40.37874" lon="-1.89973">
        <ele>1648.2</ele>
        <time>2021-10-09 15:07:57</time>
      </trkpt>
      <trkpt lat="40.37873" lon="-1.89972">
        <ele>1648.2</ele>
        <time>2021-10-09 15:07:58</time>
      </trkpt>
      <trkpt lat="40.37872" lon="-1.8997">
        <ele>1648.4</ele>
        <time>2021-10-09 15:07:59</time>
      </trkpt>
      <trkpt lat="40.37871" lon="-1.89969">
        <ele>1648.4</ele>
        <time>2021-10-09 15:08:00</time>
      </trkpt>
      <trkpt lat="40.3787" lon="-1.89966">
        <ele>1648.4</ele>
        <time>2021-10-09 15:08:01</time>
      </trkpt>
      <trkpt lat="40.37869" lon="-1.89964">
        <ele>1648.6</ele>
        <time>2021-10-09 15:08:02</time>
      </trkpt>
      <trkpt lat="40.37868" lon="-1.89961">
        <ele>1649</ele>
        <time>2021-10-09 15:08:03</time>
      </trkpt>
      <trkpt lat="40.37867" lon="-1.89958">
        <ele>1649.2</ele>
        <time>2021-10-09 15:08:04</time>
      </trkpt>
      <trkpt lat="40.37865" lon="-1.89955">
        <ele>1649.2</ele>
        <time>2021-10-09 15:08:05</time>
      </trkpt>
      <trkpt lat="40.37863" lon="-1.89952">
        <ele>1649.6</ele>
        <time>2021-10-09 15:08:06</time>
      </trkpt>
      <trkpt lat="40.37862" lon="-1.8995">
        <ele>1649.8</ele>
        <time>2021-10-09 15:08:07</time>
      </trkpt>
      <trkpt lat="40.3786" lon="-1.89948">
        <ele>1650</ele>
        <time>2021-10-09 15:08:08</time>
      </trkpt>
      <trkpt lat="40.37859" lon="-1.89947">
        <ele>1650</ele>
        <time>2021-10-09 15:08:09</time>
      </trkpt>
      <trkpt lat="40.37858" lon="-1.89945">
        <ele>1650.4</ele>
        <time>2021-10-09 15:08:10</time>
      </trkpt>
      <trkpt lat="40.37857" lon="-1.89943">
        <ele>1650.6</ele>
        <time>2021-10-09 15:08:11</time>
      </trkpt>
      <trkpt lat="40.37856" lon="-1.8994">
        <ele>1651</ele>
        <time>2021-10-09 15:08:12</time>
      </trkpt>
      <trkpt lat="40.37855" lon="-1.89938">
        <ele>1651</ele>
        <time>2021-10-09 15:08:13</time>
      </trkpt>
      <trkpt lat="40.37853" lon="-1.89935">
        <ele>1651.6</ele>
        <time>2021-10-09 15:08:14</time>
      </trkpt>
      <trkpt lat="40.37851" lon="-1.89933">
        <ele>1651.6</ele>
        <time>2021-10-09 15:08:15</time>
      </trkpt>
      <trkpt lat="40.3785" lon="-1.89931">
        <ele>1651.8</ele>
        <time>2021-10-09 15:08:16</time>
      </trkpt>
      <trkpt lat="40.37848" lon="-1.89929">
        <ele>1651.8</ele>
        <time>2021-10-09 15:08:17</time>
      </trkpt>
      <trkpt lat="40.37846" lon="-1.89927">
        <ele>1652.4</ele>
        <time>2021-10-09 15:08:18</time>
      </trkpt>
      <trkpt lat="40.37844" lon="-1.89925">
        <ele>1652.4</ele>
        <time>2021-10-09 15:08:19</time>
      </trkpt>
      <trkpt lat="40.37842" lon="-1.89922">
        <ele>1652.6</ele>
        <time>2021-10-09 15:08:20</time>
      </trkpt>
      <trkpt lat="40.37841" lon="-1.89921">
        <ele>1652.8</ele>
        <time>2021-10-09 15:08:21</time>
      </trkpt>
      <trkpt lat="40.37839" lon="-1.89918">
        <ele>1652.8</ele>
        <time>2021-10-09 15:08:22</time>
      </trkpt>
      <trkpt lat="40.37837" lon="-1.89916">
        <ele>1652.8</ele>
        <time>2021-10-09 15:08:23</time>
      </trkpt>
      <trkpt lat="40.37835" lon="-1.89914">
        <ele>1653.2</ele>
        <time>2021-10-09 15:08:24</time>
      </trkpt>
      <trkpt lat="40.37833" lon="-1.89911">
        <ele>1653.2</ele>
        <time>2021-10-09 15:08:25</time>
      </trkpt>
      <trkpt lat="40.37831" lon="-1.89909">
        <ele>1653.6</ele>
        <time>2021-10-09 15:08:26</time>
      </trkpt>
      <trkpt lat="40.37829" lon="-1.89907">
        <ele>1653.8</ele>
        <time>2021-10-09 15:08:27</time>
      </trkpt>
      <trkpt lat="40.37827" lon="-1.89905">
        <ele>1653.8</ele>
        <time>2021-10-09 15:08:28</time>
      </trkpt>
      <trkpt lat="40.37826" lon="-1.89903">
        <ele>1654.2</ele>
        <time>2021-10-09 15:08:29</time>
      </trkpt>
      <trkpt lat="40.37824" lon="-1.89901">
        <ele>1654.2</ele>
        <time>2021-10-09 15:08:30</time>
      </trkpt>
      <trkpt lat="40.37823" lon="-1.89899">
        <ele>1654.6</ele>
        <time>2021-10-09 15:08:31</time>
      </trkpt>
      <trkpt lat="40.37821" lon="-1.89897">
        <ele>1654.8</ele>
        <time>2021-10-09 15:08:32</time>
      </trkpt>
      <trkpt lat="40.37819" lon="-1.89895">
        <ele>1655</ele>
        <time>2021-10-09 15:08:33</time>
      </trkpt>
      <trkpt lat="40.37817" lon="-1.89894">
        <ele>1655</ele>
        <time>2021-10-09 15:08:34</time>
      </trkpt>
      <trkpt lat="40.37815" lon="-1.89892">
        <ele>1655.2</ele>
        <time>2021-10-09 15:08:35</time>
      </trkpt>
      <trkpt lat="40.37813" lon="-1.89889">
        <ele>1655.2</ele>
        <time>2021-10-09 15:08:36</time>
      </trkpt>
      <trkpt lat="40.37811" lon="-1.89887">
        <ele>1655.4</ele>
        <time>2021-10-09 15:08:37</time>
      </trkpt>
      <trkpt lat="40.3781" lon="-1.89885">
        <ele>1655.4</ele>
        <time>2021-10-09 15:08:38</time>
      </trkpt>
      <trkpt lat="40.37808" lon="-1.89883">
        <ele>1655.8</ele>
        <time>2021-10-09 15:08:39</time>
      </trkpt>
      <trkpt lat="40.37807" lon="-1.89881">
        <ele>1655.8</ele>
        <time>2021-10-09 15:08:40</time>
      </trkpt>
      <trkpt lat="40.37805" lon="-1.89878">
        <ele>1656</ele>
        <time>2021-10-09 15:08:41</time>
      </trkpt>
      <trkpt lat="40.37803" lon="-1.89876">
        <ele>1656.4</ele>
        <time>2021-10-09 15:08:42</time>
      </trkpt>
      <trkpt lat="40.37801" lon="-1.89874">
        <ele>1656.6</ele>
        <time>2021-10-09 15:08:43</time>
      </trkpt>
      <trkpt lat="40.37799" lon="-1.89873">
        <ele>1656.6</ele>
        <time>2021-10-09 15:08:44</time>
      </trkpt>
      <trkpt lat="40.37797" lon="-1.89871">
        <ele>1656.8</ele>
        <time>2021-10-09 15:08:45</time>
      </trkpt>
      <trkpt lat="40.37795" lon="-1.89868">
        <ele>1656.8</ele>
        <time>2021-10-09 15:08:46</time>
      </trkpt>
      <trkpt lat="40.37793" lon="-1.89866">
        <ele>1657.2</ele>
        <time>2021-10-09 15:08:47</time>
      </trkpt>
      <trkpt lat="40.37792" lon="-1.89863">
        <ele>1657.2</ele>
        <time>2021-10-09 15:08:48</time>
      </trkpt>
      <trkpt lat="40.37791" lon="-1.89861">
        <ele>1657.4</ele>
        <time>2021-10-09 15:08:49</time>
      </trkpt>
      <trkpt lat="40.3779" lon="-1.89859">
        <ele>1657.4</ele>
        <time>2021-10-09 15:08:50</time>
      </trkpt>
      <trkpt lat="40.37788" lon="-1.89857">
        <ele>1657.8</ele>
        <time>2021-10-09 15:08:51</time>
      </trkpt>
      <trkpt lat="40.37787" lon="-1.89855">
        <ele>1657.8</ele>
        <time>2021-10-09 15:08:52</time>
      </trkpt>
      <trkpt lat="40.37785" lon="-1.89852">
        <ele>1658.2</ele>
        <time>2021-10-09 15:08:53</time>
      </trkpt>
      <trkpt lat="40.37783" lon="-1.8985">
        <ele>1658.2</ele>
        <time>2021-10-09 15:08:54</time>
      </trkpt>
      <trkpt lat="40.37781" lon="-1.89848">
        <ele>1658.4</ele>
        <time>2021-10-09 15:08:55</time>
      </trkpt>
      <trkpt lat="40.3778" lon="-1.89846">
        <ele>1658.4</ele>
        <time>2021-10-09 15:08:56</time>
      </trkpt>
      <trkpt lat="40.37778" lon="-1.89843">
        <ele>1658.8</ele>
        <time>2021-10-09 15:08:57</time>
      </trkpt>
      <trkpt lat="40.37777" lon="-1.89841">
        <ele>1658.8</ele>
        <time>2021-10-09 15:08:58</time>
      </trkpt>
      <trkpt lat="40.37775" lon="-1.89839">
        <ele>1659</ele>
        <time>2021-10-09 15:08:59</time>
      </trkpt>
      <trkpt lat="40.37774" lon="-1.89837">
        <ele>1659</ele>
        <time>2021-10-09 15:09:00</time>
      </trkpt>
      <trkpt lat="40.37772" lon="-1.89835">
        <ele>1659.2</ele>
        <time>2021-10-09 15:09:01</time>
      </trkpt>
      <trkpt lat="40.3777" lon="-1.89833">
        <ele>1659.2</ele>
        <time>2021-10-09 15:09:02</time>
      </trkpt>
      <trkpt lat="40.37769" lon="-1.89831">
        <ele>1659.6</ele>
        <time>2021-10-09 15:09:03</time>
      </trkpt>
      <trkpt lat="40.37767" lon="-1.89829">
        <ele>1659.6</ele>
        <time>2021-10-09 15:09:04</time>
      </trkpt>
      <trkpt lat="40.37765" lon="-1.89827">
        <ele>1659.8</ele>
        <time>2021-10-09 15:09:05</time>
      </trkpt>
      <trkpt lat="40.37763" lon="-1.89826">
        <ele>1659.8</ele>
        <time>2021-10-09 15:09:06</time>
      </trkpt>
      <trkpt lat="40.37761" lon="-1.89825">
        <ele>1660</ele>
        <time>2021-10-09 15:09:07</time>
      </trkpt>
      <trkpt lat="40.37758" lon="-1.89823">
        <ele>1660</ele>
        <time>2021-10-09 15:09:08</time>
      </trkpt>
      <trkpt lat="40.37756" lon="-1.89823">
        <ele>1660.2</ele>
        <time>2021-10-09 15:09:09</time>
      </trkpt>
      <trkpt lat="40.37754" lon="-1.89822">
        <ele>1660.2</ele>
        <time>2021-10-09 15:09:10</time>
      </trkpt>
      <trkpt lat="40.37752" lon="-1.89822">
        <ele>1660.6</ele>
        <time>2021-10-09 15:09:11</time>
      </trkpt>
      <trkpt lat="40.3775" lon="-1.89822">
        <ele>1660.6</ele>
        <time>2021-10-09 15:09:12</time>
      </trkpt>
      <trkpt lat="40.37748" lon="-1.89823">
        <ele>1660.6</ele>
        <time>2021-10-09 15:09:13</time>
      </trkpt>
      <trkpt lat="40.37745" lon="-1.89824">
        <ele>1660.8</ele>
        <time>2021-10-09 15:09:14</time>
      </trkpt>
      <trkpt lat="40.37743" lon="-1.89824">
        <ele>1661.2</ele>
        <time>2021-10-09 15:09:15</time>
      </trkpt>
      <trkpt lat="40.37741" lon="-1.89825">
        <ele>1661.2</ele>
        <time>2021-10-09 15:09:16</time>
      </trkpt>
      <trkpt lat="40.37739" lon="-1.89826">
        <ele>1661.6</ele>
        <time>2021-10-09 15:09:17</time>
      </trkpt>
      <trkpt lat="40.37737" lon="-1.89827">
        <ele>1661.6</ele>
        <time>2021-10-09 15:09:18</time>
      </trkpt>
      <trkpt lat="40.37735" lon="-1.89828">
        <ele>1661.8</ele>
        <time>2021-10-09 15:09:19</time>
      </trkpt>
      <trkpt lat="40.37733" lon="-1.89829">
        <ele>1662.2</ele>
        <time>2021-10-09 15:09:20</time>
      </trkpt>
      <trkpt lat="40.3773" lon="-1.8983">
        <ele>1662.4</ele>
        <time>2021-10-09 15:09:21</time>
      </trkpt>
      <trkpt lat="40.37728" lon="-1.8983">
        <ele>1662.4</ele>
        <time>2021-10-09 15:09:22</time>
      </trkpt>
      <trkpt lat="40.37726" lon="-1.8983">
        <ele>1662.8</ele>
        <time>2021-10-09 15:09:23</time>
      </trkpt>
      <trkpt lat="40.37723" lon="-1.89831">
        <ele>1663.4</ele>
        <time>2021-10-09 15:09:24</time>
      </trkpt>
      <trkpt lat="40.37721" lon="-1.89832">
        <ele>1663.6</ele>
        <time>2021-10-09 15:09:25</time>
      </trkpt>
      <trkpt lat="40.37719" lon="-1.89834">
        <ele>1664</ele>
        <time>2021-10-09 15:09:26</time>
      </trkpt>
      <trkpt lat="40.37717" lon="-1.89836">
        <ele>1664</ele>
        <time>2021-10-09 15:09:27</time>
      </trkpt>
      <trkpt lat="40.37715" lon="-1.89836">
        <ele>1664.2</ele>
        <time>2021-10-09 15:09:28</time>
      </trkpt>
      <trkpt lat="40.37713" lon="-1.89837">
        <ele>1664.6</ele>
        <time>2021-10-09 15:09:29</time>
      </trkpt>
      <trkpt lat="40.37711" lon="-1.89836">
        <ele>1664.6</ele>
        <time>2021-10-09 15:09:30</time>
      </trkpt>
      <trkpt lat="40.37709" lon="-1.89836">
        <ele>1664.8</ele>
        <time>2021-10-09 15:09:31</time>
      </trkpt>
      <trkpt lat="40.37707" lon="-1.89836">
        <ele>1665</ele>
        <time>2021-10-09 15:09:32</time>
      </trkpt>
      <trkpt lat="40.37706" lon="-1.89836">
        <ele>1665</ele>
        <time>2021-10-09 15:09:33</time>
      </trkpt>
      <trkpt lat="40.37704" lon="-1.89836">
        <ele>1665.4</ele>
        <time>2021-10-09 15:09:34</time>
      </trkpt>
      <trkpt lat="40.37703" lon="-1.89836">
        <ele>1665.4</ele>
        <time>2021-10-09 15:09:35</time>
      </trkpt>
      <trkpt lat="40.37701" lon="-1.89836">
        <ele>1665.8</ele>
        <time>2021-10-09 15:09:36</time>
      </trkpt>
      <trkpt lat="40.37699" lon="-1.89835">
        <ele>1665.8</ele>
        <time>2021-10-09 15:09:37</time>
      </trkpt>
      <trkpt lat="40.37697" lon="-1.89834">
        <ele>1665.8</ele>
        <time>2021-10-09 15:09:38</time>
      </trkpt>
      <trkpt lat="40.37695" lon="-1.89833">
        <ele>1666.2</ele>
        <time>2021-10-09 15:09:39</time>
      </trkpt>
      <trkpt lat="40.37694" lon="-1.89833">
        <ele>1666.4</ele>
        <time>2021-10-09 15:09:40</time>
      </trkpt>
      <trkpt lat="40.37692" lon="-1.89832">
        <ele>1666.4</ele>
        <time>2021-10-09 15:09:41</time>
      </trkpt>
      <trkpt lat="40.37691" lon="-1.89832">
        <ele>1666.6</ele>
        <time>2021-10-09 15:09:42</time>
      </trkpt>
      <trkpt lat="40.37689" lon="-1.89831">
        <ele>1667</ele>
        <time>2021-10-09 15:09:43</time>
      </trkpt>
      <trkpt lat="40.37688" lon="-1.8983">
        <ele>1667</ele>
        <time>2021-10-09 15:09:44</time>
      </trkpt>
      <trkpt lat="40.37686" lon="-1.89829">
        <ele>1667.4</ele>
        <time>2021-10-09 15:09:45</time>
      </trkpt>
      <trkpt lat="40.37685" lon="-1.89828">
        <ele>1667.4</ele>
        <time>2021-10-09 15:09:46</time>
      </trkpt>
      <trkpt lat="40.37683" lon="-1.89826">
        <ele>1667.6</ele>
        <time>2021-10-09 15:09:47</time>
      </trkpt>
      <trkpt lat="40.37682" lon="-1.89824">
        <ele>1667.6</ele>
        <time>2021-10-09 15:09:48</time>
      </trkpt>
      <trkpt lat="40.3768" lon="-1.89822">
        <ele>1668</ele>
        <time>2021-10-09 15:09:49</time>
      </trkpt>
      <trkpt lat="40.37679" lon="-1.89821">
        <ele>1668</ele>
        <time>2021-10-09 15:09:50</time>
      </trkpt>
      <trkpt lat="40.37678" lon="-1.8982">
        <ele>1668.4</ele>
        <time>2021-10-09 15:09:51</time>
      </trkpt>
      <trkpt lat="40.37677" lon="-1.89819">
        <ele>1668.4</ele>
        <time>2021-10-09 15:09:52</time>
      </trkpt>
      <trkpt lat="40.37676" lon="-1.89817">
        <ele>1668.8</ele>
        <time>2021-10-09 15:09:53</time>
      </trkpt>
      <trkpt lat="40.37675" lon="-1.89815">
        <ele>1668.8</ele>
        <time>2021-10-09 15:09:54</time>
      </trkpt>
      <trkpt lat="40.37674" lon="-1.89814">
        <ele>1669</ele>
        <time>2021-10-09 15:09:55</time>
      </trkpt>
      <trkpt lat="40.37673" lon="-1.89812">
        <ele>1669</ele>
        <time>2021-10-09 15:09:56</time>
      </trkpt>
      <trkpt lat="40.37672" lon="-1.89811">
        <ele>1669.2</ele>
        <time>2021-10-09 15:09:57</time>
      </trkpt>
      <trkpt lat="40.37671" lon="-1.89809">
        <ele>1669.2</ele>
        <time>2021-10-09 15:09:58</time>
      </trkpt>
      <trkpt lat="40.3767" lon="-1.89807">
        <ele>1669.8</ele>
        <time>2021-10-09 15:09:59</time>
      </trkpt>
      <trkpt lat="40.37668" lon="-1.89804">
        <ele>1670</ele>
        <time>2021-10-09 15:10:00</time>
      </trkpt>
      <trkpt lat="40.37668" lon="-1.89803">
        <ele>1670</ele>
        <time>2021-10-09 15:10:01</time>
      </trkpt>
      <trkpt lat="40.37667" lon="-1.89801">
        <ele>1670.4</ele>
        <time>2021-10-09 15:10:02</time>
      </trkpt>
      <trkpt lat="40.37666" lon="-1.89799">
        <ele>1670.4</ele>
        <time>2021-10-09 15:10:03</time>
      </trkpt>
      <trkpt lat="40.37664" lon="-1.89797">
        <ele>1670.4</ele>
        <time>2021-10-09 15:10:04</time>
      </trkpt>
      <trkpt lat="40.37663" lon="-1.89795">
        <ele>1670.6</ele>
        <time>2021-10-09 15:10:05</time>
      </trkpt>
      <trkpt lat="40.37661" lon="-1.89793">
        <ele>1670.6</ele>
        <time>2021-10-09 15:10:06</time>
      </trkpt>
      <trkpt lat="40.3766" lon="-1.89792">
        <ele>1670.8</ele>
        <time>2021-10-09 15:10:07</time>
      </trkpt>
      <trkpt lat="40.37659" lon="-1.8979">
        <ele>1671</ele>
        <time>2021-10-09 15:10:08</time>
      </trkpt>
      <trkpt lat="40.37659" lon="-1.89789">
        <ele>1671</ele>
        <time>2021-10-09 15:10:09</time>
      </trkpt>
      <trkpt lat="40.37657" lon="-1.89786">
        <ele>1671.4</ele>
        <time>2021-10-09 15:10:10</time>
      </trkpt>
      <trkpt lat="40.37656" lon="-1.89784">
        <ele>1671.4</ele>
        <time>2021-10-09 15:10:11</time>
      </trkpt>
      <trkpt lat="40.37654" lon="-1.89782">
        <ele>1671.6</ele>
        <time>2021-10-09 15:10:12</time>
      </trkpt>
      <trkpt lat="40.37653" lon="-1.89779">
        <ele>1671.6</ele>
        <time>2021-10-09 15:10:13</time>
      </trkpt>
      <trkpt lat="40.37651" lon="-1.89777">
        <ele>1671.6</ele>
        <time>2021-10-09 15:10:14</time>
      </trkpt>
      <trkpt lat="40.37651" lon="-1.89777">
        <ele>1671.6</ele>
        <time>2021-10-09 15:10:15</time>
      </trkpt>
      <trkpt lat="40.37646" lon="-1.89772">
        <ele>1671.6</ele>
        <time>2021-10-09 15:10:16</time>
      </trkpt>
      <trkpt lat="40.37645" lon="-1.8977">
        <ele>1671.6</ele>
        <time>2021-10-09 15:10:17</time>
      </trkpt>
      <trkpt lat="40.37643" lon="-1.89768">
        <ele>1671.6</ele>
        <time>2021-10-09 15:10:18</time>
      </trkpt>
      <trkpt lat="40.37642" lon="-1.89765">
        <ele>1672</ele>
        <time>2021-10-09 15:10:19</time>
      </trkpt>
      <trkpt lat="40.3764" lon="-1.89763">
        <ele>1672</ele>
        <time>2021-10-09 15:10:20</time>
      </trkpt>
      <trkpt lat="40.37639" lon="-1.89761">
        <ele>1672.2</ele>
        <time>2021-10-09 15:10:21</time>
      </trkpt>
      <trkpt lat="40.37637" lon="-1.89759">
        <ele>1672.2</ele>
        <time>2021-10-09 15:10:22</time>
      </trkpt>
      <trkpt lat="40.37636" lon="-1.89757">
        <ele>1672.2</ele>
        <time>2021-10-09 15:10:23</time>
      </trkpt>
      <trkpt lat="40.37634" lon="-1.89755">
        <ele>1672.6</ele>
        <time>2021-10-09 15:10:24</time>
      </trkpt>
      <trkpt lat="40.37632" lon="-1.89753">
        <ele>1672.6</ele>
        <time>2021-10-09 15:10:25</time>
      </trkpt>
      <trkpt lat="40.37631" lon="-1.89751">
        <ele>1672.8</ele>
        <time>2021-10-09 15:10:26</time>
      </trkpt>
      <trkpt lat="40.37629" lon="-1.89748">
        <ele>1672.8</ele>
        <time>2021-10-09 15:10:27</time>
      </trkpt>
      <trkpt lat="40.37628" lon="-1.89746">
        <ele>1672.8</ele>
        <time>2021-10-09 15:10:28</time>
      </trkpt>
      <trkpt lat="40.37627" lon="-1.89744">
        <ele>1673</ele>
        <time>2021-10-09 15:10:29</time>
      </trkpt>
      <trkpt lat="40.37626" lon="-1.89742">
        <ele>1673</ele>
        <time>2021-10-09 15:10:30</time>
      </trkpt>
      <trkpt lat="40.37624" lon="-1.89739">
        <ele>1673.2</ele>
        <time>2021-10-09 15:10:31</time>
      </trkpt>
      <trkpt lat="40.37623" lon="-1.89737">
        <ele>1673.2</ele>
        <time>2021-10-09 15:10:32</time>
      </trkpt>
      <trkpt lat="40.37622" lon="-1.89734">
        <ele>1673.6</ele>
        <time>2021-10-09 15:10:33</time>
      </trkpt>
      <trkpt lat="40.3762" lon="-1.89732">
        <ele>1673.6</ele>
        <time>2021-10-09 15:10:34</time>
      </trkpt>
      <trkpt lat="40.37619" lon="-1.89729">
        <ele>1673.6</ele>
        <time>2021-10-09 15:10:35</time>
      </trkpt>
      <trkpt lat="40.37618" lon="-1.89727">
        <ele>1673.8</ele>
        <time>2021-10-09 15:10:36</time>
      </trkpt>
      <trkpt lat="40.37617" lon="-1.89724">
        <ele>1673.8</ele>
        <time>2021-10-09 15:10:37</time>
      </trkpt>
      <trkpt lat="40.37615" lon="-1.89722">
        <ele>1674</ele>
        <time>2021-10-09 15:10:38</time>
      </trkpt>
      <trkpt lat="40.37614" lon="-1.89718">
        <ele>1674</ele>
        <time>2021-10-09 15:10:39</time>
      </trkpt>
      <trkpt lat="40.37613" lon="-1.89716">
        <ele>1674.4</ele>
        <time>2021-10-09 15:10:40</time>
      </trkpt>
      <trkpt lat="40.37612" lon="-1.89713">
        <ele>1674.4</ele>
        <time>2021-10-09 15:10:41</time>
      </trkpt>
      <trkpt lat="40.37611" lon="-1.8971">
        <ele>1674.4</ele>
        <time>2021-10-09 15:10:42</time>
      </trkpt>
      <trkpt lat="40.3761" lon="-1.89707">
        <ele>1674.4</ele>
        <time>2021-10-09 15:10:43</time>
      </trkpt>
      <trkpt lat="40.37609" lon="-1.89704">
        <ele>1674.6</ele>
        <time>2021-10-09 15:10:44</time>
      </trkpt>
      <trkpt lat="40.37608" lon="-1.89701">
        <ele>1674.6</ele>
        <time>2021-10-09 15:10:45</time>
      </trkpt>
      <trkpt lat="40.37607" lon="-1.89697">
        <ele>1674.6</ele>
        <time>2021-10-09 15:10:46</time>
      </trkpt>
      <trkpt lat="40.37606" lon="-1.89694">
        <ele>1674.6</ele>
        <time>2021-10-09 15:10:47</time>
      </trkpt>
      <trkpt lat="40.37605" lon="-1.89691">
        <ele>1674.8</ele>
        <time>2021-10-09 15:10:48</time>
      </trkpt>
      <trkpt lat="40.37604" lon="-1.89688">
        <ele>1675</ele>
        <time>2021-10-09 15:10:49</time>
      </trkpt>
      <trkpt lat="40.37602" lon="-1.89684">
        <ele>1675</ele>
        <time>2021-10-09 15:10:50</time>
      </trkpt>
      <trkpt lat="40.37601" lon="-1.8968">
        <ele>1675</ele>
        <time>2021-10-09 15:10:51</time>
      </trkpt>
      <trkpt lat="40.376" lon="-1.89677">
        <ele>1675</ele>
        <time>2021-10-09 15:10:52</time>
      </trkpt>
      <trkpt lat="40.37599" lon="-1.89673">
        <ele>1675</ele>
        <time>2021-10-09 15:10:53</time>
      </trkpt>
      <trkpt lat="40.37597" lon="-1.8967">
        <ele>1675</ele>
        <time>2021-10-09 15:10:54</time>
      </trkpt>
      <trkpt lat="40.37596" lon="-1.89667">
        <ele>1675</ele>
        <time>2021-10-09 15:10:55</time>
      </trkpt>
      <trkpt lat="40.37594" lon="-1.89663">
        <ele>1675</ele>
        <time>2021-10-09 15:10:56</time>
      </trkpt>
      <trkpt lat="40.37593" lon="-1.8966">
        <ele>1675.4</ele>
        <time>2021-10-09 15:10:57</time>
      </trkpt>
      <trkpt lat="40.37592" lon="-1.89656">
        <ele>1675.4</ele>
        <time>2021-10-09 15:10:58</time>
      </trkpt>
      <trkpt lat="40.37592" lon="-1.89653">
        <ele>1675.4</ele>
        <time>2021-10-09 15:10:59</time>
      </trkpt>
      <trkpt lat="40.37592" lon="-1.89648">
        <ele>1675.4</ele>
        <time>2021-10-09 15:11:00</time>
      </trkpt>
      <trkpt lat="40.37591" lon="-1.89644">
        <ele>1675.4</ele>
        <time>2021-10-09 15:11:01</time>
      </trkpt>
      <trkpt lat="40.3759" lon="-1.8964">
        <ele>1675.4</ele>
        <time>2021-10-09 15:11:02</time>
      </trkpt>
      <trkpt lat="40.37589" lon="-1.89636">
        <ele>1675.4</ele>
        <time>2021-10-09 15:11:03</time>
      </trkpt>
      <trkpt lat="40.37588" lon="-1.89632">
        <ele>1675.4</ele>
        <time>2021-10-09 15:11:04</time>
      </trkpt>
      <trkpt lat="40.37587" lon="-1.89628">
        <ele>1675.4</ele>
        <time>2021-10-09 15:11:05</time>
      </trkpt>
      <trkpt lat="40.37585" lon="-1.89624">
        <ele>1675.6</ele>
        <time>2021-10-09 15:11:06</time>
      </trkpt>
      <trkpt lat="40.37585" lon="-1.8962">
        <ele>1675.6</ele>
        <time>2021-10-09 15:11:07</time>
      </trkpt>
      <trkpt lat="40.37583" lon="-1.89616">
        <ele>1675.6</ele>
        <time>2021-10-09 15:11:08</time>
      </trkpt>
      <trkpt lat="40.37582" lon="-1.89612">
        <ele>1676</ele>
        <time>2021-10-09 15:11:09</time>
      </trkpt>
      <trkpt lat="40.37581" lon="-1.89608">
        <ele>1676</ele>
        <time>2021-10-09 15:11:10</time>
      </trkpt>
      <trkpt lat="40.3758" lon="-1.89604">
        <ele>1676</ele>
        <time>2021-10-09 15:11:11</time>
      </trkpt>
      <trkpt lat="40.37578" lon="-1.89599">
        <ele>1676.2</ele>
        <time>2021-10-09 15:11:12</time>
      </trkpt>
      <trkpt lat="40.37577" lon="-1.89594">
        <ele>1676.2</ele>
        <time>2021-10-09 15:11:13</time>
      </trkpt>
      <trkpt lat="40.37576" lon="-1.89589">
        <ele>1676.2</ele>
        <time>2021-10-09 15:11:14</time>
      </trkpt>
      <trkpt lat="40.37575" lon="-1.89585">
        <ele>1676.2</ele>
        <time>2021-10-09 15:11:15</time>
      </trkpt>
      <trkpt lat="40.37573" lon="-1.8958">
        <ele>1676.2</ele>
        <time>2021-10-09 15:11:16</time>
      </trkpt>
      <trkpt lat="40.37572" lon="-1.89575">
        <ele>1676.2</ele>
        <time>2021-10-09 15:11:17</time>
      </trkpt>
      <trkpt lat="40.3757" lon="-1.89571">
        <ele>1676.2</ele>
        <time>2021-10-09 15:11:18</time>
      </trkpt>
      <trkpt lat="40.37568" lon="-1.89566">
        <ele>1676.2</ele>
        <time>2021-10-09 15:11:19</time>
      </trkpt>
      <trkpt lat="40.37566" lon="-1.89561">
        <ele>1676.2</ele>
        <time>2021-10-09 15:11:20</time>
      </trkpt>
      <trkpt lat="40.37564" lon="-1.89556">
        <ele>1676.4</ele>
        <time>2021-10-09 15:11:21</time>
      </trkpt>
      <trkpt lat="40.37562" lon="-1.89551">
        <ele>1676.4</ele>
        <time>2021-10-09 15:11:22</time>
      </trkpt>
      <trkpt lat="40.3756" lon="-1.89546">
        <ele>1676.4</ele>
        <time>2021-10-09 15:11:23</time>
      </trkpt>
      <trkpt lat="40.37558" lon="-1.8954">
        <ele>1676.4</ele>
        <time>2021-10-09 15:11:24</time>
      </trkpt>
      <trkpt lat="40.37555" lon="-1.89535">
        <ele>1676.4</ele>
        <time>2021-10-09 15:11:25</time>
      </trkpt>
      <trkpt lat="40.37553" lon="-1.89531">
        <ele>1676.4</ele>
        <time>2021-10-09 15:11:26</time>
      </trkpt>
      <trkpt lat="40.37549" lon="-1.89527">
        <ele>1676.4</ele>
        <time>2021-10-09 15:11:27</time>
      </trkpt>
      <trkpt lat="40.37546" lon="-1.89522">
        <ele>1676.4</ele>
        <time>2021-10-09 15:11:28</time>
      </trkpt>
      <trkpt lat="40.37546" lon="-1.89522">
        <ele>1676.2</ele>
        <time>2021-10-09 15:11:29</time>
      </trkpt>
      <trkpt lat="40.37541" lon="-1.89514">
        <ele>1676.2</ele>
        <time>2021-10-09 15:11:30</time>
      </trkpt>
      <trkpt lat="40.37537" lon="-1.89511">
        <ele>1676.2</ele>
        <time>2021-10-09 15:11:31</time>
      </trkpt>
      <trkpt lat="40.37534" lon="-1.89508">
        <ele>1676.2</ele>
        <time>2021-10-09 15:11:32</time>
      </trkpt>
      <trkpt lat="40.3753" lon="-1.89505">
        <ele>1676.2</ele>
        <time>2021-10-09 15:11:33</time>
      </trkpt>
      <trkpt lat="40.37526" lon="-1.89503">
        <ele>1676.2</ele>
        <time>2021-10-09 15:11:34</time>
      </trkpt>
      <trkpt lat="40.37522" lon="-1.89501">
        <ele>1676.2</ele>
        <time>2021-10-09 15:11:35</time>
      </trkpt>
      <trkpt lat="40.37518" lon="-1.89499">
        <ele>1676.4</ele>
        <time>2021-10-09 15:11:36</time>
      </trkpt>
      <trkpt lat="40.37513" lon="-1.89498">
        <ele>1676.4</ele>
        <time>2021-10-09 15:11:37</time>
      </trkpt>
      <trkpt lat="40.37509" lon="-1.89495">
        <ele>1676.4</ele>
        <time>2021-10-09 15:11:38</time>
      </trkpt>
      <trkpt lat="40.37505" lon="-1.89493">
        <ele>1676.4</ele>
        <time>2021-10-09 15:11:39</time>
      </trkpt>
      <trkpt lat="40.37501" lon="-1.89491">
        <ele>1676.6</ele>
        <time>2021-10-09 15:11:40</time>
      </trkpt>
      <trkpt lat="40.37497" lon="-1.89488">
        <ele>1676.6</ele>
        <time>2021-10-09 15:11:41</time>
      </trkpt>
      <trkpt lat="40.37493" lon="-1.89487">
        <ele>1676.8</ele>
        <time>2021-10-09 15:11:42</time>
      </trkpt>
      <trkpt lat="40.37489" lon="-1.89485">
        <ele>1676.8</ele>
        <time>2021-10-09 15:11:43</time>
      </trkpt>
      <trkpt lat="40.37485" lon="-1.89484">
        <ele>1677</ele>
        <time>2021-10-09 15:11:44</time>
      </trkpt>
      <trkpt lat="40.37482" lon="-1.89481">
        <ele>1677</ele>
        <time>2021-10-09 15:11:45</time>
      </trkpt>
      <trkpt lat="40.37479" lon="-1.89479">
        <ele>1677</ele>
        <time>2021-10-09 15:11:46</time>
      </trkpt>
      <trkpt lat="40.37475" lon="-1.89477">
        <ele>1677</ele>
        <time>2021-10-09 15:11:47</time>
      </trkpt>
      <trkpt lat="40.37472" lon="-1.89475">
        <ele>1677</ele>
        <time>2021-10-09 15:11:48</time>
      </trkpt>
      <trkpt lat="40.37469" lon="-1.89473">
        <ele>1677.4</ele>
        <time>2021-10-09 15:11:49</time>
      </trkpt>
      <trkpt lat="40.37466" lon="-1.89471">
        <ele>1677.4</ele>
        <time>2021-10-09 15:11:50</time>
      </trkpt>
      <trkpt lat="40.37463" lon="-1.89469">
        <ele>1677.4</ele>
        <time>2021-10-09 15:11:51</time>
      </trkpt>
      <trkpt lat="40.3746" lon="-1.89467">
        <ele>1677.4</ele>
        <time>2021-10-09 15:11:52</time>
      </trkpt>
      <trkpt lat="40.37457" lon="-1.89464">
        <ele>1677.4</ele>
        <time>2021-10-09 15:11:53</time>
      </trkpt>
      <trkpt lat="40.37454" lon="-1.89462">
        <ele>1677.4</ele>
        <time>2021-10-09 15:11:54</time>
      </trkpt>
      <trkpt lat="40.3745" lon="-1.8946">
        <ele>1677.6</ele>
        <time>2021-10-09 15:11:55</time>
      </trkpt>
      <trkpt lat="40.37447" lon="-1.89457">
        <ele>1677.6</ele>
        <time>2021-10-09 15:11:56</time>
      </trkpt>
      <trkpt lat="40.37444" lon="-1.89455">
        <ele>1677.6</ele>
        <time>2021-10-09 15:11:57</time>
      </trkpt>
      <trkpt lat="40.37441" lon="-1.89453">
        <ele>1677.8</ele>
        <time>2021-10-09 15:11:58</time>
      </trkpt>
      <trkpt lat="40.37438" lon="-1.89451">
        <ele>1677.8</ele>
        <time>2021-10-09 15:11:59</time>
      </trkpt>
      <trkpt lat="40.37435" lon="-1.89448">
        <ele>1677.8</ele>
        <time>2021-10-09 15:12:00</time>
      </trkpt>
      <trkpt lat="40.37431" lon="-1.89446">
        <ele>1677.8</ele>
        <time>2021-10-09 15:12:01</time>
      </trkpt>
      <trkpt lat="40.37428" lon="-1.89443">
        <ele>1678.2</ele>
        <time>2021-10-09 15:12:02</time>
      </trkpt>
      <trkpt lat="40.37424" lon="-1.89441">
        <ele>1678.2</ele>
        <time>2021-10-09 15:12:03</time>
      </trkpt>
      <trkpt lat="40.37421" lon="-1.89439">
        <ele>1678.4</ele>
        <time>2021-10-09 15:12:04</time>
      </trkpt>
      <trkpt lat="40.37418" lon="-1.89437">
        <ele>1678.4</ele>
        <time>2021-10-09 15:12:05</time>
      </trkpt>
      <trkpt lat="40.37415" lon="-1.89435">
        <ele>1678.8</ele>
        <time>2021-10-09 15:12:06</time>
      </trkpt>
      <trkpt lat="40.37411" lon="-1.89434">
        <ele>1679</ele>
        <time>2021-10-09 15:12:07</time>
      </trkpt>
      <trkpt lat="40.37408" lon="-1.89433">
        <ele>1679.2</ele>
        <time>2021-10-09 15:12:08</time>
      </trkpt>
      <trkpt lat="40.37405" lon="-1.89432">
        <ele>1679.4</ele>
        <time>2021-10-09 15:12:09</time>
      </trkpt>
      <trkpt lat="40.37401" lon="-1.89432">
        <ele>1679.8</ele>
        <time>2021-10-09 15:12:10</time>
      </trkpt>
      <trkpt lat="40.37398" lon="-1.89431">
        <ele>1680</ele>
        <time>2021-10-09 15:12:11</time>
      </trkpt>
      <trkpt lat="40.37395" lon="-1.8943">
        <ele>1680.2</ele>
        <time>2021-10-09 15:12:12</time>
      </trkpt>
      <trkpt lat="40.37392" lon="-1.8943">
        <ele>1680.4</ele>
        <time>2021-10-09 15:12:13</time>
      </trkpt>
      <trkpt lat="40.37388" lon="-1.89431">
        <ele>1680.8</ele>
        <time>2021-10-09 15:12:14</time>
      </trkpt>
      <trkpt lat="40.37385" lon="-1.89431">
        <ele>1681</ele>
        <time>2021-10-09 15:12:15</time>
      </trkpt>
      <trkpt lat="40.37382" lon="-1.89431">
        <ele>1681.2</ele>
        <time>2021-10-09 15:12:16</time>
      </trkpt>
      <trkpt lat="40.37379" lon="-1.8943">
        <ele>1681.4</ele>
        <time>2021-10-09 15:12:17</time>
      </trkpt>
      <trkpt lat="40.37377" lon="-1.89429">
        <ele>1681.4</ele>
        <time>2021-10-09 15:12:18</time>
      </trkpt>
      <trkpt lat="40.37374" lon="-1.89429">
        <ele>1681.8</ele>
        <time>2021-10-09 15:12:19</time>
      </trkpt>
      <trkpt lat="40.37372" lon="-1.89428">
        <ele>1681.8</ele>
        <time>2021-10-09 15:12:20</time>
      </trkpt>
      <trkpt lat="40.37369" lon="-1.89428">
        <ele>1682</ele>
        <time>2021-10-09 15:12:21</time>
      </trkpt>
      <trkpt lat="40.37366" lon="-1.89427">
        <ele>1682</ele>
        <time>2021-10-09 15:12:22</time>
      </trkpt>
      <trkpt lat="40.37363" lon="-1.89427">
        <ele>1682.4</ele>
        <time>2021-10-09 15:12:23</time>
      </trkpt>
      <trkpt lat="40.3736" lon="-1.89426">
        <ele>1682.4</ele>
        <time>2021-10-09 15:12:24</time>
      </trkpt>
      <trkpt lat="40.37357" lon="-1.89426">
        <ele>1682.6</ele>
        <time>2021-10-09 15:12:25</time>
      </trkpt>
      <trkpt lat="40.37354" lon="-1.89425">
        <ele>1682.6</ele>
        <time>2021-10-09 15:12:26</time>
      </trkpt>
      <trkpt lat="40.37351" lon="-1.89424">
        <ele>1683</ele>
        <time>2021-10-09 15:12:27</time>
      </trkpt>
      <trkpt lat="40.37349" lon="-1.89423">
        <ele>1683</ele>
        <time>2021-10-09 15:12:28</time>
      </trkpt>
      <trkpt lat="40.37346" lon="-1.89422">
        <ele>1683.2</ele>
        <time>2021-10-09 15:12:29</time>
      </trkpt>
      <trkpt lat="40.37343" lon="-1.89421">
        <ele>1683.2</ele>
        <time>2021-10-09 15:12:30</time>
      </trkpt>
      <trkpt lat="40.3734" lon="-1.89421">
        <ele>1683.2</ele>
        <time>2021-10-09 15:12:31</time>
      </trkpt>
      <trkpt lat="40.37337" lon="-1.8942">
        <ele>1683.2</ele>
        <time>2021-10-09 15:12:32</time>
      </trkpt>
      <trkpt lat="40.37335" lon="-1.8942">
        <ele>1683.4</ele>
        <time>2021-10-09 15:12:33</time>
      </trkpt>
      <trkpt lat="40.37332" lon="-1.89419">
        <ele>1683.4</ele>
        <time>2021-10-09 15:12:34</time>
      </trkpt>
      <trkpt lat="40.37329" lon="-1.89419">
        <ele>1683.8</ele>
        <time>2021-10-09 15:12:35</time>
      </trkpt>
      <trkpt lat="40.37325" lon="-1.89418">
        <ele>1683.8</ele>
        <time>2021-10-09 15:12:36</time>
      </trkpt>
      <trkpt lat="40.37322" lon="-1.89418">
        <ele>1684</ele>
        <time>2021-10-09 15:12:37</time>
      </trkpt>
      <trkpt lat="40.37319" lon="-1.89418">
        <ele>1684</ele>
        <time>2021-10-09 15:12:38</time>
      </trkpt>
      <trkpt lat="40.37316" lon="-1.89417">
        <ele>1684</ele>
        <time>2021-10-09 15:12:39</time>
      </trkpt>
      <trkpt lat="40.37313" lon="-1.89416">
        <ele>1684.2</ele>
        <time>2021-10-09 15:12:40</time>
      </trkpt>
      <trkpt lat="40.37311" lon="-1.89415">
        <ele>1684.2</ele>
        <time>2021-10-09 15:12:41</time>
      </trkpt>
      <trkpt lat="40.37307" lon="-1.89415">
        <ele>1684.4</ele>
        <time>2021-10-09 15:12:42</time>
      </trkpt>
      <trkpt lat="40.37304" lon="-1.89415">
        <ele>1684.6</ele>
        <time>2021-10-09 15:12:43</time>
      </trkpt>
      <trkpt lat="40.37301" lon="-1.89414">
        <ele>1684.8</ele>
        <time>2021-10-09 15:12:44</time>
      </trkpt>
      <trkpt lat="40.37298" lon="-1.89414">
        <ele>1684.8</ele>
        <time>2021-10-09 15:12:45</time>
      </trkpt>
      <trkpt lat="40.37295" lon="-1.89412">
        <ele>1685.2</ele>
        <time>2021-10-09 15:12:46</time>
      </trkpt>
      <trkpt lat="40.37292" lon="-1.89412">
        <ele>1685.2</ele>
        <time>2021-10-09 15:12:47</time>
      </trkpt>
      <trkpt lat="40.37289" lon="-1.89411">
        <ele>1685.4</ele>
        <time>2021-10-09 15:12:48</time>
      </trkpt>
      <trkpt lat="40.37287" lon="-1.8941">
        <ele>1685.4</ele>
        <time>2021-10-09 15:12:49</time>
      </trkpt>
      <trkpt lat="40.37284" lon="-1.89409">
        <ele>1685.4</ele>
        <time>2021-10-09 15:12:50</time>
      </trkpt>
      <trkpt lat="40.37281" lon="-1.89408">
        <ele>1685.8</ele>
        <time>2021-10-09 15:12:51</time>
      </trkpt>
      <trkpt lat="40.37279" lon="-1.89407">
        <ele>1685.8</ele>
        <time>2021-10-09 15:12:52</time>
      </trkpt>
      <trkpt lat="40.37276" lon="-1.89405">
        <ele>1685.8</ele>
        <time>2021-10-09 15:12:53</time>
      </trkpt>
      <trkpt lat="40.37274" lon="-1.89403">
        <ele>1686</ele>
        <time>2021-10-09 15:12:54</time>
      </trkpt>
      <trkpt lat="40.37272" lon="-1.89402">
        <ele>1686</ele>
        <time>2021-10-09 15:12:55</time>
      </trkpt>
      <trkpt lat="40.3727" lon="-1.894">
        <ele>1686</ele>
        <time>2021-10-09 15:12:56</time>
      </trkpt>
      <trkpt lat="40.37269" lon="-1.89398">
        <ele>1686.2</ele>
        <time>2021-10-09 15:12:57</time>
      </trkpt>
      <trkpt lat="40.37268" lon="-1.89396">
        <ele>1686.2</ele>
        <time>2021-10-09 15:12:58</time>
      </trkpt>
      <trkpt lat="40.37267" lon="-1.89394">
        <ele>1686.2</ele>
        <time>2021-10-09 15:12:59</time>
      </trkpt>
      <trkpt lat="40.37266" lon="-1.89391">
        <ele>1686.6</ele>
        <time>2021-10-09 15:13:00</time>
      </trkpt>
      <trkpt lat="40.37265" lon="-1.89388">
        <ele>1685.8</ele>
        <time>2021-10-09 15:13:01</time>
      </trkpt>
      <trkpt lat="40.37265" lon="-1.89385">
        <ele>1686.2</ele>
        <time>2021-10-09 15:13:02</time>
      </trkpt>
      <trkpt lat="40.37264" lon="-1.89382">
        <ele>1686.2</ele>
        <time>2021-10-09 15:13:03</time>
      </trkpt>
      <trkpt lat="40.37264" lon="-1.89379">
        <ele>1686.6</ele>
        <time>2021-10-09 15:13:04</time>
      </trkpt>
      <trkpt lat="40.37264" lon="-1.89376">
        <ele>1686.6</ele>
        <time>2021-10-09 15:13:05</time>
      </trkpt>
      <trkpt lat="40.37264" lon="-1.89373">
        <ele>1686.6</ele>
        <time>2021-10-09 15:13:06</time>
      </trkpt>
      <trkpt lat="40.37264" lon="-1.89369">
        <ele>1687</ele>
        <time>2021-10-09 15:13:07</time>
      </trkpt>
      <trkpt lat="40.37263" lon="-1.89366">
        <ele>1687</ele>
        <time>2021-10-09 15:13:08</time>
      </trkpt>
      <trkpt lat="40.37263" lon="-1.89363">
        <ele>1687</ele>
        <time>2021-10-09 15:13:09</time>
      </trkpt>
      <trkpt lat="40.37262" lon="-1.89361">
        <ele>1687.2</ele>
        <time>2021-10-09 15:13:10</time>
      </trkpt>
      <trkpt lat="40.37262" lon="-1.89358">
        <ele>1687.2</ele>
        <time>2021-10-09 15:13:11</time>
      </trkpt>
      <trkpt lat="40.37261" lon="-1.89354">
        <ele>1687.4</ele>
        <time>2021-10-09 15:13:12</time>
      </trkpt>
      <trkpt lat="40.37261" lon="-1.89351">
        <ele>1687.4</ele>
        <time>2021-10-09 15:13:13</time>
      </trkpt>
      <trkpt lat="40.37261" lon="-1.89347">
        <ele>1687.6</ele>
        <time>2021-10-09 15:13:14</time>
      </trkpt>
      <trkpt lat="40.37261" lon="-1.89343">
        <ele>1687.6</ele>
        <time>2021-10-09 15:13:15</time>
      </trkpt>
      <trkpt lat="40.37261" lon="-1.89338">
        <ele>1687.6</ele>
        <time>2021-10-09 15:13:16</time>
      </trkpt>
      <trkpt lat="40.37261" lon="-1.89334">
        <ele>1687.6</ele>
        <time>2021-10-09 15:13:17</time>
      </trkpt>
      <trkpt lat="40.37261" lon="-1.89329">
        <ele>1687.6</ele>
        <time>2021-10-09 15:13:18</time>
      </trkpt>
      <trkpt lat="40.37262" lon="-1.89324">
        <ele>1687.6</ele>
        <time>2021-10-09 15:13:19</time>
      </trkpt>
      <trkpt lat="40.37263" lon="-1.89318">
        <ele>1687.6</ele>
        <time>2021-10-09 15:13:20</time>
      </trkpt>
      <trkpt lat="40.37263" lon="-1.89314">
        <ele>1687.6</ele>
        <time>2021-10-09 15:13:21</time>
      </trkpt>
      <trkpt lat="40.37264" lon="-1.89308">
        <ele>1687.6</ele>
        <time>2021-10-09 15:13:22</time>
      </trkpt>
      <trkpt lat="40.37264" lon="-1.89302">
        <ele>1687.6</ele>
        <time>2021-10-09 15:13:23</time>
      </trkpt>
      <trkpt lat="40.37264" lon="-1.89296">
        <ele>1687.6</ele>
        <time>2021-10-09 15:13:24</time>
      </trkpt>
      <trkpt lat="40.37264" lon="-1.8929">
        <ele>1687.6</ele>
        <time>2021-10-09 15:13:25</time>
      </trkpt>
      <trkpt lat="40.37264" lon="-1.89283">
        <ele>1687.6</ele>
        <time>2021-10-09 15:13:26</time>
      </trkpt>
      <trkpt lat="40.37264" lon="-1.89276">
        <ele>1687.4</ele>
        <time>2021-10-09 15:13:27</time>
      </trkpt>
      <trkpt lat="40.37265" lon="-1.8927">
        <ele>1687.4</ele>
        <time>2021-10-09 15:13:28</time>
      </trkpt>
      <trkpt lat="40.37265" lon="-1.89262">
        <ele>1687.4</ele>
        <time>2021-10-09 15:13:29</time>
      </trkpt>
      <trkpt lat="40.37265" lon="-1.89255">
        <ele>1687.4</ele>
        <time>2021-10-09 15:13:30</time>
      </trkpt>
      <trkpt lat="40.37265" lon="-1.89248">
        <ele>1687</ele>
        <time>2021-10-09 15:13:31</time>
      </trkpt>
      <trkpt lat="40.37266" lon="-1.8924">
        <ele>1687</ele>
        <time>2021-10-09 15:13:32</time>
      </trkpt>
      <trkpt lat="40.37266" lon="-1.89232">
        <ele>1686.6</ele>
        <time>2021-10-09 15:13:33</time>
      </trkpt>
      <trkpt lat="40.37266" lon="-1.89225">
        <ele>1686.6</ele>
        <time>2021-10-09 15:13:34</time>
      </trkpt>
      <trkpt lat="40.37266" lon="-1.89217">
        <ele>1686.6</ele>
        <time>2021-10-09 15:13:35</time>
      </trkpt>
      <trkpt lat="40.37267" lon="-1.89208">
        <ele>1686.6</ele>
        <time>2021-10-09 15:13:36</time>
      </trkpt>
      <trkpt lat="40.37268" lon="-1.892">
        <ele>1686.2</ele>
        <time>2021-10-09 15:13:37</time>
      </trkpt>
      <trkpt lat="40.37269" lon="-1.89193">
        <ele>1686</ele>
        <time>2021-10-09 15:13:38</time>
      </trkpt>
      <trkpt lat="40.3727" lon="-1.89183">
        <ele>1685.6</ele>
        <time>2021-10-09 15:13:39</time>
      </trkpt>
      <trkpt lat="40.37271" lon="-1.89176">
        <ele>1685.6</ele>
        <time>2021-10-09 15:13:40</time>
      </trkpt>
      <trkpt lat="40.37271" lon="-1.89168">
        <ele>1685.6</ele>
        <time>2021-10-09 15:13:41</time>
      </trkpt>
      <trkpt lat="40.37273" lon="-1.89161">
        <ele>1685.6</ele>
        <time>2021-10-09 15:13:42</time>
      </trkpt>
      <trkpt lat="40.37274" lon="-1.89155">
        <ele>1685.4</ele>
        <time>2021-10-09 15:13:43</time>
      </trkpt>
      <trkpt lat="40.37275" lon="-1.8915">
        <ele>1685.4</ele>
        <time>2021-10-09 15:13:44</time>
      </trkpt>
      <trkpt lat="40.37276" lon="-1.89145">
        <ele>1685.4</ele>
        <time>2021-10-09 15:13:45</time>
      </trkpt>
      <trkpt lat="40.37276" lon="-1.8914">
        <ele>1685.4</ele>
        <time>2021-10-09 15:13:46</time>
      </trkpt>
      <trkpt lat="40.37278" lon="-1.89135">
        <ele>1685.4</ele>
        <time>2021-10-09 15:13:47</time>
      </trkpt>
      <trkpt lat="40.37279" lon="-1.89132">
        <ele>1685.8</ele>
        <time>2021-10-09 15:13:48</time>
      </trkpt>
      <trkpt lat="40.3728" lon="-1.89129">
        <ele>1685.8</ele>
        <time>2021-10-09 15:13:49</time>
      </trkpt>
      <trkpt lat="40.37281" lon="-1.89125">
        <ele>1686</ele>
        <time>2021-10-09 15:13:50</time>
      </trkpt>
      <trkpt lat="40.37283" lon="-1.89122">
        <ele>1686</ele>
        <time>2021-10-09 15:13:51</time>
      </trkpt>
      <trkpt lat="40.37283" lon="-1.89118">
        <ele>1686</ele>
        <time>2021-10-09 15:13:52</time>
      </trkpt>
      <trkpt lat="40.37285" lon="-1.89114">
        <ele>1686.2</ele>
        <time>2021-10-09 15:13:53</time>
      </trkpt>
      <trkpt lat="40.37286" lon="-1.8911">
        <ele>1686.2</ele>
        <time>2021-10-09 15:13:54</time>
      </trkpt>
      <trkpt lat="40.37287" lon="-1.89107">
        <ele>1686.4</ele>
        <time>2021-10-09 15:13:55</time>
      </trkpt>
      <trkpt lat="40.37289" lon="-1.89104">
        <ele>1686.4</ele>
        <time>2021-10-09 15:13:56</time>
      </trkpt>
      <trkpt lat="40.3729" lon="-1.89101">
        <ele>1686.6</ele>
        <time>2021-10-09 15:13:57</time>
      </trkpt>
      <trkpt lat="40.37292" lon="-1.89097">
        <ele>1686.6</ele>
        <time>2021-10-09 15:13:58</time>
      </trkpt>
      <trkpt lat="40.37293" lon="-1.89093">
        <ele>1687</ele>
        <time>2021-10-09 15:13:59</time>
      </trkpt>
      <trkpt lat="40.37295" lon="-1.8909">
        <ele>1687.2</ele>
        <time>2021-10-09 15:14:00</time>
      </trkpt>
      <trkpt lat="40.37296" lon="-1.89087">
        <ele>1687.2</ele>
        <time>2021-10-09 15:14:01</time>
      </trkpt>
      <trkpt lat="40.37298" lon="-1.89083">
        <ele>1687.6</ele>
        <time>2021-10-09 15:14:02</time>
      </trkpt>
      <trkpt lat="40.373" lon="-1.89079">
        <ele>1687.6</ele>
        <time>2021-10-09 15:14:03</time>
      </trkpt>
      <trkpt lat="40.37301" lon="-1.89075">
        <ele>1687.6</ele>
        <time>2021-10-09 15:14:04</time>
      </trkpt>
      <trkpt lat="40.37303" lon="-1.89071">
        <ele>1687.8</ele>
        <time>2021-10-09 15:14:05</time>
      </trkpt>
      <trkpt lat="40.37303" lon="-1.89068">
        <ele>1687.8</ele>
        <time>2021-10-09 15:14:06</time>
      </trkpt>
      <trkpt lat="40.37304" lon="-1.89064">
        <ele>1687.8</ele>
        <time>2021-10-09 15:14:07</time>
      </trkpt>
      <trkpt lat="40.37304" lon="-1.8906">
        <ele>1688</ele>
        <time>2021-10-09 15:14:08</time>
      </trkpt>
      <trkpt lat="40.37303" lon="-1.89056">
        <ele>1688</ele>
        <time>2021-10-09 15:14:09</time>
      </trkpt>
      <trkpt lat="40.37303" lon="-1.89053">
        <ele>1688</ele>
        <time>2021-10-09 15:14:10</time>
      </trkpt>
      <trkpt lat="40.37302" lon="-1.8905">
        <ele>1688</ele>
        <time>2021-10-09 15:14:11</time>
      </trkpt>
      <trkpt lat="40.373" lon="-1.89046">
        <ele>1688.2</ele>
        <time>2021-10-09 15:14:12</time>
      </trkpt>
      <trkpt lat="40.37298" lon="-1.89043">
        <ele>1688.6</ele>
        <time>2021-10-09 15:14:13</time>
      </trkpt>
      <trkpt lat="40.37296" lon="-1.89039">
        <ele>1688.6</ele>
        <time>2021-10-09 15:14:14</time>
      </trkpt>
      <trkpt lat="40.37294" lon="-1.89035">
        <ele>1688.6</ele>
        <time>2021-10-09 15:14:15</time>
      </trkpt>
      <trkpt lat="40.37292" lon="-1.89033">
        <ele>1688.8</ele>
        <time>2021-10-09 15:14:16</time>
      </trkpt>
      <trkpt lat="40.3729" lon="-1.8903">
        <ele>1688.8</ele>
        <time>2021-10-09 15:14:17</time>
      </trkpt>
      <trkpt lat="40.37288" lon="-1.89028">
        <ele>1689.2</ele>
        <time>2021-10-09 15:14:18</time>
      </trkpt>
      <trkpt lat="40.37285" lon="-1.89025">
        <ele>1689.4</ele>
        <time>2021-10-09 15:14:19</time>
      </trkpt>
      <trkpt lat="40.37283" lon="-1.89022">
        <ele>1689.4</ele>
        <time>2021-10-09 15:14:20</time>
      </trkpt>
      <trkpt lat="40.37281" lon="-1.8902">
        <ele>1689.8</ele>
        <time>2021-10-09 15:14:21</time>
      </trkpt>
      <trkpt lat="40.37279" lon="-1.89017">
        <ele>1689.8</ele>
        <time>2021-10-09 15:14:22</time>
      </trkpt>
      <trkpt lat="40.37276" lon="-1.89015">
        <ele>1690</ele>
        <time>2021-10-09 15:14:23</time>
      </trkpt>
      <trkpt lat="40.37274" lon="-1.89012">
        <ele>1690</ele>
        <time>2021-10-09 15:14:24</time>
      </trkpt>
      <trkpt lat="40.37272" lon="-1.89009">
        <ele>1690.6</ele>
        <time>2021-10-09 15:14:25</time>
      </trkpt>
      <trkpt lat="40.3727" lon="-1.89007">
        <ele>1690.6</ele>
        <time>2021-10-09 15:14:26</time>
      </trkpt>
      <trkpt lat="40.37267" lon="-1.89004">
        <ele>1690.8</ele>
        <time>2021-10-09 15:14:27</time>
      </trkpt>
      <trkpt lat="40.37265" lon="-1.89002">
        <ele>1690.8</ele>
        <time>2021-10-09 15:14:28</time>
      </trkpt>
      <trkpt lat="40.37263" lon="-1.89">
        <ele>1691</ele>
        <time>2021-10-09 15:14:29</time>
      </trkpt>
      <trkpt lat="40.3726" lon="-1.88999">
        <ele>1691.2</ele>
        <time>2021-10-09 15:14:30</time>
      </trkpt>
      <trkpt lat="40.37258" lon="-1.88998">
        <ele>1691.2</ele>
        <time>2021-10-09 15:14:31</time>
      </trkpt>
      <trkpt lat="40.37255" lon="-1.88997">
        <ele>1691.2</ele>
        <time>2021-10-09 15:14:32</time>
      </trkpt>
      <trkpt lat="40.37252" lon="-1.88998">
        <ele>1691.6</ele>
        <time>2021-10-09 15:14:33</time>
      </trkpt>
      <trkpt lat="40.3725" lon="-1.88999">
        <ele>1692</ele>
        <time>2021-10-09 15:14:34</time>
      </trkpt>
      <trkpt lat="40.37247" lon="-1.89">
        <ele>1692</ele>
        <time>2021-10-09 15:14:35</time>
      </trkpt>
      <trkpt lat="40.37245" lon="-1.89">
        <ele>1692.2</ele>
        <time>2021-10-09 15:14:36</time>
      </trkpt>
      <trkpt lat="40.37242" lon="-1.89001">
        <ele>1692.6</ele>
        <time>2021-10-09 15:14:37</time>
      </trkpt>
      <trkpt lat="40.3724" lon="-1.89002">
        <ele>1693</ele>
        <time>2021-10-09 15:14:38</time>
      </trkpt>
      <trkpt lat="40.37239" lon="-1.89004">
        <ele>1693.2</ele>
        <time>2021-10-09 15:14:39</time>
      </trkpt>
      <trkpt lat="40.37236" lon="-1.89005">
        <ele>1693.2</ele>
        <time>2021-10-09 15:14:40</time>
      </trkpt>
      <trkpt lat="40.37234" lon="-1.89007">
        <ele>1693.4</ele>
        <time>2021-10-09 15:14:41</time>
      </trkpt>
      <trkpt lat="40.37232" lon="-1.89008">
        <ele>1693.4</ele>
        <time>2021-10-09 15:14:42</time>
      </trkpt>
      <trkpt lat="40.3723" lon="-1.89008">
        <ele>1693.8</ele>
        <time>2021-10-09 15:14:43</time>
      </trkpt>
      <trkpt lat="40.37227" lon="-1.89009">
        <ele>1693.8</ele>
        <time>2021-10-09 15:14:44</time>
      </trkpt>
      <trkpt lat="40.37225" lon="-1.8901">
        <ele>1694.2</ele>
        <time>2021-10-09 15:14:45</time>
      </trkpt>
      <trkpt lat="40.37222" lon="-1.89012">
        <ele>1694.2</ele>
        <time>2021-10-09 15:14:46</time>
      </trkpt>
      <trkpt lat="40.3722" lon="-1.89014">
        <ele>1694.8</ele>
        <time>2021-10-09 15:14:47</time>
      </trkpt>
      <trkpt lat="40.37217" lon="-1.89015">
        <ele>1694.8</ele>
        <time>2021-10-09 15:14:48</time>
      </trkpt>
      <trkpt lat="40.37214" lon="-1.89016">
        <ele>1695</ele>
        <time>2021-10-09 15:14:49</time>
      </trkpt>
      <trkpt lat="40.37211" lon="-1.89017">
        <ele>1695</ele>
        <time>2021-10-09 15:14:50</time>
      </trkpt>
      <trkpt lat="40.37209" lon="-1.89018">
        <ele>1695.4</ele>
        <time>2021-10-09 15:14:51</time>
      </trkpt>
      <trkpt lat="40.37206" lon="-1.89019">
        <ele>1695.4</ele>
        <time>2021-10-09 15:14:52</time>
      </trkpt>
      <trkpt lat="40.37204" lon="-1.89019">
        <ele>1695.6</ele>
        <time>2021-10-09 15:14:53</time>
      </trkpt>
      <trkpt lat="40.37202" lon="-1.8902">
        <ele>1695.6</ele>
        <time>2021-10-09 15:14:54</time>
      </trkpt>
      <trkpt lat="40.37199" lon="-1.8902">
        <ele>1696</ele>
        <time>2021-10-09 15:14:55</time>
      </trkpt>
      <trkpt lat="40.37197" lon="-1.89021">
        <ele>1696</ele>
        <time>2021-10-09 15:14:56</time>
      </trkpt>
      <trkpt lat="40.37195" lon="-1.89021">
        <ele>1696.2</ele>
        <time>2021-10-09 15:14:57</time>
      </trkpt>
      <trkpt lat="40.37192" lon="-1.89022">
        <ele>1696.2</ele>
        <time>2021-10-09 15:14:58</time>
      </trkpt>
      <trkpt lat="40.37191" lon="-1.89023">
        <ele>1696.6</ele>
        <time>2021-10-09 15:14:59</time>
      </trkpt>
      <trkpt lat="40.37188" lon="-1.89023">
        <ele>1696.6</ele>
        <time>2021-10-09 15:15:00</time>
      </trkpt>
      <trkpt lat="40.37187" lon="-1.89024">
        <ele>1697</ele>
        <time>2021-10-09 15:15:01</time>
      </trkpt>
      <trkpt lat="40.37185" lon="-1.89025">
        <ele>1697.2</ele>
        <time>2021-10-09 15:15:02</time>
      </trkpt>
      <trkpt lat="40.37183" lon="-1.89026">
        <ele>1697.4</ele>
        <time>2021-10-09 15:15:03</time>
      </trkpt>
      <trkpt lat="40.37181" lon="-1.89026">
        <ele>1697.4</ele>
        <time>2021-10-09 15:15:04</time>
      </trkpt>
      <trkpt lat="40.37179" lon="-1.89027">
        <ele>1697.6</ele>
        <time>2021-10-09 15:15:05</time>
      </trkpt>
      <trkpt lat="40.37177" lon="-1.89028">
        <ele>1697.6</ele>
        <time>2021-10-09 15:15:06</time>
      </trkpt>
      <trkpt lat="40.37174" lon="-1.89029">
        <ele>1698</ele>
        <time>2021-10-09 15:15:07</time>
      </trkpt>
      <trkpt lat="40.37171" lon="-1.8903">
        <ele>1698.2</ele>
        <time>2021-10-09 15:15:08</time>
      </trkpt>
      <trkpt lat="40.37169" lon="-1.8903">
        <ele>1698.4</ele>
        <time>2021-10-09 15:15:09</time>
      </trkpt>
      <trkpt lat="40.37167" lon="-1.89031">
        <ele>1698.8</ele>
        <time>2021-10-09 15:15:10</time>
      </trkpt>
      <trkpt lat="40.37165" lon="-1.89031">
        <ele>1699</ele>
        <time>2021-10-09 15:15:11</time>
      </trkpt>
      <trkpt lat="40.37163" lon="-1.89032">
        <ele>1699.2</ele>
        <time>2021-10-09 15:15:12</time>
      </trkpt>
      <trkpt lat="40.37161" lon="-1.89032">
        <ele>1699.6</ele>
        <time>2021-10-09 15:15:13</time>
      </trkpt>
      <trkpt lat="40.37159" lon="-1.89032">
        <ele>1699.8</ele>
        <time>2021-10-09 15:15:14</time>
      </trkpt>
      <trkpt lat="40.37157" lon="-1.89033">
        <ele>1700</ele>
        <time>2021-10-09 15:15:15</time>
      </trkpt>
      <trkpt lat="40.37156" lon="-1.89033">
        <ele>1700.2</ele>
        <time>2021-10-09 15:15:16</time>
      </trkpt>
      <trkpt lat="40.37154" lon="-1.89034">
        <ele>1700.2</ele>
        <time>2021-10-09 15:15:17</time>
      </trkpt>
      <trkpt lat="40.37151" lon="-1.89035">
        <ele>1700.6</ele>
        <time>2021-10-09 15:15:18</time>
      </trkpt>
      <trkpt lat="40.37149" lon="-1.89035">
        <ele>1700.8</ele>
        <time>2021-10-09 15:15:19</time>
      </trkpt>
      <trkpt lat="40.37147" lon="-1.89036">
        <ele>1700.8</ele>
        <time>2021-10-09 15:15:20</time>
      </trkpt>
      <trkpt lat="40.37144" lon="-1.89037">
        <ele>1701</ele>
        <time>2021-10-09 15:15:21</time>
      </trkpt>
      <trkpt lat="40.37142" lon="-1.89038">
        <ele>1701</ele>
        <time>2021-10-09 15:15:22</time>
      </trkpt>
      <trkpt lat="40.37139" lon="-1.89039">
        <ele>1701.4</ele>
        <time>2021-10-09 15:15:23</time>
      </trkpt>
      <trkpt lat="40.37138" lon="-1.89039">
        <ele>1701.6</ele>
        <time>2021-10-09 15:15:24</time>
      </trkpt>
      <trkpt lat="40.37136" lon="-1.8904">
        <ele>1701.8</ele>
        <time>2021-10-09 15:15:25</time>
      </trkpt>
      <trkpt lat="40.37134" lon="-1.8904">
        <ele>1702.2</ele>
        <time>2021-10-09 15:15:26</time>
      </trkpt>
      <trkpt lat="40.37132" lon="-1.89041">
        <ele>1702.4</ele>
        <time>2021-10-09 15:15:27</time>
      </trkpt>
      <trkpt lat="40.37129" lon="-1.89041">
        <ele>1702.6</ele>
        <time>2021-10-09 15:15:28</time>
      </trkpt>
      <trkpt lat="40.37126" lon="-1.89042">
        <ele>1702.6</ele>
        <time>2021-10-09 15:15:29</time>
      </trkpt>
      <trkpt lat="40.37124" lon="-1.89043">
        <ele>1703</ele>
        <time>2021-10-09 15:15:30</time>
      </trkpt>
      <trkpt lat="40.37121" lon="-1.89044">
        <ele>1703</ele>
        <time>2021-10-09 15:15:31</time>
      </trkpt>
      <trkpt lat="40.37119" lon="-1.89045">
        <ele>1703.2</ele>
        <time>2021-10-09 15:15:32</time>
      </trkpt>
      <trkpt lat="40.37116" lon="-1.89046">
        <ele>1703.2</ele>
        <time>2021-10-09 15:15:33</time>
      </trkpt>
      <trkpt lat="40.37113" lon="-1.89046">
        <ele>1703.6</ele>
        <time>2021-10-09 15:15:34</time>
      </trkpt>
      <trkpt lat="40.37111" lon="-1.89046">
        <ele>1703.6</ele>
        <time>2021-10-09 15:15:35</time>
      </trkpt>
      <trkpt lat="40.37109" lon="-1.89045">
        <ele>1704</ele>
        <time>2021-10-09 15:15:36</time>
      </trkpt>
      <trkpt lat="40.37106" lon="-1.89045">
        <ele>1704</ele>
        <time>2021-10-09 15:15:37</time>
      </trkpt>
      <trkpt lat="40.37104" lon="-1.89044">
        <ele>1704.4</ele>
        <time>2021-10-09 15:15:38</time>
      </trkpt>
      <trkpt lat="40.37102" lon="-1.89044">
        <ele>1704.4</ele>
        <time>2021-10-09 15:15:39</time>
      </trkpt>
      <trkpt lat="40.37099" lon="-1.89044">
        <ele>1704.6</ele>
        <time>2021-10-09 15:15:40</time>
      </trkpt>
      <trkpt lat="40.37096" lon="-1.89045">
        <ele>1704.6</ele>
        <time>2021-10-09 15:15:41</time>
      </trkpt>
      <trkpt lat="40.37094" lon="-1.89045">
        <ele>1704.6</ele>
        <time>2021-10-09 15:15:42</time>
      </trkpt>
      <trkpt lat="40.37092" lon="-1.89045">
        <ele>1704.8</ele>
        <time>2021-10-09 15:15:43</time>
      </trkpt>
      <trkpt lat="40.3709" lon="-1.89045">
        <ele>1704.8</ele>
        <time>2021-10-09 15:15:44</time>
      </trkpt>
      <trkpt lat="40.37088" lon="-1.89044">
        <ele>1705.2</ele>
        <time>2021-10-09 15:15:45</time>
      </trkpt>
      <trkpt lat="40.37086" lon="-1.89043">
        <ele>1705.2</ele>
        <time>2021-10-09 15:15:46</time>
      </trkpt>
      <trkpt lat="40.37084" lon="-1.89042">
        <ele>1705.4</ele>
        <time>2021-10-09 15:15:47</time>
      </trkpt>
      <trkpt lat="40.37082" lon="-1.89041">
        <ele>1705.4</ele>
        <time>2021-10-09 15:15:48</time>
      </trkpt>
      <trkpt lat="40.37079" lon="-1.89039">
        <ele>1705.8</ele>
        <time>2021-10-09 15:15:49</time>
      </trkpt>
      <trkpt lat="40.37078" lon="-1.89038">
        <ele>1705.8</ele>
        <time>2021-10-09 15:15:50</time>
      </trkpt>
      <trkpt lat="40.37076" lon="-1.89036">
        <ele>1706</ele>
        <time>2021-10-09 15:15:51</time>
      </trkpt>
      <trkpt lat="40.37075" lon="-1.89035">
        <ele>1706</ele>
        <time>2021-10-09 15:15:52</time>
      </trkpt>
      <trkpt lat="40.37074" lon="-1.89035">
        <ele>1706</ele>
        <time>2021-10-09 15:15:53</time>
      </trkpt>
      <trkpt lat="40.37073" lon="-1.89034">
        <ele>1706.2</ele>
        <time>2021-10-09 15:15:54</time>
      </trkpt>
      <trkpt lat="40.37072" lon="-1.89034">
        <ele>1706.2</ele>
        <time>2021-10-09 15:15:55</time>
      </trkpt>
      <trkpt lat="40.37072" lon="-1.89034">
        <ele>1706.2</ele>
        <time>2021-10-09 15:15:56</time>
      </trkpt>
      <trkpt lat="40.37072" lon="-1.89034">
        <ele>1706.2</ele>
        <time>2021-10-09 15:15:57</time>
      </trkpt>
      <trkpt lat="40.37072" lon="-1.89034">
        <ele>1706.2</ele>
        <time>2021-10-09 15:15:58</time>
      </trkpt>
      <trkpt lat="40.37072" lon="-1.89034">
        <ele>1706.2</ele>
        <time>2021-10-09 15:15:59</time>
      </trkpt>
      <trkpt lat="40.37072" lon="-1.8903">
        <ele>1706.2</ele>
        <time>2021-10-09 15:16:00</time>
      </trkpt>
      <trkpt lat="40.37072" lon="-1.8903">
        <ele>1706</ele>
        <time>2021-10-09 15:16:01</time>
      </trkpt>
      <trkpt lat="40.37072" lon="-1.89029">
        <ele>1706</ele>
        <time>2021-10-09 15:16:02</time>
      </trkpt>
      <trkpt lat="40.37073" lon="-1.89028">
        <ele>1706</ele>
        <time>2021-10-09 15:16:03</time>
      </trkpt>
      <trkpt lat="40.37074" lon="-1.89028">
        <ele>1705.8</ele>
        <time>2021-10-09 15:16:04</time>
      </trkpt>
      <trkpt lat="40.37075" lon="-1.89028">
        <ele>1705.8</ele>
        <time>2021-10-09 15:16:05</time>
      </trkpt>
      <trkpt lat="40.37076" lon="-1.89028">
        <ele>1705.8</ele>
        <time>2021-10-09 15:16:06</time>
      </trkpt>
      <trkpt lat="40.37076" lon="-1.89029">
        <ele>1705.8</ele>
        <time>2021-10-09 15:16:07</time>
      </trkpt>
      <trkpt lat="40.37076" lon="-1.89029">
        <ele>1705.8</ele>
        <time>2021-10-09 15:16:08</time>
      </trkpt>
      <trkpt lat="40.37077" lon="-1.89029">
        <ele>1705.6</ele>
        <time>2021-10-09 15:16:09</time>
      </trkpt>
      <trkpt lat="40.37077" lon="-1.89029">
        <ele>1705.6</ele>
        <time>2021-10-09 15:16:10</time>
      </trkpt>
      <trkpt lat="40.37077" lon="-1.89029">
        <ele>1705.6</ele>
        <time>2021-10-09 15:16:11</time>
      </trkpt>
      <trkpt lat="40.37077" lon="-1.89029">
        <ele>1705.6</ele>
        <time>2021-10-09 15:16:12</time>
      </trkpt>
      <trkpt lat="40.37077" lon="-1.89029">
        <ele>1705.6</ele>
        <time>2021-10-09 15:16:13</time>
      </trkpt>
      <trkpt lat="40.37077" lon="-1.89033">
        <ele>1706</ele>
        <time>2021-10-09 15:16:14</time>
      </trkpt>
      <trkpt lat="40.37076" lon="-1.89034">
        <ele>1706</ele>
        <time>2021-10-09 15:16:15</time>
      </trkpt>
      <trkpt lat="40.37076" lon="-1.89034">
        <ele>1706</ele>
        <time>2021-10-09 15:16:16</time>
      </trkpt>
      <trkpt lat="40.37076" lon="-1.89033">
        <ele>1706</ele>
        <time>2021-10-09 15:16:17</time>
      </trkpt>
      <trkpt lat="40.37076" lon="-1.89033">
        <ele>1706</ele>
        <time>2021-10-09 15:16:18</time>
      </trkpt>
      <trkpt lat="40.37073" lon="-1.8903">
        <ele>1705.8</ele>
        <time>2021-10-09 15:16:19</time>
      </trkpt>
      <trkpt lat="40.37072" lon="-1.8903">
        <ele>1705.8</ele>
        <time>2021-10-09 15:16:20</time>
      </trkpt>
      <trkpt lat="40.37071" lon="-1.89029">
        <ele>1705.8</ele>
        <time>2021-10-09 15:16:21</time>
      </trkpt>
      <trkpt lat="40.3707" lon="-1.89027">
        <ele>1705.8</ele>
        <time>2021-10-09 15:16:22</time>
      </trkpt>
      <trkpt lat="40.37069" lon="-1.89026">
        <ele>1705.8</ele>
        <time>2021-10-09 15:16:23</time>
      </trkpt>
      <trkpt lat="40.37069" lon="-1.89023">
        <ele>1705.8</ele>
        <time>2021-10-09 15:16:24</time>
      </trkpt>
      <trkpt lat="40.37068" lon="-1.8902">
        <ele>1705.6</ele>
        <time>2021-10-09 15:16:25</time>
      </trkpt>
      <trkpt lat="40.37067" lon="-1.89017">
        <ele>1705.6</ele>
        <time>2021-10-09 15:16:26</time>
      </trkpt>
      <trkpt lat="40.37067" lon="-1.89013">
        <ele>1705.6</ele>
        <time>2021-10-09 15:16:27</time>
      </trkpt>
      <trkpt lat="40.37066" lon="-1.89007">
        <ele>1705.2</ele>
        <time>2021-10-09 15:16:28</time>
      </trkpt>
      <trkpt lat="40.37065" lon="-1.89001">
        <ele>1705.2</ele>
        <time>2021-10-09 15:16:29</time>
      </trkpt>
      <trkpt lat="40.37064" lon="-1.88994">
        <ele>1705</ele>
        <time>2021-10-09 15:16:30</time>
      </trkpt>
      <trkpt lat="40.37063" lon="-1.88986">
        <ele>1704.8</ele>
        <time>2021-10-09 15:16:36</time>
      </trkpt>
      <trkpt lat="40.37061" lon="-1.88978">
        <ele>1704.8</ele>
        <time>2021-10-09 15:16:37</time>
      </trkpt>
      <trkpt lat="40.37059" lon="-1.88969">
        <ele>1704.2</ele>
        <time>2021-10-09 15:16:38</time>
      </trkpt>
      <trkpt lat="40.37055" lon="-1.8896">
        <ele>1703.8</ele>
        <time>2021-10-09 15:16:39</time>
      </trkpt>
      <trkpt lat="40.37051" lon="-1.88951">
        <ele>1703.4</ele>
        <time>2021-10-09 15:16:40</time>
      </trkpt>
      <trkpt lat="40.37047" lon="-1.88943">
        <ele>1703</ele>
        <time>2021-10-09 15:16:41</time>
      </trkpt>
      <trkpt lat="40.37043" lon="-1.88934">
        <ele>1702.4</ele>
        <time>2021-10-09 15:16:42</time>
      </trkpt>
      <trkpt lat="40.37038" lon="-1.88926">
        <ele>1702.2</ele>
        <time>2021-10-09 15:16:43</time>
      </trkpt>
      <trkpt lat="40.37033" lon="-1.88918">
        <ele>1701.6</ele>
        <time>2021-10-09 15:16:44</time>
      </trkpt>
      <trkpt lat="40.37029" lon="-1.8891">
        <ele>1701.2</ele>
        <time>2021-10-09 15:16:45</time>
      </trkpt>
      <trkpt lat="40.37024" lon="-1.88903">
        <ele>1701</ele>
        <time>2021-10-09 15:16:46</time>
      </trkpt>
      <trkpt lat="40.37019" lon="-1.88895">
        <ele>1701</ele>
        <time>2021-10-09 15:16:47</time>
      </trkpt>
      <trkpt lat="40.37015" lon="-1.88888">
        <ele>1700.4</ele>
        <time>2021-10-09 15:16:48</time>
      </trkpt>
      <trkpt lat="40.3701" lon="-1.8888">
        <ele>1700.2</ele>
        <time>2021-10-09 15:16:49</time>
      </trkpt>
      <trkpt lat="40.37006" lon="-1.88873">
        <ele>1700</ele>
        <time>2021-10-09 15:23:57</time>
      </trkpt>
      <trkpt lat="40.37002" lon="-1.88865">
        <ele>1699.4</ele>
        <time>2021-10-09 15:23:58</time>
      </trkpt>
      <trkpt lat="40.36998" lon="-1.88858">
        <ele>1699.2</ele>
        <time>2021-10-09 15:23:59</time>
      </trkpt>
      <trkpt lat="40.36993" lon="-1.8885">
        <ele>1699.2</ele>
        <time>2021-10-09 15:24:00</time>
      </trkpt>
      <trkpt lat="40.36988" lon="-1.88843">
        <ele>1699.2</ele>
        <time>2021-10-09 15:24:01</time>
      </trkpt>
      <trkpt lat="40.36985" lon="-1.88836">
        <ele>1698.6</ele>
        <time>2021-10-09 15:24:04</time>
      </trkpt>
      <trkpt lat="40.36981" lon="-1.88829">
        <ele>1698.2</ele>
        <time>2021-10-09 15:24:05</time>
      </trkpt>
      <trkpt lat="40.36977" lon="-1.88822">
        <ele>1697.6</ele>
        <time>2021-10-09 15:24:06</time>
      </trkpt>
      <trkpt lat="40.36973" lon="-1.88815">
        <ele>1697.4</ele>
        <time>2021-10-09 15:24:07</time>
      </trkpt>
      <trkpt lat="40.36969" lon="-1.88808">
        <ele>1697</ele>
        <time>2021-10-09 15:24:08</time>
      </trkpt>
      <trkpt lat="40.36964" lon="-1.888">
        <ele>1697</ele>
        <time>2021-10-09 15:24:09</time>
      </trkpt>
      <trkpt lat="40.36959" lon="-1.88793">
        <ele>1696.2</ele>
        <time>2021-10-09 15:24:10</time>
      </trkpt>
      <trkpt lat="40.36954" lon="-1.88785">
        <ele>1696</ele>
        <time>2021-10-09 15:24:11</time>
      </trkpt>
      <trkpt lat="40.36947" lon="-1.88777">
        <ele>1696</ele>
        <time>2021-10-09 15:24:12</time>
      </trkpt>
      <trkpt lat="40.36941" lon="-1.8877">
        <ele>1695.6</ele>
        <time>2021-10-09 15:24:13</time>
      </trkpt>
      <trkpt lat="40.36935" lon="-1.88762">
        <ele>1695.2</ele>
        <time>2021-10-09 15:24:14</time>
      </trkpt>
      <trkpt lat="40.36929" lon="-1.88756">
        <ele>1695.2</ele>
        <time>2021-10-09 15:24:15</time>
      </trkpt>
      <trkpt lat="40.36923" lon="-1.88749">
        <ele>1694.8</ele>
        <time>2021-10-09 15:24:16</time>
      </trkpt>
      <trkpt lat="40.36917" lon="-1.88744">
        <ele>1694.8</ele>
        <time>2021-10-09 15:24:17</time>
      </trkpt>
      <trkpt lat="40.36911" lon="-1.88739">
        <ele>1694.4</ele>
        <time>2021-10-09 15:24:18</time>
      </trkpt>
      <trkpt lat="40.36905" lon="-1.88734">
        <ele>1694.4</ele>
        <time>2021-10-09 15:24:19</time>
      </trkpt>
      <trkpt lat="40.369" lon="-1.88731">
        <ele>1693.8</ele>
        <time>2021-10-09 15:24:20</time>
      </trkpt>
      <trkpt lat="40.36895" lon="-1.88728">
        <ele>1693.4</ele>
        <time>2021-10-09 15:24:21</time>
      </trkpt>
      <trkpt lat="40.36891" lon="-1.88724">
        <ele>1693.4</ele>
        <time>2021-10-09 15:24:22</time>
      </trkpt>
      <trkpt lat="40.36887" lon="-1.8872">
        <ele>1693.4</ele>
        <time>2021-10-09 15:24:23</time>
      </trkpt>
      <trkpt lat="40.36883" lon="-1.88717">
        <ele>1693.4</ele>
        <time>2021-10-09 15:24:24</time>
      </trkpt>
      <trkpt lat="40.36879" lon="-1.88715">
        <ele>1693.8</ele>
        <time>2021-10-09 15:24:25</time>
      </trkpt>
      <trkpt lat="40.36875" lon="-1.88713">
        <ele>1693.8</ele>
        <time>2021-10-09 15:24:26</time>
      </trkpt>
      <trkpt lat="40.36871" lon="-1.88711">
        <ele>1694</ele>
        <time>2021-10-09 15:24:27</time>
      </trkpt>
      <trkpt lat="40.36867" lon="-1.8871">
        <ele>1694</ele>
        <time>2021-10-09 15:24:28</time>
      </trkpt>
      <trkpt lat="40.36862" lon="-1.88708">
        <ele>1694</ele>
        <time>2021-10-09 15:24:29</time>
      </trkpt>
      <trkpt lat="40.36858" lon="-1.88706">
        <ele>1694.2</ele>
        <time>2021-10-09 15:24:30</time>
      </trkpt>
      <trkpt lat="40.36854" lon="-1.88705">
        <ele>1694.2</ele>
        <time>2021-10-09 15:24:31</time>
      </trkpt>
      <trkpt lat="40.36849" lon="-1.88703">
        <ele>1694.6</ele>
        <time>2021-10-09 15:24:32</time>
      </trkpt>
      <trkpt lat="40.36845" lon="-1.88701">
        <ele>1694.6</ele>
        <time>2021-10-09 15:24:33</time>
      </trkpt>
      <trkpt lat="40.3684" lon="-1.88699">
        <ele>1694.6</ele>
        <time>2021-10-09 15:24:34</time>
      </trkpt>
      <trkpt lat="40.36836" lon="-1.88697">
        <ele>1694.8</ele>
        <time>2021-10-09 15:24:35</time>
      </trkpt>
      <trkpt lat="40.36832" lon="-1.88695">
        <ele>1694.8</ele>
        <time>2021-10-09 15:24:36</time>
      </trkpt>
      <trkpt lat="40.36828" lon="-1.88693">
        <ele>1694.8</ele>
        <time>2021-10-09 15:24:37</time>
      </trkpt>
      <trkpt lat="40.36824" lon="-1.88693">
        <ele>1694.8</ele>
        <time>2021-10-09 15:24:38</time>
      </trkpt>
      <trkpt lat="40.36821" lon="-1.88691">
        <ele>1695.2</ele>
        <time>2021-10-09 15:24:39</time>
      </trkpt>
      <trkpt lat="40.36818" lon="-1.8869">
        <ele>1695.2</ele>
        <time>2021-10-09 15:24:40</time>
      </trkpt>
      <trkpt lat="40.36815" lon="-1.88689">
        <ele>1695.4</ele>
        <time>2021-10-09 15:24:41</time>
      </trkpt>
      <trkpt lat="40.36811" lon="-1.88688">
        <ele>1695.4</ele>
        <time>2021-10-09 15:24:42</time>
      </trkpt>
      <trkpt lat="40.36808" lon="-1.88687">
        <ele>1695.4</ele>
        <time>2021-10-09 15:24:43</time>
      </trkpt>
      <trkpt lat="40.36805" lon="-1.88686">
        <ele>1695.8</ele>
        <time>2021-10-09 15:24:44</time>
      </trkpt>
      <trkpt lat="40.36801" lon="-1.88684">
        <ele>1695.8</ele>
        <time>2021-10-09 15:24:45</time>
      </trkpt>
      <trkpt lat="40.36797" lon="-1.88683">
        <ele>1695.8</ele>
        <time>2021-10-09 15:24:46</time>
      </trkpt>
      <trkpt lat="40.36794" lon="-1.88682">
        <ele>1696.2</ele>
        <time>2021-10-09 15:24:47</time>
      </trkpt>
      <trkpt lat="40.36791" lon="-1.88681">
        <ele>1696.2</ele>
        <time>2021-10-09 15:24:48</time>
      </trkpt>
      <trkpt lat="40.36787" lon="-1.8868">
        <ele>1696.2</ele>
        <time>2021-10-09 15:24:49</time>
      </trkpt>
      <trkpt lat="40.36784" lon="-1.88679">
        <ele>1696.2</ele>
        <time>2021-10-09 15:24:50</time>
      </trkpt>
      <trkpt lat="40.36781" lon="-1.88678">
        <ele>1696.2</ele>
        <time>2021-10-09 15:24:51</time>
      </trkpt>
      <trkpt lat="40.36777" lon="-1.88677">
        <ele>1696.4</ele>
        <time>2021-10-09 15:24:52</time>
      </trkpt>
      <trkpt lat="40.36773" lon="-1.88676">
        <ele>1696.4</ele>
        <time>2021-10-09 15:24:53</time>
      </trkpt>
      <trkpt lat="40.3677" lon="-1.88675">
        <ele>1696.8</ele>
        <time>2021-10-09 15:24:54</time>
      </trkpt>
      <trkpt lat="40.36767" lon="-1.88674">
        <ele>1696.8</ele>
        <time>2021-10-09 15:24:55</time>
      </trkpt>
      <trkpt lat="40.36764" lon="-1.88673">
        <ele>1697</ele>
        <time>2021-10-09 15:24:56</time>
      </trkpt>
      <trkpt lat="40.3676" lon="-1.88672">
        <ele>1697</ele>
        <time>2021-10-09 15:24:57</time>
      </trkpt>
      <trkpt lat="40.36757" lon="-1.88671">
        <ele>1697</ele>
        <time>2021-10-09 15:24:58</time>
      </trkpt>
      <trkpt lat="40.36754" lon="-1.8867">
        <ele>1697.2</ele>
        <time>2021-10-09 15:24:59</time>
      </trkpt>
      <trkpt lat="40.3675" lon="-1.88669">
        <ele>1697.2</ele>
        <time>2021-10-09 15:25:00</time>
      </trkpt>
      <trkpt lat="40.36747" lon="-1.88667">
        <ele>1697.6</ele>
        <time>2021-10-09 15:25:01</time>
      </trkpt>
      <trkpt lat="40.36744" lon="-1.88666">
        <ele>1697.6</ele>
        <time>2021-10-09 15:25:02</time>
      </trkpt>
      <trkpt lat="40.36741" lon="-1.88665">
        <ele>1697.8</ele>
        <time>2021-10-09 15:25:03</time>
      </trkpt>
      <trkpt lat="40.36738" lon="-1.88665">
        <ele>1698</ele>
        <time>2021-10-09 15:25:04</time>
      </trkpt>
      <trkpt lat="40.36736" lon="-1.88664">
        <ele>1698</ele>
        <time>2021-10-09 15:25:05</time>
      </trkpt>
      <trkpt lat="40.36733" lon="-1.88663">
        <ele>1698.4</ele>
        <time>2021-10-09 15:25:06</time>
      </trkpt>
      <trkpt lat="40.36731" lon="-1.88662">
        <ele>1698.6</ele>
        <time>2021-10-09 15:25:07</time>
      </trkpt>
      <trkpt lat="40.36728" lon="-1.88661">
        <ele>1698.6</ele>
        <time>2021-10-09 15:25:08</time>
      </trkpt>
      <trkpt lat="40.36726" lon="-1.88661">
        <ele>1698.8</ele>
        <time>2021-10-09 15:25:09</time>
      </trkpt>
      <trkpt lat="40.36724" lon="-1.8866">
        <ele>1698.8</ele>
        <time>2021-10-09 15:25:10</time>
      </trkpt>
      <trkpt lat="40.36721" lon="-1.8866">
        <ele>1699</ele>
        <time>2021-10-09 15:25:11</time>
      </trkpt>
      <trkpt lat="40.36719" lon="-1.88659">
        <ele>1699</ele>
        <time>2021-10-09 15:25:12</time>
      </trkpt>
      <trkpt lat="40.36717" lon="-1.88659">
        <ele>1699.4</ele>
        <time>2021-10-09 15:25:13</time>
      </trkpt>
      <trkpt lat="40.36714" lon="-1.88658">
        <ele>1699.4</ele>
        <time>2021-10-09 15:25:14</time>
      </trkpt>
      <trkpt lat="40.36711" lon="-1.88658">
        <ele>1699.6</ele>
        <time>2021-10-09 15:25:15</time>
      </trkpt>
      <trkpt lat="40.36709" lon="-1.88658">
        <ele>1699.8</ele>
        <time>2021-10-09 15:25:16</time>
      </trkpt>
      <trkpt lat="40.36706" lon="-1.88657">
        <ele>1699.8</ele>
        <time>2021-10-09 15:25:17</time>
      </trkpt>
      <trkpt lat="40.36703" lon="-1.88656">
        <ele>1700.2</ele>
        <time>2021-10-09 15:25:18</time>
      </trkpt>
      <trkpt lat="40.36701" lon="-1.88655">
        <ele>1700.2</ele>
        <time>2021-10-09 15:25:19</time>
      </trkpt>
      <trkpt lat="40.36698" lon="-1.88654">
        <ele>1700.4</ele>
        <time>2021-10-09 15:25:20</time>
      </trkpt>
      <trkpt lat="40.36696" lon="-1.88652">
        <ele>1700.4</ele>
        <time>2021-10-09 15:25:21</time>
      </trkpt>
      <trkpt lat="40.36694" lon="-1.88651">
        <ele>1700.6</ele>
        <time>2021-10-09 15:25:22</time>
      </trkpt>
      <trkpt lat="40.36691" lon="-1.8865">
        <ele>1700.6</ele>
        <time>2021-10-09 15:25:23</time>
      </trkpt>
      <trkpt lat="40.36689" lon="-1.88649">
        <ele>1701.2</ele>
        <time>2021-10-09 15:25:24</time>
      </trkpt>
      <trkpt lat="40.36687" lon="-1.88648">
        <ele>1701.2</ele>
        <time>2021-10-09 15:25:25</time>
      </trkpt>
      <trkpt lat="40.36684" lon="-1.88646">
        <ele>1701.4</ele>
        <time>2021-10-09 15:25:26</time>
      </trkpt>
      <trkpt lat="40.36682" lon="-1.88645">
        <ele>1701.4</ele>
        <time>2021-10-09 15:25:27</time>
      </trkpt>
      <trkpt lat="40.3668" lon="-1.88644">
        <ele>1701.4</ele>
        <time>2021-10-09 15:25:28</time>
      </trkpt>
      <trkpt lat="40.36677" lon="-1.88643">
        <ele>1701.8</ele>
        <time>2021-10-09 15:25:29</time>
      </trkpt>
      <trkpt lat="40.36674" lon="-1.88643">
        <ele>1702</ele>
        <time>2021-10-09 15:25:30</time>
      </trkpt>
      <trkpt lat="40.36672" lon="-1.88642">
        <ele>1702.2</ele>
        <time>2021-10-09 15:25:31</time>
      </trkpt>
      <trkpt lat="40.3667" lon="-1.88642">
        <ele>1702.2</ele>
        <time>2021-10-09 15:25:32</time>
      </trkpt>
      <trkpt lat="40.36667" lon="-1.88641">
        <ele>1702.4</ele>
        <time>2021-10-09 15:25:33</time>
      </trkpt>
      <trkpt lat="40.36665" lon="-1.8864">
        <ele>1702.4</ele>
        <time>2021-10-09 15:25:34</time>
      </trkpt>
      <trkpt lat="40.36662" lon="-1.88639">
        <ele>1702.6</ele>
        <time>2021-10-09 15:25:35</time>
      </trkpt>
      <trkpt lat="40.3666" lon="-1.88638">
        <ele>1702.6</ele>
        <time>2021-10-09 15:25:36</time>
      </trkpt>
      <trkpt lat="40.36658" lon="-1.88637">
        <ele>1702.6</ele>
        <time>2021-10-09 15:25:37</time>
      </trkpt>
      <trkpt lat="40.36655" lon="-1.88636">
        <ele>1702.6</ele>
        <time>2021-10-09 15:25:38</time>
      </trkpt>
      <trkpt lat="40.36652" lon="-1.88636">
        <ele>1702.6</ele>
        <time>2021-10-09 15:25:39</time>
      </trkpt>
      <trkpt lat="40.36649" lon="-1.88636">
        <ele>1702.6</ele>
        <time>2021-10-09 15:25:40</time>
      </trkpt>
      <trkpt lat="40.36646" lon="-1.88635">
        <ele>1702.6</ele>
        <time>2021-10-09 15:25:41</time>
      </trkpt>
      <trkpt lat="40.36642" lon="-1.88635">
        <ele>1702.6</ele>
        <time>2021-10-09 15:25:42</time>
      </trkpt>
      <trkpt lat="40.36638" lon="-1.88635">
        <ele>1702.6</ele>
        <time>2021-10-09 15:25:43</time>
      </trkpt>
      <trkpt lat="40.36634" lon="-1.88635">
        <ele>1702.6</ele>
        <time>2021-10-09 15:25:44</time>
      </trkpt>
      <trkpt lat="40.3663" lon="-1.88636">
        <ele>1702.6</ele>
        <time>2021-10-09 15:25:45</time>
      </trkpt>
      <trkpt lat="40.36626" lon="-1.88637">
        <ele>1702.4</ele>
        <time>2021-10-09 15:25:46</time>
      </trkpt>
      <trkpt lat="40.36621" lon="-1.88638">
        <ele>1702.4</ele>
        <time>2021-10-09 15:25:47</time>
      </trkpt>
      <trkpt lat="40.36616" lon="-1.88638">
        <ele>1702.4</ele>
        <time>2021-10-09 15:25:48</time>
      </trkpt>
      <trkpt lat="40.36612" lon="-1.88639">
        <ele>1702.2</ele>
        <time>2021-10-09 15:25:49</time>
      </trkpt>
      <trkpt lat="40.36607" lon="-1.8864">
        <ele>1702.2</ele>
        <time>2021-10-09 15:25:50</time>
      </trkpt>
      <trkpt lat="40.36602" lon="-1.8864">
        <ele>1702.2</ele>
        <time>2021-10-09 15:25:51</time>
      </trkpt>
      <trkpt lat="40.36598" lon="-1.8864">
        <ele>1702.2</ele>
        <time>2021-10-09 15:25:52</time>
      </trkpt>
      <trkpt lat="40.36593" lon="-1.88641">
        <ele>1701.2</ele>
        <time>2021-10-09 15:25:53</time>
      </trkpt>
      <trkpt lat="40.36589" lon="-1.88643">
        <ele>1698.6</ele>
        <time>2021-10-09 15:25:54</time>
      </trkpt>
      <trkpt lat="40.36584" lon="-1.88645">
        <ele>1699.4</ele>
        <time>2021-10-09 15:25:55</time>
      </trkpt>
      <trkpt lat="40.3658" lon="-1.88646">
        <ele>1700</ele>
        <time>2021-10-09 15:25:56</time>
      </trkpt>
      <trkpt lat="40.36575" lon="-1.88648">
        <ele>1700.4</ele>
        <time>2021-10-09 15:25:57</time>
      </trkpt>
      <trkpt lat="40.36575" lon="-1.88648">
        <ele>1700.8</ele>
        <time>2021-10-09 15:25:58</time>
      </trkpt>
      <trkpt lat="40.36571" lon="-1.8865">
        <ele>1700.8</ele>
        <time>2021-10-09 15:25:59</time>
      </trkpt>
      <trkpt lat="40.36566" lon="-1.88652">
        <ele>1701</ele>
        <time>2021-10-09 15:26:00</time>
      </trkpt>
      <trkpt lat="40.36561" lon="-1.88656">
        <ele>1701</ele>
        <time>2021-10-09 15:26:01</time>
      </trkpt>
      <trkpt lat="40.36557" lon="-1.88659">
        <ele>1701</ele>
        <time>2021-10-09 15:26:02</time>
      </trkpt>
      <trkpt lat="40.36553" lon="-1.88663">
        <ele>1701</ele>
        <time>2021-10-09 15:26:03</time>
      </trkpt>
      <trkpt lat="40.36549" lon="-1.88667">
        <ele>1701</ele>
        <time>2021-10-09 15:26:04</time>
      </trkpt>
      <trkpt lat="40.36545" lon="-1.88671">
        <ele>1701</ele>
        <time>2021-10-09 15:26:05</time>
      </trkpt>
      <trkpt lat="40.3654" lon="-1.88673">
        <ele>1701</ele>
        <time>2021-10-09 15:26:06</time>
      </trkpt>
      <trkpt lat="40.36535" lon="-1.88675">
        <ele>1701</ele>
        <time>2021-10-09 15:26:07</time>
      </trkpt>
      <trkpt lat="40.36531" lon="-1.88676">
        <ele>1701</ele>
        <time>2021-10-09 15:26:08</time>
      </trkpt>
      <trkpt lat="40.36528" lon="-1.88676">
        <ele>1700.8</ele>
        <time>2021-10-09 15:26:09</time>
      </trkpt>
      <trkpt lat="40.36525" lon="-1.88677">
        <ele>1700.4</ele>
        <time>2021-10-09 15:26:10</time>
      </trkpt>
      <trkpt lat="40.36524" lon="-1.88676">
        <ele>1700</ele>
        <time>2021-10-09 15:26:11</time>
      </trkpt>
      <trkpt lat="40.36524" lon="-1.88676">
        <ele>1699.8</ele>
        <time>2021-10-09 15:26:12</time>
      </trkpt>
      <trkpt lat="40.36524" lon="-1.88676">
        <ele>1699.6</ele>
        <time>2021-10-09 15:26:13</time>
      </trkpt>
      <trkpt lat="40.36523" lon="-1.88676">
        <ele>1699.6</ele>
        <time>2021-10-09 15:26:14</time>
      </trkpt>
      <trkpt lat="40.36522" lon="-1.88676">
        <ele>1698.8</ele>
        <time>2021-10-09 15:26:15</time>
      </trkpt>
      <trkpt lat="40.36522" lon="-1.88676">
        <ele>1698.8</ele>
        <time>2021-10-09 15:26:16</time>
      </trkpt>
      <trkpt lat="40.36521" lon="-1.88676">
        <ele>1698.6</ele>
        <time>2021-10-09 15:26:17</time>
      </trkpt>
      <trkpt lat="40.3652" lon="-1.88676">
        <ele>1698.6</ele>
        <time>2021-10-09 15:26:18</time>
      </trkpt>
      <trkpt lat="40.36518" lon="-1.88676">
        <ele>1698.6</ele>
        <time>2021-10-09 15:26:19</time>
      </trkpt>
      <trkpt lat="40.36517" lon="-1.88676">
        <ele>1698.6</ele>
        <time>2021-10-09 15:26:20</time>
      </trkpt>
      <trkpt lat="40.36517" lon="-1.88675">
        <ele>1698.6</ele>
        <time>2021-10-09 15:26:21</time>
      </trkpt>
      <trkpt lat="40.36516" lon="-1.88675">
        <ele>1698.6</ele>
        <time>2021-10-09 15:26:22</time>
      </trkpt>
      <trkpt lat="40.36516" lon="-1.88676">
        <ele>1698.6</ele>
        <time>2021-10-09 15:26:23</time>
      </trkpt>
      <trkpt lat="40.36516" lon="-1.88676">
        <ele>1698.4</ele>
        <time>2021-10-09 15:26:24</time>
      </trkpt>
      <trkpt lat="40.36517" lon="-1.88673">
        <ele>1698</ele>
        <time>2021-10-09 15:26:25</time>
      </trkpt>
      <trkpt lat="40.36517" lon="-1.88673">
        <ele>1698</ele>
        <time>2021-10-09 15:26:26</time>
      </trkpt>
      <trkpt lat="40.36502" lon="-1.88668">
        <ele>1696.8</ele>
        <time>2021-10-09 15:26:27</time>
      </trkpt>
      <trkpt lat="40.36498" lon="-1.88665">
        <ele>1696.4</ele>
        <time>2021-10-09 15:26:28</time>
      </trkpt>
      <trkpt lat="40.36492" lon="-1.88662">
        <ele>1696</ele>
        <time>2021-10-09 15:26:29</time>
      </trkpt>
      <trkpt lat="40.36487" lon="-1.88658">
        <ele>1695.8</ele>
        <time>2021-10-09 15:26:30</time>
      </trkpt>
      <trkpt lat="40.36481" lon="-1.88655">
        <ele>1695</ele>
        <time>2021-10-09 15:26:31</time>
      </trkpt>
      <trkpt lat="40.36474" lon="-1.88651">
        <ele>1696</ele>
        <time>2021-10-09 15:26:32</time>
      </trkpt>
      <trkpt lat="40.36467" lon="-1.88646">
        <ele>1695</ele>
        <time>2021-10-09 15:26:33</time>
      </trkpt>
      <trkpt lat="40.36459" lon="-1.88642">
        <ele>1694.2</ele>
        <time>2021-10-09 15:26:34</time>
      </trkpt>
      <trkpt lat="40.36451" lon="-1.88639">
        <ele>1693.6</ele>
        <time>2021-10-09 15:26:35</time>
      </trkpt>
      <trkpt lat="40.36443" lon="-1.88633">
        <ele>1692.6</ele>
        <time>2021-10-09 15:26:36</time>
      </trkpt>
      <trkpt lat="40.36436" lon="-1.88628">
        <ele>1692.4</ele>
        <time>2021-10-09 15:26:37</time>
      </trkpt>
      <trkpt lat="40.36428" lon="-1.88622">
        <ele>1691.6</ele>
        <time>2021-10-09 15:26:38</time>
      </trkpt>
      <trkpt lat="40.3642" lon="-1.88615">
        <ele>1691</ele>
        <time>2021-10-09 15:26:39</time>
      </trkpt>
      <trkpt lat="40.36413" lon="-1.88608">
        <ele>1690.4</ele>
        <time>2021-10-09 15:26:40</time>
      </trkpt>
      <trkpt lat="40.36406" lon="-1.886">
        <ele>1689.6</ele>
        <time>2021-10-09 15:26:41</time>
      </trkpt>
      <trkpt lat="40.364" lon="-1.88591">
        <ele>1689</ele>
        <time>2021-10-09 15:26:42</time>
      </trkpt>
      <trkpt lat="40.36394" lon="-1.88585">
        <ele>1688.4</ele>
        <time>2021-10-09 15:26:43</time>
      </trkpt>
      <trkpt lat="40.36389" lon="-1.88577">
        <ele>1687.8</ele>
        <time>2021-10-09 15:26:44</time>
      </trkpt>
      <trkpt lat="40.36389" lon="-1.88577">
        <ele>1687</ele>
        <time>2021-10-09 15:26:45</time>
      </trkpt>
      <trkpt lat="40.36378" lon="-1.88561">
        <ele>1686.6</ele>
        <time>2021-10-09 15:27:03</time>
      </trkpt>
      <trkpt lat="40.36374" lon="-1.88549">
        <ele>1686</ele>
        <time>2021-10-09 15:27:04</time>
      </trkpt>
      <trkpt lat="40.36371" lon="-1.88537">
        <ele>1685.2</ele>
        <time>2021-10-09 15:27:05</time>
      </trkpt>
      <trkpt lat="40.36368" lon="-1.88525">
        <ele>1684.6</ele>
        <time>2021-10-09 15:27:06</time>
      </trkpt>
      <trkpt lat="40.36367" lon="-1.88511">
        <ele>1683.6</ele>
        <time>2021-10-09 15:27:07</time>
      </trkpt>
      <trkpt lat="40.36365" lon="-1.88498">
        <ele>1682.8</ele>
        <time>2021-10-09 15:27:08</time>
      </trkpt>
      <trkpt lat="40.36363" lon="-1.88483">
        <ele>1682.2</ele>
        <time>2021-10-09 15:27:09</time>
      </trkpt>
      <trkpt lat="40.36362" lon="-1.88468">
        <ele>1681.2</ele>
        <time>2021-10-09 15:27:10</time>
      </trkpt>
      <trkpt lat="40.3636" lon="-1.88455">
        <ele>1680</ele>
        <time>2021-10-09 15:27:11</time>
      </trkpt>
      <trkpt lat="40.36359" lon="-1.88442">
        <ele>1678.8</ele>
        <time>2021-10-09 15:27:12</time>
      </trkpt>
      <trkpt lat="40.36358" lon="-1.8843">
        <ele>1677.8</ele>
        <time>2021-10-09 15:34:48</time>
      </trkpt>
      <trkpt lat="40.36356" lon="-1.8842">
        <ele>1677.2</ele>
        <time>2021-10-09 15:34:49</time>
      </trkpt>
      <trkpt lat="40.36354" lon="-1.8841">
        <ele>1675.8</ele>
        <time>2021-10-09 15:34:50</time>
      </trkpt>
      <trkpt lat="40.36351" lon="-1.88401">
        <ele>1674.8</ele>
        <time>2021-10-09 15:34:51</time>
      </trkpt>
      <trkpt lat="40.36347" lon="-1.88393">
        <ele>1674</ele>
        <time>2021-10-09 15:34:52</time>
      </trkpt>
      <trkpt lat="40.36342" lon="-1.88385">
        <ele>1673</ele>
        <time>2021-10-09 15:34:53</time>
      </trkpt>
      <trkpt lat="40.36336" lon="-1.88378">
        <ele>1672.2</ele>
        <time>2021-10-09 15:34:54</time>
      </trkpt>
      <trkpt lat="40.36329" lon="-1.88373">
        <ele>1671.4</ele>
        <time>2021-10-09 15:34:55</time>
      </trkpt>
      <trkpt lat="40.36322" lon="-1.88368">
        <ele>1670.6</ele>
        <time>2021-10-09 15:34:56</time>
      </trkpt>
      <trkpt lat="40.36314" lon="-1.88363">
        <ele>1670.2</ele>
        <time>2021-10-09 15:34:57</time>
      </trkpt>
      <trkpt lat="40.36307" lon="-1.88358">
        <ele>1669.6</ele>
        <time>2021-10-09 15:34:58</time>
      </trkpt>
      <trkpt lat="40.363" lon="-1.88353">
        <ele>1669</ele>
        <time>2021-10-09 15:34:59</time>
      </trkpt>
      <trkpt lat="40.36294" lon="-1.88348">
        <ele>1669</ele>
        <time>2021-10-09 15:35:00</time>
      </trkpt>
      <trkpt lat="40.36287" lon="-1.88345">
        <ele>1668.8</ele>
        <time>2021-10-09 15:35:01</time>
      </trkpt>
      <trkpt lat="40.36281" lon="-1.88341">
        <ele>1668.8</ele>
        <time>2021-10-09 15:35:02</time>
      </trkpt>
      <trkpt lat="40.36276" lon="-1.88337">
        <ele>1668.6</ele>
        <time>2021-10-09 15:35:03</time>
      </trkpt>
      <trkpt lat="40.36271" lon="-1.88333">
        <ele>1668.6</ele>
        <time>2021-10-09 15:35:04</time>
      </trkpt>
      <trkpt lat="40.36266" lon="-1.8833">
        <ele>1668.8</ele>
        <time>2021-10-09 15:35:05</time>
      </trkpt>
      <trkpt lat="40.36262" lon="-1.88327">
        <ele>1668.8</ele>
        <time>2021-10-09 15:35:06</time>
      </trkpt>
      <trkpt lat="40.36258" lon="-1.88325">
        <ele>1669</ele>
        <time>2021-10-09 15:35:07</time>
      </trkpt>
      <trkpt lat="40.36254" lon="-1.88323">
        <ele>1669</ele>
        <time>2021-10-09 15:35:08</time>
      </trkpt>
      <trkpt lat="40.3625" lon="-1.8832">
        <ele>1669.4</ele>
        <time>2021-10-09 15:35:09</time>
      </trkpt>
      <trkpt lat="40.36246" lon="-1.88317">
        <ele>1669.6</ele>
        <time>2021-10-09 15:35:10</time>
      </trkpt>
      <trkpt lat="40.36243" lon="-1.88314">
        <ele>1669.8</ele>
        <time>2021-10-09 15:35:11</time>
      </trkpt>
      <trkpt lat="40.36239" lon="-1.88312">
        <ele>1670</ele>
        <time>2021-10-09 15:35:12</time>
      </trkpt>
      <trkpt lat="40.36235" lon="-1.88309">
        <ele>1670</ele>
        <time>2021-10-09 15:35:13</time>
      </trkpt>
      <trkpt lat="40.36231" lon="-1.88307">
        <ele>1670.4</ele>
        <time>2021-10-09 15:35:14</time>
      </trkpt>
      <trkpt lat="40.36227" lon="-1.88305">
        <ele>1670.4</ele>
        <time>2021-10-09 15:35:15</time>
      </trkpt>
      <trkpt lat="40.36224" lon="-1.88304">
        <ele>1670.8</ele>
        <time>2021-10-09 15:35:16</time>
      </trkpt>
      <trkpt lat="40.3622" lon="-1.88302">
        <ele>1670.8</ele>
        <time>2021-10-09 15:35:17</time>
      </trkpt>
      <trkpt lat="40.36216" lon="-1.88301">
        <ele>1671.2</ele>
        <time>2021-10-09 15:35:18</time>
      </trkpt>
      <trkpt lat="40.36212" lon="-1.88299">
        <ele>1671.2</ele>
        <time>2021-10-09 15:35:19</time>
      </trkpt>
      <trkpt lat="40.36209" lon="-1.88298">
        <ele>1671.6</ele>
        <time>2021-10-09 15:35:20</time>
      </trkpt>
      <trkpt lat="40.36205" lon="-1.88297">
        <ele>1671.6</ele>
        <time>2021-10-09 15:35:21</time>
      </trkpt>
      <trkpt lat="40.36202" lon="-1.88295">
        <ele>1671.8</ele>
        <time>2021-10-09 15:35:22</time>
      </trkpt>
      <trkpt lat="40.36198" lon="-1.88294">
        <ele>1671.8</ele>
        <time>2021-10-09 15:35:23</time>
      </trkpt>
      <trkpt lat="40.36194" lon="-1.88293">
        <ele>1672</ele>
        <time>2021-10-09 15:35:24</time>
      </trkpt>
      <trkpt lat="40.3619" lon="-1.88291">
        <ele>1672</ele>
        <time>2021-10-09 15:35:25</time>
      </trkpt>
      <trkpt lat="40.36187" lon="-1.8829">
        <ele>1672.4</ele>
        <time>2021-10-09 15:35:26</time>
      </trkpt>
      <trkpt lat="40.36183" lon="-1.88289">
        <ele>1672.6</ele>
        <time>2021-10-09 15:35:27</time>
      </trkpt>
      <trkpt lat="40.3618" lon="-1.88288">
        <ele>1672.8</ele>
        <time>2021-10-09 15:35:28</time>
      </trkpt>
      <trkpt lat="40.36176" lon="-1.88286">
        <ele>1672.8</ele>
        <time>2021-10-09 15:35:29</time>
      </trkpt>
      <trkpt lat="40.36173" lon="-1.88285">
        <ele>1673</ele>
        <time>2021-10-09 15:35:30</time>
      </trkpt>
      <trkpt lat="40.36169" lon="-1.88284">
        <ele>1673</ele>
        <time>2021-10-09 15:35:31</time>
      </trkpt>
      <trkpt lat="40.36165" lon="-1.88283">
        <ele>1673.4</ele>
        <time>2021-10-09 15:35:32</time>
      </trkpt>
      <trkpt lat="40.3616" lon="-1.88281">
        <ele>1673.4</ele>
        <time>2021-10-09 15:35:33</time>
      </trkpt>
      <trkpt lat="40.36156" lon="-1.8828">
        <ele>1673.6</ele>
        <time>2021-10-09 15:35:34</time>
      </trkpt>
      <trkpt lat="40.36152" lon="-1.88279">
        <ele>1673.6</ele>
        <time>2021-10-09 15:35:35</time>
      </trkpt>
      <trkpt lat="40.36148" lon="-1.88278">
        <ele>1673.6</ele>
        <time>2021-10-09 15:35:36</time>
      </trkpt>
      <trkpt lat="40.36144" lon="-1.88277">
        <ele>1673.6</ele>
        <time>2021-10-09 15:35:37</time>
      </trkpt>
      <trkpt lat="40.3614" lon="-1.88276">
        <ele>1673.6</ele>
        <time>2021-10-09 15:35:38</time>
      </trkpt>
      <trkpt lat="40.36136" lon="-1.88275">
        <ele>1673.8</ele>
        <time>2021-10-09 15:35:39</time>
      </trkpt>
      <trkpt lat="40.36132" lon="-1.88275">
        <ele>1673.8</ele>
        <time>2021-10-09 15:35:40</time>
      </trkpt>
      <trkpt lat="40.36128" lon="-1.88275">
        <ele>1673.8</ele>
        <time>2021-10-09 15:35:41</time>
      </trkpt>
      <trkpt lat="40.36124" lon="-1.88275">
        <ele>1673.6</ele>
        <time>2021-10-09 15:35:42</time>
      </trkpt>
      <trkpt lat="40.3612" lon="-1.88275">
        <ele>1673.6</ele>
        <time>2021-10-09 15:35:43</time>
      </trkpt>
      <trkpt lat="40.36116" lon="-1.88275">
        <ele>1673.6</ele>
        <time>2021-10-09 15:35:44</time>
      </trkpt>
      <trkpt lat="40.36112" lon="-1.88276">
        <ele>1673.4</ele>
        <time>2021-10-09 15:35:45</time>
      </trkpt>
      <trkpt lat="40.36107" lon="-1.88276">
        <ele>1673.4</ele>
        <time>2021-10-09 15:35:46</time>
      </trkpt>
      <trkpt lat="40.36103" lon="-1.88277">
        <ele>1673</ele>
        <time>2021-10-09 15:35:47</time>
      </trkpt>
      <trkpt lat="40.36099" lon="-1.88278">
        <ele>1673</ele>
        <time>2021-10-09 15:35:48</time>
      </trkpt>
      <trkpt lat="40.36094" lon="-1.88279">
        <ele>1673</ele>
        <time>2021-10-09 15:35:49</time>
      </trkpt>
      <trkpt lat="40.3609" lon="-1.8828">
        <ele>1673</ele>
        <time>2021-10-09 15:35:50</time>
      </trkpt>
      <trkpt lat="40.36085" lon="-1.8828">
        <ele>1673</ele>
        <time>2021-10-09 15:35:51</time>
      </trkpt>
      <trkpt lat="40.3608" lon="-1.88281">
        <ele>1673</ele>
        <time>2021-10-09 15:35:52</time>
      </trkpt>
      <trkpt lat="40.36075" lon="-1.88281">
        <ele>1673</ele>
        <time>2021-10-09 15:35:53</time>
      </trkpt>
      <trkpt lat="40.3607" lon="-1.88281">
        <ele>1672.8</ele>
        <time>2021-10-09 15:35:54</time>
      </trkpt>
      <trkpt lat="40.36065" lon="-1.88281">
        <ele>1672.6</ele>
        <time>2021-10-09 15:35:55</time>
      </trkpt>
      <trkpt lat="40.3606" lon="-1.88281">
        <ele>1672.6</ele>
        <time>2021-10-09 15:35:56</time>
      </trkpt>
      <trkpt lat="40.36055" lon="-1.88281">
        <ele>1672.6</ele>
        <time>2021-10-09 15:35:57</time>
      </trkpt>
      <trkpt lat="40.36049" lon="-1.88282">
        <ele>1672.6</ele>
        <time>2021-10-09 15:35:58</time>
      </trkpt>
      <trkpt lat="40.36044" lon="-1.88282">
        <ele>1672.2</ele>
        <time>2021-10-09 15:35:59</time>
      </trkpt>
      <trkpt lat="40.36038" lon="-1.88282">
        <ele>1672.2</ele>
        <time>2021-10-09 15:36:00</time>
      </trkpt>
      <trkpt lat="40.36031" lon="-1.88283">
        <ele>1672.2</ele>
        <time>2021-10-09 15:36:01</time>
      </trkpt>
      <trkpt lat="40.36025" lon="-1.88283">
        <ele>1671.8</ele>
        <time>2021-10-09 15:36:02</time>
      </trkpt>
      <trkpt lat="40.36019" lon="-1.88283">
        <ele>1671.8</ele>
        <time>2021-10-09 15:36:03</time>
      </trkpt>
      <trkpt lat="40.36012" lon="-1.88284">
        <ele>1671</ele>
        <time>2021-10-09 15:36:04</time>
      </trkpt>
      <trkpt lat="40.36005" lon="-1.88284">
        <ele>1671</ele>
        <time>2021-10-09 15:36:05</time>
      </trkpt>
      <trkpt lat="40.35998" lon="-1.88285">
        <ele>1670.6</ele>
        <time>2021-10-09 15:36:06</time>
      </trkpt>
      <trkpt lat="40.35991" lon="-1.88287">
        <ele>1670.6</ele>
        <time>2021-10-09 15:36:07</time>
      </trkpt>
      <trkpt lat="40.35983" lon="-1.88288">
        <ele>1670.2</ele>
        <time>2021-10-09 15:36:08</time>
      </trkpt>
      <trkpt lat="40.35975" lon="-1.8829">
        <ele>1669.6</ele>
        <time>2021-10-09 15:36:09</time>
      </trkpt>
      <trkpt lat="40.35967" lon="-1.88293">
        <ele>1669.2</ele>
        <time>2021-10-09 15:36:10</time>
      </trkpt>
      <trkpt lat="40.35959" lon="-1.88295">
        <ele>1668.6</ele>
        <time>2021-10-09 15:36:11</time>
      </trkpt>
      <trkpt lat="40.3595" lon="-1.88298">
        <ele>1668.6</ele>
        <time>2021-10-09 15:36:12</time>
      </trkpt>
      <trkpt lat="40.35942" lon="-1.88299">
        <ele>1668.2</ele>
        <time>2021-10-09 15:36:13</time>
      </trkpt>
      <trkpt lat="40.35933" lon="-1.88301">
        <ele>1667.6</ele>
        <time>2021-10-09 15:36:14</time>
      </trkpt>
      <trkpt lat="40.35924" lon="-1.88302">
        <ele>1667.2</ele>
        <time>2021-10-09 15:36:15</time>
      </trkpt>
      <trkpt lat="40.35915" lon="-1.88301">
        <ele>1666.2</ele>
        <time>2021-10-09 15:36:16</time>
      </trkpt>
      <trkpt lat="40.35906" lon="-1.88301">
        <ele>1665.2</ele>
        <time>2021-10-09 15:36:17</time>
      </trkpt>
      <trkpt lat="40.35897" lon="-1.88301">
        <ele>1664.8</ele>
        <time>2021-10-09 15:36:18</time>
      </trkpt>
      <trkpt lat="40.35888" lon="-1.88302">
        <ele>1663.8</ele>
        <time>2021-10-09 15:36:19</time>
      </trkpt>
      <trkpt lat="40.35879" lon="-1.88301">
        <ele>1663.8</ele>
        <time>2021-10-09 15:36:20</time>
      </trkpt>
      <trkpt lat="40.3587" lon="-1.883">
        <ele>1663.2</ele>
        <time>2021-10-09 15:36:21</time>
      </trkpt>
      <trkpt lat="40.35862" lon="-1.88298">
        <ele>1662</ele>
        <time>2021-10-09 15:36:22</time>
      </trkpt>
      <trkpt lat="40.35854" lon="-1.883">
        <ele>1661.2</ele>
        <time>2021-10-09 15:36:23</time>
      </trkpt>
      <trkpt lat="40.35845" lon="-1.88302">
        <ele>1660.2</ele>
        <time>2021-10-09 15:36:24</time>
      </trkpt>
      <trkpt lat="40.35837" lon="-1.88306">
        <ele>1659.6</ele>
        <time>2021-10-09 15:36:25</time>
      </trkpt>
      <trkpt lat="40.35829" lon="-1.88311">
        <ele>1658.6</ele>
        <time>2021-10-09 15:36:26</time>
      </trkpt>
      <trkpt lat="40.35821" lon="-1.88318">
        <ele>1657.8</ele>
        <time>2021-10-09 15:36:27</time>
      </trkpt>
      <trkpt lat="40.35813" lon="-1.88325">
        <ele>1657</ele>
        <time>2021-10-09 15:36:28</time>
      </trkpt>
      <trkpt lat="40.35806" lon="-1.88332">
        <ele>1656.2</ele>
        <time>2021-10-09 15:36:29</time>
      </trkpt>
      <trkpt lat="40.35798" lon="-1.88339">
        <ele>1655.4</ele>
        <time>2021-10-09 15:36:30</time>
      </trkpt>
      <trkpt lat="40.3579" lon="-1.88345">
        <ele>1654.8</ele>
        <time>2021-10-09 15:36:31</time>
      </trkpt>
      <trkpt lat="40.35782" lon="-1.88353">
        <ele>1654</ele>
        <time>2021-10-09 15:36:32</time>
      </trkpt>
      <trkpt lat="40.35774" lon="-1.8836">
        <ele>1653.2</ele>
        <time>2021-10-09 15:36:33</time>
      </trkpt>
      <trkpt lat="40.35766" lon="-1.88367">
        <ele>1652.6</ele>
        <time>2021-10-09 15:36:34</time>
      </trkpt>
      <trkpt lat="40.35758" lon="-1.88373">
        <ele>1652</ele>
        <time>2021-10-09 15:36:35</time>
      </trkpt>
      <trkpt lat="40.35749" lon="-1.88379">
        <ele>1651.4</ele>
        <time>2021-10-09 15:36:36</time>
      </trkpt>
      <trkpt lat="40.35741" lon="-1.88385">
        <ele>1650.8</ele>
        <time>2021-10-09 15:36:37</time>
      </trkpt>
      <trkpt lat="40.35732" lon="-1.88391">
        <ele>1650.4</ele>
        <time>2021-10-09 15:36:38</time>
      </trkpt>
      <trkpt lat="40.35723" lon="-1.88395">
        <ele>1650</ele>
        <time>2021-10-09 15:36:39</time>
      </trkpt>
      <trkpt lat="40.35714" lon="-1.88398">
        <ele>1649.6</ele>
        <time>2021-10-09 15:36:40</time>
      </trkpt>
      <trkpt lat="40.35706" lon="-1.88402">
        <ele>1649.4</ele>
        <time>2021-10-09 15:36:41</time>
      </trkpt>
      <trkpt lat="40.35698" lon="-1.88406">
        <ele>1649</ele>
        <time>2021-10-09 15:36:42</time>
      </trkpt>
      <trkpt lat="40.35691" lon="-1.88409">
        <ele>1649</ele>
        <time>2021-10-09 15:36:43</time>
      </trkpt>
      <trkpt lat="40.35684" lon="-1.88411">
        <ele>1648.2</ele>
        <time>2021-10-09 15:36:44</time>
      </trkpt>
      <trkpt lat="40.35679" lon="-1.88412">
        <ele>1647.8</ele>
        <time>2021-10-09 15:36:45</time>
      </trkpt>
      <trkpt lat="40.35673" lon="-1.88411">
        <ele>1647.4</ele>
        <time>2021-10-09 15:36:46</time>
      </trkpt>
      <trkpt lat="40.35668" lon="-1.88407">
        <ele>1647.4</ele>
        <time>2021-10-09 15:36:47</time>
      </trkpt>
      <trkpt lat="40.35664" lon="-1.88401">
        <ele>1646.6</ele>
        <time>2021-10-09 15:36:48</time>
      </trkpt>
      <trkpt lat="40.35661" lon="-1.88394">
        <ele>1646</ele>
        <time>2021-10-09 15:36:49</time>
      </trkpt>
      <trkpt lat="40.35658" lon="-1.88387">
        <ele>1645.4</ele>
        <time>2021-10-09 15:36:50</time>
      </trkpt>
      <trkpt lat="40.35654" lon="-1.8838">
        <ele>1644.6</ele>
        <time>2021-10-09 15:36:51</time>
      </trkpt>
      <trkpt lat="40.3565" lon="-1.88374">
        <ele>1643.8</ele>
        <time>2021-10-09 15:36:52</time>
      </trkpt>
      <trkpt lat="40.35644" lon="-1.88372">
        <ele>1643.2</ele>
        <time>2021-10-09 15:36:53</time>
      </trkpt>
      <trkpt lat="40.35638" lon="-1.88371">
        <ele>1642.8</ele>
        <time>2021-10-09 15:36:54</time>
      </trkpt>
      <trkpt lat="40.35632" lon="-1.8837">
        <ele>1642.4</ele>
        <time>2021-10-09 15:36:55</time>
      </trkpt>
      <trkpt lat="40.35625" lon="-1.88369">
        <ele>1642.4</ele>
        <time>2021-10-09 15:36:56</time>
      </trkpt>
      <trkpt lat="40.35619" lon="-1.88369">
        <ele>1642</ele>
        <time>2021-10-09 15:36:57</time>
      </trkpt>
      <trkpt lat="40.35612" lon="-1.88369">
        <ele>1641.4</ele>
        <time>2021-10-09 15:36:58</time>
      </trkpt>
      <trkpt lat="40.35606" lon="-1.88369">
        <ele>1641.4</ele>
        <time>2021-10-09 15:36:59</time>
      </trkpt>
      <trkpt lat="40.35599" lon="-1.88368">
        <ele>1640.6</ele>
        <time>2021-10-09 15:37:00</time>
      </trkpt>
      <trkpt lat="40.35591" lon="-1.88368">
        <ele>1640</ele>
        <time>2021-10-09 15:37:01</time>
      </trkpt>
      <trkpt lat="40.35584" lon="-1.88368">
        <ele>1639.2</ele>
        <time>2021-10-09 15:37:02</time>
      </trkpt>
      <trkpt lat="40.35576" lon="-1.88368">
        <ele>1638.4</ele>
        <time>2021-10-09 15:37:03</time>
      </trkpt>
      <trkpt lat="40.35569" lon="-1.88369">
        <ele>1637.6</ele>
        <time>2021-10-09 15:37:04</time>
      </trkpt>
      <trkpt lat="40.35562" lon="-1.88368">
        <ele>1637.2</ele>
        <time>2021-10-09 15:37:05</time>
      </trkpt>
      <trkpt lat="40.35554" lon="-1.88369">
        <ele>1637</ele>
        <time>2021-10-09 15:37:06</time>
      </trkpt>
      <trkpt lat="40.35547" lon="-1.88369">
        <ele>1636.2</ele>
        <time>2021-10-09 15:37:07</time>
      </trkpt>
      <trkpt lat="40.3554" lon="-1.8837">
        <ele>1636.8</ele>
        <time>2021-10-09 15:37:08</time>
      </trkpt>
      <trkpt lat="40.35532" lon="-1.8837">
        <ele>1636.8</ele>
        <time>2021-10-09 15:37:09</time>
      </trkpt>
      <trkpt lat="40.35525" lon="-1.8837">
        <ele>1636.2</ele>
        <time>2021-10-09 15:37:10</time>
      </trkpt>
      <trkpt lat="40.35517" lon="-1.8837">
        <ele>1635.4</ele>
        <time>2021-10-09 15:37:11</time>
      </trkpt>
      <trkpt lat="40.35508" lon="-1.88371">
        <ele>1634.4</ele>
        <time>2021-10-09 15:37:12</time>
      </trkpt>
      <trkpt lat="40.355" lon="-1.88371">
        <ele>1633.6</ele>
        <time>2021-10-09 15:37:13</time>
      </trkpt>
      <trkpt lat="40.35492" lon="-1.88372">
        <ele>1633</ele>
        <time>2021-10-09 15:37:14</time>
      </trkpt>
      <trkpt lat="40.35483" lon="-1.88375">
        <ele>1632.4</ele>
        <time>2021-10-09 15:37:15</time>
      </trkpt>
      <trkpt lat="40.35474" lon="-1.88376">
        <ele>1631.8</ele>
        <time>2021-10-09 15:37:16</time>
      </trkpt>
      <trkpt lat="40.35465" lon="-1.88378">
        <ele>1631</ele>
        <time>2021-10-09 15:37:17</time>
      </trkpt>
      <trkpt lat="40.35457" lon="-1.8838">
        <ele>1630.4</ele>
        <time>2021-10-09 15:37:18</time>
      </trkpt>
      <trkpt lat="40.35448" lon="-1.88383">
        <ele>1629.8</ele>
        <time>2021-10-09 15:37:19</time>
      </trkpt>
      <trkpt lat="40.3544" lon="-1.88387">
        <ele>1629.2</ele>
        <time>2021-10-09 15:37:20</time>
      </trkpt>
      <trkpt lat="40.35431" lon="-1.88388">
        <ele>1628.4</ele>
        <time>2021-10-09 15:37:21</time>
      </trkpt>
      <trkpt lat="40.35423" lon="-1.88391">
        <ele>1628</ele>
        <time>2021-10-09 15:37:22</time>
      </trkpt>
      <trkpt lat="40.35416" lon="-1.88392">
        <ele>1627.4</ele>
        <time>2021-10-09 15:37:23</time>
      </trkpt>
      <trkpt lat="40.35407" lon="-1.88392">
        <ele>1627</ele>
        <time>2021-10-09 15:37:24</time>
      </trkpt>
      <trkpt lat="40.354" lon="-1.88394">
        <ele>1626</ele>
        <time>2021-10-09 15:37:25</time>
      </trkpt>
      <trkpt lat="40.35392" lon="-1.88396">
        <ele>1625.6</ele>
        <time>2021-10-09 15:37:26</time>
      </trkpt>
      <trkpt lat="40.35384" lon="-1.88397">
        <ele>1625</ele>
        <time>2021-10-09 15:37:27</time>
      </trkpt>
      <trkpt lat="40.35376" lon="-1.88399">
        <ele>1624</ele>
        <time>2021-10-09 15:37:28</time>
      </trkpt>
      <trkpt lat="40.35368" lon="-1.88398">
        <ele>1623.4</ele>
        <time>2021-10-09 15:37:29</time>
      </trkpt>
      <trkpt lat="40.3536" lon="-1.88397">
        <ele>1622.4</ele>
        <time>2021-10-09 15:37:30</time>
      </trkpt>
      <trkpt lat="40.35352" lon="-1.88396">
        <ele>1621.6</ele>
        <time>2021-10-09 15:37:31</time>
      </trkpt>
      <trkpt lat="40.35345" lon="-1.88395">
        <ele>1621.2</ele>
        <time>2021-10-09 15:37:32</time>
      </trkpt>
      <trkpt lat="40.35338" lon="-1.88392">
        <ele>1620.6</ele>
        <time>2021-10-09 15:37:33</time>
      </trkpt>
      <trkpt lat="40.35331" lon="-1.88387">
        <ele>1619.8</ele>
        <time>2021-10-09 15:37:34</time>
      </trkpt>
      <trkpt lat="40.35325" lon="-1.88386">
        <ele>1619.2</ele>
        <time>2021-10-09 15:37:35</time>
      </trkpt>
      <trkpt lat="40.35318" lon="-1.88383">
        <ele>1618.4</ele>
        <time>2021-10-09 15:37:36</time>
      </trkpt>
      <trkpt lat="40.35312" lon="-1.88381">
        <ele>1618</ele>
        <time>2021-10-09 15:37:37</time>
      </trkpt>
      <trkpt lat="40.35305" lon="-1.8838">
        <ele>1617.2</ele>
        <time>2021-10-09 15:37:38</time>
      </trkpt>
      <trkpt lat="40.35298" lon="-1.88379">
        <ele>1616.8</ele>
        <time>2021-10-09 15:37:39</time>
      </trkpt>
      <trkpt lat="40.35291" lon="-1.88378">
        <ele>1616.4</ele>
        <time>2021-10-09 15:37:40</time>
      </trkpt>
      <trkpt lat="40.35284" lon="-1.88377">
        <ele>1615.6</ele>
        <time>2021-10-09 15:37:41</time>
      </trkpt>
      <trkpt lat="40.35277" lon="-1.88375">
        <ele>1615.6</ele>
        <time>2021-10-09 15:37:42</time>
      </trkpt>
      <trkpt lat="40.3527" lon="-1.88374">
        <ele>1614.8</ele>
        <time>2021-10-09 15:37:43</time>
      </trkpt>
      <trkpt lat="40.35263" lon="-1.88373">
        <ele>1614</ele>
        <time>2021-10-09 15:37:44</time>
      </trkpt>
      <trkpt lat="40.35256" lon="-1.88373">
        <ele>1613.4</ele>
        <time>2021-10-09 15:37:45</time>
      </trkpt>
      <trkpt lat="40.35249" lon="-1.88375">
        <ele>1612.8</ele>
        <time>2021-10-09 15:37:46</time>
      </trkpt>
      <trkpt lat="40.35242" lon="-1.88376">
        <ele>1612.2</ele>
        <time>2021-10-09 15:37:47</time>
      </trkpt>
      <trkpt lat="40.35235" lon="-1.8838">
        <ele>1611.8</ele>
        <time>2021-10-09 15:37:48</time>
      </trkpt>
      <trkpt lat="40.35228" lon="-1.88383">
        <ele>1611.4</ele>
        <time>2021-10-09 15:37:49</time>
      </trkpt>
      <trkpt lat="40.35222" lon="-1.88389">
        <ele>1611.4</ele>
        <time>2021-10-09 15:37:50</time>
      </trkpt>
      <trkpt lat="40.35216" lon="-1.88393">
        <ele>1611.2</ele>
        <time>2021-10-09 15:37:51</time>
      </trkpt>
      <trkpt lat="40.35209" lon="-1.88396">
        <ele>1610.8</ele>
        <time>2021-10-09 15:37:52</time>
      </trkpt>
      <trkpt lat="40.35203" lon="-1.88403">
        <ele>1610.8</ele>
        <time>2021-10-09 15:37:53</time>
      </trkpt>
      <trkpt lat="40.35196" lon="-1.88407">
        <ele>1610.4</ele>
        <time>2021-10-09 15:37:54</time>
      </trkpt>
      <trkpt lat="40.3519" lon="-1.88412">
        <ele>1610</ele>
        <time>2021-10-09 15:37:55</time>
      </trkpt>
      <trkpt lat="40.35183" lon="-1.88415">
        <ele>1610</ele>
        <time>2021-10-09 15:37:56</time>
      </trkpt>
      <trkpt lat="40.35176" lon="-1.8842">
        <ele>1609.4</ele>
        <time>2021-10-09 15:37:57</time>
      </trkpt>
      <trkpt lat="40.35168" lon="-1.88425">
        <ele>1609</ele>
        <time>2021-10-09 15:37:58</time>
      </trkpt>
      <trkpt lat="40.3516" lon="-1.88429">
        <ele>1608.6</ele>
        <time>2021-10-09 15:37:59</time>
      </trkpt>
      <trkpt lat="40.35152" lon="-1.88435">
        <ele>1608.2</ele>
        <time>2021-10-09 15:38:00</time>
      </trkpt>
      <trkpt lat="40.35143" lon="-1.8844">
        <ele>1607.8</ele>
        <time>2021-10-09 15:38:01</time>
      </trkpt>
      <trkpt lat="40.35134" lon="-1.88445">
        <ele>1607.2</ele>
        <time>2021-10-09 15:38:02</time>
      </trkpt>
      <trkpt lat="40.35125" lon="-1.8845">
        <ele>1606.8</ele>
        <time>2021-10-09 15:38:03</time>
      </trkpt>
      <trkpt lat="40.35116" lon="-1.88454">
        <ele>1606</ele>
        <time>2021-10-09 15:38:04</time>
      </trkpt>
      <trkpt lat="40.35107" lon="-1.88459">
        <ele>1605.6</ele>
        <time>2021-10-09 15:38:05</time>
      </trkpt>
      <trkpt lat="40.35098" lon="-1.88464">
        <ele>1606</ele>
        <time>2021-10-09 15:38:06</time>
      </trkpt>
      <trkpt lat="40.3509" lon="-1.88469">
        <ele>1605.2</ele>
        <time>2021-10-09 15:38:07</time>
      </trkpt>
      <trkpt lat="40.35083" lon="-1.88475">
        <ele>1604.8</ele>
        <time>2021-10-09 15:38:08</time>
      </trkpt>
      <trkpt lat="40.35076" lon="-1.8848">
        <ele>1604.6</ele>
        <time>2021-10-09 15:38:09</time>
      </trkpt>
      <trkpt lat="40.35068" lon="-1.88481">
        <ele>1604.6</ele>
        <time>2021-10-09 15:38:10</time>
      </trkpt>
      <trkpt lat="40.35061" lon="-1.8848">
        <ele>1604.4</ele>
        <time>2021-10-09 15:38:11</time>
      </trkpt>
      <trkpt lat="40.35055" lon="-1.88478">
        <ele>1604.4</ele>
        <time>2021-10-09 15:38:12</time>
      </trkpt>
      <trkpt lat="40.35049" lon="-1.88474">
        <ele>1604.2</ele>
        <time>2021-10-09 15:38:13</time>
      </trkpt>
      <trkpt lat="40.35044" lon="-1.88471">
        <ele>1604.2</ele>
        <time>2021-10-09 15:38:14</time>
      </trkpt>
      <trkpt lat="40.35037" lon="-1.88466">
        <ele>1604</ele>
        <time>2021-10-09 15:38:15</time>
      </trkpt>
      <trkpt lat="40.35032" lon="-1.8846">
        <ele>1604</ele>
        <time>2021-10-09 15:38:16</time>
      </trkpt>
      <trkpt lat="40.35026" lon="-1.88455">
        <ele>1604</ele>
        <time>2021-10-09 15:38:17</time>
      </trkpt>
      <trkpt lat="40.3502" lon="-1.8845">
        <ele>1603.4</ele>
        <time>2021-10-09 15:38:18</time>
      </trkpt>
      <trkpt lat="40.35014" lon="-1.88446">
        <ele>1603.4</ele>
        <time>2021-10-09 15:38:19</time>
      </trkpt>
      <trkpt lat="40.35007" lon="-1.88441">
        <ele>1603.4</ele>
        <time>2021-10-09 15:38:20</time>
      </trkpt>
      <trkpt lat="40.35001" lon="-1.88437">
        <ele>1602.8</ele>
        <time>2021-10-09 15:38:21</time>
      </trkpt>
      <trkpt lat="40.34995" lon="-1.88434">
        <ele>1603.2</ele>
        <time>2021-10-09 15:38:22</time>
      </trkpt>
      <trkpt lat="40.3499" lon="-1.88433">
        <ele>1602.4</ele>
        <time>2021-10-09 15:38:23</time>
      </trkpt>
      <trkpt lat="40.34983" lon="-1.88433">
        <ele>1602</ele>
        <time>2021-10-09 15:38:24</time>
      </trkpt>
      <trkpt lat="40.34979" lon="-1.88435">
        <ele>1602</ele>
        <time>2021-10-09 15:38:25</time>
      </trkpt>
      <trkpt lat="40.34974" lon="-1.88438">
        <ele>1602</ele>
        <time>2021-10-09 15:38:26</time>
      </trkpt>
      <trkpt lat="40.3497" lon="-1.88441">
        <ele>1602</ele>
        <time>2021-10-09 15:38:27</time>
      </trkpt>
      <trkpt lat="40.34967" lon="-1.88444">
        <ele>1602</ele>
        <time>2021-10-09 15:38:28</time>
      </trkpt>
      <trkpt lat="40.34963" lon="-1.88447">
        <ele>1602</ele>
        <time>2021-10-09 15:38:29</time>
      </trkpt>
      <trkpt lat="40.3496" lon="-1.8845">
        <ele>1602</ele>
        <time>2021-10-09 15:38:30</time>
      </trkpt>
      <trkpt lat="40.34956" lon="-1.88453">
        <ele>1602.2</ele>
        <time>2021-10-09 15:38:31</time>
      </trkpt>
      <trkpt lat="40.34954" lon="-1.88454">
        <ele>1602.2</ele>
        <time>2021-10-09 15:38:32</time>
      </trkpt>
      <trkpt lat="40.3495" lon="-1.88457">
        <ele>1602.4</ele>
        <time>2021-10-09 15:38:33</time>
      </trkpt>
      <trkpt lat="40.34947" lon="-1.8846">
        <ele>1602.4</ele>
        <time>2021-10-09 15:38:34</time>
      </trkpt>
      <trkpt lat="40.34945" lon="-1.88464">
        <ele>1602.6</ele>
        <time>2021-10-09 15:38:35</time>
      </trkpt>
      <trkpt lat="40.34943" lon="-1.88467">
        <ele>1603</ele>
        <time>2021-10-09 15:38:36</time>
      </trkpt>
      <trkpt lat="40.3494" lon="-1.88472">
        <ele>1603.4</ele>
        <time>2021-10-09 15:38:37</time>
      </trkpt>
      <trkpt lat="40.34938" lon="-1.88475">
        <ele>1603.6</ele>
        <time>2021-10-09 15:38:38</time>
      </trkpt>
      <trkpt lat="40.34936" lon="-1.88479">
        <ele>1604</ele>
        <time>2021-10-09 15:38:39</time>
      </trkpt>
      <trkpt lat="40.34933" lon="-1.88482">
        <ele>1604</ele>
        <time>2021-10-09 15:38:40</time>
      </trkpt>
      <trkpt lat="40.34932" lon="-1.88486">
        <ele>1604.4</ele>
        <time>2021-10-09 15:38:41</time>
      </trkpt>
      <trkpt lat="40.3493" lon="-1.8849">
        <ele>1604.6</ele>
        <time>2021-10-09 15:38:42</time>
      </trkpt>
      <trkpt lat="40.34929" lon="-1.88495">
        <ele>1604.6</ele>
        <time>2021-10-09 15:38:43</time>
      </trkpt>
      <trkpt lat="40.34928" lon="-1.88499">
        <ele>1604.6</ele>
        <time>2021-10-09 15:38:44</time>
      </trkpt>
      <trkpt lat="40.34927" lon="-1.88503">
        <ele>1605</ele>
        <time>2021-10-09 15:38:45</time>
      </trkpt>
      <trkpt lat="40.34925" lon="-1.88508">
        <ele>1605.4</ele>
        <time>2021-10-09 15:38:46</time>
      </trkpt>
      <trkpt lat="40.34923" lon="-1.88512">
        <ele>1605.6</ele>
        <time>2021-10-09 15:38:47</time>
      </trkpt>
      <trkpt lat="40.34922" lon="-1.88515">
        <ele>1605.8</ele>
        <time>2021-10-09 15:38:48</time>
      </trkpt>
      <trkpt lat="40.3492" lon="-1.88518">
        <ele>1605.8</ele>
        <time>2021-10-09 15:38:49</time>
      </trkpt>
      <trkpt lat="40.34919" lon="-1.88521">
        <ele>1606.2</ele>
        <time>2021-10-09 15:38:50</time>
      </trkpt>
      <trkpt lat="40.34918" lon="-1.88524">
        <ele>1606.4</ele>
        <time>2021-10-09 15:38:51</time>
      </trkpt>
      <trkpt lat="40.34917" lon="-1.88527">
        <ele>1606.6</ele>
        <time>2021-10-09 15:38:52</time>
      </trkpt>
      <trkpt lat="40.34917" lon="-1.88527">
        <ele>1606.6</ele>
        <time>2021-10-09 15:38:53</time>
      </trkpt>
      <trkpt lat="40.34915" lon="-1.8853">
        <ele>1607</ele>
        <time>2021-10-09 15:38:54</time>
      </trkpt>
      <trkpt lat="40.34914" lon="-1.88533">
        <ele>1607.2</ele>
        <time>2021-10-09 15:38:55</time>
      </trkpt>
      <trkpt lat="40.34913" lon="-1.88536">
        <ele>1607.4</ele>
        <time>2021-10-09 15:38:56</time>
      </trkpt>
      <trkpt lat="40.34911" lon="-1.88538">
        <ele>1607.8</ele>
        <time>2021-10-09 15:38:57</time>
      </trkpt>
      <trkpt lat="40.3491" lon="-1.88541">
        <ele>1607.8</ele>
        <time>2021-10-09 15:38:58</time>
      </trkpt>
      <trkpt lat="40.34908" lon="-1.88543">
        <ele>1608.2</ele>
        <time>2021-10-09 15:38:59</time>
      </trkpt>
      <trkpt lat="40.34906" lon="-1.88546">
        <ele>1608.4</ele>
        <time>2021-10-09 15:39:00</time>
      </trkpt>
      <trkpt lat="40.34904" lon="-1.88548">
        <ele>1608.4</ele>
        <time>2021-10-09 15:39:01</time>
      </trkpt>
      <trkpt lat="40.34903" lon="-1.8855">
        <ele>1608.8</ele>
        <time>2021-10-09 15:39:02</time>
      </trkpt>
      <trkpt lat="40.34901" lon="-1.88552">
        <ele>1608.8</ele>
        <time>2021-10-09 15:39:03</time>
      </trkpt>
      <trkpt lat="40.34899" lon="-1.88555">
        <ele>1609</ele>
        <time>2021-10-09 15:39:04</time>
      </trkpt>
      <trkpt lat="40.34897" lon="-1.88557">
        <ele>1609</ele>
        <time>2021-10-09 15:39:05</time>
      </trkpt>
      <trkpt lat="40.34894" lon="-1.88559">
        <ele>1609.4</ele>
        <time>2021-10-09 15:39:06</time>
      </trkpt>
      <trkpt lat="40.34892" lon="-1.8856">
        <ele>1609.8</ele>
        <time>2021-10-09 15:39:07</time>
      </trkpt>
      <trkpt lat="40.34889" lon="-1.88561">
        <ele>1610</ele>
        <time>2021-10-09 15:39:08</time>
      </trkpt>
      <trkpt lat="40.34886" lon="-1.88562">
        <ele>1610.2</ele>
        <time>2021-10-09 15:39:09</time>
      </trkpt>
      <trkpt lat="40.34884" lon="-1.88563">
        <ele>1610.2</ele>
        <time>2021-10-09 15:39:10</time>
      </trkpt>
      <trkpt lat="40.34881" lon="-1.88565">
        <ele>1610.6</ele>
        <time>2021-10-09 15:39:11</time>
      </trkpt>
      <trkpt lat="40.34879" lon="-1.88566">
        <ele>1610.6</ele>
        <time>2021-10-09 15:39:12</time>
      </trkpt>
      <trkpt lat="40.34877" lon="-1.88568">
        <ele>1611</ele>
        <time>2021-10-09 15:39:13</time>
      </trkpt>
      <trkpt lat="40.34874" lon="-1.8857">
        <ele>1611</ele>
        <time>2021-10-09 15:39:14</time>
      </trkpt>
      <trkpt lat="40.34871" lon="-1.88572">
        <ele>1611.4</ele>
        <time>2021-10-09 15:39:15</time>
      </trkpt>
      <trkpt lat="40.34868" lon="-1.88573">
        <ele>1611.6</ele>
        <time>2021-10-09 15:39:16</time>
      </trkpt>
      <trkpt lat="40.34865" lon="-1.88573">
        <ele>1611.6</ele>
        <time>2021-10-09 15:39:17</time>
      </trkpt>
      <trkpt lat="40.34863" lon="-1.88574">
        <ele>1612</ele>
        <time>2021-10-09 15:39:18</time>
      </trkpt>
      <trkpt lat="40.3486" lon="-1.88574">
        <ele>1612.2</ele>
        <time>2021-10-09 15:39:19</time>
      </trkpt>
      <trkpt lat="40.34857" lon="-1.88574">
        <ele>1612.2</ele>
        <time>2021-10-09 15:39:20</time>
      </trkpt>
      <trkpt lat="40.34854" lon="-1.88575">
        <ele>1612.6</ele>
        <time>2021-10-09 15:39:21</time>
      </trkpt>
      <trkpt lat="40.34851" lon="-1.88576">
        <ele>1612.8</ele>
        <time>2021-10-09 15:39:22</time>
      </trkpt>
      <trkpt lat="40.34848" lon="-1.88577">
        <ele>1612.8</ele>
        <time>2021-10-09 15:39:23</time>
      </trkpt>
      <trkpt lat="40.34845" lon="-1.88578">
        <ele>1613.2</ele>
        <time>2021-10-09 15:39:24</time>
      </trkpt>
      <trkpt lat="40.34843" lon="-1.88578">
        <ele>1613.2</ele>
        <time>2021-10-09 15:39:25</time>
      </trkpt>
      <trkpt lat="40.3484" lon="-1.88579">
        <ele>1613.4</ele>
        <time>2021-10-09 15:39:26</time>
      </trkpt>
      <trkpt lat="40.34837" lon="-1.8858">
        <ele>1613.6</ele>
        <time>2021-10-09 15:39:27</time>
      </trkpt>
      <trkpt lat="40.34835" lon="-1.8858">
        <ele>1613.6</ele>
        <time>2021-10-09 15:39:28</time>
      </trkpt>
      <trkpt lat="40.34833" lon="-1.88581">
        <ele>1613.8</ele>
        <time>2021-10-09 15:39:29</time>
      </trkpt>
      <trkpt lat="40.3483" lon="-1.88581">
        <ele>1613.8</ele>
        <time>2021-10-09 15:39:30</time>
      </trkpt>
      <trkpt lat="40.34827" lon="-1.88582">
        <ele>1614</ele>
        <time>2021-10-09 15:39:31</time>
      </trkpt>
      <trkpt lat="40.34825" lon="-1.88583">
        <ele>1614</ele>
        <time>2021-10-09 15:39:32</time>
      </trkpt>
      <trkpt lat="40.34822" lon="-1.88584">
        <ele>1614.4</ele>
        <time>2021-10-09 15:39:33</time>
      </trkpt>
      <trkpt lat="40.34819" lon="-1.88585">
        <ele>1614.6</ele>
        <time>2021-10-09 15:39:34</time>
      </trkpt>
      <trkpt lat="40.34817" lon="-1.88586">
        <ele>1614.6</ele>
        <time>2021-10-09 15:39:35</time>
      </trkpt>
      <trkpt lat="40.34814" lon="-1.88586">
        <ele>1615</ele>
        <time>2021-10-09 15:39:36</time>
      </trkpt>
      <trkpt lat="40.34812" lon="-1.88586">
        <ele>1615</ele>
        <time>2021-10-09 15:39:37</time>
      </trkpt>
      <trkpt lat="40.34809" lon="-1.88586">
        <ele>1615.4</ele>
        <time>2021-10-09 15:39:38</time>
      </trkpt>
      <trkpt lat="40.34806" lon="-1.88586">
        <ele>1615.4</ele>
        <time>2021-10-09 15:39:39</time>
      </trkpt>
      <trkpt lat="40.34804" lon="-1.88587">
        <ele>1615.8</ele>
        <time>2021-10-09 15:39:40</time>
      </trkpt>
      <trkpt lat="40.34802" lon="-1.88587">
        <ele>1616</ele>
        <time>2021-10-09 15:39:41</time>
      </trkpt>
      <trkpt lat="40.34799" lon="-1.88588">
        <ele>1616.2</ele>
        <time>2021-10-09 15:39:42</time>
      </trkpt>
      <trkpt lat="40.34796" lon="-1.88588">
        <ele>1616.2</ele>
        <time>2021-10-09 15:39:43</time>
      </trkpt>
      <trkpt lat="40.34794" lon="-1.88588">
        <ele>1616.6</ele>
        <time>2021-10-09 15:39:44</time>
      </trkpt>
      <trkpt lat="40.34791" lon="-1.88589">
        <ele>1616.6</ele>
        <time>2021-10-09 15:39:45</time>
      </trkpt>
      <trkpt lat="40.34789" lon="-1.8859">
        <ele>1616.8</ele>
        <time>2021-10-09 15:39:46</time>
      </trkpt>
      <trkpt lat="40.34786" lon="-1.88591">
        <ele>1617</ele>
        <time>2021-10-09 15:39:47</time>
      </trkpt>
      <trkpt lat="40.34784" lon="-1.88591">
        <ele>1617</ele>
        <time>2021-10-09 15:39:48</time>
      </trkpt>
      <trkpt lat="40.34781" lon="-1.88592">
        <ele>1617.4</ele>
        <time>2021-10-09 15:39:49</time>
      </trkpt>
      <trkpt lat="40.34779" lon="-1.88592">
        <ele>1617.6</ele>
        <time>2021-10-09 15:39:50</time>
      </trkpt>
      <trkpt lat="40.34776" lon="-1.88592">
        <ele>1617.6</ele>
        <time>2021-10-09 15:39:51</time>
      </trkpt>
      <trkpt lat="40.34773" lon="-1.88592">
        <ele>1617.8</ele>
        <time>2021-10-09 15:39:52</time>
      </trkpt>
      <trkpt lat="40.34771" lon="-1.88593">
        <ele>1618.2</ele>
        <time>2021-10-09 15:39:53</time>
      </trkpt>
      <trkpt lat="40.34769" lon="-1.88593">
        <ele>1618.2</ele>
        <time>2021-10-09 15:39:54</time>
      </trkpt>
      <trkpt lat="40.34766" lon="-1.88594">
        <ele>1618.4</ele>
        <time>2021-10-09 15:39:55</time>
      </trkpt>
      <trkpt lat="40.34764" lon="-1.88594">
        <ele>1618.4</ele>
        <time>2021-10-09 15:39:56</time>
      </trkpt>
      <trkpt lat="40.34762" lon="-1.88595">
        <ele>1618.8</ele>
        <time>2021-10-09 15:39:57</time>
      </trkpt>
      <trkpt lat="40.34759" lon="-1.88596">
        <ele>1618.8</ele>
        <time>2021-10-09 15:39:58</time>
      </trkpt>
      <trkpt lat="40.34757" lon="-1.88596">
        <ele>1619</ele>
        <time>2021-10-09 15:39:59</time>
      </trkpt>
      <trkpt lat="40.34754" lon="-1.88596">
        <ele>1619.2</ele>
        <time>2021-10-09 15:40:00</time>
      </trkpt>
      <trkpt lat="40.34752" lon="-1.88597">
        <ele>1619.2</ele>
        <time>2021-10-09 15:40:01</time>
      </trkpt>
      <trkpt lat="40.34749" lon="-1.88597">
        <ele>1619.4</ele>
        <time>2021-10-09 15:40:02</time>
      </trkpt>
      <trkpt lat="40.34747" lon="-1.88598">
        <ele>1619.8</ele>
        <time>2021-10-09 15:40:03</time>
      </trkpt>
      <trkpt lat="40.34744" lon="-1.88598">
        <ele>1619.8</ele>
        <time>2021-10-09 15:40:04</time>
      </trkpt>
      <trkpt lat="40.34742" lon="-1.88598">
        <ele>1620</ele>
        <time>2021-10-09 15:40:05</time>
      </trkpt>
      <trkpt lat="40.34739" lon="-1.88599">
        <ele>1620</ele>
        <time>2021-10-09 15:40:06</time>
      </trkpt>
      <trkpt lat="40.34737" lon="-1.886">
        <ele>1620.4</ele>
        <time>2021-10-09 15:40:07</time>
      </trkpt>
      <trkpt lat="40.34734" lon="-1.886">
        <ele>1620.4</ele>
        <time>2021-10-09 15:40:08</time>
      </trkpt>
      <trkpt lat="40.34731" lon="-1.88601">
        <ele>1620.6</ele>
        <time>2021-10-09 15:40:09</time>
      </trkpt>
      <trkpt lat="40.34729" lon="-1.88601">
        <ele>1620.6</ele>
        <time>2021-10-09 15:40:10</time>
      </trkpt>
      <trkpt lat="40.34726" lon="-1.88601">
        <ele>1620.8</ele>
        <time>2021-10-09 15:40:11</time>
      </trkpt>
      <trkpt lat="40.34724" lon="-1.88602">
        <ele>1620.8</ele>
        <time>2021-10-09 15:40:12</time>
      </trkpt>
      <trkpt lat="40.34721" lon="-1.88602">
        <ele>1621.2</ele>
        <time>2021-10-09 15:40:13</time>
      </trkpt>
      <trkpt lat="40.34719" lon="-1.88602">
        <ele>1621.4</ele>
        <time>2021-10-09 15:40:14</time>
      </trkpt>
      <trkpt lat="40.34716" lon="-1.88603">
        <ele>1621.4</ele>
        <time>2021-10-09 15:40:15</time>
      </trkpt>
      <trkpt lat="40.34713" lon="-1.88603">
        <ele>1621.8</ele>
        <time>2021-10-09 15:40:16</time>
      </trkpt>
      <trkpt lat="40.34711" lon="-1.88604">
        <ele>1621.8</ele>
        <time>2021-10-09 15:40:17</time>
      </trkpt>
      <trkpt lat="40.34709" lon="-1.88605">
        <ele>1621.8</ele>
        <time>2021-10-09 15:40:18</time>
      </trkpt>
      <trkpt lat="40.34706" lon="-1.88605">
        <ele>1622</ele>
        <time>2021-10-09 15:40:19</time>
      </trkpt>
      <trkpt lat="40.34703" lon="-1.88605">
        <ele>1622</ele>
        <time>2021-10-09 15:40:20</time>
      </trkpt>
      <trkpt lat="40.34701" lon="-1.88604">
        <ele>1622</ele>
        <time>2021-10-09 15:40:21</time>
      </trkpt>
      <trkpt lat="40.34698" lon="-1.88604">
        <ele>1622</ele>
        <time>2021-10-09 15:40:22</time>
      </trkpt>
      <trkpt lat="40.34692" lon="-1.88604">
        <ele>1622</ele>
        <time>2021-10-09 15:40:23</time>
      </trkpt>
      <trkpt lat="40.34688" lon="-1.88603">
        <ele>1622</ele>
        <time>2021-10-09 15:40:24</time>
      </trkpt>
      <trkpt lat="40.34685" lon="-1.88603">
        <ele>1622</ele>
        <time>2021-10-09 15:40:25</time>
      </trkpt>
      <trkpt lat="40.34683" lon="-1.88601">
        <ele>1622</ele>
        <time>2021-10-09 15:40:26</time>
      </trkpt>
      <trkpt lat="40.34679" lon="-1.886">
        <ele>1622</ele>
        <time>2021-10-09 15:40:27</time>
      </trkpt>
      <trkpt lat="40.34676" lon="-1.88599">
        <ele>1622</ele>
        <time>2021-10-09 15:40:28</time>
      </trkpt>
      <trkpt lat="40.34672" lon="-1.88597">
        <ele>1622</ele>
        <time>2021-10-09 15:40:29</time>
      </trkpt>
      <trkpt lat="40.34669" lon="-1.88595">
        <ele>1622</ele>
        <time>2021-10-09 15:40:30</time>
      </trkpt>
      <trkpt lat="40.34665" lon="-1.88592">
        <ele>1622</ele>
        <time>2021-10-09 15:40:31</time>
      </trkpt>
      <trkpt lat="40.34662" lon="-1.88589">
        <ele>1622</ele>
        <time>2021-10-09 15:40:32</time>
      </trkpt>
      <trkpt lat="40.34658" lon="-1.88585">
        <ele>1621.6</ele>
        <time>2021-10-09 15:40:33</time>
      </trkpt>
      <trkpt lat="40.34654" lon="-1.8858">
        <ele>1621.6</ele>
        <time>2021-10-09 15:40:34</time>
      </trkpt>
      <trkpt lat="40.34651" lon="-1.88574">
        <ele>1621.2</ele>
        <time>2021-10-09 15:40:35</time>
      </trkpt>
      <trkpt lat="40.34648" lon="-1.88567">
        <ele>1621</ele>
        <time>2021-10-09 15:40:36</time>
      </trkpt>
      <trkpt lat="40.34646" lon="-1.88558">
        <ele>1620.6</ele>
        <time>2021-10-09 15:40:37</time>
      </trkpt>
      <trkpt lat="40.34643" lon="-1.88549">
        <ele>1620.6</ele>
        <time>2021-10-09 15:40:38</time>
      </trkpt>
      <trkpt lat="40.3464" lon="-1.88539">
        <ele>1620.4</ele>
        <time>2021-10-09 15:40:39</time>
      </trkpt>
      <trkpt lat="40.34638" lon="-1.88529">
        <ele>1619.6</ele>
        <time>2021-10-09 15:40:40</time>
      </trkpt>
      <trkpt lat="40.34635" lon="-1.88519">
        <ele>1618.8</ele>
        <time>2021-10-09 15:40:41</time>
      </trkpt>
      <trkpt lat="40.34632" lon="-1.88508">
        <ele>1618.2</ele>
        <time>2021-10-09 15:40:42</time>
      </trkpt>
      <trkpt lat="40.34629" lon="-1.88498">
        <ele>1618.2</ele>
        <time>2021-10-09 15:40:43</time>
      </trkpt>
      <trkpt lat="40.34626" lon="-1.88489">
        <ele>1617.8</ele>
        <time>2021-10-09 15:40:44</time>
      </trkpt>
      <trkpt lat="40.34622" lon="-1.8848">
        <ele>1617.2</ele>
        <time>2021-10-09 15:40:45</time>
      </trkpt>
      <trkpt lat="40.34616" lon="-1.88474">
        <ele>1616.6</ele>
        <time>2021-10-09 15:40:46</time>
      </trkpt>
      <trkpt lat="40.3461" lon="-1.88471">
        <ele>1616.6</ele>
        <time>2021-10-09 15:40:47</time>
      </trkpt>
      <trkpt lat="40.34604" lon="-1.8847">
        <ele>1616.2</ele>
        <time>2021-10-09 15:40:48</time>
      </trkpt>
      <trkpt lat="40.34598" lon="-1.8847">
        <ele>1616</ele>
        <time>2021-10-09 15:40:49</time>
      </trkpt>
      <trkpt lat="40.34592" lon="-1.88472">
        <ele>1616</ele>
        <time>2021-10-09 15:40:50</time>
      </trkpt>
      <trkpt lat="40.34586" lon="-1.88474">
        <ele>1616.2</ele>
        <time>2021-10-09 15:40:51</time>
      </trkpt>
      <trkpt lat="40.34581" lon="-1.88476">
        <ele>1616.2</ele>
        <time>2021-10-09 15:40:52</time>
      </trkpt>
      <trkpt lat="40.34577" lon="-1.88478">
        <ele>1616.2</ele>
        <time>2021-10-09 15:40:53</time>
      </trkpt>
      <trkpt lat="40.34573" lon="-1.88479">
        <ele>1616.2</ele>
        <time>2021-10-09 15:40:54</time>
      </trkpt>
      <trkpt lat="40.3457" lon="-1.88481">
        <ele>1616.2</ele>
        <time>2021-10-09 15:40:55</time>
      </trkpt>
      <trkpt lat="40.34567" lon="-1.88481">
        <ele>1616.2</ele>
        <time>2021-10-09 15:40:56</time>
      </trkpt>
      <trkpt lat="40.34565" lon="-1.88483">
        <ele>1616.4</ele>
        <time>2021-10-09 15:40:57</time>
      </trkpt>
      <trkpt lat="40.34562" lon="-1.88483">
        <ele>1616.8</ele>
        <time>2021-10-09 15:40:58</time>
      </trkpt>
      <trkpt lat="40.34559" lon="-1.88483">
        <ele>1617</ele>
        <time>2021-10-09 15:40:59</time>
      </trkpt>
      <trkpt lat="40.34557" lon="-1.88484">
        <ele>1617.2</ele>
        <time>2021-10-09 15:41:00</time>
      </trkpt>
      <trkpt lat="40.34554" lon="-1.88485">
        <ele>1617.4</ele>
        <time>2021-10-09 15:41:01</time>
      </trkpt>
      <trkpt lat="40.34551" lon="-1.88485">
        <ele>1617.6</ele>
        <time>2021-10-09 15:41:02</time>
      </trkpt>
      <trkpt lat="40.34549" lon="-1.88485">
        <ele>1617.8</ele>
        <time>2021-10-09 15:41:03</time>
      </trkpt>
      <trkpt lat="40.34546" lon="-1.88484">
        <ele>1618.2</ele>
        <time>2021-10-09 15:41:04</time>
      </trkpt>
      <trkpt lat="40.34543" lon="-1.88483">
        <ele>1618.2</ele>
        <time>2021-10-09 15:41:05</time>
      </trkpt>
      <trkpt lat="40.34541" lon="-1.88482">
        <ele>1618.4</ele>
        <time>2021-10-09 15:41:06</time>
      </trkpt>
      <trkpt lat="40.34539" lon="-1.88481">
        <ele>1618.6</ele>
        <time>2021-10-09 15:41:07</time>
      </trkpt>
      <trkpt lat="40.34536" lon="-1.8848">
        <ele>1618.6</ele>
        <time>2021-10-09 15:41:08</time>
      </trkpt>
      <trkpt lat="40.34533" lon="-1.88479">
        <ele>1619.2</ele>
        <time>2021-10-09 15:41:09</time>
      </trkpt>
      <trkpt lat="40.34531" lon="-1.88478">
        <ele>1619.4</ele>
        <time>2021-10-09 15:41:10</time>
      </trkpt>
      <trkpt lat="40.34529" lon="-1.88477">
        <ele>1619.4</ele>
        <time>2021-10-09 15:41:11</time>
      </trkpt>
      <trkpt lat="40.34527" lon="-1.88475">
        <ele>1619.6</ele>
        <time>2021-10-09 15:41:12</time>
      </trkpt>
      <trkpt lat="40.34525" lon="-1.88472">
        <ele>1619.8</ele>
        <time>2021-10-09 15:41:13</time>
      </trkpt>
      <trkpt lat="40.34524" lon="-1.8847">
        <ele>1619.8</ele>
        <time>2021-10-09 15:41:14</time>
      </trkpt>
      <trkpt lat="40.34522" lon="-1.88467">
        <ele>1620.2</ele>
        <time>2021-10-09 15:41:15</time>
      </trkpt>
      <trkpt lat="40.34521" lon="-1.88464">
        <ele>1620.2</ele>
        <time>2021-10-09 15:41:16</time>
      </trkpt>
      <trkpt lat="40.3452" lon="-1.88461">
        <ele>1620.2</ele>
        <time>2021-10-09 15:41:17</time>
      </trkpt>
      <trkpt lat="40.34519" lon="-1.88457">
        <ele>1620.4</ele>
        <time>2021-10-09 15:41:18</time>
      </trkpt>
      <trkpt lat="40.34518" lon="-1.88453">
        <ele>1620.4</ele>
        <time>2021-10-09 15:41:19</time>
      </trkpt>
      <trkpt lat="40.34517" lon="-1.88449">
        <ele>1620.4</ele>
        <time>2021-10-09 15:41:20</time>
      </trkpt>
      <trkpt lat="40.34517" lon="-1.88445">
        <ele>1620.4</ele>
        <time>2021-10-09 15:41:21</time>
      </trkpt>
      <trkpt lat="40.34517" lon="-1.8844">
        <ele>1620.4</ele>
        <time>2021-10-09 15:41:22</time>
      </trkpt>
      <trkpt lat="40.34517" lon="-1.88436">
        <ele>1620.4</ele>
        <time>2021-10-09 15:41:23</time>
      </trkpt>
      <trkpt lat="40.34518" lon="-1.88431">
        <ele>1620.4</ele>
        <time>2021-10-09 15:41:24</time>
      </trkpt>
      <trkpt lat="40.34518" lon="-1.88425">
        <ele>1620.4</ele>
        <time>2021-10-09 15:41:25</time>
      </trkpt>
      <trkpt lat="40.34518" lon="-1.8842">
        <ele>1620.6</ele>
        <time>2021-10-09 15:41:26</time>
      </trkpt>
      <trkpt lat="40.34517" lon="-1.88414">
        <ele>1620.6</ele>
        <time>2021-10-09 15:41:27</time>
      </trkpt>
      <trkpt lat="40.34517" lon="-1.88409">
        <ele>1620.6</ele>
        <time>2021-10-09 15:41:28</time>
      </trkpt>
      <trkpt lat="40.34517" lon="-1.88404">
        <ele>1620.6</ele>
        <time>2021-10-09 15:41:29</time>
      </trkpt>
      <trkpt lat="40.34517" lon="-1.88399">
        <ele>1620.6</ele>
        <time>2021-10-09 15:41:30</time>
      </trkpt>
      <trkpt lat="40.34517" lon="-1.88394">
        <ele>1620.6</ele>
        <time>2021-10-09 15:41:31</time>
      </trkpt>
      <trkpt lat="40.34516" lon="-1.88389">
        <ele>1620.6</ele>
        <time>2021-10-09 15:41:32</time>
      </trkpt>
      <trkpt lat="40.34516" lon="-1.88384">
        <ele>1620.6</ele>
        <time>2021-10-09 15:41:33</time>
      </trkpt>
      <trkpt lat="40.34516" lon="-1.88379">
        <ele>1620.6</ele>
        <time>2021-10-09 15:41:34</time>
      </trkpt>
      <trkpt lat="40.34516" lon="-1.88374">
        <ele>1620.6</ele>
        <time>2021-10-09 15:41:35</time>
      </trkpt>
      <trkpt lat="40.34515" lon="-1.88369">
        <ele>1621</ele>
        <time>2021-10-09 15:41:36</time>
      </trkpt>
      <trkpt lat="40.34515" lon="-1.88364">
        <ele>1621</ele>
        <time>2021-10-09 15:41:37</time>
      </trkpt>
      <trkpt lat="40.34516" lon="-1.88358">
        <ele>1621</ele>
        <time>2021-10-09 15:41:38</time>
      </trkpt>
      <trkpt lat="40.34517" lon="-1.88353">
        <ele>1621</ele>
        <time>2021-10-09 15:41:39</time>
      </trkpt>
      <trkpt lat="40.34518" lon="-1.88348">
        <ele>1621.4</ele>
        <time>2021-10-09 15:41:40</time>
      </trkpt>
      <trkpt lat="40.34519" lon="-1.88343">
        <ele>1621.4</ele>
        <time>2021-10-09 15:41:41</time>
      </trkpt>
      <trkpt lat="40.34521" lon="-1.88338">
        <ele>1621.4</ele>
        <time>2021-10-09 15:41:42</time>
      </trkpt>
      <trkpt lat="40.34524" lon="-1.88333">
        <ele>1621.8</ele>
        <time>2021-10-09 15:41:43</time>
      </trkpt>
      <trkpt lat="40.34527" lon="-1.88328">
        <ele>1621.8</ele>
        <time>2021-10-09 15:41:44</time>
      </trkpt>
      <trkpt lat="40.3453" lon="-1.88322">
        <ele>1621.8</ele>
        <time>2021-10-09 15:41:45</time>
      </trkpt>
      <trkpt lat="40.34533" lon="-1.88316">
        <ele>1621.8</ele>
        <time>2021-10-09 15:41:46</time>
      </trkpt>
      <trkpt lat="40.34535" lon="-1.88309">
        <ele>1621.8</ele>
        <time>2021-10-09 15:41:47</time>
      </trkpt>
      <trkpt lat="40.34536" lon="-1.88302">
        <ele>1621.8</ele>
        <time>2021-10-09 15:41:48</time>
      </trkpt>
      <trkpt lat="40.34536" lon="-1.88295">
        <ele>1623.4</ele>
        <time>2021-10-09 15:41:49</time>
      </trkpt>
      <trkpt lat="40.34535" lon="-1.88289">
        <ele>1622.8</ele>
        <time>2021-10-09 15:41:50</time>
      </trkpt>
      <trkpt lat="40.34534" lon="-1.88283">
        <ele>1622.8</ele>
        <time>2021-10-09 15:41:51</time>
      </trkpt>
      <trkpt lat="40.34531" lon="-1.88278">
        <ele>1622.6</ele>
        <time>2021-10-09 15:41:52</time>
      </trkpt>
      <trkpt lat="40.3453" lon="-1.88273">
        <ele>1622.2</ele>
        <time>2021-10-09 15:41:53</time>
      </trkpt>
      <trkpt lat="40.34527" lon="-1.88268">
        <ele>1622.2</ele>
        <time>2021-10-09 15:41:54</time>
      </trkpt>
      <trkpt lat="40.34525" lon="-1.88265">
        <ele>1622.2</ele>
        <time>2021-10-09 15:41:55</time>
      </trkpt>
      <trkpt lat="40.34523" lon="-1.8826">
        <ele>1622.2</ele>
        <time>2021-10-09 15:41:56</time>
      </trkpt>
      <trkpt lat="40.3452" lon="-1.88256">
        <ele>1622.2</ele>
        <time>2021-10-09 15:41:57</time>
      </trkpt>
      <trkpt lat="40.34518" lon="-1.88251">
        <ele>1622.6</ele>
        <time>2021-10-09 15:41:58</time>
      </trkpt>
      <trkpt lat="40.34515" lon="-1.88246">
        <ele>1622.6</ele>
        <time>2021-10-09 15:41:59</time>
      </trkpt>
      <trkpt lat="40.34513" lon="-1.88242">
        <ele>1622.8</ele>
        <time>2021-10-09 15:42:00</time>
      </trkpt>
      <trkpt lat="40.3451" lon="-1.88237">
        <ele>1622.8</ele>
        <time>2021-10-09 15:42:01</time>
      </trkpt>
      <trkpt lat="40.34508" lon="-1.88232">
        <ele>1622.8</ele>
        <time>2021-10-09 15:42:02</time>
      </trkpt>
      <trkpt lat="40.34505" lon="-1.88227">
        <ele>1622.8</ele>
        <time>2021-10-09 15:42:03</time>
      </trkpt>
      <trkpt lat="40.34502" lon="-1.88221">
        <ele>1623</ele>
        <time>2021-10-09 15:42:04</time>
      </trkpt>
      <trkpt lat="40.345" lon="-1.88216">
        <ele>1623</ele>
        <time>2021-10-09 15:42:05</time>
      </trkpt>
      <trkpt lat="40.34497" lon="-1.88211">
        <ele>1623</ele>
        <time>2021-10-09 15:42:06</time>
      </trkpt>
      <trkpt lat="40.34495" lon="-1.88206">
        <ele>1623.4</ele>
        <time>2021-10-09 15:42:07</time>
      </trkpt>
      <trkpt lat="40.34493" lon="-1.882">
        <ele>1623.4</ele>
        <time>2021-10-09 15:42:08</time>
      </trkpt>
      <trkpt lat="40.3449" lon="-1.88195">
        <ele>1623.4</ele>
        <time>2021-10-09 15:42:09</time>
      </trkpt>
      <trkpt lat="40.34488" lon="-1.88191">
        <ele>1623.4</ele>
        <time>2021-10-09 15:42:10</time>
      </trkpt>
      <trkpt lat="40.34485" lon="-1.88186">
        <ele>1623.4</ele>
        <time>2021-10-09 15:42:11</time>
      </trkpt>
      <trkpt lat="40.34483" lon="-1.8818">
        <ele>1623.6</ele>
        <time>2021-10-09 15:42:12</time>
      </trkpt>
      <trkpt lat="40.3448" lon="-1.88176">
        <ele>1623.6</ele>
        <time>2021-10-09 15:42:13</time>
      </trkpt>
      <trkpt lat="40.34477" lon="-1.88171">
        <ele>1623.6</ele>
        <time>2021-10-09 15:42:14</time>
      </trkpt>
      <trkpt lat="40.34474" lon="-1.88166">
        <ele>1623.6</ele>
        <time>2021-10-09 15:42:15</time>
      </trkpt>
      <trkpt lat="40.34471" lon="-1.88162">
        <ele>1623.6</ele>
        <time>2021-10-09 15:42:16</time>
      </trkpt>
      <trkpt lat="40.34467" lon="-1.88158">
        <ele>1623.6</ele>
        <time>2021-10-09 15:42:17</time>
      </trkpt>
      <trkpt lat="40.34463" lon="-1.88154">
        <ele>1623.6</ele>
        <time>2021-10-09 15:42:18</time>
      </trkpt>
      <trkpt lat="40.34458" lon="-1.88151">
        <ele>1623.4</ele>
        <time>2021-10-09 15:42:19</time>
      </trkpt>
      <trkpt lat="40.34454" lon="-1.88149">
        <ele>1623.4</ele>
        <time>2021-10-09 15:42:20</time>
      </trkpt>
      <trkpt lat="40.34449" lon="-1.88147">
        <ele>1623.4</ele>
        <time>2021-10-09 15:42:21</time>
      </trkpt>
      <trkpt lat="40.34444" lon="-1.88145">
        <ele>1623.4</ele>
        <time>2021-10-09 15:42:22</time>
      </trkpt>
      <trkpt lat="40.34439" lon="-1.88143">
        <ele>1623.4</ele>
        <time>2021-10-09 15:42:23</time>
      </trkpt>
      <trkpt lat="40.34434" lon="-1.8814">
        <ele>1623.4</ele>
        <time>2021-10-09 15:42:24</time>
      </trkpt>
      <trkpt lat="40.34428" lon="-1.88138">
        <ele>1623.8</ele>
        <time>2021-10-09 15:42:25</time>
      </trkpt>
      <trkpt lat="40.34423" lon="-1.88136">
        <ele>1623.8</ele>
        <time>2021-10-09 15:42:26</time>
      </trkpt>
      <trkpt lat="40.34418" lon="-1.88134">
        <ele>1623.6</ele>
        <time>2021-10-09 15:42:27</time>
      </trkpt>
      <trkpt lat="40.34412" lon="-1.88132">
        <ele>1623.6</ele>
        <time>2021-10-09 15:42:28</time>
      </trkpt>
      <trkpt lat="40.34407" lon="-1.8813">
        <ele>1623.4</ele>
        <time>2021-10-09 15:42:29</time>
      </trkpt>
      <trkpt lat="40.34402" lon="-1.88129">
        <ele>1623.4</ele>
        <time>2021-10-09 15:42:30</time>
      </trkpt>
      <trkpt lat="40.34397" lon="-1.8813">
        <ele>1623</ele>
        <time>2021-10-09 15:42:31</time>
      </trkpt>
      <trkpt lat="40.34392" lon="-1.88129">
        <ele>1623</ele>
        <time>2021-10-09 15:42:32</time>
      </trkpt>
      <trkpt lat="40.34387" lon="-1.88129">
        <ele>1623</ele>
        <time>2021-10-09 15:42:33</time>
      </trkpt>
      <trkpt lat="40.34382" lon="-1.88129">
        <ele>1623</ele>
        <time>2021-10-09 15:42:34</time>
      </trkpt>
      <trkpt lat="40.34377" lon="-1.88129">
        <ele>1622.8</ele>
        <time>2021-10-09 15:42:35</time>
      </trkpt>
      <trkpt lat="40.34371" lon="-1.88129">
        <ele>1622.8</ele>
        <time>2021-10-09 15:42:36</time>
      </trkpt>
      <trkpt lat="40.34366" lon="-1.8813">
        <ele>1622.4</ele>
        <time>2021-10-09 15:42:37</time>
      </trkpt>
      <trkpt lat="40.34361" lon="-1.88131">
        <ele>1622.4</ele>
        <time>2021-10-09 15:42:38</time>
      </trkpt>
      <trkpt lat="40.34355" lon="-1.8813">
        <ele>1622.4</ele>
        <time>2021-10-09 15:42:39</time>
      </trkpt>
      <trkpt lat="40.34351" lon="-1.88131">
        <ele>1622.4</ele>
        <time>2021-10-09 15:42:40</time>
      </trkpt>
      <trkpt lat="40.34346" lon="-1.88131">
        <ele>1622.8</ele>
        <time>2021-10-09 15:42:41</time>
      </trkpt>
      <trkpt lat="40.3434" lon="-1.88131">
        <ele>1622.8</ele>
        <time>2021-10-09 15:42:42</time>
      </trkpt>
      <trkpt lat="40.34336" lon="-1.8813">
        <ele>1622.8</ele>
        <time>2021-10-09 15:42:43</time>
      </trkpt>
      <trkpt lat="40.34331" lon="-1.88131">
        <ele>1622.2</ele>
        <time>2021-10-09 15:42:44</time>
      </trkpt>
      <trkpt lat="40.34325" lon="-1.8813">
        <ele>1622</ele>
        <time>2021-10-09 15:42:45</time>
      </trkpt>
      <trkpt lat="40.3432" lon="-1.8813">
        <ele>1621.6</ele>
        <time>2021-10-09 15:42:46</time>
      </trkpt>
      <trkpt lat="40.34315" lon="-1.88129">
        <ele>1621.6</ele>
        <time>2021-10-09 15:42:47</time>
      </trkpt>
      <trkpt lat="40.34311" lon="-1.88128">
        <ele>1621.2</ele>
        <time>2021-10-09 15:42:48</time>
      </trkpt>
      <trkpt lat="40.34306" lon="-1.88126">
        <ele>1621</ele>
        <time>2021-10-09 15:42:49</time>
      </trkpt>
      <trkpt lat="40.34301" lon="-1.88125">
        <ele>1621</ele>
        <time>2021-10-09 15:42:50</time>
      </trkpt>
      <trkpt lat="40.34296" lon="-1.88122">
        <ele>1621</ele>
        <time>2021-10-09 15:42:51</time>
      </trkpt>
      <trkpt lat="40.3429" lon="-1.8812">
        <ele>1620.4</ele>
        <time>2021-10-09 15:42:52</time>
      </trkpt>
      <trkpt lat="40.34286" lon="-1.88117">
        <ele>1620.4</ele>
        <time>2021-10-09 15:42:53</time>
      </trkpt>
      <trkpt lat="40.3428" lon="-1.88113">
        <ele>1620.2</ele>
        <time>2021-10-09 15:42:54</time>
      </trkpt>
      <trkpt lat="40.34276" lon="-1.88108">
        <ele>1619.8</ele>
        <time>2021-10-09 15:42:55</time>
      </trkpt>
      <trkpt lat="40.34273" lon="-1.88103">
        <ele>1619.8</ele>
        <time>2021-10-09 15:42:56</time>
      </trkpt>
      <trkpt lat="40.34268" lon="-1.88097">
        <ele>1619.8</ele>
        <time>2021-10-09 15:42:57</time>
      </trkpt>
      <trkpt lat="40.34265" lon="-1.88091">
        <ele>1619.8</ele>
        <time>2021-10-09 15:42:58</time>
      </trkpt>
      <trkpt lat="40.34262" lon="-1.88084">
        <ele>1619.8</ele>
        <time>2021-10-09 15:42:59</time>
      </trkpt>
      <trkpt lat="40.34259" lon="-1.88077">
        <ele>1619.8</ele>
        <time>2021-10-09 15:43:00</time>
      </trkpt>
      <trkpt lat="40.34257" lon="-1.88069">
        <ele>1619.8</ele>
        <time>2021-10-09 15:43:01</time>
      </trkpt>
      <trkpt lat="40.34256" lon="-1.88061">
        <ele>1619.6</ele>
        <time>2021-10-09 15:43:02</time>
      </trkpt>
      <trkpt lat="40.34257" lon="-1.88053">
        <ele>1619.6</ele>
        <time>2021-10-09 15:43:03</time>
      </trkpt>
      <trkpt lat="40.34258" lon="-1.88044">
        <ele>1619.2</ele>
        <time>2021-10-09 15:43:04</time>
      </trkpt>
      <trkpt lat="40.34262" lon="-1.88036">
        <ele>1619.2</ele>
        <time>2021-10-09 15:43:05</time>
      </trkpt>
      <trkpt lat="40.34266" lon="-1.88027">
        <ele>1618.8</ele>
        <time>2021-10-09 15:43:06</time>
      </trkpt>
      <trkpt lat="40.34272" lon="-1.8802">
        <ele>1618.2</ele>
        <time>2021-10-09 15:43:07</time>
      </trkpt>
      <trkpt lat="40.34279" lon="-1.88015">
        <ele>1617.6</ele>
        <time>2021-10-09 15:43:08</time>
      </trkpt>
      <trkpt lat="40.34287" lon="-1.88011">
        <ele>1617.4</ele>
        <time>2021-10-09 15:43:09</time>
      </trkpt>
      <trkpt lat="40.34295" lon="-1.88008">
        <ele>1616.6</ele>
        <time>2021-10-09 15:43:10</time>
      </trkpt>
      <trkpt lat="40.34304" lon="-1.88003">
        <ele>1616.2</ele>
        <time>2021-10-09 15:43:11</time>
      </trkpt>
      <trkpt lat="40.34311" lon="-1.87999">
        <ele>1615.6</ele>
        <time>2021-10-09 15:43:12</time>
      </trkpt>
      <trkpt lat="40.34319" lon="-1.87993">
        <ele>1615</ele>
        <time>2021-10-09 15:43:13</time>
      </trkpt>
      <trkpt lat="40.34326" lon="-1.87987">
        <ele>1614.6</ele>
        <time>2021-10-09 15:43:14</time>
      </trkpt>
      <trkpt lat="40.34333" lon="-1.87981">
        <ele>1613.8</ele>
        <time>2021-10-09 15:43:15</time>
      </trkpt>
      <trkpt lat="40.34339" lon="-1.87974">
        <ele>1613.2</ele>
        <time>2021-10-09 15:43:16</time>
      </trkpt>
      <trkpt lat="40.34342" lon="-1.87966">
        <ele>1612.8</ele>
        <time>2021-10-09 15:43:17</time>
      </trkpt>
      <trkpt lat="40.34344" lon="-1.87958">
        <ele>1612.2</ele>
        <time>2021-10-09 15:43:18</time>
      </trkpt>
      <trkpt lat="40.34345" lon="-1.8795">
        <ele>1611.6</ele>
        <time>2021-10-09 15:43:19</time>
      </trkpt>
      <trkpt lat="40.34342" lon="-1.87942">
        <ele>1611.6</ele>
        <time>2021-10-09 15:43:20</time>
      </trkpt>
      <trkpt lat="40.3434" lon="-1.87936">
        <ele>1611</ele>
        <time>2021-10-09 15:43:21</time>
      </trkpt>
      <trkpt lat="40.34335" lon="-1.87932">
        <ele>1610.4</ele>
        <time>2021-10-09 15:43:22</time>
      </trkpt>
      <trkpt lat="40.3433" lon="-1.87927">
        <ele>1609.8</ele>
        <time>2021-10-09 15:43:23</time>
      </trkpt>
      <trkpt lat="40.34325" lon="-1.87923">
        <ele>1609.4</ele>
        <time>2021-10-09 15:43:24</time>
      </trkpt>
      <trkpt lat="40.34319" lon="-1.87918">
        <ele>1609.2</ele>
        <time>2021-10-09 15:43:25</time>
      </trkpt>
      <trkpt lat="40.34313" lon="-1.87914">
        <ele>1608.8</ele>
        <time>2021-10-09 15:43:26</time>
      </trkpt>
      <trkpt lat="40.34307" lon="-1.87909">
        <ele>1608.4</ele>
        <time>2021-10-09 15:43:27</time>
      </trkpt>
      <trkpt lat="40.34301" lon="-1.87904">
        <ele>1607.6</ele>
        <time>2021-10-09 15:43:28</time>
      </trkpt>
      <trkpt lat="40.34295" lon="-1.87898">
        <ele>1607.2</ele>
        <time>2021-10-09 15:43:29</time>
      </trkpt>
      <trkpt lat="40.3429" lon="-1.87891">
        <ele>1606.6</ele>
        <time>2021-10-09 15:43:30</time>
      </trkpt>
      <trkpt lat="40.34285" lon="-1.87883">
        <ele>1606</ele>
        <time>2021-10-09 15:43:31</time>
      </trkpt>
      <trkpt lat="40.34281" lon="-1.87876">
        <ele>1605.4</ele>
        <time>2021-10-09 15:43:32</time>
      </trkpt>
      <trkpt lat="40.34276" lon="-1.87869">
        <ele>1604.6</ele>
        <time>2021-10-09 15:43:33</time>
      </trkpt>
      <trkpt lat="40.34271" lon="-1.87864">
        <ele>1604.2</ele>
        <time>2021-10-09 15:43:34</time>
      </trkpt>
      <trkpt lat="40.34264" lon="-1.87858">
        <ele>1603.6</ele>
        <time>2021-10-09 15:43:35</time>
      </trkpt>
      <trkpt lat="40.34255" lon="-1.87857">
        <ele>1602.8</ele>
        <time>2021-10-09 15:43:36</time>
      </trkpt>
      <trkpt lat="40.34247" lon="-1.87856">
        <ele>1602</ele>
        <time>2021-10-09 15:43:37</time>
      </trkpt>
      <trkpt lat="40.34239" lon="-1.87855">
        <ele>1601.4</ele>
        <time>2021-10-09 15:43:38</time>
      </trkpt>
      <trkpt lat="40.34231" lon="-1.87854">
        <ele>1600.6</ele>
        <time>2021-10-09 15:43:39</time>
      </trkpt>
      <trkpt lat="40.34223" lon="-1.87852">
        <ele>1599.8</ele>
        <time>2021-10-09 15:43:40</time>
      </trkpt>
      <trkpt lat="40.34215" lon="-1.8785">
        <ele>1599.2</ele>
        <time>2021-10-09 15:43:41</time>
      </trkpt>
      <trkpt lat="40.34207" lon="-1.87848">
        <ele>1598.8</ele>
        <time>2021-10-09 15:43:42</time>
      </trkpt>
      <trkpt lat="40.34199" lon="-1.87846">
        <ele>1598.2</ele>
        <time>2021-10-09 15:43:43</time>
      </trkpt>
      <trkpt lat="40.34192" lon="-1.87843">
        <ele>1597.4</ele>
        <time>2021-10-09 15:43:44</time>
      </trkpt>
      <trkpt lat="40.34184" lon="-1.87839">
        <ele>1596.6</ele>
        <time>2021-10-09 15:43:45</time>
      </trkpt>
      <trkpt lat="40.34175" lon="-1.87835">
        <ele>1596</ele>
        <time>2021-10-09 15:43:46</time>
      </trkpt>
      <trkpt lat="40.34167" lon="-1.8783">
        <ele>1595.4</ele>
        <time>2021-10-09 15:43:47</time>
      </trkpt>
      <trkpt lat="40.34159" lon="-1.87824">
        <ele>1595</ele>
        <time>2021-10-09 15:43:48</time>
      </trkpt>
      <trkpt lat="40.34151" lon="-1.87818">
        <ele>1594</ele>
        <time>2021-10-09 15:43:49</time>
      </trkpt>
      <trkpt lat="40.34145" lon="-1.87812">
        <ele>1593</ele>
        <time>2021-10-09 15:43:50</time>
      </trkpt>
      <trkpt lat="40.34137" lon="-1.87806">
        <ele>1592.8</ele>
        <time>2021-10-09 15:43:51</time>
      </trkpt>
      <trkpt lat="40.34131" lon="-1.87799">
        <ele>1592</ele>
        <time>2021-10-09 15:43:52</time>
      </trkpt>
      <trkpt lat="40.34124" lon="-1.87794">
        <ele>1591.2</ele>
        <time>2021-10-09 15:43:53</time>
      </trkpt>
      <trkpt lat="40.34118" lon="-1.87788">
        <ele>1591</ele>
        <time>2021-10-09 15:43:54</time>
      </trkpt>
      <trkpt lat="40.34113" lon="-1.87782">
        <ele>1590.2</ele>
        <time>2021-10-09 15:43:55</time>
      </trkpt>
      <trkpt lat="40.34107" lon="-1.87775">
        <ele>1589.4</ele>
        <time>2021-10-09 15:43:56</time>
      </trkpt>
      <trkpt lat="40.34102" lon="-1.87768">
        <ele>1588.6</ele>
        <time>2021-10-09 15:43:57</time>
      </trkpt>
      <trkpt lat="40.34095" lon="-1.87761">
        <ele>1587.8</ele>
        <time>2021-10-09 15:43:58</time>
      </trkpt>
      <trkpt lat="40.34091" lon="-1.87753">
        <ele>1587</ele>
        <time>2021-10-09 15:43:59</time>
      </trkpt>
      <trkpt lat="40.34087" lon="-1.87744">
        <ele>1586.4</ele>
        <time>2021-10-09 15:44:00</time>
      </trkpt>
      <trkpt lat="40.34082" lon="-1.87737">
        <ele>1586</ele>
        <time>2021-10-09 15:44:01</time>
      </trkpt>
      <trkpt lat="40.34077" lon="-1.87728">
        <ele>1586</ele>
        <time>2021-10-09 15:44:02</time>
      </trkpt>
      <trkpt lat="40.34074" lon="-1.87719">
        <ele>1585</ele>
        <time>2021-10-09 15:44:03</time>
      </trkpt>
      <trkpt lat="40.34072" lon="-1.8771">
        <ele>1585</ele>
        <time>2021-10-09 15:44:04</time>
      </trkpt>
      <trkpt lat="40.34071" lon="-1.87698">
        <ele>1584.6</ele>
        <time>2021-10-09 15:44:05</time>
      </trkpt>
      <trkpt lat="40.34076" lon="-1.8769">
        <ele>1583.4</ele>
        <time>2021-10-09 15:44:06</time>
      </trkpt>
      <trkpt lat="40.3408" lon="-1.87682">
        <ele>1582.6</ele>
        <time>2021-10-09 15:44:07</time>
      </trkpt>
      <trkpt lat="40.34085" lon="-1.87674">
        <ele>1582</ele>
        <time>2021-10-09 15:44:08</time>
      </trkpt>
      <trkpt lat="40.34092" lon="-1.87668">
        <ele>1581.4</ele>
        <time>2021-10-09 15:44:09</time>
      </trkpt>
      <trkpt lat="40.34098" lon="-1.87662">
        <ele>1580.8</ele>
        <time>2021-10-09 15:44:10</time>
      </trkpt>
      <trkpt lat="40.34105" lon="-1.87657">
        <ele>1580.4</ele>
        <time>2021-10-09 15:44:11</time>
      </trkpt>
      <trkpt lat="40.34111" lon="-1.87652">
        <ele>1579.8</ele>
        <time>2021-10-09 15:44:12</time>
      </trkpt>
      <trkpt lat="40.34117" lon="-1.87647">
        <ele>1579.4</ele>
        <time>2021-10-09 15:44:13</time>
      </trkpt>
      <trkpt lat="40.34122" lon="-1.87639">
        <ele>1579</ele>
        <time>2021-10-09 15:44:14</time>
      </trkpt>
      <trkpt lat="40.34126" lon="-1.8763">
        <ele>1578.8</ele>
        <time>2021-10-09 15:44:15</time>
      </trkpt>
      <trkpt lat="40.34127" lon="-1.87621">
        <ele>1578.4</ele>
        <time>2021-10-09 15:44:16</time>
      </trkpt>
      <trkpt lat="40.34126" lon="-1.87612">
        <ele>1577.8</ele>
        <time>2021-10-09 15:44:17</time>
      </trkpt>
      <trkpt lat="40.34126" lon="-1.87603">
        <ele>1577.4</ele>
        <time>2021-10-09 15:44:18</time>
      </trkpt>
      <trkpt lat="40.34123" lon="-1.87596">
        <ele>1577</ele>
        <time>2021-10-09 15:44:19</time>
      </trkpt>
      <trkpt lat="40.34116" lon="-1.8759">
        <ele>1576.4</ele>
        <time>2021-10-09 15:44:20</time>
      </trkpt>
      <trkpt lat="40.3411" lon="-1.87586">
        <ele>1576.2</ele>
        <time>2021-10-09 15:44:21</time>
      </trkpt>
      <trkpt lat="40.34102" lon="-1.87584">
        <ele>1575.8</ele>
        <time>2021-10-09 15:44:22</time>
      </trkpt>
      <trkpt lat="40.34095" lon="-1.87585">
        <ele>1575.8</ele>
        <time>2021-10-09 15:44:23</time>
      </trkpt>
      <trkpt lat="40.34088" lon="-1.87586">
        <ele>1575.6</ele>
        <time>2021-10-09 15:44:24</time>
      </trkpt>
      <trkpt lat="40.34082" lon="-1.87589">
        <ele>1575.4</ele>
        <time>2021-10-09 15:44:25</time>
      </trkpt>
      <trkpt lat="40.34076" lon="-1.87593">
        <ele>1575</ele>
        <time>2021-10-09 15:44:26</time>
      </trkpt>
      <trkpt lat="40.3407" lon="-1.87597">
        <ele>1574.8</ele>
        <time>2021-10-09 15:44:27</time>
      </trkpt>
      <trkpt lat="40.34064" lon="-1.87603">
        <ele>1574.6</ele>
        <time>2021-10-09 15:44:28</time>
      </trkpt>
      <trkpt lat="40.34057" lon="-1.87607">
        <ele>1574.6</ele>
        <time>2021-10-09 15:44:29</time>
      </trkpt>
      <trkpt lat="40.34052" lon="-1.87613">
        <ele>1574.2</ele>
        <time>2021-10-09 15:44:30</time>
      </trkpt>
      <trkpt lat="40.34047" lon="-1.8762">
        <ele>1573.8</ele>
        <time>2021-10-09 15:44:31</time>
      </trkpt>
      <trkpt lat="40.34041" lon="-1.87624">
        <ele>1573.6</ele>
        <time>2021-10-09 15:44:32</time>
      </trkpt>
      <trkpt lat="40.34036" lon="-1.87629">
        <ele>1573.4</ele>
        <time>2021-10-09 15:44:33</time>
      </trkpt>
      <trkpt lat="40.34031" lon="-1.87633">
        <ele>1573.4</ele>
        <time>2021-10-09 15:44:34</time>
      </trkpt>
      <trkpt lat="40.34025" lon="-1.87637">
        <ele>1573.4</ele>
        <time>2021-10-09 15:44:35</time>
      </trkpt>
      <trkpt lat="40.34017" lon="-1.87636">
        <ele>1573.4</ele>
        <time>2021-10-09 15:44:36</time>
      </trkpt>
      <trkpt lat="40.34009" lon="-1.87637">
        <ele>1573.4</ele>
        <time>2021-10-09 15:44:37</time>
      </trkpt>
      <trkpt lat="40.34003" lon="-1.87639">
        <ele>1573</ele>
        <time>2021-10-09 15:44:38</time>
      </trkpt>
      <trkpt lat="40.33995" lon="-1.87641">
        <ele>1573</ele>
        <time>2021-10-09 15:44:39</time>
      </trkpt>
      <trkpt lat="40.33988" lon="-1.87643">
        <ele>1572.8</ele>
        <time>2021-10-09 15:44:40</time>
      </trkpt>
      <trkpt lat="40.3398" lon="-1.87646">
        <ele>1572.6</ele>
        <time>2021-10-09 15:44:41</time>
      </trkpt>
      <trkpt lat="40.33974" lon="-1.87649">
        <ele>1572.4</ele>
        <time>2021-10-09 15:44:42</time>
      </trkpt>
      <trkpt lat="40.33967" lon="-1.87652">
        <ele>1572</ele>
        <time>2021-10-09 15:44:43</time>
      </trkpt>
      <trkpt lat="40.3396" lon="-1.87654">
        <ele>1571.8</ele>
        <time>2021-10-09 15:44:44</time>
      </trkpt>
      <trkpt lat="40.33953" lon="-1.87656">
        <ele>1571.2</ele>
        <time>2021-10-09 15:44:45</time>
      </trkpt>
      <trkpt lat="40.33946" lon="-1.87659">
        <ele>1571</ele>
        <time>2021-10-09 15:44:46</time>
      </trkpt>
      <trkpt lat="40.33939" lon="-1.8766">
        <ele>1570.6</ele>
        <time>2021-10-09 15:44:47</time>
      </trkpt>
      <trkpt lat="40.33932" lon="-1.87662">
        <ele>1570.2</ele>
        <time>2021-10-09 15:44:48</time>
      </trkpt>
      <trkpt lat="40.33925" lon="-1.87662">
        <ele>1569.8</ele>
        <time>2021-10-09 15:44:49</time>
      </trkpt>
      <trkpt lat="40.33918" lon="-1.87661">
        <ele>1569.4</ele>
        <time>2021-10-09 15:44:50</time>
      </trkpt>
      <trkpt lat="40.33911" lon="-1.87659">
        <ele>1569.2</ele>
        <time>2021-10-09 15:44:51</time>
      </trkpt>
      <trkpt lat="40.33906" lon="-1.87656">
        <ele>1568.8</ele>
        <time>2021-10-09 15:44:52</time>
      </trkpt>
      <trkpt lat="40.33898" lon="-1.87653">
        <ele>1568.6</ele>
        <time>2021-10-09 15:44:53</time>
      </trkpt>
      <trkpt lat="40.33891" lon="-1.87652">
        <ele>1568.6</ele>
        <time>2021-10-09 15:44:54</time>
      </trkpt>
      <trkpt lat="40.33883" lon="-1.87651">
        <ele>1568</ele>
        <time>2021-10-09 15:44:55</time>
      </trkpt>
      <trkpt lat="40.33877" lon="-1.87653">
        <ele>1567.6</ele>
        <time>2021-10-09 15:44:56</time>
      </trkpt>
      <trkpt lat="40.33871" lon="-1.87655">
        <ele>1567.6</ele>
        <time>2021-10-09 15:44:57</time>
      </trkpt>
      <trkpt lat="40.33865" lon="-1.87659">
        <ele>1567.2</ele>
        <time>2021-10-09 15:44:58</time>
      </trkpt>
      <trkpt lat="40.3386" lon="-1.87663">
        <ele>1566.8</ele>
        <time>2021-10-09 15:44:59</time>
      </trkpt>
      <trkpt lat="40.33856" lon="-1.87668">
        <ele>1566.2</ele>
        <time>2021-10-09 15:45:00</time>
      </trkpt>
      <trkpt lat="40.33852" lon="-1.87676">
        <ele>1565.8</ele>
        <time>2021-10-09 15:45:01</time>
      </trkpt>
      <trkpt lat="40.33848" lon="-1.87682">
        <ele>1565.6</ele>
        <time>2021-10-09 15:45:02</time>
      </trkpt>
      <trkpt lat="40.33843" lon="-1.87689">
        <ele>1565.6</ele>
        <time>2021-10-09 15:45:03</time>
      </trkpt>
      <trkpt lat="40.3384" lon="-1.87695">
        <ele>1565.2</ele>
        <time>2021-10-09 15:45:04</time>
      </trkpt>
      <trkpt lat="40.33836" lon="-1.87701">
        <ele>1565.2</ele>
        <time>2021-10-09 15:45:05</time>
      </trkpt>
      <trkpt lat="40.33833" lon="-1.87709">
        <ele>1564.8</ele>
        <time>2021-10-09 15:45:06</time>
      </trkpt>
      <trkpt lat="40.3383" lon="-1.87717">
        <ele>1564.8</ele>
        <time>2021-10-09 15:45:07</time>
      </trkpt>
      <trkpt lat="40.33827" lon="-1.87723">
        <ele>1564.4</ele>
        <time>2021-10-09 15:45:08</time>
      </trkpt>
      <trkpt lat="40.33824" lon="-1.87731">
        <ele>1564.4</ele>
        <time>2021-10-09 15:45:09</time>
      </trkpt>
      <trkpt lat="40.33821" lon="-1.87737">
        <ele>1564</ele>
        <time>2021-10-09 15:45:10</time>
      </trkpt>
      <trkpt lat="40.33818" lon="-1.87743">
        <ele>1564</ele>
        <time>2021-10-09 15:45:11</time>
      </trkpt>
      <trkpt lat="40.33816" lon="-1.87749">
        <ele>1563.8</ele>
        <time>2021-10-09 15:45:12</time>
      </trkpt>
      <trkpt lat="40.33813" lon="-1.87754">
        <ele>1563.8</ele>
        <time>2021-10-09 15:45:13</time>
      </trkpt>
      <trkpt lat="40.33812" lon="-1.87757">
        <ele>1563.4</ele>
        <time>2021-10-09 15:45:14</time>
      </trkpt>
      <trkpt lat="40.33811" lon="-1.8776">
        <ele>1563.4</ele>
        <time>2021-10-09 15:45:15</time>
      </trkpt>
      <trkpt lat="40.33809" lon="-1.87762">
        <ele>1563.4</ele>
        <time>2021-10-09 15:45:16</time>
      </trkpt>
      <trkpt lat="40.33808" lon="-1.87764">
        <ele>1563.2</ele>
        <time>2021-10-09 15:45:17</time>
      </trkpt>
      <trkpt lat="40.33807" lon="-1.87765">
        <ele>1563.2</ele>
        <time>2021-10-09 15:45:18</time>
      </trkpt>
      <trkpt lat="40.33806" lon="-1.87767">
        <ele>1563.2</ele>
        <time>2021-10-09 15:45:19</time>
      </trkpt>
      <trkpt lat="40.33804" lon="-1.87769">
        <ele>1563.2</ele>
        <time>2021-10-09 15:45:20</time>
      </trkpt>
      <trkpt lat="40.33803" lon="-1.8777">
        <ele>1563.2</ele>
        <time>2021-10-09 15:45:21</time>
      </trkpt>
      <trkpt lat="40.33802" lon="-1.87771">
        <ele>1563</ele>
        <time>2021-10-09 15:45:22</time>
      </trkpt>
      <trkpt lat="40.338" lon="-1.87773">
        <ele>1563</ele>
        <time>2021-10-09 15:45:23</time>
      </trkpt>
      <trkpt lat="40.33799" lon="-1.87776">
        <ele>1563</ele>
        <time>2021-10-09 15:45:24</time>
      </trkpt>
      <trkpt lat="40.33798" lon="-1.87779">
        <ele>1563</ele>
        <time>2021-10-09 15:45:25</time>
      </trkpt>
      <trkpt lat="40.33797" lon="-1.87782">
        <ele>1563</ele>
        <time>2021-10-09 15:45:26</time>
      </trkpt>
      <trkpt lat="40.33795" lon="-1.87785">
        <ele>1563</ele>
        <time>2021-10-09 15:45:27</time>
      </trkpt>
      <trkpt lat="40.33794" lon="-1.87789">
        <ele>1562.8</ele>
        <time>2021-10-09 15:45:28</time>
      </trkpt>
      <trkpt lat="40.33793" lon="-1.87791">
        <ele>1562.8</ele>
        <time>2021-10-09 15:45:29</time>
      </trkpt>
      <trkpt lat="40.33792" lon="-1.87793">
        <ele>1562.8</ele>
        <time>2021-10-09 15:45:30</time>
      </trkpt>
      <trkpt lat="40.33791" lon="-1.87795">
        <ele>1562.4</ele>
        <time>2021-10-09 15:45:31</time>
      </trkpt>
      <trkpt lat="40.33791" lon="-1.87797">
        <ele>1562.4</ele>
        <time>2021-10-09 15:45:32</time>
      </trkpt>
      <trkpt lat="40.3379" lon="-1.87798">
        <ele>1562.4</ele>
        <time>2021-10-09 15:45:33</time>
      </trkpt>
      <trkpt lat="40.3379" lon="-1.878">
        <ele>1562.4</ele>
        <time>2021-10-09 15:45:34</time>
      </trkpt>
      <trkpt lat="40.33789" lon="-1.87802">
        <ele>1562.4</ele>
        <time>2021-10-09 15:45:35</time>
      </trkpt>
      <trkpt lat="40.33788" lon="-1.87805">
        <ele>1562.4</ele>
        <time>2021-10-09 15:45:36</time>
      </trkpt>
      <trkpt lat="40.33787" lon="-1.87809">
        <ele>1562.4</ele>
        <time>2021-10-09 15:45:37</time>
      </trkpt>
      <trkpt lat="40.33785" lon="-1.87814">
        <ele>1562.4</ele>
        <time>2021-10-09 15:45:38</time>
      </trkpt>
      <trkpt lat="40.33783" lon="-1.87819">
        <ele>1562.4</ele>
        <time>2021-10-09 15:45:39</time>
      </trkpt>
      <trkpt lat="40.33781" lon="-1.87825">
        <ele>1562.4</ele>
        <time>2021-10-09 15:45:40</time>
      </trkpt>
      <trkpt lat="40.33778" lon="-1.8783">
        <ele>1562.4</ele>
        <time>2021-10-09 15:45:41</time>
      </trkpt>
      <trkpt lat="40.33775" lon="-1.87834">
        <ele>1562.4</ele>
        <time>2021-10-09 15:45:42</time>
      </trkpt>
      <trkpt lat="40.33773" lon="-1.87839">
        <ele>1562.4</ele>
        <time>2021-10-09 15:45:43</time>
      </trkpt>
      <trkpt lat="40.3377" lon="-1.87844">
        <ele>1562.8</ele>
        <time>2021-10-09 15:45:44</time>
      </trkpt>
      <trkpt lat="40.33767" lon="-1.87848">
        <ele>1562.8</ele>
        <time>2021-10-09 15:45:45</time>
      </trkpt>
      <trkpt lat="40.33763" lon="-1.87852">
        <ele>1562.8</ele>
        <time>2021-10-09 15:45:46</time>
      </trkpt>
      <trkpt lat="40.33759" lon="-1.87857">
        <ele>1562.8</ele>
        <time>2021-10-09 15:45:47</time>
      </trkpt>
      <trkpt lat="40.33754" lon="-1.87858">
        <ele>1563</ele>
        <time>2021-10-09 15:45:48</time>
      </trkpt>
      <trkpt lat="40.33751" lon="-1.87861">
        <ele>1563</ele>
        <time>2021-10-09 15:45:49</time>
      </trkpt>
      <trkpt lat="40.33748" lon="-1.87865">
        <ele>1563</ele>
        <time>2021-10-09 15:45:50</time>
      </trkpt>
      <trkpt lat="40.33742" lon="-1.87863">
        <ele>1562.6</ele>
        <time>2021-10-09 15:45:51</time>
      </trkpt>
      <trkpt lat="40.33738" lon="-1.87864">
        <ele>1562.6</ele>
        <time>2021-10-09 15:45:52</time>
      </trkpt>
      <trkpt lat="40.33735" lon="-1.87865">
        <ele>1562.6</ele>
        <time>2021-10-09 15:45:53</time>
      </trkpt>
      <trkpt lat="40.33731" lon="-1.87865">
        <ele>1562.6</ele>
        <time>2021-10-09 15:45:54</time>
      </trkpt>
      <trkpt lat="40.33727" lon="-1.87864">
        <ele>1562.6</ele>
        <time>2021-10-09 15:45:55</time>
      </trkpt>
      <trkpt lat="40.33724" lon="-1.87863">
        <ele>1562.6</ele>
        <time>2021-10-09 15:45:56</time>
      </trkpt>
      <trkpt lat="40.33719" lon="-1.87862">
        <ele>1562.6</ele>
        <time>2021-10-09 15:45:57</time>
      </trkpt>
      <trkpt lat="40.33715" lon="-1.87858">
        <ele>1562.6</ele>
        <time>2021-10-09 15:45:58</time>
      </trkpt>
      <trkpt lat="40.3371" lon="-1.87854">
        <ele>1562.4</ele>
        <time>2021-10-09 15:45:59</time>
      </trkpt>
      <trkpt lat="40.33706" lon="-1.8785">
        <ele>1562.4</ele>
        <time>2021-10-09 15:46:00</time>
      </trkpt>
      <trkpt lat="40.33702" lon="-1.87846">
        <ele>1562.2</ele>
        <time>2021-10-09 15:46:01</time>
      </trkpt>
      <trkpt lat="40.33698" lon="-1.87841">
        <ele>1562.2</ele>
        <time>2021-10-09 15:46:02</time>
      </trkpt>
      <trkpt lat="40.33694" lon="-1.87837">
        <ele>1561.8</ele>
        <time>2021-10-09 15:46:03</time>
      </trkpt>
      <trkpt lat="40.3369" lon="-1.87832">
        <ele>1561.8</ele>
        <time>2021-10-09 15:46:04</time>
      </trkpt>
      <trkpt lat="40.33686" lon="-1.87827">
        <ele>1561.4</ele>
        <time>2021-10-09 15:46:05</time>
      </trkpt>
      <trkpt lat="40.33682" lon="-1.87821">
        <ele>1561.4</ele>
        <time>2021-10-09 15:46:06</time>
      </trkpt>
      <trkpt lat="40.33678" lon="-1.87816">
        <ele>1561.2</ele>
        <time>2021-10-09 15:46:07</time>
      </trkpt>
      <trkpt lat="40.33674" lon="-1.8781">
        <ele>1561</ele>
        <time>2021-10-09 15:46:08</time>
      </trkpt>
      <trkpt lat="40.33671" lon="-1.87804">
        <ele>1561</ele>
        <time>2021-10-09 15:46:09</time>
      </trkpt>
      <trkpt lat="40.33667" lon="-1.87799">
        <ele>1560.6</ele>
        <time>2021-10-09 15:46:10</time>
      </trkpt>
      <trkpt lat="40.33664" lon="-1.87792">
        <ele>1560.6</ele>
        <time>2021-10-09 15:46:11</time>
      </trkpt>
      <trkpt lat="40.3366" lon="-1.87786">
        <ele>1560</ele>
        <time>2021-10-09 15:46:12</time>
      </trkpt>
      <trkpt lat="40.33657" lon="-1.87779">
        <ele>1560</ele>
        <time>2021-10-09 15:46:13</time>
      </trkpt>
      <trkpt lat="40.33653" lon="-1.87773">
        <ele>1559.8</ele>
        <time>2021-10-09 15:46:14</time>
      </trkpt>
      <trkpt lat="40.3365" lon="-1.87766">
        <ele>1559.4</ele>
        <time>2021-10-09 15:46:15</time>
      </trkpt>
      <trkpt lat="40.33647" lon="-1.8776">
        <ele>1559</ele>
        <time>2021-10-09 15:46:16</time>
      </trkpt>
      <trkpt lat="40.33646" lon="-1.87755">
        <ele>1558.8</ele>
        <time>2021-10-09 15:46:17</time>
      </trkpt>
      <trkpt lat="40.33642" lon="-1.87748">
        <ele>1558.6</ele>
        <time>2021-10-09 15:46:18</time>
      </trkpt>
      <trkpt lat="40.33639" lon="-1.87743">
        <ele>1558.6</ele>
        <time>2021-10-09 15:46:19</time>
      </trkpt>
      <trkpt lat="40.33634" lon="-1.8774">
        <ele>1558.6</ele>
        <time>2021-10-09 15:46:20</time>
      </trkpt>
      <trkpt lat="40.33629" lon="-1.87737">
        <ele>1558.6</ele>
        <time>2021-10-09 15:46:21</time>
      </trkpt>
      <trkpt lat="40.33624" lon="-1.87736">
        <ele>1558.6</ele>
        <time>2021-10-09 15:46:22</time>
      </trkpt>
      <trkpt lat="40.33619" lon="-1.87736">
        <ele>1558</ele>
        <time>2021-10-09 15:46:23</time>
      </trkpt>
      <trkpt lat="40.33614" lon="-1.87737">
        <ele>1557.6</ele>
        <time>2021-10-09 15:46:24</time>
      </trkpt>
      <trkpt lat="40.33608" lon="-1.87738">
        <ele>1557.4</ele>
        <time>2021-10-09 15:46:25</time>
      </trkpt>
      <trkpt lat="40.33602" lon="-1.87741">
        <ele>1557.4</ele>
        <time>2021-10-09 15:46:26</time>
      </trkpt>
      <trkpt lat="40.33596" lon="-1.87743">
        <ele>1557</ele>
        <time>2021-10-09 15:46:27</time>
      </trkpt>
      <trkpt lat="40.3359" lon="-1.87746">
        <ele>1556.8</ele>
        <time>2021-10-09 15:46:28</time>
      </trkpt>
      <trkpt lat="40.33584" lon="-1.87747">
        <ele>1556.8</ele>
        <time>2021-10-09 15:46:29</time>
      </trkpt>
      <trkpt lat="40.33577" lon="-1.8775">
        <ele>1556.4</ele>
        <time>2021-10-09 15:46:30</time>
      </trkpt>
      <trkpt lat="40.33572" lon="-1.87752">
        <ele>1556.2</ele>
        <time>2021-10-09 15:46:31</time>
      </trkpt>
      <trkpt lat="40.33566" lon="-1.87755">
        <ele>1556</ele>
        <time>2021-10-09 15:46:32</time>
      </trkpt>
      <trkpt lat="40.33559" lon="-1.87758">
        <ele>1555.6</ele>
        <time>2021-10-09 15:46:33</time>
      </trkpt>
      <trkpt lat="40.33553" lon="-1.87761">
        <ele>1555.4</ele>
        <time>2021-10-09 15:46:34</time>
      </trkpt>
      <trkpt lat="40.33547" lon="-1.87765">
        <ele>1555.2</ele>
        <time>2021-10-09 15:46:35</time>
      </trkpt>
      <trkpt lat="40.33541" lon="-1.87768">
        <ele>1555</ele>
        <time>2021-10-09 15:46:36</time>
      </trkpt>
      <trkpt lat="40.33535" lon="-1.87771">
        <ele>1555</ele>
        <time>2021-10-09 15:46:37</time>
      </trkpt>
      <trkpt lat="40.33529" lon="-1.87775">
        <ele>1554.4</ele>
        <time>2021-10-09 15:46:38</time>
      </trkpt>
      <trkpt lat="40.33523" lon="-1.87779">
        <ele>1554.4</ele>
        <time>2021-10-09 15:46:39</time>
      </trkpt>
      <trkpt lat="40.33517" lon="-1.87785">
        <ele>1554</ele>
        <time>2021-10-09 15:46:40</time>
      </trkpt>
      <trkpt lat="40.3351" lon="-1.87787">
        <ele>1554</ele>
        <time>2021-10-09 15:46:41</time>
      </trkpt>
      <trkpt lat="40.33505" lon="-1.87794">
        <ele>1553.8</ele>
        <time>2021-10-09 15:46:42</time>
      </trkpt>
      <trkpt lat="40.33499" lon="-1.87798">
        <ele>1553.8</ele>
        <time>2021-10-09 15:46:43</time>
      </trkpt>
      <trkpt lat="40.33493" lon="-1.87803">
        <ele>1553.6</ele>
        <time>2021-10-09 15:46:44</time>
      </trkpt>
      <trkpt lat="40.33487" lon="-1.87808">
        <ele>1553.6</ele>
        <time>2021-10-09 15:46:45</time>
      </trkpt>
      <trkpt lat="40.33481" lon="-1.87813">
        <ele>1553.4</ele>
        <time>2021-10-09 15:46:46</time>
      </trkpt>
      <trkpt lat="40.33475" lon="-1.87816">
        <ele>1553.4</ele>
        <time>2021-10-09 15:46:47</time>
      </trkpt>
      <trkpt lat="40.33468" lon="-1.87818">
        <ele>1553</ele>
        <time>2021-10-09 15:46:48</time>
      </trkpt>
      <trkpt lat="40.33461" lon="-1.8782">
        <ele>1553</ele>
        <time>2021-10-09 15:46:49</time>
      </trkpt>
      <trkpt lat="40.33454" lon="-1.87821">
        <ele>1552.8</ele>
        <time>2021-10-09 15:46:50</time>
      </trkpt>
      <trkpt lat="40.33447" lon="-1.87822">
        <ele>1552.6</ele>
        <time>2021-10-09 15:46:51</time>
      </trkpt>
      <trkpt lat="40.33441" lon="-1.87823">
        <ele>1552.6</ele>
        <time>2021-10-09 15:46:52</time>
      </trkpt>
      <trkpt lat="40.33434" lon="-1.87822">
        <ele>1552.4</ele>
        <time>2021-10-09 15:46:53</time>
      </trkpt>
      <trkpt lat="40.33426" lon="-1.87821">
        <ele>1552</ele>
        <time>2021-10-09 15:46:54</time>
      </trkpt>
      <trkpt lat="40.3342" lon="-1.8782">
        <ele>1552</ele>
        <time>2021-10-09 15:46:55</time>
      </trkpt>
      <trkpt lat="40.33413" lon="-1.87819">
        <ele>1551.8</ele>
        <time>2021-10-09 15:46:56</time>
      </trkpt>
      <trkpt lat="40.33405" lon="-1.87818">
        <ele>1551.8</ele>
        <time>2021-10-09 15:46:57</time>
      </trkpt>
      <trkpt lat="40.33398" lon="-1.87817">
        <ele>1551.8</ele>
        <time>2021-10-09 15:46:58</time>
      </trkpt>
      <trkpt lat="40.33391" lon="-1.87816">
        <ele>1551.4</ele>
        <time>2021-10-09 15:46:59</time>
      </trkpt>
      <trkpt lat="40.33386" lon="-1.87817">
        <ele>1551.4</ele>
        <time>2021-10-09 15:47:00</time>
      </trkpt>
      <trkpt lat="40.3338" lon="-1.87819">
        <ele>1551.2</ele>
        <time>2021-10-09 15:47:01</time>
      </trkpt>
      <trkpt lat="40.33375" lon="-1.87821">
        <ele>1551.2</ele>
        <time>2021-10-09 15:47:02</time>
      </trkpt>
      <trkpt lat="40.33368" lon="-1.87824">
        <ele>1551</ele>
        <time>2021-10-09 15:47:03</time>
      </trkpt>
      <trkpt lat="40.33361" lon="-1.87828">
        <ele>1551</ele>
        <time>2021-10-09 15:47:04</time>
      </trkpt>
      <trkpt lat="40.33355" lon="-1.87832">
        <ele>1550.8</ele>
        <time>2021-10-09 15:47:05</time>
      </trkpt>
      <trkpt lat="40.33348" lon="-1.87836">
        <ele>1550.4</ele>
        <time>2021-10-09 15:47:06</time>
      </trkpt>
      <trkpt lat="40.33341" lon="-1.8784">
        <ele>1550</ele>
        <time>2021-10-09 15:47:07</time>
      </trkpt>
      <trkpt lat="40.33335" lon="-1.87845">
        <ele>1549.8</ele>
        <time>2021-10-09 15:47:08</time>
      </trkpt>
      <trkpt lat="40.33328" lon="-1.87851">
        <ele>1549.6</ele>
        <time>2021-10-09 15:47:09</time>
      </trkpt>
      <trkpt lat="40.33322" lon="-1.87857">
        <ele>1549.4</ele>
        <time>2021-10-09 15:47:10</time>
      </trkpt>
      <trkpt lat="40.33314" lon="-1.87861">
        <ele>1549</ele>
        <time>2021-10-09 15:47:11</time>
      </trkpt>
      <trkpt lat="40.33308" lon="-1.87866">
        <ele>1548.6</ele>
        <time>2021-10-09 15:47:12</time>
      </trkpt>
      <trkpt lat="40.33302" lon="-1.87872">
        <ele>1548.4</ele>
        <time>2021-10-09 15:47:13</time>
      </trkpt>
      <trkpt lat="40.33295" lon="-1.87876">
        <ele>1548.4</ele>
        <time>2021-10-09 15:47:14</time>
      </trkpt>
      <trkpt lat="40.33289" lon="-1.87883">
        <ele>1548</ele>
        <time>2021-10-09 15:47:15</time>
      </trkpt>
      <trkpt lat="40.33283" lon="-1.87889">
        <ele>1547.8</ele>
        <time>2021-10-09 15:47:16</time>
      </trkpt>
      <trkpt lat="40.33277" lon="-1.87895">
        <ele>1547.4</ele>
        <time>2021-10-09 15:47:17</time>
      </trkpt>
      <trkpt lat="40.33271" lon="-1.879">
        <ele>1547</ele>
        <time>2021-10-09 15:47:18</time>
      </trkpt>
      <trkpt lat="40.33267" lon="-1.87907">
        <ele>1547</ele>
        <time>2021-10-09 15:47:19</time>
      </trkpt>
      <trkpt lat="40.33261" lon="-1.87913">
        <ele>1546.8</ele>
        <time>2021-10-09 15:47:20</time>
      </trkpt>
      <trkpt lat="40.33256" lon="-1.87919">
        <ele>1546.6</ele>
        <time>2021-10-09 15:47:21</time>
      </trkpt>
      <trkpt lat="40.33249" lon="-1.87924">
        <ele>1546.4</ele>
        <time>2021-10-09 15:47:22</time>
      </trkpt>
      <trkpt lat="40.33243" lon="-1.87929">
        <ele>1546.4</ele>
        <time>2021-10-09 15:47:23</time>
      </trkpt>
      <trkpt lat="40.33236" lon="-1.87933">
        <ele>1546</ele>
        <time>2021-10-09 15:47:24</time>
      </trkpt>
      <trkpt lat="40.33229" lon="-1.87937">
        <ele>1545.8</ele>
        <time>2021-10-09 15:47:25</time>
      </trkpt>
      <trkpt lat="40.33223" lon="-1.87939">
        <ele>1545.8</ele>
        <time>2021-10-09 15:47:26</time>
      </trkpt>
      <trkpt lat="40.33215" lon="-1.8794">
        <ele>1545.4</ele>
        <time>2021-10-09 15:47:27</time>
      </trkpt>
      <trkpt lat="40.33208" lon="-1.87943">
        <ele>1545.4</ele>
        <time>2021-10-09 15:47:28</time>
      </trkpt>
      <trkpt lat="40.33201" lon="-1.87947">
        <ele>1545.2</ele>
        <time>2021-10-09 15:47:29</time>
      </trkpt>
      <trkpt lat="40.33195" lon="-1.87952">
        <ele>1545.2</ele>
        <time>2021-10-09 15:47:30</time>
      </trkpt>
      <trkpt lat="40.33189" lon="-1.87956">
        <ele>1544.8</ele>
        <time>2021-10-09 15:47:31</time>
      </trkpt>
      <trkpt lat="40.33183" lon="-1.87962">
        <ele>1544.8</ele>
        <time>2021-10-09 15:47:32</time>
      </trkpt>
      <trkpt lat="40.33177" lon="-1.87968">
        <ele>1544.6</ele>
        <time>2021-10-09 15:47:33</time>
      </trkpt>
      <trkpt lat="40.33172" lon="-1.87975">
        <ele>1544.6</ele>
        <time>2021-10-09 15:47:34</time>
      </trkpt>
      <trkpt lat="40.33167" lon="-1.87982">
        <ele>1544.4</ele>
        <time>2021-10-09 15:47:35</time>
      </trkpt>
      <trkpt lat="40.33163" lon="-1.8799">
        <ele>1544</ele>
        <time>2021-10-09 15:47:36</time>
      </trkpt>
      <trkpt lat="40.3316" lon="-1.87999">
        <ele>1544</ele>
        <time>2021-10-09 15:47:37</time>
      </trkpt>
      <trkpt lat="40.33157" lon="-1.88007">
        <ele>1543.6</ele>
        <time>2021-10-09 15:47:38</time>
      </trkpt>
      <trkpt lat="40.33152" lon="-1.88015">
        <ele>1543.6</ele>
        <time>2021-10-09 15:47:39</time>
      </trkpt>
      <trkpt lat="40.33149" lon="-1.88023">
        <ele>1543.6</ele>
        <time>2021-10-09 15:47:40</time>
      </trkpt>
      <trkpt lat="40.33145" lon="-1.88031">
        <ele>1543.2</ele>
        <time>2021-10-09 15:47:41</time>
      </trkpt>
      <trkpt lat="40.33141" lon="-1.88039">
        <ele>1543.2</ele>
        <time>2021-10-09 15:47:42</time>
      </trkpt>
      <trkpt lat="40.33137" lon="-1.88047">
        <ele>1542.8</ele>
        <time>2021-10-09 15:47:43</time>
      </trkpt>
      <trkpt lat="40.33133" lon="-1.88054">
        <ele>1542.8</ele>
        <time>2021-10-09 15:47:44</time>
      </trkpt>
      <trkpt lat="40.3313" lon="-1.88062">
        <ele>1542</ele>
        <time>2021-10-09 15:47:45</time>
      </trkpt>
      <trkpt lat="40.33126" lon="-1.8807">
        <ele>1542</ele>
        <time>2021-10-09 15:47:46</time>
      </trkpt>
      <trkpt lat="40.33123" lon="-1.88078">
        <ele>1541.6</ele>
        <time>2021-10-09 15:47:47</time>
      </trkpt>
      <trkpt lat="40.33119" lon="-1.88086">
        <ele>1541.6</ele>
        <time>2021-10-09 15:47:48</time>
      </trkpt>
      <trkpt lat="40.33116" lon="-1.88095">
        <ele>1541.6</ele>
        <time>2021-10-09 15:47:49</time>
      </trkpt>
      <trkpt lat="40.33114" lon="-1.88105">
        <ele>1541.6</ele>
        <time>2021-10-09 15:47:50</time>
      </trkpt>
      <trkpt lat="40.33111" lon="-1.88115">
        <ele>1541.4</ele>
        <time>2021-10-09 15:47:51</time>
      </trkpt>
      <trkpt lat="40.33109" lon="-1.88124">
        <ele>1541.2</ele>
        <time>2021-10-09 15:47:52</time>
      </trkpt>
      <trkpt lat="40.33108" lon="-1.88133">
        <ele>1541.2</ele>
        <time>2021-10-09 15:47:53</time>
      </trkpt>
      <trkpt lat="40.33107" lon="-1.88143">
        <ele>1540.8</ele>
        <time>2021-10-09 15:47:54</time>
      </trkpt>
      <trkpt lat="40.33105" lon="-1.88153">
        <ele>1540.4</ele>
        <time>2021-10-09 15:47:55</time>
      </trkpt>
      <trkpt lat="40.33103" lon="-1.88162">
        <ele>1540.2</ele>
        <time>2021-10-09 15:47:56</time>
      </trkpt>
      <trkpt lat="40.33101" lon="-1.88171">
        <ele>1539.8</ele>
        <time>2021-10-09 15:47:57</time>
      </trkpt>
      <trkpt lat="40.33099" lon="-1.8818">
        <ele>1539.6</ele>
        <time>2021-10-09 15:47:58</time>
      </trkpt>
      <trkpt lat="40.33096" lon="-1.88189">
        <ele>1539.2</ele>
        <time>2021-10-09 15:47:59</time>
      </trkpt>
      <trkpt lat="40.33095" lon="-1.88198">
        <ele>1538.8</ele>
        <time>2021-10-09 15:48:00</time>
      </trkpt>
      <trkpt lat="40.3309" lon="-1.88206">
        <ele>1538.8</ele>
        <time>2021-10-09 15:48:01</time>
      </trkpt>
      <trkpt lat="40.33086" lon="-1.88214">
        <ele>1538.2</ele>
        <time>2021-10-09 15:48:02</time>
      </trkpt>
      <trkpt lat="40.33079" lon="-1.8822">
        <ele>1538</ele>
        <time>2021-10-09 15:48:03</time>
      </trkpt>
      <trkpt lat="40.33074" lon="-1.88227">
        <ele>1537.8</ele>
        <time>2021-10-09 15:48:04</time>
      </trkpt>
      <trkpt lat="40.33067" lon="-1.88233">
        <ele>1537.8</ele>
        <time>2021-10-09 15:48:05</time>
      </trkpt>
      <trkpt lat="40.33061" lon="-1.8824">
        <ele>1537.8</ele>
        <time>2021-10-09 15:48:06</time>
      </trkpt>
      <trkpt lat="40.33054" lon="-1.88246">
        <ele>1537.6</ele>
        <time>2021-10-09 15:48:07</time>
      </trkpt>
      <trkpt lat="40.33047" lon="-1.88251">
        <ele>1537.6</ele>
        <time>2021-10-09 15:48:08</time>
      </trkpt>
      <trkpt lat="40.33041" lon="-1.88257">
        <ele>1537.2</ele>
        <time>2021-10-09 15:48:09</time>
      </trkpt>
      <trkpt lat="40.33035" lon="-1.88262">
        <ele>1536.8</ele>
        <time>2021-10-09 15:48:10</time>
      </trkpt>
      <trkpt lat="40.33029" lon="-1.88269">
        <ele>1536.6</ele>
        <time>2021-10-09 15:48:11</time>
      </trkpt>
      <trkpt lat="40.33023" lon="-1.88275">
        <ele>1536.2</ele>
        <time>2021-10-09 15:48:12</time>
      </trkpt>
      <trkpt lat="40.33018" lon="-1.88282">
        <ele>1536</ele>
        <time>2021-10-09 15:48:13</time>
      </trkpt>
      <trkpt lat="40.33012" lon="-1.88287">
        <ele>1535.8</ele>
        <time>2021-10-09 15:48:14</time>
      </trkpt>
      <trkpt lat="40.33006" lon="-1.88293">
        <ele>1535.4</ele>
        <time>2021-10-09 15:48:15</time>
      </trkpt>
      <trkpt lat="40.33" lon="-1.88299">
        <ele>1535.4</ele>
        <time>2021-10-09 15:48:16</time>
      </trkpt>
      <trkpt lat="40.32993" lon="-1.88304">
        <ele>1535.4</ele>
        <time>2021-10-09 15:48:17</time>
      </trkpt>
      <trkpt lat="40.32987" lon="-1.88309">
        <ele>1535</ele>
        <time>2021-10-09 15:48:18</time>
      </trkpt>
      <trkpt lat="40.32981" lon="-1.88315">
        <ele>1535</ele>
        <time>2021-10-09 15:48:19</time>
      </trkpt>
      <trkpt lat="40.32975" lon="-1.8832">
        <ele>1534.6</ele>
        <time>2021-10-09 15:48:20</time>
      </trkpt>
      <trkpt lat="40.3297" lon="-1.88327">
        <ele>1534.4</ele>
        <time>2021-10-09 15:48:21</time>
      </trkpt>
      <trkpt lat="40.32966" lon="-1.88333">
        <ele>1534</ele>
        <time>2021-10-09 15:48:22</time>
      </trkpt>
      <trkpt lat="40.32962" lon="-1.8834">
        <ele>1534</ele>
        <time>2021-10-09 15:48:23</time>
      </trkpt>
      <trkpt lat="40.3296" lon="-1.88348">
        <ele>1533.6</ele>
        <time>2021-10-09 15:48:24</time>
      </trkpt>
      <trkpt lat="40.32959" lon="-1.88354">
        <ele>1533.6</ele>
        <time>2021-10-09 15:48:25</time>
      </trkpt>
      <trkpt lat="40.32956" lon="-1.88363">
        <ele>1533</ele>
        <time>2021-10-09 15:48:26</time>
      </trkpt>
      <trkpt lat="40.32955" lon="-1.88372">
        <ele>1532.8</ele>
        <time>2021-10-09 15:48:27</time>
      </trkpt>
      <trkpt lat="40.32954" lon="-1.88381">
        <ele>1532.4</ele>
        <time>2021-10-09 15:48:28</time>
      </trkpt>
      <trkpt lat="40.32953" lon="-1.88391">
        <ele>1532.2</ele>
        <time>2021-10-09 15:48:29</time>
      </trkpt>
      <trkpt lat="40.32953" lon="-1.884">
        <ele>1531.8</ele>
        <time>2021-10-09 15:48:30</time>
      </trkpt>
      <trkpt lat="40.32951" lon="-1.8841">
        <ele>1531.4</ele>
        <time>2021-10-09 15:48:31</time>
      </trkpt>
      <trkpt lat="40.3295" lon="-1.8842">
        <ele>1531</ele>
        <time>2021-10-09 15:48:32</time>
      </trkpt>
      <trkpt lat="40.32948" lon="-1.8843">
        <ele>1531</ele>
        <time>2021-10-09 15:48:33</time>
      </trkpt>
      <trkpt lat="40.32946" lon="-1.88438">
        <ele>1530.6</ele>
        <time>2021-10-09 15:48:34</time>
      </trkpt>
      <trkpt lat="40.32943" lon="-1.88447">
        <ele>1530.2</ele>
        <time>2021-10-09 15:48:35</time>
      </trkpt>
      <trkpt lat="40.3294" lon="-1.88456">
        <ele>1530</ele>
        <time>2021-10-09 15:48:36</time>
      </trkpt>
      <trkpt lat="40.32936" lon="-1.88464">
        <ele>1529.8</ele>
        <time>2021-10-09 15:48:37</time>
      </trkpt>
      <trkpt lat="40.32931" lon="-1.88472">
        <ele>1529.4</ele>
        <time>2021-10-09 15:48:38</time>
      </trkpt>
      <trkpt lat="40.32925" lon="-1.88478">
        <ele>1529.4</ele>
        <time>2021-10-09 15:48:39</time>
      </trkpt>
      <trkpt lat="40.3292" lon="-1.88485">
        <ele>1529</ele>
        <time>2021-10-09 15:48:40</time>
      </trkpt>
      <trkpt lat="40.32913" lon="-1.88492">
        <ele>1528.8</ele>
        <time>2021-10-09 15:48:41</time>
      </trkpt>
      <trkpt lat="40.32908" lon="-1.88498">
        <ele>1528.8</ele>
        <time>2021-10-09 15:48:42</time>
      </trkpt>
      <trkpt lat="40.32902" lon="-1.88506">
        <ele>1528.4</ele>
        <time>2021-10-09 15:48:43</time>
      </trkpt>
      <trkpt lat="40.32897" lon="-1.88514">
        <ele>1528.4</ele>
        <time>2021-10-09 15:48:44</time>
      </trkpt>
      <trkpt lat="40.3289" lon="-1.8852">
        <ele>1528</ele>
        <time>2021-10-09 15:48:45</time>
      </trkpt>
      <trkpt lat="40.32883" lon="-1.88526">
        <ele>1527.8</ele>
        <time>2021-10-09 15:48:46</time>
      </trkpt>
      <trkpt lat="40.32877" lon="-1.88531">
        <ele>1527.8</ele>
        <time>2021-10-09 15:48:47</time>
      </trkpt>
      <trkpt lat="40.32871" lon="-1.88534">
        <ele>1527.4</ele>
        <time>2021-10-09 15:48:48</time>
      </trkpt>
      <trkpt lat="40.32862" lon="-1.88538">
        <ele>1527.4</ele>
        <time>2021-10-09 15:48:49</time>
      </trkpt>
      <trkpt lat="40.32855" lon="-1.88538">
        <ele>1527.4</ele>
        <time>2021-10-09 15:48:50</time>
      </trkpt>
      <trkpt lat="40.32848" lon="-1.88536">
        <ele>1527.2</ele>
        <time>2021-10-09 15:48:51</time>
      </trkpt>
      <trkpt lat="40.3284" lon="-1.88534">
        <ele>1527</ele>
        <time>2021-10-09 15:48:52</time>
      </trkpt>
      <trkpt lat="40.32833" lon="-1.88532">
        <ele>1527</ele>
        <time>2021-10-09 15:48:53</time>
      </trkpt>
      <trkpt lat="40.32826" lon="-1.8853">
        <ele>1526.6</ele>
        <time>2021-10-09 15:48:54</time>
      </trkpt>
      <trkpt lat="40.3282" lon="-1.88526">
        <ele>1526.6</ele>
        <time>2021-10-09 15:48:55</time>
      </trkpt>
      <trkpt lat="40.32815" lon="-1.88523">
        <ele>1526.6</ele>
        <time>2021-10-09 15:48:56</time>
      </trkpt>
      <trkpt lat="40.32806" lon="-1.8852">
        <ele>1526.6</ele>
        <time>2021-10-09 15:48:57</time>
      </trkpt>
      <trkpt lat="40.328" lon="-1.88519">
        <ele>1526.2</ele>
        <time>2021-10-09 15:48:58</time>
      </trkpt>
      <trkpt lat="40.32791" lon="-1.88513">
        <ele>1525.8</ele>
        <time>2021-10-09 15:48:59</time>
      </trkpt>
      <trkpt lat="40.32783" lon="-1.88509">
        <ele>1525.8</ele>
        <time>2021-10-09 15:49:00</time>
      </trkpt>
      <trkpt lat="40.32775" lon="-1.88506">
        <ele>1525.8</ele>
        <time>2021-10-09 15:49:01</time>
      </trkpt>
      <trkpt lat="40.32766" lon="-1.88502">
        <ele>1525.4</ele>
        <time>2021-10-09 15:49:02</time>
      </trkpt>
      <trkpt lat="40.32758" lon="-1.88499">
        <ele>1525.2</ele>
        <time>2021-10-09 15:49:03</time>
      </trkpt>
      <trkpt lat="40.3275" lon="-1.88496">
        <ele>1525.2</ele>
        <time>2021-10-09 15:49:04</time>
      </trkpt>
      <trkpt lat="40.32745" lon="-1.88493">
        <ele>1524.8</ele>
        <time>2021-10-09 15:49:05</time>
      </trkpt>
      <trkpt lat="40.32737" lon="-1.88491">
        <ele>1524.8</ele>
        <time>2021-10-09 15:49:06</time>
      </trkpt>
      <trkpt lat="40.3273" lon="-1.8849">
        <ele>1524.8</ele>
        <time>2021-10-09 15:49:07</time>
      </trkpt>
      <trkpt lat="40.32723" lon="-1.8849">
        <ele>1524.8</ele>
        <time>2021-10-09 15:49:08</time>
      </trkpt>
      <trkpt lat="40.32715" lon="-1.88492">
        <ele>1524.8</ele>
        <time>2021-10-09 15:49:09</time>
      </trkpt>
      <trkpt lat="40.32709" lon="-1.88496">
        <ele>1524.4</ele>
        <time>2021-10-09 15:49:10</time>
      </trkpt>
      <trkpt lat="40.32705" lon="-1.88499">
        <ele>1524.2</ele>
        <time>2021-10-09 15:49:11</time>
      </trkpt>
      <trkpt lat="40.32702" lon="-1.88501">
        <ele>1524.2</ele>
        <time>2021-10-09 15:49:12</time>
      </trkpt>
      <trkpt lat="40.327" lon="-1.88503">
        <ele>1523.8</ele>
        <time>2021-10-09 15:49:13</time>
      </trkpt>
      <trkpt lat="40.327" lon="-1.88503">
        <ele>1523.8</ele>
        <time>2021-10-09 15:49:14</time>
      </trkpt>
      <trkpt lat="40.327" lon="-1.88503">
        <ele>1523.6</ele>
        <time>2021-10-09 15:49:15</time>
      </trkpt>
      <trkpt lat="40.327" lon="-1.88503">
        <ele>1523.6</ele>
        <time>2021-10-09 15:49:16</time>
      </trkpt>
      <trkpt lat="40.32701" lon="-1.88503">
        <ele>1523.2</ele>
        <time>2021-10-09 15:49:17</time>
      </trkpt>
      <trkpt lat="40.32701" lon="-1.88503">
        <ele>1523.2</ele>
        <time>2021-10-09 15:49:18</time>
      </trkpt>
      <trkpt lat="40.32701" lon="-1.88504">
        <ele>1522.8</ele>
        <time>2021-10-09 15:49:19</time>
      </trkpt>
      <trkpt lat="40.32703" lon="-1.88503">
        <ele>1522.8</ele>
        <time>2021-10-09 15:49:20</time>
      </trkpt>
      <trkpt lat="40.32702" lon="-1.88504">
        <ele>1522.8</ele>
        <time>2021-10-09 15:49:21</time>
      </trkpt>
      <trkpt lat="40.32703" lon="-1.88504">
        <ele>1522.8</ele>
        <time>2021-10-09 15:49:22</time>
      </trkpt>
      <trkpt lat="40.32703" lon="-1.88504">
        <ele>1522.8</ele>
        <time>2021-10-09 15:49:23</time>
      </trkpt>
      <trkpt lat="40.32703" lon="-1.88504">
        <ele>1522.8</ele>
        <time>2021-10-09 15:49:24</time>
      </trkpt>
      <trkpt lat="40.32702" lon="-1.88505">
        <ele>1523</ele>
        <time>2021-10-09 15:49:25</time>
      </trkpt>
      <trkpt lat="40.32701" lon="-1.88507">
        <ele>1523</ele>
        <time>2021-10-09 15:49:26</time>
      </trkpt>
      <trkpt lat="40.327" lon="-1.88509">
        <ele>1523</ele>
        <time>2021-10-09 15:49:27</time>
      </trkpt>
      <trkpt lat="40.32698" lon="-1.88512">
        <ele>1523</ele>
        <time>2021-10-09 15:49:28</time>
      </trkpt>
      <trkpt lat="40.32696" lon="-1.88515">
        <ele>1523.2</ele>
        <time>2021-10-09 15:49:29</time>
      </trkpt>
      <trkpt lat="40.32694" lon="-1.88518">
        <ele>1523.2</ele>
        <time>2021-10-09 15:49:30</time>
      </trkpt>
      <trkpt lat="40.32691" lon="-1.88521">
        <ele>1523.2</ele>
        <time>2021-10-09 15:49:31</time>
      </trkpt>
      <trkpt lat="40.32689" lon="-1.88525">
        <ele>1523.2</ele>
        <time>2021-10-09 15:49:32</time>
      </trkpt>
      <trkpt lat="40.32686" lon="-1.88528">
        <ele>1523</ele>
        <time>2021-10-09 15:49:33</time>
      </trkpt>
      <trkpt lat="40.32683" lon="-1.88532">
        <ele>1523</ele>
        <time>2021-10-09 15:49:34</time>
      </trkpt>
      <trkpt lat="40.3268" lon="-1.88536">
        <ele>1522.8</ele>
        <time>2021-10-09 15:49:35</time>
      </trkpt>
      <trkpt lat="40.32677" lon="-1.8854">
        <ele>1522.8</ele>
        <time>2021-10-09 15:49:36</time>
      </trkpt>
      <trkpt lat="40.32671" lon="-1.88544">
        <ele>1522.8</ele>
        <time>2021-10-09 15:49:37</time>
      </trkpt>
      <trkpt lat="40.32667" lon="-1.88549">
        <ele>1522.8</ele>
        <time>2021-10-09 15:49:38</time>
      </trkpt>
      <trkpt lat="40.32662" lon="-1.88554">
        <ele>1522.4</ele>
        <time>2021-10-09 15:49:39</time>
      </trkpt>
      <trkpt lat="40.32658" lon="-1.8856">
        <ele>1522.2</ele>
        <time>2021-10-09 15:49:40</time>
      </trkpt>
      <trkpt lat="40.32653" lon="-1.88566">
        <ele>1521.8</ele>
        <time>2021-10-09 15:49:41</time>
      </trkpt>
      <trkpt lat="40.32649" lon="-1.88573">
        <ele>1521.4</ele>
        <time>2021-10-09 15:49:42</time>
      </trkpt>
      <trkpt lat="40.32645" lon="-1.88579">
        <ele>1521.4</ele>
        <time>2021-10-09 15:49:43</time>
      </trkpt>
      <trkpt lat="40.3264" lon="-1.88586">
        <ele>1521.4</ele>
        <time>2021-10-09 15:49:44</time>
      </trkpt>
      <trkpt lat="40.32636" lon="-1.88592">
        <ele>1521.2</ele>
        <time>2021-10-09 15:49:45</time>
      </trkpt>
      <trkpt lat="40.32631" lon="-1.88599">
        <ele>1521.2</ele>
        <time>2021-10-09 15:49:46</time>
      </trkpt>
      <trkpt lat="40.32626" lon="-1.88606">
        <ele>1521</ele>
        <time>2021-10-09 15:49:47</time>
      </trkpt>
      <trkpt lat="40.32621" lon="-1.88612">
        <ele>1521</ele>
        <time>2021-10-09 15:49:48</time>
      </trkpt>
      <trkpt lat="40.32616" lon="-1.88617">
        <ele>1521</ele>
        <time>2021-10-09 15:49:49</time>
      </trkpt>
      <trkpt lat="40.32611" lon="-1.88624">
        <ele>1520.6</ele>
        <time>2021-10-09 15:49:50</time>
      </trkpt>
      <trkpt lat="40.32605" lon="-1.88629">
        <ele>1520.4</ele>
        <time>2021-10-09 15:49:53</time>
      </trkpt>
      <trkpt lat="40.32599" lon="-1.88633">
        <ele>1520.4</ele>
        <time>2021-10-09 15:49:54</time>
      </trkpt>
      <trkpt lat="40.32593" lon="-1.88636">
        <ele>1520.4</ele>
        <time>2021-10-09 15:49:55</time>
      </trkpt>
      <trkpt lat="40.32586" lon="-1.88637">
        <ele>1520.4</ele>
        <time>2021-10-09 15:50:25</time>
      </trkpt>
      <trkpt lat="40.3258" lon="-1.88634">
        <ele>1520</ele>
        <time>2021-10-09 15:50:26</time>
      </trkpt>
      <trkpt lat="40.32573" lon="-1.88632">
        <ele>1520</ele>
        <time>2021-10-09 15:50:27</time>
      </trkpt>
      <trkpt lat="40.32567" lon="-1.88631">
        <ele>1520</ele>
        <time>2021-10-09 15:50:28</time>
      </trkpt>
      <trkpt lat="40.3256" lon="-1.88629">
        <ele>1519.8</ele>
        <time>2021-10-09 15:50:29</time>
      </trkpt>
      <trkpt lat="40.32553" lon="-1.8863">
        <ele>1519.8</ele>
        <time>2021-10-09 15:50:30</time>
      </trkpt>
      <trkpt lat="40.32547" lon="-1.88631">
        <ele>1519.8</ele>
        <time>2021-10-09 15:50:31</time>
      </trkpt>
      <trkpt lat="40.32539" lon="-1.88632">
        <ele>1519.8</ele>
        <time>2021-10-09 15:50:32</time>
      </trkpt>
      <trkpt lat="40.32534" lon="-1.88636">
        <ele>1519.8</ele>
        <time>2021-10-09 15:50:33</time>
      </trkpt>
      <trkpt lat="40.32527" lon="-1.88639">
        <ele>1519.4</ele>
        <time>2021-10-09 15:50:34</time>
      </trkpt>
      <trkpt lat="40.3252" lon="-1.88642">
        <ele>1519.4</ele>
        <time>2021-10-09 15:50:35</time>
      </trkpt>
      <trkpt lat="40.32514" lon="-1.88645">
        <ele>1519.4</ele>
        <time>2021-10-09 15:50:36</time>
      </trkpt>
      <trkpt lat="40.32508" lon="-1.88649">
        <ele>1519.4</ele>
        <time>2021-10-09 15:50:37</time>
      </trkpt>
      <trkpt lat="40.32503" lon="-1.88653">
        <ele>1519.4</ele>
        <time>2021-10-09 15:50:38</time>
      </trkpt>
      <trkpt lat="40.32497" lon="-1.88657">
        <ele>1519.4</ele>
        <time>2021-10-09 15:50:39</time>
      </trkpt>
      <trkpt lat="40.3249" lon="-1.88662">
        <ele>1519.4</ele>
        <time>2021-10-09 15:50:40</time>
      </trkpt>
      <trkpt lat="40.32484" lon="-1.88666">
        <ele>1519.4</ele>
        <time>2021-10-09 15:50:41</time>
      </trkpt>
      <trkpt lat="40.32479" lon="-1.8867">
        <ele>1519.4</ele>
        <time>2021-10-09 15:50:42</time>
      </trkpt>
      <trkpt lat="40.32474" lon="-1.88676">
        <ele>1519.4</ele>
        <time>2021-10-09 15:50:43</time>
      </trkpt>
      <trkpt lat="40.32352" lon="-1.88778">
        <ele>1499.6</ele>
        <time>2021-10-09 15:52:37</time>
      </trkpt>
      <trkpt lat="40.32348" lon="-1.88782">
        <ele>1499.8</ele>
        <time>2021-10-09 15:52:38</time>
      </trkpt>
      <trkpt lat="40.32345" lon="-1.88786">
        <ele>1499.8</ele>
        <time>2021-10-09 15:52:39</time>
      </trkpt>
      <trkpt lat="40.32343" lon="-1.88792">
        <ele>1499.4</ele>
        <time>2021-10-09 15:52:40</time>
      </trkpt>
      <trkpt lat="40.32343" lon="-1.888">
        <ele>1499.4</ele>
        <time>2021-10-09 15:52:41</time>
      </trkpt>
      <trkpt lat="40.32342" lon="-1.88806">
        <ele>1499.4</ele>
        <time>2021-10-09 15:52:42</time>
      </trkpt>
      <trkpt lat="40.32341" lon="-1.88812">
        <ele>1499.4</ele>
        <time>2021-10-09 15:52:43</time>
      </trkpt>
      <trkpt lat="40.32341" lon="-1.88818">
        <ele>1499.4</ele>
        <time>2021-10-09 15:52:44</time>
      </trkpt>
      <trkpt lat="40.3234" lon="-1.88824">
        <ele>1499.4</ele>
        <time>2021-10-09 15:52:45</time>
      </trkpt>
      <trkpt lat="40.32341" lon="-1.8883">
        <ele>1499.4</ele>
        <time>2021-10-09 15:52:46</time>
      </trkpt>
      <trkpt lat="40.32341" lon="-1.88835">
        <ele>1499.4</ele>
        <time>2021-10-09 15:52:47</time>
      </trkpt>
      <trkpt lat="40.32342" lon="-1.88841">
        <ele>1499.4</ele>
        <time>2021-10-09 15:52:48</time>
      </trkpt>
      <trkpt lat="40.32342" lon="-1.88847">
        <ele>1499.4</ele>
        <time>2021-10-09 15:52:49</time>
      </trkpt>
      <trkpt lat="40.32342" lon="-1.88853">
        <ele>1499.8</ele>
        <time>2021-10-09 15:52:50</time>
      </trkpt>
      <trkpt lat="40.32343" lon="-1.88859">
        <ele>1499.8</ele>
        <time>2021-10-09 15:52:51</time>
      </trkpt>
      <trkpt lat="40.32343" lon="-1.88865">
        <ele>1499.8</ele>
        <time>2021-10-09 15:52:52</time>
      </trkpt>
      <trkpt lat="40.32344" lon="-1.88871">
        <ele>1499.8</ele>
        <time>2021-10-09 15:52:53</time>
      </trkpt>
      <trkpt lat="40.32345" lon="-1.88877">
        <ele>1499.8</ele>
        <time>2021-10-09 15:52:54</time>
      </trkpt>
      <trkpt lat="40.32345" lon="-1.88883">
        <ele>1499.8</ele>
        <time>2021-10-09 15:52:55</time>
      </trkpt>
      <trkpt lat="40.32345" lon="-1.88889">
        <ele>1496.8</ele>
        <time>2021-10-09 15:52:56</time>
      </trkpt>
      <trkpt lat="40.32346" lon="-1.88894">
        <ele>1499.4</ele>
        <time>2021-10-09 15:52:57</time>
      </trkpt>
      <trkpt lat="40.32346" lon="-1.88899">
        <ele>1496.4</ele>
        <time>2021-10-09 15:52:58</time>
      </trkpt>
      <trkpt lat="40.32346" lon="-1.88904">
        <ele>1498.6</ele>
        <time>2021-10-09 15:52:59</time>
      </trkpt>
      <trkpt lat="40.32345" lon="-1.8891">
        <ele>1499.6</ele>
        <time>2021-10-09 15:53:00</time>
      </trkpt>
      <trkpt lat="40.32344" lon="-1.88915">
        <ele>1500.2</ele>
        <time>2021-10-09 15:53:01</time>
      </trkpt>
      <trkpt lat="40.32342" lon="-1.8892">
        <ele>1500.2</ele>
        <time>2021-10-09 15:53:02</time>
      </trkpt>
      <trkpt lat="40.3234" lon="-1.88924">
        <ele>1500.2</ele>
        <time>2021-10-09 15:53:03</time>
      </trkpt>
      <trkpt lat="40.32337" lon="-1.88928">
        <ele>1500.2</ele>
        <time>2021-10-09 15:53:04</time>
      </trkpt>
      <trkpt lat="40.32333" lon="-1.88933">
        <ele>1500.2</ele>
        <time>2021-10-09 15:53:05</time>
      </trkpt>
      <trkpt lat="40.32329" lon="-1.88935">
        <ele>1500.2</ele>
        <time>2021-10-09 15:53:06</time>
      </trkpt>
      <trkpt lat="40.32325" lon="-1.88937">
        <ele>1499.8</ele>
        <time>2021-10-09 15:53:07</time>
      </trkpt>
      <trkpt lat="40.32319" lon="-1.88938">
        <ele>1499.6</ele>
        <time>2021-10-09 15:53:08</time>
      </trkpt>
      <trkpt lat="40.32314" lon="-1.88937">
        <ele>1499.2</ele>
        <time>2021-10-09 15:53:09</time>
      </trkpt>
      <trkpt lat="40.32308" lon="-1.88936">
        <ele>1498.8</ele>
        <time>2021-10-09 15:53:10</time>
      </trkpt>
      <trkpt lat="40.32302" lon="-1.88933">
        <ele>1498.2</ele>
        <time>2021-10-09 15:53:11</time>
      </trkpt>
      <trkpt lat="40.32296" lon="-1.8893">
        <ele>1498</ele>
        <time>2021-10-09 15:53:12</time>
      </trkpt>
      <trkpt lat="40.32289" lon="-1.88926">
        <ele>1497.8</ele>
        <time>2021-10-09 15:53:13</time>
      </trkpt>
      <trkpt lat="40.32283" lon="-1.88923">
        <ele>1497.4</ele>
        <time>2021-10-09 15:53:14</time>
      </trkpt>
      <trkpt lat="40.32276" lon="-1.88919">
        <ele>1497</ele>
        <time>2021-10-09 15:53:15</time>
      </trkpt>
      <trkpt lat="40.32268" lon="-1.88916">
        <ele>1497</ele>
        <time>2021-10-09 15:53:16</time>
      </trkpt>
      <trkpt lat="40.32262" lon="-1.88913">
        <ele>1496.2</ele>
        <time>2021-10-09 15:53:17</time>
      </trkpt>
      <trkpt lat="40.32255" lon="-1.8891">
        <ele>1495.4</ele>
        <time>2021-10-09 15:53:18</time>
      </trkpt>
      <trkpt lat="40.32247" lon="-1.88906">
        <ele>1495</ele>
        <time>2021-10-09 15:53:19</time>
      </trkpt>
      <trkpt lat="40.32239" lon="-1.88902">
        <ele>1494.2</ele>
        <time>2021-10-09 15:53:20</time>
      </trkpt>
      <trkpt lat="40.32231" lon="-1.88898">
        <ele>1493.4</ele>
        <time>2021-10-09 15:53:21</time>
      </trkpt>
      <trkpt lat="40.32223" lon="-1.88894">
        <ele>1492.8</ele>
        <time>2021-10-09 15:53:22</time>
      </trkpt>
      <trkpt lat="40.32215" lon="-1.88889">
        <ele>1492.4</ele>
        <time>2021-10-09 15:53:23</time>
      </trkpt>
      <trkpt lat="40.32206" lon="-1.88886">
        <ele>1491.6</ele>
        <time>2021-10-09 15:53:24</time>
      </trkpt>
      <trkpt lat="40.32198" lon="-1.88881">
        <ele>1491.2</ele>
        <time>2021-10-09 15:53:25</time>
      </trkpt>
      <trkpt lat="40.3219" lon="-1.88878">
        <ele>1490.8</ele>
        <time>2021-10-09 15:53:26</time>
      </trkpt>
      <trkpt lat="40.32181" lon="-1.88873">
        <ele>1490</ele>
        <time>2021-10-09 15:53:27</time>
      </trkpt>
      <trkpt lat="40.32173" lon="-1.8887">
        <ele>1489.6</ele>
        <time>2021-10-09 15:53:28</time>
      </trkpt>
      <trkpt lat="40.32164" lon="-1.88866">
        <ele>1489.2</ele>
        <time>2021-10-09 15:53:29</time>
      </trkpt>
      <trkpt lat="40.32154" lon="-1.88861">
        <ele>1488.4</ele>
        <time>2021-10-09 15:53:30</time>
      </trkpt>
      <trkpt lat="40.32146" lon="-1.88857">
        <ele>1487.6</ele>
        <time>2021-10-09 15:53:31</time>
      </trkpt>
      <trkpt lat="40.32137" lon="-1.88853">
        <ele>1486.8</ele>
        <time>2021-10-09 15:53:32</time>
      </trkpt>
      <trkpt lat="40.32129" lon="-1.88849">
        <ele>1486.2</ele>
        <time>2021-10-09 15:53:33</time>
      </trkpt>
      <trkpt lat="40.32122" lon="-1.88842">
        <ele>1485.4</ele>
        <time>2021-10-09 15:53:34</time>
      </trkpt>
      <trkpt lat="40.32115" lon="-1.88835">
        <ele>1484.8</ele>
        <time>2021-10-09 15:53:35</time>
      </trkpt>
      <trkpt lat="40.32111" lon="-1.88826">
        <ele>1484.2</ele>
        <time>2021-10-09 15:53:36</time>
      </trkpt>
      <trkpt lat="40.32108" lon="-1.88816">
        <ele>1483.6</ele>
        <time>2021-10-09 15:53:37</time>
      </trkpt>
      <trkpt lat="40.32107" lon="-1.88806">
        <ele>1483</ele>
        <time>2021-10-09 15:53:38</time>
      </trkpt>
      <trkpt lat="40.32106" lon="-1.88796">
        <ele>1482.4</ele>
        <time>2021-10-09 15:53:39</time>
      </trkpt>
      <trkpt lat="40.32104" lon="-1.88786">
        <ele>1482</ele>
        <time>2021-10-09 15:53:40</time>
      </trkpt>
      <trkpt lat="40.32103" lon="-1.88776">
        <ele>1481.6</ele>
        <time>2021-10-09 15:53:41</time>
      </trkpt>
      <trkpt lat="40.321" lon="-1.88769">
        <ele>1481.2</ele>
        <time>2021-10-09 15:53:42</time>
      </trkpt>
      <trkpt lat="40.32096" lon="-1.88762">
        <ele>1480.8</ele>
        <time>2021-10-09 15:53:43</time>
      </trkpt>
      <trkpt lat="40.3209" lon="-1.88758">
        <ele>1480.8</ele>
        <time>2021-10-09 15:53:44</time>
      </trkpt>
      <trkpt lat="40.32084" lon="-1.88753">
        <ele>1480.2</ele>
        <time>2021-10-09 15:53:45</time>
      </trkpt>
      <trkpt lat="40.32077" lon="-1.88749">
        <ele>1480</ele>
        <time>2021-10-09 15:53:46</time>
      </trkpt>
      <trkpt lat="40.3207" lon="-1.88744">
        <ele>1480</ele>
        <time>2021-10-09 15:53:47</time>
      </trkpt>
      <trkpt lat="40.32064" lon="-1.88738">
        <ele>1479.6</ele>
        <time>2021-10-09 15:53:48</time>
      </trkpt>
      <trkpt lat="40.32058" lon="-1.88731">
        <ele>1479.2</ele>
        <time>2021-10-09 15:53:49</time>
      </trkpt>
      <trkpt lat="40.32053" lon="-1.88724">
        <ele>1479</ele>
        <time>2021-10-09 15:53:50</time>
      </trkpt>
      <trkpt lat="40.32049" lon="-1.88715">
        <ele>1478.4</ele>
        <time>2021-10-09 15:53:51</time>
      </trkpt>
      <trkpt lat="40.32047" lon="-1.88705">
        <ele>1478</ele>
        <time>2021-10-09 15:53:52</time>
      </trkpt>
      <trkpt lat="40.32045" lon="-1.88695">
        <ele>1477.8</ele>
        <time>2021-10-09 15:53:53</time>
      </trkpt>
      <trkpt lat="40.32042" lon="-1.88686">
        <ele>1477.4</ele>
        <time>2021-10-09 15:53:54</time>
      </trkpt>
      <trkpt lat="40.32038" lon="-1.88677">
        <ele>1477.2</ele>
        <time>2021-10-09 15:53:55</time>
      </trkpt>
      <trkpt lat="40.32032" lon="-1.88671">
        <ele>1477.2</ele>
        <time>2021-10-09 15:53:56</time>
      </trkpt>
      <trkpt lat="40.32026" lon="-1.88666">
        <ele>1476.6</ele>
        <time>2021-10-09 15:53:57</time>
      </trkpt>
      <trkpt lat="40.3202" lon="-1.88665">
        <ele>1476.6</ele>
        <time>2021-10-09 15:53:58</time>
      </trkpt>
      <trkpt lat="40.32014" lon="-1.88664">
        <ele>1476.6</ele>
        <time>2021-10-09 15:53:59</time>
      </trkpt>
      <trkpt lat="40.32007" lon="-1.88665">
        <ele>1476.6</ele>
        <time>2021-10-09 15:54:00</time>
      </trkpt>
      <trkpt lat="40.32002" lon="-1.88666">
        <ele>1476.6</ele>
        <time>2021-10-09 15:54:01</time>
      </trkpt>
      <trkpt lat="40.31996" lon="-1.88666">
        <ele>1476.6</ele>
        <time>2021-10-09 15:54:02</time>
      </trkpt>
      <trkpt lat="40.31991" lon="-1.88665">
        <ele>1476.6</ele>
        <time>2021-10-09 15:54:03</time>
      </trkpt>
      <trkpt lat="40.31986" lon="-1.88665">
        <ele>1477</ele>
        <time>2021-10-09 15:54:04</time>
      </trkpt>
      <trkpt lat="40.31982" lon="-1.88664">
        <ele>1477</ele>
        <time>2021-10-09 15:54:05</time>
      </trkpt>
      <trkpt lat="40.31977" lon="-1.88665">
        <ele>1476.8</ele>
        <time>2021-10-09 15:54:06</time>
      </trkpt>
      <trkpt lat="40.31974" lon="-1.88665">
        <ele>1477.8</ele>
        <time>2021-10-09 15:54:07</time>
      </trkpt>
      <trkpt lat="40.3197" lon="-1.88665">
        <ele>1478.6</ele>
        <time>2021-10-09 15:54:08</time>
      </trkpt>
      <trkpt lat="40.31967" lon="-1.88663">
        <ele>1479</ele>
        <time>2021-10-09 15:54:09</time>
      </trkpt>
      <trkpt lat="40.31963" lon="-1.88663">
        <ele>1479</ele>
        <time>2021-10-09 15:54:10</time>
      </trkpt>
      <trkpt lat="40.3196" lon="-1.88663">
        <ele>1479</ele>
        <time>2021-10-09 15:54:11</time>
      </trkpt>
      <trkpt lat="40.31957" lon="-1.88662">
        <ele>1479.2</ele>
        <time>2021-10-09 15:54:12</time>
      </trkpt>
      <trkpt lat="40.31953" lon="-1.88662">
        <ele>1479.2</ele>
        <time>2021-10-09 15:54:13</time>
      </trkpt>
      <trkpt lat="40.31949" lon="-1.88662">
        <ele>1479.6</ele>
        <time>2021-10-09 15:54:14</time>
      </trkpt>
      <trkpt lat="40.31945" lon="-1.88662">
        <ele>1479.6</ele>
        <time>2021-10-09 15:54:15</time>
      </trkpt>
      <trkpt lat="40.31942" lon="-1.88662">
        <ele>1479.8</ele>
        <time>2021-10-09 15:54:16</time>
      </trkpt>
      <trkpt lat="40.31938" lon="-1.88662">
        <ele>1479.8</ele>
        <time>2021-10-09 15:54:17</time>
      </trkpt>
      <trkpt lat="40.31935" lon="-1.88661">
        <ele>1479.8</ele>
        <time>2021-10-09 15:54:18</time>
      </trkpt>
      <trkpt lat="40.31931" lon="-1.88661">
        <ele>1480.2</ele>
        <time>2021-10-09 15:54:19</time>
      </trkpt>
      <trkpt lat="40.31928" lon="-1.8866">
        <ele>1480.2</ele>
        <time>2021-10-09 15:54:20</time>
      </trkpt>
      <trkpt lat="40.31924" lon="-1.8866">
        <ele>1480.2</ele>
        <time>2021-10-09 15:54:21</time>
      </trkpt>
      <trkpt lat="40.31921" lon="-1.88659">
        <ele>1480.4</ele>
        <time>2021-10-09 15:54:22</time>
      </trkpt>
      <trkpt lat="40.31918" lon="-1.88659">
        <ele>1480.4</ele>
        <time>2021-10-09 15:54:23</time>
      </trkpt>
      <trkpt lat="40.31916" lon="-1.88658">
        <ele>1480.4</ele>
        <time>2021-10-09 15:54:24</time>
      </trkpt>
      <trkpt lat="40.31913" lon="-1.88658">
        <ele>1480.6</ele>
        <time>2021-10-09 15:54:25</time>
      </trkpt>
      <trkpt lat="40.3191" lon="-1.88657">
        <ele>1480.6</ele>
        <time>2021-10-09 15:54:26</time>
      </trkpt>
      <trkpt lat="40.31907" lon="-1.88657">
        <ele>1480.6</ele>
        <time>2021-10-09 15:54:27</time>
      </trkpt>
      <trkpt lat="40.31903" lon="-1.88656">
        <ele>1481</ele>
        <time>2021-10-09 15:54:28</time>
      </trkpt>
      <trkpt lat="40.319" lon="-1.88654">
        <ele>1481</ele>
        <time>2021-10-09 15:54:29</time>
      </trkpt>
      <trkpt lat="40.31897" lon="-1.88653">
        <ele>1481</ele>
        <time>2021-10-09 15:54:30</time>
      </trkpt>
      <trkpt lat="40.31894" lon="-1.88652">
        <ele>1481.2</ele>
        <time>2021-10-09 15:54:31</time>
      </trkpt>
      <trkpt lat="40.31891" lon="-1.8865">
        <ele>1481.2</ele>
        <time>2021-10-09 15:54:32</time>
      </trkpt>
      <trkpt lat="40.31887" lon="-1.88649">
        <ele>1481.2</ele>
        <time>2021-10-09 15:54:33</time>
      </trkpt>
      <trkpt lat="40.31884" lon="-1.88647">
        <ele>1481</ele>
        <time>2021-10-09 15:54:34</time>
      </trkpt>
      <trkpt lat="40.3188" lon="-1.88645">
        <ele>1481</ele>
        <time>2021-10-09 15:54:35</time>
      </trkpt>
      <trkpt lat="40.31876" lon="-1.88644">
        <ele>1480.6</ele>
        <time>2021-10-09 15:54:36</time>
      </trkpt>
      <trkpt lat="40.31871" lon="-1.88642">
        <ele>1480.6</ele>
        <time>2021-10-09 15:54:37</time>
      </trkpt>
      <trkpt lat="40.31866" lon="-1.88638">
        <ele>1480.2</ele>
        <time>2021-10-09 15:54:38</time>
      </trkpt>
      <trkpt lat="40.31861" lon="-1.88636">
        <ele>1479.8</ele>
        <time>2021-10-09 15:54:39</time>
      </trkpt>
      <trkpt lat="40.31856" lon="-1.88633">
        <ele>1479.6</ele>
        <time>2021-10-09 15:54:40</time>
      </trkpt>
      <trkpt lat="40.31851" lon="-1.8863">
        <ele>1479.2</ele>
        <time>2021-10-09 15:54:41</time>
      </trkpt>
      <trkpt lat="40.31846" lon="-1.88628">
        <ele>1479.2</ele>
        <time>2021-10-09 15:54:42</time>
      </trkpt>
      <trkpt lat="40.3184" lon="-1.88624">
        <ele>1478.8</ele>
        <time>2021-10-09 15:54:43</time>
      </trkpt>
      <trkpt lat="40.31835" lon="-1.88622">
        <ele>1478.8</ele>
        <time>2021-10-09 15:54:44</time>
      </trkpt>
      <trkpt lat="40.31829" lon="-1.88622">
        <ele>1478.4</ele>
        <time>2021-10-09 15:54:45</time>
      </trkpt>
      <trkpt lat="40.31823" lon="-1.88623">
        <ele>1478.2</ele>
        <time>2021-10-09 15:54:46</time>
      </trkpt>
      <trkpt lat="40.31817" lon="-1.88624">
        <ele>1478.2</ele>
        <time>2021-10-09 15:54:47</time>
      </trkpt>
      <trkpt lat="40.31812" lon="-1.88626">
        <ele>1477.8</ele>
        <time>2021-10-09 15:54:48</time>
      </trkpt>
      <trkpt lat="40.31806" lon="-1.88628">
        <ele>1477.6</ele>
        <time>2021-10-09 15:54:49</time>
      </trkpt>
      <trkpt lat="40.318" lon="-1.88631">
        <ele>1477.2</ele>
        <time>2021-10-09 15:54:50</time>
      </trkpt>
      <trkpt lat="40.31793" lon="-1.88635">
        <ele>1477.2</ele>
        <time>2021-10-09 15:54:51</time>
      </trkpt>
      <trkpt lat="40.31788" lon="-1.88639">
        <ele>1476.8</ele>
        <time>2021-10-09 15:54:52</time>
      </trkpt>
      <trkpt lat="40.31782" lon="-1.88644">
        <ele>1476.4</ele>
        <time>2021-10-09 15:54:53</time>
      </trkpt>
      <trkpt lat="40.31775" lon="-1.88648">
        <ele>1476</ele>
        <time>2021-10-09 15:54:54</time>
      </trkpt>
      <trkpt lat="40.31768" lon="-1.88653">
        <ele>1475.6</ele>
        <time>2021-10-09 15:54:55</time>
      </trkpt>
      <trkpt lat="40.31761" lon="-1.88657">
        <ele>1475.2</ele>
        <time>2021-10-09 15:54:56</time>
      </trkpt>
      <trkpt lat="40.31756" lon="-1.88663">
        <ele>1474.8</ele>
        <time>2021-10-09 15:54:57</time>
      </trkpt>
      <trkpt lat="40.31749" lon="-1.88667">
        <ele>1474.6</ele>
        <time>2021-10-09 15:54:58</time>
      </trkpt>
      <trkpt lat="40.31744" lon="-1.88672">
        <ele>1474</ele>
        <time>2021-10-09 15:54:59</time>
      </trkpt>
      <trkpt lat="40.31736" lon="-1.88678">
        <ele>1473.6</ele>
        <time>2021-10-09 15:55:00</time>
      </trkpt>
      <trkpt lat="40.31726" lon="-1.88678">
        <ele>1473</ele>
        <time>2021-10-09 15:55:01</time>
      </trkpt>
      <trkpt lat="40.31718" lon="-1.88681">
        <ele>1472.6</ele>
        <time>2021-10-09 15:55:02</time>
      </trkpt>
      <trkpt lat="40.3171" lon="-1.88683">
        <ele>1472.2</ele>
        <time>2021-10-09 15:55:03</time>
      </trkpt>
      <trkpt lat="40.31701" lon="-1.88685">
        <ele>1471.6</ele>
        <time>2021-10-09 15:55:04</time>
      </trkpt>
      <trkpt lat="40.31691" lon="-1.88685">
        <ele>1471.2</ele>
        <time>2021-10-09 15:55:05</time>
      </trkpt>
      <trkpt lat="40.31682" lon="-1.88684">
        <ele>1470.8</ele>
        <time>2021-10-09 15:55:06</time>
      </trkpt>
      <trkpt lat="40.31673" lon="-1.88682">
        <ele>1470.2</ele>
        <time>2021-10-09 15:55:07</time>
      </trkpt>
      <trkpt lat="40.31664" lon="-1.8868">
        <ele>1469.8</ele>
        <time>2021-10-09 15:55:08</time>
      </trkpt>
      <trkpt lat="40.31655" lon="-1.88677">
        <ele>1469.4</ele>
        <time>2021-10-09 15:55:09</time>
      </trkpt>
      <trkpt lat="40.31647" lon="-1.88676">
        <ele>1469.2</ele>
        <time>2021-10-09 15:55:10</time>
      </trkpt>
      <trkpt lat="40.31638" lon="-1.88674">
        <ele>1471</ele>
        <time>2021-10-09 15:55:11</time>
      </trkpt>
      <trkpt lat="40.3163" lon="-1.88671">
        <ele>1470.2</ele>
        <time>2021-10-09 15:55:12</time>
      </trkpt>
      <trkpt lat="40.31623" lon="-1.88669">
        <ele>1469.6</ele>
        <time>2021-10-09 15:55:13</time>
      </trkpt>
      <trkpt lat="40.31615" lon="-1.88666">
        <ele>1469.2</ele>
        <time>2021-10-09 15:55:14</time>
      </trkpt>
      <trkpt lat="40.31609" lon="-1.88664">
        <ele>1469.2</ele>
        <time>2021-10-09 15:55:15</time>
      </trkpt>
      <trkpt lat="40.31603" lon="-1.88662">
        <ele>1469.2</ele>
        <time>2021-10-09 15:55:16</time>
      </trkpt>
      <trkpt lat="40.31597" lon="-1.8866">
        <ele>1469.2</ele>
        <time>2021-10-09 15:55:17</time>
      </trkpt>
      <trkpt lat="40.31592" lon="-1.88659">
        <ele>1469.2</ele>
        <time>2021-10-09 15:55:18</time>
      </trkpt>
      <trkpt lat="40.31589" lon="-1.88658">
        <ele>1469.2</ele>
        <time>2021-10-09 15:55:19</time>
      </trkpt>
      <trkpt lat="40.31585" lon="-1.88656">
        <ele>1469.6</ele>
        <time>2021-10-09 15:55:20</time>
      </trkpt>
      <trkpt lat="40.31582" lon="-1.88655">
        <ele>1469.6</ele>
        <time>2021-10-09 15:55:21</time>
      </trkpt>
      <trkpt lat="40.3158" lon="-1.88655">
        <ele>1470</ele>
        <time>2021-10-09 15:55:22</time>
      </trkpt>
      <trkpt lat="40.31578" lon="-1.88655">
        <ele>1470</ele>
        <time>2021-10-09 15:55:23</time>
      </trkpt>
      <trkpt lat="40.31576" lon="-1.88655">
        <ele>1470.2</ele>
        <time>2021-10-09 15:55:24</time>
      </trkpt>
      <trkpt lat="40.31574" lon="-1.88655">
        <ele>1470.2</ele>
        <time>2021-10-09 15:55:25</time>
      </trkpt>
      <trkpt lat="40.31571" lon="-1.88654">
        <ele>1470.6</ele>
        <time>2021-10-09 15:55:26</time>
      </trkpt>
      <trkpt lat="40.31569" lon="-1.88654">
        <ele>1470.6</ele>
        <time>2021-10-09 15:55:27</time>
      </trkpt>
      <trkpt lat="40.31567" lon="-1.88653">
        <ele>1470.8</ele>
        <time>2021-10-09 15:55:28</time>
      </trkpt>
      <trkpt lat="40.31564" lon="-1.88652">
        <ele>1471</ele>
        <time>2021-10-09 15:55:29</time>
      </trkpt>
      <trkpt lat="40.31562" lon="-1.88652">
        <ele>1471</ele>
        <time>2021-10-09 15:55:30</time>
      </trkpt>
      <trkpt lat="40.3156" lon="-1.88651">
        <ele>1471.2</ele>
        <time>2021-10-09 15:55:31</time>
      </trkpt>
      <trkpt lat="40.31558" lon="-1.8865">
        <ele>1471.2</ele>
        <time>2021-10-09 15:55:32</time>
      </trkpt>
      <trkpt lat="40.31556" lon="-1.8865">
        <ele>1471.2</ele>
        <time>2021-10-09 15:55:33</time>
      </trkpt>
      <trkpt lat="40.31554" lon="-1.88649">
        <ele>1471.4</ele>
        <time>2021-10-09 15:55:34</time>
      </trkpt>
      <trkpt lat="40.31552" lon="-1.88649">
        <ele>1471.4</ele>
        <time>2021-10-09 15:55:35</time>
      </trkpt>
      <trkpt lat="40.3155" lon="-1.88648">
        <ele>1470.8</ele>
        <time>2021-10-09 15:55:36</time>
      </trkpt>
      <trkpt lat="40.31548" lon="-1.88648">
        <ele>1471.2</ele>
        <time>2021-10-09 15:55:37</time>
      </trkpt>
      <trkpt lat="40.31546" lon="-1.88647">
        <ele>1472</ele>
        <time>2021-10-09 15:55:38</time>
      </trkpt>
      <trkpt lat="40.31543" lon="-1.88647">
        <ele>1472.2</ele>
        <time>2021-10-09 15:55:39</time>
      </trkpt>
      <trkpt lat="40.31541" lon="-1.88646">
        <ele>1472.2</ele>
        <time>2021-10-09 15:55:40</time>
      </trkpt>
      <trkpt lat="40.31538" lon="-1.88645">
        <ele>1472.2</ele>
        <time>2021-10-09 15:55:41</time>
      </trkpt>
      <trkpt lat="40.31536" lon="-1.88644">
        <ele>1472.2</ele>
        <time>2021-10-09 15:55:42</time>
      </trkpt>
      <trkpt lat="40.31533" lon="-1.88644">
        <ele>1472</ele>
        <time>2021-10-09 15:55:43</time>
      </trkpt>
      <trkpt lat="40.31531" lon="-1.88643">
        <ele>1472</ele>
        <time>2021-10-09 15:55:44</time>
      </trkpt>
      <trkpt lat="40.31528" lon="-1.88642">
        <ele>1472</ele>
        <time>2021-10-09 15:55:45</time>
      </trkpt>
      <trkpt lat="40.31526" lon="-1.88641">
        <ele>1472</ele>
        <time>2021-10-09 15:55:46</time>
      </trkpt>
      <trkpt lat="40.31523" lon="-1.88641">
        <ele>1472</ele>
        <time>2021-10-09 15:55:47</time>
      </trkpt>
      <trkpt lat="40.31521" lon="-1.8864">
        <ele>1472</ele>
        <time>2021-10-09 15:55:48</time>
      </trkpt>
      <trkpt lat="40.31518" lon="-1.88639">
        <ele>1472</ele>
        <time>2021-10-09 15:55:49</time>
      </trkpt>
      <trkpt lat="40.31515" lon="-1.88638">
        <ele>1472</ele>
        <time>2021-10-09 15:55:50</time>
      </trkpt>
      <trkpt lat="40.31511" lon="-1.88637">
        <ele>1472</ele>
        <time>2021-10-09 15:55:51</time>
      </trkpt>
      <trkpt lat="40.31508" lon="-1.88636">
        <ele>1472</ele>
        <time>2021-10-09 15:55:52</time>
      </trkpt>
      <trkpt lat="40.31505" lon="-1.88635">
        <ele>1472</ele>
        <time>2021-10-09 15:55:53</time>
      </trkpt>
      <trkpt lat="40.31502" lon="-1.88634">
        <ele>1472</ele>
        <time>2021-10-09 15:55:54</time>
      </trkpt>
      <trkpt lat="40.31499" lon="-1.88633">
        <ele>1472</ele>
        <time>2021-10-09 15:55:55</time>
      </trkpt>
      <trkpt lat="40.31496" lon="-1.88632">
        <ele>1472</ele>
        <time>2021-10-09 15:55:56</time>
      </trkpt>
      <trkpt lat="40.31493" lon="-1.88631">
        <ele>1472</ele>
        <time>2021-10-09 15:55:57</time>
      </trkpt>
      <trkpt lat="40.3149" lon="-1.8863">
        <ele>1472</ele>
        <time>2021-10-09 15:55:58</time>
      </trkpt>
      <trkpt lat="40.31487" lon="-1.88629">
        <ele>1472</ele>
        <time>2021-10-09 15:55:59</time>
      </trkpt>
      <trkpt lat="40.31483" lon="-1.88628">
        <ele>1471.8</ele>
        <time>2021-10-09 15:56:00</time>
      </trkpt>
      <trkpt lat="40.3148" lon="-1.88627">
        <ele>1471.8</ele>
        <time>2021-10-09 15:56:01</time>
      </trkpt>
      <trkpt lat="40.31476" lon="-1.88626">
        <ele>1471.8</ele>
        <time>2021-10-09 15:56:02</time>
      </trkpt>
      <trkpt lat="40.31473" lon="-1.88624">
        <ele>1471.6</ele>
        <time>2021-10-09 15:56:03</time>
      </trkpt>
      <trkpt lat="40.31469" lon="-1.88623">
        <ele>1471.6</ele>
        <time>2021-10-09 15:56:04</time>
      </trkpt>
      <trkpt lat="40.31465" lon="-1.88622">
        <ele>1471.6</ele>
        <time>2021-10-09 15:56:05</time>
      </trkpt>
      <trkpt lat="40.31461" lon="-1.88621">
        <ele>1471.2</ele>
        <time>2021-10-09 15:56:06</time>
      </trkpt>
      <trkpt lat="40.31457" lon="-1.88619">
        <ele>1471.2</ele>
        <time>2021-10-09 15:56:07</time>
      </trkpt>
      <trkpt lat="40.31453" lon="-1.88618">
        <ele>1471.2</ele>
        <time>2021-10-09 15:56:08</time>
      </trkpt>
      <trkpt lat="40.31449" lon="-1.88616">
        <ele>1471</ele>
        <time>2021-10-09 15:56:09</time>
      </trkpt>
      <trkpt lat="40.31445" lon="-1.88615">
        <ele>1471</ele>
        <time>2021-10-09 15:56:10</time>
      </trkpt>
      <trkpt lat="40.31441" lon="-1.88614">
        <ele>1471</ele>
        <time>2021-10-09 15:56:11</time>
      </trkpt>
      <trkpt lat="40.31436" lon="-1.88612">
        <ele>1471</ele>
        <time>2021-10-09 15:56:12</time>
      </trkpt>
      <trkpt lat="40.31432" lon="-1.88611">
        <ele>1470.6</ele>
        <time>2021-10-09 15:56:13</time>
      </trkpt>
      <trkpt lat="40.31428" lon="-1.88609">
        <ele>1470.6</ele>
        <time>2021-10-09 15:56:14</time>
      </trkpt>
      <trkpt lat="40.31423" lon="-1.88608">
        <ele>1470.4</ele>
        <time>2021-10-09 15:56:15</time>
      </trkpt>
      <trkpt lat="40.31419" lon="-1.88606">
        <ele>1470.4</ele>
        <time>2021-10-09 15:56:16</time>
      </trkpt>
      <trkpt lat="40.31414" lon="-1.88606">
        <ele>1470.2</ele>
        <time>2021-10-09 15:56:17</time>
      </trkpt>
      <trkpt lat="40.3141" lon="-1.88604">
        <ele>1470.2</ele>
        <time>2021-10-09 15:56:18</time>
      </trkpt>
      <trkpt lat="40.31405" lon="-1.88602">
        <ele>1470.2</ele>
        <time>2021-10-09 15:56:19</time>
      </trkpt>
      <trkpt lat="40.31401" lon="-1.88601">
        <ele>1470.2</ele>
        <time>2021-10-09 15:56:20</time>
      </trkpt>
      <trkpt lat="40.31396" lon="-1.886">
        <ele>1470.2</ele>
        <time>2021-10-09 15:56:21</time>
      </trkpt>
      <trkpt lat="40.31392" lon="-1.88599">
        <ele>1469.8</ele>
        <time>2021-10-09 15:56:22</time>
      </trkpt>
      <trkpt lat="40.31387" lon="-1.88598">
        <ele>1469.8</ele>
        <time>2021-10-09 15:56:23</time>
      </trkpt>
      <trkpt lat="40.31382" lon="-1.88598">
        <ele>1469.8</ele>
        <time>2021-10-09 15:56:24</time>
      </trkpt>
      <trkpt lat="40.31378" lon="-1.88598">
        <ele>1469.8</ele>
        <time>2021-10-09 15:56:25</time>
      </trkpt>
      <trkpt lat="40.31373" lon="-1.886">
        <ele>1469.8</ele>
        <time>2021-10-09 15:56:26</time>
      </trkpt>
      <trkpt lat="40.31368" lon="-1.88601">
        <ele>1469.6</ele>
        <time>2021-10-09 15:56:27</time>
      </trkpt>
      <trkpt lat="40.31365" lon="-1.88603">
        <ele>1469.6</ele>
        <time>2021-10-09 15:56:28</time>
      </trkpt>
      <trkpt lat="40.31361" lon="-1.88606">
        <ele>1469.6</ele>
        <time>2021-10-09 15:56:29</time>
      </trkpt>
      <trkpt lat="40.31357" lon="-1.88607">
        <ele>1469.6</ele>
        <time>2021-10-09 15:56:30</time>
      </trkpt>
      <trkpt lat="40.31353" lon="-1.8861">
        <ele>1469.8</ele>
        <time>2021-10-09 15:56:31</time>
      </trkpt>
      <trkpt lat="40.31349" lon="-1.88613">
        <ele>1469.8</ele>
        <time>2021-10-09 15:56:32</time>
      </trkpt>
      <trkpt lat="40.31346" lon="-1.88616">
        <ele>1469.8</ele>
        <time>2021-10-09 15:56:33</time>
      </trkpt>
      <trkpt lat="40.31342" lon="-1.8862">
        <ele>1469.8</ele>
        <time>2021-10-09 15:56:34</time>
      </trkpt>
      <trkpt lat="40.31338" lon="-1.88622">
        <ele>1469.8</ele>
        <time>2021-10-09 15:56:35</time>
      </trkpt>
      <trkpt lat="40.31334" lon="-1.88625">
        <ele>1470.2</ele>
        <time>2021-10-09 15:56:36</time>
      </trkpt>
      <trkpt lat="40.31331" lon="-1.88629">
        <ele>1470.2</ele>
        <time>2021-10-09 15:56:37</time>
      </trkpt>
      <trkpt lat="40.31327" lon="-1.88631">
        <ele>1470.2</ele>
        <time>2021-10-09 15:56:38</time>
      </trkpt>
      <trkpt lat="40.31323" lon="-1.88633">
        <ele>1470.2</ele>
        <time>2021-10-09 15:56:39</time>
      </trkpt>
      <trkpt lat="40.3132" lon="-1.88636">
        <ele>1470.2</ele>
        <time>2021-10-09 15:56:40</time>
      </trkpt>
      <trkpt lat="40.31316" lon="-1.88637">
        <ele>1470.2</ele>
        <time>2021-10-09 15:56:41</time>
      </trkpt>
      <trkpt lat="40.31312" lon="-1.88639">
        <ele>1470.2</ele>
        <time>2021-10-09 15:56:42</time>
      </trkpt>
      <trkpt lat="40.31307" lon="-1.8864">
        <ele>1470.4</ele>
        <time>2021-10-09 15:56:43</time>
      </trkpt>
      <trkpt lat="40.31303" lon="-1.8864">
        <ele>1470.4</ele>
        <time>2021-10-09 15:56:44</time>
      </trkpt>
      <trkpt lat="40.31298" lon="-1.88641">
        <ele>1470.4</ele>
        <time>2021-10-09 15:56:45</time>
      </trkpt>
      <trkpt lat="40.31293" lon="-1.8864">
        <ele>1470.4</ele>
        <time>2021-10-09 15:56:46</time>
      </trkpt>
      <trkpt lat="40.31288" lon="-1.88639">
        <ele>1470.4</ele>
        <time>2021-10-09 15:56:47</time>
      </trkpt>
      <trkpt lat="40.31284" lon="-1.88637">
        <ele>1470.4</ele>
        <time>2021-10-09 15:56:48</time>
      </trkpt>
      <trkpt lat="40.31279" lon="-1.88636">
        <ele>1470.2</ele>
        <time>2021-10-09 15:56:49</time>
      </trkpt>
      <trkpt lat="40.31275" lon="-1.88634">
        <ele>1470.2</ele>
        <time>2021-10-09 15:56:50</time>
      </trkpt>
      <trkpt lat="40.31271" lon="-1.88633">
        <ele>1470.2</ele>
        <time>2021-10-09 15:56:51</time>
      </trkpt>
      <trkpt lat="40.31267" lon="-1.88632">
        <ele>1469.8</ele>
        <time>2021-10-09 15:56:52</time>
      </trkpt>
      <trkpt lat="40.31264" lon="-1.8863">
        <ele>1469.8</ele>
        <time>2021-10-09 15:56:53</time>
      </trkpt>
      <trkpt lat="40.3126" lon="-1.88629">
        <ele>1469.8</ele>
        <time>2021-10-09 15:56:54</time>
      </trkpt>
      <trkpt lat="40.31256" lon="-1.88627">
        <ele>1469.8</ele>
        <time>2021-10-09 15:56:55</time>
      </trkpt>
      <trkpt lat="40.31252" lon="-1.88626">
        <ele>1469.6</ele>
        <time>2021-10-09 15:56:56</time>
      </trkpt>
      <trkpt lat="40.31248" lon="-1.88625">
        <ele>1469.6</ele>
        <time>2021-10-09 15:56:57</time>
      </trkpt>
      <trkpt lat="40.31245" lon="-1.88624">
        <ele>1469.6</ele>
        <time>2021-10-09 15:56:58</time>
      </trkpt>
      <trkpt lat="40.31241" lon="-1.88622">
        <ele>1469.6</ele>
        <time>2021-10-09 15:56:59</time>
      </trkpt>
      <trkpt lat="40.31237" lon="-1.8862">
        <ele>1469.6</ele>
        <time>2021-10-09 15:57:00</time>
      </trkpt>
      <trkpt lat="40.31233" lon="-1.88619">
        <ele>1469.6</ele>
        <time>2021-10-09 15:57:01</time>
      </trkpt>
      <trkpt lat="40.31229" lon="-1.88616">
        <ele>1469.6</ele>
        <time>2021-10-09 15:57:02</time>
      </trkpt>
      <trkpt lat="40.31226" lon="-1.88613">
        <ele>1469.6</ele>
        <time>2021-10-09 15:57:03</time>
      </trkpt>
      <trkpt lat="40.31222" lon="-1.8861">
        <ele>1469.6</ele>
        <time>2021-10-09 15:57:04</time>
      </trkpt>
      <trkpt lat="40.31218" lon="-1.88606">
        <ele>1470</ele>
        <time>2021-10-09 15:57:05</time>
      </trkpt>
      <trkpt lat="40.31214" lon="-1.88602">
        <ele>1470</ele>
        <time>2021-10-09 15:57:06</time>
      </trkpt>
      <trkpt lat="40.31211" lon="-1.88599">
        <ele>1470.2</ele>
        <time>2021-10-09 15:57:07</time>
      </trkpt>
      <trkpt lat="40.31208" lon="-1.88594">
        <ele>1470.2</ele>
        <time>2021-10-09 15:57:08</time>
      </trkpt>
      <trkpt lat="40.31207" lon="-1.88591">
        <ele>1470.2</ele>
        <time>2021-10-09 15:57:09</time>
      </trkpt>
      <trkpt lat="40.31205" lon="-1.88587">
        <ele>1470.2</ele>
        <time>2021-10-09 15:57:10</time>
      </trkpt>
      <trkpt lat="40.31203" lon="-1.88583">
        <ele>1470.2</ele>
        <time>2021-10-09 15:57:11</time>
      </trkpt>
      <trkpt lat="40.31201" lon="-1.88578">
        <ele>1470.4</ele>
        <time>2021-10-09 15:57:12</time>
      </trkpt>
      <trkpt lat="40.31199" lon="-1.88574">
        <ele>1470.4</ele>
        <time>2021-10-09 15:57:13</time>
      </trkpt>
      <trkpt lat="40.31197" lon="-1.8857">
        <ele>1470.4</ele>
        <time>2021-10-09 15:57:14</time>
      </trkpt>
      <trkpt lat="40.31196" lon="-1.88565">
        <ele>1470.4</ele>
        <time>2021-10-09 15:57:15</time>
      </trkpt>
      <trkpt lat="40.31195" lon="-1.88561">
        <ele>1470.4</ele>
        <time>2021-10-09 15:57:16</time>
      </trkpt>
      <trkpt lat="40.31194" lon="-1.88555">
        <ele>1470.4</ele>
        <time>2021-10-09 15:57:17</time>
      </trkpt>
      <trkpt lat="40.31194" lon="-1.8855">
        <ele>1470.8</ele>
        <time>2021-10-09 15:57:18</time>
      </trkpt>
      <trkpt lat="40.31194" lon="-1.88545">
        <ele>1470.8</ele>
        <time>2021-10-09 15:57:19</time>
      </trkpt>
      <trkpt lat="40.31194" lon="-1.8854">
        <ele>1470.8</ele>
        <time>2021-10-09 15:57:20</time>
      </trkpt>
      <trkpt lat="40.31193" lon="-1.88534">
        <ele>1470.8</ele>
        <time>2021-10-09 15:57:21</time>
      </trkpt>
      <trkpt lat="40.31193" lon="-1.88529">
        <ele>1470.8</ele>
        <time>2021-10-09 15:57:22</time>
      </trkpt>
      <trkpt lat="40.31192" lon="-1.88524">
        <ele>1470.8</ele>
        <time>2021-10-09 15:57:23</time>
      </trkpt>
      <trkpt lat="40.31193" lon="-1.88519">
        <ele>1470.8</ele>
        <time>2021-10-09 15:57:24</time>
      </trkpt>
      <trkpt lat="40.31193" lon="-1.88513">
        <ele>1470.8</ele>
        <time>2021-10-09 15:57:25</time>
      </trkpt>
      <trkpt lat="40.31194" lon="-1.88508">
        <ele>1470.8</ele>
        <time>2021-10-09 15:57:26</time>
      </trkpt>
      <trkpt lat="40.31194" lon="-1.88502">
        <ele>1470.8</ele>
        <time>2021-10-09 15:57:27</time>
      </trkpt>
      <trkpt lat="40.31193" lon="-1.88497">
        <ele>1470.8</ele>
        <time>2021-10-09 15:57:28</time>
      </trkpt>
      <trkpt lat="40.31193" lon="-1.88491">
        <ele>1470.8</ele>
        <time>2021-10-09 15:57:29</time>
      </trkpt>
      <trkpt lat="40.31192" lon="-1.88487">
        <ele>1470.8</ele>
        <time>2021-10-09 15:57:30</time>
      </trkpt>
      <trkpt lat="40.31191" lon="-1.88483">
        <ele>1470.8</ele>
        <time>2021-10-09 15:57:31</time>
      </trkpt>
      <trkpt lat="40.3119" lon="-1.88477">
        <ele>1470.8</ele>
        <time>2021-10-09 15:57:32</time>
      </trkpt>
      <trkpt lat="40.3119" lon="-1.88471">
        <ele>1470.8</ele>
        <time>2021-10-09 15:57:33</time>
      </trkpt>
      <trkpt lat="40.31189" lon="-1.88467">
        <ele>1470.8</ele>
        <time>2021-10-09 15:57:34</time>
      </trkpt>
      <trkpt lat="40.31189" lon="-1.88462">
        <ele>1470.8</ele>
        <time>2021-10-09 15:57:35</time>
      </trkpt>
      <trkpt lat="40.31188" lon="-1.88458">
        <ele>1471</ele>
        <time>2021-10-09 15:57:36</time>
      </trkpt>
      <trkpt lat="40.31187" lon="-1.88453">
        <ele>1471.2</ele>
        <time>2021-10-09 15:57:37</time>
      </trkpt>
      <trkpt lat="40.31188" lon="-1.88448">
        <ele>1471.4</ele>
        <time>2021-10-09 15:57:38</time>
      </trkpt>
      <trkpt lat="40.31187" lon="-1.88443">
        <ele>1471.4</ele>
        <time>2021-10-09 15:57:39</time>
      </trkpt>
      <trkpt lat="40.31188" lon="-1.88437">
        <ele>1471.4</ele>
        <time>2021-10-09 15:57:40</time>
      </trkpt>
      <trkpt lat="40.31188" lon="-1.88432">
        <ele>1471.6</ele>
        <time>2021-10-09 15:57:41</time>
      </trkpt>
      <trkpt lat="40.31189" lon="-1.88427">
        <ele>1471.6</ele>
        <time>2021-10-09 15:57:42</time>
      </trkpt>
      <trkpt lat="40.31188" lon="-1.88421">
        <ele>1471.6</ele>
        <time>2021-10-09 15:57:43</time>
      </trkpt>
      <trkpt lat="40.31189" lon="-1.88416">
        <ele>1471.6</ele>
        <time>2021-10-09 15:57:44</time>
      </trkpt>
      <trkpt lat="40.31189" lon="-1.88411">
        <ele>1471.6</ele>
        <time>2021-10-09 15:57:45</time>
      </trkpt>
      <trkpt lat="40.31189" lon="-1.88406">
        <ele>1471.6</ele>
        <time>2021-10-09 15:57:46</time>
      </trkpt>
      <trkpt lat="40.31189" lon="-1.88401">
        <ele>1471.6</ele>
        <time>2021-10-09 15:57:47</time>
      </trkpt>
      <trkpt lat="40.31189" lon="-1.88396">
        <ele>1471.6</ele>
        <time>2021-10-09 15:57:48</time>
      </trkpt>
      <trkpt lat="40.3119" lon="-1.88392">
        <ele>1471.6</ele>
        <time>2021-10-09 15:57:49</time>
      </trkpt>
      <trkpt lat="40.31191" lon="-1.88387">
        <ele>1471.6</ele>
        <time>2021-10-09 15:57:50</time>
      </trkpt>
      <trkpt lat="40.31191" lon="-1.88383">
        <ele>1472</ele>
        <time>2021-10-09 15:57:51</time>
      </trkpt>
      <trkpt lat="40.31191" lon="-1.88377">
        <ele>1472</ele>
        <time>2021-10-09 15:57:52</time>
      </trkpt>
      <trkpt lat="40.31192" lon="-1.88373">
        <ele>1472</ele>
        <time>2021-10-09 15:57:53</time>
      </trkpt>
      <trkpt lat="40.31192" lon="-1.88367">
        <ele>1472</ele>
        <time>2021-10-09 15:57:54</time>
      </trkpt>
      <trkpt lat="40.31193" lon="-1.88362">
        <ele>1472.2</ele>
        <time>2021-10-09 15:57:55</time>
      </trkpt>
      <trkpt lat="40.31193" lon="-1.88357">
        <ele>1472.4</ele>
        <time>2021-10-09 15:57:56</time>
      </trkpt>
      <trkpt lat="40.31194" lon="-1.88352">
        <ele>1472.4</ele>
        <time>2021-10-09 15:57:57</time>
      </trkpt>
      <trkpt lat="40.31194" lon="-1.88347">
        <ele>1472.4</ele>
        <time>2021-10-09 15:57:58</time>
      </trkpt>
      <trkpt lat="40.31194" lon="-1.88342">
        <ele>1472.4</ele>
        <time>2021-10-09 15:57:59</time>
      </trkpt>
      <trkpt lat="40.31195" lon="-1.88336">
        <ele>1472.4</ele>
        <time>2021-10-09 15:58:00</time>
      </trkpt>
      <trkpt lat="40.31196" lon="-1.88331">
        <ele>1472.6</ele>
        <time>2021-10-09 15:58:01</time>
      </trkpt>
      <trkpt lat="40.31196" lon="-1.88327">
        <ele>1472.6</ele>
        <time>2021-10-09 15:58:02</time>
      </trkpt>
      <trkpt lat="40.31197" lon="-1.88322">
        <ele>1472.8</ele>
        <time>2021-10-09 15:58:03</time>
      </trkpt>
      <trkpt lat="40.31197" lon="-1.88317">
        <ele>1472.8</ele>
        <time>2021-10-09 15:58:04</time>
      </trkpt>
      <trkpt lat="40.31197" lon="-1.88312">
        <ele>1473</ele>
        <time>2021-10-09 15:58:05</time>
      </trkpt>
      <trkpt lat="40.31196" lon="-1.88307">
        <ele>1473</ele>
        <time>2021-10-09 15:58:06</time>
      </trkpt>
      <trkpt lat="40.31195" lon="-1.88302">
        <ele>1473</ele>
        <time>2021-10-09 15:58:07</time>
      </trkpt>
      <trkpt lat="40.31194" lon="-1.88297">
        <ele>1473</ele>
        <time>2021-10-09 15:58:08</time>
      </trkpt>
      <trkpt lat="40.31193" lon="-1.88294">
        <ele>1473</ele>
        <time>2021-10-09 15:58:09</time>
      </trkpt>
      <trkpt lat="40.31191" lon="-1.88289">
        <ele>1473</ele>
        <time>2021-10-09 15:58:10</time>
      </trkpt>
      <trkpt lat="40.3119" lon="-1.88285">
        <ele>1473.4</ele>
        <time>2021-10-09 15:58:11</time>
      </trkpt>
      <trkpt lat="40.31188" lon="-1.88281">
        <ele>1473.4</ele>
        <time>2021-10-09 15:58:12</time>
      </trkpt>
      <trkpt lat="40.31187" lon="-1.88277">
        <ele>1473.4</ele>
        <time>2021-10-09 15:58:13</time>
      </trkpt>
      <trkpt lat="40.31185" lon="-1.88274">
        <ele>1473.4</ele>
        <time>2021-10-09 15:58:14</time>
      </trkpt>
      <trkpt lat="40.31184" lon="-1.8827">
        <ele>1473.4</ele>
        <time>2021-10-09 15:58:15</time>
      </trkpt>
      <trkpt lat="40.31184" lon="-1.88266">
        <ele>1473.4</ele>
        <time>2021-10-09 15:58:16</time>
      </trkpt>
      <trkpt lat="40.31183" lon="-1.88262">
        <ele>1473.4</ele>
        <time>2021-10-09 15:58:17</time>
      </trkpt>
      <trkpt lat="40.31182" lon="-1.88258">
        <ele>1473.4</ele>
        <time>2021-10-09 15:58:18</time>
      </trkpt>
      <trkpt lat="40.31182" lon="-1.88255">
        <ele>1473.6</ele>
        <time>2021-10-09 15:58:19</time>
      </trkpt>
      <trkpt lat="40.31182" lon="-1.88253">
        <ele>1473.6</ele>
        <time>2021-10-09 15:58:20</time>
      </trkpt>
      <trkpt lat="40.31182" lon="-1.88253">
        <ele>1473.6</ele>
        <time>2021-10-09 15:58:21</time>
      </trkpt>
      <trkpt lat="40.31181" lon="-1.88252">
        <ele>1473.6</ele>
        <time>2021-10-09 15:58:22</time>
      </trkpt>
      <trkpt lat="40.31181" lon="-1.88245">
        <ele>1473.6</ele>
        <time>2021-10-09 15:58:32</time>
      </trkpt>
      <trkpt lat="40.3118" lon="-1.88243">
        <ele>1473.6</ele>
        <time>2021-10-09 15:58:33</time>
      </trkpt>
      <trkpt lat="40.31179" lon="-1.88241">
        <ele>1473.6</ele>
        <time>2021-10-09 15:58:34</time>
      </trkpt>
      <trkpt lat="40.31177" lon="-1.88238">
        <ele>1473.6</ele>
        <time>2021-10-09 15:58:35</time>
      </trkpt>
      <trkpt lat="40.31175" lon="-1.88235">
        <ele>1473.6</ele>
        <time>2021-10-09 15:58:36</time>
      </trkpt>
      <trkpt lat="40.31174" lon="-1.88232">
        <ele>1473.6</ele>
        <time>2021-10-09 15:58:37</time>
      </trkpt>
      <trkpt lat="40.31173" lon="-1.88228">
        <ele>1473.6</ele>
        <time>2021-10-09 15:58:38</time>
      </trkpt>
      <trkpt lat="40.31172" lon="-1.88224">
        <ele>1473.6</ele>
        <time>2021-10-09 15:58:39</time>
      </trkpt>
      <trkpt lat="40.3117" lon="-1.8822">
        <ele>1473.6</ele>
        <time>2021-10-09 15:58:40</time>
      </trkpt>
      <trkpt lat="40.31169" lon="-1.88216">
        <ele>1473.6</ele>
        <time>2021-10-09 15:58:41</time>
      </trkpt>
      <trkpt lat="40.31168" lon="-1.88213">
        <ele>1474</ele>
        <time>2021-10-09 15:58:42</time>
      </trkpt>
      <trkpt lat="40.31167" lon="-1.8821">
        <ele>1474</ele>
        <time>2021-10-09 15:58:43</time>
      </trkpt>
      <trkpt lat="40.31165" lon="-1.88206">
        <ele>1474.2</ele>
        <time>2021-10-09 15:58:44</time>
      </trkpt>
      <trkpt lat="40.31163" lon="-1.88203">
        <ele>1474.2</ele>
        <time>2021-10-09 15:58:45</time>
      </trkpt>
      <trkpt lat="40.31161" lon="-1.882">
        <ele>1474.2</ele>
        <time>2021-10-09 15:58:46</time>
      </trkpt>
      <trkpt lat="40.3116" lon="-1.88196">
        <ele>1474.2</ele>
        <time>2021-10-09 15:58:47</time>
      </trkpt>
      <trkpt lat="40.31158" lon="-1.88192">
        <ele>1474.2</ele>
        <time>2021-10-09 15:58:48</time>
      </trkpt>
      <trkpt lat="40.31156" lon="-1.88187">
        <ele>1474.2</ele>
        <time>2021-10-09 15:58:49</time>
      </trkpt>
      <trkpt lat="40.31154" lon="-1.88182">
        <ele>1474.2</ele>
        <time>2021-10-09 15:58:50</time>
      </trkpt>
      <trkpt lat="40.31152" lon="-1.88178">
        <ele>1474.2</ele>
        <time>2021-10-09 15:58:51</time>
      </trkpt>
      <trkpt lat="40.3115" lon="-1.88173">
        <ele>1474.2</ele>
        <time>2021-10-09 15:58:52</time>
      </trkpt>
      <trkpt lat="40.31148" lon="-1.88168">
        <ele>1474.2</ele>
        <time>2021-10-09 15:58:53</time>
      </trkpt>
      <trkpt lat="40.31146" lon="-1.88163">
        <ele>1474.4</ele>
        <time>2021-10-09 15:58:54</time>
      </trkpt>
      <trkpt lat="40.31144" lon="-1.88158">
        <ele>1474.4</ele>
        <time>2021-10-09 15:58:55</time>
      </trkpt>
      <trkpt lat="40.31141" lon="-1.88154">
        <ele>1474.4</ele>
        <time>2021-10-09 15:58:56</time>
      </trkpt>
      <trkpt lat="40.31139" lon="-1.88149">
        <ele>1474.6</ele>
        <time>2021-10-09 15:58:57</time>
      </trkpt>
      <trkpt lat="40.31137" lon="-1.88144">
        <ele>1474.6</ele>
        <time>2021-10-09 15:58:58</time>
      </trkpt>
      <trkpt lat="40.31135" lon="-1.88139">
        <ele>1474.6</ele>
        <time>2021-10-09 15:58:59</time>
      </trkpt>
      <trkpt lat="40.31133" lon="-1.88135">
        <ele>1474.6</ele>
        <time>2021-10-09 15:59:00</time>
      </trkpt>
      <trkpt lat="40.31131" lon="-1.8813">
        <ele>1474.6</ele>
        <time>2021-10-09 15:59:01</time>
      </trkpt>
      <trkpt lat="40.31128" lon="-1.88126">
        <ele>1475</ele>
        <time>2021-10-09 15:59:02</time>
      </trkpt>
      <trkpt lat="40.31127" lon="-1.88122">
        <ele>1475</ele>
        <time>2021-10-09 15:59:03</time>
      </trkpt>
      <trkpt lat="40.31125" lon="-1.88117">
        <ele>1475</ele>
        <time>2021-10-09 15:59:04</time>
      </trkpt>
      <trkpt lat="40.31123" lon="-1.88112">
        <ele>1475</ele>
        <time>2021-10-09 15:59:05</time>
      </trkpt>
      <trkpt lat="40.31121" lon="-1.88108">
        <ele>1475.2</ele>
        <time>2021-10-09 15:59:06</time>
      </trkpt>
      <trkpt lat="40.31119" lon="-1.88103">
        <ele>1475.2</ele>
        <time>2021-10-09 15:59:07</time>
      </trkpt>
      <trkpt lat="40.31117" lon="-1.88098">
        <ele>1475.2</ele>
        <time>2021-10-09 15:59:08</time>
      </trkpt>
      <trkpt lat="40.31115" lon="-1.88094">
        <ele>1475.4</ele>
        <time>2021-10-09 15:59:09</time>
      </trkpt>
      <trkpt lat="40.31114" lon="-1.88089">
        <ele>1475.4</ele>
        <time>2021-10-09 15:59:10</time>
      </trkpt>
      <trkpt lat="40.31112" lon="-1.88085">
        <ele>1475.4</ele>
        <time>2021-10-09 15:59:11</time>
      </trkpt>
      <trkpt lat="40.3111" lon="-1.8808">
        <ele>1475.8</ele>
        <time>2021-10-09 15:59:12</time>
      </trkpt>
      <trkpt lat="40.31109" lon="-1.88075">
        <ele>1475.8</ele>
        <time>2021-10-09 15:59:13</time>
      </trkpt>
      <trkpt lat="40.31107" lon="-1.88071">
        <ele>1475.8</ele>
        <time>2021-10-09 15:59:14</time>
      </trkpt>
      <trkpt lat="40.31106" lon="-1.88067">
        <ele>1476</ele>
        <time>2021-10-09 15:59:15</time>
      </trkpt>
      <trkpt lat="40.31104" lon="-1.88063">
        <ele>1476</ele>
        <time>2021-10-09 15:59:16</time>
      </trkpt>
      <trkpt lat="40.31102" lon="-1.88058">
        <ele>1476.2</ele>
        <time>2021-10-09 15:59:17</time>
      </trkpt>
      <trkpt lat="40.311" lon="-1.88054">
        <ele>1476.2</ele>
        <time>2021-10-09 15:59:18</time>
      </trkpt>
      <trkpt lat="40.31098" lon="-1.88049">
        <ele>1476.4</ele>
        <time>2021-10-09 15:59:19</time>
      </trkpt>
      <trkpt lat="40.31097" lon="-1.88044">
        <ele>1476.4</ele>
        <time>2021-10-09 15:59:20</time>
      </trkpt>
      <trkpt lat="40.31095" lon="-1.8804">
        <ele>1476.8</ele>
        <time>2021-10-09 15:59:21</time>
      </trkpt>
      <trkpt lat="40.31093" lon="-1.88035">
        <ele>1476.8</ele>
        <time>2021-10-09 15:59:22</time>
      </trkpt>
      <trkpt lat="40.31091" lon="-1.8803">
        <ele>1477</ele>
        <time>2021-10-09 15:59:23</time>
      </trkpt>
      <trkpt lat="40.3109" lon="-1.88025">
        <ele>1477</ele>
        <time>2021-10-09 15:59:24</time>
      </trkpt>
      <trkpt lat="40.31089" lon="-1.8802">
        <ele>1477.2</ele>
        <time>2021-10-09 15:59:25</time>
      </trkpt>
      <trkpt lat="40.31089" lon="-1.88016">
        <ele>1477.2</ele>
        <time>2021-10-09 15:59:26</time>
      </trkpt>
      <trkpt lat="40.31088" lon="-1.88011">
        <ele>1477.2</ele>
        <time>2021-10-09 15:59:27</time>
      </trkpt>
      <trkpt lat="40.31089" lon="-1.88005">
        <ele>1477.6</ele>
        <time>2021-10-09 15:59:28</time>
      </trkpt>
      <trkpt lat="40.31089" lon="-1.87999">
        <ele>1477.6</ele>
        <time>2021-10-09 15:59:29</time>
      </trkpt>
      <trkpt lat="40.31089" lon="-1.87994">
        <ele>1477.6</ele>
        <time>2021-10-09 15:59:30</time>
      </trkpt>
      <trkpt lat="40.31088" lon="-1.87989">
        <ele>1477.6</ele>
        <time>2021-10-09 15:59:31</time>
      </trkpt>
      <trkpt lat="40.31088" lon="-1.87984">
        <ele>1477.8</ele>
        <time>2021-10-09 15:59:32</time>
      </trkpt>
      <trkpt lat="40.3109" lon="-1.87979">
        <ele>1477.8</ele>
        <time>2021-10-09 15:59:33</time>
      </trkpt>
      <trkpt lat="40.31091" lon="-1.87974">
        <ele>1478</ele>
        <time>2021-10-09 15:59:34</time>
      </trkpt>
      <trkpt lat="40.31094" lon="-1.8797">
        <ele>1478</ele>
        <time>2021-10-09 15:59:35</time>
      </trkpt>
      <trkpt lat="40.31096" lon="-1.87965">
        <ele>1478.2</ele>
        <time>2021-10-09 15:59:36</time>
      </trkpt>
      <trkpt lat="40.31098" lon="-1.87961">
        <ele>1478.2</ele>
        <time>2021-10-09 15:59:37</time>
      </trkpt>
      <trkpt lat="40.311" lon="-1.87956">
        <ele>1478.2</ele>
        <time>2021-10-09 15:59:38</time>
      </trkpt>
      <trkpt lat="40.31101" lon="-1.87952">
        <ele>1478.6</ele>
        <time>2021-10-09 15:59:39</time>
      </trkpt>
      <trkpt lat="40.31104" lon="-1.87948">
        <ele>1478.6</ele>
        <time>2021-10-09 15:59:40</time>
      </trkpt>
      <trkpt lat="40.31106" lon="-1.87944">
        <ele>1478.8</ele>
        <time>2021-10-09 15:59:41</time>
      </trkpt>
      <trkpt lat="40.31109" lon="-1.87941">
        <ele>1478.8</ele>
        <time>2021-10-09 15:59:42</time>
      </trkpt>
      <trkpt lat="40.31111" lon="-1.87935">
        <ele>1479</ele>
        <time>2021-10-09 15:59:43</time>
      </trkpt>
      <trkpt lat="40.31114" lon="-1.87931">
        <ele>1478.6</ele>
        <time>2021-10-09 15:59:44</time>
      </trkpt>
      <trkpt lat="40.31116" lon="-1.87927">
        <ele>1478.6</ele>
        <time>2021-10-09 15:59:45</time>
      </trkpt>
      <trkpt lat="40.31119" lon="-1.87921">
        <ele>1478.6</ele>
        <time>2021-10-09 15:59:46</time>
      </trkpt>
      <trkpt lat="40.31121" lon="-1.87917">
        <ele>1478.6</ele>
        <time>2021-10-09 15:59:47</time>
      </trkpt>
      <trkpt lat="40.31123" lon="-1.87913">
        <ele>1478.6</ele>
        <time>2021-10-09 15:59:48</time>
      </trkpt>
      <trkpt lat="40.31124" lon="-1.87908">
        <ele>1478.6</ele>
        <time>2021-10-09 15:59:49</time>
      </trkpt>
      <trkpt lat="40.31127" lon="-1.87903">
        <ele>1478.6</ele>
        <time>2021-10-09 15:59:50</time>
      </trkpt>
      <trkpt lat="40.31128" lon="-1.87898">
        <ele>1478.6</ele>
        <time>2021-10-09 15:59:51</time>
      </trkpt>
      <trkpt lat="40.3113" lon="-1.87894">
        <ele>1478.6</ele>
        <time>2021-10-09 15:59:52</time>
      </trkpt>
      <trkpt lat="40.31131" lon="-1.87888">
        <ele>1478.8</ele>
        <time>2021-10-09 15:59:53</time>
      </trkpt>
      <trkpt lat="40.31132" lon="-1.87883">
        <ele>1478.8</ele>
        <time>2021-10-09 15:59:54</time>
      </trkpt>
      <trkpt lat="40.31133" lon="-1.87877">
        <ele>1478.8</ele>
        <time>2021-10-09 15:59:55</time>
      </trkpt>
      <trkpt lat="40.31134" lon="-1.87872">
        <ele>1478.8</ele>
        <time>2021-10-09 15:59:56</time>
      </trkpt>
      <trkpt lat="40.31134" lon="-1.87866">
        <ele>1478.8</ele>
        <time>2021-10-09 15:59:57</time>
      </trkpt>
      <trkpt lat="40.31135" lon="-1.87861">
        <ele>1478.8</ele>
        <time>2021-10-09 15:59:58</time>
      </trkpt>
      <trkpt lat="40.31135" lon="-1.87856">
        <ele>1478.8</ele>
        <time>2021-10-09 15:59:59</time>
      </trkpt>
      <trkpt lat="40.31135" lon="-1.87852">
        <ele>1478.8</ele>
        <time>2021-10-09 16:00:00</time>
      </trkpt>
      <trkpt lat="40.31136" lon="-1.87846">
        <ele>1478.8</ele>
        <time>2021-10-09 16:00:01</time>
      </trkpt>
      <trkpt lat="40.31135" lon="-1.87842">
        <ele>1478.8</ele>
        <time>2021-10-09 16:00:02</time>
      </trkpt>
      <trkpt lat="40.31135" lon="-1.87837">
        <ele>1479</ele>
        <time>2021-10-09 16:00:03</time>
      </trkpt>
      <trkpt lat="40.31135" lon="-1.87831">
        <ele>1479</ele>
        <time>2021-10-09 16:00:04</time>
      </trkpt>
      <trkpt lat="40.31135" lon="-1.87826">
        <ele>1479</ele>
        <time>2021-10-09 16:00:05</time>
      </trkpt>
      <trkpt lat="40.31136" lon="-1.87821">
        <ele>1479</ele>
        <time>2021-10-09 16:00:06</time>
      </trkpt>
      <trkpt lat="40.31136" lon="-1.87816">
        <ele>1479</ele>
        <time>2021-10-09 16:00:07</time>
      </trkpt>
      <trkpt lat="40.31136" lon="-1.87811">
        <ele>1479</ele>
        <time>2021-10-09 16:00:08</time>
      </trkpt>
      <trkpt lat="40.31136" lon="-1.87806">
        <ele>1479.2</ele>
        <time>2021-10-09 16:00:09</time>
      </trkpt>
      <trkpt lat="40.31136" lon="-1.87801">
        <ele>1479.2</ele>
        <time>2021-10-09 16:00:10</time>
      </trkpt>
      <trkpt lat="40.31135" lon="-1.87797">
        <ele>1479.2</ele>
        <time>2021-10-09 16:00:11</time>
      </trkpt>
      <trkpt lat="40.31135" lon="-1.87791">
        <ele>1479.6</ele>
        <time>2021-10-09 16:00:12</time>
      </trkpt>
      <trkpt lat="40.31134" lon="-1.87786">
        <ele>1479.6</ele>
        <time>2021-10-09 16:00:13</time>
      </trkpt>
      <trkpt lat="40.31134" lon="-1.87781">
        <ele>1479.6</ele>
        <time>2021-10-09 16:00:14</time>
      </trkpt>
      <trkpt lat="40.31133" lon="-1.87776">
        <ele>1479.8</ele>
        <time>2021-10-09 16:00:15</time>
      </trkpt>
      <trkpt lat="40.31132" lon="-1.87771">
        <ele>1479.8</ele>
        <time>2021-10-09 16:00:16</time>
      </trkpt>
      <trkpt lat="40.31131" lon="-1.87767">
        <ele>1480</ele>
        <time>2021-10-09 16:00:17</time>
      </trkpt>
      <trkpt lat="40.3113" lon="-1.87762">
        <ele>1480</ele>
        <time>2021-10-09 16:00:18</time>
      </trkpt>
      <trkpt lat="40.31129" lon="-1.87758">
        <ele>1480</ele>
        <time>2021-10-09 16:00:19</time>
      </trkpt>
      <trkpt lat="40.31128" lon="-1.87754">
        <ele>1480.2</ele>
        <time>2021-10-09 16:00:20</time>
      </trkpt>
      <trkpt lat="40.31127" lon="-1.87749">
        <ele>1480.2</ele>
        <time>2021-10-09 16:00:21</time>
      </trkpt>
      <trkpt lat="40.31125" lon="-1.87744">
        <ele>1480.4</ele>
        <time>2021-10-09 16:00:22</time>
      </trkpt>
      <trkpt lat="40.31124" lon="-1.8774">
        <ele>1480.4</ele>
        <time>2021-10-09 16:00:23</time>
      </trkpt>
      <trkpt lat="40.31123" lon="-1.87735">
        <ele>1480.4</ele>
        <time>2021-10-09 16:00:24</time>
      </trkpt>
      <trkpt lat="40.31121" lon="-1.8773">
        <ele>1480.4</ele>
        <time>2021-10-09 16:00:25</time>
      </trkpt>
      <trkpt lat="40.31119" lon="-1.87725">
        <ele>1480.4</ele>
        <time>2021-10-09 16:00:26</time>
      </trkpt>
      <trkpt lat="40.31117" lon="-1.8772">
        <ele>1480.6</ele>
        <time>2021-10-09 16:00:27</time>
      </trkpt>
      <trkpt lat="40.31116" lon="-1.87716">
        <ele>1480.6</ele>
        <time>2021-10-09 16:00:28</time>
      </trkpt>
      <trkpt lat="40.31114" lon="-1.87711">
        <ele>1480.6</ele>
        <time>2021-10-09 16:00:29</time>
      </trkpt>
      <trkpt lat="40.31112" lon="-1.87706">
        <ele>1480.6</ele>
        <time>2021-10-09 16:00:30</time>
      </trkpt>
      <trkpt lat="40.31111" lon="-1.87701">
        <ele>1480.6</ele>
        <time>2021-10-09 16:00:31</time>
      </trkpt>
      <trkpt lat="40.3111" lon="-1.87697">
        <ele>1480.6</ele>
        <time>2021-10-09 16:00:32</time>
      </trkpt>
      <trkpt lat="40.31109" lon="-1.87691">
        <ele>1480.8</ele>
        <time>2021-10-09 16:00:33</time>
      </trkpt>
      <trkpt lat="40.31107" lon="-1.87687">
        <ele>1480.8</ele>
        <time>2021-10-09 16:00:34</time>
      </trkpt>
      <trkpt lat="40.31105" lon="-1.87682">
        <ele>1480.8</ele>
        <time>2021-10-09 16:00:35</time>
      </trkpt>
      <trkpt lat="40.31103" lon="-1.87677">
        <ele>1480.8</ele>
        <time>2021-10-09 16:00:36</time>
      </trkpt>
      <trkpt lat="40.31102" lon="-1.87673">
        <ele>1480.8</ele>
        <time>2021-10-09 16:00:37</time>
      </trkpt>
      <trkpt lat="40.31101" lon="-1.87669">
        <ele>1481.2</ele>
        <time>2021-10-09 16:00:38</time>
      </trkpt>
      <trkpt lat="40.31099" lon="-1.87664">
        <ele>1481.2</ele>
        <time>2021-10-09 16:00:39</time>
      </trkpt>
      <trkpt lat="40.31097" lon="-1.87662">
        <ele>1481.2</ele>
        <time>2021-10-09 16:00:40</time>
      </trkpt>
      <trkpt lat="40.31094" lon="-1.87659">
        <ele>1481.6</ele>
        <time>2021-10-09 16:00:41</time>
      </trkpt>
      <trkpt lat="40.31092" lon="-1.87656">
        <ele>1481.6</ele>
        <time>2021-10-09 16:00:42</time>
      </trkpt>
      <trkpt lat="40.31089" lon="-1.87653">
        <ele>1481.6</ele>
        <time>2021-10-09 16:00:43</time>
      </trkpt>
      <trkpt lat="40.31086" lon="-1.87649">
        <ele>1481.6</ele>
        <time>2021-10-09 16:00:44</time>
      </trkpt>
      <trkpt lat="40.31083" lon="-1.87647">
        <ele>1481.8</ele>
        <time>2021-10-09 16:00:45</time>
      </trkpt>
      <trkpt lat="40.31081" lon="-1.87644">
        <ele>1481.8</ele>
        <time>2021-10-09 16:00:46</time>
      </trkpt>
      <trkpt lat="40.31078" lon="-1.87641">
        <ele>1481.8</ele>
        <time>2021-10-09 16:00:47</time>
      </trkpt>
      <trkpt lat="40.31075" lon="-1.87638">
        <ele>1482</ele>
        <time>2021-10-09 16:00:48</time>
      </trkpt>
      <trkpt lat="40.31073" lon="-1.87636">
        <ele>1482</ele>
        <time>2021-10-09 16:00:49</time>
      </trkpt>
      <trkpt lat="40.3107" lon="-1.87633">
        <ele>1482</ele>
        <time>2021-10-09 16:00:50</time>
      </trkpt>
      <trkpt lat="40.31067" lon="-1.87631">
        <ele>1482.4</ele>
        <time>2021-10-09 16:00:51</time>
      </trkpt>
      <trkpt lat="40.31064" lon="-1.87628">
        <ele>1482.4</ele>
        <time>2021-10-09 16:00:52</time>
      </trkpt>
      <trkpt lat="40.31061" lon="-1.87625">
        <ele>1482.4</ele>
        <time>2021-10-09 16:00:53</time>
      </trkpt>
      <trkpt lat="40.31058" lon="-1.87622">
        <ele>1482.4</ele>
        <time>2021-10-09 16:00:54</time>
      </trkpt>
      <trkpt lat="40.31056" lon="-1.87619">
        <ele>1482.4</ele>
        <time>2021-10-09 16:00:55</time>
      </trkpt>
      <trkpt lat="40.31054" lon="-1.87615">
        <ele>1482.4</ele>
        <time>2021-10-09 16:00:56</time>
      </trkpt>
      <trkpt lat="40.31052" lon="-1.87612">
        <ele>1482.8</ele>
        <time>2021-10-09 16:00:57</time>
      </trkpt>
      <trkpt lat="40.31049" lon="-1.87609">
        <ele>1482.8</ele>
        <time>2021-10-09 16:00:58</time>
      </trkpt>
      <trkpt lat="40.31047" lon="-1.87606">
        <ele>1483</ele>
        <time>2021-10-09 16:00:59</time>
      </trkpt>
      <trkpt lat="40.31046" lon="-1.87603">
        <ele>1483</ele>
        <time>2021-10-09 16:01:00</time>
      </trkpt>
      <trkpt lat="40.31043" lon="-1.87599">
        <ele>1483.2</ele>
        <time>2021-10-09 16:01:01</time>
      </trkpt>
      <trkpt lat="40.31042" lon="-1.87596">
        <ele>1483.2</ele>
        <time>2021-10-09 16:01:02</time>
      </trkpt>
      <trkpt lat="40.3104" lon="-1.87592">
        <ele>1483.2</ele>
        <time>2021-10-09 16:01:03</time>
      </trkpt>
      <trkpt lat="40.31039" lon="-1.87588">
        <ele>1483.2</ele>
        <time>2021-10-09 16:01:04</time>
      </trkpt>
      <trkpt lat="40.31037" lon="-1.87583">
        <ele>1483.2</ele>
        <time>2021-10-09 16:01:05</time>
      </trkpt>
      <trkpt lat="40.31036" lon="-1.87579">
        <ele>1483.2</ele>
        <time>2021-10-09 16:01:06</time>
      </trkpt>
      <trkpt lat="40.31034" lon="-1.87575">
        <ele>1483.2</ele>
        <time>2021-10-09 16:01:07</time>
      </trkpt>
      <trkpt lat="40.31033" lon="-1.87571">
        <ele>1483.4</ele>
        <time>2021-10-09 16:01:08</time>
      </trkpt>
      <trkpt lat="40.31031" lon="-1.87566">
        <ele>1483.4</ele>
        <time>2021-10-09 16:01:09</time>
      </trkpt>
      <trkpt lat="40.31029" lon="-1.87562">
        <ele>1483.4</ele>
        <time>2021-10-09 16:01:10</time>
      </trkpt>
      <trkpt lat="40.31027" lon="-1.87557">
        <ele>1483.4</ele>
        <time>2021-10-09 16:01:11</time>
      </trkpt>
      <trkpt lat="40.31026" lon="-1.87553">
        <ele>1483.4</ele>
        <time>2021-10-09 16:01:12</time>
      </trkpt>
      <trkpt lat="40.31024" lon="-1.87549">
        <ele>1483.4</ele>
        <time>2021-10-09 16:01:13</time>
      </trkpt>
      <trkpt lat="40.31023" lon="-1.87545">
        <ele>1483.8</ele>
        <time>2021-10-09 16:01:14</time>
      </trkpt>
      <trkpt lat="40.31021" lon="-1.87541">
        <ele>1483.8</ele>
        <time>2021-10-09 16:01:15</time>
      </trkpt>
      <trkpt lat="40.31019" lon="-1.87537">
        <ele>1483.8</ele>
        <time>2021-10-09 16:01:16</time>
      </trkpt>
      <trkpt lat="40.31018" lon="-1.87533">
        <ele>1484</ele>
        <time>2021-10-09 16:01:17</time>
      </trkpt>
      <trkpt lat="40.31017" lon="-1.87528">
        <ele>1484</ele>
        <time>2021-10-09 16:01:18</time>
      </trkpt>
      <trkpt lat="40.31016" lon="-1.87525">
        <ele>1484</ele>
        <time>2021-10-09 16:01:19</time>
      </trkpt>
      <trkpt lat="40.31015" lon="-1.87521">
        <ele>1484.2</ele>
        <time>2021-10-09 16:01:20</time>
      </trkpt>
      <trkpt lat="40.31014" lon="-1.87516">
        <ele>1484.2</ele>
        <time>2021-10-09 16:01:21</time>
      </trkpt>
      <trkpt lat="40.31012" lon="-1.87513">
        <ele>1484.4</ele>
        <time>2021-10-09 16:01:22</time>
      </trkpt>
      <trkpt lat="40.31011" lon="-1.8751">
        <ele>1484.4</ele>
        <time>2021-10-09 16:01:23</time>
      </trkpt>
      <trkpt lat="40.31009" lon="-1.87506">
        <ele>1484.8</ele>
        <time>2021-10-09 16:01:24</time>
      </trkpt>
      <trkpt lat="40.31008" lon="-1.87503">
        <ele>1484.8</ele>
        <time>2021-10-09 16:01:25</time>
      </trkpt>
      <trkpt lat="40.31006" lon="-1.87499">
        <ele>1484.8</ele>
        <time>2021-10-09 16:01:26</time>
      </trkpt>
      <trkpt lat="40.31004" lon="-1.87495">
        <ele>1485</ele>
        <time>2021-10-09 16:01:27</time>
      </trkpt>
      <trkpt lat="40.31003" lon="-1.87491">
        <ele>1485</ele>
        <time>2021-10-09 16:01:28</time>
      </trkpt>
      <trkpt lat="40.31001" lon="-1.87486">
        <ele>1485</ele>
        <time>2021-10-09 16:01:29</time>
      </trkpt>
      <trkpt lat="40.31" lon="-1.87482">
        <ele>1485</ele>
        <time>2021-10-09 16:01:30</time>
      </trkpt>
      <trkpt lat="40.30999" lon="-1.87477">
        <ele>1485</ele>
        <time>2021-10-09 16:01:31</time>
      </trkpt>
      <trkpt lat="40.30998" lon="-1.87472">
        <ele>1485</ele>
        <time>2021-10-09 16:01:32</time>
      </trkpt>
      <trkpt lat="40.30997" lon="-1.87467">
        <ele>1485</ele>
        <time>2021-10-09 16:01:33</time>
      </trkpt>
      <trkpt lat="40.30998" lon="-1.87462">
        <ele>1485</ele>
        <time>2021-10-09 16:01:34</time>
      </trkpt>
      <trkpt lat="40.30998" lon="-1.87458">
        <ele>1485</ele>
        <time>2021-10-09 16:01:35</time>
      </trkpt>
      <trkpt lat="40.30999" lon="-1.87453">
        <ele>1485</ele>
        <time>2021-10-09 16:01:36</time>
      </trkpt>
      <trkpt lat="40.31" lon="-1.87448">
        <ele>1485.2</ele>
        <time>2021-10-09 16:01:37</time>
      </trkpt>
      <trkpt lat="40.31001" lon="-1.87443">
        <ele>1485.2</ele>
        <time>2021-10-09 16:01:38</time>
      </trkpt>
      <trkpt lat="40.31002" lon="-1.87438">
        <ele>1485.2</ele>
        <time>2021-10-09 16:01:39</time>
      </trkpt>
      <trkpt lat="40.31004" lon="-1.87434">
        <ele>1485.4</ele>
        <time>2021-10-09 16:01:40</time>
      </trkpt>
      <trkpt lat="40.31005" lon="-1.87429">
        <ele>1485.4</ele>
        <time>2021-10-09 16:01:41</time>
      </trkpt>
      <trkpt lat="40.31006" lon="-1.87425">
        <ele>1486.6</ele>
        <time>2021-10-09 16:01:42</time>
      </trkpt>
      <trkpt lat="40.31008" lon="-1.87421">
        <ele>1487</ele>
        <time>2021-10-09 16:01:43</time>
      </trkpt>
      <trkpt lat="40.31009" lon="-1.87416">
        <ele>1487</ele>
        <time>2021-10-09 16:01:44</time>
      </trkpt>
      <trkpt lat="40.31011" lon="-1.87412">
        <ele>1487</ele>
        <time>2021-10-09 16:01:45</time>
      </trkpt>
      <trkpt lat="40.31011" lon="-1.87409">
        <ele>1486.6</ele>
        <time>2021-10-09 16:01:46</time>
      </trkpt>
      <trkpt lat="40.31012" lon="-1.87405">
        <ele>1486.6</ele>
        <time>2021-10-09 16:01:47</time>
      </trkpt>
      <trkpt lat="40.31012" lon="-1.87402">
        <ele>1486.6</ele>
        <time>2021-10-09 16:01:48</time>
      </trkpt>
      <trkpt lat="40.31013" lon="-1.87398">
        <ele>1486.6</ele>
        <time>2021-10-09 16:01:49</time>
      </trkpt>
      <trkpt lat="40.31013" lon="-1.87395">
        <ele>1486.6</ele>
        <time>2021-10-09 16:01:50</time>
      </trkpt>
      <trkpt lat="40.31013" lon="-1.87391">
        <ele>1486.6</ele>
        <time>2021-10-09 16:01:51</time>
      </trkpt>
      <trkpt lat="40.31013" lon="-1.87386">
        <ele>1486.6</ele>
        <time>2021-10-09 16:01:52</time>
      </trkpt>
      <trkpt lat="40.31014" lon="-1.87382">
        <ele>1486.6</ele>
        <time>2021-10-09 16:01:53</time>
      </trkpt>
      <trkpt lat="40.31014" lon="-1.87377">
        <ele>1486.6</ele>
        <time>2021-10-09 16:01:54</time>
      </trkpt>
      <trkpt lat="40.31013" lon="-1.87373">
        <ele>1486.6</ele>
        <time>2021-10-09 16:01:55</time>
      </trkpt>
      <trkpt lat="40.31013" lon="-1.87368">
        <ele>1486.6</ele>
        <time>2021-10-09 16:01:56</time>
      </trkpt>
      <trkpt lat="40.31012" lon="-1.87363">
        <ele>1486.6</ele>
        <time>2021-10-09 16:01:57</time>
      </trkpt>
      <trkpt lat="40.31011" lon="-1.87359">
        <ele>1486.8</ele>
        <time>2021-10-09 16:01:58</time>
      </trkpt>
      <trkpt lat="40.3101" lon="-1.87354">
        <ele>1486.8</ele>
        <time>2021-10-09 16:01:59</time>
      </trkpt>
      <trkpt lat="40.31009" lon="-1.87351">
        <ele>1486.8</ele>
        <time>2021-10-09 16:02:00</time>
      </trkpt>
      <trkpt lat="40.31008" lon="-1.87348">
        <ele>1486.8</ele>
        <time>2021-10-09 16:02:01</time>
      </trkpt>
      <trkpt lat="40.31008" lon="-1.87348">
        <ele>1487.2</ele>
        <time>2021-10-09 16:02:02</time>
      </trkpt>
      <trkpt lat="40.31008" lon="-1.87347">
        <ele>1487.2</ele>
        <time>2021-10-09 16:02:03</time>
      </trkpt>
      <trkpt lat="40.31008" lon="-1.87347">
        <ele>1487.2</ele>
        <time>2021-10-09 16:02:04</time>
      </trkpt>
      <trkpt lat="40.31006" lon="-1.87346">
        <ele>1487.2</ele>
        <time>2021-10-09 16:02:09</time>
      </trkpt>
      <trkpt lat="40.31006" lon="-1.87345">
        <ele>1487.2</ele>
        <time>2021-10-09 16:02:10</time>
      </trkpt>
      <trkpt lat="40.31005" lon="-1.87343">
        <ele>1487.2</ele>
        <time>2021-10-09 16:02:11</time>
      </trkpt>
      <trkpt lat="40.31004" lon="-1.8734">
        <ele>1487.2</ele>
        <time>2021-10-09 16:02:12</time>
      </trkpt>
      <trkpt lat="40.31003" lon="-1.87337">
        <ele>1487.2</ele>
        <time>2021-10-09 16:02:13</time>
      </trkpt>
      <trkpt lat="40.31001" lon="-1.87333">
        <ele>1487.2</ele>
        <time>2021-10-09 16:02:14</time>
      </trkpt>
      <trkpt lat="40.30999" lon="-1.87329">
        <ele>1487.2</ele>
        <time>2021-10-09 16:02:15</time>
      </trkpt>
      <trkpt lat="40.30998" lon="-1.87325">
        <ele>1487.2</ele>
        <time>2021-10-09 16:02:16</time>
      </trkpt>
      <trkpt lat="40.30996" lon="-1.87321">
        <ele>1487.2</ele>
        <time>2021-10-09 16:02:17</time>
      </trkpt>
      <trkpt lat="40.30995" lon="-1.87316">
        <ele>1487.2</ele>
        <time>2021-10-09 16:02:18</time>
      </trkpt>
      <trkpt lat="40.30994" lon="-1.87313">
        <ele>1487.2</ele>
        <time>2021-10-09 16:02:19</time>
      </trkpt>
      <trkpt lat="40.30992" lon="-1.87309">
        <ele>1487.2</ele>
        <time>2021-10-09 16:02:20</time>
      </trkpt>
      <trkpt lat="40.3099" lon="-1.87305">
        <ele>1487.4</ele>
        <time>2021-10-09 16:02:21</time>
      </trkpt>
      <trkpt lat="40.30989" lon="-1.873">
        <ele>1487.4</ele>
        <time>2021-10-09 16:02:22</time>
      </trkpt>
      <trkpt lat="40.30988" lon="-1.87297">
        <ele>1487.4</ele>
        <time>2021-10-09 16:02:23</time>
      </trkpt>
      <trkpt lat="40.30987" lon="-1.87293">
        <ele>1487.4</ele>
        <time>2021-10-09 16:02:24</time>
      </trkpt>
      <trkpt lat="40.30986" lon="-1.87289">
        <ele>1487.4</ele>
        <time>2021-10-09 16:02:25</time>
      </trkpt>
      <trkpt lat="40.30985" lon="-1.87284">
        <ele>1487.4</ele>
        <time>2021-10-09 16:02:26</time>
      </trkpt>
      <trkpt lat="40.30984" lon="-1.87279">
        <ele>1487.6</ele>
        <time>2021-10-09 16:02:27</time>
      </trkpt>
      <trkpt lat="40.30984" lon="-1.87274">
        <ele>1487.6</ele>
        <time>2021-10-09 16:02:28</time>
      </trkpt>
      <trkpt lat="40.30984" lon="-1.8727">
        <ele>1487.8</ele>
        <time>2021-10-09 16:02:29</time>
      </trkpt>
      <trkpt lat="40.30984" lon="-1.87266">
        <ele>1487.8</ele>
        <time>2021-10-09 16:02:30</time>
      </trkpt>
      <trkpt lat="40.30985" lon="-1.87261">
        <ele>1487.8</ele>
        <time>2021-10-09 16:02:31</time>
      </trkpt>
      <trkpt lat="40.30985" lon="-1.87257">
        <ele>1488.2</ele>
        <time>2021-10-09 16:02:32</time>
      </trkpt>
      <trkpt lat="40.30985" lon="-1.87253">
        <ele>1488.2</ele>
        <time>2021-10-09 16:02:33</time>
      </trkpt>
      <trkpt lat="40.30986" lon="-1.87249">
        <ele>1488.4</ele>
        <time>2021-10-09 16:02:34</time>
      </trkpt>
      <trkpt lat="40.30986" lon="-1.87244">
        <ele>1488.4</ele>
        <time>2021-10-09 16:02:35</time>
      </trkpt>
      <trkpt lat="40.30987" lon="-1.87239">
        <ele>1488.4</ele>
        <time>2021-10-09 16:02:36</time>
      </trkpt>
      <trkpt lat="40.30987" lon="-1.87234">
        <ele>1488.4</ele>
        <time>2021-10-09 16:02:37</time>
      </trkpt>
      <trkpt lat="40.30988" lon="-1.8723">
        <ele>1488.6</ele>
        <time>2021-10-09 16:02:38</time>
      </trkpt>
      <trkpt lat="40.30989" lon="-1.87225">
        <ele>1488.6</ele>
        <time>2021-10-09 16:02:39</time>
      </trkpt>
      <trkpt lat="40.30989" lon="-1.87221">
        <ele>1488.6</ele>
        <time>2021-10-09 16:02:40</time>
      </trkpt>
      <trkpt lat="40.3099" lon="-1.87216">
        <ele>1488.6</ele>
        <time>2021-10-09 16:02:41</time>
      </trkpt>
      <trkpt lat="40.30991" lon="-1.87211">
        <ele>1488.6</ele>
        <time>2021-10-09 16:02:42</time>
      </trkpt>
      <trkpt lat="40.30992" lon="-1.87207">
        <ele>1488.8</ele>
        <time>2021-10-09 16:02:43</time>
      </trkpt>
      <trkpt lat="40.30992" lon="-1.87202">
        <ele>1488.8</ele>
        <time>2021-10-09 16:02:44</time>
      </trkpt>
      <trkpt lat="40.30993" lon="-1.87197">
        <ele>1488.8</ele>
        <time>2021-10-09 16:02:45</time>
      </trkpt>
      <trkpt lat="40.30994" lon="-1.87192">
        <ele>1488.8</ele>
        <time>2021-10-09 16:02:46</time>
      </trkpt>
      <trkpt lat="40.30994" lon="-1.87187">
        <ele>1489.2</ele>
        <time>2021-10-09 16:02:47</time>
      </trkpt>
      <trkpt lat="40.30995" lon="-1.87182">
        <ele>1489.2</ele>
        <time>2021-10-09 16:02:48</time>
      </trkpt>
      <trkpt lat="40.30995" lon="-1.87178">
        <ele>1489.2</ele>
        <time>2021-10-09 16:02:49</time>
      </trkpt>
      <trkpt lat="40.30996" lon="-1.87173">
        <ele>1489.2</ele>
        <time>2021-10-09 16:02:50</time>
      </trkpt>
      <trkpt lat="40.30997" lon="-1.87169">
        <ele>1489.4</ele>
        <time>2021-10-09 16:02:51</time>
      </trkpt>
      <trkpt lat="40.30997" lon="-1.87164">
        <ele>1489.4</ele>
        <time>2021-10-09 16:02:52</time>
      </trkpt>
      <trkpt lat="40.30998" lon="-1.8716">
        <ele>1489.4</ele>
        <time>2021-10-09 16:02:53</time>
      </trkpt>
      <trkpt lat="40.30999" lon="-1.87155">
        <ele>1489.6</ele>
        <time>2021-10-09 16:02:54</time>
      </trkpt>
      <trkpt lat="40.30999" lon="-1.8715">
        <ele>1489.6</ele>
        <time>2021-10-09 16:02:55</time>
      </trkpt>
      <trkpt lat="40.30999" lon="-1.87146">
        <ele>1489.6</ele>
        <time>2021-10-09 16:02:56</time>
      </trkpt>
      <trkpt lat="40.30999" lon="-1.87141">
        <ele>1489.8</ele>
        <time>2021-10-09 16:02:57</time>
      </trkpt>
      <trkpt lat="40.30999" lon="-1.87136">
        <ele>1489.8</ele>
        <time>2021-10-09 16:02:58</time>
      </trkpt>
      <trkpt lat="40.30999" lon="-1.87132">
        <ele>1489.8</ele>
        <time>2021-10-09 16:02:59</time>
      </trkpt>
      <trkpt lat="40.30999" lon="-1.87128">
        <ele>1489.8</ele>
        <time>2021-10-09 16:03:00</time>
      </trkpt>
      <trkpt lat="40.31" lon="-1.87124">
        <ele>1490.2</ele>
        <time>2021-10-09 16:03:01</time>
      </trkpt>
      <trkpt lat="40.31" lon="-1.8712">
        <ele>1490.2</ele>
        <time>2021-10-09 16:03:02</time>
      </trkpt>
      <trkpt lat="40.31" lon="-1.87115">
        <ele>1490.2</ele>
        <time>2021-10-09 16:03:03</time>
      </trkpt>
      <trkpt lat="40.31001" lon="-1.87111">
        <ele>1490.4</ele>
        <time>2021-10-09 16:03:04</time>
      </trkpt>
      <trkpt lat="40.31001" lon="-1.87108">
        <ele>1490.4</ele>
        <time>2021-10-09 16:03:05</time>
      </trkpt>
      <trkpt lat="40.31001" lon="-1.87104">
        <ele>1490.4</ele>
        <time>2021-10-09 16:03:06</time>
      </trkpt>
      <trkpt lat="40.31001" lon="-1.871">
        <ele>1490.4</ele>
        <time>2021-10-09 16:03:07</time>
      </trkpt>
      <trkpt lat="40.31002" lon="-1.87096">
        <ele>1490.4</ele>
        <time>2021-10-09 16:03:08</time>
      </trkpt>
      <trkpt lat="40.31002" lon="-1.87091">
        <ele>1490.6</ele>
        <time>2021-10-09 16:03:09</time>
      </trkpt>
      <trkpt lat="40.31002" lon="-1.87087">
        <ele>1490.6</ele>
        <time>2021-10-09 16:03:10</time>
      </trkpt>
      <trkpt lat="40.31002" lon="-1.87083">
        <ele>1490.6</ele>
        <time>2021-10-09 16:03:11</time>
      </trkpt>
      <trkpt lat="40.31002" lon="-1.87079">
        <ele>1490.6</ele>
        <time>2021-10-09 16:03:12</time>
      </trkpt>
      <trkpt lat="40.31002" lon="-1.87075">
        <ele>1491</ele>
        <time>2021-10-09 16:03:13</time>
      </trkpt>
      <trkpt lat="40.31001" lon="-1.87071">
        <ele>1491</ele>
        <time>2021-10-09 16:03:14</time>
      </trkpt>
      <trkpt lat="40.31001" lon="-1.87068">
        <ele>1491</ele>
        <time>2021-10-09 16:03:15</time>
      </trkpt>
      <trkpt lat="40.31001" lon="-1.87064">
        <ele>1491.2</ele>
        <time>2021-10-09 16:03:16</time>
      </trkpt>
      <trkpt lat="40.31" lon="-1.8706">
        <ele>1491.2</ele>
        <time>2021-10-09 16:03:17</time>
      </trkpt>
      <trkpt lat="40.31" lon="-1.87056">
        <ele>1491.2</ele>
        <time>2021-10-09 16:03:18</time>
      </trkpt>
      <trkpt lat="40.30999" lon="-1.87052">
        <ele>1491.4</ele>
        <time>2021-10-09 16:03:19</time>
      </trkpt>
      <trkpt lat="40.30999" lon="-1.87048">
        <ele>1491.4</ele>
        <time>2021-10-09 16:03:20</time>
      </trkpt>
      <trkpt lat="40.30998" lon="-1.87044">
        <ele>1491.4</ele>
        <time>2021-10-09 16:03:21</time>
      </trkpt>
      <trkpt lat="40.30997" lon="-1.87041">
        <ele>1491.6</ele>
        <time>2021-10-09 16:03:22</time>
      </trkpt>
      <trkpt lat="40.30996" lon="-1.87037">
        <ele>1491.6</ele>
        <time>2021-10-09 16:03:23</time>
      </trkpt>
      <trkpt lat="40.30995" lon="-1.87034">
        <ele>1491.6</ele>
        <time>2021-10-09 16:03:24</time>
      </trkpt>
      <trkpt lat="40.30994" lon="-1.8703">
        <ele>1492</ele>
        <time>2021-10-09 16:03:25</time>
      </trkpt>
      <trkpt lat="40.30992" lon="-1.87027">
        <ele>1492</ele>
        <time>2021-10-09 16:03:26</time>
      </trkpt>
      <trkpt lat="40.30991" lon="-1.87023">
        <ele>1492</ele>
        <time>2021-10-09 16:03:27</time>
      </trkpt>
      <trkpt lat="40.3099" lon="-1.87019">
        <ele>1492</ele>
        <time>2021-10-09 16:03:28</time>
      </trkpt>
      <trkpt lat="40.30988" lon="-1.87015">
        <ele>1492.2</ele>
        <time>2021-10-09 16:03:29</time>
      </trkpt>
      <trkpt lat="40.30987" lon="-1.87011">
        <ele>1492.2</ele>
        <time>2021-10-09 16:03:30</time>
      </trkpt>
      <trkpt lat="40.30985" lon="-1.87008">
        <ele>1492.2</ele>
        <time>2021-10-09 16:03:31</time>
      </trkpt>
      <trkpt lat="40.30983" lon="-1.87004">
        <ele>1492.4</ele>
        <time>2021-10-09 16:03:32</time>
      </trkpt>
      <trkpt lat="40.30982" lon="-1.87001">
        <ele>1492.4</ele>
        <time>2021-10-09 16:03:33</time>
      </trkpt>
      <trkpt lat="40.3098" lon="-1.86997">
        <ele>1492.4</ele>
        <time>2021-10-09 16:03:34</time>
      </trkpt>
      <trkpt lat="40.30977" lon="-1.86991">
        <ele>1492.4</ele>
        <time>2021-10-09 16:03:35</time>
      </trkpt>
      <trkpt lat="40.30977" lon="-1.86987">
        <ele>1492.4</ele>
        <time>2021-10-09 16:03:36</time>
      </trkpt>
      <trkpt lat="40.30974" lon="-1.86983">
        <ele>1492.4</ele>
        <time>2021-10-09 16:03:37</time>
      </trkpt>
      <trkpt lat="40.30972" lon="-1.86979">
        <ele>1492.6</ele>
        <time>2021-10-09 16:03:38</time>
      </trkpt>
      <trkpt lat="40.30972" lon="-1.86975">
        <ele>1492.6</ele>
        <time>2021-10-09 16:03:39</time>
      </trkpt>
      <trkpt lat="40.3097" lon="-1.86971">
        <ele>1493</ele>
        <time>2021-10-09 16:03:40</time>
      </trkpt>
      <trkpt lat="40.30968" lon="-1.86966">
        <ele>1493</ele>
        <time>2021-10-09 16:03:41</time>
      </trkpt>
      <trkpt lat="40.30967" lon="-1.86961">
        <ele>1493</ele>
        <time>2021-10-09 16:03:42</time>
      </trkpt>
      <trkpt lat="40.30965" lon="-1.86957">
        <ele>1492.8</ele>
        <time>2021-10-09 16:03:43</time>
      </trkpt>
      <trkpt lat="40.30963" lon="-1.86953">
        <ele>1492.8</ele>
        <time>2021-10-09 16:03:44</time>
      </trkpt>
      <trkpt lat="40.30961" lon="-1.86949">
        <ele>1492.8</ele>
        <time>2021-10-09 16:03:45</time>
      </trkpt>
      <trkpt lat="40.30959" lon="-1.86945">
        <ele>1492.8</ele>
        <time>2021-10-09 16:03:46</time>
      </trkpt>
      <trkpt lat="40.30958" lon="-1.8694">
        <ele>1492.8</ele>
        <time>2021-10-09 16:03:47</time>
      </trkpt>
      <trkpt lat="40.30956" lon="-1.86935">
        <ele>1492.8</ele>
        <time>2021-10-09 16:03:48</time>
      </trkpt>
      <trkpt lat="40.30955" lon="-1.86931">
        <ele>1492.8</ele>
        <time>2021-10-09 16:03:49</time>
      </trkpt>
      <trkpt lat="40.30953" lon="-1.86927">
        <ele>1492.8</ele>
        <time>2021-10-09 16:03:50</time>
      </trkpt>
      <trkpt lat="40.30951" lon="-1.86922">
        <ele>1492.8</ele>
        <time>2021-10-09 16:03:51</time>
      </trkpt>
      <trkpt lat="40.30949" lon="-1.86918">
        <ele>1493</ele>
        <time>2021-10-09 16:03:52</time>
      </trkpt>
      <trkpt lat="40.30947" lon="-1.86913">
        <ele>1493</ele>
        <time>2021-10-09 16:03:53</time>
      </trkpt>
      <trkpt lat="40.30945" lon="-1.86909">
        <ele>1493</ele>
        <time>2021-10-09 16:03:54</time>
      </trkpt>
      <trkpt lat="40.30942" lon="-1.86905">
        <ele>1493</ele>
        <time>2021-10-09 16:03:55</time>
      </trkpt>
      <trkpt lat="40.3094" lon="-1.86902">
        <ele>1493</ele>
        <time>2021-10-09 16:03:56</time>
      </trkpt>
      <trkpt lat="40.30937" lon="-1.86898">
        <ele>1493</ele>
        <time>2021-10-09 16:03:57</time>
      </trkpt>
      <trkpt lat="40.30934" lon="-1.86894">
        <ele>1493</ele>
        <time>2021-10-09 16:03:58</time>
      </trkpt>
      <trkpt lat="40.30931" lon="-1.86891">
        <ele>1493</ele>
        <time>2021-10-09 16:03:59</time>
      </trkpt>
      <trkpt lat="40.30929" lon="-1.86888">
        <ele>1493</ele>
        <time>2021-10-09 16:04:00</time>
      </trkpt>
      <trkpt lat="40.30926" lon="-1.86885">
        <ele>1493.2</ele>
        <time>2021-10-09 16:04:01</time>
      </trkpt>
      <trkpt lat="40.30923" lon="-1.86882">
        <ele>1493.2</ele>
        <time>2021-10-09 16:04:02</time>
      </trkpt>
      <trkpt lat="40.30919" lon="-1.86879">
        <ele>1493.2</ele>
        <time>2021-10-09 16:04:03</time>
      </trkpt>
      <trkpt lat="40.30916" lon="-1.86876">
        <ele>1493.2</ele>
        <time>2021-10-09 16:04:04</time>
      </trkpt>
      <trkpt lat="40.30913" lon="-1.86873">
        <ele>1493.2</ele>
        <time>2021-10-09 16:04:05</time>
      </trkpt>
      <trkpt lat="40.3091" lon="-1.8687">
        <ele>1493.4</ele>
        <time>2021-10-09 16:04:06</time>
      </trkpt>
      <trkpt lat="40.30908" lon="-1.86867">
        <ele>1493.4</ele>
        <time>2021-10-09 16:04:07</time>
      </trkpt>
      <trkpt lat="40.30904" lon="-1.86864">
        <ele>1493.4</ele>
        <time>2021-10-09 16:04:08</time>
      </trkpt>
      <trkpt lat="40.30902" lon="-1.8686">
        <ele>1493.4</ele>
        <time>2021-10-09 16:04:09</time>
      </trkpt>
      <trkpt lat="40.30899" lon="-1.86857">
        <ele>1493.6</ele>
        <time>2021-10-09 16:04:10</time>
      </trkpt>
      <trkpt lat="40.30896" lon="-1.86854">
        <ele>1493.6</ele>
        <time>2021-10-09 16:04:11</time>
      </trkpt>
      <trkpt lat="40.30893" lon="-1.86851">
        <ele>1494</ele>
        <time>2021-10-09 16:04:12</time>
      </trkpt>
      <trkpt lat="40.3089" lon="-1.86848">
        <ele>1494</ele>
        <time>2021-10-09 16:04:13</time>
      </trkpt>
      <trkpt lat="40.30888" lon="-1.86845">
        <ele>1494</ele>
        <time>2021-10-09 16:04:14</time>
      </trkpt>
      <trkpt lat="40.30885" lon="-1.86842">
        <ele>1494.2</ele>
        <time>2021-10-09 16:04:15</time>
      </trkpt>
      <trkpt lat="40.30883" lon="-1.86838">
        <ele>1494.2</ele>
        <time>2021-10-09 16:04:16</time>
      </trkpt>
      <trkpt lat="40.30881" lon="-1.86835">
        <ele>1494.4</ele>
        <time>2021-10-09 16:04:17</time>
      </trkpt>
      <trkpt lat="40.30878" lon="-1.86831">
        <ele>1494.4</ele>
        <time>2021-10-09 16:04:18</time>
      </trkpt>
      <trkpt lat="40.30876" lon="-1.86827">
        <ele>1494.6</ele>
        <time>2021-10-09 16:04:19</time>
      </trkpt>
      <trkpt lat="40.30874" lon="-1.86823">
        <ele>1494.6</ele>
        <time>2021-10-09 16:04:20</time>
      </trkpt>
      <trkpt lat="40.30872" lon="-1.86819">
        <ele>1494.6</ele>
        <time>2021-10-09 16:04:21</time>
      </trkpt>
      <trkpt lat="40.3087" lon="-1.86815">
        <ele>1495</ele>
        <time>2021-10-09 16:04:22</time>
      </trkpt>
      <trkpt lat="40.30869" lon="-1.86811">
        <ele>1495</ele>
        <time>2021-10-09 16:04:23</time>
      </trkpt>
      <trkpt lat="40.30867" lon="-1.86807">
        <ele>1495</ele>
        <time>2021-10-09 16:04:24</time>
      </trkpt>
      <trkpt lat="40.30866" lon="-1.86803">
        <ele>1495</ele>
        <time>2021-10-09 16:04:25</time>
      </trkpt>
      <trkpt lat="40.30865" lon="-1.86799">
        <ele>1495</ele>
        <time>2021-10-09 16:04:26</time>
      </trkpt>
      <trkpt lat="40.30863" lon="-1.86795">
        <ele>1495.2</ele>
        <time>2021-10-09 16:04:27</time>
      </trkpt>
      <trkpt lat="40.30862" lon="-1.86791">
        <ele>1495.2</ele>
        <time>2021-10-09 16:04:28</time>
      </trkpt>
      <trkpt lat="40.3086" lon="-1.86787">
        <ele>1495.2</ele>
        <time>2021-10-09 16:04:29</time>
      </trkpt>
      <trkpt lat="40.30858" lon="-1.86782">
        <ele>1495.2</ele>
        <time>2021-10-09 16:04:30</time>
      </trkpt>
      <trkpt lat="40.30857" lon="-1.86778">
        <ele>1495.4</ele>
        <time>2021-10-09 16:04:31</time>
      </trkpt>
      <trkpt lat="40.30855" lon="-1.86774">
        <ele>1495.6</ele>
        <time>2021-10-09 16:04:32</time>
      </trkpt>
      <trkpt lat="40.30852" lon="-1.8677">
        <ele>1495.6</ele>
        <time>2021-10-09 16:04:33</time>
      </trkpt>
      <trkpt lat="40.3085" lon="-1.86766">
        <ele>1496</ele>
        <time>2021-10-09 16:04:34</time>
      </trkpt>
      <trkpt lat="40.30847" lon="-1.86763">
        <ele>1496</ele>
        <time>2021-10-09 16:04:35</time>
      </trkpt>
      <trkpt lat="40.30845" lon="-1.86759">
        <ele>1496</ele>
        <time>2021-10-09 16:04:36</time>
      </trkpt>
      <trkpt lat="40.30842" lon="-1.86756">
        <ele>1496</ele>
        <time>2021-10-09 16:04:37</time>
      </trkpt>
      <trkpt lat="40.30839" lon="-1.86753">
        <ele>1496.4</ele>
        <time>2021-10-09 16:04:38</time>
      </trkpt>
      <trkpt lat="40.30836" lon="-1.86749">
        <ele>1496.4</ele>
        <time>2021-10-09 16:04:39</time>
      </trkpt>
      <trkpt lat="40.30833" lon="-1.86746">
        <ele>1496.6</ele>
        <time>2021-10-09 16:04:40</time>
      </trkpt>
      <trkpt lat="40.30831" lon="-1.86743">
        <ele>1496.6</ele>
        <time>2021-10-09 16:04:41</time>
      </trkpt>
      <trkpt lat="40.30828" lon="-1.86741">
        <ele>1496.6</ele>
        <time>2021-10-09 16:04:42</time>
      </trkpt>
      <trkpt lat="40.30825" lon="-1.86738">
        <ele>1496.6</ele>
        <time>2021-10-09 16:04:43</time>
      </trkpt>
      <trkpt lat="40.30822" lon="-1.86736">
        <ele>1496.6</ele>
        <time>2021-10-09 16:04:44</time>
      </trkpt>
      <trkpt lat="40.30819" lon="-1.86734">
        <ele>1496.8</ele>
        <time>2021-10-09 16:04:45</time>
      </trkpt>
      <trkpt lat="40.30816" lon="-1.86732">
        <ele>1496.8</ele>
        <time>2021-10-09 16:04:46</time>
      </trkpt>
      <trkpt lat="40.30813" lon="-1.8673">
        <ele>1496.8</ele>
        <time>2021-10-09 16:04:47</time>
      </trkpt>
      <trkpt lat="40.3081" lon="-1.86728">
        <ele>1497.2</ele>
        <time>2021-10-09 16:04:48</time>
      </trkpt>
      <trkpt lat="40.30808" lon="-1.86726">
        <ele>1497.2</ele>
        <time>2021-10-09 16:04:49</time>
      </trkpt>
      <trkpt lat="40.30805" lon="-1.86724">
        <ele>1497.2</ele>
        <time>2021-10-09 16:04:50</time>
      </trkpt>
      <trkpt lat="40.30802" lon="-1.86721">
        <ele>1497.6</ele>
        <time>2021-10-09 16:04:51</time>
      </trkpt>
      <trkpt lat="40.30799" lon="-1.86719">
        <ele>1497.6</ele>
        <time>2021-10-09 16:04:52</time>
      </trkpt>
      <trkpt lat="40.30796" lon="-1.86716">
        <ele>1497.6</ele>
        <time>2021-10-09 16:04:53</time>
      </trkpt>
      <trkpt lat="40.30793" lon="-1.86714">
        <ele>1497.8</ele>
        <time>2021-10-09 16:04:54</time>
      </trkpt>
      <trkpt lat="40.3079" lon="-1.86712">
        <ele>1497.8</ele>
        <time>2021-10-09 16:04:55</time>
      </trkpt>
      <trkpt lat="40.30788" lon="-1.8671">
        <ele>1498</ele>
        <time>2021-10-09 16:04:56</time>
      </trkpt>
      <trkpt lat="40.30785" lon="-1.86708">
        <ele>1498</ele>
        <time>2021-10-09 16:04:57</time>
      </trkpt>
      <trkpt lat="40.30781" lon="-1.86705">
        <ele>1498</ele>
        <time>2021-10-09 16:04:58</time>
      </trkpt>
      <trkpt lat="40.30778" lon="-1.86703">
        <ele>1498.4</ele>
        <time>2021-10-09 16:04:59</time>
      </trkpt>
      <trkpt lat="40.30775" lon="-1.867">
        <ele>1498.4</ele>
        <time>2021-10-09 16:05:00</time>
      </trkpt>
      <trkpt lat="40.30772" lon="-1.86698">
        <ele>1498.4</ele>
        <time>2021-10-09 16:05:01</time>
      </trkpt>
      <trkpt lat="40.30769" lon="-1.86696">
        <ele>1498.4</ele>
        <time>2021-10-09 16:05:02</time>
      </trkpt>
      <trkpt lat="40.30766" lon="-1.86694">
        <ele>1498.4</ele>
        <time>2021-10-09 16:05:03</time>
      </trkpt>
      <trkpt lat="40.30763" lon="-1.86691">
        <ele>1498.4</ele>
        <time>2021-10-09 16:05:04</time>
      </trkpt>
      <trkpt lat="40.3076" lon="-1.86689">
        <ele>1498.8</ele>
        <time>2021-10-09 16:05:05</time>
      </trkpt>
      <trkpt lat="40.30758" lon="-1.86686">
        <ele>1498.8</ele>
        <time>2021-10-09 16:05:06</time>
      </trkpt>
      <trkpt lat="40.30757" lon="-1.86685">
        <ele>1499</ele>
        <time>2021-10-09 16:05:07</time>
      </trkpt>
      <trkpt lat="40.30756" lon="-1.86683">
        <ele>1499</ele>
        <time>2021-10-09 16:05:08</time>
      </trkpt>
      <trkpt lat="40.30753" lon="-1.8668">
        <ele>1499</ele>
        <time>2021-10-09 16:05:09</time>
      </trkpt>
      <trkpt lat="40.3075" lon="-1.86677">
        <ele>1499</ele>
        <time>2021-10-09 16:05:10</time>
      </trkpt>
      <trkpt lat="40.30747" lon="-1.86674">
        <ele>1499</ele>
        <time>2021-10-09 16:05:11</time>
      </trkpt>
      <trkpt lat="40.30744" lon="-1.86672">
        <ele>1499</ele>
        <time>2021-10-09 16:05:12</time>
      </trkpt>
      <trkpt lat="40.30741" lon="-1.86669">
        <ele>1499</ele>
        <time>2021-10-09 16:05:13</time>
      </trkpt>
      <trkpt lat="40.30738" lon="-1.86666">
        <ele>1499.2</ele>
        <time>2021-10-09 16:05:14</time>
      </trkpt>
      <trkpt lat="40.30735" lon="-1.86664">
        <ele>1499.2</ele>
        <time>2021-10-09 16:05:15</time>
      </trkpt>
      <trkpt lat="40.30732" lon="-1.86662">
        <ele>1499.2</ele>
        <time>2021-10-09 16:05:16</time>
      </trkpt>
      <trkpt lat="40.3073" lon="-1.8666">
        <ele>1499.2</ele>
        <time>2021-10-09 16:05:17</time>
      </trkpt>
      <trkpt lat="40.30727" lon="-1.86657">
        <ele>1499.2</ele>
        <time>2021-10-09 16:05:18</time>
      </trkpt>
      <trkpt lat="40.30723" lon="-1.86655">
        <ele>1499.2</ele>
        <time>2021-10-09 16:05:19</time>
      </trkpt>
      <trkpt lat="40.30721" lon="-1.86652">
        <ele>1499.2</ele>
        <time>2021-10-09 16:05:20</time>
      </trkpt>
      <trkpt lat="40.30717" lon="-1.8665">
        <ele>1499.2</ele>
        <time>2021-10-09 16:05:21</time>
      </trkpt>
      <trkpt lat="40.30714" lon="-1.86648">
        <ele>1499.6</ele>
        <time>2021-10-09 16:05:22</time>
      </trkpt>
      <trkpt lat="40.30711" lon="-1.86646">
        <ele>1499.6</ele>
        <time>2021-10-09 16:05:23</time>
      </trkpt>
      <trkpt lat="40.30708" lon="-1.86643">
        <ele>1499.6</ele>
        <time>2021-10-09 16:05:24</time>
      </trkpt>
      <trkpt lat="40.30704" lon="-1.8664">
        <ele>1499.6</ele>
        <time>2021-10-09 16:05:25</time>
      </trkpt>
      <trkpt lat="40.30701" lon="-1.86638">
        <ele>1499.8</ele>
        <time>2021-10-09 16:05:26</time>
      </trkpt>
      <trkpt lat="40.30698" lon="-1.86635">
        <ele>1499.8</ele>
        <time>2021-10-09 16:05:27</time>
      </trkpt>
      <trkpt lat="40.30694" lon="-1.86633">
        <ele>1499.8</ele>
        <time>2021-10-09 16:05:28</time>
      </trkpt>
      <trkpt lat="40.30691" lon="-1.8663">
        <ele>1499.8</ele>
        <time>2021-10-09 16:05:29</time>
      </trkpt>
      <trkpt lat="40.30689" lon="-1.86628">
        <ele>1500</ele>
        <time>2021-10-09 16:05:30</time>
      </trkpt>
      <trkpt lat="40.30686" lon="-1.86625">
        <ele>1500</ele>
        <time>2021-10-09 16:05:31</time>
      </trkpt>
      <trkpt lat="40.30683" lon="-1.86623">
        <ele>1500</ele>
        <time>2021-10-09 16:05:32</time>
      </trkpt>
      <trkpt lat="40.3068" lon="-1.8662">
        <ele>1500.4</ele>
        <time>2021-10-09 16:05:33</time>
      </trkpt>
      <trkpt lat="40.30678" lon="-1.86618">
        <ele>1500.4</ele>
        <time>2021-10-09 16:05:34</time>
      </trkpt>
      <trkpt lat="40.30675" lon="-1.86615">
        <ele>1500.4</ele>
        <time>2021-10-09 16:05:35</time>
      </trkpt>
      <trkpt lat="40.30672" lon="-1.86612">
        <ele>1500.6</ele>
        <time>2021-10-09 16:05:36</time>
      </trkpt>
      <trkpt lat="40.3067" lon="-1.8661">
        <ele>1500.6</ele>
        <time>2021-10-09 16:05:37</time>
      </trkpt>
      <trkpt lat="40.30668" lon="-1.86607">
        <ele>1500.8</ele>
        <time>2021-10-09 16:05:38</time>
      </trkpt>
      <trkpt lat="40.30666" lon="-1.86605">
        <ele>1500.8</ele>
        <time>2021-10-09 16:05:39</time>
      </trkpt>
      <trkpt lat="40.30663" lon="-1.86602">
        <ele>1500.8</ele>
        <time>2021-10-09 16:05:40</time>
      </trkpt>
      <trkpt lat="40.3066" lon="-1.86598">
        <ele>1501.2</ele>
        <time>2021-10-09 16:05:41</time>
      </trkpt>
      <trkpt lat="40.30658" lon="-1.86594">
        <ele>1501.2</ele>
        <time>2021-10-09 16:05:42</time>
      </trkpt>
      <trkpt lat="40.30656" lon="-1.86591">
        <ele>1501.2</ele>
        <time>2021-10-09 16:05:43</time>
      </trkpt>
      <trkpt lat="40.30654" lon="-1.86588">
        <ele>1501.4</ele>
        <time>2021-10-09 16:05:44</time>
      </trkpt>
      <trkpt lat="40.30653" lon="-1.86584">
        <ele>1501.4</ele>
        <time>2021-10-09 16:05:45</time>
      </trkpt>
      <trkpt lat="40.30651" lon="-1.86582">
        <ele>1501.6</ele>
        <time>2021-10-09 16:05:46</time>
      </trkpt>
      <trkpt lat="40.3065" lon="-1.86579">
        <ele>1501.6</ele>
        <time>2021-10-09 16:05:47</time>
      </trkpt>
      <trkpt lat="40.30648" lon="-1.86577">
        <ele>1501.6</ele>
        <time>2021-10-09 16:05:48</time>
      </trkpt>
      <trkpt lat="40.30647" lon="-1.86574">
        <ele>1501.6</ele>
        <time>2021-10-09 16:05:49</time>
      </trkpt>
      <trkpt lat="40.30646" lon="-1.86571">
        <ele>1501.8</ele>
        <time>2021-10-09 16:05:50</time>
      </trkpt>
      <trkpt lat="40.30645" lon="-1.86567">
        <ele>1501.8</ele>
        <time>2021-10-09 16:05:51</time>
      </trkpt>
      <trkpt lat="40.30644" lon="-1.86563">
        <ele>1501.8</ele>
        <time>2021-10-09 16:05:52</time>
      </trkpt>
      <trkpt lat="40.30643" lon="-1.86559">
        <ele>1501.8</ele>
        <time>2021-10-09 16:05:53</time>
      </trkpt>
      <trkpt lat="40.30642" lon="-1.86555">
        <ele>1502.2</ele>
        <time>2021-10-09 16:05:54</time>
      </trkpt>
      <trkpt lat="40.30641" lon="-1.8655">
        <ele>1502.2</ele>
        <time>2021-10-09 16:05:55</time>
      </trkpt>
      <trkpt lat="40.30639" lon="-1.86546">
        <ele>1502.2</ele>
        <time>2021-10-09 16:05:56</time>
      </trkpt>
      <trkpt lat="40.30638" lon="-1.86543">
        <ele>1502.2</ele>
        <time>2021-10-09 16:05:57</time>
      </trkpt>
      <trkpt lat="40.30636" lon="-1.8654">
        <ele>1502.2</ele>
        <time>2021-10-09 16:05:58</time>
      </trkpt>
      <trkpt lat="40.30634" lon="-1.86536">
        <ele>1502.2</ele>
        <time>2021-10-09 16:05:59</time>
      </trkpt>
      <trkpt lat="40.30632" lon="-1.86532">
        <ele>1502.2</ele>
        <time>2021-10-09 16:06:00</time>
      </trkpt>
      <trkpt lat="40.30631" lon="-1.86529">
        <ele>1502.4</ele>
        <time>2021-10-09 16:06:01</time>
      </trkpt>
      <trkpt lat="40.30629" lon="-1.86525">
        <ele>1502.4</ele>
        <time>2021-10-09 16:06:02</time>
      </trkpt>
      <trkpt lat="40.30627" lon="-1.86522">
        <ele>1502.4</ele>
        <time>2021-10-09 16:06:03</time>
      </trkpt>
      <trkpt lat="40.30625" lon="-1.86518">
        <ele>1502.4</ele>
        <time>2021-10-09 16:06:04</time>
      </trkpt>
      <trkpt lat="40.30623" lon="-1.86515">
        <ele>1502.6</ele>
        <time>2021-10-09 16:06:05</time>
      </trkpt>
      <trkpt lat="40.30622" lon="-1.86511">
        <ele>1502.6</ele>
        <time>2021-10-09 16:06:06</time>
      </trkpt>
      <trkpt lat="40.3062" lon="-1.86506">
        <ele>1502.6</ele>
        <time>2021-10-09 16:06:07</time>
      </trkpt>
      <trkpt lat="40.30619" lon="-1.86502">
        <ele>1503</ele>
        <time>2021-10-09 16:06:08</time>
      </trkpt>
      <trkpt lat="40.30616" lon="-1.86498">
        <ele>1503</ele>
        <time>2021-10-09 16:06:09</time>
      </trkpt>
      <trkpt lat="40.30614" lon="-1.86495">
        <ele>1503.2</ele>
        <time>2021-10-09 16:06:10</time>
      </trkpt>
      <trkpt lat="40.30612" lon="-1.86491">
        <ele>1503.2</ele>
        <time>2021-10-09 16:06:11</time>
      </trkpt>
      <trkpt lat="40.30611" lon="-1.86487">
        <ele>1503.4</ele>
        <time>2021-10-09 16:06:12</time>
      </trkpt>
      <trkpt lat="40.30609" lon="-1.86483">
        <ele>1503.4</ele>
        <time>2021-10-09 16:06:13</time>
      </trkpt>
      <trkpt lat="40.30606" lon="-1.86479">
        <ele>1503.4</ele>
        <time>2021-10-09 16:06:14</time>
      </trkpt>
      <trkpt lat="40.30603" lon="-1.86476">
        <ele>1503.4</ele>
        <time>2021-10-09 16:06:15</time>
      </trkpt>
      <trkpt lat="40.30599" lon="-1.86474">
        <ele>1503.4</ele>
        <time>2021-10-09 16:06:16</time>
      </trkpt>
      <trkpt lat="40.30596" lon="-1.86471">
        <ele>1503.4</ele>
        <time>2021-10-09 16:06:17</time>
      </trkpt>
      <trkpt lat="40.30593" lon="-1.86469">
        <ele>1503.6</ele>
        <time>2021-10-09 16:06:18</time>
      </trkpt>
      <trkpt lat="40.3059" lon="-1.86466">
        <ele>1503.6</ele>
        <time>2021-10-09 16:06:19</time>
      </trkpt>
      <trkpt lat="40.30587" lon="-1.86464">
        <ele>1503.6</ele>
        <time>2021-10-09 16:06:20</time>
      </trkpt>
      <trkpt lat="40.30584" lon="-1.86462">
        <ele>1503.6</ele>
        <time>2021-10-09 16:06:21</time>
      </trkpt>
      <trkpt lat="40.30581" lon="-1.8646">
        <ele>1504</ele>
        <time>2021-10-09 16:06:22</time>
      </trkpt>
      <trkpt lat="40.30578" lon="-1.86458">
        <ele>1504</ele>
        <time>2021-10-09 16:06:23</time>
      </trkpt>
      <trkpt lat="40.30574" lon="-1.86456">
        <ele>1504</ele>
        <time>2021-10-09 16:06:24</time>
      </trkpt>
      <trkpt lat="40.30571" lon="-1.86454">
        <ele>1504</ele>
        <time>2021-10-09 16:06:25</time>
      </trkpt>
      <trkpt lat="40.30568" lon="-1.86453">
        <ele>1504</ele>
        <time>2021-10-09 16:06:26</time>
      </trkpt>
      <trkpt lat="40.30565" lon="-1.86451">
        <ele>1504.2</ele>
        <time>2021-10-09 16:06:27</time>
      </trkpt>
      <trkpt lat="40.30562" lon="-1.86449">
        <ele>1504.2</ele>
        <time>2021-10-09 16:06:28</time>
      </trkpt>
      <trkpt lat="40.30558" lon="-1.86447">
        <ele>1504.2</ele>
        <time>2021-10-09 16:06:29</time>
      </trkpt>
      <trkpt lat="40.30555" lon="-1.86445">
        <ele>1504.2</ele>
        <time>2021-10-09 16:06:30</time>
      </trkpt>
      <trkpt lat="40.30551" lon="-1.86443">
        <ele>1504.2</ele>
        <time>2021-10-09 16:06:31</time>
      </trkpt>
      <trkpt lat="40.30548" lon="-1.86442">
        <ele>1504.2</ele>
        <time>2021-10-09 16:06:32</time>
      </trkpt>
      <trkpt lat="40.30544" lon="-1.86441">
        <ele>1504.4</ele>
        <time>2021-10-09 16:06:33</time>
      </trkpt>
      <trkpt lat="40.30541" lon="-1.86439">
        <ele>1504.4</ele>
        <time>2021-10-09 16:06:34</time>
      </trkpt>
      <trkpt lat="40.30537" lon="-1.86437">
        <ele>1504.4</ele>
        <time>2021-10-09 16:06:35</time>
      </trkpt>
      <trkpt lat="40.30533" lon="-1.86435">
        <ele>1504.4</ele>
        <time>2021-10-09 16:06:36</time>
      </trkpt>
      <trkpt lat="40.3053" lon="-1.86433">
        <ele>1504.4</ele>
        <time>2021-10-09 16:06:37</time>
      </trkpt>
      <trkpt lat="40.30527" lon="-1.86431">
        <ele>1504.4</ele>
        <time>2021-10-09 16:06:38</time>
      </trkpt>
      <trkpt lat="40.30523" lon="-1.8643">
        <ele>1504.8</ele>
        <time>2021-10-09 16:06:39</time>
      </trkpt>
      <trkpt lat="40.3052" lon="-1.86428">
        <ele>1505</ele>
        <time>2021-10-09 16:06:40</time>
      </trkpt>
      <trkpt lat="40.30517" lon="-1.86426">
        <ele>1505</ele>
        <time>2021-10-09 16:06:41</time>
      </trkpt>
      <trkpt lat="40.30513" lon="-1.86424">
        <ele>1505</ele>
        <time>2021-10-09 16:06:42</time>
      </trkpt>
      <trkpt lat="40.3051" lon="-1.86422">
        <ele>1505.4</ele>
        <time>2021-10-09 16:06:43</time>
      </trkpt>
      <trkpt lat="40.30507" lon="-1.8642">
        <ele>1505.4</ele>
        <time>2021-10-09 16:06:44</time>
      </trkpt>
      <trkpt lat="40.30503" lon="-1.86419">
        <ele>1505.4</ele>
        <time>2021-10-09 16:06:45</time>
      </trkpt>
      <trkpt lat="40.305" lon="-1.86417">
        <ele>1505.6</ele>
        <time>2021-10-09 16:06:46</time>
      </trkpt>
      <trkpt lat="40.30497" lon="-1.86416">
        <ele>1505.6</ele>
        <time>2021-10-09 16:06:47</time>
      </trkpt>
      <trkpt lat="40.30493" lon="-1.86414">
        <ele>1505.8</ele>
        <time>2021-10-09 16:06:48</time>
      </trkpt>
      <trkpt lat="40.3049" lon="-1.86412">
        <ele>1505.8</ele>
        <time>2021-10-09 16:06:49</time>
      </trkpt>
      <trkpt lat="40.30487" lon="-1.8641">
        <ele>1506.2</ele>
        <time>2021-10-09 16:06:50</time>
      </trkpt>
      <trkpt lat="40.30484" lon="-1.86408">
        <ele>1506.2</ele>
        <time>2021-10-09 16:06:51</time>
      </trkpt>
      <trkpt lat="40.30481" lon="-1.86406">
        <ele>1506.4</ele>
        <time>2021-10-09 16:06:52</time>
      </trkpt>
      <trkpt lat="40.30477" lon="-1.86404">
        <ele>1506.4</ele>
        <time>2021-10-09 16:06:53</time>
      </trkpt>
      <trkpt lat="40.30474" lon="-1.86402">
        <ele>1506.4</ele>
        <time>2021-10-09 16:06:54</time>
      </trkpt>
      <trkpt lat="40.30471" lon="-1.86399">
        <ele>1506.4</ele>
        <time>2021-10-09 16:06:55</time>
      </trkpt>
      <trkpt lat="40.30469" lon="-1.86396">
        <ele>1506.6</ele>
        <time>2021-10-09 16:06:56</time>
      </trkpt>
      <trkpt lat="40.30467" lon="-1.86393">
        <ele>1506.6</ele>
        <time>2021-10-09 16:06:57</time>
      </trkpt>
      <trkpt lat="40.30465" lon="-1.86389">
        <ele>1507</ele>
        <time>2021-10-09 16:06:58</time>
      </trkpt>
      <trkpt lat="40.30463" lon="-1.86385">
        <ele>1505.8</ele>
        <time>2021-10-09 16:06:59</time>
      </trkpt>
      <trkpt lat="40.3046" lon="-1.86382">
        <ele>1506.2</ele>
        <time>2021-10-09 16:07:00</time>
      </trkpt>
      <trkpt lat="40.30458" lon="-1.86378">
        <ele>1506.6</ele>
        <time>2021-10-09 16:07:01</time>
      </trkpt>
      <trkpt lat="40.30456" lon="-1.86375">
        <ele>1506.6</ele>
        <time>2021-10-09 16:07:02</time>
      </trkpt>
      <trkpt lat="40.30454" lon="-1.86372">
        <ele>1507</ele>
        <time>2021-10-09 16:07:03</time>
      </trkpt>
      <trkpt lat="40.30451" lon="-1.86368">
        <ele>1507</ele>
        <time>2021-10-09 16:07:04</time>
      </trkpt>
      <trkpt lat="40.30448" lon="-1.86365">
        <ele>1507</ele>
        <time>2021-10-09 16:07:05</time>
      </trkpt>
      <trkpt lat="40.30445" lon="-1.86362">
        <ele>1507.2</ele>
        <time>2021-10-09 16:07:06</time>
      </trkpt>
      <trkpt lat="40.30442" lon="-1.86359">
        <ele>1507.2</ele>
        <time>2021-10-09 16:07:07</time>
      </trkpt>
      <trkpt lat="40.30439" lon="-1.86357">
        <ele>1507.2</ele>
        <time>2021-10-09 16:07:08</time>
      </trkpt>
      <trkpt lat="40.30436" lon="-1.86354">
        <ele>1507.6</ele>
        <time>2021-10-09 16:07:09</time>
      </trkpt>
      <trkpt lat="40.30433" lon="-1.86352">
        <ele>1507.6</ele>
        <time>2021-10-09 16:07:10</time>
      </trkpt>
      <trkpt lat="40.30431" lon="-1.86349">
        <ele>1507.6</ele>
        <time>2021-10-09 16:07:11</time>
      </trkpt>
      <trkpt lat="40.30428" lon="-1.86347">
        <ele>1507.8</ele>
        <time>2021-10-09 16:07:12</time>
      </trkpt>
      <trkpt lat="40.30425" lon="-1.86344">
        <ele>1507.8</ele>
        <time>2021-10-09 16:07:13</time>
      </trkpt>
      <trkpt lat="40.30422" lon="-1.86342">
        <ele>1507.8</ele>
        <time>2021-10-09 16:07:14</time>
      </trkpt>
      <trkpt lat="40.30418" lon="-1.8634">
        <ele>1508.2</ele>
        <time>2021-10-09 16:07:15</time>
      </trkpt>
      <trkpt lat="40.30415" lon="-1.86337">
        <ele>1508.2</ele>
        <time>2021-10-09 16:07:16</time>
      </trkpt>
      <trkpt lat="40.30412" lon="-1.86335">
        <ele>1508.4</ele>
        <time>2021-10-09 16:07:17</time>
      </trkpt>
      <trkpt lat="40.3041" lon="-1.86333">
        <ele>1508.4</ele>
        <time>2021-10-09 16:07:18</time>
      </trkpt>
      <trkpt lat="40.30407" lon="-1.86331">
        <ele>1508.8</ele>
        <time>2021-10-09 16:07:19</time>
      </trkpt>
      <trkpt lat="40.30404" lon="-1.86329">
        <ele>1508.8</ele>
        <time>2021-10-09 16:07:20</time>
      </trkpt>
      <trkpt lat="40.30401" lon="-1.86328">
        <ele>1509</ele>
        <time>2021-10-09 16:07:21</time>
      </trkpt>
      <trkpt lat="40.30399" lon="-1.86325">
        <ele>1509</ele>
        <time>2021-10-09 16:07:22</time>
      </trkpt>
      <trkpt lat="40.30396" lon="-1.86323">
        <ele>1509</ele>
        <time>2021-10-09 16:07:23</time>
      </trkpt>
      <trkpt lat="40.30395" lon="-1.86322">
        <ele>1509.2</ele>
        <time>2021-10-09 16:07:24</time>
      </trkpt>
      <trkpt lat="40.30393" lon="-1.86321">
        <ele>1509.2</ele>
        <time>2021-10-09 16:07:25</time>
      </trkpt>
      <trkpt lat="40.30391" lon="-1.8632">
        <ele>1509.2</ele>
        <time>2021-10-09 16:07:26</time>
      </trkpt>
      <trkpt lat="40.30389" lon="-1.86319">
        <ele>1509.2</ele>
        <time>2021-10-09 16:07:27</time>
      </trkpt>
      <trkpt lat="40.30388" lon="-1.86318">
        <ele>1509.6</ele>
        <time>2021-10-09 16:07:28</time>
      </trkpt>
      <trkpt lat="40.30386" lon="-1.86318">
        <ele>1509.6</ele>
        <time>2021-10-09 16:07:29</time>
      </trkpt>
      <trkpt lat="40.30384" lon="-1.86317">
        <ele>1509.8</ele>
        <time>2021-10-09 16:07:30</time>
      </trkpt>
      <trkpt lat="40.30382" lon="-1.86315">
        <ele>1509.8</ele>
        <time>2021-10-09 16:07:31</time>
      </trkpt>
      <trkpt lat="40.30379" lon="-1.86315">
        <ele>1509.8</ele>
        <time>2021-10-09 16:07:32</time>
      </trkpt>
      <trkpt lat="40.30377" lon="-1.86314">
        <ele>1510.2</ele>
        <time>2021-10-09 16:07:33</time>
      </trkpt>
      <trkpt lat="40.30375" lon="-1.86313">
        <ele>1510.2</ele>
        <time>2021-10-09 16:07:34</time>
      </trkpt>
      <trkpt lat="40.30372" lon="-1.86312">
        <ele>1510.4</ele>
        <time>2021-10-09 16:07:35</time>
      </trkpt>
      <trkpt lat="40.3037" lon="-1.86311">
        <ele>1510.4</ele>
        <time>2021-10-09 16:07:36</time>
      </trkpt>
      <trkpt lat="40.30368" lon="-1.86311">
        <ele>1510.4</ele>
        <time>2021-10-09 16:07:37</time>
      </trkpt>
      <trkpt lat="40.30365" lon="-1.8631">
        <ele>1510.4</ele>
        <time>2021-10-09 16:07:38</time>
      </trkpt>
      <trkpt lat="40.30363" lon="-1.8631">
        <ele>1510.6</ele>
        <time>2021-10-09 16:07:39</time>
      </trkpt>
      <trkpt lat="40.3036" lon="-1.8631">
        <ele>1510.6</ele>
        <time>2021-10-09 16:07:40</time>
      </trkpt>
      <trkpt lat="40.30358" lon="-1.86311">
        <ele>1510.6</ele>
        <time>2021-10-09 16:07:41</time>
      </trkpt>
      <trkpt lat="40.30356" lon="-1.86312">
        <ele>1510.6</ele>
        <time>2021-10-09 16:07:42</time>
      </trkpt>
      <trkpt lat="40.30354" lon="-1.86313">
        <ele>1511</ele>
        <time>2021-10-09 16:07:43</time>
      </trkpt>
      <trkpt lat="40.30352" lon="-1.86315">
        <ele>1511</ele>
        <time>2021-10-09 16:07:44</time>
      </trkpt>
      <trkpt lat="40.3035" lon="-1.86316">
        <ele>1511</ele>
        <time>2021-10-09 16:07:45</time>
      </trkpt>
      <trkpt lat="40.30348" lon="-1.86317">
        <ele>1511</ele>
        <time>2021-10-09 16:07:46</time>
      </trkpt>
      <trkpt lat="40.30346" lon="-1.86319">
        <ele>1511</ele>
        <time>2021-10-09 16:07:47</time>
      </trkpt>
      <trkpt lat="40.30345" lon="-1.86322">
        <ele>1511</ele>
        <time>2021-10-09 16:07:48</time>
      </trkpt>
      <trkpt lat="40.30344" lon="-1.86324">
        <ele>1511</ele>
        <time>2021-10-09 16:07:49</time>
      </trkpt>
      <trkpt lat="40.30342" lon="-1.86326">
        <ele>1511.2</ele>
        <time>2021-10-09 16:07:50</time>
      </trkpt>
      <trkpt lat="40.30341" lon="-1.86329">
        <ele>1511.2</ele>
        <time>2021-10-09 16:07:51</time>
      </trkpt>
      <trkpt lat="40.3034" lon="-1.86331">
        <ele>1511.2</ele>
        <time>2021-10-09 16:07:52</time>
      </trkpt>
      <trkpt lat="40.30339" lon="-1.86334">
        <ele>1511.2</ele>
        <time>2021-10-09 16:07:53</time>
      </trkpt>
      <trkpt lat="40.30338" lon="-1.86337">
        <ele>1511.4</ele>
        <time>2021-10-09 16:07:54</time>
      </trkpt>
      <trkpt lat="40.30338" lon="-1.86339">
        <ele>1511.4</ele>
        <time>2021-10-09 16:07:55</time>
      </trkpt>
      <trkpt lat="40.30338" lon="-1.86342">
        <ele>1511.6</ele>
        <time>2021-10-09 16:07:56</time>
      </trkpt>
      <trkpt lat="40.30337" lon="-1.86345">
        <ele>1511.6</ele>
        <time>2021-10-09 16:07:57</time>
      </trkpt>
      <trkpt lat="40.30337" lon="-1.86348">
        <ele>1511.6</ele>
        <time>2021-10-09 16:07:58</time>
      </trkpt>
      <trkpt lat="40.30337" lon="-1.86351">
        <ele>1511.8</ele>
        <time>2021-10-09 16:07:59</time>
      </trkpt>
      <trkpt lat="40.30337" lon="-1.86353">
        <ele>1511.8</ele>
        <time>2021-10-09 16:08:00</time>
      </trkpt>
      <trkpt lat="40.30337" lon="-1.86356">
        <ele>1511.8</ele>
        <time>2021-10-09 16:08:01</time>
      </trkpt>
      <trkpt lat="40.30338" lon="-1.86359">
        <ele>1512.2</ele>
        <time>2021-10-09 16:08:02</time>
      </trkpt>
      <trkpt lat="40.30339" lon="-1.86362">
        <ele>1512.2</ele>
        <time>2021-10-09 16:08:03</time>
      </trkpt>
      <trkpt lat="40.3034" lon="-1.86364">
        <ele>1512.2</ele>
        <time>2021-10-09 16:08:04</time>
      </trkpt>
      <trkpt lat="40.30342" lon="-1.86367">
        <ele>1512.4</ele>
        <time>2021-10-09 16:08:05</time>
      </trkpt>
      <trkpt lat="40.30343" lon="-1.86369">
        <ele>1512.4</ele>
        <time>2021-10-09 16:08:06</time>
      </trkpt>
      <trkpt lat="40.30344" lon="-1.86372">
        <ele>1512.6</ele>
        <time>2021-10-09 16:08:07</time>
      </trkpt>
      <trkpt lat="40.30345" lon="-1.86375">
        <ele>1512.6</ele>
        <time>2021-10-09 16:08:08</time>
      </trkpt>
      <trkpt lat="40.30346" lon="-1.86377">
        <ele>1513</ele>
        <time>2021-10-09 16:08:09</time>
      </trkpt>
      <trkpt lat="40.30347" lon="-1.8638">
        <ele>1513</ele>
        <time>2021-10-09 16:08:10</time>
      </trkpt>
      <trkpt lat="40.30348" lon="-1.86383">
        <ele>1513.2</ele>
        <time>2021-10-09 16:08:11</time>
      </trkpt>
      <trkpt lat="40.30349" lon="-1.86385">
        <ele>1513.2</ele>
        <time>2021-10-09 16:08:12</time>
      </trkpt>
      <trkpt lat="40.3035" lon="-1.86388">
        <ele>1513.2</ele>
        <time>2021-10-09 16:08:13</time>
      </trkpt>
      <trkpt lat="40.30351" lon="-1.8639">
        <ele>1513.6</ele>
        <time>2021-10-09 16:08:14</time>
      </trkpt>
      <trkpt lat="40.30353" lon="-1.86392">
        <ele>1513.6</ele>
        <time>2021-10-09 16:08:15</time>
      </trkpt>
      <trkpt lat="40.30354" lon="-1.86394">
        <ele>1513.6</ele>
        <time>2021-10-09 16:08:16</time>
      </trkpt>
      <trkpt lat="40.30355" lon="-1.86397">
        <ele>1513.8</ele>
        <time>2021-10-09 16:08:17</time>
      </trkpt>
      <trkpt lat="40.30356" lon="-1.86399">
        <ele>1513.8</ele>
        <time>2021-10-09 16:08:18</time>
      </trkpt>
      <trkpt lat="40.30357" lon="-1.86402">
        <ele>1513.8</ele>
        <time>2021-10-09 16:08:19</time>
      </trkpt>
      <trkpt lat="40.30358" lon="-1.86405">
        <ele>1514</ele>
        <time>2021-10-09 16:08:20</time>
      </trkpt>
      <trkpt lat="40.30359" lon="-1.86407">
        <ele>1514</ele>
        <time>2021-10-09 16:08:21</time>
      </trkpt>
      <trkpt lat="40.3036" lon="-1.8641">
        <ele>1514.2</ele>
        <time>2021-10-09 16:08:22</time>
      </trkpt>
      <trkpt lat="40.30361" lon="-1.86413">
        <ele>1514.2</ele>
        <time>2021-10-09 16:08:23</time>
      </trkpt>
      <trkpt lat="40.30363" lon="-1.86418">
        <ele>1514.2</ele>
        <time>2021-10-09 16:08:24</time>
      </trkpt>
      <trkpt lat="40.30364" lon="-1.86421">
        <ele>1514.6</ele>
        <time>2021-10-09 16:08:25</time>
      </trkpt>
      <trkpt lat="40.30366" lon="-1.86425">
        <ele>1514.6</ele>
        <time>2021-10-09 16:08:26</time>
      </trkpt>
      <trkpt lat="40.30366" lon="-1.86427">
        <ele>1514.6</ele>
        <time>2021-10-09 16:08:27</time>
      </trkpt>
      <trkpt lat="40.30367" lon="-1.86431">
        <ele>1514.6</ele>
        <time>2021-10-09 16:08:28</time>
      </trkpt>
      <trkpt lat="40.30368" lon="-1.86434">
        <ele>1514.6</ele>
        <time>2021-10-09 16:08:29</time>
      </trkpt>
      <trkpt lat="40.30368" lon="-1.86438">
        <ele>1514.6</ele>
        <time>2021-10-09 16:08:30</time>
      </trkpt>
      <trkpt lat="40.30368" lon="-1.86442">
        <ele>1514.6</ele>
        <time>2021-10-09 16:08:31</time>
      </trkpt>
      <trkpt lat="40.30369" lon="-1.86446">
        <ele>1514.6</ele>
        <time>2021-10-09 16:08:32</time>
      </trkpt>
      <trkpt lat="40.30369" lon="-1.86449">
        <ele>1514.6</ele>
        <time>2021-10-09 16:08:33</time>
      </trkpt>
      <trkpt lat="40.3037" lon="-1.86453">
        <ele>1514.6</ele>
        <time>2021-10-09 16:08:34</time>
      </trkpt>
      <trkpt lat="40.3037" lon="-1.86457">
        <ele>1514.6</ele>
        <time>2021-10-09 16:08:35</time>
      </trkpt>
      <trkpt lat="40.3037" lon="-1.8646">
        <ele>1514.6</ele>
        <time>2021-10-09 16:08:36</time>
      </trkpt>
      <trkpt lat="40.3037" lon="-1.86464">
        <ele>1514.6</ele>
        <time>2021-10-09 16:08:37</time>
      </trkpt>
      <trkpt lat="40.3037" lon="-1.86467">
        <ele>1514.6</ele>
        <time>2021-10-09 16:08:38</time>
      </trkpt>
      <trkpt lat="40.30371" lon="-1.8647">
        <ele>1514.6</ele>
        <time>2021-10-09 16:08:39</time>
      </trkpt>
      <trkpt lat="40.30371" lon="-1.86474">
        <ele>1514.6</ele>
        <time>2021-10-09 16:08:40</time>
      </trkpt>
      <trkpt lat="40.30371" lon="-1.86477">
        <ele>1514.6</ele>
        <time>2021-10-09 16:08:41</time>
      </trkpt>
      <trkpt lat="40.30371" lon="-1.86481">
        <ele>1515</ele>
        <time>2021-10-09 16:08:42</time>
      </trkpt>
      <trkpt lat="40.30371" lon="-1.86484">
        <ele>1515</ele>
        <time>2021-10-09 16:08:43</time>
      </trkpt>
      <trkpt lat="40.30371" lon="-1.86487">
        <ele>1515</ele>
        <time>2021-10-09 16:08:44</time>
      </trkpt>
      <trkpt lat="40.30372" lon="-1.8649">
        <ele>1515.2</ele>
        <time>2021-10-09 16:08:45</time>
      </trkpt>
      <trkpt lat="40.30372" lon="-1.86493">
        <ele>1515.2</ele>
        <time>2021-10-09 16:08:46</time>
      </trkpt>
      <trkpt lat="40.30372" lon="-1.86497">
        <ele>1515.4</ele>
        <time>2021-10-09 16:08:47</time>
      </trkpt>
      <trkpt lat="40.30372" lon="-1.865">
        <ele>1515.4</ele>
        <time>2021-10-09 16:08:48</time>
      </trkpt>
      <trkpt lat="40.30372" lon="-1.86503">
        <ele>1515.8</ele>
        <time>2021-10-09 16:08:49</time>
      </trkpt>
      <trkpt lat="40.30373" lon="-1.86506">
        <ele>1515.8</ele>
        <time>2021-10-09 16:08:50</time>
      </trkpt>
      <trkpt lat="40.30373" lon="-1.8651">
        <ele>1515.8</ele>
        <time>2021-10-09 16:08:51</time>
      </trkpt>
      <trkpt lat="40.30373" lon="-1.86513">
        <ele>1515.8</ele>
        <time>2021-10-09 16:08:52</time>
      </trkpt>
      <trkpt lat="40.30373" lon="-1.86516">
        <ele>1516</ele>
        <time>2021-10-09 16:08:53</time>
      </trkpt>
      <trkpt lat="40.30374" lon="-1.8652">
        <ele>1516</ele>
        <time>2021-10-09 16:08:54</time>
      </trkpt>
      <trkpt lat="40.30374" lon="-1.86523">
        <ele>1516.2</ele>
        <time>2021-10-09 16:08:55</time>
      </trkpt>
      <trkpt lat="40.30374" lon="-1.86526">
        <ele>1516.2</ele>
        <time>2021-10-09 16:08:56</time>
      </trkpt>
      <trkpt lat="40.30374" lon="-1.8653">
        <ele>1516.6</ele>
        <time>2021-10-09 16:08:57</time>
      </trkpt>
      <trkpt lat="40.30375" lon="-1.86533">
        <ele>1516.6</ele>
        <time>2021-10-09 16:08:58</time>
      </trkpt>
      <trkpt lat="40.30375" lon="-1.86537">
        <ele>1516.8</ele>
        <time>2021-10-09 16:08:59</time>
      </trkpt>
      <trkpt lat="40.30375" lon="-1.86541">
        <ele>1516.8</ele>
        <time>2021-10-09 16:09:00</time>
      </trkpt>
      <trkpt lat="40.30375" lon="-1.86544">
        <ele>1517.2</ele>
        <time>2021-10-09 16:09:01</time>
      </trkpt>
      <trkpt lat="40.30375" lon="-1.86548">
        <ele>1517.2</ele>
        <time>2021-10-09 16:09:02</time>
      </trkpt>
      <trkpt lat="40.30376" lon="-1.86551">
        <ele>1517.4</ele>
        <time>2021-10-09 16:09:03</time>
      </trkpt>
      <trkpt lat="40.30376" lon="-1.86555">
        <ele>1517.4</ele>
        <time>2021-10-09 16:09:04</time>
      </trkpt>
      <trkpt lat="40.30376" lon="-1.86558">
        <ele>1517.4</ele>
        <time>2021-10-09 16:09:05</time>
      </trkpt>
      <trkpt lat="40.30376" lon="-1.86562">
        <ele>1517.6</ele>
        <time>2021-10-09 16:09:06</time>
      </trkpt>
      <trkpt lat="40.30376" lon="-1.86566">
        <ele>1517.6</ele>
        <time>2021-10-09 16:09:07</time>
      </trkpt>
      <trkpt lat="40.30376" lon="-1.8657">
        <ele>1517.6</ele>
        <time>2021-10-09 16:09:08</time>
      </trkpt>
      <trkpt lat="40.30376" lon="-1.86574">
        <ele>1517.6</ele>
        <time>2021-10-09 16:09:09</time>
      </trkpt>
      <trkpt lat="40.30376" lon="-1.86578">
        <ele>1517.6</ele>
        <time>2021-10-09 16:09:10</time>
      </trkpt>
      <trkpt lat="40.30375" lon="-1.86582">
        <ele>1517.8</ele>
        <time>2021-10-09 16:09:11</time>
      </trkpt>
      <trkpt lat="40.30375" lon="-1.86587">
        <ele>1517.8</ele>
        <time>2021-10-09 16:09:12</time>
      </trkpt>
      <trkpt lat="40.30374" lon="-1.86591">
        <ele>1517.8</ele>
        <time>2021-10-09 16:09:13</time>
      </trkpt>
      <trkpt lat="40.30373" lon="-1.86595">
        <ele>1517.8</ele>
        <time>2021-10-09 16:09:14</time>
      </trkpt>
      <trkpt lat="40.30371" lon="-1.86599">
        <ele>1517.8</ele>
        <time>2021-10-09 16:09:15</time>
      </trkpt>
      <trkpt lat="40.3037" lon="-1.86603">
        <ele>1517.8</ele>
        <time>2021-10-09 16:09:16</time>
      </trkpt>
      <trkpt lat="40.30368" lon="-1.86608">
        <ele>1517.8</ele>
        <time>2021-10-09 16:09:17</time>
      </trkpt>
      <trkpt lat="40.30366" lon="-1.86613">
        <ele>1517.8</ele>
        <time>2021-10-09 16:09:18</time>
      </trkpt>
      <trkpt lat="40.30363" lon="-1.86617">
        <ele>1517.8</ele>
        <time>2021-10-09 16:09:19</time>
      </trkpt>
      <trkpt lat="40.30359" lon="-1.86622">
        <ele>1517.8</ele>
        <time>2021-10-09 16:09:20</time>
      </trkpt>
      <trkpt lat="40.30357" lon="-1.86627">
        <ele>1517.8</ele>
        <time>2021-10-09 16:09:21</time>
      </trkpt>
      <trkpt lat="40.30355" lon="-1.86631">
        <ele>1517.8</ele>
        <time>2021-10-09 16:09:22</time>
      </trkpt>
      <trkpt lat="40.30352" lon="-1.86635">
        <ele>1517.6</ele>
        <time>2021-10-09 16:09:23</time>
      </trkpt>
      <trkpt lat="40.3035" lon="-1.86641">
        <ele>1517.6</ele>
        <time>2021-10-09 16:09:24</time>
      </trkpt>
      <trkpt lat="40.30347" lon="-1.86644">
        <ele>1517.6</ele>
        <time>2021-10-09 16:09:25</time>
      </trkpt>
      <trkpt lat="40.30345" lon="-1.86648">
        <ele>1517.6</ele>
        <time>2021-10-09 16:09:26</time>
      </trkpt>
      <trkpt lat="40.30343" lon="-1.86652">
        <ele>1517.6</ele>
        <time>2021-10-09 16:09:27</time>
      </trkpt>
      <trkpt lat="40.3034" lon="-1.86656">
        <ele>1517.4</ele>
        <time>2021-10-09 16:09:28</time>
      </trkpt>
      <trkpt lat="40.30338" lon="-1.86661">
        <ele>1517.4</ele>
        <time>2021-10-09 16:09:29</time>
      </trkpt>
      <trkpt lat="40.30335" lon="-1.86665">
        <ele>1517.4</ele>
        <time>2021-10-09 16:09:30</time>
      </trkpt>
      <trkpt lat="40.30333" lon="-1.86669">
        <ele>1517.4</ele>
        <time>2021-10-09 16:09:31</time>
      </trkpt>
      <trkpt lat="40.30331" lon="-1.86673">
        <ele>1517.4</ele>
        <time>2021-10-09 16:09:32</time>
      </trkpt>
      <trkpt lat="40.3033" lon="-1.86677">
        <ele>1517.4</ele>
        <time>2021-10-09 16:09:33</time>
      </trkpt>
      <trkpt lat="40.30328" lon="-1.86681">
        <ele>1517.4</ele>
        <time>2021-10-09 16:09:34</time>
      </trkpt>
      <trkpt lat="40.30327" lon="-1.86686">
        <ele>1517.4</ele>
        <time>2021-10-09 16:09:35</time>
      </trkpt>
      <trkpt lat="40.30326" lon="-1.8669">
        <ele>1517.4</ele>
        <time>2021-10-09 16:09:36</time>
      </trkpt>
      <trkpt lat="40.30325" lon="-1.86695">
        <ele>1517.4</ele>
        <time>2021-10-09 16:09:37</time>
      </trkpt>
      <trkpt lat="40.30325" lon="-1.867">
        <ele>1517.4</ele>
        <time>2021-10-09 16:09:38</time>
      </trkpt>
      <trkpt lat="40.30324" lon="-1.86704">
        <ele>1517.8</ele>
        <time>2021-10-09 16:09:39</time>
      </trkpt>
      <trkpt lat="40.30324" lon="-1.86708">
        <ele>1518</ele>
        <time>2021-10-09 16:09:40</time>
      </trkpt>
      <trkpt lat="40.30325" lon="-1.86712">
        <ele>1518</ele>
        <time>2021-10-09 16:09:41</time>
      </trkpt>
      <trkpt lat="40.30325" lon="-1.86716">
        <ele>1518</ele>
        <time>2021-10-09 16:09:42</time>
      </trkpt>
      <trkpt lat="40.30325" lon="-1.8672">
        <ele>1518.4</ele>
        <time>2021-10-09 16:09:43</time>
      </trkpt>
      <trkpt lat="40.30326" lon="-1.86724">
        <ele>1518.6</ele>
        <time>2021-10-09 16:09:44</time>
      </trkpt>
      <trkpt lat="40.30327" lon="-1.86727">
        <ele>1518.6</ele>
        <time>2021-10-09 16:09:45</time>
      </trkpt>
      <trkpt lat="40.30328" lon="-1.8673">
        <ele>1519</ele>
        <time>2021-10-09 16:09:46</time>
      </trkpt>
      <trkpt lat="40.30328" lon="-1.86733">
        <ele>1519.2</ele>
        <time>2021-10-09 16:09:47</time>
      </trkpt>
      <trkpt lat="40.30329" lon="-1.86737">
        <ele>1519.2</ele>
        <time>2021-10-09 16:09:48</time>
      </trkpt>
      <trkpt lat="40.30329" lon="-1.8674">
        <ele>1519.4</ele>
        <time>2021-10-09 16:09:49</time>
      </trkpt>
      <trkpt lat="40.3033" lon="-1.86743">
        <ele>1519.4</ele>
        <time>2021-10-09 16:09:50</time>
      </trkpt>
      <trkpt lat="40.30331" lon="-1.86746">
        <ele>1519.8</ele>
        <time>2021-10-09 16:09:51</time>
      </trkpt>
      <trkpt lat="40.30331" lon="-1.86748">
        <ele>1519.8</ele>
        <time>2021-10-09 16:09:52</time>
      </trkpt>
      <trkpt lat="40.30332" lon="-1.86751">
        <ele>1519.8</ele>
        <time>2021-10-09 16:09:53</time>
      </trkpt>
      <trkpt lat="40.30332" lon="-1.86754">
        <ele>1520</ele>
        <time>2021-10-09 16:09:54</time>
      </trkpt>
      <trkpt lat="40.30332" lon="-1.86757">
        <ele>1520</ele>
        <time>2021-10-09 16:09:55</time>
      </trkpt>
      <trkpt lat="40.30333" lon="-1.86759">
        <ele>1520.4</ele>
        <time>2021-10-09 16:09:56</time>
      </trkpt>
      <trkpt lat="40.30333" lon="-1.86762">
        <ele>1520.4</ele>
        <time>2021-10-09 16:09:57</time>
      </trkpt>
      <trkpt lat="40.30333" lon="-1.86765">
        <ele>1520.8</ele>
        <time>2021-10-09 16:09:58</time>
      </trkpt>
      <trkpt lat="40.30334" lon="-1.86767">
        <ele>1521</ele>
        <time>2021-10-09 16:09:59</time>
      </trkpt>
      <trkpt lat="40.30334" lon="-1.8677">
        <ele>1521</ele>
        <time>2021-10-09 16:10:00</time>
      </trkpt>
      <trkpt lat="40.30334" lon="-1.86773">
        <ele>1521.2</ele>
        <time>2021-10-09 16:10:01</time>
      </trkpt>
      <trkpt lat="40.30334" lon="-1.86776">
        <ele>1521.2</ele>
        <time>2021-10-09 16:10:02</time>
      </trkpt>
      <trkpt lat="40.30335" lon="-1.8678">
        <ele>1521.6</ele>
        <time>2021-10-09 16:10:03</time>
      </trkpt>
      <trkpt lat="40.30335" lon="-1.86784">
        <ele>1521.6</ele>
        <time>2021-10-09 16:10:04</time>
      </trkpt>
      <trkpt lat="40.30335" lon="-1.86787">
        <ele>1521.8</ele>
        <time>2021-10-09 16:10:05</time>
      </trkpt>
      <trkpt lat="40.30336" lon="-1.8679">
        <ele>1521.8</ele>
        <time>2021-10-09 16:10:06</time>
      </trkpt>
      <trkpt lat="40.30337" lon="-1.86793">
        <ele>1521.8</ele>
        <time>2021-10-09 16:10:07</time>
      </trkpt>
      <trkpt lat="40.30337" lon="-1.86796">
        <ele>1522</ele>
        <time>2021-10-09 16:10:08</time>
      </trkpt>
      <trkpt lat="40.30338" lon="-1.868">
        <ele>1522</ele>
        <time>2021-10-09 16:10:09</time>
      </trkpt>
      <trkpt lat="40.30338" lon="-1.86803">
        <ele>1522.4</ele>
        <time>2021-10-09 16:10:10</time>
      </trkpt>
      <trkpt lat="40.30338" lon="-1.86803">
        <ele>1522.4</ele>
        <time>2021-10-09 16:10:11</time>
      </trkpt>
      <trkpt lat="40.30339" lon="-1.86811">
        <ele>1522.4</ele>
        <time>2021-10-09 16:10:12</time>
      </trkpt>
      <trkpt lat="40.30339" lon="-1.86811">
        <ele>1522.6</ele>
        <time>2021-10-09 16:10:13</time>
      </trkpt>
      <trkpt lat="40.3034" lon="-1.86815">
        <ele>1522.6</ele>
        <time>2021-10-09 16:10:14</time>
      </trkpt>
      <trkpt lat="40.30341" lon="-1.86819">
        <ele>1523</ele>
        <time>2021-10-09 16:10:15</time>
      </trkpt>
      <trkpt lat="40.30342" lon="-1.86822">
        <ele>1523</ele>
        <time>2021-10-09 16:10:16</time>
      </trkpt>
      <trkpt lat="40.30342" lon="-1.86825">
        <ele>1523.2</ele>
        <time>2021-10-09 16:10:17</time>
      </trkpt>
      <trkpt lat="40.30343" lon="-1.86828">
        <ele>1523.2</ele>
        <time>2021-10-09 16:10:18</time>
      </trkpt>
      <trkpt lat="40.30343" lon="-1.86831">
        <ele>1523.6</ele>
        <time>2021-10-09 16:10:19</time>
      </trkpt>
      <trkpt lat="40.30344" lon="-1.86834">
        <ele>1523.6</ele>
        <time>2021-10-09 16:10:20</time>
      </trkpt>
      <trkpt lat="40.30344" lon="-1.86837">
        <ele>1523.8</ele>
        <time>2021-10-09 16:10:21</time>
      </trkpt>
      <trkpt lat="40.30345" lon="-1.8684">
        <ele>1523.8</ele>
        <time>2021-10-09 16:10:22</time>
      </trkpt>
      <trkpt lat="40.30346" lon="-1.86843">
        <ele>1524</ele>
        <time>2021-10-09 16:10:23</time>
      </trkpt>
      <trkpt lat="40.30346" lon="-1.86845">
        <ele>1524</ele>
        <time>2021-10-09 16:10:24</time>
      </trkpt>
      <trkpt lat="40.30346" lon="-1.86848">
        <ele>1524.4</ele>
        <time>2021-10-09 16:10:25</time>
      </trkpt>
      <trkpt lat="40.30346" lon="-1.86851">
        <ele>1524.4</ele>
        <time>2021-10-09 16:10:26</time>
      </trkpt>
      <trkpt lat="40.30346" lon="-1.86854">
        <ele>1524.6</ele>
        <time>2021-10-09 16:10:27</time>
      </trkpt>
      <trkpt lat="40.30346" lon="-1.86857">
        <ele>1524.6</ele>
        <time>2021-10-09 16:10:28</time>
      </trkpt>
      <trkpt lat="40.30346" lon="-1.8686">
        <ele>1524.8</ele>
        <time>2021-10-09 16:10:29</time>
      </trkpt>
      <trkpt lat="40.30346" lon="-1.86863">
        <ele>1524.8</ele>
        <time>2021-10-09 16:10:30</time>
      </trkpt>
      <trkpt lat="40.30345" lon="-1.86865">
        <ele>1525.2</ele>
        <time>2021-10-09 16:10:31</time>
      </trkpt>
      <trkpt lat="40.30344" lon="-1.86868">
        <ele>1525.2</ele>
        <time>2021-10-09 16:10:32</time>
      </trkpt>
      <trkpt lat="40.30344" lon="-1.86871">
        <ele>1525.4</ele>
        <time>2021-10-09 16:10:33</time>
      </trkpt>
      <trkpt lat="40.30343" lon="-1.86873">
        <ele>1525.4</ele>
        <time>2021-10-09 16:10:34</time>
      </trkpt>
      <trkpt lat="40.30343" lon="-1.86875">
        <ele>1525.6</ele>
        <time>2021-10-09 16:10:35</time>
      </trkpt>
      <trkpt lat="40.30342" lon="-1.86877">
        <ele>1525.6</ele>
        <time>2021-10-09 16:10:36</time>
      </trkpt>
      <trkpt lat="40.30341" lon="-1.86879">
        <ele>1526</ele>
        <time>2021-10-09 16:10:37</time>
      </trkpt>
      <trkpt lat="40.30341" lon="-1.86881">
        <ele>1526</ele>
        <time>2021-10-09 16:10:38</time>
      </trkpt>
      <trkpt lat="40.3034" lon="-1.86884">
        <ele>1526.2</ele>
        <time>2021-10-09 16:10:39</time>
      </trkpt>
      <trkpt lat="40.30339" lon="-1.86886">
        <ele>1526.2</ele>
        <time>2021-10-09 16:10:40</time>
      </trkpt>
      <trkpt lat="40.30338" lon="-1.86889">
        <ele>1526.2</ele>
        <time>2021-10-09 16:10:41</time>
      </trkpt>
      <trkpt lat="40.30338" lon="-1.86892">
        <ele>1526.6</ele>
        <time>2021-10-09 16:10:42</time>
      </trkpt>
      <trkpt lat="40.30337" lon="-1.86894">
        <ele>1526.6</ele>
        <time>2021-10-09 16:10:43</time>
      </trkpt>
      <trkpt lat="40.30336" lon="-1.86897">
        <ele>1526.8</ele>
        <time>2021-10-09 16:10:44</time>
      </trkpt>
      <trkpt lat="40.30336" lon="-1.869">
        <ele>1526.8</ele>
        <time>2021-10-09 16:10:45</time>
      </trkpt>
      <trkpt lat="40.30335" lon="-1.86902">
        <ele>1527.2</ele>
        <time>2021-10-09 16:10:46</time>
      </trkpt>
      <trkpt lat="40.30334" lon="-1.86905">
        <ele>1527.2</ele>
        <time>2021-10-09 16:10:47</time>
      </trkpt>
      <trkpt lat="40.30333" lon="-1.86907">
        <ele>1527.2</ele>
        <time>2021-10-09 16:10:48</time>
      </trkpt>
      <trkpt lat="40.30332" lon="-1.8691">
        <ele>1527.6</ele>
        <time>2021-10-09 16:10:49</time>
      </trkpt>
      <trkpt lat="40.30332" lon="-1.86911">
        <ele>1527.6</ele>
        <time>2021-10-09 16:10:50</time>
      </trkpt>
      <trkpt lat="40.30331" lon="-1.86913">
        <ele>1527.8</ele>
        <time>2021-10-09 16:10:51</time>
      </trkpt>
      <trkpt lat="40.3033" lon="-1.86915">
        <ele>1527.8</ele>
        <time>2021-10-09 16:10:52</time>
      </trkpt>
      <trkpt lat="40.30329" lon="-1.86917">
        <ele>1528</ele>
        <time>2021-10-09 16:10:53</time>
      </trkpt>
      <trkpt lat="40.30329" lon="-1.86919">
        <ele>1528</ele>
        <time>2021-10-09 16:10:54</time>
      </trkpt>
      <trkpt lat="40.30327" lon="-1.86921">
        <ele>1528.2</ele>
        <time>2021-10-09 16:10:55</time>
      </trkpt>
      <trkpt lat="40.30326" lon="-1.86924">
        <ele>1528.2</ele>
        <time>2021-10-09 16:10:56</time>
      </trkpt>
      <trkpt lat="40.30325" lon="-1.86926">
        <ele>1528.6</ele>
        <time>2021-10-09 16:10:57</time>
      </trkpt>
      <trkpt lat="40.30324" lon="-1.86928">
        <ele>1528.6</ele>
        <time>2021-10-09 16:10:58</time>
      </trkpt>
      <trkpt lat="40.30323" lon="-1.86931">
        <ele>1529</ele>
        <time>2021-10-09 16:10:59</time>
      </trkpt>
      <trkpt lat="40.30322" lon="-1.86933">
        <ele>1529.2</ele>
        <time>2021-10-09 16:11:00</time>
      </trkpt>
      <trkpt lat="40.30321" lon="-1.86936">
        <ele>1529.2</ele>
        <time>2021-10-09 16:11:01</time>
      </trkpt>
      <trkpt lat="40.30319" lon="-1.86938">
        <ele>1529.6</ele>
        <time>2021-10-09 16:11:02</time>
      </trkpt>
      <trkpt lat="40.30318" lon="-1.86941">
        <ele>1529.6</ele>
        <time>2021-10-09 16:11:03</time>
      </trkpt>
      <trkpt lat="40.30317" lon="-1.86943">
        <ele>1529.8</ele>
        <time>2021-10-09 16:11:04</time>
      </trkpt>
      <trkpt lat="40.30316" lon="-1.86945">
        <ele>1529.8</ele>
        <time>2021-10-09 16:11:05</time>
      </trkpt>
      <trkpt lat="40.30314" lon="-1.86947">
        <ele>1530</ele>
        <time>2021-10-09 16:11:06</time>
      </trkpt>
      <trkpt lat="40.30313" lon="-1.8695">
        <ele>1530</ele>
        <time>2021-10-09 16:11:07</time>
      </trkpt>
      <trkpt lat="40.30311" lon="-1.86952">
        <ele>1530</ele>
        <time>2021-10-09 16:11:08</time>
      </trkpt>
      <trkpt lat="40.30309" lon="-1.86954">
        <ele>1530</ele>
        <time>2021-10-09 16:11:09</time>
      </trkpt>
      <trkpt lat="40.30307" lon="-1.86956">
        <ele>1530.4</ele>
        <time>2021-10-09 16:11:10</time>
      </trkpt>
      <trkpt lat="40.30306" lon="-1.86958">
        <ele>1530.4</ele>
        <time>2021-10-09 16:11:11</time>
      </trkpt>
      <trkpt lat="40.30304" lon="-1.8696">
        <ele>1530.4</ele>
        <time>2021-10-09 16:11:12</time>
      </trkpt>
      <trkpt lat="40.30303" lon="-1.86962">
        <ele>1530.6</ele>
        <time>2021-10-09 16:11:13</time>
      </trkpt>
      <trkpt lat="40.30302" lon="-1.86964">
        <ele>1530.6</ele>
        <time>2021-10-09 16:11:14</time>
      </trkpt>
      <trkpt lat="40.30301" lon="-1.86966">
        <ele>1530.8</ele>
        <time>2021-10-09 16:11:15</time>
      </trkpt>
      <trkpt lat="40.30299" lon="-1.86969">
        <ele>1530.8</ele>
        <time>2021-10-09 16:11:16</time>
      </trkpt>
      <trkpt lat="40.30298" lon="-1.86971">
        <ele>1531.2</ele>
        <time>2021-10-09 16:11:17</time>
      </trkpt>
      <trkpt lat="40.30296" lon="-1.86973">
        <ele>1531.2</ele>
        <time>2021-10-09 16:11:18</time>
      </trkpt>
      <trkpt lat="40.30295" lon="-1.86975">
        <ele>1531.4</ele>
        <time>2021-10-09 16:11:19</time>
      </trkpt>
      <trkpt lat="40.30293" lon="-1.86977">
        <ele>1531.4</ele>
        <time>2021-10-09 16:11:20</time>
      </trkpt>
      <trkpt lat="40.30292" lon="-1.86979">
        <ele>1531.8</ele>
        <time>2021-10-09 16:11:21</time>
      </trkpt>
      <trkpt lat="40.3029" lon="-1.86981">
        <ele>1531.8</ele>
        <time>2021-10-09 16:11:22</time>
      </trkpt>
      <trkpt lat="40.30288" lon="-1.86983">
        <ele>1532.2</ele>
        <time>2021-10-09 16:11:23</time>
      </trkpt>
      <trkpt lat="40.30287" lon="-1.86985">
        <ele>1532.2</ele>
        <time>2021-10-09 16:11:24</time>
      </trkpt>
      <trkpt lat="40.30285" lon="-1.86987">
        <ele>1532.4</ele>
        <time>2021-10-09 16:11:25</time>
      </trkpt>
      <trkpt lat="40.30284" lon="-1.8699">
        <ele>1532.4</ele>
        <time>2021-10-09 16:11:26</time>
      </trkpt>
      <trkpt lat="40.30282" lon="-1.86992">
        <ele>1532.4</ele>
        <time>2021-10-09 16:11:27</time>
      </trkpt>
      <trkpt lat="40.30281" lon="-1.86994">
        <ele>1532.6</ele>
        <time>2021-10-09 16:11:28</time>
      </trkpt>
      <trkpt lat="40.30279" lon="-1.86996">
        <ele>1532.6</ele>
        <time>2021-10-09 16:11:29</time>
      </trkpt>
      <trkpt lat="40.30278" lon="-1.86998">
        <ele>1532.6</ele>
        <time>2021-10-09 16:11:30</time>
      </trkpt>
      <trkpt lat="40.30276" lon="-1.87">
        <ele>1532.6</ele>
        <time>2021-10-09 16:11:31</time>
      </trkpt>
      <trkpt lat="40.30275" lon="-1.87002">
        <ele>1532.8</ele>
        <time>2021-10-09 16:11:32</time>
      </trkpt>
      <trkpt lat="40.30274" lon="-1.87004">
        <ele>1532.8</ele>
        <time>2021-10-09 16:11:33</time>
      </trkpt>
      <trkpt lat="40.30272" lon="-1.87005">
        <ele>1532.8</ele>
        <time>2021-10-09 16:11:34</time>
      </trkpt>
      <trkpt lat="40.30271" lon="-1.87007">
        <ele>1533.2</ele>
        <time>2021-10-09 16:11:35</time>
      </trkpt>
      <trkpt lat="40.30269" lon="-1.87008">
        <ele>1533.2</ele>
        <time>2021-10-09 16:11:36</time>
      </trkpt>
      <trkpt lat="40.30268" lon="-1.8701">
        <ele>1533.4</ele>
        <time>2021-10-09 16:11:37</time>
      </trkpt>
      <trkpt lat="40.30266" lon="-1.87011">
        <ele>1533.4</ele>
        <time>2021-10-09 16:11:38</time>
      </trkpt>
      <trkpt lat="40.30264" lon="-1.87013">
        <ele>1533.8</ele>
        <time>2021-10-09 16:11:39</time>
      </trkpt>
      <trkpt lat="40.30263" lon="-1.87015">
        <ele>1533.8</ele>
        <time>2021-10-09 16:11:40</time>
      </trkpt>
      <trkpt lat="40.30261" lon="-1.87016">
        <ele>1533.8</ele>
        <time>2021-10-09 16:11:41</time>
      </trkpt>
      <trkpt lat="40.30259" lon="-1.87017">
        <ele>1534</ele>
        <time>2021-10-09 16:11:42</time>
      </trkpt>
      <trkpt lat="40.30257" lon="-1.87017">
        <ele>1534</ele>
        <time>2021-10-09 16:11:43</time>
      </trkpt>
      <trkpt lat="40.30255" lon="-1.87018">
        <ele>1534.2</ele>
        <time>2021-10-09 16:11:44</time>
      </trkpt>
      <trkpt lat="40.30253" lon="-1.87018">
        <ele>1534.6</ele>
        <time>2021-10-09 16:11:45</time>
      </trkpt>
      <trkpt lat="40.30251" lon="-1.87019">
        <ele>1534.6</ele>
        <time>2021-10-09 16:11:46</time>
      </trkpt>
      <trkpt lat="40.30249" lon="-1.87019">
        <ele>1534.6</ele>
        <time>2021-10-09 16:11:47</time>
      </trkpt>
      <trkpt lat="40.30247" lon="-1.87019">
        <ele>1534.6</ele>
        <time>2021-10-09 16:11:48</time>
      </trkpt>
      <trkpt lat="40.30245" lon="-1.87019">
        <ele>1534.6</ele>
        <time>2021-10-09 16:11:49</time>
      </trkpt>
      <trkpt lat="40.30242" lon="-1.87019">
        <ele>1534.8</ele>
        <time>2021-10-09 16:11:50</time>
      </trkpt>
      <trkpt lat="40.3024" lon="-1.87019">
        <ele>1534.8</ele>
        <time>2021-10-09 16:11:51</time>
      </trkpt>
      <trkpt lat="40.30238" lon="-1.87019">
        <ele>1535.2</ele>
        <time>2021-10-09 16:11:52</time>
      </trkpt>
      <trkpt lat="40.30236" lon="-1.87019">
        <ele>1535.2</ele>
        <time>2021-10-09 16:11:53</time>
      </trkpt>
      <trkpt lat="40.30233" lon="-1.87019">
        <ele>1535.4</ele>
        <time>2021-10-09 16:11:54</time>
      </trkpt>
      <trkpt lat="40.30231" lon="-1.87019">
        <ele>1535.6</ele>
        <time>2021-10-09 16:11:55</time>
      </trkpt>
      <trkpt lat="40.30228" lon="-1.8702">
        <ele>1535.6</ele>
        <time>2021-10-09 16:11:56</time>
      </trkpt>
      <trkpt lat="40.30226" lon="-1.8702">
        <ele>1535.8</ele>
        <time>2021-10-09 16:11:57</time>
      </trkpt>
      <trkpt lat="40.30225" lon="-1.87019">
        <ele>1535.8</ele>
        <time>2021-10-09 16:11:58</time>
      </trkpt>
      <trkpt lat="40.30223" lon="-1.87019">
        <ele>1536</ele>
        <time>2021-10-09 16:11:59</time>
      </trkpt>
      <trkpt lat="40.30221" lon="-1.87019">
        <ele>1536</ele>
        <time>2021-10-09 16:12:00</time>
      </trkpt>
      <trkpt lat="40.30219" lon="-1.87019">
        <ele>1536.4</ele>
        <time>2021-10-09 16:12:01</time>
      </trkpt>
      <trkpt lat="40.30217" lon="-1.8702">
        <ele>1536.4</ele>
        <time>2021-10-09 16:12:02</time>
      </trkpt>
      <trkpt lat="40.30215" lon="-1.8702">
        <ele>1536.6</ele>
        <time>2021-10-09 16:12:03</time>
      </trkpt>
      <trkpt lat="40.30214" lon="-1.8702">
        <ele>1536.6</ele>
        <time>2021-10-09 16:12:04</time>
      </trkpt>
      <trkpt lat="40.30213" lon="-1.87021">
        <ele>1536.6</ele>
        <time>2021-10-09 16:12:05</time>
      </trkpt>
      <trkpt lat="40.3021" lon="-1.87021">
        <ele>1536.8</ele>
        <time>2021-10-09 16:12:06</time>
      </trkpt>
      <trkpt lat="40.30208" lon="-1.87022">
        <ele>1536.8</ele>
        <time>2021-10-09 16:12:07</time>
      </trkpt>
      <trkpt lat="40.30205" lon="-1.87024">
        <ele>1536.8</ele>
        <time>2021-10-09 16:12:08</time>
      </trkpt>
      <trkpt lat="40.30203" lon="-1.87025">
        <ele>1537.2</ele>
        <time>2021-10-09 16:12:09</time>
      </trkpt>
      <trkpt lat="40.30201" lon="-1.87027">
        <ele>1537.2</ele>
        <time>2021-10-09 16:12:10</time>
      </trkpt>
      <trkpt lat="40.30199" lon="-1.87028">
        <ele>1537.2</ele>
        <time>2021-10-09 16:12:11</time>
      </trkpt>
      <trkpt lat="40.30197" lon="-1.8703">
        <ele>1537.6</ele>
        <time>2021-10-09 16:12:12</time>
      </trkpt>
      <trkpt lat="40.30196" lon="-1.87032">
        <ele>1537.6</ele>
        <time>2021-10-09 16:12:13</time>
      </trkpt>
      <trkpt lat="40.30194" lon="-1.87035">
        <ele>1537.8</ele>
        <time>2021-10-09 16:12:14</time>
      </trkpt>
      <trkpt lat="40.30192" lon="-1.87038">
        <ele>1537.8</ele>
        <time>2021-10-09 16:12:15</time>
      </trkpt>
      <trkpt lat="40.3019" lon="-1.87041">
        <ele>1537.8</ele>
        <time>2021-10-09 16:12:16</time>
      </trkpt>
      <trkpt lat="40.30188" lon="-1.87043">
        <ele>1538</ele>
        <time>2021-10-09 16:12:17</time>
      </trkpt>
      <trkpt lat="40.30187" lon="-1.87046">
        <ele>1538</ele>
        <time>2021-10-09 16:12:18</time>
      </trkpt>
      <trkpt lat="40.30186" lon="-1.87049">
        <ele>1538</ele>
        <time>2021-10-09 16:12:19</time>
      </trkpt>
      <trkpt lat="40.30185" lon="-1.87051">
        <ele>1538</ele>
        <time>2021-10-09 16:12:20</time>
      </trkpt>
      <trkpt lat="40.30184" lon="-1.87054">
        <ele>1538.4</ele>
        <time>2021-10-09 16:12:21</time>
      </trkpt>
      <trkpt lat="40.30183" lon="-1.87057">
        <ele>1538.4</ele>
        <time>2021-10-09 16:12:22</time>
      </trkpt>
      <trkpt lat="40.30183" lon="-1.87061">
        <ele>1538.6</ele>
        <time>2021-10-09 16:12:23</time>
      </trkpt>
      <trkpt lat="40.30183" lon="-1.87064">
        <ele>1538.6</ele>
        <time>2021-10-09 16:12:24</time>
      </trkpt>
      <trkpt lat="40.30183" lon="-1.87066">
        <ele>1538.6</ele>
        <time>2021-10-09 16:12:25</time>
      </trkpt>
      <trkpt lat="40.30183" lon="-1.8707">
        <ele>1538.6</ele>
        <time>2021-10-09 16:12:26</time>
      </trkpt>
      <trkpt lat="40.30183" lon="-1.87073">
        <ele>1538.8</ele>
        <time>2021-10-09 16:12:27</time>
      </trkpt>
      <trkpt lat="40.30183" lon="-1.87076">
        <ele>1538.8</ele>
        <time>2021-10-09 16:12:28</time>
      </trkpt>
      <trkpt lat="40.30183" lon="-1.87079">
        <ele>1539.2</ele>
        <time>2021-10-09 16:12:29</time>
      </trkpt>
      <trkpt lat="40.30184" lon="-1.87082">
        <ele>1539.2</ele>
        <time>2021-10-09 16:12:30</time>
      </trkpt>
      <trkpt lat="40.30184" lon="-1.87084">
        <ele>1539.4</ele>
        <time>2021-10-09 16:12:31</time>
      </trkpt>
      <trkpt lat="40.30184" lon="-1.87087">
        <ele>1539.4</ele>
        <time>2021-10-09 16:12:32</time>
      </trkpt>
      <trkpt lat="40.30183" lon="-1.87091">
        <ele>1539.4</ele>
        <time>2021-10-09 16:12:33</time>
      </trkpt>
      <trkpt lat="40.30183" lon="-1.87094">
        <ele>1539.8</ele>
        <time>2021-10-09 16:12:34</time>
      </trkpt>
      <trkpt lat="40.30183" lon="-1.87097">
        <ele>1539.8</ele>
        <time>2021-10-09 16:12:35</time>
      </trkpt>
      <trkpt lat="40.30183" lon="-1.871">
        <ele>1540</ele>
        <time>2021-10-09 16:12:36</time>
      </trkpt>
      <trkpt lat="40.30183" lon="-1.87103">
        <ele>1540.2</ele>
        <time>2021-10-09 16:12:37</time>
      </trkpt>
      <trkpt lat="40.30182" lon="-1.87106">
        <ele>1540.2</ele>
        <time>2021-10-09 16:12:38</time>
      </trkpt>
      <trkpt lat="40.30182" lon="-1.8711">
        <ele>1540.4</ele>
        <time>2021-10-09 16:12:39</time>
      </trkpt>
      <trkpt lat="40.30182" lon="-1.87112">
        <ele>1540.4</ele>
        <time>2021-10-09 16:12:40</time>
      </trkpt>
      <trkpt lat="40.30183" lon="-1.87115">
        <ele>1540.6</ele>
        <time>2021-10-09 16:12:41</time>
      </trkpt>
      <trkpt lat="40.30183" lon="-1.87118">
        <ele>1540.6</ele>
        <time>2021-10-09 16:12:42</time>
      </trkpt>
      <trkpt lat="40.30183" lon="-1.8712">
        <ele>1540.6</ele>
        <time>2021-10-09 16:12:43</time>
      </trkpt>
      <trkpt lat="40.30184" lon="-1.87123">
        <ele>1541</ele>
        <time>2021-10-09 16:12:44</time>
      </trkpt>
      <trkpt lat="40.30184" lon="-1.87126">
        <ele>1541.2</ele>
        <time>2021-10-09 16:12:45</time>
      </trkpt>
      <trkpt lat="40.30184" lon="-1.87129">
        <ele>1541.2</ele>
        <time>2021-10-09 16:12:46</time>
      </trkpt>
      <trkpt lat="40.30184" lon="-1.87132">
        <ele>1541.6</ele>
        <time>2021-10-09 16:12:47</time>
      </trkpt>
      <trkpt lat="40.30184" lon="-1.87135">
        <ele>1541.8</ele>
        <time>2021-10-09 16:12:48</time>
      </trkpt>
      <trkpt lat="40.30184" lon="-1.87137">
        <ele>1542.2</ele>
        <time>2021-10-09 16:12:49</time>
      </trkpt>
      <trkpt lat="40.30184" lon="-1.87139">
        <ele>1542.2</ele>
        <time>2021-10-09 16:12:50</time>
      </trkpt>
      <trkpt lat="40.30184" lon="-1.87142">
        <ele>1542.4</ele>
        <time>2021-10-09 16:12:51</time>
      </trkpt>
      <trkpt lat="40.30184" lon="-1.87145">
        <ele>1542.8</ele>
        <time>2021-10-09 16:12:52</time>
      </trkpt>
      <trkpt lat="40.30184" lon="-1.87148">
        <ele>1542.8</ele>
        <time>2021-10-09 16:12:53</time>
      </trkpt>
      <trkpt lat="40.30185" lon="-1.87152">
        <ele>1542.8</ele>
        <time>2021-10-09 16:12:54</time>
      </trkpt>
      <trkpt lat="40.30186" lon="-1.87155">
        <ele>1543</ele>
        <time>2021-10-09 16:12:55</time>
      </trkpt>
      <trkpt lat="40.30186" lon="-1.87158">
        <ele>1543.4</ele>
        <time>2021-10-09 16:12:56</time>
      </trkpt>
      <trkpt lat="40.30186" lon="-1.87161">
        <ele>1543.4</ele>
        <time>2021-10-09 16:12:57</time>
      </trkpt>
      <trkpt lat="40.30187" lon="-1.87164">
        <ele>1543.4</ele>
        <time>2021-10-09 16:12:58</time>
      </trkpt>
      <trkpt lat="40.30187" lon="-1.87167">
        <ele>1543.8</ele>
        <time>2021-10-09 16:12:59</time>
      </trkpt>
      <trkpt lat="40.30188" lon="-1.8717">
        <ele>1543.8</ele>
        <time>2021-10-09 16:13:00</time>
      </trkpt>
      <trkpt lat="40.30188" lon="-1.87173">
        <ele>1544</ele>
        <time>2021-10-09 16:13:01</time>
      </trkpt>
      <trkpt lat="40.30188" lon="-1.87176">
        <ele>1544.2</ele>
        <time>2021-10-09 16:13:02</time>
      </trkpt>
      <trkpt lat="40.30188" lon="-1.8718">
        <ele>1544.2</ele>
        <time>2021-10-09 16:13:03</time>
      </trkpt>
      <trkpt lat="40.30188" lon="-1.87182">
        <ele>1544.4</ele>
        <time>2021-10-09 16:13:04</time>
      </trkpt>
      <trkpt lat="40.30188" lon="-1.87185">
        <ele>1544.4</ele>
        <time>2021-10-09 16:13:05</time>
      </trkpt>
      <trkpt lat="40.30188" lon="-1.87189">
        <ele>1544.8</ele>
        <time>2021-10-09 16:13:06</time>
      </trkpt>
      <trkpt lat="40.30188" lon="-1.87192">
        <ele>1544.8</ele>
        <time>2021-10-09 16:13:07</time>
      </trkpt>
      <trkpt lat="40.30188" lon="-1.87196">
        <ele>1545</ele>
        <time>2021-10-09 16:13:08</time>
      </trkpt>
      <trkpt lat="40.30188" lon="-1.87199">
        <ele>1545.2</ele>
        <time>2021-10-09 16:13:09</time>
      </trkpt>
      <trkpt lat="40.30189" lon="-1.87202">
        <ele>1545.2</ele>
        <time>2021-10-09 16:13:10</time>
      </trkpt>
      <trkpt lat="40.30189" lon="-1.87206">
        <ele>1545.4</ele>
        <time>2021-10-09 16:13:11</time>
      </trkpt>
      <trkpt lat="40.3019" lon="-1.87209">
        <ele>1545.4</ele>
        <time>2021-10-09 16:13:12</time>
      </trkpt>
      <trkpt lat="40.3019" lon="-1.87212">
        <ele>1545.8</ele>
        <time>2021-10-09 16:13:13</time>
      </trkpt>
      <trkpt lat="40.30191" lon="-1.87215">
        <ele>1545.8</ele>
        <time>2021-10-09 16:13:14</time>
      </trkpt>
      <trkpt lat="40.30191" lon="-1.87218">
        <ele>1546</ele>
        <time>2021-10-09 16:13:15</time>
      </trkpt>
      <trkpt lat="40.30191" lon="-1.87221">
        <ele>1546</ele>
        <time>2021-10-09 16:13:16</time>
      </trkpt>
      <trkpt lat="40.30192" lon="-1.87224">
        <ele>1546.4</ele>
        <time>2021-10-09 16:13:17</time>
      </trkpt>
      <trkpt lat="40.30192" lon="-1.87228">
        <ele>1546.8</ele>
        <time>2021-10-09 16:13:18</time>
      </trkpt>
      <trkpt lat="40.30192" lon="-1.87231">
        <ele>1547</ele>
        <time>2021-10-09 16:13:19</time>
      </trkpt>
      <trkpt lat="40.30192" lon="-1.87235">
        <ele>1547</ele>
        <time>2021-10-09 16:13:20</time>
      </trkpt>
      <trkpt lat="40.30192" lon="-1.87238">
        <ele>1547</ele>
        <time>2021-10-09 16:13:21</time>
      </trkpt>
      <trkpt lat="40.30193" lon="-1.87242">
        <ele>1547.2</ele>
        <time>2021-10-09 16:13:22</time>
      </trkpt>
      <trkpt lat="40.30193" lon="-1.87246">
        <ele>1547.2</ele>
        <time>2021-10-09 16:13:23</time>
      </trkpt>
      <trkpt lat="40.30194" lon="-1.87249">
        <ele>1547.6</ele>
        <time>2021-10-09 16:13:24</time>
      </trkpt>
      <trkpt lat="40.30194" lon="-1.87253">
        <ele>1547.6</ele>
        <time>2021-10-09 16:13:25</time>
      </trkpt>
      <trkpt lat="40.30194" lon="-1.87256">
        <ele>1547.6</ele>
        <time>2021-10-09 16:13:26</time>
      </trkpt>
      <trkpt lat="40.30195" lon="-1.87259">
        <ele>1547.8</ele>
        <time>2021-10-09 16:13:27</time>
      </trkpt>
      <trkpt lat="40.30195" lon="-1.87262">
        <ele>1547.8</ele>
        <time>2021-10-09 16:13:28</time>
      </trkpt>
      <trkpt lat="40.30195" lon="-1.87265">
        <ele>1548</ele>
        <time>2021-10-09 16:13:29</time>
      </trkpt>
      <trkpt lat="40.30196" lon="-1.87268">
        <ele>1548</ele>
        <time>2021-10-09 16:13:30</time>
      </trkpt>
      <trkpt lat="40.30196" lon="-1.87271">
        <ele>1548.4</ele>
        <time>2021-10-09 16:13:31</time>
      </trkpt>
      <trkpt lat="40.30196" lon="-1.87274">
        <ele>1548.6</ele>
        <time>2021-10-09 16:13:32</time>
      </trkpt>
      <trkpt lat="40.30196" lon="-1.87278">
        <ele>1548.6</ele>
        <time>2021-10-09 16:13:33</time>
      </trkpt>
      <trkpt lat="40.30196" lon="-1.87281">
        <ele>1548.8</ele>
        <time>2021-10-09 16:13:34</time>
      </trkpt>
      <trkpt lat="40.30196" lon="-1.87284">
        <ele>1549</ele>
        <time>2021-10-09 16:13:35</time>
      </trkpt>
      <trkpt lat="40.30197" lon="-1.87287">
        <ele>1549.2</ele>
        <time>2021-10-09 16:13:36</time>
      </trkpt>
      <trkpt lat="40.30197" lon="-1.8729">
        <ele>1549.4</ele>
        <time>2021-10-09 16:13:37</time>
      </trkpt>
      <trkpt lat="40.30197" lon="-1.87293">
        <ele>1549.4</ele>
        <time>2021-10-09 16:13:38</time>
      </trkpt>
      <trkpt lat="40.30196" lon="-1.87297">
        <ele>1549.8</ele>
        <time>2021-10-09 16:13:39</time>
      </trkpt>
      <trkpt lat="40.30196" lon="-1.873">
        <ele>1549.8</ele>
        <time>2021-10-09 16:13:40</time>
      </trkpt>
      <trkpt lat="40.30195" lon="-1.87303">
        <ele>1550.2</ele>
        <time>2021-10-09 16:13:41</time>
      </trkpt>
      <trkpt lat="40.30194" lon="-1.87305">
        <ele>1550.2</ele>
        <time>2021-10-09 16:13:42</time>
      </trkpt>
      <trkpt lat="40.30194" lon="-1.87308">
        <ele>1550.4</ele>
        <time>2021-10-09 16:13:43</time>
      </trkpt>
      <trkpt lat="40.30193" lon="-1.87311">
        <ele>1550.4</ele>
        <time>2021-10-09 16:13:44</time>
      </trkpt>
      <trkpt lat="40.30192" lon="-1.87314">
        <ele>1550.4</ele>
        <time>2021-10-09 16:13:45</time>
      </trkpt>
      <trkpt lat="40.3019" lon="-1.87317">
        <ele>1550.6</ele>
        <time>2021-10-09 16:13:46</time>
      </trkpt>
      <trkpt lat="40.30189" lon="-1.8732">
        <ele>1550.6</ele>
        <time>2021-10-09 16:13:47</time>
      </trkpt>
      <trkpt lat="40.30188" lon="-1.87322">
        <ele>1550.6</ele>
        <time>2021-10-09 16:13:48</time>
      </trkpt>
      <trkpt lat="40.30186" lon="-1.87325">
        <ele>1550.6</ele>
        <time>2021-10-09 16:13:49</time>
      </trkpt>
      <trkpt lat="40.30185" lon="-1.87328">
        <ele>1550.6</ele>
        <time>2021-10-09 16:13:50</time>
      </trkpt>
      <trkpt lat="40.30184" lon="-1.87331">
        <ele>1550.8</ele>
        <time>2021-10-09 16:13:51</time>
      </trkpt>
      <trkpt lat="40.30183" lon="-1.87334">
        <ele>1550.8</ele>
        <time>2021-10-09 16:13:52</time>
      </trkpt>
      <trkpt lat="40.30181" lon="-1.87338">
        <ele>1550.8</ele>
        <time>2021-10-09 16:13:53</time>
      </trkpt>
      <trkpt lat="40.30179" lon="-1.87341">
        <ele>1550.8</ele>
        <time>2021-10-09 16:13:54</time>
      </trkpt>
      <trkpt lat="40.30178" lon="-1.87344">
        <ele>1550.8</ele>
        <time>2021-10-09 16:13:55</time>
      </trkpt>
      <trkpt lat="40.30176" lon="-1.87347">
        <ele>1550.8</ele>
        <time>2021-10-09 16:13:56</time>
      </trkpt>
      <trkpt lat="40.30175" lon="-1.87351">
        <ele>1550.8</ele>
        <time>2021-10-09 16:13:57</time>
      </trkpt>
      <trkpt lat="40.30172" lon="-1.87355">
        <ele>1550.8</ele>
        <time>2021-10-09 16:13:58</time>
      </trkpt>
      <trkpt lat="40.3017" lon="-1.87358">
        <ele>1550.8</ele>
        <time>2021-10-09 16:13:59</time>
      </trkpt>
      <trkpt lat="40.30168" lon="-1.8736">
        <ele>1550.6</ele>
        <time>2021-10-09 16:14:00</time>
      </trkpt>
      <trkpt lat="40.30165" lon="-1.87363">
        <ele>1550.2</ele>
        <time>2021-10-09 16:14:01</time>
      </trkpt>
      <trkpt lat="40.30162" lon="-1.87366">
        <ele>1550</ele>
        <time>2021-10-09 16:14:02</time>
      </trkpt>
      <trkpt lat="40.30159" lon="-1.87369">
        <ele>1550</ele>
        <time>2021-10-09 16:14:03</time>
      </trkpt>
      <trkpt lat="40.30156" lon="-1.87373">
        <ele>1549.4</ele>
        <time>2021-10-09 16:14:04</time>
      </trkpt>
      <trkpt lat="40.30153" lon="-1.87376">
        <ele>1549.4</ele>
        <time>2021-10-09 16:14:05</time>
      </trkpt>
      <trkpt lat="40.30148" lon="-1.87377">
        <ele>1549</ele>
        <time>2021-10-09 16:14:06</time>
      </trkpt>
      <trkpt lat="40.30145" lon="-1.87378">
        <ele>1549</ele>
        <time>2021-10-09 16:14:07</time>
      </trkpt>
      <trkpt lat="40.30141" lon="-1.87378">
        <ele>1548.6</ele>
        <time>2021-10-09 16:14:08</time>
      </trkpt>
      <trkpt lat="40.30136" lon="-1.87379">
        <ele>1548</ele>
        <time>2021-10-09 16:14:09</time>
      </trkpt>
      <trkpt lat="40.30131" lon="-1.87381">
        <ele>1547.6</ele>
        <time>2021-10-09 16:14:10</time>
      </trkpt>
      <trkpt lat="40.30127" lon="-1.87382">
        <ele>1547.2</ele>
        <time>2021-10-09 16:14:11</time>
      </trkpt>
      <trkpt lat="40.30123" lon="-1.87384">
        <ele>1546.8</ele>
        <time>2021-10-09 16:14:12</time>
      </trkpt>
      <trkpt lat="40.30118" lon="-1.87386">
        <ele>1546.4</ele>
        <time>2021-10-09 16:14:13</time>
      </trkpt>
      <trkpt lat="40.30114" lon="-1.87388">
        <ele>1546</ele>
        <time>2021-10-09 16:14:14</time>
      </trkpt>
      <trkpt lat="40.3011" lon="-1.8739">
        <ele>1545.6</ele>
        <time>2021-10-09 16:14:15</time>
      </trkpt>
      <trkpt lat="40.30107" lon="-1.87392">
        <ele>1545.2</ele>
        <time>2021-10-09 16:14:16</time>
      </trkpt>
      <trkpt lat="40.30105" lon="-1.87393">
        <ele>1544.8</ele>
        <time>2021-10-09 16:14:17</time>
      </trkpt>
      <trkpt lat="40.30101" lon="-1.87395">
        <ele>1544.8</ele>
        <time>2021-10-09 16:14:18</time>
      </trkpt>
      <trkpt lat="40.30099" lon="-1.87398">
        <ele>1544.4</ele>
        <time>2021-10-09 16:14:19</time>
      </trkpt>
      <trkpt lat="40.30098" lon="-1.87401">
        <ele>1544.2</ele>
        <time>2021-10-09 16:14:20</time>
      </trkpt>
      <trkpt lat="40.30096" lon="-1.87404">
        <ele>1543.8</ele>
        <time>2021-10-09 16:14:21</time>
      </trkpt>
      <trkpt lat="40.30093" lon="-1.87408">
        <ele>1543.4</ele>
        <time>2021-10-09 16:14:22</time>
      </trkpt>
      <trkpt lat="40.30091" lon="-1.87413">
        <ele>1543.2</ele>
        <time>2021-10-09 16:14:23</time>
      </trkpt>
      <trkpt lat="40.3009" lon="-1.87418">
        <ele>1543</ele>
        <time>2021-10-09 16:14:24</time>
      </trkpt>
      <trkpt lat="40.30089" lon="-1.87424">
        <ele>1542.6</ele>
        <time>2021-10-09 16:14:25</time>
      </trkpt>
      <trkpt lat="40.30088" lon="-1.8743">
        <ele>1542.4</ele>
        <time>2021-10-09 16:14:26</time>
      </trkpt>
      <trkpt lat="40.30088" lon="-1.87437">
        <ele>1542</ele>
        <time>2021-10-09 16:14:27</time>
      </trkpt>
      <trkpt lat="40.30089" lon="-1.87444">
        <ele>1541.6</ele>
        <time>2021-10-09 16:14:28</time>
      </trkpt>
      <trkpt lat="40.3009" lon="-1.87451">
        <ele>1541.2</ele>
        <time>2021-10-09 16:14:29</time>
      </trkpt>
      <trkpt lat="40.30091" lon="-1.87457">
        <ele>1541</ele>
        <time>2021-10-09 16:14:30</time>
      </trkpt>
      <trkpt lat="40.30092" lon="-1.87465">
        <ele>1540.4</ele>
        <time>2021-10-09 16:14:31</time>
      </trkpt>
      <trkpt lat="40.30093" lon="-1.87473">
        <ele>1540</ele>
        <time>2021-10-09 16:14:32</time>
      </trkpt>
      <trkpt lat="40.30094" lon="-1.8748">
        <ele>1539.6</ele>
        <time>2021-10-09 16:14:33</time>
      </trkpt>
      <trkpt lat="40.30095" lon="-1.87489">
        <ele>1539.4</ele>
        <time>2021-10-09 16:14:34</time>
      </trkpt>
      <trkpt lat="40.30097" lon="-1.87498">
        <ele>1538.8</ele>
        <time>2021-10-09 16:14:35</time>
      </trkpt>
      <trkpt lat="40.30098" lon="-1.87507">
        <ele>1537.8</ele>
        <time>2021-10-09 16:14:36</time>
      </trkpt>
      <trkpt lat="40.30099" lon="-1.87517">
        <ele>1537.4</ele>
        <time>2021-10-09 16:14:37</time>
      </trkpt>
      <trkpt lat="40.30101" lon="-1.87527">
        <ele>1537</ele>
        <time>2021-10-09 16:14:38</time>
      </trkpt>
      <trkpt lat="40.30102" lon="-1.87537">
        <ele>1536.6</ele>
        <time>2021-10-09 16:14:39</time>
      </trkpt>
      <trkpt lat="40.30103" lon="-1.87548">
        <ele>1536</ele>
        <time>2021-10-09 16:14:40</time>
      </trkpt>
      <trkpt lat="40.30106" lon="-1.87559">
        <ele>1535.6</ele>
        <time>2021-10-09 16:14:41</time>
      </trkpt>
      <trkpt lat="40.30106" lon="-1.87571">
        <ele>1535</ele>
        <time>2021-10-09 16:14:42</time>
      </trkpt>
      <trkpt lat="40.30108" lon="-1.87582">
        <ele>1534.8</ele>
        <time>2021-10-09 16:14:43</time>
      </trkpt>
      <trkpt lat="40.30108" lon="-1.87591">
        <ele>1534.2</ele>
        <time>2021-10-09 16:14:44</time>
      </trkpt>
      <trkpt lat="40.30106" lon="-1.87603">
        <ele>1533.6</ele>
        <time>2021-10-09 16:14:45</time>
      </trkpt>
      <trkpt lat="40.30105" lon="-1.87614">
        <ele>1533</ele>
        <time>2021-10-09 16:14:46</time>
      </trkpt>
      <trkpt lat="40.30102" lon="-1.87624">
        <ele>1532.4</ele>
        <time>2021-10-09 16:14:47</time>
      </trkpt>
      <trkpt lat="40.30099" lon="-1.87634">
        <ele>1531.6</ele>
        <time>2021-10-09 16:14:48</time>
      </trkpt>
      <trkpt lat="40.30094" lon="-1.87642">
        <ele>1531</ele>
        <time>2021-10-09 16:14:49</time>
      </trkpt>
      <trkpt lat="40.3009" lon="-1.8765">
        <ele>1530.6</ele>
        <time>2021-10-09 16:14:50</time>
      </trkpt>
      <trkpt lat="40.30084" lon="-1.87658">
        <ele>1530.2</ele>
        <time>2021-10-09 16:14:51</time>
      </trkpt>
      <trkpt lat="40.3008" lon="-1.87667">
        <ele>1529.6</ele>
        <time>2021-10-09 16:14:52</time>
      </trkpt>
      <trkpt lat="40.30074" lon="-1.87675">
        <ele>1529</ele>
        <time>2021-10-09 16:14:53</time>
      </trkpt>
      <trkpt lat="40.30066" lon="-1.87681">
        <ele>1528.2</ele>
        <time>2021-10-09 16:14:54</time>
      </trkpt>
      <trkpt lat="40.30058" lon="-1.87687">
        <ele>1527.6</ele>
        <time>2021-10-09 16:14:55</time>
      </trkpt>
      <trkpt lat="40.30049" lon="-1.87693">
        <ele>1527</ele>
        <time>2021-10-09 16:14:56</time>
      </trkpt>
      <trkpt lat="40.30041" lon="-1.87699">
        <ele>1526.4</ele>
        <time>2021-10-09 16:14:57</time>
      </trkpt>
      <trkpt lat="40.30033" lon="-1.87704">
        <ele>1526</ele>
        <time>2021-10-09 16:14:58</time>
      </trkpt>
      <trkpt lat="40.30026" lon="-1.87709">
        <ele>1525.4</ele>
        <time>2021-10-09 16:14:59</time>
      </trkpt>
      <trkpt lat="40.30018" lon="-1.87711">
        <ele>1524.8</ele>
        <time>2021-10-09 16:15:00</time>
      </trkpt>
      <trkpt lat="40.3001" lon="-1.87711">
        <ele>1524.8</ele>
        <time>2021-10-09 16:15:01</time>
      </trkpt>
      <trkpt lat="40.30003" lon="-1.8771">
        <ele>1524</ele>
        <time>2021-10-09 16:15:02</time>
      </trkpt>
      <trkpt lat="40.29996" lon="-1.87705">
        <ele>1523.6</ele>
        <time>2021-10-09 16:15:03</time>
      </trkpt>
      <trkpt lat="40.29989" lon="-1.87699">
        <ele>1523</ele>
        <time>2021-10-09 16:15:04</time>
      </trkpt>
      <trkpt lat="40.29985" lon="-1.87692">
        <ele>1522.2</ele>
        <time>2021-10-09 16:15:05</time>
      </trkpt>
      <trkpt lat="40.2998" lon="-1.87684">
        <ele>1521.6</ele>
        <time>2021-10-09 16:15:06</time>
      </trkpt>
      <trkpt lat="40.29973" lon="-1.87677">
        <ele>1521</ele>
        <time>2021-10-09 16:15:07</time>
      </trkpt>
      <trkpt lat="40.29967" lon="-1.87667">
        <ele>1520.2</ele>
        <time>2021-10-09 16:15:08</time>
      </trkpt>
      <trkpt lat="40.29961" lon="-1.87659">
        <ele>1519.6</ele>
        <time>2021-10-09 16:15:09</time>
      </trkpt>
      <trkpt lat="40.29954" lon="-1.87652">
        <ele>1518.8</ele>
        <time>2021-10-09 16:15:10</time>
      </trkpt>
      <trkpt lat="40.29948" lon="-1.87647">
        <ele>1518.4</ele>
        <time>2021-10-09 16:15:11</time>
      </trkpt>
      <trkpt lat="40.29942" lon="-1.87643">
        <ele>1517.6</ele>
        <time>2021-10-09 16:15:12</time>
      </trkpt>
      <trkpt lat="40.29936" lon="-1.87641">
        <ele>1517.6</ele>
        <time>2021-10-09 16:15:13</time>
      </trkpt>
      <trkpt lat="40.29929" lon="-1.87642">
        <ele>1517.2</ele>
        <time>2021-10-09 16:15:14</time>
      </trkpt>
      <trkpt lat="40.29923" lon="-1.87643">
        <ele>1516.6</ele>
        <time>2021-10-09 16:15:15</time>
      </trkpt>
      <trkpt lat="40.29917" lon="-1.87647">
        <ele>1516.2</ele>
        <time>2021-10-09 16:15:16</time>
      </trkpt>
      <trkpt lat="40.29911" lon="-1.87651">
        <ele>1515.6</ele>
        <time>2021-10-09 16:15:17</time>
      </trkpt>
      <trkpt lat="40.29907" lon="-1.87658">
        <ele>1515</ele>
        <time>2021-10-09 16:15:18</time>
      </trkpt>
      <trkpt lat="40.29904" lon="-1.87666">
        <ele>1514.6</ele>
        <time>2021-10-09 16:15:19</time>
      </trkpt>
      <trkpt lat="40.29901" lon="-1.87674">
        <ele>1514.2</ele>
        <time>2021-10-09 16:15:20</time>
      </trkpt>
      <trkpt lat="40.29901" lon="-1.87684">
        <ele>1513.8</ele>
        <time>2021-10-09 16:15:21</time>
      </trkpt>
      <trkpt lat="40.29902" lon="-1.87691">
        <ele>1513.4</ele>
        <time>2021-10-09 16:15:22</time>
      </trkpt>
      <trkpt lat="40.29903" lon="-1.877">
        <ele>1513.2</ele>
        <time>2021-10-09 16:15:23</time>
      </trkpt>
      <trkpt lat="40.29904" lon="-1.8771">
        <ele>1512.8</ele>
        <time>2021-10-09 16:15:24</time>
      </trkpt>
      <trkpt lat="40.29905" lon="-1.8772">
        <ele>1512.6</ele>
        <time>2021-10-09 16:15:25</time>
      </trkpt>
      <trkpt lat="40.29907" lon="-1.8773">
        <ele>1512</ele>
        <time>2021-10-09 16:15:26</time>
      </trkpt>
      <trkpt lat="40.2991" lon="-1.8774">
        <ele>1511.4</ele>
        <time>2021-10-09 16:15:27</time>
      </trkpt>
      <trkpt lat="40.29911" lon="-1.87752">
        <ele>1510.8</ele>
        <time>2021-10-09 16:15:28</time>
      </trkpt>
      <trkpt lat="40.29914" lon="-1.87763">
        <ele>1510.2</ele>
        <time>2021-10-09 16:15:29</time>
      </trkpt>
      <trkpt lat="40.29916" lon="-1.87775">
        <ele>1509.4</ele>
        <time>2021-10-09 16:15:30</time>
      </trkpt>
      <trkpt lat="40.29919" lon="-1.87788">
        <ele>1508.8</ele>
        <time>2021-10-09 16:15:31</time>
      </trkpt>
      <trkpt lat="40.29921" lon="-1.87801">
        <ele>1508</ele>
        <time>2021-10-09 16:15:32</time>
      </trkpt>
      <trkpt lat="40.29924" lon="-1.87814">
        <ele>1507.2</ele>
        <time>2021-10-09 16:15:33</time>
      </trkpt>
      <trkpt lat="40.29926" lon="-1.87828">
        <ele>1506.4</ele>
        <time>2021-10-09 16:15:34</time>
      </trkpt>
      <trkpt lat="40.29929" lon="-1.87842">
        <ele>1505.8</ele>
        <time>2021-10-09 16:15:35</time>
      </trkpt>
      <trkpt lat="40.29932" lon="-1.87857">
        <ele>1505.2</ele>
        <time>2021-10-09 16:15:36</time>
      </trkpt>
      <trkpt lat="40.29935" lon="-1.8787">
        <ele>1504.4</ele>
        <time>2021-10-09 16:15:37</time>
      </trkpt>
      <trkpt lat="40.2994" lon="-1.87885">
        <ele>1503.8</ele>
        <time>2021-10-09 16:15:38</time>
      </trkpt>
      <trkpt lat="40.29944" lon="-1.87901">
        <ele>1503</ele>
        <time>2021-10-09 16:15:39</time>
      </trkpt>
      <trkpt lat="40.29947" lon="-1.87915">
        <ele>1502.2</ele>
        <time>2021-10-09 16:15:40</time>
      </trkpt>
      <trkpt lat="40.29952" lon="-1.8793">
        <ele>1501.4</ele>
        <time>2021-10-09 16:15:41</time>
      </trkpt>
      <trkpt lat="40.29955" lon="-1.87945">
        <ele>1500.4</ele>
        <time>2021-10-09 16:15:42</time>
      </trkpt>
      <trkpt lat="40.29959" lon="-1.87959">
        <ele>1499.4</ele>
        <time>2021-10-09 16:15:43</time>
      </trkpt>
      <trkpt lat="40.29962" lon="-1.87975">
        <ele>1498.8</ele>
        <time>2021-10-09 16:15:44</time>
      </trkpt>
      <trkpt lat="40.29966" lon="-1.87989">
        <ele>1497.6</ele>
        <time>2021-10-09 16:15:45</time>
      </trkpt>
      <trkpt lat="40.29969" lon="-1.88">
        <ele>1496.6</ele>
        <time>2021-10-09 16:15:46</time>
      </trkpt>
      <trkpt lat="40.29971" lon="-1.88013">
        <ele>1496</ele>
        <time>2021-10-09 16:15:47</time>
      </trkpt>
      <trkpt lat="40.29974" lon="-1.88026">
        <ele>1495.2</ele>
        <time>2021-10-09 16:15:48</time>
      </trkpt>
      <trkpt lat="40.29974" lon="-1.8804">
        <ele>1494.2</ele>
        <time>2021-10-09 16:15:49</time>
      </trkpt>
      <trkpt lat="40.2997" lon="-1.88051">
        <ele>1493.4</ele>
        <time>2021-10-09 16:15:50</time>
      </trkpt>
      <trkpt lat="40.29968" lon="-1.88064">
        <ele>1492.6</ele>
        <time>2021-10-09 16:15:51</time>
      </trkpt>
      <trkpt lat="40.29968" lon="-1.88077">
        <ele>1491.6</ele>
        <time>2021-10-09 16:15:52</time>
      </trkpt>
      <trkpt lat="40.29968" lon="-1.88091">
        <ele>1491</ele>
        <time>2021-10-09 16:15:53</time>
      </trkpt>
      <trkpt lat="40.29971" lon="-1.88103">
        <ele>1490.2</ele>
        <time>2021-10-09 16:15:54</time>
      </trkpt>
      <trkpt lat="40.29974" lon="-1.88115">
        <ele>1489.8</ele>
        <time>2021-10-09 16:15:55</time>
      </trkpt>
      <trkpt lat="40.29978" lon="-1.88127">
        <ele>1489</ele>
        <time>2021-10-09 16:15:56</time>
      </trkpt>
      <trkpt lat="40.29982" lon="-1.88139">
        <ele>1489</ele>
        <time>2021-10-09 16:15:57</time>
      </trkpt>
      <trkpt lat="40.29986" lon="-1.8815">
        <ele>1488</ele>
        <time>2021-10-09 16:15:58</time>
      </trkpt>
      <trkpt lat="40.2999" lon="-1.88162">
        <ele>1487.6</ele>
        <time>2021-10-09 16:15:59</time>
      </trkpt>
      <trkpt lat="40.29994" lon="-1.88174">
        <ele>1486.8</ele>
        <time>2021-10-09 16:16:00</time>
      </trkpt>
      <trkpt lat="40.29997" lon="-1.88185">
        <ele>1486.4</ele>
        <time>2021-10-09 16:16:01</time>
      </trkpt>
      <trkpt lat="40.30002" lon="-1.88197">
        <ele>1485.8</ele>
        <time>2021-10-09 16:16:02</time>
      </trkpt>
      <trkpt lat="40.30006" lon="-1.88208">
        <ele>1485.2</ele>
        <time>2021-10-09 16:16:03</time>
      </trkpt>
      <trkpt lat="40.30011" lon="-1.88218">
        <ele>1484.4</ele>
        <time>2021-10-09 16:16:04</time>
      </trkpt>
      <trkpt lat="40.30017" lon="-1.88227">
        <ele>1484</ele>
        <time>2021-10-09 16:16:05</time>
      </trkpt>
      <trkpt lat="40.30024" lon="-1.88236">
        <ele>1483.4</ele>
        <time>2021-10-09 16:16:06</time>
      </trkpt>
      <trkpt lat="40.30031" lon="-1.88242">
        <ele>1483</ele>
        <time>2021-10-09 16:16:07</time>
      </trkpt>
      <trkpt lat="40.30038" lon="-1.88249">
        <ele>1482.4</ele>
        <time>2021-10-09 16:16:08</time>
      </trkpt>
      <trkpt lat="40.30046" lon="-1.88256">
        <ele>1482</ele>
        <time>2021-10-09 16:16:09</time>
      </trkpt>
      <trkpt lat="40.30053" lon="-1.88262">
        <ele>1481.6</ele>
        <time>2021-10-09 16:16:10</time>
      </trkpt>
      <trkpt lat="40.3006" lon="-1.88269">
        <ele>1481.2</ele>
        <time>2021-10-09 16:16:11</time>
      </trkpt>
      <trkpt lat="40.30068" lon="-1.88276">
        <ele>1481</ele>
        <time>2021-10-09 16:16:12</time>
      </trkpt>
      <trkpt lat="40.30076" lon="-1.88282">
        <ele>1480.6</ele>
        <time>2021-10-09 16:16:13</time>
      </trkpt>
      <trkpt lat="40.30082" lon="-1.88288">
        <ele>1480.6</ele>
        <time>2021-10-09 16:16:14</time>
      </trkpt>
      <trkpt lat="40.3009" lon="-1.88295">
        <ele>1480.4</ele>
        <time>2021-10-09 16:16:15</time>
      </trkpt>
      <trkpt lat="40.30098" lon="-1.88302">
        <ele>1480.4</ele>
        <time>2021-10-09 16:16:16</time>
      </trkpt>
      <trkpt lat="40.30106" lon="-1.88309">
        <ele>1479.8</ele>
        <time>2021-10-09 16:16:17</time>
      </trkpt>
      <trkpt lat="40.30113" lon="-1.88316">
        <ele>1479.6</ele>
        <time>2021-10-09 16:16:18</time>
      </trkpt>
      <trkpt lat="40.30121" lon="-1.88323">
        <ele>1479.4</ele>
        <time>2021-10-09 16:16:19</time>
      </trkpt>
      <trkpt lat="40.30129" lon="-1.88329">
        <ele>1479</ele>
        <time>2021-10-09 16:16:20</time>
      </trkpt>
      <trkpt lat="40.30136" lon="-1.88334">
        <ele>1478.6</ele>
        <time>2021-10-09 16:16:21</time>
      </trkpt>
      <trkpt lat="40.30144" lon="-1.88341">
        <ele>1478.2</ele>
        <time>2021-10-09 16:16:22</time>
      </trkpt>
      <trkpt lat="40.30152" lon="-1.88348">
        <ele>1478</ele>
        <time>2021-10-09 16:16:23</time>
      </trkpt>
      <trkpt lat="40.30159" lon="-1.88355">
        <ele>1477.6</ele>
        <time>2021-10-09 16:16:24</time>
      </trkpt>
      <trkpt lat="40.30167" lon="-1.88362">
        <ele>1477.4</ele>
        <time>2021-10-09 16:16:25</time>
      </trkpt>
      <trkpt lat="40.30174" lon="-1.88369">
        <ele>1477</ele>
        <time>2021-10-09 16:16:26</time>
      </trkpt>
      <trkpt lat="40.30181" lon="-1.88376">
        <ele>1476.8</ele>
        <time>2021-10-09 16:16:27</time>
      </trkpt>
      <trkpt lat="40.30188" lon="-1.88382">
        <ele>1476.4</ele>
        <time>2021-10-09 16:16:28</time>
      </trkpt>
      <trkpt lat="40.30196" lon="-1.88389">
        <ele>1476.2</ele>
        <time>2021-10-09 16:16:29</time>
      </trkpt>
      <trkpt lat="40.30203" lon="-1.88396">
        <ele>1476.2</ele>
        <time>2021-10-09 16:16:30</time>
      </trkpt>
      <trkpt lat="40.30209" lon="-1.88401">
        <ele>1476</ele>
        <time>2021-10-09 16:16:31</time>
      </trkpt>
      <trkpt lat="40.30216" lon="-1.88408">
        <ele>1475.6</ele>
        <time>2021-10-09 16:16:32</time>
      </trkpt>
      <trkpt lat="40.30222" lon="-1.88413">
        <ele>1475.4</ele>
        <time>2021-10-09 16:16:33</time>
      </trkpt>
      <trkpt lat="40.30229" lon="-1.88419">
        <ele>1475.4</ele>
        <time>2021-10-09 16:16:34</time>
      </trkpt>
      <trkpt lat="40.30235" lon="-1.88424">
        <ele>1475</ele>
        <time>2021-10-09 16:16:35</time>
      </trkpt>
      <trkpt lat="40.30241" lon="-1.8843">
        <ele>1474.8</ele>
        <time>2021-10-09 16:16:36</time>
      </trkpt>
      <trkpt lat="40.30247" lon="-1.88435">
        <ele>1474.6</ele>
        <time>2021-10-09 16:16:37</time>
      </trkpt>
      <trkpt lat="40.30253" lon="-1.8844">
        <ele>1474.6</ele>
        <time>2021-10-09 16:16:38</time>
      </trkpt>
      <trkpt lat="40.3026" lon="-1.88446">
        <ele>1474.2</ele>
        <time>2021-10-09 16:16:39</time>
      </trkpt>
      <trkpt lat="40.30266" lon="-1.88452">
        <ele>1474</ele>
        <time>2021-10-09 16:16:40</time>
      </trkpt>
      <trkpt lat="40.30273" lon="-1.88458">
        <ele>1474</ele>
        <time>2021-10-09 16:16:41</time>
      </trkpt>
      <trkpt lat="40.30279" lon="-1.88463">
        <ele>1473.6</ele>
        <time>2021-10-09 16:16:42</time>
      </trkpt>
      <trkpt lat="40.30285" lon="-1.88469">
        <ele>1473.4</ele>
        <time>2021-10-09 16:16:43</time>
      </trkpt>
      <trkpt lat="40.30292" lon="-1.88475">
        <ele>1473</ele>
        <time>2021-10-09 16:16:44</time>
      </trkpt>
      <trkpt lat="40.30298" lon="-1.8848">
        <ele>1473</ele>
        <time>2021-10-09 16:16:45</time>
      </trkpt>
      <trkpt lat="40.30305" lon="-1.88485">
        <ele>1472.6</ele>
        <time>2021-10-09 16:16:46</time>
      </trkpt>
      <trkpt lat="40.3031" lon="-1.88491">
        <ele>1472.6</ele>
        <time>2021-10-09 16:16:47</time>
      </trkpt>
      <trkpt lat="40.30317" lon="-1.88496">
        <ele>1472.2</ele>
        <time>2021-10-09 16:16:48</time>
      </trkpt>
      <trkpt lat="40.30323" lon="-1.88502">
        <ele>1472</ele>
        <time>2021-10-09 16:16:49</time>
      </trkpt>
      <trkpt lat="40.30327" lon="-1.88509">
        <ele>1472</ele>
        <time>2021-10-09 16:16:50</time>
      </trkpt>
      <trkpt lat="40.30332" lon="-1.88516">
        <ele>1471.6</ele>
        <time>2021-10-09 16:16:51</time>
      </trkpt>
      <trkpt lat="40.30333" lon="-1.88525">
        <ele>1471.2</ele>
        <time>2021-10-09 16:16:52</time>
      </trkpt>
      <trkpt lat="40.30335" lon="-1.88534">
        <ele>1471.2</ele>
        <time>2021-10-09 16:16:53</time>
      </trkpt>
      <trkpt lat="40.30334" lon="-1.88542">
        <ele>1471.2</ele>
        <time>2021-10-09 16:16:54</time>
      </trkpt>
      <trkpt lat="40.30332" lon="-1.8855">
        <ele>1471</ele>
        <time>2021-10-09 16:16:55</time>
      </trkpt>
      <trkpt lat="40.30329" lon="-1.88558">
        <ele>1471</ele>
        <time>2021-10-09 16:16:56</time>
      </trkpt>
      <trkpt lat="40.30324" lon="-1.88563">
        <ele>1471</ele>
        <time>2021-10-09 16:16:57</time>
      </trkpt>
      <trkpt lat="40.30318" lon="-1.88568">
        <ele>1471</ele>
        <time>2021-10-09 16:16:58</time>
      </trkpt>
      <trkpt lat="40.30313" lon="-1.88572">
        <ele>1471</ele>
        <time>2021-10-09 16:16:59</time>
      </trkpt>
      <trkpt lat="40.30307" lon="-1.88576">
        <ele>1470.6</ele>
        <time>2021-10-09 16:17:00</time>
      </trkpt>
      <trkpt lat="40.30301" lon="-1.88579">
        <ele>1470.6</ele>
        <time>2021-10-09 16:17:01</time>
      </trkpt>
      <trkpt lat="40.30294" lon="-1.88583">
        <ele>1470.2</ele>
        <time>2021-10-09 16:17:02</time>
      </trkpt>
      <trkpt lat="40.30288" lon="-1.88586">
        <ele>1470.2</ele>
        <time>2021-10-09 16:17:03</time>
      </trkpt>
      <trkpt lat="40.30283" lon="-1.88592">
        <ele>1469.8</ele>
        <time>2021-10-09 16:17:04</time>
      </trkpt>
      <trkpt lat="40.30276" lon="-1.88596">
        <ele>1469.8</ele>
        <time>2021-10-09 16:17:05</time>
      </trkpt>
      <trkpt lat="40.3027" lon="-1.886">
        <ele>1469.4</ele>
        <time>2021-10-09 16:17:06</time>
      </trkpt>
      <trkpt lat="40.30264" lon="-1.88605">
        <ele>1469</ele>
        <time>2021-10-09 16:17:07</time>
      </trkpt>
      <trkpt lat="40.30257" lon="-1.8861">
        <ele>1468.8</ele>
        <time>2021-10-09 16:17:08</time>
      </trkpt>
      <trkpt lat="40.30251" lon="-1.88614">
        <ele>1468.4</ele>
        <time>2021-10-09 16:17:09</time>
      </trkpt>
      <trkpt lat="40.30244" lon="-1.88618">
        <ele>1468</ele>
        <time>2021-10-09 16:17:10</time>
      </trkpt>
      <trkpt lat="40.30237" lon="-1.88622">
        <ele>1467.8</ele>
        <time>2021-10-09 16:17:11</time>
      </trkpt>
      <trkpt lat="40.30231" lon="-1.88626">
        <ele>1467.4</ele>
        <time>2021-10-09 16:17:12</time>
      </trkpt>
      <trkpt lat="40.30224" lon="-1.88631">
        <ele>1467.2</ele>
        <time>2021-10-09 16:17:13</time>
      </trkpt>
      <trkpt lat="40.30218" lon="-1.88637">
        <ele>1467</ele>
        <time>2021-10-09 16:17:14</time>
      </trkpt>
      <trkpt lat="40.30212" lon="-1.88644">
        <ele>1466.4</ele>
        <time>2021-10-09 16:17:15</time>
      </trkpt>
      <trkpt lat="40.30208" lon="-1.88652">
        <ele>1466</ele>
        <time>2021-10-09 16:17:16</time>
      </trkpt>
      <trkpt lat="40.30203" lon="-1.88661">
        <ele>1465.6</ele>
        <time>2021-10-09 16:17:17</time>
      </trkpt>
      <trkpt lat="40.302" lon="-1.8867">
        <ele>1465</ele>
        <time>2021-10-09 16:17:18</time>
      </trkpt>
      <trkpt lat="40.30197" lon="-1.8868">
        <ele>1464.6</ele>
        <time>2021-10-09 16:17:19</time>
      </trkpt>
      <trkpt lat="40.30193" lon="-1.88689">
        <ele>1464.2</ele>
        <time>2021-10-09 16:17:20</time>
      </trkpt>
      <trkpt lat="40.3019" lon="-1.887">
        <ele>1463.4</ele>
        <time>2021-10-09 16:17:21</time>
      </trkpt>
      <trkpt lat="40.30186" lon="-1.88709">
        <ele>1463</ele>
        <time>2021-10-09 16:17:22</time>
      </trkpt>
      <trkpt lat="40.30181" lon="-1.8872">
        <ele>1463</ele>
        <time>2021-10-09 16:17:23</time>
      </trkpt>
      <trkpt lat="40.30175" lon="-1.88729">
        <ele>1462.4</ele>
        <time>2021-10-09 16:17:24</time>
      </trkpt>
      <trkpt lat="40.30167" lon="-1.88736">
        <ele>1461.8</ele>
        <time>2021-10-09 16:17:25</time>
      </trkpt>
      <trkpt lat="40.30158" lon="-1.88741">
        <ele>1461.2</ele>
        <time>2021-10-09 16:17:26</time>
      </trkpt>
      <trkpt lat="40.30149" lon="-1.88744">
        <ele>1460.4</ele>
        <time>2021-10-09 16:17:27</time>
      </trkpt>
      <trkpt lat="40.30141" lon="-1.88745">
        <ele>1459.8</ele>
        <time>2021-10-09 16:17:28</time>
      </trkpt>
      <trkpt lat="40.30132" lon="-1.88748">
        <ele>1459.6</ele>
        <time>2021-10-09 16:17:29</time>
      </trkpt>
      <trkpt lat="40.30124" lon="-1.8875">
        <ele>1459</ele>
        <time>2021-10-09 16:17:30</time>
      </trkpt>
      <trkpt lat="40.30115" lon="-1.88752">
        <ele>1458.6</ele>
        <time>2021-10-09 16:17:31</time>
      </trkpt>
      <trkpt lat="40.30107" lon="-1.88754">
        <ele>1458.4</ele>
        <time>2021-10-09 16:17:32</time>
      </trkpt>
      <trkpt lat="40.30098" lon="-1.88756">
        <ele>1458</ele>
        <time>2021-10-09 16:17:33</time>
      </trkpt>
      <trkpt lat="40.3009" lon="-1.88758">
        <ele>1457.6</ele>
        <time>2021-10-09 16:17:34</time>
      </trkpt>
      <trkpt lat="40.30081" lon="-1.88761">
        <ele>1457</ele>
        <time>2021-10-09 16:17:35</time>
      </trkpt>
      <trkpt lat="40.30072" lon="-1.88764">
        <ele>1456.6</ele>
        <time>2021-10-09 16:17:36</time>
      </trkpt>
      <trkpt lat="40.30062" lon="-1.88767">
        <ele>1456</ele>
        <time>2021-10-09 16:17:37</time>
      </trkpt>
      <trkpt lat="40.30053" lon="-1.88771">
        <ele>1455.4</ele>
        <time>2021-10-09 16:17:38</time>
      </trkpt>
      <trkpt lat="40.30044" lon="-1.88775">
        <ele>1454.6</ele>
        <time>2021-10-09 16:17:39</time>
      </trkpt>
      <trkpt lat="40.30035" lon="-1.88782">
        <ele>1454</ele>
        <time>2021-10-09 16:17:40</time>
      </trkpt>
      <trkpt lat="40.30027" lon="-1.88791">
        <ele>1453</ele>
        <time>2021-10-09 16:17:41</time>
      </trkpt>
      <trkpt lat="40.30019" lon="-1.88799">
        <ele>1452.6</ele>
        <time>2021-10-09 16:17:42</time>
      </trkpt>
      <trkpt lat="40.30012" lon="-1.88808">
        <ele>1452</ele>
        <time>2021-10-09 16:17:43</time>
      </trkpt>
      <trkpt lat="40.30004" lon="-1.88817">
        <ele>1451.4</ele>
        <time>2021-10-09 16:17:44</time>
      </trkpt>
      <trkpt lat="40.29996" lon="-1.88824">
        <ele>1451</ele>
        <time>2021-10-09 16:17:45</time>
      </trkpt>
      <trkpt lat="40.29988" lon="-1.8883">
        <ele>1450.4</ele>
        <time>2021-10-09 16:17:46</time>
      </trkpt>
      <trkpt lat="40.29979" lon="-1.88837">
        <ele>1449.8</ele>
        <time>2021-10-09 16:17:47</time>
      </trkpt>
      <trkpt lat="40.2997" lon="-1.88841">
        <ele>1449</ele>
        <time>2021-10-09 16:17:48</time>
      </trkpt>
      <trkpt lat="40.29959" lon="-1.88845">
        <ele>1448.6</ele>
        <time>2021-10-09 16:17:49</time>
      </trkpt>
      <trkpt lat="40.29949" lon="-1.88846">
        <ele>1447.4</ele>
        <time>2021-10-09 16:17:50</time>
      </trkpt>
      <trkpt lat="40.29939" lon="-1.88847">
        <ele>1446.8</ele>
        <time>2021-10-09 16:17:51</time>
      </trkpt>
      <trkpt lat="40.29929" lon="-1.88847">
        <ele>1446</ele>
        <time>2021-10-09 16:17:52</time>
      </trkpt>
      <trkpt lat="40.29919" lon="-1.88849">
        <ele>1445.6</ele>
        <time>2021-10-09 16:17:53</time>
      </trkpt>
      <trkpt lat="40.29909" lon="-1.88851">
        <ele>1444.6</ele>
        <time>2021-10-09 16:17:54</time>
      </trkpt>
      <trkpt lat="40.29899" lon="-1.88853">
        <ele>1443.8</ele>
        <time>2021-10-09 16:17:55</time>
      </trkpt>
      <trkpt lat="40.2989" lon="-1.88855">
        <ele>1442.8</ele>
        <time>2021-10-09 16:17:56</time>
      </trkpt>
      <trkpt lat="40.2988" lon="-1.88858">
        <ele>1442.6</ele>
        <time>2021-10-09 16:17:57</time>
      </trkpt>
      <trkpt lat="40.29871" lon="-1.8886">
        <ele>1441.4</ele>
        <time>2021-10-09 16:17:58</time>
      </trkpt>
      <trkpt lat="40.29863" lon="-1.88863">
        <ele>1440.6</ele>
        <time>2021-10-09 16:17:59</time>
      </trkpt>
      <trkpt lat="40.29855" lon="-1.88865">
        <ele>1440</ele>
        <time>2021-10-09 16:18:00</time>
      </trkpt>
      <trkpt lat="40.29847" lon="-1.88869">
        <ele>1438.6</ele>
        <time>2021-10-09 16:18:01</time>
      </trkpt>
      <trkpt lat="40.2984" lon="-1.88871">
        <ele>1437.8</ele>
        <time>2021-10-09 16:18:02</time>
      </trkpt>
      <trkpt lat="40.29832" lon="-1.88875">
        <ele>1436.8</ele>
        <time>2021-10-09 16:18:03</time>
      </trkpt>
      <trkpt lat="40.29826" lon="-1.88879">
        <ele>1435.8</ele>
        <time>2021-10-09 16:18:04</time>
      </trkpt>
      <trkpt lat="40.2982" lon="-1.88885">
        <ele>1435.2</ele>
        <time>2021-10-09 16:18:05</time>
      </trkpt>
      <trkpt lat="40.29814" lon="-1.8889">
        <ele>1434.2</ele>
        <time>2021-10-09 16:18:06</time>
      </trkpt>
      <trkpt lat="40.29807" lon="-1.88896">
        <ele>1433.6</ele>
        <time>2021-10-09 16:18:07</time>
      </trkpt>
      <trkpt lat="40.298" lon="-1.88901">
        <ele>1432.8</ele>
        <time>2021-10-09 16:18:08</time>
      </trkpt>
      <trkpt lat="40.29794" lon="-1.88908">
        <ele>1432</ele>
        <time>2021-10-09 16:18:09</time>
      </trkpt>
      <trkpt lat="40.29786" lon="-1.88915">
        <ele>1431.4</ele>
        <time>2021-10-09 16:18:10</time>
      </trkpt>
      <trkpt lat="40.29778" lon="-1.88922">
        <ele>1430.6</ele>
        <time>2021-10-09 16:18:11</time>
      </trkpt>
      <trkpt lat="40.29771" lon="-1.88929">
        <ele>1429.8</ele>
        <time>2021-10-09 16:18:12</time>
      </trkpt>
      <trkpt lat="40.29762" lon="-1.88936">
        <ele>1429</ele>
        <time>2021-10-09 16:18:13</time>
      </trkpt>
      <trkpt lat="40.29754" lon="-1.88943">
        <ele>1428.6</ele>
        <time>2021-10-09 16:18:14</time>
      </trkpt>
      <trkpt lat="40.29746" lon="-1.8895">
        <ele>1427.8</ele>
        <time>2021-10-09 16:18:15</time>
      </trkpt>
      <trkpt lat="40.29737" lon="-1.88957">
        <ele>1427</ele>
        <time>2021-10-09 16:18:16</time>
      </trkpt>
      <trkpt lat="40.29727" lon="-1.88966">
        <ele>1426</ele>
        <time>2021-10-09 16:18:17</time>
      </trkpt>
      <trkpt lat="40.29717" lon="-1.88974">
        <ele>1425</ele>
        <time>2021-10-09 16:18:18</time>
      </trkpt>
      <trkpt lat="40.29708" lon="-1.88982">
        <ele>1424</ele>
        <time>2021-10-09 16:18:19</time>
      </trkpt>
      <trkpt lat="40.29698" lon="-1.8899">
        <ele>1423.2</ele>
        <time>2021-10-09 16:18:20</time>
      </trkpt>
      <trkpt lat="40.29688" lon="-1.88998">
        <ele>1422.6</ele>
        <time>2021-10-09 16:18:21</time>
      </trkpt>
      <trkpt lat="40.29678" lon="-1.89005">
        <ele>1421.8</ele>
        <time>2021-10-09 16:18:22</time>
      </trkpt>
      <trkpt lat="40.29668" lon="-1.89013">
        <ele>1421.4</ele>
        <time>2021-10-09 16:18:23</time>
      </trkpt>
      <trkpt lat="40.29658" lon="-1.8902">
        <ele>1420.6</ele>
        <time>2021-10-09 16:18:24</time>
      </trkpt>
      <trkpt lat="40.29649" lon="-1.89027">
        <ele>1419.8</ele>
        <time>2021-10-09 16:18:25</time>
      </trkpt>
      <trkpt lat="40.29639" lon="-1.89033">
        <ele>1418.8</ele>
        <time>2021-10-09 16:18:26</time>
      </trkpt>
      <trkpt lat="40.2963" lon="-1.89041">
        <ele>1418.2</ele>
        <time>2021-10-09 16:18:27</time>
      </trkpt>
      <trkpt lat="40.2962" lon="-1.89048">
        <ele>1417.6</ele>
        <time>2021-10-09 16:18:28</time>
      </trkpt>
      <trkpt lat="40.29612" lon="-1.89056">
        <ele>1416.8</ele>
        <time>2021-10-09 16:18:29</time>
      </trkpt>
      <trkpt lat="40.29603" lon="-1.89063">
        <ele>1416.2</ele>
        <time>2021-10-09 16:18:30</time>
      </trkpt>
      <trkpt lat="40.29594" lon="-1.8907">
        <ele>1415.6</ele>
        <time>2021-10-09 16:18:31</time>
      </trkpt>
      <trkpt lat="40.29585" lon="-1.89076">
        <ele>1415.2</ele>
        <time>2021-10-09 16:18:32</time>
      </trkpt>
      <trkpt lat="40.29577" lon="-1.89083">
        <ele>1414.6</ele>
        <time>2021-10-09 16:18:33</time>
      </trkpt>
      <trkpt lat="40.29568" lon="-1.89091">
        <ele>1414.6</ele>
        <time>2021-10-09 16:18:34</time>
      </trkpt>
      <trkpt lat="40.2956" lon="-1.89097">
        <ele>1413.8</ele>
        <time>2021-10-09 16:18:35</time>
      </trkpt>
      <trkpt lat="40.29551" lon="-1.89104">
        <ele>1413.4</ele>
        <time>2021-10-09 16:18:36</time>
      </trkpt>
      <trkpt lat="40.29543" lon="-1.8911">
        <ele>1413</ele>
        <time>2021-10-09 16:18:37</time>
      </trkpt>
      <trkpt lat="40.29535" lon="-1.89116">
        <ele>1412.6</ele>
        <time>2021-10-09 16:18:38</time>
      </trkpt>
      <trkpt lat="40.29528" lon="-1.89122">
        <ele>1412.6</ele>
        <time>2021-10-09 16:18:39</time>
      </trkpt>
      <trkpt lat="40.29521" lon="-1.89127">
        <ele>1412</ele>
        <time>2021-10-09 16:18:40</time>
      </trkpt>
      <trkpt lat="40.29515" lon="-1.89132">
        <ele>1411.6</ele>
        <time>2021-10-09 16:18:41</time>
      </trkpt>
      <trkpt lat="40.29509" lon="-1.89137">
        <ele>1411.6</ele>
        <time>2021-10-09 16:18:42</time>
      </trkpt>
      <trkpt lat="40.29503" lon="-1.89139">
        <ele>1411.2</ele>
        <time>2021-10-09 16:18:43</time>
      </trkpt>
      <trkpt lat="40.29499" lon="-1.89142">
        <ele>1411</ele>
        <time>2021-10-09 16:18:44</time>
      </trkpt>
      <trkpt lat="40.29495" lon="-1.89145">
        <ele>1411</ele>
        <time>2021-10-09 16:18:45</time>
      </trkpt>
      <trkpt lat="40.29491" lon="-1.89148">
        <ele>1410.6</ele>
        <time>2021-10-09 16:18:46</time>
      </trkpt>
      <trkpt lat="40.29488" lon="-1.89151">
        <ele>1410.6</ele>
        <time>2021-10-09 16:18:47</time>
      </trkpt>
      <trkpt lat="40.29485" lon="-1.89154">
        <ele>1410.4</ele>
        <time>2021-10-09 16:18:48</time>
      </trkpt>
      <trkpt lat="40.29481" lon="-1.89156">
        <ele>1410.4</ele>
        <time>2021-10-09 16:18:49</time>
      </trkpt>
      <trkpt lat="40.29477" lon="-1.89159">
        <ele>1410.4</ele>
        <time>2021-10-09 16:18:50</time>
      </trkpt>
      <trkpt lat="40.29472" lon="-1.89163">
        <ele>1410</ele>
        <time>2021-10-09 16:18:51</time>
      </trkpt>
      <trkpt lat="40.29468" lon="-1.89166">
        <ele>1410</ele>
        <time>2021-10-09 16:18:52</time>
      </trkpt>
      <trkpt lat="40.29463" lon="-1.89169">
        <ele>1410</ele>
        <time>2021-10-09 16:18:53</time>
      </trkpt>
      <trkpt lat="40.29459" lon="-1.89173">
        <ele>1410</ele>
        <time>2021-10-09 16:18:54</time>
      </trkpt>
      <trkpt lat="40.29454" lon="-1.89176">
        <ele>1409.8</ele>
        <time>2021-10-09 16:18:55</time>
      </trkpt>
      <trkpt lat="40.29449" lon="-1.89179">
        <ele>1409.8</ele>
        <time>2021-10-09 16:18:56</time>
      </trkpt>
      <trkpt lat="40.29444" lon="-1.89182">
        <ele>1409.4</ele>
        <time>2021-10-09 16:18:57</time>
      </trkpt>
      <trkpt lat="40.29439" lon="-1.89185">
        <ele>1409.4</ele>
        <time>2021-10-09 16:18:58</time>
      </trkpt>
      <trkpt lat="40.29435" lon="-1.89188">
        <ele>1409.4</ele>
        <time>2021-10-09 16:18:59</time>
      </trkpt>
      <trkpt lat="40.29429" lon="-1.8919">
        <ele>1409.2</ele>
        <time>2021-10-09 16:19:00</time>
      </trkpt>
      <trkpt lat="40.29424" lon="-1.89193">
        <ele>1409.2</ele>
        <time>2021-10-09 16:19:01</time>
      </trkpt>
      <trkpt lat="40.29419" lon="-1.89196">
        <ele>1409.2</ele>
        <time>2021-10-09 16:19:02</time>
      </trkpt>
      <trkpt lat="40.29414" lon="-1.89198">
        <ele>1409.2</ele>
        <time>2021-10-09 16:19:03</time>
      </trkpt>
      <trkpt lat="40.29409" lon="-1.892">
        <ele>1409.2</ele>
        <time>2021-10-09 16:19:04</time>
      </trkpt>
      <trkpt lat="40.29403" lon="-1.89202">
        <ele>1408.8</ele>
        <time>2021-10-09 16:19:05</time>
      </trkpt>
      <trkpt lat="40.29398" lon="-1.89204">
        <ele>1408.8</ele>
        <time>2021-10-09 16:19:06</time>
      </trkpt>
      <trkpt lat="40.29393" lon="-1.89205">
        <ele>1408.8</ele>
        <time>2021-10-09 16:19:07</time>
      </trkpt>
      <trkpt lat="40.29387" lon="-1.89207">
        <ele>1408.6</ele>
        <time>2021-10-09 16:19:08</time>
      </trkpt>
      <trkpt lat="40.29381" lon="-1.89209">
        <ele>1408.6</ele>
        <time>2021-10-09 16:19:09</time>
      </trkpt>
      <trkpt lat="40.29376" lon="-1.89211">
        <ele>1408.6</ele>
        <time>2021-10-09 16:19:10</time>
      </trkpt>
      <trkpt lat="40.29371" lon="-1.89213">
        <ele>1408.6</ele>
        <time>2021-10-09 16:19:11</time>
      </trkpt>
      <trkpt lat="40.29366" lon="-1.89214">
        <ele>1408.6</ele>
        <time>2021-10-09 16:19:12</time>
      </trkpt>
      <trkpt lat="40.29361" lon="-1.89216">
        <ele>1408.4</ele>
        <time>2021-10-09 16:19:13</time>
      </trkpt>
      <trkpt lat="40.29356" lon="-1.89218">
        <ele>1408.4</ele>
        <time>2021-10-09 16:19:14</time>
      </trkpt>
      <trkpt lat="40.29351" lon="-1.8922">
        <ele>1408.4</ele>
        <time>2021-10-09 16:19:15</time>
      </trkpt>
      <trkpt lat="40.29346" lon="-1.89222">
        <ele>1408.2</ele>
        <time>2021-10-09 16:19:16</time>
      </trkpt>
      <trkpt lat="40.29341" lon="-1.89224">
        <ele>1408.2</ele>
        <time>2021-10-09 16:19:17</time>
      </trkpt>
      <trkpt lat="40.29336" lon="-1.89226">
        <ele>1408.2</ele>
        <time>2021-10-09 16:19:18</time>
      </trkpt>
      <trkpt lat="40.29331" lon="-1.89228">
        <ele>1408.2</ele>
        <time>2021-10-09 16:19:19</time>
      </trkpt>
      <trkpt lat="40.29326" lon="-1.8923">
        <ele>1408</ele>
        <time>2021-10-09 16:19:20</time>
      </trkpt>
      <trkpt lat="40.29321" lon="-1.89233">
        <ele>1408</ele>
        <time>2021-10-09 16:19:21</time>
      </trkpt>
      <trkpt lat="40.29316" lon="-1.89234">
        <ele>1408</ele>
        <time>2021-10-09 16:19:22</time>
      </trkpt>
      <trkpt lat="40.29311" lon="-1.89236">
        <ele>1407.8</ele>
        <time>2021-10-09 16:19:23</time>
      </trkpt>
      <trkpt lat="40.29306" lon="-1.89237">
        <ele>1407.8</ele>
        <time>2021-10-09 16:19:24</time>
      </trkpt>
      <trkpt lat="40.29302" lon="-1.89239">
        <ele>1407.8</ele>
        <time>2021-10-09 16:19:25</time>
      </trkpt>
      <trkpt lat="40.29297" lon="-1.89241">
        <ele>1407.6</ele>
        <time>2021-10-09 16:19:26</time>
      </trkpt>
      <trkpt lat="40.29292" lon="-1.89242">
        <ele>1407.6</ele>
        <time>2021-10-09 16:19:27</time>
      </trkpt>
      <trkpt lat="40.29287" lon="-1.89244">
        <ele>1407.6</ele>
        <time>2021-10-09 16:19:28</time>
      </trkpt>
      <trkpt lat="40.29282" lon="-1.89246">
        <ele>1407.6</ele>
        <time>2021-10-09 16:19:29</time>
      </trkpt>
      <trkpt lat="40.29277" lon="-1.89247">
        <ele>1407.6</ele>
        <time>2021-10-09 16:19:30</time>
      </trkpt>
      <trkpt lat="40.29272" lon="-1.89248">
        <ele>1407.6</ele>
        <time>2021-10-09 16:19:31</time>
      </trkpt>
      <trkpt lat="40.29268" lon="-1.8925">
        <ele>1407.6</ele>
        <time>2021-10-09 16:19:32</time>
      </trkpt>
      <trkpt lat="40.29262" lon="-1.8925">
        <ele>1407.6</ele>
        <time>2021-10-09 16:19:33</time>
      </trkpt>
      <trkpt lat="40.29258" lon="-1.89251">
        <ele>1407.6</ele>
        <time>2021-10-09 16:19:34</time>
      </trkpt>
      <trkpt lat="40.29252" lon="-1.89252">
        <ele>1407.6</ele>
        <time>2021-10-09 16:19:35</time>
      </trkpt>
      <trkpt lat="40.29247" lon="-1.89254">
        <ele>1407.6</ele>
        <time>2021-10-09 16:19:36</time>
      </trkpt>
      <trkpt lat="40.29243" lon="-1.89255">
        <ele>1407.8</ele>
        <time>2021-10-09 16:19:37</time>
      </trkpt>
      <trkpt lat="40.29238" lon="-1.89256">
        <ele>1407.8</ele>
        <time>2021-10-09 16:19:38</time>
      </trkpt>
      <trkpt lat="40.29233" lon="-1.89257">
        <ele>1407.8</ele>
        <time>2021-10-09 16:19:39</time>
      </trkpt>
      <trkpt lat="40.29228" lon="-1.89258">
        <ele>1407.8</ele>
        <time>2021-10-09 16:19:40</time>
      </trkpt>
      <trkpt lat="40.29223" lon="-1.89259">
        <ele>1407.8</ele>
        <time>2021-10-09 16:19:41</time>
      </trkpt>
      <trkpt lat="40.29218" lon="-1.89261">
        <ele>1407.8</ele>
        <time>2021-10-09 16:19:42</time>
      </trkpt>
      <trkpt lat="40.29213" lon="-1.89263">
        <ele>1407.8</ele>
        <time>2021-10-09 16:19:43</time>
      </trkpt>
      <trkpt lat="40.29207" lon="-1.89264">
        <ele>1407.8</ele>
        <time>2021-10-09 16:19:44</time>
      </trkpt>
      <trkpt lat="40.29202" lon="-1.89266">
        <ele>1407.6</ele>
        <time>2021-10-09 16:19:45</time>
      </trkpt>
      <trkpt lat="40.29196" lon="-1.89267">
        <ele>1407.6</ele>
        <time>2021-10-09 16:19:46</time>
      </trkpt>
      <trkpt lat="40.29191" lon="-1.89269">
        <ele>1407.6</ele>
        <time>2021-10-09 16:19:47</time>
      </trkpt>
      <trkpt lat="40.29185" lon="-1.8927">
        <ele>1407.4</ele>
        <time>2021-10-09 16:19:48</time>
      </trkpt>
      <trkpt lat="40.29179" lon="-1.89272">
        <ele>1407.4</ele>
        <time>2021-10-09 16:19:49</time>
      </trkpt>
      <trkpt lat="40.29172" lon="-1.89273">
        <ele>1407.4</ele>
        <time>2021-10-09 16:19:50</time>
      </trkpt>
      <trkpt lat="40.29167" lon="-1.89275">
        <ele>1407.4</ele>
        <time>2021-10-09 16:19:51</time>
      </trkpt>
      <trkpt lat="40.2916" lon="-1.89277">
        <ele>1407</ele>
        <time>2021-10-09 16:19:52</time>
      </trkpt>
      <trkpt lat="40.29154" lon="-1.89277">
        <ele>1407</ele>
        <time>2021-10-09 16:19:53</time>
      </trkpt>
      <trkpt lat="40.29148" lon="-1.89279">
        <ele>1406.8</ele>
        <time>2021-10-09 16:19:54</time>
      </trkpt>
      <trkpt lat="40.29142" lon="-1.89281">
        <ele>1406.8</ele>
        <time>2021-10-09 16:19:55</time>
      </trkpt>
      <trkpt lat="40.29136" lon="-1.89283">
        <ele>1406.8</ele>
        <time>2021-10-09 16:19:56</time>
      </trkpt>
      <trkpt lat="40.2913" lon="-1.89284">
        <ele>1406.6</ele>
        <time>2021-10-09 16:19:57</time>
      </trkpt>
      <trkpt lat="40.29124" lon="-1.89286">
        <ele>1406.6</ele>
        <time>2021-10-09 16:19:58</time>
      </trkpt>
      <trkpt lat="40.29117" lon="-1.89287">
        <ele>1406.6</ele>
        <time>2021-10-09 16:19:59</time>
      </trkpt>
      <trkpt lat="40.29112" lon="-1.89289">
        <ele>1406.4</ele>
        <time>2021-10-09 16:20:00</time>
      </trkpt>
      <trkpt lat="40.29106" lon="-1.8929">
        <ele>1406.4</ele>
        <time>2021-10-09 16:20:01</time>
      </trkpt>
      <trkpt lat="40.291" lon="-1.89291">
        <ele>1406.4</ele>
        <time>2021-10-09 16:20:02</time>
      </trkpt>
      <trkpt lat="40.29095" lon="-1.89292">
        <ele>1406.2</ele>
        <time>2021-10-09 16:20:03</time>
      </trkpt>
      <trkpt lat="40.29089" lon="-1.89294">
        <ele>1405.8</ele>
        <time>2021-10-09 16:20:04</time>
      </trkpt>
      <trkpt lat="40.29084" lon="-1.89295">
        <ele>1405.8</ele>
        <time>2021-10-09 16:20:05</time>
      </trkpt>
      <trkpt lat="40.29077" lon="-1.89297">
        <ele>1405.8</ele>
        <time>2021-10-09 16:20:06</time>
      </trkpt>
      <trkpt lat="40.29071" lon="-1.89298">
        <ele>1405.8</ele>
        <time>2021-10-09 16:20:07</time>
      </trkpt>
      <trkpt lat="40.29065" lon="-1.893">
        <ele>1405.8</ele>
        <time>2021-10-09 16:20:08</time>
      </trkpt>
      <trkpt lat="40.29059" lon="-1.89302">
        <ele>1405.8</ele>
        <time>2021-10-09 16:20:09</time>
      </trkpt>
      <trkpt lat="40.29053" lon="-1.89304">
        <ele>1405.8</ele>
        <time>2021-10-09 16:20:10</time>
      </trkpt>
      <trkpt lat="40.29047" lon="-1.89305">
        <ele>1405.8</ele>
        <time>2021-10-09 16:20:11</time>
      </trkpt>
      <trkpt lat="40.29041" lon="-1.89306">
        <ele>1405.8</ele>
        <time>2021-10-09 16:20:12</time>
      </trkpt>
      <trkpt lat="40.29036" lon="-1.89308">
        <ele>1405.6</ele>
        <time>2021-10-09 16:20:13</time>
      </trkpt>
      <trkpt lat="40.2903" lon="-1.89309">
        <ele>1405.8</ele>
        <time>2021-10-09 16:20:14</time>
      </trkpt>
      <trkpt lat="40.29024" lon="-1.89309">
        <ele>1405.6</ele>
        <time>2021-10-09 16:20:15</time>
      </trkpt>
      <trkpt lat="40.29018" lon="-1.89311">
        <ele>1405.6</ele>
        <time>2021-10-09 16:20:16</time>
      </trkpt>
      <trkpt lat="40.29012" lon="-1.89313">
        <ele>1405.6</ele>
        <time>2021-10-09 16:20:17</time>
      </trkpt>
      <trkpt lat="40.29006" lon="-1.89314">
        <ele>1405.6</ele>
        <time>2021-10-09 16:20:18</time>
      </trkpt>
      <trkpt lat="40.29" lon="-1.89315">
        <ele>1405.6</ele>
        <time>2021-10-09 16:20:19</time>
      </trkpt>
      <trkpt lat="40.28994" lon="-1.89316">
        <ele>1405.6</ele>
        <time>2021-10-09 16:20:20</time>
      </trkpt>
      <trkpt lat="40.28987" lon="-1.89318">
        <ele>1405.6</ele>
        <time>2021-10-09 16:20:21</time>
      </trkpt>
      <trkpt lat="40.28981" lon="-1.89319">
        <ele>1405.6</ele>
        <time>2021-10-09 16:20:22</time>
      </trkpt>
      <trkpt lat="40.28975" lon="-1.89321">
        <ele>1405.6</ele>
        <time>2021-10-09 16:20:23</time>
      </trkpt>
      <trkpt lat="40.28969" lon="-1.89322">
        <ele>1405.6</ele>
        <time>2021-10-09 16:20:24</time>
      </trkpt>
      <trkpt lat="40.28963" lon="-1.89322">
        <ele>1405.6</ele>
        <time>2021-10-09 16:20:25</time>
      </trkpt>
      <trkpt lat="40.28957" lon="-1.89324">
        <ele>1405.6</ele>
        <time>2021-10-09 16:20:26</time>
      </trkpt>
      <trkpt lat="40.28951" lon="-1.89326">
        <ele>1405.6</ele>
        <time>2021-10-09 16:20:27</time>
      </trkpt>
      <trkpt lat="40.28945" lon="-1.89327">
        <ele>1405.4</ele>
        <time>2021-10-09 16:20:28</time>
      </trkpt>
      <trkpt lat="40.28939" lon="-1.89328">
        <ele>1405.4</ele>
        <time>2021-10-09 16:20:29</time>
      </trkpt>
      <trkpt lat="40.28933" lon="-1.89329">
        <ele>1405.4</ele>
        <time>2021-10-09 16:20:30</time>
      </trkpt>
      <trkpt lat="40.28928" lon="-1.89331">
        <ele>1405.6</ele>
        <time>2021-10-09 16:20:31</time>
      </trkpt>
      <trkpt lat="40.28922" lon="-1.89332">
        <ele>1405.6</ele>
        <time>2021-10-09 16:20:32</time>
      </trkpt>
      <trkpt lat="40.28916" lon="-1.89334">
        <ele>1405.8</ele>
        <time>2021-10-09 16:20:33</time>
      </trkpt>
      <trkpt lat="40.28911" lon="-1.89336">
        <ele>1406</ele>
        <time>2021-10-09 16:20:34</time>
      </trkpt>
      <trkpt lat="40.28905" lon="-1.89337">
        <ele>1406</ele>
        <time>2021-10-09 16:20:35</time>
      </trkpt>
      <trkpt lat="40.289" lon="-1.89339">
        <ele>1406</ele>
        <time>2021-10-09 16:20:36</time>
      </trkpt>
      <trkpt lat="40.28895" lon="-1.8934">
        <ele>1406</ele>
        <time>2021-10-09 16:20:37</time>
      </trkpt>
      <trkpt lat="40.28889" lon="-1.89341">
        <ele>1406.4</ele>
        <time>2021-10-09 16:20:38</time>
      </trkpt>
      <trkpt lat="40.28884" lon="-1.89342">
        <ele>1406.4</ele>
        <time>2021-10-09 16:20:39</time>
      </trkpt>
      <trkpt lat="40.28879" lon="-1.89344">
        <ele>1406.6</ele>
        <time>2021-10-09 16:20:40</time>
      </trkpt>
      <trkpt lat="40.28873" lon="-1.89345">
        <ele>1406.6</ele>
        <time>2021-10-09 16:20:41</time>
      </trkpt>
      <trkpt lat="40.28868" lon="-1.89347">
        <ele>1406.6</ele>
        <time>2021-10-09 16:20:42</time>
      </trkpt>
      <trkpt lat="40.28862" lon="-1.89349">
        <ele>1406.6</ele>
        <time>2021-10-09 16:20:43</time>
      </trkpt>
      <trkpt lat="40.28856" lon="-1.8935">
        <ele>1406.6</ele>
        <time>2021-10-09 16:20:44</time>
      </trkpt>
      <trkpt lat="40.2885" lon="-1.89352">
        <ele>1406.6</ele>
        <time>2021-10-09 16:20:45</time>
      </trkpt>
      <trkpt lat="40.28843" lon="-1.89353">
        <ele>1406.6</ele>
        <time>2021-10-09 16:20:46</time>
      </trkpt>
      <trkpt lat="40.28837" lon="-1.89356">
        <ele>1406.2</ele>
        <time>2021-10-09 16:20:47</time>
      </trkpt>
      <trkpt lat="40.2883" lon="-1.89358">
        <ele>1406</ele>
        <time>2021-10-09 16:20:48</time>
      </trkpt>
      <trkpt lat="40.28824" lon="-1.8936">
        <ele>1406</ele>
        <time>2021-10-09 16:20:49</time>
      </trkpt>
      <trkpt lat="40.28817" lon="-1.89361">
        <ele>1405.8</ele>
        <time>2021-10-09 16:20:50</time>
      </trkpt>
      <trkpt lat="40.28811" lon="-1.89364">
        <ele>1405.8</ele>
        <time>2021-10-09 16:20:51</time>
      </trkpt>
      <trkpt lat="40.28804" lon="-1.89365">
        <ele>1405.8</ele>
        <time>2021-10-09 16:20:52</time>
      </trkpt>
      <trkpt lat="40.28797" lon="-1.89367">
        <ele>1405.8</ele>
        <time>2021-10-09 16:20:53</time>
      </trkpt>
      <trkpt lat="40.28791" lon="-1.89369">
        <ele>1405.6</ele>
        <time>2021-10-09 16:20:54</time>
      </trkpt>
      <trkpt lat="40.28784" lon="-1.89371">
        <ele>1405.2</ele>
        <time>2021-10-09 16:20:55</time>
      </trkpt>
      <trkpt lat="40.28778" lon="-1.89373">
        <ele>1404.8</ele>
        <time>2021-10-09 16:20:56</time>
      </trkpt>
      <trkpt lat="40.28771" lon="-1.89375">
        <ele>1404.8</ele>
        <time>2021-10-09 16:20:57</time>
      </trkpt>
      <trkpt lat="40.28764" lon="-1.89377">
        <ele>1404.6</ele>
        <time>2021-10-09 16:20:58</time>
      </trkpt>
      <trkpt lat="40.28757" lon="-1.89378">
        <ele>1404.6</ele>
        <time>2021-10-09 16:20:59</time>
      </trkpt>
      <trkpt lat="40.2875" lon="-1.89379">
        <ele>1404.2</ele>
        <time>2021-10-09 16:21:00</time>
      </trkpt>
      <trkpt lat="40.28743" lon="-1.8938">
        <ele>1404.2</ele>
        <time>2021-10-09 16:21:01</time>
      </trkpt>
      <trkpt lat="40.28736" lon="-1.8938">
        <ele>1403.6</ele>
        <time>2021-10-09 16:21:02</time>
      </trkpt>
      <trkpt lat="40.28729" lon="-1.89378">
        <ele>1403.6</ele>
        <time>2021-10-09 16:21:03</time>
      </trkpt>
      <trkpt lat="40.28721" lon="-1.89375">
        <ele>1403.4</ele>
        <time>2021-10-09 16:21:04</time>
      </trkpt>
      <trkpt lat="40.28714" lon="-1.89373">
        <ele>1403.4</ele>
        <time>2021-10-09 16:21:05</time>
      </trkpt>
      <trkpt lat="40.28707" lon="-1.8937">
        <ele>1403</ele>
        <time>2021-10-09 16:21:06</time>
      </trkpt>
      <trkpt lat="40.287" lon="-1.89367">
        <ele>1402.8</ele>
        <time>2021-10-09 16:21:07</time>
      </trkpt>
      <trkpt lat="40.28692" lon="-1.89363">
        <ele>1402.8</ele>
        <time>2021-10-09 16:21:08</time>
      </trkpt>
      <trkpt lat="40.28685" lon="-1.8936">
        <ele>1402.4</ele>
        <time>2021-10-09 16:21:09</time>
      </trkpt>
      <trkpt lat="40.28678" lon="-1.89356">
        <ele>1402</ele>
        <time>2021-10-09 16:21:10</time>
      </trkpt>
      <trkpt lat="40.28671" lon="-1.89353">
        <ele>1402</ele>
        <time>2021-10-09 16:21:11</time>
      </trkpt>
      <trkpt lat="40.28665" lon="-1.8935">
        <ele>1401.6</ele>
        <time>2021-10-09 16:21:12</time>
      </trkpt>
      <trkpt lat="40.28658" lon="-1.89346">
        <ele>1401.4</ele>
        <time>2021-10-09 16:21:13</time>
      </trkpt>
      <trkpt lat="40.28651" lon="-1.89343">
        <ele>1401.4</ele>
        <time>2021-10-09 16:21:14</time>
      </trkpt>
      <trkpt lat="40.28645" lon="-1.8934">
        <ele>1401.4</ele>
        <time>2021-10-09 16:21:15</time>
      </trkpt>
      <trkpt lat="40.28638" lon="-1.89336">
        <ele>1401.2</ele>
        <time>2021-10-09 16:21:16</time>
      </trkpt>
      <trkpt lat="40.28631" lon="-1.89333">
        <ele>1401.2</ele>
        <time>2021-10-09 16:21:17</time>
      </trkpt>
      <trkpt lat="40.28625" lon="-1.89331">
        <ele>1401.2</ele>
        <time>2021-10-09 16:21:18</time>
      </trkpt>
      <trkpt lat="40.28618" lon="-1.89327">
        <ele>1401.2</ele>
        <time>2021-10-09 16:21:19</time>
      </trkpt>
      <trkpt lat="40.28611" lon="-1.89324">
        <ele>1401.2</ele>
        <time>2021-10-09 16:21:20</time>
      </trkpt>
      <trkpt lat="40.28604" lon="-1.89321">
        <ele>1401.2</ele>
        <time>2021-10-09 16:21:21</time>
      </trkpt>
      <trkpt lat="40.28597" lon="-1.89318">
        <ele>1401.2</ele>
        <time>2021-10-09 16:21:22</time>
      </trkpt>
      <trkpt lat="40.28591" lon="-1.89314">
        <ele>1401.2</ele>
        <time>2021-10-09 16:21:23</time>
      </trkpt>
      <trkpt lat="40.28584" lon="-1.8931">
        <ele>1401.2</ele>
        <time>2021-10-09 16:21:24</time>
      </trkpt>
      <trkpt lat="40.28576" lon="-1.89307">
        <ele>1401.2</ele>
        <time>2021-10-09 16:21:25</time>
      </trkpt>
      <trkpt lat="40.2857" lon="-1.89303">
        <ele>1401</ele>
        <time>2021-10-09 16:21:26</time>
      </trkpt>
      <trkpt lat="40.28563" lon="-1.893">
        <ele>1401</ele>
        <time>2021-10-09 16:21:27</time>
      </trkpt>
      <trkpt lat="40.28556" lon="-1.89296">
        <ele>1401</ele>
        <time>2021-10-09 16:21:28</time>
      </trkpt>
      <trkpt lat="40.28549" lon="-1.89293">
        <ele>1401</ele>
        <time>2021-10-09 16:21:29</time>
      </trkpt>
      <trkpt lat="40.28542" lon="-1.8929">
        <ele>1401</ele>
        <time>2021-10-09 16:21:30</time>
      </trkpt>
      <trkpt lat="40.28536" lon="-1.89287">
        <ele>1401</ele>
        <time>2021-10-09 16:21:31</time>
      </trkpt>
      <trkpt lat="40.28529" lon="-1.89284">
        <ele>1400.6</ele>
        <time>2021-10-09 16:21:32</time>
      </trkpt>
      <trkpt lat="40.28522" lon="-1.89281">
        <ele>1400.6</ele>
        <time>2021-10-09 16:21:33</time>
      </trkpt>
      <trkpt lat="40.28515" lon="-1.89278">
        <ele>1400.6</ele>
        <time>2021-10-09 16:21:34</time>
      </trkpt>
      <trkpt lat="40.28508" lon="-1.89274">
        <ele>1400.2</ele>
        <time>2021-10-09 16:21:35</time>
      </trkpt>
      <trkpt lat="40.28501" lon="-1.89271">
        <ele>1400</ele>
        <time>2021-10-09 16:21:36</time>
      </trkpt>
      <trkpt lat="40.28494" lon="-1.89268">
        <ele>1400</ele>
        <time>2021-10-09 16:21:37</time>
      </trkpt>
      <trkpt lat="40.28488" lon="-1.89265">
        <ele>1400</ele>
        <time>2021-10-09 16:21:38</time>
      </trkpt>
      <trkpt lat="40.28482" lon="-1.89262">
        <ele>1400</ele>
        <time>2021-10-09 16:21:39</time>
      </trkpt>
      <trkpt lat="40.28476" lon="-1.89258">
        <ele>1400</ele>
        <time>2021-10-09 16:21:40</time>
      </trkpt>
      <trkpt lat="40.28469" lon="-1.89256">
        <ele>1400</ele>
        <time>2021-10-09 16:21:41</time>
      </trkpt>
      <trkpt lat="40.28463" lon="-1.89253">
        <ele>1400</ele>
        <time>2021-10-09 16:21:42</time>
      </trkpt>
      <trkpt lat="40.28456" lon="-1.89249">
        <ele>1400</ele>
        <time>2021-10-09 16:21:43</time>
      </trkpt>
      <trkpt lat="40.28451" lon="-1.89247">
        <ele>1400</ele>
        <time>2021-10-09 16:21:44</time>
      </trkpt>
      <trkpt lat="40.28445" lon="-1.89244">
        <ele>1400</ele>
        <time>2021-10-09 16:21:45</time>
      </trkpt>
      <trkpt lat="40.28439" lon="-1.89242">
        <ele>1400</ele>
        <time>2021-10-09 16:21:46</time>
      </trkpt>
      <trkpt lat="40.28434" lon="-1.89239">
        <ele>1400</ele>
        <time>2021-10-09 16:21:47</time>
      </trkpt>
      <trkpt lat="40.28428" lon="-1.89237">
        <ele>1400</ele>
        <time>2021-10-09 16:21:48</time>
      </trkpt>
      <trkpt lat="40.28422" lon="-1.89233">
        <ele>1400</ele>
        <time>2021-10-09 16:21:49</time>
      </trkpt>
      <trkpt lat="40.28417" lon="-1.89231">
        <ele>1400</ele>
        <time>2021-10-09 16:21:50</time>
      </trkpt>
      <trkpt lat="40.2841" lon="-1.89228">
        <ele>1400</ele>
        <time>2021-10-09 16:21:51</time>
      </trkpt>
      <trkpt lat="40.28404" lon="-1.89225">
        <ele>1400</ele>
        <time>2021-10-09 16:21:52</time>
      </trkpt>
      <trkpt lat="40.28398" lon="-1.89222">
        <ele>1400.2</ele>
        <time>2021-10-09 16:21:53</time>
      </trkpt>
      <trkpt lat="40.28391" lon="-1.89219">
        <ele>1400.2</ele>
        <time>2021-10-09 16:21:54</time>
      </trkpt>
      <trkpt lat="40.28385" lon="-1.89217">
        <ele>1400.2</ele>
        <time>2021-10-09 16:21:55</time>
      </trkpt>
      <trkpt lat="40.28379" lon="-1.89214">
        <ele>1400.2</ele>
        <time>2021-10-09 16:21:56</time>
      </trkpt>
      <trkpt lat="40.28373" lon="-1.89211">
        <ele>1400.2</ele>
        <time>2021-10-09 16:21:57</time>
      </trkpt>
      <trkpt lat="40.28365" lon="-1.89208">
        <ele>1400.2</ele>
        <time>2021-10-09 16:21:58</time>
      </trkpt>
      <trkpt lat="40.28359" lon="-1.89206">
        <ele>1400.2</ele>
        <time>2021-10-09 16:21:59</time>
      </trkpt>
      <trkpt lat="40.28352" lon="-1.89203">
        <ele>1400.2</ele>
        <time>2021-10-09 16:22:00</time>
      </trkpt>
      <trkpt lat="40.28345" lon="-1.892">
        <ele>1400.2</ele>
        <time>2021-10-09 16:22:01</time>
      </trkpt>
      <trkpt lat="40.28338" lon="-1.89198">
        <ele>1400</ele>
        <time>2021-10-09 16:22:02</time>
      </trkpt>
      <trkpt lat="40.28331" lon="-1.89194">
        <ele>1400</ele>
        <time>2021-10-09 16:22:03</time>
      </trkpt>
      <trkpt lat="40.28317" lon="-1.89189">
        <ele>1400</ele>
        <time>2021-10-09 16:22:04</time>
      </trkpt>
      <trkpt lat="40.2831" lon="-1.89186">
        <ele>1399.8</ele>
        <time>2021-10-09 16:22:05</time>
      </trkpt>
      <trkpt lat="40.28304" lon="-1.89183">
        <ele>1399.8</ele>
        <time>2021-10-09 16:22:06</time>
      </trkpt>
      <trkpt lat="40.28297" lon="-1.89181">
        <ele>1399.8</ele>
        <time>2021-10-09 16:22:07</time>
      </trkpt>
      <trkpt lat="40.28291" lon="-1.89178">
        <ele>1399.8</ele>
        <time>2021-10-09 16:22:08</time>
      </trkpt>
      <trkpt lat="40.28285" lon="-1.89175">
        <ele>1399.8</ele>
        <time>2021-10-09 16:22:09</time>
      </trkpt>
      <trkpt lat="40.28279" lon="-1.89173">
        <ele>1399.8</ele>
        <time>2021-10-09 16:22:10</time>
      </trkpt>
      <trkpt lat="40.28273" lon="-1.89171">
        <ele>1399.8</ele>
        <time>2021-10-09 16:22:11</time>
      </trkpt>
      <trkpt lat="40.28266" lon="-1.89168">
        <ele>1400</ele>
        <time>2021-10-09 16:22:12</time>
      </trkpt>
      <trkpt lat="40.2826" lon="-1.89166">
        <ele>1400</ele>
        <time>2021-10-09 16:22:13</time>
      </trkpt>
      <trkpt lat="40.28253" lon="-1.89163">
        <ele>1400</ele>
        <time>2021-10-09 16:22:14</time>
      </trkpt>
      <trkpt lat="40.28247" lon="-1.89161">
        <ele>1400</ele>
        <time>2021-10-09 16:22:15</time>
      </trkpt>
      <trkpt lat="40.28241" lon="-1.89158">
        <ele>1400</ele>
        <time>2021-10-09 16:22:16</time>
      </trkpt>
      <trkpt lat="40.28234" lon="-1.89155">
        <ele>1400</ele>
        <time>2021-10-09 16:22:17</time>
      </trkpt>
      <trkpt lat="40.28228" lon="-1.89153">
        <ele>1400</ele>
        <time>2021-10-09 16:22:18</time>
      </trkpt>
      <trkpt lat="40.28221" lon="-1.89151">
        <ele>1400</ele>
        <time>2021-10-09 16:22:19</time>
      </trkpt>
      <trkpt lat="40.28215" lon="-1.89149">
        <ele>1400</ele>
        <time>2021-10-09 16:22:20</time>
      </trkpt>
      <trkpt lat="40.28209" lon="-1.89148">
        <ele>1400.2</ele>
        <time>2021-10-09 16:22:21</time>
      </trkpt>
      <trkpt lat="40.28202" lon="-1.89146">
        <ele>1400.2</ele>
        <time>2021-10-09 16:22:22</time>
      </trkpt>
      <trkpt lat="40.28195" lon="-1.89145">
        <ele>1400.2</ele>
        <time>2021-10-09 16:22:23</time>
      </trkpt>
      <trkpt lat="40.28189" lon="-1.89143">
        <ele>1400.2</ele>
        <time>2021-10-09 16:22:24</time>
      </trkpt>
      <trkpt lat="40.28182" lon="-1.89142">
        <ele>1400.2</ele>
        <time>2021-10-09 16:22:25</time>
      </trkpt>
      <trkpt lat="40.28175" lon="-1.89141">
        <ele>1400.2</ele>
        <time>2021-10-09 16:22:26</time>
      </trkpt>
      <trkpt lat="40.28168" lon="-1.8914">
        <ele>1400.2</ele>
        <time>2021-10-09 16:22:27</time>
      </trkpt>
      <trkpt lat="40.28162" lon="-1.8914">
        <ele>1399.8</ele>
        <time>2021-10-09 16:22:28</time>
      </trkpt>
      <trkpt lat="40.28155" lon="-1.89139">
        <ele>1399.6</ele>
        <time>2021-10-09 16:22:29</time>
      </trkpt>
      <trkpt lat="40.28148" lon="-1.89138">
        <ele>1399.6</ele>
        <time>2021-10-09 16:22:30</time>
      </trkpt>
      <trkpt lat="40.28141" lon="-1.89136">
        <ele>1399.2</ele>
        <time>2021-10-09 16:22:31</time>
      </trkpt>
      <trkpt lat="40.28134" lon="-1.89135">
        <ele>1398.8</ele>
        <time>2021-10-09 16:22:32</time>
      </trkpt>
      <trkpt lat="40.28126" lon="-1.89134">
        <ele>1398.4</ele>
        <time>2021-10-09 16:22:33</time>
      </trkpt>
      <trkpt lat="40.28118" lon="-1.89133">
        <ele>1398</ele>
        <time>2021-10-09 16:22:34</time>
      </trkpt>
      <trkpt lat="40.28111" lon="-1.89133">
        <ele>1398</ele>
        <time>2021-10-09 16:22:35</time>
      </trkpt>
      <trkpt lat="40.28103" lon="-1.89132">
        <ele>1397.6</ele>
        <time>2021-10-09 16:22:36</time>
      </trkpt>
      <trkpt lat="40.28096" lon="-1.89131">
        <ele>1397.2</ele>
        <time>2021-10-09 16:22:37</time>
      </trkpt>
      <trkpt lat="40.28089" lon="-1.89131">
        <ele>1396.6</ele>
        <time>2021-10-09 16:22:38</time>
      </trkpt>
      <trkpt lat="40.28081" lon="-1.89132">
        <ele>1396.4</ele>
        <time>2021-10-09 16:22:39</time>
      </trkpt>
      <trkpt lat="40.28074" lon="-1.89133">
        <ele>1396.2</ele>
        <time>2021-10-09 16:22:40</time>
      </trkpt>
      <trkpt lat="40.28068" lon="-1.89137">
        <ele>1396</ele>
        <time>2021-10-09 16:22:41</time>
      </trkpt>
      <trkpt lat="40.28061" lon="-1.89141">
        <ele>1395.6</ele>
        <time>2021-10-09 16:22:42</time>
      </trkpt>
      <trkpt lat="40.28055" lon="-1.89145">
        <ele>1395.6</ele>
        <time>2021-10-09 16:22:43</time>
      </trkpt>
      <trkpt lat="40.2805" lon="-1.89151">
        <ele>1395.6</ele>
        <time>2021-10-09 16:22:44</time>
      </trkpt>
      <trkpt lat="40.28044" lon="-1.89156">
        <ele>1395.4</ele>
        <time>2021-10-09 16:22:45</time>
      </trkpt>
      <trkpt lat="40.28038" lon="-1.89162">
        <ele>1395.2</ele>
        <time>2021-10-09 16:22:46</time>
      </trkpt>
      <trkpt lat="40.28033" lon="-1.89168">
        <ele>1395</ele>
        <time>2021-10-09 16:22:47</time>
      </trkpt>
      <trkpt lat="40.28028" lon="-1.89174">
        <ele>1394.6</ele>
        <time>2021-10-09 16:22:48</time>
      </trkpt>
      <trkpt lat="40.28023" lon="-1.89181">
        <ele>1394.4</ele>
        <time>2021-10-09 16:22:49</time>
      </trkpt>
      <trkpt lat="40.28017" lon="-1.89188">
        <ele>1394.2</ele>
        <time>2021-10-09 16:22:50</time>
      </trkpt>
      <trkpt lat="40.28012" lon="-1.89194">
        <ele>1394.2</ele>
        <time>2021-10-09 16:22:51</time>
      </trkpt>
      <trkpt lat="40.28005" lon="-1.892">
        <ele>1394</ele>
        <time>2021-10-09 16:22:52</time>
      </trkpt>
      <trkpt lat="40.27998" lon="-1.89205">
        <ele>1394</ele>
        <time>2021-10-09 16:22:53</time>
      </trkpt>
      <trkpt lat="40.27992" lon="-1.89211">
        <ele>1393.6</ele>
        <time>2021-10-09 16:22:54</time>
      </trkpt>
      <trkpt lat="40.27985" lon="-1.89216">
        <ele>1393.6</ele>
        <time>2021-10-09 16:22:55</time>
      </trkpt>
      <trkpt lat="40.27978" lon="-1.89217">
        <ele>1393.2</ele>
        <time>2021-10-09 16:22:56</time>
      </trkpt>
      <trkpt lat="40.27971" lon="-1.89217">
        <ele>1393.2</ele>
        <time>2021-10-09 16:22:57</time>
      </trkpt>
      <trkpt lat="40.27964" lon="-1.89217">
        <ele>1392.8</ele>
        <time>2021-10-09 16:22:58</time>
      </trkpt>
      <trkpt lat="40.27957" lon="-1.89214">
        <ele>1392.8</ele>
        <time>2021-10-09 16:22:59</time>
      </trkpt>
      <trkpt lat="40.2795" lon="-1.89213">
        <ele>1392.8</ele>
        <time>2021-10-09 16:23:00</time>
      </trkpt>
      <trkpt lat="40.27943" lon="-1.8921">
        <ele>1392.8</ele>
        <time>2021-10-09 16:23:01</time>
      </trkpt>
      <trkpt lat="40.27936" lon="-1.89207">
        <ele>1392.8</ele>
        <time>2021-10-09 16:23:02</time>
      </trkpt>
      <trkpt lat="40.27928" lon="-1.89205">
        <ele>1392.8</ele>
        <time>2021-10-09 16:23:03</time>
      </trkpt>
      <trkpt lat="40.2792" lon="-1.89202">
        <ele>1392.4</ele>
        <time>2021-10-09 16:23:04</time>
      </trkpt>
      <trkpt lat="40.27913" lon="-1.89199">
        <ele>1392.4</ele>
        <time>2021-10-09 16:23:05</time>
      </trkpt>
      <trkpt lat="40.27906" lon="-1.89195">
        <ele>1392.4</ele>
        <time>2021-10-09 16:23:06</time>
      </trkpt>
      <trkpt lat="40.27898" lon="-1.89192">
        <ele>1392</ele>
        <time>2021-10-09 16:23:07</time>
      </trkpt>
      <trkpt lat="40.27891" lon="-1.89189">
        <ele>1392</ele>
        <time>2021-10-09 16:23:08</time>
      </trkpt>
      <trkpt lat="40.27884" lon="-1.89185">
        <ele>1392.4</ele>
        <time>2021-10-09 16:23:09</time>
      </trkpt>
      <trkpt lat="40.27877" lon="-1.89183">
        <ele>1392</ele>
        <time>2021-10-09 16:23:10</time>
      </trkpt>
      <trkpt lat="40.2787" lon="-1.8918">
        <ele>1392</ele>
        <time>2021-10-09 16:23:11</time>
      </trkpt>
      <trkpt lat="40.27864" lon="-1.89177">
        <ele>1392</ele>
        <time>2021-10-09 16:23:12</time>
      </trkpt>
      <trkpt lat="40.27858" lon="-1.89175">
        <ele>1391.8</ele>
        <time>2021-10-09 16:23:13</time>
      </trkpt>
      <trkpt lat="40.27851" lon="-1.89172">
        <ele>1391.8</ele>
        <time>2021-10-09 16:23:14</time>
      </trkpt>
      <trkpt lat="40.27845" lon="-1.89169">
        <ele>1391.8</ele>
        <time>2021-10-09 16:23:15</time>
      </trkpt>
      <trkpt lat="40.27838" lon="-1.89167">
        <ele>1391.8</ele>
        <time>2021-10-09 16:23:16</time>
      </trkpt>
      <trkpt lat="40.27832" lon="-1.89165">
        <ele>1391.4</ele>
        <time>2021-10-09 16:23:17</time>
      </trkpt>
      <trkpt lat="40.27826" lon="-1.89162">
        <ele>1391.4</ele>
        <time>2021-10-09 16:23:18</time>
      </trkpt>
      <trkpt lat="40.2782" lon="-1.8916">
        <ele>1391.4</ele>
        <time>2021-10-09 16:23:19</time>
      </trkpt>
      <trkpt lat="40.27815" lon="-1.89158">
        <ele>1391.4</ele>
        <time>2021-10-09 16:23:20</time>
      </trkpt>
      <trkpt lat="40.2781" lon="-1.89156">
        <ele>1391.4</ele>
        <time>2021-10-09 16:23:21</time>
      </trkpt>
      <trkpt lat="40.27805" lon="-1.89154">
        <ele>1391.4</ele>
        <time>2021-10-09 16:23:22</time>
      </trkpt>
      <trkpt lat="40.278" lon="-1.89153">
        <ele>1391.8</ele>
        <time>2021-10-09 16:23:23</time>
      </trkpt>
      <trkpt lat="40.27795" lon="-1.8915">
        <ele>1391.8</ele>
        <time>2021-10-09 16:23:24</time>
      </trkpt>
      <trkpt lat="40.2779" lon="-1.89149">
        <ele>1392</ele>
        <time>2021-10-09 16:23:25</time>
      </trkpt>
      <trkpt lat="40.27785" lon="-1.89147">
        <ele>1392</ele>
        <time>2021-10-09 16:23:26</time>
      </trkpt>
      <trkpt lat="40.27781" lon="-1.89145">
        <ele>1392.4</ele>
        <time>2021-10-09 16:23:27</time>
      </trkpt>
      <trkpt lat="40.27776" lon="-1.89144">
        <ele>1392.6</ele>
        <time>2021-10-09 16:23:28</time>
      </trkpt>
      <trkpt lat="40.27771" lon="-1.89142">
        <ele>1392.6</ele>
        <time>2021-10-09 16:23:29</time>
      </trkpt>
      <trkpt lat="40.27767" lon="-1.8914">
        <ele>1393</ele>
        <time>2021-10-09 16:23:30</time>
      </trkpt>
      <trkpt lat="40.27762" lon="-1.89139">
        <ele>1393</ele>
        <time>2021-10-09 16:23:31</time>
      </trkpt>
      <trkpt lat="40.27757" lon="-1.89137">
        <ele>1393.2</ele>
        <time>2021-10-09 16:23:32</time>
      </trkpt>
      <trkpt lat="40.27752" lon="-1.89135">
        <ele>1393.2</ele>
        <time>2021-10-09 16:23:33</time>
      </trkpt>
      <trkpt lat="40.27748" lon="-1.89133">
        <ele>1393.6</ele>
        <time>2021-10-09 16:23:34</time>
      </trkpt>
      <trkpt lat="40.27743" lon="-1.89131">
        <ele>1393.8</ele>
        <time>2021-10-09 16:23:35</time>
      </trkpt>
      <trkpt lat="40.27738" lon="-1.8913">
        <ele>1393.8</ele>
        <time>2021-10-09 16:23:36</time>
      </trkpt>
      <trkpt lat="40.27733" lon="-1.89127">
        <ele>1394.2</ele>
        <time>2021-10-09 16:23:37</time>
      </trkpt>
      <trkpt lat="40.27729" lon="-1.89127">
        <ele>1394.2</ele>
        <time>2021-10-09 16:23:38</time>
      </trkpt>
      <trkpt lat="40.27724" lon="-1.89125">
        <ele>1394.2</ele>
        <time>2021-10-09 16:23:39</time>
      </trkpt>
      <trkpt lat="40.2772" lon="-1.89124">
        <ele>1394.4</ele>
        <time>2021-10-09 16:23:40</time>
      </trkpt>
      <trkpt lat="40.27715" lon="-1.89122">
        <ele>1394.4</ele>
        <time>2021-10-09 16:23:41</time>
      </trkpt>
      <trkpt lat="40.27711" lon="-1.89121">
        <ele>1394.8</ele>
        <time>2021-10-09 16:23:42</time>
      </trkpt>
      <trkpt lat="40.27707" lon="-1.89119">
        <ele>1394.8</ele>
        <time>2021-10-09 16:23:43</time>
      </trkpt>
      <trkpt lat="40.27702" lon="-1.89117">
        <ele>1395</ele>
        <time>2021-10-09 16:23:44</time>
      </trkpt>
      <trkpt lat="40.27697" lon="-1.89117">
        <ele>1395</ele>
        <time>2021-10-09 16:23:45</time>
      </trkpt>
      <trkpt lat="40.27693" lon="-1.89116">
        <ele>1395.2</ele>
        <time>2021-10-09 16:23:46</time>
      </trkpt>
      <trkpt lat="40.27687" lon="-1.89115">
        <ele>1395.2</ele>
        <time>2021-10-09 16:23:47</time>
      </trkpt>
      <trkpt lat="40.27681" lon="-1.89113">
        <ele>1395.2</ele>
        <time>2021-10-09 16:23:48</time>
      </trkpt>
      <trkpt lat="40.27676" lon="-1.89112">
        <ele>1395.2</ele>
        <time>2021-10-09 16:23:49</time>
      </trkpt>
      <trkpt lat="40.2767" lon="-1.8911">
        <ele>1395.4</ele>
        <time>2021-10-09 16:23:50</time>
      </trkpt>
      <trkpt lat="40.27664" lon="-1.89109">
        <ele>1395.4</ele>
        <time>2021-10-09 16:23:51</time>
      </trkpt>
      <trkpt lat="40.27658" lon="-1.89108">
        <ele>1395.4</ele>
        <time>2021-10-09 16:23:52</time>
      </trkpt>
      <trkpt lat="40.27652" lon="-1.89106">
        <ele>1395.2</ele>
        <time>2021-10-09 16:23:53</time>
      </trkpt>
      <trkpt lat="40.27645" lon="-1.89104">
        <ele>1395.2</ele>
        <time>2021-10-09 16:23:54</time>
      </trkpt>
      <trkpt lat="40.27638" lon="-1.89102">
        <ele>1395</ele>
        <time>2021-10-09 16:23:55</time>
      </trkpt>
      <trkpt lat="40.27631" lon="-1.89101">
        <ele>1395</ele>
        <time>2021-10-09 16:23:56</time>
      </trkpt>
      <trkpt lat="40.27625" lon="-1.891">
        <ele>1394.6</ele>
        <time>2021-10-09 16:23:57</time>
      </trkpt>
      <trkpt lat="40.27618" lon="-1.89098">
        <ele>1394.4</ele>
        <time>2021-10-09 16:23:58</time>
      </trkpt>
      <trkpt lat="40.2761" lon="-1.89096">
        <ele>1394</ele>
        <time>2021-10-09 16:23:59</time>
      </trkpt>
      <trkpt lat="40.27603" lon="-1.89094">
        <ele>1394</ele>
        <time>2021-10-09 16:24:00</time>
      </trkpt>
      <trkpt lat="40.27596" lon="-1.89093">
        <ele>1393.6</ele>
        <time>2021-10-09 16:24:01</time>
      </trkpt>
      <trkpt lat="40.27589" lon="-1.89092">
        <ele>1393</ele>
        <time>2021-10-09 16:24:02</time>
      </trkpt>
      <trkpt lat="40.27582" lon="-1.8909">
        <ele>1392.8</ele>
        <time>2021-10-09 16:24:03</time>
      </trkpt>
      <trkpt lat="40.27574" lon="-1.89089">
        <ele>1392.8</ele>
        <time>2021-10-09 16:24:04</time>
      </trkpt>
      <trkpt lat="40.27567" lon="-1.89087">
        <ele>1392.2</ele>
        <time>2021-10-09 16:24:05</time>
      </trkpt>
      <trkpt lat="40.2756" lon="-1.89086">
        <ele>1392</ele>
        <time>2021-10-09 16:24:06</time>
      </trkpt>
      <trkpt lat="40.27553" lon="-1.89084">
        <ele>1391.6</ele>
        <time>2021-10-09 16:24:07</time>
      </trkpt>
      <trkpt lat="40.27545" lon="-1.89082">
        <ele>1391.4</ele>
        <time>2021-10-09 16:24:08</time>
      </trkpt>
      <trkpt lat="40.27538" lon="-1.89081">
        <ele>1391</ele>
        <time>2021-10-09 16:24:09</time>
      </trkpt>
      <trkpt lat="40.27532" lon="-1.8908">
        <ele>1390.8</ele>
        <time>2021-10-09 16:24:10</time>
      </trkpt>
      <trkpt lat="40.27525" lon="-1.89079">
        <ele>1390.4</ele>
        <time>2021-10-09 16:24:11</time>
      </trkpt>
      <trkpt lat="40.27517" lon="-1.89078">
        <ele>1390.2</ele>
        <time>2021-10-09 16:24:12</time>
      </trkpt>
      <trkpt lat="40.2751" lon="-1.89076">
        <ele>1390.2</ele>
        <time>2021-10-09 16:24:13</time>
      </trkpt>
      <trkpt lat="40.2751" lon="-1.89076">
        <ele>1389.6</ele>
        <time>2021-10-09 16:24:14</time>
      </trkpt>
      <trkpt lat="40.27502" lon="-1.89074">
        <ele>1389.4</ele>
        <time>2021-10-09 16:24:15</time>
      </trkpt>
      <trkpt lat="40.27495" lon="-1.89073">
        <ele>1389.4</ele>
        <time>2021-10-09 16:24:16</time>
      </trkpt>
      <trkpt lat="40.27489" lon="-1.89071">
        <ele>1389</ele>
        <time>2021-10-09 16:24:17</time>
      </trkpt>
      <trkpt lat="40.27482" lon="-1.89071">
        <ele>1389</ele>
        <time>2021-10-09 16:24:18</time>
      </trkpt>
      <trkpt lat="40.27475" lon="-1.89069">
        <ele>1389</ele>
        <time>2021-10-09 16:24:19</time>
      </trkpt>
      <trkpt lat="40.27467" lon="-1.89068">
        <ele>1388.6</ele>
        <time>2021-10-09 16:24:20</time>
      </trkpt>
      <trkpt lat="40.2746" lon="-1.89067">
        <ele>1388.6</ele>
        <time>2021-10-09 16:24:21</time>
      </trkpt>
      <trkpt lat="40.27452" lon="-1.89065">
        <ele>1388.2</ele>
        <time>2021-10-09 16:24:22</time>
      </trkpt>
      <trkpt lat="40.27445" lon="-1.89064">
        <ele>1388</ele>
        <time>2021-10-09 16:24:23</time>
      </trkpt>
      <trkpt lat="40.27437" lon="-1.89062">
        <ele>1388</ele>
        <time>2021-10-09 16:24:24</time>
      </trkpt>
      <trkpt lat="40.2743" lon="-1.8906">
        <ele>1387.6</ele>
        <time>2021-10-09 16:24:25</time>
      </trkpt>
      <trkpt lat="40.27422" lon="-1.89059">
        <ele>1387.6</ele>
        <time>2021-10-09 16:24:26</time>
      </trkpt>
      <trkpt lat="40.27413" lon="-1.89058">
        <ele>1386.8</ele>
        <time>2021-10-09 16:24:27</time>
      </trkpt>
      <trkpt lat="40.27404" lon="-1.89055">
        <ele>1386.4</ele>
        <time>2021-10-09 16:24:28</time>
      </trkpt>
      <trkpt lat="40.27395" lon="-1.89054">
        <ele>1385.8</ele>
        <time>2021-10-09 16:24:29</time>
      </trkpt>
      <trkpt lat="40.27387" lon="-1.89052">
        <ele>1385.8</ele>
        <time>2021-10-09 16:24:30</time>
      </trkpt>
      <trkpt lat="40.27379" lon="-1.89051">
        <ele>1385.4</ele>
        <time>2021-10-09 16:24:31</time>
      </trkpt>
      <trkpt lat="40.27371" lon="-1.89049">
        <ele>1385.4</ele>
        <time>2021-10-09 16:24:32</time>
      </trkpt>
      <trkpt lat="40.27363" lon="-1.89047">
        <ele>1385.4</ele>
        <time>2021-10-09 16:24:33</time>
      </trkpt>
      <trkpt lat="40.27356" lon="-1.89045">
        <ele>1385.4</ele>
        <time>2021-10-09 16:24:34</time>
      </trkpt>
      <trkpt lat="40.27348" lon="-1.89042">
        <ele>1385.4</ele>
        <time>2021-10-09 16:24:35</time>
      </trkpt>
      <trkpt lat="40.27341" lon="-1.89039">
        <ele>1385.4</ele>
        <time>2021-10-09 16:24:36</time>
      </trkpt>
      <trkpt lat="40.27334" lon="-1.89036">
        <ele>1385.4</ele>
        <time>2021-10-09 16:24:37</time>
      </trkpt>
      <trkpt lat="40.27327" lon="-1.89032">
        <ele>1385.4</ele>
        <time>2021-10-09 16:24:38</time>
      </trkpt>
      <trkpt lat="40.27319" lon="-1.89028">
        <ele>1385.2</ele>
        <time>2021-10-09 16:24:39</time>
      </trkpt>
      <trkpt lat="40.27312" lon="-1.89025">
        <ele>1385.2</ele>
        <time>2021-10-09 16:24:40</time>
      </trkpt>
      <trkpt lat="40.27305" lon="-1.8902">
        <ele>1385.2</ele>
        <time>2021-10-09 16:24:41</time>
      </trkpt>
      <trkpt lat="40.27298" lon="-1.89016">
        <ele>1385.2</ele>
        <time>2021-10-09 16:24:42</time>
      </trkpt>
      <trkpt lat="40.27291" lon="-1.89012">
        <ele>1385.2</ele>
        <time>2021-10-09 16:24:43</time>
      </trkpt>
      <trkpt lat="40.27284" lon="-1.89008">
        <ele>1385.2</ele>
        <time>2021-10-09 16:24:44</time>
      </trkpt>
      <trkpt lat="40.27276" lon="-1.89003">
        <ele>1385</ele>
        <time>2021-10-09 16:24:45</time>
      </trkpt>
      <trkpt lat="40.27269" lon="-1.88998">
        <ele>1384.6</ele>
        <time>2021-10-09 16:24:46</time>
      </trkpt>
      <trkpt lat="40.27262" lon="-1.88994">
        <ele>1384.6</ele>
        <time>2021-10-09 16:24:47</time>
      </trkpt>
      <trkpt lat="40.27254" lon="-1.8899">
        <ele>1384.6</ele>
        <time>2021-10-09 16:24:48</time>
      </trkpt>
      <trkpt lat="40.27246" lon="-1.88986">
        <ele>1384.2</ele>
        <time>2021-10-09 16:24:49</time>
      </trkpt>
      <trkpt lat="40.27239" lon="-1.88981">
        <ele>1384.2</ele>
        <time>2021-10-09 16:24:50</time>
      </trkpt>
      <trkpt lat="40.27231" lon="-1.88977">
        <ele>1384</ele>
        <time>2021-10-09 16:24:51</time>
      </trkpt>
      <trkpt lat="40.27223" lon="-1.88974">
        <ele>1384</ele>
        <time>2021-10-09 16:24:52</time>
      </trkpt>
      <trkpt lat="40.27216" lon="-1.88971">
        <ele>1383.8</ele>
        <time>2021-10-09 16:24:53</time>
      </trkpt>
      <trkpt lat="40.27208" lon="-1.8897">
        <ele>1383.8</ele>
        <time>2021-10-09 16:24:54</time>
      </trkpt>
      <trkpt lat="40.27199" lon="-1.88969">
        <ele>1383.4</ele>
        <time>2021-10-09 16:24:55</time>
      </trkpt>
      <trkpt lat="40.27191" lon="-1.88969">
        <ele>1383.2</ele>
        <time>2021-10-09 16:24:56</time>
      </trkpt>
      <trkpt lat="40.27183" lon="-1.8897">
        <ele>1382.8</ele>
        <time>2021-10-09 16:24:57</time>
      </trkpt>
      <trkpt lat="40.27175" lon="-1.88972">
        <ele>1382.6</ele>
        <time>2021-10-09 16:24:58</time>
      </trkpt>
      <trkpt lat="40.27168" lon="-1.88973">
        <ele>1382.6</ele>
        <time>2021-10-09 16:24:59</time>
      </trkpt>
      <trkpt lat="40.2716" lon="-1.88974">
        <ele>1382.2</ele>
        <time>2021-10-09 16:25:00</time>
      </trkpt>
      <trkpt lat="40.27152" lon="-1.88976">
        <ele>1381.8</ele>
        <time>2021-10-09 16:25:01</time>
      </trkpt>
      <trkpt lat="40.27144" lon="-1.88977">
        <ele>1381.8</ele>
        <time>2021-10-09 16:25:02</time>
      </trkpt>
      <trkpt lat="40.27136" lon="-1.88979">
        <ele>1381.6</ele>
        <time>2021-10-09 16:25:03</time>
      </trkpt>
      <trkpt lat="40.27128" lon="-1.8898">
        <ele>1381.2</ele>
        <time>2021-10-09 16:25:04</time>
      </trkpt>
      <trkpt lat="40.27119" lon="-1.88981">
        <ele>1381</ele>
        <time>2021-10-09 16:25:05</time>
      </trkpt>
      <trkpt lat="40.2711" lon="-1.88983">
        <ele>1380.6</ele>
        <time>2021-10-09 16:25:06</time>
      </trkpt>
      <trkpt lat="40.27102" lon="-1.88985">
        <ele>1380.6</ele>
        <time>2021-10-09 16:25:07</time>
      </trkpt>
      <trkpt lat="40.27093" lon="-1.88986">
        <ele>1380.4</ele>
        <time>2021-10-09 16:25:08</time>
      </trkpt>
      <trkpt lat="40.27084" lon="-1.88987">
        <ele>1380</ele>
        <time>2021-10-09 16:25:09</time>
      </trkpt>
      <trkpt lat="40.27076" lon="-1.88989">
        <ele>1379.8</ele>
        <time>2021-10-09 16:25:10</time>
      </trkpt>
      <trkpt lat="40.27068" lon="-1.8899">
        <ele>1379.8</ele>
        <time>2021-10-09 16:25:11</time>
      </trkpt>
      <trkpt lat="40.2706" lon="-1.88992">
        <ele>1379.8</ele>
        <time>2021-10-09 16:25:12</time>
      </trkpt>
      <trkpt lat="40.27052" lon="-1.88993">
        <ele>1379.4</ele>
        <time>2021-10-09 16:25:13</time>
      </trkpt>
      <trkpt lat="40.27044" lon="-1.88994">
        <ele>1379.4</ele>
        <time>2021-10-09 16:25:14</time>
      </trkpt>
      <trkpt lat="40.27038" lon="-1.88996">
        <ele>1379.4</ele>
        <time>2021-10-09 16:25:15</time>
      </trkpt>
      <trkpt lat="40.27031" lon="-1.88997">
        <ele>1379.4</ele>
        <time>2021-10-09 16:25:16</time>
      </trkpt>
      <trkpt lat="40.27024" lon="-1.88998">
        <ele>1379.6</ele>
        <time>2021-10-09 16:25:17</time>
      </trkpt>
      <trkpt lat="40.27017" lon="-1.88999">
        <ele>1379.6</ele>
        <time>2021-10-09 16:25:18</time>
      </trkpt>
      <trkpt lat="40.2701" lon="-1.88999">
        <ele>1379.6</ele>
        <time>2021-10-09 16:25:19</time>
      </trkpt>
      <trkpt lat="40.27004" lon="-1.88998">
        <ele>1379.8</ele>
        <time>2021-10-09 16:25:20</time>
      </trkpt>
      <trkpt lat="40.26997" lon="-1.88996">
        <ele>1379.8</ele>
        <time>2021-10-09 16:25:21</time>
      </trkpt>
      <trkpt lat="40.26991" lon="-1.88994">
        <ele>1380</ele>
        <time>2021-10-09 16:25:22</time>
      </trkpt>
      <trkpt lat="40.26984" lon="-1.88992">
        <ele>1380</ele>
        <time>2021-10-09 16:25:23</time>
      </trkpt>
      <trkpt lat="40.26977" lon="-1.8899">
        <ele>1380</ele>
        <time>2021-10-09 16:25:24</time>
      </trkpt>
      <trkpt lat="40.2697" lon="-1.88987">
        <ele>1380</ele>
        <time>2021-10-09 16:25:25</time>
      </trkpt>
      <trkpt lat="40.26964" lon="-1.88983">
        <ele>1380</ele>
        <time>2021-10-09 16:25:26</time>
      </trkpt>
      <trkpt lat="40.26957" lon="-1.8898">
        <ele>1380</ele>
        <time>2021-10-09 16:25:27</time>
      </trkpt>
      <trkpt lat="40.26951" lon="-1.88977">
        <ele>1380</ele>
        <time>2021-10-09 16:25:28</time>
      </trkpt>
      <trkpt lat="40.26944" lon="-1.88974">
        <ele>1379.8</ele>
        <time>2021-10-09 16:25:29</time>
      </trkpt>
      <trkpt lat="40.26938" lon="-1.88971">
        <ele>1379.6</ele>
        <time>2021-10-09 16:25:30</time>
      </trkpt>
      <trkpt lat="40.2693" lon="-1.88968">
        <ele>1379.6</ele>
        <time>2021-10-09 16:25:31</time>
      </trkpt>
      <trkpt lat="40.26924" lon="-1.88965">
        <ele>1379.6</ele>
        <time>2021-10-09 16:25:32</time>
      </trkpt>
      <trkpt lat="40.26917" lon="-1.88962">
        <ele>1379.6</ele>
        <time>2021-10-09 16:25:33</time>
      </trkpt>
      <trkpt lat="40.2691" lon="-1.88959">
        <ele>1379.2</ele>
        <time>2021-10-09 16:25:34</time>
      </trkpt>
      <trkpt lat="40.26903" lon="-1.88955">
        <ele>1379.2</ele>
        <time>2021-10-09 16:25:35</time>
      </trkpt>
      <trkpt lat="40.26897" lon="-1.88952">
        <ele>1379.2</ele>
        <time>2021-10-09 16:25:36</time>
      </trkpt>
      <trkpt lat="40.2689" lon="-1.88948">
        <ele>1379.2</ele>
        <time>2021-10-09 16:25:37</time>
      </trkpt>
      <trkpt lat="40.26884" lon="-1.88945">
        <ele>1379.2</ele>
        <time>2021-10-09 16:25:38</time>
      </trkpt>
      <trkpt lat="40.26877" lon="-1.88942">
        <ele>1378.8</ele>
        <time>2021-10-09 16:25:39</time>
      </trkpt>
      <trkpt lat="40.26871" lon="-1.88938">
        <ele>1378.8</ele>
        <time>2021-10-09 16:25:40</time>
      </trkpt>
      <trkpt lat="40.26865" lon="-1.88935">
        <ele>1378.8</ele>
        <time>2021-10-09 16:25:41</time>
      </trkpt>
      <trkpt lat="40.26858" lon="-1.88933">
        <ele>1378.8</ele>
        <time>2021-10-09 16:25:42</time>
      </trkpt>
      <trkpt lat="40.26852" lon="-1.8893">
        <ele>1378.8</ele>
        <time>2021-10-09 16:25:43</time>
      </trkpt>
      <trkpt lat="40.26845" lon="-1.88927">
        <ele>1378.8</ele>
        <time>2021-10-09 16:25:44</time>
      </trkpt>
      <trkpt lat="40.26839" lon="-1.88924">
        <ele>1378.6</ele>
        <time>2021-10-09 16:25:45</time>
      </trkpt>
      <trkpt lat="40.26833" lon="-1.8892">
        <ele>1378.6</ele>
        <time>2021-10-09 16:25:46</time>
      </trkpt>
      <trkpt lat="40.26826" lon="-1.88917">
        <ele>1378.6</ele>
        <time>2021-10-09 16:25:47</time>
      </trkpt>
      <trkpt lat="40.2682" lon="-1.88915">
        <ele>1378.6</ele>
        <time>2021-10-09 16:25:48</time>
      </trkpt>
      <trkpt lat="40.26814" lon="-1.88912">
        <ele>1378.2</ele>
        <time>2021-10-09 16:25:49</time>
      </trkpt>
      <trkpt lat="40.26807" lon="-1.88908">
        <ele>1378.2</ele>
        <time>2021-10-09 16:25:50</time>
      </trkpt>
      <trkpt lat="40.26802" lon="-1.88906">
        <ele>1378.2</ele>
        <time>2021-10-09 16:25:51</time>
      </trkpt>
      <trkpt lat="40.26796" lon="-1.88903">
        <ele>1378.2</ele>
        <time>2021-10-09 16:25:52</time>
      </trkpt>
      <trkpt lat="40.26791" lon="-1.889">
        <ele>1378.2</ele>
        <time>2021-10-09 16:25:53</time>
      </trkpt>
      <trkpt lat="40.26786" lon="-1.88899">
        <ele>1378.2</ele>
        <time>2021-10-09 16:25:54</time>
      </trkpt>
      <trkpt lat="40.26781" lon="-1.88896">
        <ele>1378.6</ele>
        <time>2021-10-09 16:25:55</time>
      </trkpt>
      <trkpt lat="40.26778" lon="-1.88893">
        <ele>1378.6</ele>
        <time>2021-10-09 16:25:56</time>
      </trkpt>
      <trkpt lat="40.26774" lon="-1.88891">
        <ele>1378.8</ele>
        <time>2021-10-09 16:25:57</time>
      </trkpt>
      <trkpt lat="40.2677" lon="-1.88889">
        <ele>1379</ele>
        <time>2021-10-09 16:25:58</time>
      </trkpt>
      <trkpt lat="40.26767" lon="-1.88886">
        <ele>1379</ele>
        <time>2021-10-09 16:25:59</time>
      </trkpt>
      <trkpt lat="40.26763" lon="-1.88884">
        <ele>1379.4</ele>
        <time>2021-10-09 16:26:00</time>
      </trkpt>
      <trkpt lat="40.2676" lon="-1.88882">
        <ele>1379.6</ele>
        <time>2021-10-09 16:26:01</time>
      </trkpt>
      <trkpt lat="40.26756" lon="-1.8888">
        <ele>1379.6</ele>
        <time>2021-10-09 16:26:02</time>
      </trkpt>
      <trkpt lat="40.26752" lon="-1.88878">
        <ele>1380</ele>
        <time>2021-10-09 16:26:03</time>
      </trkpt>
      <trkpt lat="40.26748" lon="-1.88876">
        <ele>1380.2</ele>
        <time>2021-10-09 16:26:04</time>
      </trkpt>
      <trkpt lat="40.26745" lon="-1.88873">
        <ele>1380.2</ele>
        <time>2021-10-09 16:26:05</time>
      </trkpt>
      <trkpt lat="40.26741" lon="-1.8887">
        <ele>1380.4</ele>
        <time>2021-10-09 16:26:06</time>
      </trkpt>
      <trkpt lat="40.26737" lon="-1.88868">
        <ele>1380.4</ele>
        <time>2021-10-09 16:26:07</time>
      </trkpt>
      <trkpt lat="40.26734" lon="-1.88866">
        <ele>1380.8</ele>
        <time>2021-10-09 16:26:08</time>
      </trkpt>
      <trkpt lat="40.26731" lon="-1.88864">
        <ele>1381</ele>
        <time>2021-10-09 16:26:09</time>
      </trkpt>
      <trkpt lat="40.26727" lon="-1.88861">
        <ele>1381</ele>
        <time>2021-10-09 16:26:10</time>
      </trkpt>
      <trkpt lat="40.26724" lon="-1.88859">
        <ele>1381</ele>
        <time>2021-10-09 16:26:11</time>
      </trkpt>
      <trkpt lat="40.2672" lon="-1.88856">
        <ele>1381.4</ele>
        <time>2021-10-09 16:26:12</time>
      </trkpt>
      <trkpt lat="40.26717" lon="-1.88854">
        <ele>1381.4</ele>
        <time>2021-10-09 16:26:13</time>
      </trkpt>
      <trkpt lat="40.26713" lon="-1.88851">
        <ele>1381.4</ele>
        <time>2021-10-09 16:26:14</time>
      </trkpt>
      <trkpt lat="40.2671" lon="-1.88849">
        <ele>1381.8</ele>
        <time>2021-10-09 16:26:15</time>
      </trkpt>
      <trkpt lat="40.26707" lon="-1.88847">
        <ele>1382</ele>
        <time>2021-10-09 16:26:16</time>
      </trkpt>
      <trkpt lat="40.26703" lon="-1.88846">
        <ele>1382</ele>
        <time>2021-10-09 16:26:17</time>
      </trkpt>
      <trkpt lat="40.26699" lon="-1.88844">
        <ele>1382.2</ele>
        <time>2021-10-09 16:26:18</time>
      </trkpt>
      <trkpt lat="40.26695" lon="-1.88843">
        <ele>1382.2</ele>
        <time>2021-10-09 16:26:19</time>
      </trkpt>
      <trkpt lat="40.26691" lon="-1.88842">
        <ele>1382.6</ele>
        <time>2021-10-09 16:26:20</time>
      </trkpt>
      <trkpt lat="40.26687" lon="-1.8884">
        <ele>1382.6</ele>
        <time>2021-10-09 16:26:21</time>
      </trkpt>
      <trkpt lat="40.26683" lon="-1.88839">
        <ele>1382.8</ele>
        <time>2021-10-09 16:26:22</time>
      </trkpt>
      <trkpt lat="40.26679" lon="-1.88838">
        <ele>1382.8</ele>
        <time>2021-10-09 16:26:23</time>
      </trkpt>
      <trkpt lat="40.26676" lon="-1.88838">
        <ele>1383.2</ele>
        <time>2021-10-09 16:26:24</time>
      </trkpt>
      <trkpt lat="40.26672" lon="-1.88837">
        <ele>1383.2</ele>
        <time>2021-10-09 16:26:25</time>
      </trkpt>
      <trkpt lat="40.26668" lon="-1.88836">
        <ele>1383.2</ele>
        <time>2021-10-09 16:26:26</time>
      </trkpt>
      <trkpt lat="40.26664" lon="-1.88836">
        <ele>1383.6</ele>
        <time>2021-10-09 16:26:27</time>
      </trkpt>
      <trkpt lat="40.2666" lon="-1.88836">
        <ele>1383.6</ele>
        <time>2021-10-09 16:26:28</time>
      </trkpt>
      <trkpt lat="40.26657" lon="-1.88835">
        <ele>1383.8</ele>
        <time>2021-10-09 16:26:29</time>
      </trkpt>
      <trkpt lat="40.26652" lon="-1.88835">
        <ele>1383.8</ele>
        <time>2021-10-09 16:26:30</time>
      </trkpt>
      <trkpt lat="40.26648" lon="-1.88835">
        <ele>1384.2</ele>
        <time>2021-10-09 16:26:31</time>
      </trkpt>
      <trkpt lat="40.26645" lon="-1.88835">
        <ele>1384.2</ele>
        <time>2021-10-09 16:26:32</time>
      </trkpt>
      <trkpt lat="40.26641" lon="-1.88835">
        <ele>1384.4</ele>
        <time>2021-10-09 16:26:33</time>
      </trkpt>
      <trkpt lat="40.26637" lon="-1.88835">
        <ele>1384.4</ele>
        <time>2021-10-09 16:26:34</time>
      </trkpt>
      <trkpt lat="40.26634" lon="-1.88835">
        <ele>1384.8</ele>
        <time>2021-10-09 16:26:35</time>
      </trkpt>
      <trkpt lat="40.26631" lon="-1.88834">
        <ele>1384.8</ele>
        <time>2021-10-09 16:26:36</time>
      </trkpt>
      <trkpt lat="40.26627" lon="-1.88833">
        <ele>1384.8</ele>
        <time>2021-10-09 16:26:37</time>
      </trkpt>
      <trkpt lat="40.26624" lon="-1.88831">
        <ele>1385</ele>
        <time>2021-10-09 16:26:38</time>
      </trkpt>
      <trkpt lat="40.2662" lon="-1.8883">
        <ele>1385</ele>
        <time>2021-10-09 16:26:39</time>
      </trkpt>
      <trkpt lat="40.26616" lon="-1.88829">
        <ele>1385.2</ele>
        <time>2021-10-09 16:26:40</time>
      </trkpt>
      <trkpt lat="40.26612" lon="-1.88827">
        <ele>1385.2</ele>
        <time>2021-10-09 16:26:41</time>
      </trkpt>
      <trkpt lat="40.26607" lon="-1.88826">
        <ele>1385.2</ele>
        <time>2021-10-09 16:26:42</time>
      </trkpt>
      <trkpt lat="40.26603" lon="-1.88825">
        <ele>1385.4</ele>
        <time>2021-10-09 16:26:43</time>
      </trkpt>
      <trkpt lat="40.26598" lon="-1.88823">
        <ele>1385.4</ele>
        <time>2021-10-09 16:26:44</time>
      </trkpt>
      <trkpt lat="40.26594" lon="-1.88821">
        <ele>1385.4</ele>
        <time>2021-10-09 16:26:45</time>
      </trkpt>
      <trkpt lat="40.2659" lon="-1.88819">
        <ele>1385.4</ele>
        <time>2021-10-09 16:26:46</time>
      </trkpt>
      <trkpt lat="40.26586" lon="-1.88817">
        <ele>1385.4</ele>
        <time>2021-10-09 16:26:47</time>
      </trkpt>
      <trkpt lat="40.26582" lon="-1.88815">
        <ele>1385.4</ele>
        <time>2021-10-09 16:26:48</time>
      </trkpt>
      <trkpt lat="40.26577" lon="-1.88813">
        <ele>1385.4</ele>
        <time>2021-10-09 16:26:49</time>
      </trkpt>
      <trkpt lat="40.26573" lon="-1.8881">
        <ele>1385.4</ele>
        <time>2021-10-09 16:26:50</time>
      </trkpt>
      <trkpt lat="40.26569" lon="-1.88808">
        <ele>1385.6</ele>
        <time>2021-10-09 16:26:51</time>
      </trkpt>
      <trkpt lat="40.26564" lon="-1.88807">
        <ele>1385.6</ele>
        <time>2021-10-09 16:26:52</time>
      </trkpt>
      <trkpt lat="40.2656" lon="-1.88805">
        <ele>1385.6</ele>
        <time>2021-10-09 16:26:53</time>
      </trkpt>
      <trkpt lat="40.26556" lon="-1.88803">
        <ele>1386</ele>
        <time>2021-10-09 16:26:54</time>
      </trkpt>
      <trkpt lat="40.26553" lon="-1.88802">
        <ele>1386</ele>
        <time>2021-10-09 16:26:55</time>
      </trkpt>
      <trkpt lat="40.26548" lon="-1.88801">
        <ele>1386</ele>
        <time>2021-10-09 16:26:56</time>
      </trkpt>
      <trkpt lat="40.26543" lon="-1.88801">
        <ele>1386.2</ele>
        <time>2021-10-09 16:26:57</time>
      </trkpt>
      <trkpt lat="40.26539" lon="-1.88801">
        <ele>1386.2</ele>
        <time>2021-10-09 16:26:58</time>
      </trkpt>
      <trkpt lat="40.26534" lon="-1.88802">
        <ele>1386.2</ele>
        <time>2021-10-09 16:26:59</time>
      </trkpt>
      <trkpt lat="40.26529" lon="-1.88803">
        <ele>1386.2</ele>
        <time>2021-10-09 16:27:00</time>
      </trkpt>
      <trkpt lat="40.26525" lon="-1.88804">
        <ele>1386.2</ele>
        <time>2021-10-09 16:27:01</time>
      </trkpt>
      <trkpt lat="40.26521" lon="-1.88804">
        <ele>1386.2</ele>
        <time>2021-10-09 16:27:02</time>
      </trkpt>
      <trkpt lat="40.26517" lon="-1.88806">
        <ele>1386.6</ele>
        <time>2021-10-09 16:27:03</time>
      </trkpt>
      <trkpt lat="40.26514" lon="-1.88807">
        <ele>1386.6</ele>
        <time>2021-10-09 16:27:04</time>
      </trkpt>
      <trkpt lat="40.2651" lon="-1.88808">
        <ele>1386.6</ele>
        <time>2021-10-09 16:27:05</time>
      </trkpt>
      <trkpt lat="40.26505" lon="-1.88809">
        <ele>1386.8</ele>
        <time>2021-10-09 16:27:06</time>
      </trkpt>
      <trkpt lat="40.26501" lon="-1.8881">
        <ele>1386.8</ele>
        <time>2021-10-09 16:27:07</time>
      </trkpt>
      <trkpt lat="40.26497" lon="-1.88811">
        <ele>1386.8</ele>
        <time>2021-10-09 16:27:08</time>
      </trkpt>
      <trkpt lat="40.26493" lon="-1.88812">
        <ele>1386.8</ele>
        <time>2021-10-09 16:27:09</time>
      </trkpt>
      <trkpt lat="40.26489" lon="-1.88813">
        <ele>1386.8</ele>
        <time>2021-10-09 16:27:10</time>
      </trkpt>
      <trkpt lat="40.26485" lon="-1.88814">
        <ele>1387</ele>
        <time>2021-10-09 16:27:11</time>
      </trkpt>
      <trkpt lat="40.26481" lon="-1.88816">
        <ele>1387</ele>
        <time>2021-10-09 16:27:12</time>
      </trkpt>
      <trkpt lat="40.26477" lon="-1.88817">
        <ele>1387.4</ele>
        <time>2021-10-09 16:27:13</time>
      </trkpt>
      <trkpt lat="40.26472" lon="-1.88818">
        <ele>1387.4</ele>
        <time>2021-10-09 16:27:14</time>
      </trkpt>
      <trkpt lat="40.26468" lon="-1.8882">
        <ele>1387.4</ele>
        <time>2021-10-09 16:27:15</time>
      </trkpt>
      <trkpt lat="40.26464" lon="-1.8882">
        <ele>1387.4</ele>
        <time>2021-10-09 16:27:16</time>
      </trkpt>
      <trkpt lat="40.2646" lon="-1.88822">
        <ele>1387.4</ele>
        <time>2021-10-09 16:27:17</time>
      </trkpt>
      <trkpt lat="40.26456" lon="-1.88823">
        <ele>1387.4</ele>
        <time>2021-10-09 16:27:18</time>
      </trkpt>
      <trkpt lat="40.26452" lon="-1.88824">
        <ele>1387.4</ele>
        <time>2021-10-09 16:27:19</time>
      </trkpt>
      <trkpt lat="40.26449" lon="-1.88825">
        <ele>1387.6</ele>
        <time>2021-10-09 16:27:20</time>
      </trkpt>
      <trkpt lat="40.26446" lon="-1.88826">
        <ele>1387.6</ele>
        <time>2021-10-09 16:27:21</time>
      </trkpt>
      <trkpt lat="40.26443" lon="-1.88827">
        <ele>1387.8</ele>
        <time>2021-10-09 16:27:22</time>
      </trkpt>
      <trkpt lat="40.26441" lon="-1.88827">
        <ele>1387.8</ele>
        <time>2021-10-09 16:27:23</time>
      </trkpt>
      <trkpt lat="40.26439" lon="-1.88828">
        <ele>1388.2</ele>
        <time>2021-10-09 16:27:24</time>
      </trkpt>
      <trkpt lat="40.26436" lon="-1.88829">
        <ele>1388.2</ele>
        <time>2021-10-09 16:27:25</time>
      </trkpt>
      <trkpt lat="40.26433" lon="-1.8883">
        <ele>1388.4</ele>
        <time>2021-10-09 16:27:26</time>
      </trkpt>
      <trkpt lat="40.26429" lon="-1.88831">
        <ele>1388.4</ele>
        <time>2021-10-09 16:27:27</time>
      </trkpt>
      <trkpt lat="40.26426" lon="-1.88831">
        <ele>1388.4</ele>
        <time>2021-10-09 16:27:28</time>
      </trkpt>
      <trkpt lat="40.26422" lon="-1.88832">
        <ele>1388.4</ele>
        <time>2021-10-09 16:27:29</time>
      </trkpt>
      <trkpt lat="40.26419" lon="-1.88833">
        <ele>1388.4</ele>
        <time>2021-10-09 16:27:30</time>
      </trkpt>
      <trkpt lat="40.26415" lon="-1.88834">
        <ele>1388.4</ele>
        <time>2021-10-09 16:27:31</time>
      </trkpt>
      <trkpt lat="40.26412" lon="-1.88834">
        <ele>1388.4</ele>
        <time>2021-10-09 16:27:32</time>
      </trkpt>
      <trkpt lat="40.26408" lon="-1.88835">
        <ele>1388.4</ele>
        <time>2021-10-09 16:27:33</time>
      </trkpt>
      <trkpt lat="40.26404" lon="-1.88836">
        <ele>1388.4</ele>
        <time>2021-10-09 16:27:34</time>
      </trkpt>
      <trkpt lat="40.26401" lon="-1.88837">
        <ele>1388.4</ele>
        <time>2021-10-09 16:27:35</time>
      </trkpt>
      <trkpt lat="40.26397" lon="-1.88838">
        <ele>1388.4</ele>
        <time>2021-10-09 16:27:36</time>
      </trkpt>
      <trkpt lat="40.26394" lon="-1.8884">
        <ele>1388.4</ele>
        <time>2021-10-09 16:27:37</time>
      </trkpt>
      <trkpt lat="40.2639" lon="-1.88843">
        <ele>1388.2</ele>
        <time>2021-10-09 16:27:38</time>
      </trkpt>
      <trkpt lat="40.26387" lon="-1.88845">
        <ele>1388.2</ele>
        <time>2021-10-09 16:27:39</time>
      </trkpt>
      <trkpt lat="40.26383" lon="-1.88848">
        <ele>1387.8</ele>
        <time>2021-10-09 16:27:40</time>
      </trkpt>
      <trkpt lat="40.26379" lon="-1.88851">
        <ele>1387.4</ele>
        <time>2021-10-09 16:27:41</time>
      </trkpt>
      <trkpt lat="40.26375" lon="-1.88854">
        <ele>1387.8</ele>
        <time>2021-10-09 16:27:42</time>
      </trkpt>
      <trkpt lat="40.26356" lon="-1.88868">
        <ele>1387.4</ele>
        <time>2021-10-09 16:27:43</time>
      </trkpt>
      <trkpt lat="40.26351" lon="-1.88872">
        <ele>1387.2</ele>
        <time>2021-10-09 16:27:44</time>
      </trkpt>
      <trkpt lat="40.26347" lon="-1.88877">
        <ele>1387.2</ele>
        <time>2021-10-09 16:27:45</time>
      </trkpt>
      <trkpt lat="40.26335" lon="-1.88884">
        <ele>1386.8</ele>
        <time>2021-10-09 16:27:46</time>
      </trkpt>
      <trkpt lat="40.26329" lon="-1.88888">
        <ele>1386.8</ele>
        <time>2021-10-09 16:27:47</time>
      </trkpt>
      <trkpt lat="40.26324" lon="-1.88893">
        <ele>1386.4</ele>
        <time>2021-10-09 16:27:48</time>
      </trkpt>
      <trkpt lat="40.26318" lon="-1.88898">
        <ele>1386.4</ele>
        <time>2021-10-09 16:27:49</time>
      </trkpt>
      <trkpt lat="40.26312" lon="-1.88903">
        <ele>1386</ele>
        <time>2021-10-09 16:27:50</time>
      </trkpt>
      <trkpt lat="40.26306" lon="-1.88906">
        <ele>1386</ele>
        <time>2021-10-09 16:27:51</time>
      </trkpt>
      <trkpt lat="40.263" lon="-1.88909">
        <ele>1385.8</ele>
        <time>2021-10-09 16:27:52</time>
      </trkpt>
      <trkpt lat="40.26294" lon="-1.88913">
        <ele>1385.8</ele>
        <time>2021-10-09 16:27:53</time>
      </trkpt>
      <trkpt lat="40.26288" lon="-1.88918">
        <ele>1385.4</ele>
        <time>2021-10-09 16:27:54</time>
      </trkpt>
      <trkpt lat="40.26283" lon="-1.88923">
        <ele>1385.4</ele>
        <time>2021-10-09 16:27:55</time>
      </trkpt>
      <trkpt lat="40.26277" lon="-1.88927">
        <ele>1385</ele>
        <time>2021-10-09 16:27:56</time>
      </trkpt>
      <trkpt lat="40.26271" lon="-1.88931">
        <ele>1385</ele>
        <time>2021-10-09 16:27:57</time>
      </trkpt>
      <trkpt lat="40.26265" lon="-1.88935">
        <ele>1384.8</ele>
        <time>2021-10-09 16:27:58</time>
      </trkpt>
      <trkpt lat="40.26265" lon="-1.88935">
        <ele>1384.6</ele>
        <time>2021-10-09 16:27:59</time>
      </trkpt>
      <trkpt lat="40.26252" lon="-1.88943">
        <ele>1384.2</ele>
        <time>2021-10-09 16:28:00</time>
      </trkpt>
      <trkpt lat="40.26247" lon="-1.88948">
        <ele>1384.2</ele>
        <time>2021-10-09 16:28:01</time>
      </trkpt>
      <trkpt lat="40.26241" lon="-1.88952">
        <ele>1384</ele>
        <time>2021-10-09 16:28:02</time>
      </trkpt>
      <trkpt lat="40.26236" lon="-1.88957">
        <ele>1384</ele>
        <time>2021-10-09 16:28:03</time>
      </trkpt>
      <trkpt lat="40.2623" lon="-1.88959">
        <ele>1384</ele>
        <time>2021-10-09 16:28:04</time>
      </trkpt>
      <trkpt lat="40.26225" lon="-1.88963">
        <ele>1384</ele>
        <time>2021-10-09 16:28:05</time>
      </trkpt>
      <trkpt lat="40.26221" lon="-1.88968">
        <ele>1384</ele>
        <time>2021-10-09 16:28:06</time>
      </trkpt>
      <trkpt lat="40.26214" lon="-1.88971">
        <ele>1384</ele>
        <time>2021-10-09 16:28:07</time>
      </trkpt>
      <trkpt lat="40.26209" lon="-1.88975">
        <ele>1384</ele>
        <time>2021-10-09 16:28:08</time>
      </trkpt>
      <trkpt lat="40.26204" lon="-1.88979">
        <ele>1384</ele>
        <time>2021-10-09 16:28:09</time>
      </trkpt>
      <trkpt lat="40.26198" lon="-1.88982">
        <ele>1384</ele>
        <time>2021-10-09 16:28:10</time>
      </trkpt>
      <trkpt lat="40.26193" lon="-1.88984">
        <ele>1384</ele>
        <time>2021-10-09 16:28:11</time>
      </trkpt>
      <trkpt lat="40.26187" lon="-1.88985">
        <ele>1384</ele>
        <time>2021-10-09 16:28:12</time>
      </trkpt>
      <trkpt lat="40.26182" lon="-1.88985">
        <ele>1384</ele>
        <time>2021-10-09 16:28:13</time>
      </trkpt>
      <trkpt lat="40.26176" lon="-1.88985">
        <ele>1384</ele>
        <time>2021-10-09 16:28:14</time>
      </trkpt>
      <trkpt lat="40.2617" lon="-1.88983">
        <ele>1384</ele>
        <time>2021-10-09 16:28:15</time>
      </trkpt>
      <trkpt lat="40.26165" lon="-1.88981">
        <ele>1384</ele>
        <time>2021-10-09 16:28:16</time>
      </trkpt>
      <trkpt lat="40.26159" lon="-1.8898">
        <ele>1384.2</ele>
        <time>2021-10-09 16:28:17</time>
      </trkpt>
      <trkpt lat="40.26153" lon="-1.88978">
        <ele>1384.2</ele>
        <time>2021-10-09 16:28:18</time>
      </trkpt>
      <trkpt lat="40.26148" lon="-1.88975">
        <ele>1384.2</ele>
        <time>2021-10-09 16:28:19</time>
      </trkpt>
      <trkpt lat="40.26142" lon="-1.88973">
        <ele>1384.4</ele>
        <time>2021-10-09 16:28:20</time>
      </trkpt>
      <trkpt lat="40.26137" lon="-1.88971">
        <ele>1384.4</ele>
        <time>2021-10-09 16:28:21</time>
      </trkpt>
      <trkpt lat="40.26132" lon="-1.88967">
        <ele>1384.4</ele>
        <time>2021-10-09 16:28:22</time>
      </trkpt>
      <trkpt lat="40.26126" lon="-1.88966">
        <ele>1384.6</ele>
        <time>2021-10-09 16:28:23</time>
      </trkpt>
      <trkpt lat="40.26121" lon="-1.88964">
        <ele>1384.6</ele>
        <time>2021-10-09 16:28:24</time>
      </trkpt>
      <trkpt lat="40.26116" lon="-1.88961">
        <ele>1384.6</ele>
        <time>2021-10-09 16:28:25</time>
      </trkpt>
      <trkpt lat="40.26111" lon="-1.88959">
        <ele>1384.6</ele>
        <time>2021-10-09 16:28:26</time>
      </trkpt>
      <trkpt lat="40.26106" lon="-1.88957">
        <ele>1384.6</ele>
        <time>2021-10-09 16:28:27</time>
      </trkpt>
      <trkpt lat="40.26101" lon="-1.88955">
        <ele>1384.6</ele>
        <time>2021-10-09 16:28:28</time>
      </trkpt>
      <trkpt lat="40.26096" lon="-1.88952">
        <ele>1384.6</ele>
        <time>2021-10-09 16:28:29</time>
      </trkpt>
      <trkpt lat="40.26091" lon="-1.8895">
        <ele>1384.6</ele>
        <time>2021-10-09 16:28:30</time>
      </trkpt>
      <trkpt lat="40.26085" lon="-1.88948">
        <ele>1384.4</ele>
        <time>2021-10-09 16:28:31</time>
      </trkpt>
      <trkpt lat="40.2608" lon="-1.88945">
        <ele>1384.4</ele>
        <time>2021-10-09 16:28:32</time>
      </trkpt>
      <trkpt lat="40.26074" lon="-1.88942">
        <ele>1384</ele>
        <time>2021-10-09 16:28:33</time>
      </trkpt>
      <trkpt lat="40.26068" lon="-1.88939">
        <ele>1384</ele>
        <time>2021-10-09 16:28:34</time>
      </trkpt>
      <trkpt lat="40.26062" lon="-1.88936">
        <ele>1384</ele>
        <time>2021-10-09 16:28:35</time>
      </trkpt>
      <trkpt lat="40.26056" lon="-1.88932">
        <ele>1383.8</ele>
        <time>2021-10-09 16:28:36</time>
      </trkpt>
      <trkpt lat="40.2605" lon="-1.88929">
        <ele>1383.8</ele>
        <time>2021-10-09 16:28:37</time>
      </trkpt>
      <trkpt lat="40.26044" lon="-1.88925">
        <ele>1383.4</ele>
        <time>2021-10-09 16:28:38</time>
      </trkpt>
      <trkpt lat="40.26038" lon="-1.88922">
        <ele>1383.2</ele>
        <time>2021-10-09 16:28:39</time>
      </trkpt>
      <trkpt lat="40.26032" lon="-1.88918">
        <ele>1383</ele>
        <time>2021-10-09 16:28:40</time>
      </trkpt>
      <trkpt lat="40.26027" lon="-1.88915">
        <ele>1383</ele>
        <time>2021-10-09 16:28:41</time>
      </trkpt>
      <trkpt lat="40.26021" lon="-1.88912">
        <ele>1382.6</ele>
        <time>2021-10-09 16:28:42</time>
      </trkpt>
      <trkpt lat="40.26015" lon="-1.88908">
        <ele>1382.6</ele>
        <time>2021-10-09 16:28:43</time>
      </trkpt>
      <trkpt lat="40.2601" lon="-1.88904">
        <ele>1382.2</ele>
        <time>2021-10-09 16:28:44</time>
      </trkpt>
      <trkpt lat="40.26004" lon="-1.88901">
        <ele>1382.2</ele>
        <time>2021-10-09 16:28:45</time>
      </trkpt>
      <trkpt lat="40.25998" lon="-1.88899">
        <ele>1382</ele>
        <time>2021-10-09 16:28:46</time>
      </trkpt>
      <trkpt lat="40.25993" lon="-1.88895">
        <ele>1382</ele>
        <time>2021-10-09 16:28:47</time>
      </trkpt>
      <trkpt lat="40.25987" lon="-1.88892">
        <ele>1381.6</ele>
        <time>2021-10-09 16:28:48</time>
      </trkpt>
      <trkpt lat="40.25981" lon="-1.88889">
        <ele>1381.6</ele>
        <time>2021-10-09 16:28:49</time>
      </trkpt>
      <trkpt lat="40.25976" lon="-1.88886">
        <ele>1381.2</ele>
        <time>2021-10-09 16:28:50</time>
      </trkpt>
      <trkpt lat="40.2597" lon="-1.88882">
        <ele>1381.2</ele>
        <time>2021-10-09 16:28:51</time>
      </trkpt>
      <trkpt lat="40.25964" lon="-1.88879">
        <ele>1381.2</ele>
        <time>2021-10-09 16:28:52</time>
      </trkpt>
      <trkpt lat="40.25958" lon="-1.88875">
        <ele>1381</ele>
        <time>2021-10-09 16:28:53</time>
      </trkpt>
      <trkpt lat="40.25952" lon="-1.88871">
        <ele>1381</ele>
        <time>2021-10-09 16:28:54</time>
      </trkpt>
      <trkpt lat="40.25947" lon="-1.88868">
        <ele>1380.8</ele>
        <time>2021-10-09 16:28:55</time>
      </trkpt>
      <trkpt lat="40.25941" lon="-1.88865">
        <ele>1380.8</ele>
        <time>2021-10-09 16:28:56</time>
      </trkpt>
      <trkpt lat="40.25935" lon="-1.88861">
        <ele>1380.6</ele>
        <time>2021-10-09 16:28:57</time>
      </trkpt>
      <trkpt lat="40.25929" lon="-1.88857">
        <ele>1380.6</ele>
        <time>2021-10-09 16:28:58</time>
      </trkpt>
      <trkpt lat="40.25922" lon="-1.88854">
        <ele>1380.2</ele>
        <time>2021-10-09 16:28:59</time>
      </trkpt>
      <trkpt lat="40.25916" lon="-1.8885">
        <ele>1380.2</ele>
        <time>2021-10-09 16:29:00</time>
      </trkpt>
      <trkpt lat="40.2591" lon="-1.88846">
        <ele>1379.8</ele>
        <time>2021-10-09 16:29:01</time>
      </trkpt>
      <trkpt lat="40.25904" lon="-1.88842">
        <ele>1379.8</ele>
        <time>2021-10-09 16:29:02</time>
      </trkpt>
      <trkpt lat="40.25898" lon="-1.88838">
        <ele>1379.4</ele>
        <time>2021-10-09 16:29:03</time>
      </trkpt>
      <trkpt lat="40.25892" lon="-1.88836">
        <ele>1379.2</ele>
        <time>2021-10-09 16:29:04</time>
      </trkpt>
      <trkpt lat="40.25886" lon="-1.88833">
        <ele>1379.2</ele>
        <time>2021-10-09 16:29:05</time>
      </trkpt>
      <trkpt lat="40.2588" lon="-1.88829">
        <ele>1379</ele>
        <time>2021-10-09 16:29:06</time>
      </trkpt>
      <trkpt lat="40.25874" lon="-1.88826">
        <ele>1379</ele>
        <time>2021-10-09 16:29:07</time>
      </trkpt>
      <trkpt lat="40.25868" lon="-1.88822">
        <ele>1378.6</ele>
        <time>2021-10-09 16:29:08</time>
      </trkpt>
      <trkpt lat="40.25863" lon="-1.88818">
        <ele>1378.6</ele>
        <time>2021-10-09 16:29:09</time>
      </trkpt>
      <trkpt lat="40.25856" lon="-1.88814">
        <ele>1378.4</ele>
        <time>2021-10-09 16:29:10</time>
      </trkpt>
      <trkpt lat="40.2585" lon="-1.88811">
        <ele>1378.4</ele>
        <time>2021-10-09 16:29:11</time>
      </trkpt>
      <trkpt lat="40.25845" lon="-1.88808">
        <ele>1378.4</ele>
        <time>2021-10-09 16:29:12</time>
      </trkpt>
      <trkpt lat="40.25839" lon="-1.88803">
        <ele>1378</ele>
        <time>2021-10-09 16:29:13</time>
      </trkpt>
      <trkpt lat="40.25832" lon="-1.888">
        <ele>1378</ele>
        <time>2021-10-09 16:29:14</time>
      </trkpt>
      <trkpt lat="40.25826" lon="-1.88796">
        <ele>1377.8</ele>
        <time>2021-10-09 16:29:15</time>
      </trkpt>
      <trkpt lat="40.25821" lon="-1.88792">
        <ele>1377.8</ele>
        <time>2021-10-09 16:29:16</time>
      </trkpt>
      <trkpt lat="40.25814" lon="-1.88788">
        <ele>1377.4</ele>
        <time>2021-10-09 16:29:17</time>
      </trkpt>
      <trkpt lat="40.25809" lon="-1.88785">
        <ele>1377.4</ele>
        <time>2021-10-09 16:29:18</time>
      </trkpt>
      <trkpt lat="40.25803" lon="-1.88782">
        <ele>1377.2</ele>
        <time>2021-10-09 16:29:19</time>
      </trkpt>
      <trkpt lat="40.25797" lon="-1.88778">
        <ele>1377.2</ele>
        <time>2021-10-09 16:29:20</time>
      </trkpt>
      <trkpt lat="40.25792" lon="-1.88775">
        <ele>1377.2</ele>
        <time>2021-10-09 16:29:21</time>
      </trkpt>
      <trkpt lat="40.25786" lon="-1.88772">
        <ele>1376.8</ele>
        <time>2021-10-09 16:29:22</time>
      </trkpt>
      <trkpt lat="40.25781" lon="-1.8877">
        <ele>1376.8</ele>
        <time>2021-10-09 16:29:23</time>
      </trkpt>
      <trkpt lat="40.25775" lon="-1.88768">
        <ele>1376.6</ele>
        <time>2021-10-09 16:29:24</time>
      </trkpt>
      <trkpt lat="40.25769" lon="-1.88764">
        <ele>1376.6</ele>
        <time>2021-10-09 16:29:25</time>
      </trkpt>
      <trkpt lat="40.25762" lon="-1.88762">
        <ele>1376.4</ele>
        <time>2021-10-09 16:29:26</time>
      </trkpt>
      <trkpt lat="40.25756" lon="-1.8876">
        <ele>1376.4</ele>
        <time>2021-10-09 16:29:27</time>
      </trkpt>
      <trkpt lat="40.25749" lon="-1.88759">
        <ele>1376.2</ele>
        <time>2021-10-09 16:29:28</time>
      </trkpt>
      <trkpt lat="40.25742" lon="-1.88754">
        <ele>1376.2</ele>
        <time>2021-10-09 16:29:29</time>
      </trkpt>
      <trkpt lat="40.25735" lon="-1.88751">
        <ele>1375.8</ele>
        <time>2021-10-09 16:29:30</time>
      </trkpt>
      <trkpt lat="40.25728" lon="-1.88748">
        <ele>1375.8</ele>
        <time>2021-10-09 16:29:31</time>
      </trkpt>
      <trkpt lat="40.25721" lon="-1.88745">
        <ele>1375.6</ele>
        <time>2021-10-09 16:29:32</time>
      </trkpt>
      <trkpt lat="40.25714" lon="-1.88742">
        <ele>1375.6</ele>
        <time>2021-10-09 16:29:33</time>
      </trkpt>
      <trkpt lat="40.25708" lon="-1.88738">
        <ele>1375.2</ele>
        <time>2021-10-09 16:29:34</time>
      </trkpt>
      <trkpt lat="40.25701" lon="-1.88734">
        <ele>1375.2</ele>
        <time>2021-10-09 16:29:35</time>
      </trkpt>
      <trkpt lat="40.25695" lon="-1.88729">
        <ele>1375</ele>
        <time>2021-10-09 16:29:36</time>
      </trkpt>
      <trkpt lat="40.25689" lon="-1.88725">
        <ele>1375</ele>
        <time>2021-10-09 16:29:37</time>
      </trkpt>
      <trkpt lat="40.25683" lon="-1.88722">
        <ele>1374.8</ele>
        <time>2021-10-09 16:29:38</time>
      </trkpt>
      <trkpt lat="40.25677" lon="-1.88719">
        <ele>1374.8</ele>
        <time>2021-10-09 16:29:39</time>
      </trkpt>
      <trkpt lat="40.25671" lon="-1.88716">
        <ele>1374.8</ele>
        <time>2021-10-09 16:29:40</time>
      </trkpt>
      <trkpt lat="40.25665" lon="-1.88714">
        <ele>1374.8</ele>
        <time>2021-10-09 16:29:41</time>
      </trkpt>
      <trkpt lat="40.25659" lon="-1.88711">
        <ele>1374.6</ele>
        <time>2021-10-09 16:29:42</time>
      </trkpt>
      <trkpt lat="40.25653" lon="-1.88709">
        <ele>1374.6</ele>
        <time>2021-10-09 16:29:43</time>
      </trkpt>
      <trkpt lat="40.25646" lon="-1.88707">
        <ele>1374.6</ele>
        <time>2021-10-09 16:29:44</time>
      </trkpt>
      <trkpt lat="40.2564" lon="-1.88704">
        <ele>1374.4</ele>
        <time>2021-10-09 16:29:45</time>
      </trkpt>
      <trkpt lat="40.25633" lon="-1.88703">
        <ele>1374.4</ele>
        <time>2021-10-09 16:29:46</time>
      </trkpt>
      <trkpt lat="40.25626" lon="-1.887">
        <ele>1374.2</ele>
        <time>2021-10-09 16:29:47</time>
      </trkpt>
      <trkpt lat="40.25619" lon="-1.88698">
        <ele>1374.2</ele>
        <time>2021-10-09 16:29:48</time>
      </trkpt>
      <trkpt lat="40.25613" lon="-1.88696">
        <ele>1374.2</ele>
        <time>2021-10-09 16:29:49</time>
      </trkpt>
      <trkpt lat="40.25606" lon="-1.88694">
        <ele>1373.8</ele>
        <time>2021-10-09 16:29:50</time>
      </trkpt>
      <trkpt lat="40.25599" lon="-1.88692">
        <ele>1373.8</ele>
        <time>2021-10-09 16:29:51</time>
      </trkpt>
      <trkpt lat="40.25591" lon="-1.8869">
        <ele>1373.6</ele>
        <time>2021-10-09 16:29:52</time>
      </trkpt>
      <trkpt lat="40.25584" lon="-1.88689">
        <ele>1373.6</ele>
        <time>2021-10-09 16:29:53</time>
      </trkpt>
      <trkpt lat="40.25577" lon="-1.88687">
        <ele>1373.4</ele>
        <time>2021-10-09 16:29:54</time>
      </trkpt>
      <trkpt lat="40.25569" lon="-1.88686">
        <ele>1373.4</ele>
        <time>2021-10-09 16:29:55</time>
      </trkpt>
      <trkpt lat="40.25561" lon="-1.88687">
        <ele>1373.4</ele>
        <time>2021-10-09 16:29:56</time>
      </trkpt>
      <trkpt lat="40.25553" lon="-1.88689">
        <ele>1373</ele>
        <time>2021-10-09 16:29:57</time>
      </trkpt>
      <trkpt lat="40.25545" lon="-1.88691">
        <ele>1373</ele>
        <time>2021-10-09 16:29:58</time>
      </trkpt>
      <trkpt lat="40.25538" lon="-1.88692">
        <ele>1372.8</ele>
        <time>2021-10-09 16:29:59</time>
      </trkpt>
      <trkpt lat="40.25529" lon="-1.88693">
        <ele>1372.8</ele>
        <time>2021-10-09 16:30:00</time>
      </trkpt>
      <trkpt lat="40.25521" lon="-1.88693">
        <ele>1372.4</ele>
        <time>2021-10-09 16:30:01</time>
      </trkpt>
      <trkpt lat="40.25513" lon="-1.88692">
        <ele>1372</ele>
        <time>2021-10-09 16:30:02</time>
      </trkpt>
      <trkpt lat="40.25505" lon="-1.88691">
        <ele>1371.8</ele>
        <time>2021-10-09 16:30:03</time>
      </trkpt>
      <trkpt lat="40.25497" lon="-1.88688">
        <ele>1371.4</ele>
        <time>2021-10-09 16:30:04</time>
      </trkpt>
      <trkpt lat="40.25489" lon="-1.88685">
        <ele>1371.4</ele>
        <time>2021-10-09 16:30:05</time>
      </trkpt>
      <trkpt lat="40.25482" lon="-1.88682">
        <ele>1371</ele>
        <time>2021-10-09 16:30:06</time>
      </trkpt>
      <trkpt lat="40.25475" lon="-1.88678">
        <ele>1371</ele>
        <time>2021-10-09 16:30:07</time>
      </trkpt>
      <trkpt lat="40.25468" lon="-1.88676">
        <ele>1370.8</ele>
        <time>2021-10-09 16:30:08</time>
      </trkpt>
      <trkpt lat="40.2546" lon="-1.88672">
        <ele>1370.8</ele>
        <time>2021-10-09 16:30:09</time>
      </trkpt>
      <trkpt lat="40.25453" lon="-1.88669">
        <ele>1370.6</ele>
        <time>2021-10-09 16:30:10</time>
      </trkpt>
      <trkpt lat="40.25446" lon="-1.88667">
        <ele>1370.6</ele>
        <time>2021-10-09 16:30:11</time>
      </trkpt>
      <trkpt lat="40.25438" lon="-1.88665">
        <ele>1370.4</ele>
        <time>2021-10-09 16:30:12</time>
      </trkpt>
      <trkpt lat="40.2543" lon="-1.88665">
        <ele>1370.4</ele>
        <time>2021-10-09 16:30:13</time>
      </trkpt>
      <trkpt lat="40.25422" lon="-1.88666">
        <ele>1370</ele>
        <time>2021-10-09 16:30:14</time>
      </trkpt>
      <trkpt lat="40.25414" lon="-1.88668">
        <ele>1370</ele>
        <time>2021-10-09 16:30:15</time>
      </trkpt>
      <trkpt lat="40.25406" lon="-1.88669">
        <ele>1369.8</ele>
        <time>2021-10-09 16:30:16</time>
      </trkpt>
      <trkpt lat="40.25398" lon="-1.8867">
        <ele>1369.6</ele>
        <time>2021-10-09 16:30:17</time>
      </trkpt>
      <trkpt lat="40.25389" lon="-1.88669">
        <ele>1369.6</ele>
        <time>2021-10-09 16:30:18</time>
      </trkpt>
      <trkpt lat="40.25381" lon="-1.88668">
        <ele>1369.2</ele>
        <time>2021-10-09 16:30:19</time>
      </trkpt>
      <trkpt lat="40.25373" lon="-1.88666">
        <ele>1369</ele>
        <time>2021-10-09 16:30:20</time>
      </trkpt>
      <trkpt lat="40.25366" lon="-1.88663">
        <ele>1369</ele>
        <time>2021-10-09 16:30:21</time>
      </trkpt>
      <trkpt lat="40.25358" lon="-1.8866">
        <ele>1369</ele>
        <time>2021-10-09 16:30:22</time>
      </trkpt>
      <trkpt lat="40.2535" lon="-1.88658">
        <ele>1369</ele>
        <time>2021-10-09 16:30:23</time>
      </trkpt>
      <trkpt lat="40.25342" lon="-1.88655">
        <ele>1369</ele>
        <time>2021-10-09 16:30:24</time>
      </trkpt>
      <trkpt lat="40.25335" lon="-1.88652">
        <ele>1369</ele>
        <time>2021-10-09 16:30:25</time>
      </trkpt>
      <trkpt lat="40.25327" lon="-1.8865">
        <ele>1369</ele>
        <time>2021-10-09 16:30:26</time>
      </trkpt>
      <trkpt lat="40.25319" lon="-1.88647">
        <ele>1368.8</ele>
        <time>2021-10-09 16:30:27</time>
      </trkpt>
      <trkpt lat="40.25312" lon="-1.88645">
        <ele>1368.8</ele>
        <time>2021-10-09 16:30:28</time>
      </trkpt>
      <trkpt lat="40.25304" lon="-1.88642">
        <ele>1368.8</ele>
        <time>2021-10-09 16:30:29</time>
      </trkpt>
      <trkpt lat="40.25296" lon="-1.88639">
        <ele>1368.4</ele>
        <time>2021-10-09 16:30:30</time>
      </trkpt>
      <trkpt lat="40.25288" lon="-1.88637">
        <ele>1368.4</ele>
        <time>2021-10-09 16:30:31</time>
      </trkpt>
      <trkpt lat="40.2528" lon="-1.88636">
        <ele>1368.4</ele>
        <time>2021-10-09 16:30:32</time>
      </trkpt>
      <trkpt lat="40.25272" lon="-1.88636">
        <ele>1368.2</ele>
        <time>2021-10-09 16:30:33</time>
      </trkpt>
      <trkpt lat="40.25264" lon="-1.88638">
        <ele>1368.2</ele>
        <time>2021-10-09 16:30:34</time>
      </trkpt>
      <trkpt lat="40.25256" lon="-1.88642">
        <ele>1368.2</ele>
        <time>2021-10-09 16:30:35</time>
      </trkpt>
      <trkpt lat="40.25248" lon="-1.88647">
        <ele>1368</ele>
        <time>2021-10-09 16:30:36</time>
      </trkpt>
      <trkpt lat="40.25241" lon="-1.88654">
        <ele>1367.8</ele>
        <time>2021-10-09 16:30:37</time>
      </trkpt>
      <trkpt lat="40.25233" lon="-1.88659">
        <ele>1367.4</ele>
        <time>2021-10-09 16:30:38</time>
      </trkpt>
      <trkpt lat="40.25225" lon="-1.88663">
        <ele>1367</ele>
        <time>2021-10-09 16:30:39</time>
      </trkpt>
      <trkpt lat="40.25215" lon="-1.88662">
        <ele>1366.8</ele>
        <time>2021-10-09 16:30:40</time>
      </trkpt>
      <trkpt lat="40.25207" lon="-1.88658">
        <ele>1366.6</ele>
        <time>2021-10-09 16:30:41</time>
      </trkpt>
      <trkpt lat="40.25201" lon="-1.8865">
        <ele>1366.6</ele>
        <time>2021-10-09 16:30:42</time>
      </trkpt>
      <trkpt lat="40.25195" lon="-1.88643">
        <ele>1366.2</ele>
        <time>2021-10-09 16:30:43</time>
      </trkpt>
      <trkpt lat="40.25189" lon="-1.88635">
        <ele>1366.2</ele>
        <time>2021-10-09 16:30:44</time>
      </trkpt>
      <trkpt lat="40.25182" lon="-1.88628">
        <ele>1366.2</ele>
        <time>2021-10-09 16:30:45</time>
      </trkpt>
      <trkpt lat="40.25175" lon="-1.88623">
        <ele>1366.2</ele>
        <time>2021-10-09 16:30:46</time>
      </trkpt>
      <trkpt lat="40.25168" lon="-1.88618">
        <ele>1366.2</ele>
        <time>2021-10-09 16:30:47</time>
      </trkpt>
      <trkpt lat="40.2516" lon="-1.88615">
        <ele>1366.2</ele>
        <time>2021-10-09 16:30:48</time>
      </trkpt>
      <trkpt lat="40.25152" lon="-1.88613">
        <ele>1366.2</ele>
        <time>2021-10-09 16:30:49</time>
      </trkpt>
      <trkpt lat="40.25144" lon="-1.88612">
        <ele>1366.2</ele>
        <time>2021-10-09 16:30:50</time>
      </trkpt>
      <trkpt lat="40.25136" lon="-1.8861">
        <ele>1366.2</ele>
        <time>2021-10-09 16:30:51</time>
      </trkpt>
      <trkpt lat="40.25129" lon="-1.88607">
        <ele>1366.2</ele>
        <time>2021-10-09 16:30:52</time>
      </trkpt>
      <trkpt lat="40.2512" lon="-1.88605">
        <ele>1366.2</ele>
        <time>2021-10-09 16:30:53</time>
      </trkpt>
      <trkpt lat="40.25113" lon="-1.88601">
        <ele>1366.2</ele>
        <time>2021-10-09 16:30:54</time>
      </trkpt>
      <trkpt lat="40.25105" lon="-1.88597">
        <ele>1366.2</ele>
        <time>2021-10-09 16:30:55</time>
      </trkpt>
      <trkpt lat="40.25098" lon="-1.88593">
        <ele>1366.2</ele>
        <time>2021-10-09 16:30:56</time>
      </trkpt>
      <trkpt lat="40.25091" lon="-1.88588">
        <ele>1366.2</ele>
        <time>2021-10-09 16:30:57</time>
      </trkpt>
      <trkpt lat="40.25084" lon="-1.88584">
        <ele>1366.2</ele>
        <time>2021-10-09 16:30:58</time>
      </trkpt>
      <trkpt lat="40.25077" lon="-1.88579">
        <ele>1366.2</ele>
        <time>2021-10-09 16:30:59</time>
      </trkpt>
      <trkpt lat="40.25071" lon="-1.88574">
        <ele>1366.2</ele>
        <time>2021-10-09 16:31:00</time>
      </trkpt>
      <trkpt lat="40.25064" lon="-1.88569">
        <ele>1366.2</ele>
        <time>2021-10-09 16:31:01</time>
      </trkpt>
      <trkpt lat="40.25058" lon="-1.88563">
        <ele>1366.2</ele>
        <time>2021-10-09 16:31:02</time>
      </trkpt>
      <trkpt lat="40.25052" lon="-1.88559">
        <ele>1366</ele>
        <time>2021-10-09 16:31:03</time>
      </trkpt>
      <trkpt lat="40.25045" lon="-1.88554">
        <ele>1366</ele>
        <time>2021-10-09 16:31:04</time>
      </trkpt>
      <trkpt lat="40.25039" lon="-1.8855">
        <ele>1366</ele>
        <time>2021-10-09 16:31:05</time>
      </trkpt>
      <trkpt lat="40.25032" lon="-1.88546">
        <ele>1366</ele>
        <time>2021-10-09 16:31:06</time>
      </trkpt>
      <trkpt lat="40.25025" lon="-1.88544">
        <ele>1366</ele>
        <time>2021-10-09 16:31:07</time>
      </trkpt>
      <trkpt lat="40.25018" lon="-1.88542">
        <ele>1366</ele>
        <time>2021-10-09 16:31:08</time>
      </trkpt>
      <trkpt lat="40.25011" lon="-1.88541">
        <ele>1366</ele>
        <time>2021-10-09 16:31:09</time>
      </trkpt>
      <trkpt lat="40.25004" lon="-1.88541">
        <ele>1365.8</ele>
        <time>2021-10-09 16:31:10</time>
      </trkpt>
      <trkpt lat="40.24996" lon="-1.88541">
        <ele>1365.8</ele>
        <time>2021-10-09 16:31:11</time>
      </trkpt>
      <trkpt lat="40.24989" lon="-1.88542">
        <ele>1365.8</ele>
        <time>2021-10-09 16:31:12</time>
      </trkpt>
      <trkpt lat="40.24981" lon="-1.88543">
        <ele>1365.4</ele>
        <time>2021-10-09 16:31:13</time>
      </trkpt>
      <trkpt lat="40.24974" lon="-1.88544">
        <ele>1365.4</ele>
        <time>2021-10-09 16:31:14</time>
      </trkpt>
      <trkpt lat="40.24965" lon="-1.88545">
        <ele>1365.2</ele>
        <time>2021-10-09 16:31:15</time>
      </trkpt>
      <trkpt lat="40.24957" lon="-1.88546">
        <ele>1365.2</ele>
        <time>2021-10-09 16:31:16</time>
      </trkpt>
      <trkpt lat="40.24949" lon="-1.88546">
        <ele>1364.8</ele>
        <time>2021-10-09 16:31:17</time>
      </trkpt>
      <trkpt lat="40.2494" lon="-1.88547">
        <ele>1364.4</ele>
        <time>2021-10-09 16:31:18</time>
      </trkpt>
      <trkpt lat="40.24932" lon="-1.88548">
        <ele>1364.2</ele>
        <time>2021-10-09 16:31:19</time>
      </trkpt>
      <trkpt lat="40.24922" lon="-1.88549">
        <ele>1364</ele>
        <time>2021-10-09 16:31:20</time>
      </trkpt>
      <trkpt lat="40.24913" lon="-1.88551">
        <ele>1363.6</ele>
        <time>2021-10-09 16:31:21</time>
      </trkpt>
      <trkpt lat="40.24905" lon="-1.88551">
        <ele>1363.2</ele>
        <time>2021-10-09 16:31:22</time>
      </trkpt>
      <trkpt lat="40.24895" lon="-1.88552">
        <ele>1362.6</ele>
        <time>2021-10-09 16:31:23</time>
      </trkpt>
      <trkpt lat="40.24885" lon="-1.88553">
        <ele>1362.4</ele>
        <time>2021-10-09 16:31:24</time>
      </trkpt>
      <trkpt lat="40.24876" lon="-1.88555">
        <ele>1362</ele>
        <time>2021-10-09 16:31:25</time>
      </trkpt>
      <trkpt lat="40.24866" lon="-1.88556">
        <ele>1361.6</ele>
        <time>2021-10-09 16:31:26</time>
      </trkpt>
      <trkpt lat="40.24857" lon="-1.88556">
        <ele>1361.2</ele>
        <time>2021-10-09 16:31:27</time>
      </trkpt>
      <trkpt lat="40.24846" lon="-1.88558">
        <ele>1360.8</ele>
        <time>2021-10-09 16:31:28</time>
      </trkpt>
      <trkpt lat="40.24837" lon="-1.88559">
        <ele>1360.4</ele>
        <time>2021-10-09 16:31:29</time>
      </trkpt>
      <trkpt lat="40.24827" lon="-1.88559">
        <ele>1360</ele>
        <time>2021-10-09 16:31:30</time>
      </trkpt>
      <trkpt lat="40.24817" lon="-1.88557">
        <ele>1359.6</ele>
        <time>2021-10-09 16:31:31</time>
      </trkpt>
      <trkpt lat="40.24807" lon="-1.88553">
        <ele>1359</ele>
        <time>2021-10-09 16:31:32</time>
      </trkpt>
      <trkpt lat="40.24798" lon="-1.88547">
        <ele>1358.2</ele>
        <time>2021-10-09 16:31:33</time>
      </trkpt>
      <trkpt lat="40.24788" lon="-1.88542">
        <ele>1357.8</ele>
        <time>2021-10-09 16:31:34</time>
      </trkpt>
      <trkpt lat="40.24779" lon="-1.88538">
        <ele>1357.4</ele>
        <time>2021-10-09 16:31:35</time>
      </trkpt>
      <trkpt lat="40.24768" lon="-1.88535">
        <ele>1357</ele>
        <time>2021-10-09 16:31:36</time>
      </trkpt>
      <trkpt lat="40.24758" lon="-1.88532">
        <ele>1356.8</ele>
        <time>2021-10-09 16:31:37</time>
      </trkpt>
      <trkpt lat="40.24747" lon="-1.88531">
        <ele>1356.4</ele>
        <time>2021-10-09 16:31:38</time>
      </trkpt>
      <trkpt lat="40.24736" lon="-1.8853">
        <ele>1356</ele>
        <time>2021-10-09 16:31:39</time>
      </trkpt>
      <trkpt lat="40.24725" lon="-1.88529">
        <ele>1355.6</ele>
        <time>2021-10-09 16:31:40</time>
      </trkpt>
      <trkpt lat="40.24715" lon="-1.88527">
        <ele>1355.4</ele>
        <time>2021-10-09 16:31:41</time>
      </trkpt>
      <trkpt lat="40.24704" lon="-1.88525">
        <ele>1354.8</ele>
        <time>2021-10-09 16:31:42</time>
      </trkpt>
      <trkpt lat="40.24693" lon="-1.88524">
        <ele>1354.6</ele>
        <time>2021-10-09 16:31:43</time>
      </trkpt>
      <trkpt lat="40.24681" lon="-1.88524">
        <ele>1354.2</ele>
        <time>2021-10-09 16:31:44</time>
      </trkpt>
      <trkpt lat="40.24671" lon="-1.88522">
        <ele>1353.8</ele>
        <time>2021-10-09 16:31:45</time>
      </trkpt>
      <trkpt lat="40.2466" lon="-1.88522">
        <ele>1353.4</ele>
        <time>2021-10-09 16:31:46</time>
      </trkpt>
      <trkpt lat="40.2465" lon="-1.88522">
        <ele>1353.2</ele>
        <time>2021-10-09 16:31:47</time>
      </trkpt>
      <trkpt lat="40.2464" lon="-1.88522">
        <ele>1352.8</ele>
        <time>2021-10-09 16:31:48</time>
      </trkpt>
      <trkpt lat="40.24628" lon="-1.88522">
        <ele>1352.4</ele>
        <time>2021-10-09 16:31:49</time>
      </trkpt>
      <trkpt lat="40.24618" lon="-1.88524">
        <ele>1352</ele>
        <time>2021-10-09 16:31:50</time>
      </trkpt>
      <trkpt lat="40.24607" lon="-1.88527">
        <ele>1351.6</ele>
        <time>2021-10-09 16:31:51</time>
      </trkpt>
      <trkpt lat="40.24596" lon="-1.88529">
        <ele>1351.4</ele>
        <time>2021-10-09 16:31:52</time>
      </trkpt>
      <trkpt lat="40.24585" lon="-1.88533">
        <ele>1351</ele>
        <time>2021-10-09 16:31:53</time>
      </trkpt>
      <trkpt lat="40.24574" lon="-1.88537">
        <ele>1350.6</ele>
        <time>2021-10-09 16:31:54</time>
      </trkpt>
      <trkpt lat="40.24553" lon="-1.88547">
        <ele>1350.2</ele>
        <time>2021-10-09 16:31:55</time>
      </trkpt>
      <trkpt lat="40.24543" lon="-1.88554">
        <ele>1350</ele>
        <time>2021-10-09 16:31:56</time>
      </trkpt>
      <trkpt lat="40.24533" lon="-1.88562">
        <ele>1349.6</ele>
        <time>2021-10-09 16:31:57</time>
      </trkpt>
      <trkpt lat="40.24524" lon="-1.88571">
        <ele>1349.4</ele>
        <time>2021-10-09 16:31:58</time>
      </trkpt>
      <trkpt lat="40.24515" lon="-1.88577">
        <ele>1349.4</ele>
        <time>2021-10-09 16:31:59</time>
      </trkpt>
      <trkpt lat="40.24505" lon="-1.88582">
        <ele>1349.2</ele>
        <time>2021-10-09 16:32:00</time>
      </trkpt>
      <trkpt lat="40.24495" lon="-1.88587">
        <ele>1349.2</ele>
        <time>2021-10-09 16:32:01</time>
      </trkpt>
      <trkpt lat="40.24484" lon="-1.88589">
        <ele>1349</ele>
        <time>2021-10-09 16:32:02</time>
      </trkpt>
      <trkpt lat="40.24475" lon="-1.88592">
        <ele>1348.8</ele>
        <time>2021-10-09 16:32:03</time>
      </trkpt>
      <trkpt lat="40.24465" lon="-1.88594">
        <ele>1348.6</ele>
        <time>2021-10-09 16:32:04</time>
      </trkpt>
      <trkpt lat="40.24454" lon="-1.88597">
        <ele>1348.2</ele>
        <time>2021-10-09 16:32:05</time>
      </trkpt>
      <trkpt lat="40.24445" lon="-1.88599">
        <ele>1347.8</ele>
        <time>2021-10-09 16:32:06</time>
      </trkpt>
      <trkpt lat="40.24437" lon="-1.88603">
        <ele>1347.4</ele>
        <time>2021-10-09 16:32:07</time>
      </trkpt>
      <trkpt lat="40.24427" lon="-1.88603">
        <ele>1347.2</ele>
        <time>2021-10-09 16:32:08</time>
      </trkpt>
      <trkpt lat="40.24417" lon="-1.88602">
        <ele>1346.8</ele>
        <time>2021-10-09 16:32:09</time>
      </trkpt>
      <trkpt lat="40.24407" lon="-1.88599">
        <ele>1346.6</ele>
        <time>2021-10-09 16:32:10</time>
      </trkpt>
      <trkpt lat="40.24399" lon="-1.88596">
        <ele>1346.4</ele>
        <time>2021-10-09 16:32:11</time>
      </trkpt>
      <trkpt lat="40.24389" lon="-1.8859">
        <ele>1346.2</ele>
        <time>2021-10-09 16:32:12</time>
      </trkpt>
      <trkpt lat="40.2438" lon="-1.88586">
        <ele>1345.8</ele>
        <time>2021-10-09 16:32:13</time>
      </trkpt>
      <trkpt lat="40.24371" lon="-1.88583">
        <ele>1345.8</ele>
        <time>2021-10-09 16:32:14</time>
      </trkpt>
      <trkpt lat="40.24363" lon="-1.88577">
        <ele>1345.4</ele>
        <time>2021-10-09 16:32:15</time>
      </trkpt>
      <trkpt lat="40.24354" lon="-1.88574">
        <ele>1345.4</ele>
        <time>2021-10-09 16:32:16</time>
      </trkpt>
      <trkpt lat="40.24344" lon="-1.88573">
        <ele>1345</ele>
        <time>2021-10-09 16:32:17</time>
      </trkpt>
      <trkpt lat="40.24334" lon="-1.88573">
        <ele>1344.8</ele>
        <time>2021-10-09 16:32:18</time>
      </trkpt>
      <trkpt lat="40.24325" lon="-1.88576">
        <ele>1344.6</ele>
        <time>2021-10-09 16:32:19</time>
      </trkpt>
      <trkpt lat="40.24317" lon="-1.8858">
        <ele>1344.6</ele>
        <time>2021-10-09 16:32:20</time>
      </trkpt>
      <trkpt lat="40.24308" lon="-1.88583">
        <ele>1344.2</ele>
        <time>2021-10-09 16:32:21</time>
      </trkpt>
      <trkpt lat="40.243" lon="-1.88586">
        <ele>1344.2</ele>
        <time>2021-10-09 16:32:22</time>
      </trkpt>
      <trkpt lat="40.24292" lon="-1.8859">
        <ele>1344.2</ele>
        <time>2021-10-09 16:32:23</time>
      </trkpt>
      <trkpt lat="40.24284" lon="-1.88593">
        <ele>1344</ele>
        <time>2021-10-09 16:32:24</time>
      </trkpt>
      <trkpt lat="40.24274" lon="-1.88596">
        <ele>1344</ele>
        <time>2021-10-09 16:32:25</time>
      </trkpt>
      <trkpt lat="40.24266" lon="-1.886">
        <ele>1344</ele>
        <time>2021-10-09 16:32:26</time>
      </trkpt>
      <trkpt lat="40.24257" lon="-1.88603">
        <ele>1343.8</ele>
        <time>2021-10-09 16:32:27</time>
      </trkpt>
      <trkpt lat="40.2425" lon="-1.88607">
        <ele>1343.8</ele>
        <time>2021-10-09 16:32:28</time>
      </trkpt>
      <trkpt lat="40.24242" lon="-1.8861">
        <ele>1343.4</ele>
        <time>2021-10-09 16:32:29</time>
      </trkpt>
      <trkpt lat="40.24233" lon="-1.88612">
        <ele>1343.4</ele>
        <time>2021-10-09 16:32:30</time>
      </trkpt>
      <trkpt lat="40.24226" lon="-1.88616">
        <ele>1343.2</ele>
        <time>2021-10-09 16:32:31</time>
      </trkpt>
      <trkpt lat="40.24218" lon="-1.88619">
        <ele>1343</ele>
        <time>2021-10-09 16:32:32</time>
      </trkpt>
      <trkpt lat="40.2421" lon="-1.88623">
        <ele>1342.8</ele>
        <time>2021-10-09 16:32:33</time>
      </trkpt>
      <trkpt lat="40.24202" lon="-1.88625">
        <ele>1342.4</ele>
        <time>2021-10-09 16:32:34</time>
      </trkpt>
      <trkpt lat="40.24194" lon="-1.88629">
        <ele>1342.2</ele>
        <time>2021-10-09 16:32:35</time>
      </trkpt>
      <trkpt lat="40.24187" lon="-1.88631">
        <ele>1342</ele>
        <time>2021-10-09 16:32:36</time>
      </trkpt>
      <trkpt lat="40.24178" lon="-1.88635">
        <ele>1341.8</ele>
        <time>2021-10-09 16:32:37</time>
      </trkpt>
      <trkpt lat="40.2417" lon="-1.88639">
        <ele>1341.4</ele>
        <time>2021-10-09 16:32:38</time>
      </trkpt>
      <trkpt lat="40.24161" lon="-1.88641">
        <ele>1341.2</ele>
        <time>2021-10-09 16:32:39</time>
      </trkpt>
      <trkpt lat="40.24153" lon="-1.88644">
        <ele>1341</ele>
        <time>2021-10-09 16:32:40</time>
      </trkpt>
      <trkpt lat="40.24145" lon="-1.88648">
        <ele>1341</ele>
        <time>2021-10-09 16:32:41</time>
      </trkpt>
      <trkpt lat="40.24136" lon="-1.88651">
        <ele>1341</ele>
        <time>2021-10-09 16:32:42</time>
      </trkpt>
      <trkpt lat="40.24128" lon="-1.88654">
        <ele>1341</ele>
        <time>2021-10-09 16:32:43</time>
      </trkpt>
      <trkpt lat="40.2412" lon="-1.88657">
        <ele>1340.6</ele>
        <time>2021-10-09 16:32:44</time>
      </trkpt>
      <trkpt lat="40.24111" lon="-1.88659">
        <ele>1340.4</ele>
        <time>2021-10-09 16:32:45</time>
      </trkpt>
      <trkpt lat="40.24103" lon="-1.88664">
        <ele>1340.2</ele>
        <time>2021-10-09 16:32:46</time>
      </trkpt>
      <trkpt lat="40.24095" lon="-1.88666">
        <ele>1340</ele>
        <time>2021-10-09 16:32:47</time>
      </trkpt>
      <trkpt lat="40.24087" lon="-1.88668">
        <ele>1339.6</ele>
        <time>2021-10-09 16:32:48</time>
      </trkpt>
      <trkpt lat="40.24078" lon="-1.88671">
        <ele>1339.2</ele>
        <time>2021-10-09 16:32:49</time>
      </trkpt>
      <trkpt lat="40.2407" lon="-1.88674">
        <ele>1339</ele>
        <time>2021-10-09 16:32:50</time>
      </trkpt>
      <trkpt lat="40.24061" lon="-1.88677">
        <ele>1338.8</ele>
        <time>2021-10-09 16:32:51</time>
      </trkpt>
      <trkpt lat="40.24053" lon="-1.88678">
        <ele>1338.6</ele>
        <time>2021-10-09 16:32:52</time>
      </trkpt>
      <trkpt lat="40.24045" lon="-1.88679">
        <ele>1338.4</ele>
        <time>2021-10-09 16:32:53</time>
      </trkpt>
      <trkpt lat="40.24035" lon="-1.88679">
        <ele>1338</ele>
        <time>2021-10-09 16:32:54</time>
      </trkpt>
      <trkpt lat="40.24027" lon="-1.8868">
        <ele>1337.8</ele>
        <time>2021-10-09 16:32:55</time>
      </trkpt>
      <trkpt lat="40.24017" lon="-1.8868">
        <ele>1337.4</ele>
        <time>2021-10-09 16:32:56</time>
      </trkpt>
      <trkpt lat="40.24007" lon="-1.8868">
        <ele>1337.2</ele>
        <time>2021-10-09 16:32:57</time>
      </trkpt>
      <trkpt lat="40.23999" lon="-1.88679">
        <ele>1337.2</ele>
        <time>2021-10-09 16:32:58</time>
      </trkpt>
      <trkpt lat="40.2399" lon="-1.88679">
        <ele>1336.6</ele>
        <time>2021-10-09 16:32:59</time>
      </trkpt>
      <trkpt lat="40.23981" lon="-1.88678">
        <ele>1336.4</ele>
        <time>2021-10-09 16:33:00</time>
      </trkpt>
      <trkpt lat="40.23973" lon="-1.88676">
        <ele>1336.4</ele>
        <time>2021-10-09 16:33:01</time>
      </trkpt>
      <trkpt lat="40.23964" lon="-1.88675">
        <ele>1336.2</ele>
        <time>2021-10-09 16:33:02</time>
      </trkpt>
      <trkpt lat="40.23956" lon="-1.8867">
        <ele>1336.2</ele>
        <time>2021-10-09 16:33:03</time>
      </trkpt>
      <trkpt lat="40.23948" lon="-1.88664">
        <ele>1335.8</ele>
        <time>2021-10-09 16:33:04</time>
      </trkpt>
      <trkpt lat="40.23942" lon="-1.88659">
        <ele>1335.6</ele>
        <time>2021-10-09 16:33:05</time>
      </trkpt>
      <trkpt lat="40.23936" lon="-1.8865">
        <ele>1335.4</ele>
        <time>2021-10-09 16:33:06</time>
      </trkpt>
      <trkpt lat="40.2393" lon="-1.88642">
        <ele>1335</ele>
        <time>2021-10-09 16:33:07</time>
      </trkpt>
      <trkpt lat="40.23926" lon="-1.88633">
        <ele>1334.8</ele>
        <time>2021-10-09 16:33:08</time>
      </trkpt>
      <trkpt lat="40.23921" lon="-1.88623">
        <ele>1334.4</ele>
        <time>2021-10-09 16:33:09</time>
      </trkpt>
      <trkpt lat="40.23915" lon="-1.88615">
        <ele>1334.2</ele>
        <time>2021-10-09 16:33:10</time>
      </trkpt>
      <trkpt lat="40.23907" lon="-1.88606">
        <ele>1334</ele>
        <time>2021-10-09 16:33:11</time>
      </trkpt>
      <trkpt lat="40.23899" lon="-1.886">
        <ele>1333.6</ele>
        <time>2021-10-09 16:33:12</time>
      </trkpt>
      <trkpt lat="40.23889" lon="-1.886">
        <ele>1333.2</ele>
        <time>2021-10-09 16:33:13</time>
      </trkpt>
      <trkpt lat="40.2388" lon="-1.88602">
        <ele>1332.8</ele>
        <time>2021-10-09 16:33:14</time>
      </trkpt>
      <trkpt lat="40.2387" lon="-1.88604">
        <ele>1332.2</ele>
        <time>2021-10-09 16:33:15</time>
      </trkpt>
      <trkpt lat="40.2386" lon="-1.88606">
        <ele>1331.8</ele>
        <time>2021-10-09 16:33:16</time>
      </trkpt>
      <trkpt lat="40.2385" lon="-1.88609">
        <ele>1331.2</ele>
        <time>2021-10-09 16:33:17</time>
      </trkpt>
      <trkpt lat="40.2384" lon="-1.8861">
        <ele>1330.8</ele>
        <time>2021-10-09 16:33:18</time>
      </trkpt>
      <trkpt lat="40.23829" lon="-1.88612">
        <ele>1330.4</ele>
        <time>2021-10-09 16:33:19</time>
      </trkpt>
      <trkpt lat="40.23819" lon="-1.88614">
        <ele>1330.2</ele>
        <time>2021-10-09 16:33:20</time>
      </trkpt>
      <trkpt lat="40.23809" lon="-1.88616">
        <ele>1329.6</ele>
        <time>2021-10-09 16:33:21</time>
      </trkpt>
      <trkpt lat="40.23799" lon="-1.88619">
        <ele>1329.2</ele>
        <time>2021-10-09 16:33:22</time>
      </trkpt>
      <trkpt lat="40.23789" lon="-1.88623">
        <ele>1328.8</ele>
        <time>2021-10-09 16:33:23</time>
      </trkpt>
      <trkpt lat="40.2378" lon="-1.88626">
        <ele>1328.2</ele>
        <time>2021-10-09 16:33:24</time>
      </trkpt>
      <trkpt lat="40.2377" lon="-1.88629">
        <ele>1327.8</ele>
        <time>2021-10-09 16:33:25</time>
      </trkpt>
      <trkpt lat="40.2376" lon="-1.88632">
        <ele>1327.4</ele>
        <time>2021-10-09 16:33:26</time>
      </trkpt>
      <trkpt lat="40.23749" lon="-1.88629">
        <ele>1327</ele>
        <time>2021-10-09 16:33:27</time>
      </trkpt>
      <trkpt lat="40.23739" lon="-1.88624">
        <ele>1326.6</ele>
        <time>2021-10-09 16:33:28</time>
      </trkpt>
      <trkpt lat="40.23729" lon="-1.88618">
        <ele>1326</ele>
        <time>2021-10-09 16:33:29</time>
      </trkpt>
      <trkpt lat="40.23719" lon="-1.88612">
        <ele>1325.6</ele>
        <time>2021-10-09 16:33:30</time>
      </trkpt>
      <trkpt lat="40.2371" lon="-1.88607">
        <ele>1325.2</ele>
        <time>2021-10-09 16:33:31</time>
      </trkpt>
      <trkpt lat="40.23702" lon="-1.886">
        <ele>1324.6</ele>
        <time>2021-10-09 16:33:32</time>
      </trkpt>
      <trkpt lat="40.23692" lon="-1.88596">
        <ele>1324.2</ele>
        <time>2021-10-09 16:33:33</time>
      </trkpt>
      <trkpt lat="40.23682" lon="-1.88591">
        <ele>1323.8</ele>
        <time>2021-10-09 16:33:34</time>
      </trkpt>
      <trkpt lat="40.23672" lon="-1.88593">
        <ele>1323.4</ele>
        <time>2021-10-09 16:33:35</time>
      </trkpt>
      <trkpt lat="40.23662" lon="-1.88595">
        <ele>1323</ele>
        <time>2021-10-09 16:33:36</time>
      </trkpt>
      <trkpt lat="40.23652" lon="-1.88599">
        <ele>1322.4</ele>
        <time>2021-10-09 16:33:37</time>
      </trkpt>
      <trkpt lat="40.23642" lon="-1.88602">
        <ele>1322</ele>
        <time>2021-10-09 16:33:38</time>
      </trkpt>
      <trkpt lat="40.23632" lon="-1.88604">
        <ele>1321.4</ele>
        <time>2021-10-09 16:33:39</time>
      </trkpt>
      <trkpt lat="40.23632" lon="-1.88604">
        <ele>1320.8</ele>
        <time>2021-10-09 16:33:40</time>
      </trkpt>
      <trkpt lat="40.23611" lon="-1.88609">
        <ele>1320.2</ele>
        <time>2021-10-09 16:33:41</time>
      </trkpt>
      <trkpt lat="40.23611" lon="-1.88609">
        <ele>1319.8</ele>
        <time>2021-10-09 16:33:42</time>
      </trkpt>
      <trkpt lat="40.23601" lon="-1.88609">
        <ele>1319.2</ele>
        <time>2021-10-09 16:33:43</time>
      </trkpt>
      <trkpt lat="40.23591" lon="-1.8861">
        <ele>1318.8</ele>
        <time>2021-10-09 16:33:44</time>
      </trkpt>
      <trkpt lat="40.23581" lon="-1.88609">
        <ele>1318.4</ele>
        <time>2021-10-09 16:33:45</time>
      </trkpt>
      <trkpt lat="40.23572" lon="-1.88609">
        <ele>1318</ele>
        <time>2021-10-09 16:33:46</time>
      </trkpt>
      <trkpt lat="40.23561" lon="-1.88608">
        <ele>1317.8</ele>
        <time>2021-10-09 16:33:47</time>
      </trkpt>
      <trkpt lat="40.23551" lon="-1.88605">
        <ele>1317.4</ele>
        <time>2021-10-09 16:33:48</time>
      </trkpt>
      <trkpt lat="40.23542" lon="-1.88602">
        <ele>1317.2</ele>
        <time>2021-10-09 16:33:49</time>
      </trkpt>
      <trkpt lat="40.23533" lon="-1.88597">
        <ele>1316.8</ele>
        <time>2021-10-09 16:33:50</time>
      </trkpt>
      <trkpt lat="40.23524" lon="-1.88592">
        <ele>1316.4</ele>
        <time>2021-10-09 16:33:51</time>
      </trkpt>
      <trkpt lat="40.23515" lon="-1.88587">
        <ele>1316</ele>
        <time>2021-10-09 16:33:52</time>
      </trkpt>
      <trkpt lat="40.23505" lon="-1.88582">
        <ele>1315.8</ele>
        <time>2021-10-09 16:33:53</time>
      </trkpt>
      <trkpt lat="40.23497" lon="-1.88576">
        <ele>1315.4</ele>
        <time>2021-10-09 16:33:54</time>
      </trkpt>
      <trkpt lat="40.23487" lon="-1.88573">
        <ele>1314.8</ele>
        <time>2021-10-09 16:33:55</time>
      </trkpt>
      <trkpt lat="40.23476" lon="-1.88567">
        <ele>1314.4</ele>
        <time>2021-10-09 16:33:56</time>
      </trkpt>
      <trkpt lat="40.23465" lon="-1.88567">
        <ele>1314</ele>
        <time>2021-10-09 16:33:57</time>
      </trkpt>
      <trkpt lat="40.23454" lon="-1.88568">
        <ele>1313.4</ele>
        <time>2021-10-09 16:33:58</time>
      </trkpt>
      <trkpt lat="40.23444" lon="-1.88572">
        <ele>1313</ele>
        <time>2021-10-09 16:33:59</time>
      </trkpt>
      <trkpt lat="40.23434" lon="-1.88577">
        <ele>1312.6</ele>
        <time>2021-10-09 16:34:00</time>
      </trkpt>
      <trkpt lat="40.23424" lon="-1.88583">
        <ele>1312</ele>
        <time>2021-10-09 16:34:01</time>
      </trkpt>
      <trkpt lat="40.23414" lon="-1.88587">
        <ele>1311.6</ele>
        <time>2021-10-09 16:34:02</time>
      </trkpt>
      <trkpt lat="40.23403" lon="-1.8859">
        <ele>1311.2</ele>
        <time>2021-10-09 16:34:03</time>
      </trkpt>
      <trkpt lat="40.23392" lon="-1.88593">
        <ele>1310.6</ele>
        <time>2021-10-09 16:34:04</time>
      </trkpt>
      <trkpt lat="40.23382" lon="-1.88591">
        <ele>1310.2</ele>
        <time>2021-10-09 16:34:05</time>
      </trkpt>
      <trkpt lat="40.2337" lon="-1.88594">
        <ele>1309.8</ele>
        <time>2021-10-09 16:34:06</time>
      </trkpt>
      <trkpt lat="40.23361" lon="-1.88596">
        <ele>1309.2</ele>
        <time>2021-10-09 16:34:07</time>
      </trkpt>
      <trkpt lat="40.2335" lon="-1.886">
        <ele>1308.8</ele>
        <time>2021-10-09 16:34:08</time>
      </trkpt>
      <trkpt lat="40.2334" lon="-1.88602">
        <ele>1308.2</ele>
        <time>2021-10-09 16:34:09</time>
      </trkpt>
      <trkpt lat="40.2333" lon="-1.88606">
        <ele>1307.8</ele>
        <time>2021-10-09 16:34:10</time>
      </trkpt>
      <trkpt lat="40.2332" lon="-1.8861">
        <ele>1307.4</ele>
        <time>2021-10-09 16:34:11</time>
      </trkpt>
      <trkpt lat="40.23309" lon="-1.88614">
        <ele>1306.8</ele>
        <time>2021-10-09 16:34:12</time>
      </trkpt>
      <trkpt lat="40.23299" lon="-1.88616">
        <ele>1306.2</ele>
        <time>2021-10-09 16:34:13</time>
      </trkpt>
      <trkpt lat="40.23288" lon="-1.8862">
        <ele>1305.8</ele>
        <time>2021-10-09 16:34:14</time>
      </trkpt>
      <trkpt lat="40.23277" lon="-1.88622">
        <ele>1305.2</ele>
        <time>2021-10-09 16:34:15</time>
      </trkpt>
      <trkpt lat="40.23266" lon="-1.88624">
        <ele>1304.6</ele>
        <time>2021-10-09 16:34:16</time>
      </trkpt>
      <trkpt lat="40.23257" lon="-1.88622">
        <ele>1304.2</ele>
        <time>2021-10-09 16:34:17</time>
      </trkpt>
      <trkpt lat="40.23246" lon="-1.88622">
        <ele>1303.8</ele>
        <time>2021-10-09 16:34:18</time>
      </trkpt>
      <trkpt lat="40.23235" lon="-1.88621">
        <ele>1303.4</ele>
        <time>2021-10-09 16:34:19</time>
      </trkpt>
      <trkpt lat="40.23225" lon="-1.8862">
        <ele>1303</ele>
        <time>2021-10-09 16:34:20</time>
      </trkpt>
      <trkpt lat="40.23214" lon="-1.88619">
        <ele>1302.6</ele>
        <time>2021-10-09 16:34:21</time>
      </trkpt>
      <trkpt lat="40.23203" lon="-1.88618">
        <ele>1302.4</ele>
        <time>2021-10-09 16:34:22</time>
      </trkpt>
      <trkpt lat="40.23193" lon="-1.88614">
        <ele>1302</ele>
        <time>2021-10-09 16:34:23</time>
      </trkpt>
      <trkpt lat="40.23183" lon="-1.88609">
        <ele>1301.6</ele>
        <time>2021-10-09 16:34:24</time>
      </trkpt>
      <trkpt lat="40.23173" lon="-1.88603">
        <ele>1301</ele>
        <time>2021-10-09 16:34:25</time>
      </trkpt>
      <trkpt lat="40.23163" lon="-1.88599">
        <ele>1300.6</ele>
        <time>2021-10-09 16:34:26</time>
      </trkpt>
      <trkpt lat="40.23152" lon="-1.88597">
        <ele>1300</ele>
        <time>2021-10-09 16:34:27</time>
      </trkpt>
      <trkpt lat="40.23141" lon="-1.88599">
        <ele>1299.6</ele>
        <time>2021-10-09 16:34:28</time>
      </trkpt>
      <trkpt lat="40.23131" lon="-1.88601">
        <ele>1299.2</ele>
        <time>2021-10-09 16:34:29</time>
      </trkpt>
      <trkpt lat="40.2312" lon="-1.88599">
        <ele>1298.6</ele>
        <time>2021-10-09 16:34:30</time>
      </trkpt>
      <trkpt lat="40.23109" lon="-1.88594">
        <ele>1298</ele>
        <time>2021-10-09 16:34:31</time>
      </trkpt>
      <trkpt lat="40.23098" lon="-1.88588">
        <ele>1297.4</ele>
        <time>2021-10-09 16:34:32</time>
      </trkpt>
      <trkpt lat="40.23089" lon="-1.8858">
        <ele>1296.8</ele>
        <time>2021-10-09 16:34:33</time>
      </trkpt>
      <trkpt lat="40.23079" lon="-1.88571">
        <ele>1296.4</ele>
        <time>2021-10-09 16:34:34</time>
      </trkpt>
      <trkpt lat="40.2307" lon="-1.88564">
        <ele>1296.2</ele>
        <time>2021-10-09 16:34:35</time>
      </trkpt>
      <trkpt lat="40.2306" lon="-1.88556">
        <ele>1295.6</ele>
        <time>2021-10-09 16:34:36</time>
      </trkpt>
      <trkpt lat="40.23051" lon="-1.88547">
        <ele>1295.2</ele>
        <time>2021-10-09 16:34:37</time>
      </trkpt>
      <trkpt lat="40.23041" lon="-1.88539">
        <ele>1294.6</ele>
        <time>2021-10-09 16:34:38</time>
      </trkpt>
      <trkpt lat="40.23032" lon="-1.8853">
        <ele>1294</ele>
        <time>2021-10-09 16:34:39</time>
      </trkpt>
      <trkpt lat="40.23022" lon="-1.88523">
        <ele>1293.4</ele>
        <time>2021-10-09 16:34:40</time>
      </trkpt>
      <trkpt lat="40.23012" lon="-1.88515">
        <ele>1292.6</ele>
        <time>2021-10-09 16:34:41</time>
      </trkpt>
      <trkpt lat="40.23001" lon="-1.88512">
        <ele>1292</ele>
        <time>2021-10-09 16:34:42</time>
      </trkpt>
      <trkpt lat="40.22988" lon="-1.88512">
        <ele>1291.2</ele>
        <time>2021-10-09 16:34:43</time>
      </trkpt>
      <trkpt lat="40.22978" lon="-1.88516">
        <ele>1290.6</ele>
        <time>2021-10-09 16:34:44</time>
      </trkpt>
      <trkpt lat="40.22968" lon="-1.88524">
        <ele>1290</ele>
        <time>2021-10-09 16:34:45</time>
      </trkpt>
      <trkpt lat="40.22961" lon="-1.88535">
        <ele>1289.4</ele>
        <time>2021-10-09 16:34:46</time>
      </trkpt>
      <trkpt lat="40.22953" lon="-1.88546">
        <ele>1288.6</ele>
        <time>2021-10-09 16:34:47</time>
      </trkpt>
      <trkpt lat="40.22942" lon="-1.88554">
        <ele>1287.8</ele>
        <time>2021-10-09 16:34:48</time>
      </trkpt>
      <trkpt lat="40.22931" lon="-1.88558">
        <ele>1287.2</ele>
        <time>2021-10-09 16:34:49</time>
      </trkpt>
      <trkpt lat="40.22919" lon="-1.88556">
        <ele>1286.4</ele>
        <time>2021-10-09 16:34:50</time>
      </trkpt>
      <trkpt lat="40.22908" lon="-1.88552">
        <ele>1286</ele>
        <time>2021-10-09 16:34:51</time>
      </trkpt>
      <trkpt lat="40.22898" lon="-1.88545">
        <ele>1285.4</ele>
        <time>2021-10-09 16:34:52</time>
      </trkpt>
      <trkpt lat="40.22888" lon="-1.88537">
        <ele>1285</ele>
        <time>2021-10-09 16:34:53</time>
      </trkpt>
      <trkpt lat="40.22878" lon="-1.8853">
        <ele>1284.4</ele>
        <time>2021-10-09 16:34:54</time>
      </trkpt>
      <trkpt lat="40.22868" lon="-1.88523">
        <ele>1284</ele>
        <time>2021-10-09 16:34:55</time>
      </trkpt>
      <trkpt lat="40.22858" lon="-1.88516">
        <ele>1283.6</ele>
        <time>2021-10-09 16:34:56</time>
      </trkpt>
      <trkpt lat="40.22848" lon="-1.8851">
        <ele>1283.2</ele>
        <time>2021-10-09 16:34:57</time>
      </trkpt>
      <trkpt lat="40.22838" lon="-1.88505">
        <ele>1282.8</ele>
        <time>2021-10-09 16:34:58</time>
      </trkpt>
      <trkpt lat="40.22828" lon="-1.885">
        <ele>1282.4</ele>
        <time>2021-10-09 16:34:59</time>
      </trkpt>
      <trkpt lat="40.22817" lon="-1.88494">
        <ele>1281.8</ele>
        <time>2021-10-09 16:35:00</time>
      </trkpt>
      <trkpt lat="40.22806" lon="-1.8849">
        <ele>1281.4</ele>
        <time>2021-10-09 16:35:01</time>
      </trkpt>
      <trkpt lat="40.22797" lon="-1.88485">
        <ele>1281</ele>
        <time>2021-10-09 16:35:02</time>
      </trkpt>
      <trkpt lat="40.22786" lon="-1.88479">
        <ele>1280.6</ele>
        <time>2021-10-09 16:35:03</time>
      </trkpt>
      <trkpt lat="40.22776" lon="-1.88474">
        <ele>1280.2</ele>
        <time>2021-10-09 16:35:04</time>
      </trkpt>
      <trkpt lat="40.22766" lon="-1.88468">
        <ele>1280</ele>
        <time>2021-10-09 16:35:05</time>
      </trkpt>
      <trkpt lat="40.22757" lon="-1.88464">
        <ele>1279.6</ele>
        <time>2021-10-09 16:35:06</time>
      </trkpt>
      <trkpt lat="40.22747" lon="-1.88459">
        <ele>1279.2</ele>
        <time>2021-10-09 16:35:07</time>
      </trkpt>
      <trkpt lat="40.22738" lon="-1.88455">
        <ele>1278.8</ele>
        <time>2021-10-09 16:35:08</time>
      </trkpt>
      <trkpt lat="40.22729" lon="-1.8845">
        <ele>1278.4</ele>
        <time>2021-10-09 16:35:09</time>
      </trkpt>
      <trkpt lat="40.22719" lon="-1.88446">
        <ele>1278</ele>
        <time>2021-10-09 16:35:10</time>
      </trkpt>
      <trkpt lat="40.22709" lon="-1.88441">
        <ele>1277.6</ele>
        <time>2021-10-09 16:35:11</time>
      </trkpt>
      <trkpt lat="40.227" lon="-1.88437">
        <ele>1277.4</ele>
        <time>2021-10-09 16:35:12</time>
      </trkpt>
      <trkpt lat="40.22691" lon="-1.88433">
        <ele>1277.2</ele>
        <time>2021-10-09 16:35:13</time>
      </trkpt>
      <trkpt lat="40.2268" lon="-1.88429">
        <ele>1276.8</ele>
        <time>2021-10-09 16:35:14</time>
      </trkpt>
      <trkpt lat="40.2267" lon="-1.88428">
        <ele>1276.4</ele>
        <time>2021-10-09 16:35:15</time>
      </trkpt>
      <trkpt lat="40.2266" lon="-1.88429">
        <ele>1275.8</ele>
        <time>2021-10-09 16:35:16</time>
      </trkpt>
      <trkpt lat="40.22649" lon="-1.8843">
        <ele>1275.4</ele>
        <time>2021-10-09 16:35:17</time>
      </trkpt>
      <trkpt lat="40.22638" lon="-1.88433">
        <ele>1275</ele>
        <time>2021-10-09 16:35:18</time>
      </trkpt>
      <trkpt lat="40.22628" lon="-1.88435">
        <ele>1274.6</ele>
        <time>2021-10-09 16:35:19</time>
      </trkpt>
      <trkpt lat="40.22618" lon="-1.88437">
        <ele>1274.2</ele>
        <time>2021-10-09 16:35:20</time>
      </trkpt>
      <trkpt lat="40.22607" lon="-1.88439">
        <ele>1273.8</ele>
        <time>2021-10-09 16:35:21</time>
      </trkpt>
      <trkpt lat="40.22597" lon="-1.8844">
        <ele>1273.4</ele>
        <time>2021-10-09 16:35:22</time>
      </trkpt>
      <trkpt lat="40.22587" lon="-1.88443">
        <ele>1273</ele>
        <time>2021-10-09 16:35:23</time>
      </trkpt>
      <trkpt lat="40.22577" lon="-1.88445">
        <ele>1272.6</ele>
        <time>2021-10-09 16:35:24</time>
      </trkpt>
      <trkpt lat="40.22566" lon="-1.88447">
        <ele>1272.2</ele>
        <time>2021-10-09 16:35:25</time>
      </trkpt>
      <trkpt lat="40.22556" lon="-1.8845">
        <ele>1271.8</ele>
        <time>2021-10-09 16:35:26</time>
      </trkpt>
      <trkpt lat="40.22545" lon="-1.88451">
        <ele>1271.4</ele>
        <time>2021-10-09 16:35:27</time>
      </trkpt>
      <trkpt lat="40.22536" lon="-1.88454">
        <ele>1271</ele>
        <time>2021-10-09 16:35:28</time>
      </trkpt>
      <trkpt lat="40.22526" lon="-1.88456">
        <ele>1270.6</ele>
        <time>2021-10-09 16:35:29</time>
      </trkpt>
      <trkpt lat="40.22516" lon="-1.88458">
        <ele>1270.2</ele>
        <time>2021-10-09 16:35:30</time>
      </trkpt>
      <trkpt lat="40.22506" lon="-1.8846">
        <ele>1270</ele>
        <time>2021-10-09 16:35:31</time>
      </trkpt>
      <trkpt lat="40.22496" lon="-1.88462">
        <ele>1269.6</ele>
        <time>2021-10-09 16:35:32</time>
      </trkpt>
      <trkpt lat="40.22487" lon="-1.88464">
        <ele>1269.4</ele>
        <time>2021-10-09 16:35:33</time>
      </trkpt>
      <trkpt lat="40.22477" lon="-1.88466">
        <ele>1269.4</ele>
        <time>2021-10-09 16:35:34</time>
      </trkpt>
      <trkpt lat="40.22468" lon="-1.88467">
        <ele>1269</ele>
        <time>2021-10-09 16:35:35</time>
      </trkpt>
      <trkpt lat="40.22459" lon="-1.88469">
        <ele>1269</ele>
        <time>2021-10-09 16:35:36</time>
      </trkpt>
      <trkpt lat="40.2245" lon="-1.88471">
        <ele>1268.8</ele>
        <time>2021-10-09 16:35:37</time>
      </trkpt>
      <trkpt lat="40.22442" lon="-1.88472">
        <ele>1268.8</ele>
        <time>2021-10-09 16:35:38</time>
      </trkpt>
      <trkpt lat="40.22433" lon="-1.88473">
        <ele>1268.8</ele>
        <time>2021-10-09 16:35:39</time>
      </trkpt>
      <trkpt lat="40.22425" lon="-1.88475">
        <ele>1268.8</ele>
        <time>2021-10-09 16:35:40</time>
      </trkpt>
      <trkpt lat="40.22417" lon="-1.88475">
        <ele>1268.8</ele>
        <time>2021-10-09 16:35:41</time>
      </trkpt>
      <trkpt lat="40.22409" lon="-1.88477">
        <ele>1268.8</ele>
        <time>2021-10-09 16:35:42</time>
      </trkpt>
      <trkpt lat="40.22401" lon="-1.8848">
        <ele>1268.6</ele>
        <time>2021-10-09 16:35:43</time>
      </trkpt>
      <trkpt lat="40.22393" lon="-1.88482">
        <ele>1268.6</ele>
        <time>2021-10-09 16:35:44</time>
      </trkpt>
      <trkpt lat="40.22386" lon="-1.88486">
        <ele>1268.4</ele>
        <time>2021-10-09 16:35:45</time>
      </trkpt>
      <trkpt lat="40.22378" lon="-1.8849">
        <ele>1268.4</ele>
        <time>2021-10-09 16:35:46</time>
      </trkpt>
      <trkpt lat="40.2237" lon="-1.88495">
        <ele>1268</ele>
        <time>2021-10-09 16:35:47</time>
      </trkpt>
      <trkpt lat="40.22363" lon="-1.88501">
        <ele>1267.8</ele>
        <time>2021-10-09 16:35:48</time>
      </trkpt>
      <trkpt lat="40.22355" lon="-1.88508">
        <ele>1267.4</ele>
        <time>2021-10-09 16:35:49</time>
      </trkpt>
      <trkpt lat="40.22348" lon="-1.88514">
        <ele>1267.2</ele>
        <time>2021-10-09 16:35:50</time>
      </trkpt>
      <trkpt lat="40.2234" lon="-1.8852">
        <ele>1266.6</ele>
        <time>2021-10-09 16:35:51</time>
      </trkpt>
      <trkpt lat="40.22332" lon="-1.88527">
        <ele>1266.2</ele>
        <time>2021-10-09 16:35:52</time>
      </trkpt>
      <trkpt lat="40.22324" lon="-1.88533">
        <ele>1265.8</ele>
        <time>2021-10-09 16:35:53</time>
      </trkpt>
      <trkpt lat="40.22316" lon="-1.8854">
        <ele>1265.8</ele>
        <time>2021-10-09 16:35:54</time>
      </trkpt>
      <trkpt lat="40.22307" lon="-1.88546">
        <ele>1265.2</ele>
        <time>2021-10-09 16:35:55</time>
      </trkpt>
      <trkpt lat="40.22298" lon="-1.88551">
        <ele>1264.8</ele>
        <time>2021-10-09 16:35:56</time>
      </trkpt>
      <trkpt lat="40.22289" lon="-1.88553">
        <ele>1264.6</ele>
        <time>2021-10-09 16:35:57</time>
      </trkpt>
      <trkpt lat="40.22279" lon="-1.88553">
        <ele>1264.2</ele>
        <time>2021-10-09 16:35:58</time>
      </trkpt>
      <trkpt lat="40.22269" lon="-1.88551">
        <ele>1264</ele>
        <time>2021-10-09 16:35:59</time>
      </trkpt>
      <trkpt lat="40.2226" lon="-1.88547">
        <ele>1263.6</ele>
        <time>2021-10-09 16:36:00</time>
      </trkpt>
      <trkpt lat="40.22251" lon="-1.88543">
        <ele>1263</ele>
        <time>2021-10-09 16:36:01</time>
      </trkpt>
      <trkpt lat="40.22242" lon="-1.88538">
        <ele>1262.6</ele>
        <time>2021-10-09 16:36:02</time>
      </trkpt>
      <trkpt lat="40.22232" lon="-1.88533">
        <ele>1262</ele>
        <time>2021-10-09 16:36:03</time>
      </trkpt>
      <trkpt lat="40.22223" lon="-1.88528">
        <ele>1261.6</ele>
        <time>2021-10-09 16:36:04</time>
      </trkpt>
      <trkpt lat="40.22214" lon="-1.88525">
        <ele>1261</ele>
        <time>2021-10-09 16:36:05</time>
      </trkpt>
      <trkpt lat="40.22204" lon="-1.88526">
        <ele>1260.6</ele>
        <time>2021-10-09 16:36:06</time>
      </trkpt>
      <trkpt lat="40.22195" lon="-1.8853">
        <ele>1260.4</ele>
        <time>2021-10-09 16:36:07</time>
      </trkpt>
      <trkpt lat="40.22186" lon="-1.88535">
        <ele>1260</ele>
        <time>2021-10-09 16:36:08</time>
      </trkpt>
      <trkpt lat="40.22178" lon="-1.88541">
        <ele>1259.6</ele>
        <time>2021-10-09 16:36:09</time>
      </trkpt>
      <trkpt lat="40.22169" lon="-1.88548">
        <ele>1259.2</ele>
        <time>2021-10-09 16:36:10</time>
      </trkpt>
      <trkpt lat="40.22161" lon="-1.88555">
        <ele>1258.8</ele>
        <time>2021-10-09 16:36:11</time>
      </trkpt>
      <trkpt lat="40.22152" lon="-1.88561">
        <ele>1258.6</ele>
        <time>2021-10-09 16:36:12</time>
      </trkpt>
      <trkpt lat="40.22143" lon="-1.88563">
        <ele>1258.6</ele>
        <time>2021-10-09 16:36:13</time>
      </trkpt>
      <trkpt lat="40.22134" lon="-1.88563">
        <ele>1258.2</ele>
        <time>2021-10-09 16:36:14</time>
      </trkpt>
      <trkpt lat="40.22125" lon="-1.8856">
        <ele>1258.2</ele>
        <time>2021-10-09 16:36:15</time>
      </trkpt>
      <trkpt lat="40.22118" lon="-1.88555">
        <ele>1257.8</ele>
        <time>2021-10-09 16:36:16</time>
      </trkpt>
      <trkpt lat="40.2211" lon="-1.88549">
        <ele>1257.4</ele>
        <time>2021-10-09 16:36:17</time>
      </trkpt>
      <trkpt lat="40.22102" lon="-1.88543">
        <ele>1257</ele>
        <time>2021-10-09 16:36:18</time>
      </trkpt>
      <trkpt lat="40.22094" lon="-1.88536">
        <ele>1256.8</ele>
        <time>2021-10-09 16:36:19</time>
      </trkpt>
      <trkpt lat="40.22086" lon="-1.88531">
        <ele>1256.4</ele>
        <time>2021-10-09 16:36:20</time>
      </trkpt>
      <trkpt lat="40.22077" lon="-1.88528">
        <ele>1256</ele>
        <time>2021-10-09 16:36:21</time>
      </trkpt>
      <trkpt lat="40.22068" lon="-1.88526">
        <ele>1255.6</ele>
        <time>2021-10-09 16:36:22</time>
      </trkpt>
      <trkpt lat="40.22059" lon="-1.88527">
        <ele>1255.2</ele>
        <time>2021-10-09 16:36:23</time>
      </trkpt>
      <trkpt lat="40.2205" lon="-1.8853">
        <ele>1255</ele>
        <time>2021-10-09 16:36:24</time>
      </trkpt>
      <trkpt lat="40.22041" lon="-1.88534">
        <ele>1254.6</ele>
        <time>2021-10-09 16:36:25</time>
      </trkpt>
      <trkpt lat="40.22032" lon="-1.88539">
        <ele>1254.2</ele>
        <time>2021-10-09 16:36:26</time>
      </trkpt>
      <trkpt lat="40.22023" lon="-1.88544">
        <ele>1253.8</ele>
        <time>2021-10-09 16:36:27</time>
      </trkpt>
      <trkpt lat="40.22015" lon="-1.8855">
        <ele>1253.4</ele>
        <time>2021-10-09 16:36:28</time>
      </trkpt>
      <trkpt lat="40.22007" lon="-1.88556">
        <ele>1253</ele>
        <time>2021-10-09 16:36:29</time>
      </trkpt>
      <trkpt lat="40.21998" lon="-1.88563">
        <ele>1252.4</ele>
        <time>2021-10-09 16:36:30</time>
      </trkpt>
      <trkpt lat="40.21991" lon="-1.88572">
        <ele>1251.8</ele>
        <time>2021-10-09 16:36:31</time>
      </trkpt>
      <trkpt lat="40.21985" lon="-1.88583">
        <ele>1251.4</ele>
        <time>2021-10-09 16:36:32</time>
      </trkpt>
      <trkpt lat="40.21981" lon="-1.88594">
        <ele>1250.8</ele>
        <time>2021-10-09 16:36:33</time>
      </trkpt>
      <trkpt lat="40.21976" lon="-1.88607">
        <ele>1250.2</ele>
        <time>2021-10-09 16:36:34</time>
      </trkpt>
      <trkpt lat="40.21972" lon="-1.8862">
        <ele>1249.6</ele>
        <time>2021-10-09 16:36:35</time>
      </trkpt>
      <trkpt lat="40.21967" lon="-1.88632">
        <ele>1249.2</ele>
        <time>2021-10-09 16:36:36</time>
      </trkpt>
      <trkpt lat="40.21962" lon="-1.88644">
        <ele>1248.6</ele>
        <time>2021-10-09 16:36:37</time>
      </trkpt>
      <trkpt lat="40.21955" lon="-1.88655">
        <ele>1248</ele>
        <time>2021-10-09 16:36:38</time>
      </trkpt>
      <trkpt lat="40.21946" lon="-1.88663">
        <ele>1247.6</ele>
        <time>2021-10-09 16:36:39</time>
      </trkpt>
      <trkpt lat="40.21937" lon="-1.8867">
        <ele>1246.8</ele>
        <time>2021-10-09 16:36:40</time>
      </trkpt>
      <trkpt lat="40.21928" lon="-1.88676">
        <ele>1246.2</ele>
        <time>2021-10-09 16:36:41</time>
      </trkpt>
      <trkpt lat="40.21918" lon="-1.88682">
        <ele>1245.8</ele>
        <time>2021-10-09 16:36:42</time>
      </trkpt>
      <trkpt lat="40.21908" lon="-1.88688">
        <ele>1245.2</ele>
        <time>2021-10-09 16:36:43</time>
      </trkpt>
      <trkpt lat="40.21898" lon="-1.88693">
        <ele>1244.6</ele>
        <time>2021-10-09 16:36:44</time>
      </trkpt>
      <trkpt lat="40.21888" lon="-1.88698">
        <ele>1244.2</ele>
        <time>2021-10-09 16:36:45</time>
      </trkpt>
      <trkpt lat="40.21879" lon="-1.88704">
        <ele>1243.6</ele>
        <time>2021-10-09 16:36:46</time>
      </trkpt>
      <trkpt lat="40.2187" lon="-1.88712">
        <ele>1243</ele>
        <time>2021-10-09 16:36:47</time>
      </trkpt>
      <trkpt lat="40.21863" lon="-1.88722">
        <ele>1242.4</ele>
        <time>2021-10-09 16:36:48</time>
      </trkpt>
      <trkpt lat="40.21856" lon="-1.88733">
        <ele>1242</ele>
        <time>2021-10-09 16:36:49</time>
      </trkpt>
      <trkpt lat="40.2185" lon="-1.88745">
        <ele>1241.2</ele>
        <time>2021-10-09 16:36:50</time>
      </trkpt>
      <trkpt lat="40.21845" lon="-1.88758">
        <ele>1240.6</ele>
        <time>2021-10-09 16:36:51</time>
      </trkpt>
      <trkpt lat="40.21839" lon="-1.8877">
        <ele>1239.8</ele>
        <time>2021-10-09 16:36:52</time>
      </trkpt>
      <trkpt lat="40.21834" lon="-1.88782">
        <ele>1239.2</ele>
        <time>2021-10-09 16:36:53</time>
      </trkpt>
      <trkpt lat="40.2183" lon="-1.88796">
        <ele>1238.4</ele>
        <time>2021-10-09 16:36:54</time>
      </trkpt>
      <trkpt lat="40.21828" lon="-1.88811">
        <ele>1237.8</ele>
        <time>2021-10-09 16:36:55</time>
      </trkpt>
      <trkpt lat="40.21825" lon="-1.88825">
        <ele>1237</ele>
        <time>2021-10-09 16:36:56</time>
      </trkpt>
      <trkpt lat="40.2182" lon="-1.88838">
        <ele>1236.4</ele>
        <time>2021-10-09 16:36:57</time>
      </trkpt>
      <trkpt lat="40.21813" lon="-1.88851">
        <ele>1235.8</ele>
        <time>2021-10-09 16:36:58</time>
      </trkpt>
      <trkpt lat="40.21806" lon="-1.88863">
        <ele>1235</ele>
        <time>2021-10-09 16:36:59</time>
      </trkpt>
      <trkpt lat="40.218" lon="-1.88876">
        <ele>1234.4</ele>
        <time>2021-10-09 16:37:00</time>
      </trkpt>
      <trkpt lat="40.21798" lon="-1.88891">
        <ele>1233.8</ele>
        <time>2021-10-09 16:37:01</time>
      </trkpt>
      <trkpt lat="40.21794" lon="-1.88906">
        <ele>1233.2</ele>
        <time>2021-10-09 16:37:02</time>
      </trkpt>
      <trkpt lat="40.21787" lon="-1.8892">
        <ele>1232.4</ele>
        <time>2021-10-09 16:37:03</time>
      </trkpt>
      <trkpt lat="40.2178" lon="-1.8893">
        <ele>1231.8</ele>
        <time>2021-10-09 16:37:04</time>
      </trkpt>
      <trkpt lat="40.21766" lon="-1.88933">
        <ele>1231</ele>
        <time>2021-10-09 16:37:05</time>
      </trkpt>
      <trkpt lat="40.21756" lon="-1.88943">
        <ele>1230.4</ele>
        <time>2021-10-09 16:37:06</time>
      </trkpt>
      <trkpt lat="40.21748" lon="-1.88955">
        <ele>1229.6</ele>
        <time>2021-10-09 16:37:07</time>
      </trkpt>
      <trkpt lat="40.21741" lon="-1.88968">
        <ele>1228.8</ele>
        <time>2021-10-09 16:37:08</time>
      </trkpt>
      <trkpt lat="40.21735" lon="-1.88981">
        <ele>1228.2</ele>
        <time>2021-10-09 16:37:09</time>
      </trkpt>
      <trkpt lat="40.21731" lon="-1.88997">
        <ele>1227.4</ele>
        <time>2021-10-09 16:37:10</time>
      </trkpt>
      <trkpt lat="40.21727" lon="-1.89011">
        <ele>1226.8</ele>
        <time>2021-10-09 16:37:11</time>
      </trkpt>
      <trkpt lat="40.21722" lon="-1.89026">
        <ele>1226</ele>
        <time>2021-10-09 16:37:12</time>
      </trkpt>
      <trkpt lat="40.21718" lon="-1.89041">
        <ele>1225.2</ele>
        <time>2021-10-09 16:37:13</time>
      </trkpt>
      <trkpt lat="40.21713" lon="-1.89056">
        <ele>1224.4</ele>
        <time>2021-10-09 16:37:14</time>
      </trkpt>
      <trkpt lat="40.21708" lon="-1.89071">
        <ele>1223.8</ele>
        <time>2021-10-09 16:37:15</time>
      </trkpt>
      <trkpt lat="40.21704" lon="-1.89085">
        <ele>1223.2</ele>
        <time>2021-10-09 16:37:16</time>
      </trkpt>
      <trkpt lat="40.21698" lon="-1.89099">
        <ele>1222.4</ele>
        <time>2021-10-09 16:37:17</time>
      </trkpt>
      <trkpt lat="40.21692" lon="-1.89113">
        <ele>1221.6</ele>
        <time>2021-10-09 16:37:18</time>
      </trkpt>
      <trkpt lat="40.21686" lon="-1.89127">
        <ele>1221</ele>
        <time>2021-10-09 16:37:19</time>
      </trkpt>
      <trkpt lat="40.2168" lon="-1.89141">
        <ele>1220.2</ele>
        <time>2021-10-09 16:37:20</time>
      </trkpt>
      <trkpt lat="40.21673" lon="-1.89154">
        <ele>1219.6</ele>
        <time>2021-10-09 16:37:21</time>
      </trkpt>
      <trkpt lat="40.21666" lon="-1.89167">
        <ele>1218.8</ele>
        <time>2021-10-09 16:37:22</time>
      </trkpt>
      <trkpt lat="40.2166" lon="-1.89181">
        <ele>1218.2</ele>
        <time>2021-10-09 16:37:23</time>
      </trkpt>
      <trkpt lat="40.21653" lon="-1.89194">
        <ele>1217.4</ele>
        <time>2021-10-09 16:37:24</time>
      </trkpt>
      <trkpt lat="40.21647" lon="-1.89208">
        <ele>1216.8</ele>
        <time>2021-10-09 16:37:25</time>
      </trkpt>
      <trkpt lat="40.21643" lon="-1.89223">
        <ele>1216</ele>
        <time>2021-10-09 16:37:26</time>
      </trkpt>
      <trkpt lat="40.2164" lon="-1.89239">
        <ele>1215.2</ele>
        <time>2021-10-09 16:37:27</time>
      </trkpt>
      <trkpt lat="40.21639" lon="-1.89255">
        <ele>1214.4</ele>
        <time>2021-10-09 16:37:28</time>
      </trkpt>
      <trkpt lat="40.21637" lon="-1.89271">
        <ele>1213.6</ele>
        <time>2021-10-09 16:37:29</time>
      </trkpt>
      <trkpt lat="40.21634" lon="-1.89287">
        <ele>1212.8</ele>
        <time>2021-10-09 16:37:30</time>
      </trkpt>
      <trkpt lat="40.21633" lon="-1.89303">
        <ele>1212</ele>
        <time>2021-10-09 16:37:31</time>
      </trkpt>
      <trkpt lat="40.21634" lon="-1.89318">
        <ele>1211.4</ele>
        <time>2021-10-09 16:37:32</time>
      </trkpt>
      <trkpt lat="40.21636" lon="-1.89335">
        <ele>1210.6</ele>
        <time>2021-10-09 16:37:33</time>
      </trkpt>
      <trkpt lat="40.2164" lon="-1.8935">
        <ele>1209.8</ele>
        <time>2021-10-09 16:37:34</time>
      </trkpt>
      <trkpt lat="40.21643" lon="-1.89365">
        <ele>1209</ele>
        <time>2021-10-09 16:37:35</time>
      </trkpt>
      <trkpt lat="40.21645" lon="-1.89379">
        <ele>1208.2</ele>
        <time>2021-10-09 16:37:36</time>
      </trkpt>
      <trkpt lat="40.21643" lon="-1.89393">
        <ele>1207.6</ele>
        <time>2021-10-09 16:37:37</time>
      </trkpt>
      <trkpt lat="40.21638" lon="-1.89405">
        <ele>1206.8</ele>
        <time>2021-10-09 16:37:38</time>
      </trkpt>
      <trkpt lat="40.21633" lon="-1.89415">
        <ele>1206</ele>
        <time>2021-10-09 16:37:39</time>
      </trkpt>
      <trkpt lat="40.21629" lon="-1.89423">
        <ele>1205.4</ele>
        <time>2021-10-09 16:37:40</time>
      </trkpt>
      <trkpt lat="40.21625" lon="-1.89429">
        <ele>1204.8</ele>
        <time>2021-10-09 16:37:41</time>
      </trkpt>
      <trkpt lat="40.21622" lon="-1.89434">
        <ele>1204.2</ele>
        <time>2021-10-09 16:37:42</time>
      </trkpt>
      <trkpt lat="40.2162" lon="-1.89438">
        <ele>1203.8</ele>
        <time>2021-10-09 16:37:43</time>
      </trkpt>
      <trkpt lat="40.21619" lon="-1.89437">
        <ele>1203.4</ele>
        <time>2021-10-09 16:37:44</time>
      </trkpt>
      <trkpt lat="40.21619" lon="-1.89438">
        <ele>1203</ele>
        <time>2021-10-09 16:37:45</time>
      </trkpt>
      <trkpt lat="40.21619" lon="-1.89438">
        <ele>1202.8</ele>
        <time>2021-10-09 16:37:46</time>
      </trkpt>
      <trkpt lat="40.21618" lon="-1.89438">
        <ele>1202.8</ele>
        <time>2021-10-09 16:37:47</time>
      </trkpt>
      <trkpt lat="40.21617" lon="-1.89437">
        <ele>1202.4</ele>
        <time>2021-10-09 16:37:48</time>
      </trkpt>
      <trkpt lat="40.21614" lon="-1.89438">
        <ele>1202.4</ele>
        <time>2021-10-09 16:37:49</time>
      </trkpt>
      <trkpt lat="40.21612" lon="-1.89438">
        <ele>1202.2</ele>
        <time>2021-10-09 16:37:50</time>
      </trkpt>
      <trkpt lat="40.2161" lon="-1.89436">
        <ele>1202.2</ele>
        <time>2021-10-09 16:37:51</time>
      </trkpt>
      <trkpt lat="40.21609" lon="-1.89434">
        <ele>1202.2</ele>
        <time>2021-10-09 16:38:09</time>
      </trkpt>
      <trkpt lat="40.21608" lon="-1.89431">
        <ele>1202.2</ele>
        <time>2021-10-09 16:38:10</time>
      </trkpt>
      <trkpt lat="40.21608" lon="-1.89426">
        <ele>1202.2</ele>
        <time>2021-10-09 16:38:11</time>
      </trkpt>
      <trkpt lat="40.21608" lon="-1.89422">
        <ele>1202.2</ele>
        <time>2021-10-09 16:38:12</time>
      </trkpt>
      <trkpt lat="40.21608" lon="-1.89417">
        <ele>1202.2</ele>
        <time>2021-10-09 16:38:13</time>
      </trkpt>
      <trkpt lat="40.21609" lon="-1.89411">
        <ele>1202.2</ele>
        <time>2021-10-09 16:38:14</time>
      </trkpt>
      <trkpt lat="40.21612" lon="-1.89406">
        <ele>1202.2</ele>
        <time>2021-10-09 16:38:15</time>
      </trkpt>
      <trkpt lat="40.21612" lon="-1.89399">
        <ele>1202.2</ele>
        <time>2021-10-09 16:38:16</time>
      </trkpt>
      <trkpt lat="40.21613" lon="-1.89393">
        <ele>1202.2</ele>
        <time>2021-10-09 16:38:17</time>
      </trkpt>
      <trkpt lat="40.21614" lon="-1.89386">
        <ele>1202.2</ele>
        <time>2021-10-09 16:38:18</time>
      </trkpt>
      <trkpt lat="40.21614" lon="-1.89379">
        <ele>1202.4</ele>
        <time>2021-10-09 16:38:19</time>
      </trkpt>
      <trkpt lat="40.21613" lon="-1.89372">
        <ele>1202.4</ele>
        <time>2021-10-09 16:38:20</time>
      </trkpt>
      <trkpt lat="40.21613" lon="-1.89364">
        <ele>1202.4</ele>
        <time>2021-10-09 16:38:21</time>
      </trkpt>
      <trkpt lat="40.21613" lon="-1.89357">
        <ele>1202.6</ele>
        <time>2021-10-09 16:38:22</time>
      </trkpt>
      <trkpt lat="40.21613" lon="-1.8935">
        <ele>1202.6</ele>
        <time>2021-10-09 16:38:23</time>
      </trkpt>
      <trkpt lat="40.21613" lon="-1.89343">
        <ele>1203</ele>
        <time>2021-10-09 16:38:24</time>
      </trkpt>
      <trkpt lat="40.21613" lon="-1.89336">
        <ele>1203.2</ele>
        <time>2021-10-09 16:38:25</time>
      </trkpt>
      <trkpt lat="40.21614" lon="-1.8933">
        <ele>1203.2</ele>
        <time>2021-10-09 16:38:26</time>
      </trkpt>
      <trkpt lat="40.21614" lon="-1.89326">
        <ele>1203.4</ele>
        <time>2021-10-09 16:38:27</time>
      </trkpt>
      <trkpt lat="40.21614" lon="-1.89322">
        <ele>1203.6</ele>
        <time>2021-10-09 16:38:28</time>
      </trkpt>
      <trkpt lat="40.21615" lon="-1.89318">
        <ele>1204</ele>
        <time>2021-10-09 16:38:29</time>
      </trkpt>
      <trkpt lat="40.21616" lon="-1.89314">
        <ele>1204.2</ele>
        <time>2021-10-09 16:38:30</time>
      </trkpt>
      <trkpt lat="40.21616" lon="-1.89311">
        <ele>1204.4</ele>
        <time>2021-10-09 16:38:31</time>
      </trkpt>
      <trkpt lat="40.21616" lon="-1.89308">
        <ele>1204.4</ele>
        <time>2021-10-09 16:38:32</time>
      </trkpt>
      <trkpt lat="40.21617" lon="-1.89303">
        <ele>1204.8</ele>
        <time>2021-10-09 16:38:33</time>
      </trkpt>
      <trkpt lat="40.21617" lon="-1.89301">
        <ele>1205</ele>
        <time>2021-10-09 16:38:34</time>
      </trkpt>
      <trkpt lat="40.21617" lon="-1.89297">
        <ele>1205</ele>
        <time>2021-10-09 16:38:35</time>
      </trkpt>
      <trkpt lat="40.21617" lon="-1.89294">
        <ele>1205.4</ele>
        <time>2021-10-09 16:38:36</time>
      </trkpt>
      <trkpt lat="40.21618" lon="-1.89291">
        <ele>1205.4</ele>
        <time>2021-10-09 16:38:37</time>
      </trkpt>
      <trkpt lat="40.21618" lon="-1.89288">
        <ele>1205.6</ele>
        <time>2021-10-09 16:38:38</time>
      </trkpt>
      <trkpt lat="40.21618" lon="-1.89285">
        <ele>1205.6</ele>
        <time>2021-10-09 16:38:39</time>
      </trkpt>
      <trkpt lat="40.21619" lon="-1.89282">
        <ele>1206</ele>
        <time>2021-10-09 16:38:40</time>
      </trkpt>
      <trkpt lat="40.21619" lon="-1.89279">
        <ele>1206</ele>
        <time>2021-10-09 16:38:41</time>
      </trkpt>
      <trkpt lat="40.2162" lon="-1.89276">
        <ele>1206.4</ele>
        <time>2021-10-09 16:38:42</time>
      </trkpt>
      <trkpt lat="40.2162" lon="-1.89273">
        <ele>1206.6</ele>
        <time>2021-10-09 16:38:43</time>
      </trkpt>
      <trkpt lat="40.21621" lon="-1.8927">
        <ele>1206.6</ele>
        <time>2021-10-09 16:38:44</time>
      </trkpt>
      <trkpt lat="40.21621" lon="-1.89267">
        <ele>1207</ele>
        <time>2021-10-09 16:38:45</time>
      </trkpt>
      <trkpt lat="40.21622" lon="-1.89263">
        <ele>1207</ele>
        <time>2021-10-09 16:38:46</time>
      </trkpt>
      <trkpt lat="40.21623" lon="-1.8926">
        <ele>1207.4</ele>
        <time>2021-10-09 16:38:47</time>
      </trkpt>
      <trkpt lat="40.21623" lon="-1.89257">
        <ele>1207.6</ele>
        <time>2021-10-09 16:38:48</time>
      </trkpt>
      <trkpt lat="40.21623" lon="-1.89254">
        <ele>1207.6</ele>
        <time>2021-10-09 16:38:49</time>
      </trkpt>
      <trkpt lat="40.21624" lon="-1.89251">
        <ele>1208</ele>
        <time>2021-10-09 16:38:50</time>
      </trkpt>
      <trkpt lat="40.21625" lon="-1.89247">
        <ele>1208</ele>
        <time>2021-10-09 16:38:51</time>
      </trkpt>
      <trkpt lat="40.21625" lon="-1.89244">
        <ele>1208.2</ele>
        <time>2021-10-09 16:38:52</time>
      </trkpt>
      <trkpt lat="40.21625" lon="-1.89241">
        <ele>1208.2</ele>
        <time>2021-10-09 16:38:53</time>
      </trkpt>
      <trkpt lat="40.21626" lon="-1.89237">
        <ele>1208.6</ele>
        <time>2021-10-09 16:38:54</time>
      </trkpt>
      <trkpt lat="40.21626" lon="-1.89235">
        <ele>1208.6</ele>
        <time>2021-10-09 16:38:55</time>
      </trkpt>
      <trkpt lat="40.21626" lon="-1.89232">
        <ele>1208.8</ele>
        <time>2021-10-09 16:38:56</time>
      </trkpt>
      <trkpt lat="40.21627" lon="-1.89228">
        <ele>1209</ele>
        <time>2021-10-09 16:38:57</time>
      </trkpt>
      <trkpt lat="40.21628" lon="-1.89225">
        <ele>1209</ele>
        <time>2021-10-09 16:38:58</time>
      </trkpt>
      <trkpt lat="40.21628" lon="-1.89222">
        <ele>1209.4</ele>
        <time>2021-10-09 16:38:59</time>
      </trkpt>
      <trkpt lat="40.21629" lon="-1.89218">
        <ele>1209.4</ele>
        <time>2021-10-09 16:39:00</time>
      </trkpt>
      <trkpt lat="40.2163" lon="-1.89215">
        <ele>1209.6</ele>
        <time>2021-10-09 16:39:01</time>
      </trkpt>
      <trkpt lat="40.2163" lon="-1.89212">
        <ele>1209.6</ele>
        <time>2021-10-09 16:39:02</time>
      </trkpt>
      <trkpt lat="40.2163" lon="-1.89208">
        <ele>1210</ele>
        <time>2021-10-09 16:39:03</time>
      </trkpt>
      <trkpt lat="40.21631" lon="-1.89205">
        <ele>1210</ele>
        <time>2021-10-09 16:39:04</time>
      </trkpt>
      <trkpt lat="40.21632" lon="-1.89202">
        <ele>1209.6</ele>
        <time>2021-10-09 16:39:05</time>
      </trkpt>
      <trkpt lat="40.21633" lon="-1.89199">
        <ele>1210</ele>
        <time>2021-10-09 16:39:06</time>
      </trkpt>
      <trkpt lat="40.21633" lon="-1.89196">
        <ele>1210.6</ele>
        <time>2021-10-09 16:39:07</time>
      </trkpt>
      <trkpt lat="40.21636" lon="-1.89184">
        <ele>1211.6</ele>
        <time>2021-10-09 16:39:08</time>
      </trkpt>
      <trkpt lat="40.21637" lon="-1.89181">
        <ele>1211.8</ele>
        <time>2021-10-09 16:39:09</time>
      </trkpt>
      <trkpt lat="40.21637" lon="-1.89178">
        <ele>1211.8</ele>
        <time>2021-10-09 16:39:10</time>
      </trkpt>
      <trkpt lat="40.21638" lon="-1.89174">
        <ele>1211.8</ele>
        <time>2021-10-09 16:39:11</time>
      </trkpt>
      <trkpt lat="40.21639" lon="-1.89172">
        <ele>1212.2</ele>
        <time>2021-10-09 16:39:12</time>
      </trkpt>
      <trkpt lat="40.2164" lon="-1.89169">
        <ele>1212.4</ele>
        <time>2021-10-09 16:39:13</time>
      </trkpt>
      <trkpt lat="40.21641" lon="-1.89166">
        <ele>1212.4</ele>
        <time>2021-10-09 16:39:14</time>
      </trkpt>
      <trkpt lat="40.21641" lon="-1.89163">
        <ele>1212.6</ele>
        <time>2021-10-09 16:39:15</time>
      </trkpt>
      <trkpt lat="40.21642" lon="-1.8916">
        <ele>1212.6</ele>
        <time>2021-10-09 16:39:16</time>
      </trkpt>
      <trkpt lat="40.21643" lon="-1.89157">
        <ele>1212.8</ele>
        <time>2021-10-09 16:39:17</time>
      </trkpt>
      <trkpt lat="40.21644" lon="-1.89154">
        <ele>1212.8</ele>
        <time>2021-10-09 16:39:18</time>
      </trkpt>
      <trkpt lat="40.21644" lon="-1.8915">
        <ele>1212.8</ele>
        <time>2021-10-09 16:39:19</time>
      </trkpt>
      <trkpt lat="40.21645" lon="-1.89146">
        <ele>1213.2</ele>
        <time>2021-10-09 16:39:20</time>
      </trkpt>
      <trkpt lat="40.21646" lon="-1.89142">
        <ele>1213.2</ele>
        <time>2021-10-09 16:39:21</time>
      </trkpt>
      <trkpt lat="40.21647" lon="-1.89139">
        <ele>1213.4</ele>
        <time>2021-10-09 16:39:22</time>
      </trkpt>
      <trkpt lat="40.21648" lon="-1.89136">
        <ele>1213.4</ele>
        <time>2021-10-09 16:39:23</time>
      </trkpt>
      <trkpt lat="40.21649" lon="-1.89133">
        <ele>1213.6</ele>
        <time>2021-10-09 16:39:24</time>
      </trkpt>
      <trkpt lat="40.2165" lon="-1.89128">
        <ele>1213.6</ele>
        <time>2021-10-09 16:39:25</time>
      </trkpt>
      <trkpt lat="40.21651" lon="-1.89124">
        <ele>1213.8</ele>
        <time>2021-10-09 16:39:26</time>
      </trkpt>
      <trkpt lat="40.21651" lon="-1.8912">
        <ele>1213.8</ele>
        <time>2021-10-09 16:39:27</time>
      </trkpt>
      <trkpt lat="40.21652" lon="-1.89115">
        <ele>1213.8</ele>
        <time>2021-10-09 16:39:28</time>
      </trkpt>
      <trkpt lat="40.21654" lon="-1.89111">
        <ele>1213.8</ele>
        <time>2021-10-09 16:39:29</time>
      </trkpt>
      <trkpt lat="40.21655" lon="-1.89107">
        <ele>1214.2</ele>
        <time>2021-10-09 16:39:30</time>
      </trkpt>
      <trkpt lat="40.21656" lon="-1.89102">
        <ele>1214.2</ele>
        <time>2021-10-09 16:39:31</time>
      </trkpt>
      <trkpt lat="40.21658" lon="-1.89098">
        <ele>1214.2</ele>
        <time>2021-10-09 16:39:32</time>
      </trkpt>
      <trkpt lat="40.21659" lon="-1.89094">
        <ele>1214.4</ele>
        <time>2021-10-09 16:39:33</time>
      </trkpt>
      <trkpt lat="40.2166" lon="-1.89089">
        <ele>1214.4</ele>
        <time>2021-10-09 16:39:34</time>
      </trkpt>
      <trkpt lat="40.21661" lon="-1.89085">
        <ele>1214.4</ele>
        <time>2021-10-09 16:39:35</time>
      </trkpt>
      <trkpt lat="40.21663" lon="-1.89081">
        <ele>1214.6</ele>
        <time>2021-10-09 16:39:36</time>
      </trkpt>
      <trkpt lat="40.21664" lon="-1.89076">
        <ele>1214.6</ele>
        <time>2021-10-09 16:39:37</time>
      </trkpt>
      <trkpt lat="40.21665" lon="-1.89072">
        <ele>1214.6</ele>
        <time>2021-10-09 16:39:38</time>
      </trkpt>
      <trkpt lat="40.21667" lon="-1.89067">
        <ele>1214.6</ele>
        <time>2021-10-09 16:39:39</time>
      </trkpt>
      <trkpt lat="40.21668" lon="-1.89062">
        <ele>1214.6</ele>
        <time>2021-10-09 16:39:40</time>
      </trkpt>
      <trkpt lat="40.2167" lon="-1.89057">
        <ele>1214.6</ele>
        <time>2021-10-09 16:39:41</time>
      </trkpt>
      <trkpt lat="40.21671" lon="-1.89052">
        <ele>1214.6</ele>
        <time>2021-10-09 16:39:42</time>
      </trkpt>
      <trkpt lat="40.21673" lon="-1.89048">
        <ele>1214.6</ele>
        <time>2021-10-09 16:39:43</time>
      </trkpt>
      <trkpt lat="40.21674" lon="-1.89044">
        <ele>1214.6</ele>
        <time>2021-10-09 16:39:44</time>
      </trkpt>
      <trkpt lat="40.21676" lon="-1.89039">
        <ele>1214.6</ele>
        <time>2021-10-09 16:39:45</time>
      </trkpt>
      <trkpt lat="40.21677" lon="-1.89035">
        <ele>1214.6</ele>
        <time>2021-10-09 16:39:46</time>
      </trkpt>
      <trkpt lat="40.21678" lon="-1.89031">
        <ele>1215</ele>
        <time>2021-10-09 16:39:47</time>
      </trkpt>
      <trkpt lat="40.2168" lon="-1.89026">
        <ele>1215</ele>
        <time>2021-10-09 16:39:48</time>
      </trkpt>
      <trkpt lat="40.21682" lon="-1.89022">
        <ele>1215</ele>
        <time>2021-10-09 16:39:49</time>
      </trkpt>
      <trkpt lat="40.21683" lon="-1.89018">
        <ele>1215.2</ele>
        <time>2021-10-09 16:39:50</time>
      </trkpt>
      <trkpt lat="40.21685" lon="-1.89014">
        <ele>1215.2</ele>
        <time>2021-10-09 16:39:51</time>
      </trkpt>
      <trkpt lat="40.21686" lon="-1.8901">
        <ele>1215.2</ele>
        <time>2021-10-09 16:39:52</time>
      </trkpt>
      <trkpt lat="40.21688" lon="-1.89005">
        <ele>1215.2</ele>
        <time>2021-10-09 16:39:53</time>
      </trkpt>
      <trkpt lat="40.21689" lon="-1.89001">
        <ele>1215.4</ele>
        <time>2021-10-09 16:39:54</time>
      </trkpt>
      <trkpt lat="40.2169" lon="-1.88997">
        <ele>1215.4</ele>
        <time>2021-10-09 16:39:55</time>
      </trkpt>
      <trkpt lat="40.21692" lon="-1.88993">
        <ele>1215.6</ele>
        <time>2021-10-09 16:39:56</time>
      </trkpt>
      <trkpt lat="40.21693" lon="-1.8899">
        <ele>1215.6</ele>
        <time>2021-10-09 16:39:57</time>
      </trkpt>
      <trkpt lat="40.21694" lon="-1.88986">
        <ele>1215.8</ele>
        <time>2021-10-09 16:39:58</time>
      </trkpt>
      <trkpt lat="40.21696" lon="-1.88983">
        <ele>1215.8</ele>
        <time>2021-10-09 16:39:59</time>
      </trkpt>
      <trkpt lat="40.21697" lon="-1.88979">
        <ele>1216.2</ele>
        <time>2021-10-09 16:40:00</time>
      </trkpt>
      <trkpt lat="40.21699" lon="-1.88976">
        <ele>1216.2</ele>
        <time>2021-10-09 16:40:01</time>
      </trkpt>
      <trkpt lat="40.217" lon="-1.88973">
        <ele>1216.4</ele>
        <time>2021-10-09 16:40:02</time>
      </trkpt>
      <trkpt lat="40.21701" lon="-1.8897">
        <ele>1216.4</ele>
        <time>2021-10-09 16:40:03</time>
      </trkpt>
      <trkpt lat="40.21703" lon="-1.88966">
        <ele>1216.8</ele>
        <time>2021-10-09 16:40:04</time>
      </trkpt>
      <trkpt lat="40.21704" lon="-1.88963">
        <ele>1217</ele>
        <time>2021-10-09 16:40:05</time>
      </trkpt>
      <trkpt lat="40.21706" lon="-1.88959">
        <ele>1217</ele>
        <time>2021-10-09 16:40:06</time>
      </trkpt>
      <trkpt lat="40.21708" lon="-1.88956">
        <ele>1217.4</ele>
        <time>2021-10-09 16:40:07</time>
      </trkpt>
      <trkpt lat="40.2171" lon="-1.88952">
        <ele>1217.4</ele>
        <time>2021-10-09 16:40:08</time>
      </trkpt>
      <trkpt lat="40.21711" lon="-1.88949">
        <ele>1217.8</ele>
        <time>2021-10-09 16:40:09</time>
      </trkpt>
      <trkpt lat="40.21714" lon="-1.88945">
        <ele>1218</ele>
        <time>2021-10-09 16:40:10</time>
      </trkpt>
      <trkpt lat="40.21715" lon="-1.88942">
        <ele>1218</ele>
        <time>2021-10-09 16:40:11</time>
      </trkpt>
      <trkpt lat="40.21718" lon="-1.88939">
        <ele>1218.4</ele>
        <time>2021-10-09 16:40:12</time>
      </trkpt>
      <trkpt lat="40.2172" lon="-1.88936">
        <ele>1218.6</ele>
        <time>2021-10-09 16:40:13</time>
      </trkpt>
      <trkpt lat="40.21722" lon="-1.88933">
        <ele>1218.6</ele>
        <time>2021-10-09 16:40:14</time>
      </trkpt>
      <trkpt lat="40.21724" lon="-1.88929">
        <ele>1219</ele>
        <time>2021-10-09 16:40:15</time>
      </trkpt>
      <trkpt lat="40.21727" lon="-1.88926">
        <ele>1219</ele>
        <time>2021-10-09 16:40:16</time>
      </trkpt>
      <trkpt lat="40.21729" lon="-1.88923">
        <ele>1219</ele>
        <time>2021-10-09 16:40:17</time>
      </trkpt>
      <trkpt lat="40.21731" lon="-1.8892">
        <ele>1219.2</ele>
        <time>2021-10-09 16:40:18</time>
      </trkpt>
      <trkpt lat="40.21734" lon="-1.88916">
        <ele>1219.2</ele>
        <time>2021-10-09 16:40:19</time>
      </trkpt>
      <trkpt lat="40.21736" lon="-1.88912">
        <ele>1219.4</ele>
        <time>2021-10-09 16:40:20</time>
      </trkpt>
      <trkpt lat="40.21739" lon="-1.88908">
        <ele>1219.4</ele>
        <time>2021-10-09 16:40:21</time>
      </trkpt>
      <trkpt lat="40.21742" lon="-1.88903">
        <ele>1219.4</ele>
        <time>2021-10-09 16:40:22</time>
      </trkpt>
      <trkpt lat="40.21745" lon="-1.889">
        <ele>1219.6</ele>
        <time>2021-10-09 16:40:23</time>
      </trkpt>
      <trkpt lat="40.21748" lon="-1.88896">
        <ele>1219.6</ele>
        <time>2021-10-09 16:40:24</time>
      </trkpt>
      <trkpt lat="40.2175" lon="-1.88892">
        <ele>1219.6</ele>
        <time>2021-10-09 16:40:25</time>
      </trkpt>
      <trkpt lat="40.21753" lon="-1.88888">
        <ele>1219.6</ele>
        <time>2021-10-09 16:40:26</time>
      </trkpt>
      <trkpt lat="40.21755" lon="-1.88884">
        <ele>1219.6</ele>
        <time>2021-10-09 16:40:27</time>
      </trkpt>
      <trkpt lat="40.21758" lon="-1.8888">
        <ele>1219.6</ele>
        <time>2021-10-09 16:40:28</time>
      </trkpt>
      <trkpt lat="40.21761" lon="-1.88876">
        <ele>1219.6</ele>
        <time>2021-10-09 16:40:29</time>
      </trkpt>
      <trkpt lat="40.21763" lon="-1.88872">
        <ele>1219.6</ele>
        <time>2021-10-09 16:40:30</time>
      </trkpt>
      <trkpt lat="40.21764" lon="-1.88866">
        <ele>1219.6</ele>
        <time>2021-10-09 16:40:31</time>
      </trkpt>
      <trkpt lat="40.21767" lon="-1.88861">
        <ele>1219.6</ele>
        <time>2021-10-09 16:40:32</time>
      </trkpt>
      <trkpt lat="40.21768" lon="-1.88856">
        <ele>1219.6</ele>
        <time>2021-10-09 16:40:33</time>
      </trkpt>
      <trkpt lat="40.2177" lon="-1.8885">
        <ele>1219.6</ele>
        <time>2021-10-09 16:40:34</time>
      </trkpt>
      <trkpt lat="40.21771" lon="-1.88845">
        <ele>1219.6</ele>
        <time>2021-10-09 16:40:35</time>
      </trkpt>
      <trkpt lat="40.21771" lon="-1.8884">
        <ele>1219.6</ele>
        <time>2021-10-09 16:40:36</time>
      </trkpt>
      <trkpt lat="40.21772" lon="-1.88835">
        <ele>1219.6</ele>
        <time>2021-10-09 16:40:37</time>
      </trkpt>
      <trkpt lat="40.21773" lon="-1.88829">
        <ele>1219.6</ele>
        <time>2021-10-09 16:40:38</time>
      </trkpt>
      <trkpt lat="40.21773" lon="-1.88823">
        <ele>1219.6</ele>
        <time>2021-10-09 16:40:39</time>
      </trkpt>
      <trkpt lat="40.21773" lon="-1.88816">
        <ele>1219.4</ele>
        <time>2021-10-09 16:40:40</time>
      </trkpt>
      <trkpt lat="40.21774" lon="-1.88809">
        <ele>1219.4</ele>
        <time>2021-10-09 16:40:41</time>
      </trkpt>
      <trkpt lat="40.21774" lon="-1.88803">
        <ele>1219.4</ele>
        <time>2021-10-09 16:40:42</time>
      </trkpt>
      <trkpt lat="40.21774" lon="-1.88795">
        <ele>1219.4</ele>
        <time>2021-10-09 16:40:43</time>
      </trkpt>
      <trkpt lat="40.21774" lon="-1.88788">
        <ele>1219.2</ele>
        <time>2021-10-09 16:40:44</time>
      </trkpt>
      <trkpt lat="40.21775" lon="-1.88781">
        <ele>1219.2</ele>
        <time>2021-10-09 16:40:45</time>
      </trkpt>
      <trkpt lat="40.21775" lon="-1.88773">
        <ele>1219</ele>
        <time>2021-10-09 16:40:46</time>
      </trkpt>
      <trkpt lat="40.21775" lon="-1.88766">
        <ele>1219</ele>
        <time>2021-10-09 16:40:47</time>
      </trkpt>
      <trkpt lat="40.21775" lon="-1.88758">
        <ele>1218.6</ele>
        <time>2021-10-09 16:40:48</time>
      </trkpt>
      <trkpt lat="40.21775" lon="-1.88751">
        <ele>1218.6</ele>
        <time>2021-10-09 16:40:49</time>
      </trkpt>
      <trkpt lat="40.21775" lon="-1.88743">
        <ele>1218.4</ele>
        <time>2021-10-09 16:40:50</time>
      </trkpt>
      <trkpt lat="40.21776" lon="-1.88735">
        <ele>1218.4</ele>
        <time>2021-10-09 16:40:51</time>
      </trkpt>
      <trkpt lat="40.21776" lon="-1.88726">
        <ele>1218</ele>
        <time>2021-10-09 16:40:52</time>
      </trkpt>
      <trkpt lat="40.21776" lon="-1.88717">
        <ele>1217.8</ele>
        <time>2021-10-09 16:40:53</time>
      </trkpt>
      <trkpt lat="40.21776" lon="-1.88708">
        <ele>1217.4</ele>
        <time>2021-10-09 16:40:54</time>
      </trkpt>
      <trkpt lat="40.21776" lon="-1.88699">
        <ele>1217.2</ele>
        <time>2021-10-09 16:40:55</time>
      </trkpt>
      <trkpt lat="40.21776" lon="-1.8869">
        <ele>1217</ele>
        <time>2021-10-09 16:40:56</time>
      </trkpt>
      <trkpt lat="40.21777" lon="-1.88681">
        <ele>1216.8</ele>
        <time>2021-10-09 16:40:57</time>
      </trkpt>
      <trkpt lat="40.21778" lon="-1.88671">
        <ele>1216.4</ele>
        <time>2021-10-09 16:40:58</time>
      </trkpt>
      <trkpt lat="40.21778" lon="-1.88661">
        <ele>1216.2</ele>
        <time>2021-10-09 16:40:59</time>
      </trkpt>
      <trkpt lat="40.2178" lon="-1.88651">
        <ele>1215.8</ele>
        <time>2021-10-09 16:41:00</time>
      </trkpt>
      <trkpt lat="40.21782" lon="-1.88641">
        <ele>1215.4</ele>
        <time>2021-10-09 16:41:01</time>
      </trkpt>
      <trkpt lat="40.21784" lon="-1.8863">
        <ele>1215.2</ele>
        <time>2021-10-09 16:41:02</time>
      </trkpt>
      <trkpt lat="40.21787" lon="-1.88619">
        <ele>1214.6</ele>
        <time>2021-10-09 16:41:03</time>
      </trkpt>
      <trkpt lat="40.21792" lon="-1.88609">
        <ele>1214.2</ele>
        <time>2021-10-09 16:41:04</time>
      </trkpt>
      <trkpt lat="40.21797" lon="-1.88599">
        <ele>1213.8</ele>
        <time>2021-10-09 16:41:05</time>
      </trkpt>
      <trkpt lat="40.21804" lon="-1.88589">
        <ele>1213.2</ele>
        <time>2021-10-09 16:41:06</time>
      </trkpt>
      <trkpt lat="40.2181" lon="-1.88578">
        <ele>1212.6</ele>
        <time>2021-10-09 16:41:07</time>
      </trkpt>
      <trkpt lat="40.21818" lon="-1.88567">
        <ele>1211.8</ele>
        <time>2021-10-09 16:41:08</time>
      </trkpt>
      <trkpt lat="40.21826" lon="-1.88556">
        <ele>1211</ele>
        <time>2021-10-09 16:41:09</time>
      </trkpt>
      <trkpt lat="40.21834" lon="-1.88545">
        <ele>1210.2</ele>
        <time>2021-10-09 16:41:10</time>
      </trkpt>
      <trkpt lat="40.21842" lon="-1.88533">
        <ele>1209.4</ele>
        <time>2021-10-09 16:41:11</time>
      </trkpt>
      <trkpt lat="40.21851" lon="-1.88522">
        <ele>1208.6</ele>
        <time>2021-10-09 16:41:12</time>
      </trkpt>
      <trkpt lat="40.21859" lon="-1.8851">
        <ele>1207.8</ele>
        <time>2021-10-09 16:41:13</time>
      </trkpt>
      <trkpt lat="40.21869" lon="-1.88497">
        <ele>1206.8</ele>
        <time>2021-10-09 16:41:14</time>
      </trkpt>
      <trkpt lat="40.21877" lon="-1.88484">
        <ele>1206</ele>
        <time>2021-10-09 16:41:15</time>
      </trkpt>
      <trkpt lat="40.21886" lon="-1.88471">
        <ele>1205</ele>
        <time>2021-10-09 16:41:16</time>
      </trkpt>
      <trkpt lat="40.21893" lon="-1.88456">
        <ele>1204</ele>
        <time>2021-10-09 16:41:17</time>
      </trkpt>
      <trkpt lat="40.21899" lon="-1.88439">
        <ele>1203.2</ele>
        <time>2021-10-09 16:41:18</time>
      </trkpt>
      <trkpt lat="40.21903" lon="-1.88423">
        <ele>1202.4</ele>
        <time>2021-10-09 16:41:19</time>
      </trkpt>
      <trkpt lat="40.21906" lon="-1.88405">
        <ele>1201.4</ele>
        <time>2021-10-09 16:41:20</time>
      </trkpt>
      <trkpt lat="40.21907" lon="-1.88387">
        <ele>1200</ele>
        <time>2021-10-09 16:41:21</time>
      </trkpt>
      <trkpt lat="40.21907" lon="-1.88369">
        <ele>1198.8</ele>
        <time>2021-10-09 16:41:22</time>
      </trkpt>
      <trkpt lat="40.21906" lon="-1.8835">
        <ele>1197.6</ele>
        <time>2021-10-09 16:41:23</time>
      </trkpt>
      <trkpt lat="40.21903" lon="-1.88332">
        <ele>1196.6</ele>
        <time>2021-10-09 16:41:24</time>
      </trkpt>
      <trkpt lat="40.21898" lon="-1.88315">
        <ele>1195.8</ele>
        <time>2021-10-09 16:41:25</time>
      </trkpt>
      <trkpt lat="40.21892" lon="-1.88301">
        <ele>1195</ele>
        <time>2021-10-09 16:41:26</time>
      </trkpt>
      <trkpt lat="40.21885" lon="-1.88288">
        <ele>1194.4</ele>
        <time>2021-10-09 16:41:27</time>
      </trkpt>
      <trkpt lat="40.21878" lon="-1.88277">
        <ele>1194.2</ele>
        <time>2021-10-09 16:41:28</time>
      </trkpt>
      <trkpt lat="40.2187" lon="-1.88266">
        <ele>1194</ele>
        <time>2021-10-09 16:41:29</time>
      </trkpt>
      <trkpt lat="40.21862" lon="-1.88257">
        <ele>1194</ele>
        <time>2021-10-09 16:41:30</time>
      </trkpt>
      <trkpt lat="40.21853" lon="-1.8825">
        <ele>1194</ele>
        <time>2021-10-09 16:41:31</time>
      </trkpt>
      <trkpt lat="40.21845" lon="-1.88243">
        <ele>1194</ele>
        <time>2021-10-09 16:41:32</time>
      </trkpt>
      <trkpt lat="40.21836" lon="-1.88239">
        <ele>1194</ele>
        <time>2021-10-09 16:41:33</time>
      </trkpt>
      <trkpt lat="40.21827" lon="-1.88234">
        <ele>1194.2</ele>
        <time>2021-10-09 16:41:34</time>
      </trkpt>
      <trkpt lat="40.21818" lon="-1.88231">
        <ele>1194.2</ele>
        <time>2021-10-09 16:41:35</time>
      </trkpt>
      <trkpt lat="40.21809" lon="-1.8823">
        <ele>1194.6</ele>
        <time>2021-10-09 16:41:36</time>
      </trkpt>
      <trkpt lat="40.218" lon="-1.88229">
        <ele>1194.6</ele>
        <time>2021-10-09 16:41:37</time>
      </trkpt>
      <trkpt lat="40.21792" lon="-1.88228">
        <ele>1194.6</ele>
        <time>2021-10-09 16:41:38</time>
      </trkpt>
      <trkpt lat="40.21784" lon="-1.88229">
        <ele>1194.8</ele>
        <time>2021-10-09 16:41:39</time>
      </trkpt>
      <trkpt lat="40.21776" lon="-1.8823">
        <ele>1194.8</ele>
        <time>2021-10-09 16:41:40</time>
      </trkpt>
      <trkpt lat="40.21768" lon="-1.88232">
        <ele>1195.2</ele>
        <time>2021-10-09 16:41:41</time>
      </trkpt>
      <trkpt lat="40.2176" lon="-1.88234">
        <ele>1195.2</ele>
        <time>2021-10-09 16:41:42</time>
      </trkpt>
      <trkpt lat="40.21753" lon="-1.88237">
        <ele>1195.2</ele>
        <time>2021-10-09 16:41:43</time>
      </trkpt>
      <trkpt lat="40.21746" lon="-1.8824">
        <ele>1195.4</ele>
        <time>2021-10-09 16:41:44</time>
      </trkpt>
      <trkpt lat="40.21739" lon="-1.88244">
        <ele>1195.8</ele>
        <time>2021-10-09 16:41:45</time>
      </trkpt>
      <trkpt lat="40.21733" lon="-1.88248">
        <ele>1195.8</ele>
        <time>2021-10-09 16:41:46</time>
      </trkpt>
      <trkpt lat="40.21726" lon="-1.88251">
        <ele>1196.2</ele>
        <time>2021-10-09 16:41:47</time>
      </trkpt>
      <trkpt lat="40.21719" lon="-1.88254">
        <ele>1196.4</ele>
        <time>2021-10-09 16:41:48</time>
      </trkpt>
      <trkpt lat="40.21712" lon="-1.88259">
        <ele>1196.4</ele>
        <time>2021-10-09 16:41:49</time>
      </trkpt>
      <trkpt lat="40.21706" lon="-1.88262">
        <ele>1196.8</ele>
        <time>2021-10-09 16:41:50</time>
      </trkpt>
      <trkpt lat="40.21699" lon="-1.88265">
        <ele>1196.8</ele>
        <time>2021-10-09 16:41:51</time>
      </trkpt>
      <trkpt lat="40.21693" lon="-1.88266">
        <ele>1197</ele>
        <time>2021-10-09 16:41:52</time>
      </trkpt>
      <trkpt lat="40.21687" lon="-1.88268">
        <ele>1197</ele>
        <time>2021-10-09 16:41:53</time>
      </trkpt>
      <trkpt lat="40.21681" lon="-1.8827">
        <ele>1197.4</ele>
        <time>2021-10-09 16:41:54</time>
      </trkpt>
      <trkpt lat="40.21675" lon="-1.8827">
        <ele>1197.4</ele>
        <time>2021-10-09 16:41:55</time>
      </trkpt>
      <trkpt lat="40.21669" lon="-1.88269">
        <ele>1197.6</ele>
        <time>2021-10-09 16:41:56</time>
      </trkpt>
      <trkpt lat="40.21663" lon="-1.88266">
        <ele>1197.6</ele>
        <time>2021-10-09 16:41:57</time>
      </trkpt>
      <trkpt lat="40.21656" lon="-1.88264">
        <ele>1197.8</ele>
        <time>2021-10-09 16:41:58</time>
      </trkpt>
      <trkpt lat="40.2165" lon="-1.8826">
        <ele>1197.8</ele>
        <time>2021-10-09 16:41:59</time>
      </trkpt>
      <trkpt lat="40.21645" lon="-1.88254">
        <ele>1197.8</ele>
        <time>2021-10-09 16:42:00</time>
      </trkpt>
      <trkpt lat="40.2164" lon="-1.88248">
        <ele>1197.8</ele>
        <time>2021-10-09 16:42:01</time>
      </trkpt>
      <trkpt lat="40.21635" lon="-1.88242">
        <ele>1197.8</ele>
        <time>2021-10-09 16:42:02</time>
      </trkpt>
      <trkpt lat="40.21631" lon="-1.88235">
        <ele>1197.8</ele>
        <time>2021-10-09 16:42:03</time>
      </trkpt>
      <trkpt lat="40.21627" lon="-1.88227">
        <ele>1197.8</ele>
        <time>2021-10-09 16:42:04</time>
      </trkpt>
      <trkpt lat="40.21624" lon="-1.88219">
        <ele>1197.8</ele>
        <time>2021-10-09 16:42:05</time>
      </trkpt>
      <trkpt lat="40.21621" lon="-1.88211">
        <ele>1197.6</ele>
        <time>2021-10-09 16:42:06</time>
      </trkpt>
      <trkpt lat="40.21618" lon="-1.88203">
        <ele>1197.6</ele>
        <time>2021-10-09 16:42:07</time>
      </trkpt>
      <trkpt lat="40.21616" lon="-1.88194">
        <ele>1197.6</ele>
        <time>2021-10-09 16:42:08</time>
      </trkpt>
      <trkpt lat="40.21613" lon="-1.88187">
        <ele>1197.2</ele>
        <time>2021-10-09 16:42:09</time>
      </trkpt>
      <trkpt lat="40.2161" lon="-1.88179">
        <ele>1197.2</ele>
        <time>2021-10-09 16:42:10</time>
      </trkpt>
      <trkpt lat="40.21607" lon="-1.88171">
        <ele>1197</ele>
        <time>2021-10-09 16:42:11</time>
      </trkpt>
      <trkpt lat="40.21604" lon="-1.88163">
        <ele>1197</ele>
        <time>2021-10-09 16:42:12</time>
      </trkpt>
      <trkpt lat="40.21602" lon="-1.88155">
        <ele>1196.6</ele>
        <time>2021-10-09 16:42:13</time>
      </trkpt>
      <trkpt lat="40.21599" lon="-1.88147">
        <ele>1196.6</ele>
        <time>2021-10-09 16:42:14</time>
      </trkpt>
      <trkpt lat="40.21596" lon="-1.88139">
        <ele>1196.4</ele>
        <time>2021-10-09 16:42:15</time>
      </trkpt>
      <trkpt lat="40.21593" lon="-1.8813">
        <ele>1196</ele>
        <time>2021-10-09 16:42:16</time>
      </trkpt>
      <trkpt lat="40.21589" lon="-1.88121">
        <ele>1196</ele>
        <time>2021-10-09 16:42:17</time>
      </trkpt>
      <trkpt lat="40.21586" lon="-1.88113">
        <ele>1195.8</ele>
        <time>2021-10-09 16:42:18</time>
      </trkpt>
      <trkpt lat="40.21583" lon="-1.88104">
        <ele>1195.8</ele>
        <time>2021-10-09 16:42:19</time>
      </trkpt>
      <trkpt lat="40.21579" lon="-1.88095">
        <ele>1195.4</ele>
        <time>2021-10-09 16:42:20</time>
      </trkpt>
      <trkpt lat="40.21576" lon="-1.88086">
        <ele>1195.4</ele>
        <time>2021-10-09 16:42:21</time>
      </trkpt>
      <trkpt lat="40.21572" lon="-1.88077">
        <ele>1195.2</ele>
        <time>2021-10-09 16:42:22</time>
      </trkpt>
      <trkpt lat="40.21569" lon="-1.88067">
        <ele>1195.2</ele>
        <time>2021-10-09 16:42:23</time>
      </trkpt>
      <trkpt lat="40.21566" lon="-1.88059">
        <ele>1195</ele>
        <time>2021-10-09 16:42:24</time>
      </trkpt>
      <trkpt lat="40.21562" lon="-1.8805">
        <ele>1195</ele>
        <time>2021-10-09 16:42:25</time>
      </trkpt>
      <trkpt lat="40.21559" lon="-1.88042">
        <ele>1195</ele>
        <time>2021-10-09 16:42:26</time>
      </trkpt>
      <trkpt lat="40.21554" lon="-1.88033">
        <ele>1194.8</ele>
        <time>2021-10-09 16:42:27</time>
      </trkpt>
      <trkpt lat="40.2155" lon="-1.88024">
        <ele>1194.8</ele>
        <time>2021-10-09 16:42:28</time>
      </trkpt>
      <trkpt lat="40.21545" lon="-1.88017">
        <ele>1194.8</ele>
        <time>2021-10-09 16:42:29</time>
      </trkpt>
      <trkpt lat="40.2154" lon="-1.88009">
        <ele>1194.4</ele>
        <time>2021-10-09 16:42:30</time>
      </trkpt>
      <trkpt lat="40.21535" lon="-1.88002">
        <ele>1194.4</ele>
        <time>2021-10-09 16:42:31</time>
      </trkpt>
      <trkpt lat="40.2153" lon="-1.87995">
        <ele>1194.4</ele>
        <time>2021-10-09 16:42:32</time>
      </trkpt>
      <trkpt lat="40.21524" lon="-1.87988">
        <ele>1194.2</ele>
        <time>2021-10-09 16:42:33</time>
      </trkpt>
      <trkpt lat="40.21518" lon="-1.87983">
        <ele>1194.2</ele>
        <time>2021-10-09 16:42:34</time>
      </trkpt>
      <trkpt lat="40.21511" lon="-1.87978">
        <ele>1194.2</ele>
        <time>2021-10-09 16:42:35</time>
      </trkpt>
      <trkpt lat="40.21505" lon="-1.87973">
        <ele>1194.2</ele>
        <time>2021-10-09 16:42:36</time>
      </trkpt>
      <trkpt lat="40.21499" lon="-1.87967">
        <ele>1194.2</ele>
        <time>2021-10-09 16:42:37</time>
      </trkpt>
      <trkpt lat="40.21492" lon="-1.87963">
        <ele>1194.2</ele>
        <time>2021-10-09 16:42:38</time>
      </trkpt>
      <trkpt lat="40.21486" lon="-1.87957">
        <ele>1194.2</ele>
        <time>2021-10-09 16:42:39</time>
      </trkpt>
      <trkpt lat="40.21481" lon="-1.87951">
        <ele>1194.2</ele>
        <time>2021-10-09 16:42:40</time>
      </trkpt>
      <trkpt lat="40.21475" lon="-1.87945">
        <ele>1194.2</ele>
        <time>2021-10-09 16:42:41</time>
      </trkpt>
      <trkpt lat="40.2147" lon="-1.8794">
        <ele>1194.2</ele>
        <time>2021-10-09 16:42:42</time>
      </trkpt>
      <trkpt lat="40.21465" lon="-1.87934">
        <ele>1194.2</ele>
        <time>2021-10-09 16:42:43</time>
      </trkpt>
      <trkpt lat="40.21459" lon="-1.87929">
        <ele>1194.6</ele>
        <time>2021-10-09 16:42:44</time>
      </trkpt>
      <trkpt lat="40.21454" lon="-1.87924">
        <ele>1194.6</ele>
        <time>2021-10-09 16:42:45</time>
      </trkpt>
      <trkpt lat="40.21449" lon="-1.87918">
        <ele>1194.6</ele>
        <time>2021-10-09 16:42:46</time>
      </trkpt>
      <trkpt lat="40.21443" lon="-1.87912">
        <ele>1194.6</ele>
        <time>2021-10-09 16:42:47</time>
      </trkpt>
      <trkpt lat="40.21438" lon="-1.87906">
        <ele>1194.6</ele>
        <time>2021-10-09 16:42:48</time>
      </trkpt>
      <trkpt lat="40.21433" lon="-1.87901">
        <ele>1194.6</ele>
        <time>2021-10-09 16:42:49</time>
      </trkpt>
      <trkpt lat="40.21427" lon="-1.87895">
        <ele>1194.6</ele>
        <time>2021-10-09 16:42:50</time>
      </trkpt>
      <trkpt lat="40.21423" lon="-1.87888">
        <ele>1194.6</ele>
        <time>2021-10-09 16:42:51</time>
      </trkpt>
      <trkpt lat="40.21417" lon="-1.87882">
        <ele>1194.6</ele>
        <time>2021-10-09 16:42:52</time>
      </trkpt>
      <trkpt lat="40.21412" lon="-1.87876">
        <ele>1194.6</ele>
        <time>2021-10-09 16:42:53</time>
      </trkpt>
      <trkpt lat="40.21407" lon="-1.8787">
        <ele>1194.6</ele>
        <time>2021-10-09 16:42:54</time>
      </trkpt>
      <trkpt lat="40.21403" lon="-1.87864">
        <ele>1194.6</ele>
        <time>2021-10-09 16:42:55</time>
      </trkpt>
      <trkpt lat="40.21398" lon="-1.87858">
        <ele>1194.6</ele>
        <time>2021-10-09 16:42:56</time>
      </trkpt>
      <trkpt lat="40.21394" lon="-1.87852">
        <ele>1194.6</ele>
        <time>2021-10-09 16:42:57</time>
      </trkpt>
      <trkpt lat="40.21389" lon="-1.87845">
        <ele>1194.8</ele>
        <time>2021-10-09 16:42:58</time>
      </trkpt>
      <trkpt lat="40.21384" lon="-1.87839">
        <ele>1194.8</ele>
        <time>2021-10-09 16:42:59</time>
      </trkpt>
      <trkpt lat="40.2138" lon="-1.87832">
        <ele>1194.8</ele>
        <time>2021-10-09 16:43:00</time>
      </trkpt>
      <trkpt lat="40.21376" lon="-1.87826">
        <ele>1194.8</ele>
        <time>2021-10-09 16:43:01</time>
      </trkpt>
      <trkpt lat="40.21371" lon="-1.8782">
        <ele>1194.8</ele>
        <time>2021-10-09 16:43:02</time>
      </trkpt>
      <trkpt lat="40.21366" lon="-1.87813">
        <ele>1195</ele>
        <time>2021-10-09 16:43:03</time>
      </trkpt>
      <trkpt lat="40.21362" lon="-1.87806">
        <ele>1195</ele>
        <time>2021-10-09 16:43:04</time>
      </trkpt>
      <trkpt lat="40.21357" lon="-1.87799">
        <ele>1195</ele>
        <time>2021-10-09 16:43:05</time>
      </trkpt>
      <trkpt lat="40.21352" lon="-1.87793">
        <ele>1195</ele>
        <time>2021-10-09 16:43:06</time>
      </trkpt>
      <trkpt lat="40.21347" lon="-1.87786">
        <ele>1195</ele>
        <time>2021-10-09 16:43:07</time>
      </trkpt>
      <trkpt lat="40.21343" lon="-1.87778">
        <ele>1195</ele>
        <time>2021-10-09 16:43:08</time>
      </trkpt>
      <trkpt lat="40.21338" lon="-1.87771">
        <ele>1195</ele>
        <time>2021-10-09 16:43:09</time>
      </trkpt>
      <trkpt lat="40.21334" lon="-1.87764">
        <ele>1195</ele>
        <time>2021-10-09 16:43:10</time>
      </trkpt>
      <trkpt lat="40.2133" lon="-1.87757">
        <ele>1195</ele>
        <time>2021-10-09 16:43:11</time>
      </trkpt>
      <trkpt lat="40.21326" lon="-1.8775">
        <ele>1195</ele>
        <time>2021-10-09 16:43:12</time>
      </trkpt>
      <trkpt lat="40.21322" lon="-1.87744">
        <ele>1195</ele>
        <time>2021-10-09 16:43:13</time>
      </trkpt>
      <trkpt lat="40.21318" lon="-1.87737">
        <ele>1195.2</ele>
        <time>2021-10-09 16:43:14</time>
      </trkpt>
      <trkpt lat="40.21315" lon="-1.87731">
        <ele>1195.2</ele>
        <time>2021-10-09 16:43:15</time>
      </trkpt>
      <trkpt lat="40.21311" lon="-1.87724">
        <ele>1195.4</ele>
        <time>2021-10-09 16:43:16</time>
      </trkpt>
      <trkpt lat="40.21308" lon="-1.87717">
        <ele>1195.4</ele>
        <time>2021-10-09 16:43:17</time>
      </trkpt>
      <trkpt lat="40.21305" lon="-1.8771">
        <ele>1195.4</ele>
        <time>2021-10-09 16:43:18</time>
      </trkpt>
      <trkpt lat="40.21301" lon="-1.87703">
        <ele>1195.4</ele>
        <time>2021-10-09 16:43:19</time>
      </trkpt>
      <trkpt lat="40.21298" lon="-1.87695">
        <ele>1195.4</ele>
        <time>2021-10-09 16:43:20</time>
      </trkpt>
      <trkpt lat="40.21295" lon="-1.87688">
        <ele>1195.6</ele>
        <time>2021-10-09 16:43:21</time>
      </trkpt>
      <trkpt lat="40.21292" lon="-1.87681">
        <ele>1195.6</ele>
        <time>2021-10-09 16:43:22</time>
      </trkpt>
      <trkpt lat="40.21289" lon="-1.87674">
        <ele>1195.6</ele>
        <time>2021-10-09 16:43:23</time>
      </trkpt>
      <trkpt lat="40.21286" lon="-1.87667">
        <ele>1195.6</ele>
        <time>2021-10-09 16:43:24</time>
      </trkpt>
      <trkpt lat="40.21283" lon="-1.87659">
        <ele>1195.8</ele>
        <time>2021-10-09 16:43:25</time>
      </trkpt>
      <trkpt lat="40.2128" lon="-1.87652">
        <ele>1195.8</ele>
        <time>2021-10-09 16:43:26</time>
      </trkpt>
      <trkpt lat="40.21278" lon="-1.87645">
        <ele>1195.8</ele>
        <time>2021-10-09 16:43:27</time>
      </trkpt>
      <trkpt lat="40.21275" lon="-1.87638">
        <ele>1196.2</ele>
        <time>2021-10-09 16:43:28</time>
      </trkpt>
      <trkpt lat="40.21272" lon="-1.87631">
        <ele>1196.2</ele>
        <time>2021-10-09 16:43:29</time>
      </trkpt>
      <trkpt lat="40.21269" lon="-1.87623">
        <ele>1196.2</ele>
        <time>2021-10-09 16:43:30</time>
      </trkpt>
      <trkpt lat="40.21267" lon="-1.87616">
        <ele>1196.2</ele>
        <time>2021-10-09 16:43:31</time>
      </trkpt>
      <trkpt lat="40.21265" lon="-1.87609">
        <ele>1196.2</ele>
        <time>2021-10-09 16:43:32</time>
      </trkpt>
      <trkpt lat="40.21262" lon="-1.87602">
        <ele>1196.2</ele>
        <time>2021-10-09 16:43:33</time>
      </trkpt>
      <trkpt lat="40.21259" lon="-1.87595">
        <ele>1196.4</ele>
        <time>2021-10-09 16:43:34</time>
      </trkpt>
      <trkpt lat="40.21258" lon="-1.87588">
        <ele>1196.4</ele>
        <time>2021-10-09 16:43:35</time>
      </trkpt>
      <trkpt lat="40.21256" lon="-1.87582">
        <ele>1196.8</ele>
        <time>2021-10-09 16:43:36</time>
      </trkpt>
      <trkpt lat="40.21254" lon="-1.87576">
        <ele>1196.8</ele>
        <time>2021-10-09 16:43:37</time>
      </trkpt>
      <trkpt lat="40.21253" lon="-1.87571">
        <ele>1197</ele>
        <time>2021-10-09 16:43:38</time>
      </trkpt>
      <trkpt lat="40.2125" lon="-1.87565">
        <ele>1197.2</ele>
        <time>2021-10-09 16:43:39</time>
      </trkpt>
      <trkpt lat="40.21249" lon="-1.8756">
        <ele>1197.6</ele>
        <time>2021-10-09 16:43:40</time>
      </trkpt>
      <trkpt lat="40.21247" lon="-1.87555">
        <ele>1197.6</ele>
        <time>2021-10-09 16:43:41</time>
      </trkpt>
      <trkpt lat="40.21245" lon="-1.87551">
        <ele>1198</ele>
        <time>2021-10-09 16:43:42</time>
      </trkpt>
      <trkpt lat="40.21244" lon="-1.87547">
        <ele>1198</ele>
        <time>2021-10-09 16:43:43</time>
      </trkpt>
      <trkpt lat="40.21242" lon="-1.87543">
        <ele>1198.4</ele>
        <time>2021-10-09 16:43:44</time>
      </trkpt>
      <trkpt lat="40.21241" lon="-1.87539">
        <ele>1198.6</ele>
        <time>2021-10-09 16:43:45</time>
      </trkpt>
      <trkpt lat="40.21239" lon="-1.87536">
        <ele>1198.8</ele>
        <time>2021-10-09 16:43:46</time>
      </trkpt>
      <trkpt lat="40.21238" lon="-1.87532">
        <ele>1198.8</ele>
        <time>2021-10-09 16:43:47</time>
      </trkpt>
      <trkpt lat="40.21237" lon="-1.87528">
        <ele>1199.2</ele>
        <time>2021-10-09 16:43:48</time>
      </trkpt>
      <trkpt lat="40.21235" lon="-1.87524">
        <ele>1199.2</ele>
        <time>2021-10-09 16:43:49</time>
      </trkpt>
      <trkpt lat="40.21234" lon="-1.87521">
        <ele>1199.6</ele>
        <time>2021-10-09 16:43:50</time>
      </trkpt>
      <trkpt lat="40.21233" lon="-1.87517">
        <ele>1199.8</ele>
        <time>2021-10-09 16:43:51</time>
      </trkpt>
      <trkpt lat="40.21232" lon="-1.87514">
        <ele>1200</ele>
        <time>2021-10-09 16:43:52</time>
      </trkpt>
      <trkpt lat="40.21231" lon="-1.8751">
        <ele>1200.2</ele>
        <time>2021-10-09 16:43:53</time>
      </trkpt>
      <trkpt lat="40.21229" lon="-1.87506">
        <ele>1200.4</ele>
        <time>2021-10-09 16:43:54</time>
      </trkpt>
      <trkpt lat="40.21228" lon="-1.87503">
        <ele>1200.6</ele>
        <time>2021-10-09 16:43:55</time>
      </trkpt>
      <trkpt lat="40.21227" lon="-1.87499">
        <ele>1200.8</ele>
        <time>2021-10-09 16:43:56</time>
      </trkpt>
      <trkpt lat="40.21225" lon="-1.87496">
        <ele>1201</ele>
        <time>2021-10-09 16:43:57</time>
      </trkpt>
      <trkpt lat="40.21224" lon="-1.87492">
        <ele>1201</ele>
        <time>2021-10-09 16:43:58</time>
      </trkpt>
      <trkpt lat="40.21223" lon="-1.87488">
        <ele>1201.6</ele>
        <time>2021-10-09 16:43:59</time>
      </trkpt>
      <trkpt lat="40.21221" lon="-1.87485">
        <ele>1201.6</ele>
        <time>2021-10-09 16:44:00</time>
      </trkpt>
      <trkpt lat="40.21219" lon="-1.87481">
        <ele>1202</ele>
        <time>2021-10-09 16:44:01</time>
      </trkpt>
      <trkpt lat="40.21217" lon="-1.87478">
        <ele>1201.4</ele>
        <time>2021-10-09 16:44:02</time>
      </trkpt>
      <trkpt lat="40.21215" lon="-1.87474">
        <ele>1202</ele>
        <time>2021-10-09 16:44:03</time>
      </trkpt>
      <trkpt lat="40.21214" lon="-1.87471">
        <ele>1200.6</ele>
        <time>2021-10-09 16:44:04</time>
      </trkpt>
      <trkpt lat="40.21212" lon="-1.87468">
        <ele>1201.4</ele>
        <time>2021-10-09 16:44:05</time>
      </trkpt>
      <trkpt lat="40.2121" lon="-1.87465">
        <ele>1201.6</ele>
        <time>2021-10-09 16:44:06</time>
      </trkpt>
      <trkpt lat="40.21208" lon="-1.87462">
        <ele>1202.2</ele>
        <time>2021-10-09 16:44:07</time>
      </trkpt>
      <trkpt lat="40.21206" lon="-1.8746">
        <ele>1202.8</ele>
        <time>2021-10-09 16:44:08</time>
      </trkpt>
      <trkpt lat="40.21204" lon="-1.87457">
        <ele>1203.2</ele>
        <time>2021-10-09 16:44:09</time>
      </trkpt>
      <trkpt lat="40.21201" lon="-1.87455">
        <ele>1203.6</ele>
        <time>2021-10-09 16:44:10</time>
      </trkpt>
      <trkpt lat="40.21199" lon="-1.87452">
        <ele>1203.8</ele>
        <time>2021-10-09 16:44:11</time>
      </trkpt>
      <trkpt lat="40.21197" lon="-1.8745">
        <ele>1204</ele>
        <time>2021-10-09 16:44:12</time>
      </trkpt>
      <trkpt lat="40.21195" lon="-1.87447">
        <ele>1204.4</ele>
        <time>2021-10-09 16:44:13</time>
      </trkpt>
      <trkpt lat="40.21194" lon="-1.87444">
        <ele>1204.6</ele>
        <time>2021-10-09 16:44:14</time>
      </trkpt>
      <trkpt lat="40.21192" lon="-1.87441">
        <ele>1204.8</ele>
        <time>2021-10-09 16:44:15</time>
      </trkpt>
      <trkpt lat="40.2119" lon="-1.87438">
        <ele>1205</ele>
        <time>2021-10-09 16:44:16</time>
      </trkpt>
      <trkpt lat="40.21188" lon="-1.87435">
        <ele>1205.2</ele>
        <time>2021-10-09 16:44:17</time>
      </trkpt>
      <trkpt lat="40.21186" lon="-1.87432">
        <ele>1205.4</ele>
        <time>2021-10-09 16:44:18</time>
      </trkpt>
      <trkpt lat="40.21184" lon="-1.87429">
        <ele>1205.4</ele>
        <time>2021-10-09 16:44:19</time>
      </trkpt>
      <trkpt lat="40.21183" lon="-1.87425">
        <ele>1205.8</ele>
        <time>2021-10-09 16:44:20</time>
      </trkpt>
      <trkpt lat="40.21182" lon="-1.87422">
        <ele>1206.2</ele>
        <time>2021-10-09 16:44:21</time>
      </trkpt>
      <trkpt lat="40.2118" lon="-1.87418">
        <ele>1206.4</ele>
        <time>2021-10-09 16:44:22</time>
      </trkpt>
      <trkpt lat="40.21179" lon="-1.87415">
        <ele>1206.6</ele>
        <time>2021-10-09 16:44:23</time>
      </trkpt>
      <trkpt lat="40.21178" lon="-1.87411">
        <ele>1206.8</ele>
        <time>2021-10-09 16:44:24</time>
      </trkpt>
      <trkpt lat="40.21177" lon="-1.87408">
        <ele>1207.2</ele>
        <time>2021-10-09 16:44:25</time>
      </trkpt>
      <trkpt lat="40.21177" lon="-1.87404">
        <ele>1207.4</ele>
        <time>2021-10-09 16:44:26</time>
      </trkpt>
      <trkpt lat="40.21176" lon="-1.874">
        <ele>1207.4</ele>
        <time>2021-10-09 16:44:27</time>
      </trkpt>
      <trkpt lat="40.21175" lon="-1.87396">
        <ele>1207.8</ele>
        <time>2021-10-09 16:44:28</time>
      </trkpt>
      <trkpt lat="40.21174" lon="-1.87393">
        <ele>1208</ele>
        <time>2021-10-09 16:44:29</time>
      </trkpt>
      <trkpt lat="40.21173" lon="-1.87389">
        <ele>1208.2</ele>
        <time>2021-10-09 16:44:30</time>
      </trkpt>
      <trkpt lat="40.21172" lon="-1.87385">
        <ele>1208.4</ele>
        <time>2021-10-09 16:44:31</time>
      </trkpt>
      <trkpt lat="40.21171" lon="-1.87381">
        <ele>1208.8</ele>
        <time>2021-10-09 16:44:32</time>
      </trkpt>
      <trkpt lat="40.21171" lon="-1.87378">
        <ele>1209</ele>
        <time>2021-10-09 16:44:33</time>
      </trkpt>
      <trkpt lat="40.21169" lon="-1.87374">
        <ele>1209.2</ele>
        <time>2021-10-09 16:44:34</time>
      </trkpt>
      <trkpt lat="40.21169" lon="-1.87371">
        <ele>1209.4</ele>
        <time>2021-10-09 16:44:35</time>
      </trkpt>
      <trkpt lat="40.21168" lon="-1.87367">
        <ele>1209.6</ele>
        <time>2021-10-09 16:44:36</time>
      </trkpt>
      <trkpt lat="40.21167" lon="-1.87364">
        <ele>1209.8</ele>
        <time>2021-10-09 16:44:37</time>
      </trkpt>
      <trkpt lat="40.21166" lon="-1.8736">
        <ele>1209.8</ele>
        <time>2021-10-09 16:44:38</time>
      </trkpt>
      <trkpt lat="40.21165" lon="-1.87357">
        <ele>1210.2</ele>
        <time>2021-10-09 16:44:39</time>
      </trkpt>
      <trkpt lat="40.21164" lon="-1.87354">
        <ele>1210.2</ele>
        <time>2021-10-09 16:44:40</time>
      </trkpt>
      <trkpt lat="40.21163" lon="-1.8735">
        <ele>1210.6</ele>
        <time>2021-10-09 16:44:41</time>
      </trkpt>
      <trkpt lat="40.21163" lon="-1.87346">
        <ele>1210.8</ele>
        <time>2021-10-09 16:44:42</time>
      </trkpt>
      <trkpt lat="40.21162" lon="-1.87342">
        <ele>1210.8</ele>
        <time>2021-10-09 16:44:43</time>
      </trkpt>
      <trkpt lat="40.21161" lon="-1.87339">
        <ele>1211.2</ele>
        <time>2021-10-09 16:44:44</time>
      </trkpt>
      <trkpt lat="40.21161" lon="-1.87335">
        <ele>1211.2</ele>
        <time>2021-10-09 16:44:45</time>
      </trkpt>
      <trkpt lat="40.21161" lon="-1.87331">
        <ele>1211.4</ele>
        <time>2021-10-09 16:44:46</time>
      </trkpt>
      <trkpt lat="40.21161" lon="-1.87328">
        <ele>1211.4</ele>
        <time>2021-10-09 16:44:47</time>
      </trkpt>
      <trkpt lat="40.21161" lon="-1.87325">
        <ele>1211.4</ele>
        <time>2021-10-09 16:44:48</time>
      </trkpt>
      <trkpt lat="40.21161" lon="-1.87322">
        <ele>1211.4</ele>
        <time>2021-10-09 16:44:49</time>
      </trkpt>
      <trkpt lat="40.21161" lon="-1.87319">
        <ele>1211.6</ele>
        <time>2021-10-09 16:44:50</time>
      </trkpt>
      <trkpt lat="40.21161" lon="-1.87316">
        <ele>1211.6</ele>
        <time>2021-10-09 16:44:51</time>
      </trkpt>
      <trkpt lat="40.21162" lon="-1.87311">
        <ele>1211.6</ele>
        <time>2021-10-09 16:44:52</time>
      </trkpt>
      <trkpt lat="40.21163" lon="-1.87307">
        <ele>1211.6</ele>
        <time>2021-10-09 16:44:53</time>
      </trkpt>
      <trkpt lat="40.21163" lon="-1.87302">
        <ele>1211.6</ele>
        <time>2021-10-09 16:44:54</time>
      </trkpt>
      <trkpt lat="40.21164" lon="-1.87298">
        <ele>1211.6</ele>
        <time>2021-10-09 16:44:55</time>
      </trkpt>
      <trkpt lat="40.21165" lon="-1.87295">
        <ele>1211.6</ele>
        <time>2021-10-09 16:44:56</time>
      </trkpt>
      <trkpt lat="40.21166" lon="-1.87291">
        <ele>1211.6</ele>
        <time>2021-10-09 16:44:57</time>
      </trkpt>
      <trkpt lat="40.21166" lon="-1.87287">
        <ele>1211.6</ele>
        <time>2021-10-09 16:44:58</time>
      </trkpt>
      <trkpt lat="40.21167" lon="-1.87283">
        <ele>1211.6</ele>
        <time>2021-10-09 16:44:59</time>
      </trkpt>
      <trkpt lat="40.21168" lon="-1.8728">
        <ele>1211.6</ele>
        <time>2021-10-09 16:45:00</time>
      </trkpt>
      <trkpt lat="40.21169" lon="-1.87277">
        <ele>1211.6</ele>
        <time>2021-10-09 16:45:01</time>
      </trkpt>
      <trkpt lat="40.21171" lon="-1.87273">
        <ele>1211.6</ele>
        <time>2021-10-09 16:45:02</time>
      </trkpt>
      <trkpt lat="40.21172" lon="-1.87269">
        <ele>1211.6</ele>
        <time>2021-10-09 16:45:03</time>
      </trkpt>
      <trkpt lat="40.21173" lon="-1.87265">
        <ele>1211.6</ele>
        <time>2021-10-09 16:45:04</time>
      </trkpt>
      <trkpt lat="40.21175" lon="-1.87261">
        <ele>1211.6</ele>
        <time>2021-10-09 16:45:05</time>
      </trkpt>
      <trkpt lat="40.21176" lon="-1.87256">
        <ele>1211.6</ele>
        <time>2021-10-09 16:45:06</time>
      </trkpt>
      <trkpt lat="40.21178" lon="-1.87252">
        <ele>1211.6</ele>
        <time>2021-10-09 16:45:07</time>
      </trkpt>
      <trkpt lat="40.2118" lon="-1.87246">
        <ele>1211.6</ele>
        <time>2021-10-09 16:45:08</time>
      </trkpt>
      <trkpt lat="40.21182" lon="-1.8724">
        <ele>1211.2</ele>
        <time>2021-10-09 16:45:09</time>
      </trkpt>
      <trkpt lat="40.21184" lon="-1.87234">
        <ele>1211</ele>
        <time>2021-10-09 16:45:10</time>
      </trkpt>
      <trkpt lat="40.21186" lon="-1.87227">
        <ele>1210.8</ele>
        <time>2021-10-09 16:45:11</time>
      </trkpt>
      <trkpt lat="40.21189" lon="-1.8722">
        <ele>1210.4</ele>
        <time>2021-10-09 16:45:12</time>
      </trkpt>
      <trkpt lat="40.21192" lon="-1.87211">
        <ele>1210</ele>
        <time>2021-10-09 16:45:13</time>
      </trkpt>
      <trkpt lat="40.21194" lon="-1.87203">
        <ele>1209.8</ele>
        <time>2021-10-09 16:45:14</time>
      </trkpt>
      <trkpt lat="40.21198" lon="-1.87194">
        <ele>1209.2</ele>
        <time>2021-10-09 16:45:15</time>
      </trkpt>
      <trkpt lat="40.21201" lon="-1.87186">
        <ele>1208.8</ele>
        <time>2021-10-09 16:45:16</time>
      </trkpt>
      <trkpt lat="40.21204" lon="-1.87176">
        <ele>1208.4</ele>
        <time>2021-10-09 16:45:17</time>
      </trkpt>
      <trkpt lat="40.21208" lon="-1.87166">
        <ele>1207.8</ele>
        <time>2021-10-09 16:45:18</time>
      </trkpt>
      <trkpt lat="40.21211" lon="-1.87156">
        <ele>1207.4</ele>
        <time>2021-10-09 16:45:19</time>
      </trkpt>
      <trkpt lat="40.21215" lon="-1.87145">
        <ele>1206.8</ele>
        <time>2021-10-09 16:45:20</time>
      </trkpt>
      <trkpt lat="40.21219" lon="-1.87135">
        <ele>1206.4</ele>
        <time>2021-10-09 16:45:21</time>
      </trkpt>
      <trkpt lat="40.21222" lon="-1.87124">
        <ele>1205.8</ele>
        <time>2021-10-09 16:45:22</time>
      </trkpt>
      <trkpt lat="40.21226" lon="-1.87112">
        <ele>1205.4</ele>
        <time>2021-10-09 16:45:23</time>
      </trkpt>
      <trkpt lat="40.21229" lon="-1.871">
        <ele>1204.8</ele>
        <time>2021-10-09 16:45:24</time>
      </trkpt>
      <trkpt lat="40.21233" lon="-1.87089">
        <ele>1204.4</ele>
        <time>2021-10-09 16:45:25</time>
      </trkpt>
      <trkpt lat="40.21235" lon="-1.87078">
        <ele>1204.2</ele>
        <time>2021-10-09 16:45:26</time>
      </trkpt>
      <trkpt lat="40.21238" lon="-1.87067">
        <ele>1203.8</ele>
        <time>2021-10-09 16:45:27</time>
      </trkpt>
      <trkpt lat="40.21241" lon="-1.87056">
        <ele>1203.6</ele>
        <time>2021-10-09 16:45:28</time>
      </trkpt>
      <trkpt lat="40.21244" lon="-1.87045">
        <ele>1203.4</ele>
        <time>2021-10-09 16:45:29</time>
      </trkpt>
      <trkpt lat="40.21247" lon="-1.87035">
        <ele>1203.4</ele>
        <time>2021-10-09 16:45:30</time>
      </trkpt>
      <trkpt lat="40.2125" lon="-1.87025">
        <ele>1203.2</ele>
        <time>2021-10-09 16:45:31</time>
      </trkpt>
      <trkpt lat="40.21253" lon="-1.87015">
        <ele>1203.2</ele>
        <time>2021-10-09 16:45:32</time>
      </trkpt>
      <trkpt lat="40.21255" lon="-1.87006">
        <ele>1203.2</ele>
        <time>2021-10-09 16:45:33</time>
      </trkpt>
      <trkpt lat="40.21257" lon="-1.86996">
        <ele>1203.2</ele>
        <time>2021-10-09 16:45:34</time>
      </trkpt>
      <trkpt lat="40.21258" lon="-1.86987">
        <ele>1203.2</ele>
        <time>2021-10-09 16:45:35</time>
      </trkpt>
      <trkpt lat="40.21261" lon="-1.86978">
        <ele>1203</ele>
        <time>2021-10-09 16:45:36</time>
      </trkpt>
      <trkpt lat="40.21263" lon="-1.8697">
        <ele>1203</ele>
        <time>2021-10-09 16:45:37</time>
      </trkpt>
      <trkpt lat="40.21265" lon="-1.86961">
        <ele>1203</ele>
        <time>2021-10-09 16:45:38</time>
      </trkpt>
      <trkpt lat="40.21266" lon="-1.86953">
        <ele>1203</ele>
        <time>2021-10-09 16:45:39</time>
      </trkpt>
      <trkpt lat="40.21268" lon="-1.86945">
        <ele>1203</ele>
        <time>2021-10-09 16:45:40</time>
      </trkpt>
      <trkpt lat="40.21269" lon="-1.86937">
        <ele>1203</ele>
        <time>2021-10-09 16:45:41</time>
      </trkpt>
      <trkpt lat="40.2127" lon="-1.86928">
        <ele>1203</ele>
        <time>2021-10-09 16:45:42</time>
      </trkpt>
      <trkpt lat="40.21271" lon="-1.86921">
        <ele>1203</ele>
        <time>2021-10-09 16:45:43</time>
      </trkpt>
      <trkpt lat="40.21271" lon="-1.86913">
        <ele>1203</ele>
        <time>2021-10-09 16:45:44</time>
      </trkpt>
      <trkpt lat="40.21271" lon="-1.86906">
        <ele>1203</ele>
        <time>2021-10-09 16:45:45</time>
      </trkpt>
      <trkpt lat="40.21272" lon="-1.86898">
        <ele>1203</ele>
        <time>2021-10-09 16:45:46</time>
      </trkpt>
      <trkpt lat="40.21272" lon="-1.8689">
        <ele>1203</ele>
        <time>2021-10-09 16:45:47</time>
      </trkpt>
      <trkpt lat="40.21273" lon="-1.86882">
        <ele>1203</ele>
        <time>2021-10-09 16:45:48</time>
      </trkpt>
      <trkpt lat="40.21273" lon="-1.86874">
        <ele>1203</ele>
        <time>2021-10-09 16:45:49</time>
      </trkpt>
      <trkpt lat="40.21273" lon="-1.86866">
        <ele>1203</ele>
        <time>2021-10-09 16:45:50</time>
      </trkpt>
      <trkpt lat="40.21272" lon="-1.86858">
        <ele>1203</ele>
        <time>2021-10-09 16:45:51</time>
      </trkpt>
      <trkpt lat="40.21273" lon="-1.8685">
        <ele>1203</ele>
        <time>2021-10-09 16:45:52</time>
      </trkpt>
      <trkpt lat="40.21273" lon="-1.86842">
        <ele>1203</ele>
        <time>2021-10-09 16:45:53</time>
      </trkpt>
      <trkpt lat="40.21274" lon="-1.86833">
        <ele>1203</ele>
        <time>2021-10-09 16:45:54</time>
      </trkpt>
      <trkpt lat="40.21274" lon="-1.86825">
        <ele>1202.8</ele>
        <time>2021-10-09 16:45:55</time>
      </trkpt>
      <trkpt lat="40.21274" lon="-1.86817">
        <ele>1202.8</ele>
        <time>2021-10-09 16:45:56</time>
      </trkpt>
      <trkpt lat="40.21273" lon="-1.86808">
        <ele>1202.8</ele>
        <time>2021-10-09 16:45:57</time>
      </trkpt>
      <trkpt lat="40.21273" lon="-1.868">
        <ele>1202.8</ele>
        <time>2021-10-09 16:45:58</time>
      </trkpt>
      <trkpt lat="40.21272" lon="-1.86791">
        <ele>1202.8</ele>
        <time>2021-10-09 16:45:59</time>
      </trkpt>
      <trkpt lat="40.21271" lon="-1.86783">
        <ele>1202.8</ele>
        <time>2021-10-09 16:46:00</time>
      </trkpt>
      <trkpt lat="40.2127" lon="-1.86774">
        <ele>1202.8</ele>
        <time>2021-10-09 16:46:01</time>
      </trkpt>
      <trkpt lat="40.21269" lon="-1.86765">
        <ele>1202.8</ele>
        <time>2021-10-09 16:46:02</time>
      </trkpt>
      <trkpt lat="40.21268" lon="-1.86757">
        <ele>1202.6</ele>
        <time>2021-10-09 16:46:03</time>
      </trkpt>
      <trkpt lat="40.21267" lon="-1.86749">
        <ele>1202.6</ele>
        <time>2021-10-09 16:46:04</time>
      </trkpt>
      <trkpt lat="40.21266" lon="-1.86741">
        <ele>1202.6</ele>
        <time>2021-10-09 16:46:05</time>
      </trkpt>
      <trkpt lat="40.21265" lon="-1.86732">
        <ele>1202.6</ele>
        <time>2021-10-09 16:46:06</time>
      </trkpt>
      <trkpt lat="40.21263" lon="-1.86724">
        <ele>1202.6</ele>
        <time>2021-10-09 16:46:07</time>
      </trkpt>
      <trkpt lat="40.21262" lon="-1.86716">
        <ele>1202.6</ele>
        <time>2021-10-09 16:46:08</time>
      </trkpt>
      <trkpt lat="40.21261" lon="-1.86708">
        <ele>1202.6</ele>
        <time>2021-10-09 16:46:09</time>
      </trkpt>
      <trkpt lat="40.21259" lon="-1.86699">
        <ele>1202.6</ele>
        <time>2021-10-09 16:46:10</time>
      </trkpt>
      <trkpt lat="40.21257" lon="-1.86691">
        <ele>1202.6</ele>
        <time>2021-10-09 16:46:11</time>
      </trkpt>
      <trkpt lat="40.21256" lon="-1.86683">
        <ele>1202.6</ele>
        <time>2021-10-09 16:46:12</time>
      </trkpt>
      <trkpt lat="40.21254" lon="-1.86675">
        <ele>1202.6</ele>
        <time>2021-10-09 16:46:13</time>
      </trkpt>
      <trkpt lat="40.21252" lon="-1.86667">
        <ele>1202.6</ele>
        <time>2021-10-09 16:46:14</time>
      </trkpt>
      <trkpt lat="40.21251" lon="-1.8666">
        <ele>1202.6</ele>
        <time>2021-10-09 16:46:15</time>
      </trkpt>
      <trkpt lat="40.21249" lon="-1.86651">
        <ele>1202.6</ele>
        <time>2021-10-09 16:46:16</time>
      </trkpt>
      <trkpt lat="40.21248" lon="-1.86643">
        <ele>1202.8</ele>
        <time>2021-10-09 16:46:17</time>
      </trkpt>
      <trkpt lat="40.21245" lon="-1.86635">
        <ele>1202.8</ele>
        <time>2021-10-09 16:46:18</time>
      </trkpt>
      <trkpt lat="40.21244" lon="-1.86627">
        <ele>1202.8</ele>
        <time>2021-10-09 16:46:19</time>
      </trkpt>
      <trkpt lat="40.21242" lon="-1.86619">
        <ele>1202.8</ele>
        <time>2021-10-09 16:46:20</time>
      </trkpt>
      <trkpt lat="40.2124" lon="-1.86611">
        <ele>1202.8</ele>
        <time>2021-10-09 16:46:21</time>
      </trkpt>
      <trkpt lat="40.21239" lon="-1.86603">
        <ele>1202.8</ele>
        <time>2021-10-09 16:46:22</time>
      </trkpt>
      <trkpt lat="40.21237" lon="-1.86595">
        <ele>1202.8</ele>
        <time>2021-10-09 16:46:23</time>
      </trkpt>
      <trkpt lat="40.21235" lon="-1.86587">
        <ele>1202.8</ele>
        <time>2021-10-09 16:46:24</time>
      </trkpt>
      <trkpt lat="40.21234" lon="-1.86579">
        <ele>1202.8</ele>
        <time>2021-10-09 16:46:25</time>
      </trkpt>
      <trkpt lat="40.21232" lon="-1.8657">
        <ele>1202.8</ele>
        <time>2021-10-09 16:46:26</time>
      </trkpt>
      <trkpt lat="40.2123" lon="-1.86562">
        <ele>1202.4</ele>
        <time>2021-10-09 16:46:27</time>
      </trkpt>
      <trkpt lat="40.21229" lon="-1.86554">
        <ele>1202.4</ele>
        <time>2021-10-09 16:46:28</time>
      </trkpt>
      <trkpt lat="40.21228" lon="-1.86546">
        <ele>1202.4</ele>
        <time>2021-10-09 16:46:29</time>
      </trkpt>
      <trkpt lat="40.21225" lon="-1.86537">
        <ele>1202.4</ele>
        <time>2021-10-09 16:46:30</time>
      </trkpt>
      <trkpt lat="40.21224" lon="-1.86529">
        <ele>1202.4</ele>
        <time>2021-10-09 16:46:31</time>
      </trkpt>
      <trkpt lat="40.21222" lon="-1.86521">
        <ele>1202.4</ele>
        <time>2021-10-09 16:46:32</time>
      </trkpt>
      <trkpt lat="40.21221" lon="-1.86513">
        <ele>1202.4</ele>
        <time>2021-10-09 16:46:33</time>
      </trkpt>
      <trkpt lat="40.21219" lon="-1.86505">
        <ele>1202.4</ele>
        <time>2021-10-09 16:46:34</time>
      </trkpt>
      <trkpt lat="40.21217" lon="-1.86497">
        <ele>1202.4</ele>
        <time>2021-10-09 16:46:35</time>
      </trkpt>
      <trkpt lat="40.21216" lon="-1.86489">
        <ele>1202.2</ele>
        <time>2021-10-09 16:46:36</time>
      </trkpt>
      <trkpt lat="40.21215" lon="-1.8648">
        <ele>1202.2</ele>
        <time>2021-10-09 16:46:37</time>
      </trkpt>
      <trkpt lat="40.21214" lon="-1.86472">
        <ele>1202.2</ele>
        <time>2021-10-09 16:46:38</time>
      </trkpt>
      <trkpt lat="40.21212" lon="-1.86465">
        <ele>1202.2</ele>
        <time>2021-10-09 16:46:39</time>
      </trkpt>
      <trkpt lat="40.21211" lon="-1.86456">
        <ele>1202.2</ele>
        <time>2021-10-09 16:46:40</time>
      </trkpt>
      <trkpt lat="40.21209" lon="-1.86448">
        <ele>1202.2</ele>
        <time>2021-10-09 16:46:41</time>
      </trkpt>
      <trkpt lat="40.21209" lon="-1.8644">
        <ele>1202.2</ele>
        <time>2021-10-09 16:46:42</time>
      </trkpt>
      <trkpt lat="40.21208" lon="-1.86432">
        <ele>1202.2</ele>
        <time>2021-10-09 16:46:43</time>
      </trkpt>
      <trkpt lat="40.21207" lon="-1.86424">
        <ele>1202.2</ele>
        <time>2021-10-09 16:46:44</time>
      </trkpt>
      <trkpt lat="40.21206" lon="-1.86416">
        <ele>1202.2</ele>
        <time>2021-10-09 16:46:45</time>
      </trkpt>
      <trkpt lat="40.21206" lon="-1.86408">
        <ele>1202.2</ele>
        <time>2021-10-09 16:46:46</time>
      </trkpt>
      <trkpt lat="40.21206" lon="-1.864">
        <ele>1202.2</ele>
        <time>2021-10-09 16:46:47</time>
      </trkpt>
      <trkpt lat="40.21206" lon="-1.86392">
        <ele>1202</ele>
        <time>2021-10-09 16:46:48</time>
      </trkpt>
      <trkpt lat="40.21206" lon="-1.86383">
        <ele>1202</ele>
        <time>2021-10-09 16:46:49</time>
      </trkpt>
      <trkpt lat="40.21207" lon="-1.86376">
        <ele>1202</ele>
        <time>2021-10-09 16:46:50</time>
      </trkpt>
      <trkpt lat="40.21207" lon="-1.86368">
        <ele>1202</ele>
        <time>2021-10-09 16:46:51</time>
      </trkpt>
      <trkpt lat="40.21208" lon="-1.8636">
        <ele>1202</ele>
        <time>2021-10-09 16:46:52</time>
      </trkpt>
      <trkpt lat="40.21209" lon="-1.86352">
        <ele>1202</ele>
        <time>2021-10-09 16:46:53</time>
      </trkpt>
      <trkpt lat="40.21209" lon="-1.86344">
        <ele>1202</ele>
        <time>2021-10-09 16:46:54</time>
      </trkpt>
      <trkpt lat="40.2121" lon="-1.86336">
        <ele>1202</ele>
        <time>2021-10-09 16:46:55</time>
      </trkpt>
      <trkpt lat="40.21211" lon="-1.86328">
        <ele>1202</ele>
        <time>2021-10-09 16:46:56</time>
      </trkpt>
      <trkpt lat="40.21212" lon="-1.86319">
        <ele>1202</ele>
        <time>2021-10-09 16:46:57</time>
      </trkpt>
      <trkpt lat="40.21213" lon="-1.86311">
        <ele>1202</ele>
        <time>2021-10-09 16:46:58</time>
      </trkpt>
      <trkpt lat="40.21215" lon="-1.86303">
        <ele>1202</ele>
        <time>2021-10-09 16:46:59</time>
      </trkpt>
      <trkpt lat="40.21216" lon="-1.86295">
        <ele>1202.2</ele>
        <time>2021-10-09 16:47:00</time>
      </trkpt>
      <trkpt lat="40.21218" lon="-1.86288">
        <ele>1202.2</ele>
        <time>2021-10-09 16:47:01</time>
      </trkpt>
      <trkpt lat="40.2122" lon="-1.86281">
        <ele>1202.2</ele>
        <time>2021-10-09 16:47:02</time>
      </trkpt>
      <trkpt lat="40.21222" lon="-1.86273">
        <ele>1202.2</ele>
        <time>2021-10-09 16:47:03</time>
      </trkpt>
      <trkpt lat="40.21224" lon="-1.86266">
        <ele>1202.6</ele>
        <time>2021-10-09 16:47:04</time>
      </trkpt>
      <trkpt lat="40.21225" lon="-1.86259">
        <ele>1202.6</ele>
        <time>2021-10-09 16:47:05</time>
      </trkpt>
      <trkpt lat="40.21228" lon="-1.86251">
        <ele>1202.6</ele>
        <time>2021-10-09 16:47:06</time>
      </trkpt>
      <trkpt lat="40.21231" lon="-1.86243">
        <ele>1202.6</ele>
        <time>2021-10-09 16:47:07</time>
      </trkpt>
      <trkpt lat="40.21233" lon="-1.86236">
        <ele>1202.6</ele>
        <time>2021-10-09 16:47:08</time>
      </trkpt>
      <trkpt lat="40.21237" lon="-1.8623">
        <ele>1202.6</ele>
        <time>2021-10-09 16:47:09</time>
      </trkpt>
      <trkpt lat="40.2124" lon="-1.86223">
        <ele>1202.6</ele>
        <time>2021-10-09 16:47:10</time>
      </trkpt>
      <trkpt lat="40.21244" lon="-1.86218">
        <ele>1202.6</ele>
        <time>2021-10-09 16:47:11</time>
      </trkpt>
      <trkpt lat="40.21247" lon="-1.86211">
        <ele>1202.6</ele>
        <time>2021-10-09 16:47:12</time>
      </trkpt>
      <trkpt lat="40.21251" lon="-1.86205">
        <ele>1202.8</ele>
        <time>2021-10-09 16:47:13</time>
      </trkpt>
      <trkpt lat="40.21254" lon="-1.86198">
        <ele>1202.8</ele>
        <time>2021-10-09 16:47:14</time>
      </trkpt>
      <trkpt lat="40.21258" lon="-1.86193">
        <ele>1202.8</ele>
        <time>2021-10-09 16:47:15</time>
      </trkpt>
      <trkpt lat="40.21261" lon="-1.86187">
        <ele>1202.8</ele>
        <time>2021-10-09 16:47:16</time>
      </trkpt>
      <trkpt lat="40.21265" lon="-1.86182">
        <ele>1202.8</ele>
        <time>2021-10-09 16:47:17</time>
      </trkpt>
      <trkpt lat="40.21269" lon="-1.86176">
        <ele>1202.8</ele>
        <time>2021-10-09 16:47:18</time>
      </trkpt>
      <trkpt lat="40.21274" lon="-1.86171">
        <ele>1202.8</ele>
        <time>2021-10-09 16:47:19</time>
      </trkpt>
      <trkpt lat="40.21279" lon="-1.86166">
        <ele>1202.8</ele>
        <time>2021-10-09 16:47:20</time>
      </trkpt>
      <trkpt lat="40.21284" lon="-1.8616">
        <ele>1202.8</ele>
        <time>2021-10-09 16:47:21</time>
      </trkpt>
      <trkpt lat="40.21288" lon="-1.86155">
        <ele>1202.8</ele>
        <time>2021-10-09 16:47:22</time>
      </trkpt>
      <trkpt lat="40.21291" lon="-1.86149">
        <ele>1202.8</ele>
        <time>2021-10-09 16:47:23</time>
      </trkpt>
      <trkpt lat="40.21295" lon="-1.86143">
        <ele>1202.8</ele>
        <time>2021-10-09 16:47:24</time>
      </trkpt>
      <trkpt lat="40.21299" lon="-1.86136">
        <ele>1202.8</ele>
        <time>2021-10-09 16:47:25</time>
      </trkpt>
      <trkpt lat="40.21302" lon="-1.86128">
        <ele>1202.8</ele>
        <time>2021-10-09 16:47:26</time>
      </trkpt>
      <trkpt lat="40.21305" lon="-1.86121">
        <ele>1203</ele>
        <time>2021-10-09 16:47:27</time>
      </trkpt>
      <trkpt lat="40.21307" lon="-1.86113">
        <ele>1203</ele>
        <time>2021-10-09 16:47:28</time>
      </trkpt>
      <trkpt lat="40.21308" lon="-1.86104">
        <ele>1203</ele>
        <time>2021-10-09 16:47:29</time>
      </trkpt>
      <trkpt lat="40.2131" lon="-1.86097">
        <ele>1203</ele>
        <time>2021-10-09 16:47:30</time>
      </trkpt>
      <trkpt lat="40.21311" lon="-1.86089">
        <ele>1203</ele>
        <time>2021-10-09 16:47:31</time>
      </trkpt>
      <trkpt lat="40.21312" lon="-1.8608">
        <ele>1203</ele>
        <time>2021-10-09 16:47:32</time>
      </trkpt>
      <trkpt lat="40.21312" lon="-1.86072">
        <ele>1203</ele>
        <time>2021-10-09 16:47:33</time>
      </trkpt>
      <trkpt lat="40.21312" lon="-1.86063">
        <ele>1203</ele>
        <time>2021-10-09 16:47:34</time>
      </trkpt>
      <trkpt lat="40.21312" lon="-1.86053">
        <ele>1203</ele>
        <time>2021-10-09 16:47:35</time>
      </trkpt>
      <trkpt lat="40.21312" lon="-1.86044">
        <ele>1203</ele>
        <time>2021-10-09 16:47:36</time>
      </trkpt>
      <trkpt lat="40.21313" lon="-1.86035">
        <ele>1203</ele>
        <time>2021-10-09 16:47:37</time>
      </trkpt>
      <trkpt lat="40.21313" lon="-1.86026">
        <ele>1202.6</ele>
        <time>2021-10-09 16:47:38</time>
      </trkpt>
      <trkpt lat="40.21312" lon="-1.86018">
        <ele>1202.6</ele>
        <time>2021-10-09 16:47:39</time>
      </trkpt>
      <trkpt lat="40.21312" lon="-1.8601">
        <ele>1202.6</ele>
        <time>2021-10-09 16:47:40</time>
      </trkpt>
      <trkpt lat="40.21312" lon="-1.86001">
        <ele>1202.6</ele>
        <time>2021-10-09 16:47:41</time>
      </trkpt>
      <trkpt lat="40.21312" lon="-1.85993">
        <ele>1202.6</ele>
        <time>2021-10-09 16:47:42</time>
      </trkpt>
      <trkpt lat="40.21312" lon="-1.85984">
        <ele>1202.6</ele>
        <time>2021-10-09 16:47:43</time>
      </trkpt>
      <trkpt lat="40.21311" lon="-1.85976">
        <ele>1202.6</ele>
        <time>2021-10-09 16:47:44</time>
      </trkpt>
      <trkpt lat="40.21311" lon="-1.85967">
        <ele>1202.6</ele>
        <time>2021-10-09 16:47:45</time>
      </trkpt>
      <trkpt lat="40.2131" lon="-1.8596">
        <ele>1202.6</ele>
        <time>2021-10-09 16:47:46</time>
      </trkpt>
      <trkpt lat="40.21311" lon="-1.85952">
        <ele>1202.6</ele>
        <time>2021-10-09 16:47:47</time>
      </trkpt>
      <trkpt lat="40.2131" lon="-1.85945">
        <ele>1202.6</ele>
        <time>2021-10-09 16:47:48</time>
      </trkpt>
      <trkpt lat="40.2131" lon="-1.85936">
        <ele>1202.6</ele>
        <time>2021-10-09 16:47:49</time>
      </trkpt>
      <trkpt lat="40.2131" lon="-1.85929">
        <ele>1202.4</ele>
        <time>2021-10-09 16:47:50</time>
      </trkpt>
      <trkpt lat="40.21309" lon="-1.8592">
        <ele>1202.4</ele>
        <time>2021-10-09 16:47:51</time>
      </trkpt>
      <trkpt lat="40.21309" lon="-1.85913">
        <ele>1202.4</ele>
        <time>2021-10-09 16:47:52</time>
      </trkpt>
      <trkpt lat="40.21308" lon="-1.85905">
        <ele>1202.4</ele>
        <time>2021-10-09 16:47:53</time>
      </trkpt>
      <trkpt lat="40.21309" lon="-1.85896">
        <ele>1202.4</ele>
        <time>2021-10-09 16:47:54</time>
      </trkpt>
      <trkpt lat="40.2131" lon="-1.85888">
        <ele>1202.4</ele>
        <time>2021-10-09 16:47:55</time>
      </trkpt>
      <trkpt lat="40.21311" lon="-1.85879">
        <ele>1202.2</ele>
        <time>2021-10-09 16:47:56</time>
      </trkpt>
      <trkpt lat="40.21312" lon="-1.8587">
        <ele>1202.2</ele>
        <time>2021-10-09 16:47:57</time>
      </trkpt>
      <trkpt lat="40.21313" lon="-1.85861">
        <ele>1202</ele>
        <time>2021-10-09 16:47:58</time>
      </trkpt>
      <trkpt lat="40.21314" lon="-1.85852">
        <ele>1201.6</ele>
        <time>2021-10-09 16:47:59</time>
      </trkpt>
      <trkpt lat="40.21317" lon="-1.85843">
        <ele>1201.4</ele>
        <time>2021-10-09 16:48:00</time>
      </trkpt>
      <trkpt lat="40.21319" lon="-1.85833">
        <ele>1201</ele>
        <time>2021-10-09 16:48:01</time>
      </trkpt>
      <trkpt lat="40.21324" lon="-1.85825">
        <ele>1200.6</ele>
        <time>2021-10-09 16:48:02</time>
      </trkpt>
      <trkpt lat="40.21328" lon="-1.85817">
        <ele>1200.4</ele>
        <time>2021-10-09 16:48:03</time>
      </trkpt>
      <trkpt lat="40.21334" lon="-1.8581">
        <ele>1200</ele>
        <time>2021-10-09 16:48:04</time>
      </trkpt>
      <trkpt lat="40.2134" lon="-1.85802">
        <ele>1199.6</ele>
        <time>2021-10-09 16:48:05</time>
      </trkpt>
      <trkpt lat="40.21346" lon="-1.85795">
        <ele>1199.4</ele>
        <time>2021-10-09 16:48:06</time>
      </trkpt>
      <trkpt lat="40.21352" lon="-1.85787">
        <ele>1199</ele>
        <time>2021-10-09 16:48:07</time>
      </trkpt>
      <trkpt lat="40.21358" lon="-1.8578">
        <ele>1198.8</ele>
        <time>2021-10-09 16:48:08</time>
      </trkpt>
      <trkpt lat="40.21364" lon="-1.85773">
        <ele>1198.6</ele>
        <time>2021-10-09 16:48:09</time>
      </trkpt>
      <trkpt lat="40.2137" lon="-1.85765">
        <ele>1198.2</ele>
        <time>2021-10-09 16:48:10</time>
      </trkpt>
      <trkpt lat="40.21377" lon="-1.85758">
        <ele>1198</ele>
        <time>2021-10-09 16:48:11</time>
      </trkpt>
      <trkpt lat="40.21385" lon="-1.85752">
        <ele>1197.6</ele>
        <time>2021-10-09 16:48:12</time>
      </trkpt>
      <trkpt lat="40.2139" lon="-1.85747">
        <ele>1197.2</ele>
        <time>2021-10-09 16:48:13</time>
      </trkpt>
      <trkpt lat="40.21398" lon="-1.85742">
        <ele>1197</ele>
        <time>2021-10-09 16:48:14</time>
      </trkpt>
      <trkpt lat="40.21405" lon="-1.85736">
        <ele>1196.8</ele>
        <time>2021-10-09 16:48:15</time>
      </trkpt>
      <trkpt lat="40.21412" lon="-1.85731">
        <ele>1196.8</ele>
        <time>2021-10-09 16:48:16</time>
      </trkpt>
      <trkpt lat="40.2142" lon="-1.85725">
        <ele>1196.4</ele>
        <time>2021-10-09 16:48:17</time>
      </trkpt>
      <trkpt lat="40.21426" lon="-1.85719">
        <ele>1196.4</ele>
        <time>2021-10-09 16:48:18</time>
      </trkpt>
      <trkpt lat="40.21434" lon="-1.85715">
        <ele>1196.2</ele>
        <time>2021-10-09 16:48:19</time>
      </trkpt>
      <trkpt lat="40.21441" lon="-1.85709">
        <ele>1196.2</ele>
        <time>2021-10-09 16:48:20</time>
      </trkpt>
      <trkpt lat="40.21448" lon="-1.85703">
        <ele>1196.2</ele>
        <time>2021-10-09 16:48:21</time>
      </trkpt>
      <trkpt lat="40.21454" lon="-1.85698">
        <ele>1196.2</ele>
        <time>2021-10-09 16:48:22</time>
      </trkpt>
      <trkpt lat="40.21461" lon="-1.85694">
        <ele>1195.8</ele>
        <time>2021-10-09 16:48:23</time>
      </trkpt>
      <trkpt lat="40.21468" lon="-1.85688">
        <ele>1195.8</ele>
        <time>2021-10-09 16:48:24</time>
      </trkpt>
      <trkpt lat="40.21475" lon="-1.85683">
        <ele>1195.8</ele>
        <time>2021-10-09 16:48:25</time>
      </trkpt>
      <trkpt lat="40.21482" lon="-1.85677">
        <ele>1195.8</ele>
        <time>2021-10-09 16:48:26</time>
      </trkpt>
      <trkpt lat="40.21488" lon="-1.85674">
        <ele>1195.6</ele>
        <time>2021-10-09 16:48:27</time>
      </trkpt>
      <trkpt lat="40.21494" lon="-1.85668">
        <ele>1195.6</ele>
        <time>2021-10-09 16:48:28</time>
      </trkpt>
      <trkpt lat="40.21501" lon="-1.85665">
        <ele>1195.6</ele>
        <time>2021-10-09 16:48:29</time>
      </trkpt>
      <trkpt lat="40.21507" lon="-1.8566">
        <ele>1195.6</ele>
        <time>2021-10-09 16:48:30</time>
      </trkpt>
      <trkpt lat="40.21513" lon="-1.85654">
        <ele>1195.6</ele>
        <time>2021-10-09 16:48:31</time>
      </trkpt>
      <trkpt lat="40.21519" lon="-1.85649">
        <ele>1195.6</ele>
        <time>2021-10-09 16:48:32</time>
      </trkpt>
      <trkpt lat="40.21525" lon="-1.85645">
        <ele>1195.6</ele>
        <time>2021-10-09 16:48:33</time>
      </trkpt>
      <trkpt lat="40.21532" lon="-1.85639">
        <ele>1195.6</ele>
        <time>2021-10-09 16:48:34</time>
      </trkpt>
      <trkpt lat="40.21538" lon="-1.85633">
        <ele>1195.6</ele>
        <time>2021-10-09 16:48:35</time>
      </trkpt>
      <trkpt lat="40.21544" lon="-1.85627">
        <ele>1195.6</ele>
        <time>2021-10-09 16:48:36</time>
      </trkpt>
      <trkpt lat="40.2155" lon="-1.85624">
        <ele>1195.6</ele>
        <time>2021-10-09 16:48:37</time>
      </trkpt>
      <trkpt lat="40.21557" lon="-1.85618">
        <ele>1195.4</ele>
        <time>2021-10-09 16:48:38</time>
      </trkpt>
      <trkpt lat="40.21564" lon="-1.85613">
        <ele>1195.4</ele>
        <time>2021-10-09 16:48:39</time>
      </trkpt>
      <trkpt lat="40.2157" lon="-1.85607">
        <ele>1195.4</ele>
        <time>2021-10-09 16:48:40</time>
      </trkpt>
      <trkpt lat="40.21577" lon="-1.85602">
        <ele>1195.4</ele>
        <time>2021-10-09 16:48:41</time>
      </trkpt>
      <trkpt lat="40.21583" lon="-1.85596">
        <ele>1195.4</ele>
        <time>2021-10-09 16:48:42</time>
      </trkpt>
      <trkpt lat="40.2159" lon="-1.8559">
        <ele>1195.2</ele>
        <time>2021-10-09 16:48:43</time>
      </trkpt>
      <trkpt lat="40.21597" lon="-1.85585">
        <ele>1195.2</ele>
        <time>2021-10-09 16:48:44</time>
      </trkpt>
      <trkpt lat="40.21603" lon="-1.85577">
        <ele>1195.2</ele>
        <time>2021-10-09 16:48:45</time>
      </trkpt>
      <trkpt lat="40.21608" lon="-1.8557">
        <ele>1195.2</ele>
        <time>2021-10-09 16:48:46</time>
      </trkpt>
      <trkpt lat="40.21614" lon="-1.85564">
        <ele>1195.2</ele>
        <time>2021-10-09 16:48:47</time>
      </trkpt>
      <trkpt lat="40.21619" lon="-1.85557">
        <ele>1195.2</ele>
        <time>2021-10-09 16:48:48</time>
      </trkpt>
      <trkpt lat="40.21624" lon="-1.85549">
        <ele>1195</ele>
        <time>2021-10-09 16:48:49</time>
      </trkpt>
      <trkpt lat="40.21629" lon="-1.85541">
        <ele>1195</ele>
        <time>2021-10-09 16:48:50</time>
      </trkpt>
      <trkpt lat="40.21633" lon="-1.85532">
        <ele>1194.8</ele>
        <time>2021-10-09 16:48:51</time>
      </trkpt>
      <trkpt lat="40.21638" lon="-1.85524">
        <ele>1194.8</ele>
        <time>2021-10-09 16:48:52</time>
      </trkpt>
      <trkpt lat="40.21641" lon="-1.85515">
        <ele>1194.8</ele>
        <time>2021-10-09 16:48:53</time>
      </trkpt>
      <trkpt lat="40.21645" lon="-1.85505">
        <ele>1194.8</ele>
        <time>2021-10-09 16:48:54</time>
      </trkpt>
      <trkpt lat="40.21648" lon="-1.85496">
        <ele>1194.8</ele>
        <time>2021-10-09 16:48:55</time>
      </trkpt>
      <trkpt lat="40.21651" lon="-1.85487">
        <ele>1194.8</ele>
        <time>2021-10-09 16:48:56</time>
      </trkpt>
      <trkpt lat="40.21654" lon="-1.85477">
        <ele>1194.6</ele>
        <time>2021-10-09 16:48:57</time>
      </trkpt>
      <trkpt lat="40.21656" lon="-1.85468">
        <ele>1194.6</ele>
        <time>2021-10-09 16:48:58</time>
      </trkpt>
      <trkpt lat="40.21658" lon="-1.85458">
        <ele>1194.6</ele>
        <time>2021-10-09 16:48:59</time>
      </trkpt>
      <trkpt lat="40.2166" lon="-1.85449">
        <ele>1194.6</ele>
        <time>2021-10-09 16:49:00</time>
      </trkpt>
      <trkpt lat="40.21661" lon="-1.85439">
        <ele>1194.6</ele>
        <time>2021-10-09 16:49:01</time>
      </trkpt>
      <trkpt lat="40.21662" lon="-1.85429">
        <ele>1194.6</ele>
        <time>2021-10-09 16:49:02</time>
      </trkpt>
      <trkpt lat="40.21662" lon="-1.8542">
        <ele>1194.6</ele>
        <time>2021-10-09 16:49:03</time>
      </trkpt>
      <trkpt lat="40.21663" lon="-1.8541">
        <ele>1194.6</ele>
        <time>2021-10-09 16:49:04</time>
      </trkpt>
      <trkpt lat="40.21663" lon="-1.854">
        <ele>1194.4</ele>
        <time>2021-10-09 16:49:05</time>
      </trkpt>
      <trkpt lat="40.21662" lon="-1.8539">
        <ele>1194.4</ele>
        <time>2021-10-09 16:49:06</time>
      </trkpt>
      <trkpt lat="40.21661" lon="-1.85381">
        <ele>1194.4</ele>
        <time>2021-10-09 16:49:07</time>
      </trkpt>
      <trkpt lat="40.2166" lon="-1.85372">
        <ele>1194.4</ele>
        <time>2021-10-09 16:49:08</time>
      </trkpt>
      <trkpt lat="40.21659" lon="-1.85362">
        <ele>1194.4</ele>
        <time>2021-10-09 16:49:09</time>
      </trkpt>
      <trkpt lat="40.21657" lon="-1.85353">
        <ele>1194.2</ele>
        <time>2021-10-09 16:49:10</time>
      </trkpt>
      <trkpt lat="40.21656" lon="-1.85343">
        <ele>1194.2</ele>
        <time>2021-10-09 16:49:11</time>
      </trkpt>
      <trkpt lat="40.21654" lon="-1.85334">
        <ele>1194.2</ele>
        <time>2021-10-09 16:49:12</time>
      </trkpt>
      <trkpt lat="40.21653" lon="-1.85325">
        <ele>1194.2</ele>
        <time>2021-10-09 16:49:13</time>
      </trkpt>
      <trkpt lat="40.21651" lon="-1.85316">
        <ele>1193.6</ele>
        <time>2021-10-09 16:49:14</time>
      </trkpt>
      <trkpt lat="40.2165" lon="-1.85306">
        <ele>1193.6</ele>
        <time>2021-10-09 16:49:15</time>
      </trkpt>
      <trkpt lat="40.2165" lon="-1.85297">
        <ele>1193.8</ele>
        <time>2021-10-09 16:49:16</time>
      </trkpt>
      <trkpt lat="40.21649" lon="-1.85288">
        <ele>1193.8</ele>
        <time>2021-10-09 16:49:17</time>
      </trkpt>
      <trkpt lat="40.21649" lon="-1.85279">
        <ele>1194</ele>
        <time>2021-10-09 16:49:18</time>
      </trkpt>
      <trkpt lat="40.21651" lon="-1.8527">
        <ele>1194.4</ele>
        <time>2021-10-09 16:49:19</time>
      </trkpt>
      <trkpt lat="40.21652" lon="-1.85261">
        <ele>1194.4</ele>
        <time>2021-10-09 16:49:20</time>
      </trkpt>
      <trkpt lat="40.21653" lon="-1.85252">
        <ele>1194.8</ele>
        <time>2021-10-09 16:49:21</time>
      </trkpt>
      <trkpt lat="40.21655" lon="-1.85244">
        <ele>1194.8</ele>
        <time>2021-10-09 16:49:22</time>
      </trkpt>
      <trkpt lat="40.21656" lon="-1.85236">
        <ele>1195</ele>
        <time>2021-10-09 16:49:23</time>
      </trkpt>
      <trkpt lat="40.21657" lon="-1.85227">
        <ele>1195.2</ele>
        <time>2021-10-09 16:49:24</time>
      </trkpt>
      <trkpt lat="40.21657" lon="-1.85219">
        <ele>1195.2</ele>
        <time>2021-10-09 16:49:25</time>
      </trkpt>
      <trkpt lat="40.21657" lon="-1.8521">
        <ele>1195.6</ele>
        <time>2021-10-09 16:49:26</time>
      </trkpt>
      <trkpt lat="40.21657" lon="-1.85201">
        <ele>1195.6</ele>
        <time>2021-10-09 16:49:27</time>
      </trkpt>
      <trkpt lat="40.21656" lon="-1.85194">
        <ele>1196</ele>
        <time>2021-10-09 16:49:28</time>
      </trkpt>
      <trkpt lat="40.21656" lon="-1.85185">
        <ele>1196</ele>
        <time>2021-10-09 16:49:29</time>
      </trkpt>
      <trkpt lat="40.21656" lon="-1.85177">
        <ele>1196.4</ele>
        <time>2021-10-09 16:49:30</time>
      </trkpt>
      <trkpt lat="40.21656" lon="-1.85169">
        <ele>1196.4</ele>
        <time>2021-10-09 16:49:31</time>
      </trkpt>
      <trkpt lat="40.21655" lon="-1.85161">
        <ele>1196.6</ele>
        <time>2021-10-09 16:49:32</time>
      </trkpt>
      <trkpt lat="40.21655" lon="-1.85153">
        <ele>1196.6</ele>
        <time>2021-10-09 16:49:33</time>
      </trkpt>
      <trkpt lat="40.21656" lon="-1.85145">
        <ele>1197</ele>
        <time>2021-10-09 16:49:34</time>
      </trkpt>
      <trkpt lat="40.21656" lon="-1.85137">
        <ele>1197</ele>
        <time>2021-10-09 16:49:35</time>
      </trkpt>
      <trkpt lat="40.21658" lon="-1.8513">
        <ele>1197</ele>
        <time>2021-10-09 16:49:36</time>
      </trkpt>
      <trkpt lat="40.2166" lon="-1.85122">
        <ele>1197.4</ele>
        <time>2021-10-09 16:49:37</time>
      </trkpt>
      <trkpt lat="40.21663" lon="-1.85114">
        <ele>1197.4</ele>
        <time>2021-10-09 16:49:38</time>
      </trkpt>
      <trkpt lat="40.21665" lon="-1.85107">
        <ele>1197.4</ele>
        <time>2021-10-09 16:49:39</time>
      </trkpt>
      <trkpt lat="40.21669" lon="-1.851">
        <ele>1197.6</ele>
        <time>2021-10-09 16:49:40</time>
      </trkpt>
      <trkpt lat="40.21672" lon="-1.85093">
        <ele>1197.6</ele>
        <time>2021-10-09 16:49:41</time>
      </trkpt>
      <trkpt lat="40.21676" lon="-1.85087">
        <ele>1197.6</ele>
        <time>2021-10-09 16:49:42</time>
      </trkpt>
      <trkpt lat="40.21681" lon="-1.8508">
        <ele>1197.6</ele>
        <time>2021-10-09 16:49:43</time>
      </trkpt>
      <trkpt lat="40.21686" lon="-1.85075">
        <ele>1197.6</ele>
        <time>2021-10-09 16:49:44</time>
      </trkpt>
      <trkpt lat="40.21692" lon="-1.8507">
        <ele>1197.2</ele>
        <time>2021-10-09 16:49:45</time>
      </trkpt>
      <trkpt lat="40.21698" lon="-1.85066">
        <ele>1197.2</ele>
        <time>2021-10-09 16:49:46</time>
      </trkpt>
      <trkpt lat="40.21705" lon="-1.85061">
        <ele>1197</ele>
        <time>2021-10-09 16:49:47</time>
      </trkpt>
      <trkpt lat="40.21712" lon="-1.85058">
        <ele>1196.6</ele>
        <time>2021-10-09 16:49:48</time>
      </trkpt>
      <trkpt lat="40.21719" lon="-1.85056">
        <ele>1196.4</ele>
        <time>2021-10-09 16:49:49</time>
      </trkpt>
      <trkpt lat="40.21726" lon="-1.85055">
        <ele>1196.4</ele>
        <time>2021-10-09 16:49:50</time>
      </trkpt>
      <trkpt lat="40.21733" lon="-1.85056">
        <ele>1196</ele>
        <time>2021-10-09 16:49:51</time>
      </trkpt>
      <trkpt lat="40.21741" lon="-1.85058">
        <ele>1195.8</ele>
        <time>2021-10-09 16:49:52</time>
      </trkpt>
      <trkpt lat="40.21748" lon="-1.85061">
        <ele>1195.6</ele>
        <time>2021-10-09 16:49:53</time>
      </trkpt>
      <trkpt lat="40.21755" lon="-1.85064">
        <ele>1195.6</ele>
        <time>2021-10-09 16:49:54</time>
      </trkpt>
      <trkpt lat="40.21762" lon="-1.85066">
        <ele>1195.2</ele>
        <time>2021-10-09 16:49:55</time>
      </trkpt>
      <trkpt lat="40.2177" lon="-1.85069">
        <ele>1195.2</ele>
        <time>2021-10-09 16:49:56</time>
      </trkpt>
      <trkpt lat="40.21777" lon="-1.85071">
        <ele>1194.8</ele>
        <time>2021-10-09 16:49:57</time>
      </trkpt>
      <trkpt lat="40.21784" lon="-1.85074">
        <ele>1194.8</ele>
        <time>2021-10-09 16:49:58</time>
      </trkpt>
      <trkpt lat="40.21791" lon="-1.85077">
        <ele>1194.8</ele>
        <time>2021-10-09 16:49:59</time>
      </trkpt>
      <trkpt lat="40.21799" lon="-1.8508">
        <ele>1194.6</ele>
        <time>2021-10-09 16:50:00</time>
      </trkpt>
      <trkpt lat="40.21806" lon="-1.85083">
        <ele>1194.6</ele>
        <time>2021-10-09 16:50:01</time>
      </trkpt>
      <trkpt lat="40.21813" lon="-1.85086">
        <ele>1194.6</ele>
        <time>2021-10-09 16:50:02</time>
      </trkpt>
      <trkpt lat="40.21821" lon="-1.85088">
        <ele>1194.6</ele>
        <time>2021-10-09 16:50:03</time>
      </trkpt>
      <trkpt lat="40.21828" lon="-1.8509">
        <ele>1194.6</ele>
        <time>2021-10-09 16:50:04</time>
      </trkpt>
      <trkpt lat="40.21834" lon="-1.8509">
        <ele>1194.6</ele>
        <time>2021-10-09 16:50:05</time>
      </trkpt>
      <trkpt lat="40.21842" lon="-1.85089">
        <ele>1194.6</ele>
        <time>2021-10-09 16:50:06</time>
      </trkpt>
      <trkpt lat="40.21848" lon="-1.85088">
        <ele>1194.6</ele>
        <time>2021-10-09 16:50:07</time>
      </trkpt>
      <trkpt lat="40.21855" lon="-1.85087">
        <ele>1194.6</ele>
        <time>2021-10-09 16:50:08</time>
      </trkpt>
      <trkpt lat="40.21862" lon="-1.85085">
        <ele>1194.6</ele>
        <time>2021-10-09 16:50:09</time>
      </trkpt>
      <trkpt lat="40.21869" lon="-1.85083">
        <ele>1194.8</ele>
        <time>2021-10-09 16:50:10</time>
      </trkpt>
      <trkpt lat="40.21876" lon="-1.85081">
        <ele>1194.8</ele>
        <time>2021-10-09 16:50:11</time>
      </trkpt>
      <trkpt lat="40.21883" lon="-1.85078">
        <ele>1194.8</ele>
        <time>2021-10-09 16:50:12</time>
      </trkpt>
      <trkpt lat="40.21889" lon="-1.85075">
        <ele>1194.8</ele>
        <time>2021-10-09 16:50:13</time>
      </trkpt>
      <trkpt lat="40.21896" lon="-1.85071">
        <ele>1194.8</ele>
        <time>2021-10-09 16:50:14</time>
      </trkpt>
      <trkpt lat="40.21903" lon="-1.85068">
        <ele>1194.8</ele>
        <time>2021-10-09 16:50:15</time>
      </trkpt>
      <trkpt lat="40.21909" lon="-1.85064">
        <ele>1194.8</ele>
        <time>2021-10-09 16:50:16</time>
      </trkpt>
      <trkpt lat="40.21916" lon="-1.85061">
        <ele>1194.8</ele>
        <time>2021-10-09 16:50:17</time>
      </trkpt>
      <trkpt lat="40.21923" lon="-1.85057">
        <ele>1194.8</ele>
        <time>2021-10-09 16:50:18</time>
      </trkpt>
      <trkpt lat="40.21929" lon="-1.85053">
        <ele>1194.8</ele>
        <time>2021-10-09 16:50:19</time>
      </trkpt>
      <trkpt lat="40.21935" lon="-1.85049">
        <ele>1194.6</ele>
        <time>2021-10-09 16:50:20</time>
      </trkpt>
      <trkpt lat="40.21942" lon="-1.85045">
        <ele>1194.6</ele>
        <time>2021-10-09 16:50:21</time>
      </trkpt>
      <trkpt lat="40.21948" lon="-1.85041">
        <ele>1194.6</ele>
        <time>2021-10-09 16:50:22</time>
      </trkpt>
      <trkpt lat="40.21954" lon="-1.85038">
        <ele>1194.6</ele>
        <time>2021-10-09 16:50:23</time>
      </trkpt>
      <trkpt lat="40.21961" lon="-1.85034">
        <ele>1194.6</ele>
        <time>2021-10-09 16:50:24</time>
      </trkpt>
      <trkpt lat="40.21967" lon="-1.85031">
        <ele>1194.6</ele>
        <time>2021-10-09 16:50:25</time>
      </trkpt>
      <trkpt lat="40.21973" lon="-1.85027">
        <ele>1194.6</ele>
        <time>2021-10-09 16:50:26</time>
      </trkpt>
      <trkpt lat="40.21979" lon="-1.85024">
        <ele>1194.6</ele>
        <time>2021-10-09 16:50:27</time>
      </trkpt>
      <trkpt lat="40.21984" lon="-1.85019">
        <ele>1194.6</ele>
        <time>2021-10-09 16:50:28</time>
      </trkpt>
      <trkpt lat="40.2199" lon="-1.85016">
        <ele>1194.6</ele>
        <time>2021-10-09 16:50:29</time>
      </trkpt>
      <trkpt lat="40.21995" lon="-1.85012">
        <ele>1194.4</ele>
        <time>2021-10-09 16:50:30</time>
      </trkpt>
      <trkpt lat="40.22001" lon="-1.85008">
        <ele>1194.4</ele>
        <time>2021-10-09 16:50:31</time>
      </trkpt>
      <trkpt lat="40.22007" lon="-1.85005">
        <ele>1194.4</ele>
        <time>2021-10-09 16:50:32</time>
      </trkpt>
      <trkpt lat="40.22013" lon="-1.85001">
        <ele>1194.4</ele>
        <time>2021-10-09 16:50:33</time>
      </trkpt>
      <trkpt lat="40.22025" lon="-1.84993">
        <ele>1194.4</ele>
        <time>2021-10-09 16:50:34</time>
      </trkpt>
      <trkpt lat="40.22031" lon="-1.84989">
        <ele>1194.4</ele>
        <time>2021-10-09 16:50:35</time>
      </trkpt>
      <trkpt lat="40.22037" lon="-1.84985">
        <ele>1194.4</ele>
        <time>2021-10-09 16:50:36</time>
      </trkpt>
      <trkpt lat="40.22043" lon="-1.84982">
        <ele>1194.4</ele>
        <time>2021-10-09 16:50:37</time>
      </trkpt>
      <trkpt lat="40.2205" lon="-1.84978">
        <ele>1194.4</ele>
        <time>2021-10-09 16:50:38</time>
      </trkpt>
      <trkpt lat="40.22055" lon="-1.84974">
        <ele>1194.4</ele>
        <time>2021-10-09 16:50:39</time>
      </trkpt>
      <trkpt lat="40.22061" lon="-1.8497">
        <ele>1194.4</ele>
        <time>2021-10-09 16:50:40</time>
      </trkpt>
      <trkpt lat="40.22067" lon="-1.84967">
        <ele>1194.4</ele>
        <time>2021-10-09 16:50:41</time>
      </trkpt>
      <trkpt lat="40.22073" lon="-1.84963">
        <ele>1194.4</ele>
        <time>2021-10-09 16:50:42</time>
      </trkpt>
      <trkpt lat="40.22078" lon="-1.84959">
        <ele>1194.4</ele>
        <time>2021-10-09 16:50:43</time>
      </trkpt>
      <trkpt lat="40.22083" lon="-1.84956">
        <ele>1194.4</ele>
        <time>2021-10-09 16:50:44</time>
      </trkpt>
      <trkpt lat="40.22089" lon="-1.84952">
        <ele>1194.4</ele>
        <time>2021-10-09 16:50:45</time>
      </trkpt>
      <trkpt lat="40.22095" lon="-1.84948">
        <ele>1194.4</ele>
        <time>2021-10-09 16:50:46</time>
      </trkpt>
      <trkpt lat="40.221" lon="-1.84945">
        <ele>1194.4</ele>
        <time>2021-10-09 16:50:47</time>
      </trkpt>
      <trkpt lat="40.22106" lon="-1.84942">
        <ele>1194.4</ele>
        <time>2021-10-09 16:50:48</time>
      </trkpt>
      <trkpt lat="40.22112" lon="-1.84939">
        <ele>1194.4</ele>
        <time>2021-10-09 16:50:49</time>
      </trkpt>
      <trkpt lat="40.22118" lon="-1.84935">
        <ele>1194.4</ele>
        <time>2021-10-09 16:50:50</time>
      </trkpt>
      <trkpt lat="40.22124" lon="-1.84931">
        <ele>1194.4</ele>
        <time>2021-10-09 16:50:51</time>
      </trkpt>
      <trkpt lat="40.2213" lon="-1.84927">
        <ele>1194.4</ele>
        <time>2021-10-09 16:50:52</time>
      </trkpt>
      <trkpt lat="40.22135" lon="-1.84923">
        <ele>1194.4</ele>
        <time>2021-10-09 16:50:53</time>
      </trkpt>
      <trkpt lat="40.22142" lon="-1.84919">
        <ele>1194.4</ele>
        <time>2021-10-09 16:50:54</time>
      </trkpt>
      <trkpt lat="40.22148" lon="-1.84916">
        <ele>1194.4</ele>
        <time>2021-10-09 16:50:55</time>
      </trkpt>
      <trkpt lat="40.22153" lon="-1.84912">
        <ele>1194.4</ele>
        <time>2021-10-09 16:50:56</time>
      </trkpt>
      <trkpt lat="40.22159" lon="-1.84908">
        <ele>1194.4</ele>
        <time>2021-10-09 16:50:57</time>
      </trkpt>
      <trkpt lat="40.22165" lon="-1.84906">
        <ele>1194.4</ele>
        <time>2021-10-09 16:50:58</time>
      </trkpt>
      <trkpt lat="40.22171" lon="-1.84902">
        <ele>1194.4</ele>
        <time>2021-10-09 16:50:59</time>
      </trkpt>
      <trkpt lat="40.22176" lon="-1.84899">
        <ele>1194.8</ele>
        <time>2021-10-09 16:51:00</time>
      </trkpt>
      <trkpt lat="40.2218" lon="-1.84896">
        <ele>1194.8</ele>
        <time>2021-10-09 16:51:01</time>
      </trkpt>
      <trkpt lat="40.22186" lon="-1.84892">
        <ele>1194.8</ele>
        <time>2021-10-09 16:51:02</time>
      </trkpt>
      <trkpt lat="40.22191" lon="-1.84889">
        <ele>1194.8</ele>
        <time>2021-10-09 16:51:03</time>
      </trkpt>
      <trkpt lat="40.22195" lon="-1.84886">
        <ele>1194.8</ele>
        <time>2021-10-09 16:51:04</time>
      </trkpt>
      <trkpt lat="40.222" lon="-1.84882">
        <ele>1194.8</ele>
        <time>2021-10-09 16:51:05</time>
      </trkpt>
      <trkpt lat="40.22204" lon="-1.84879">
        <ele>1194.8</ele>
        <time>2021-10-09 16:51:06</time>
      </trkpt>
      <trkpt lat="40.22209" lon="-1.84876">
        <ele>1195</ele>
        <time>2021-10-09 16:51:07</time>
      </trkpt>
      <trkpt lat="40.22213" lon="-1.84872">
        <ele>1195</ele>
        <time>2021-10-09 16:51:08</time>
      </trkpt>
      <trkpt lat="40.22218" lon="-1.84869">
        <ele>1195</ele>
        <time>2021-10-09 16:51:09</time>
      </trkpt>
      <trkpt lat="40.22222" lon="-1.84866">
        <ele>1195</ele>
        <time>2021-10-09 16:51:10</time>
      </trkpt>
      <trkpt lat="40.22227" lon="-1.84862">
        <ele>1195.2</ele>
        <time>2021-10-09 16:51:11</time>
      </trkpt>
      <trkpt lat="40.22232" lon="-1.84859">
        <ele>1195.2</ele>
        <time>2021-10-09 16:51:12</time>
      </trkpt>
      <trkpt lat="40.22237" lon="-1.84855">
        <ele>1195.2</ele>
        <time>2021-10-09 16:51:13</time>
      </trkpt>
      <trkpt lat="40.22241" lon="-1.84851">
        <ele>1195.4</ele>
        <time>2021-10-09 16:51:14</time>
      </trkpt>
      <trkpt lat="40.22244" lon="-1.84848">
        <ele>1195.4</ele>
        <time>2021-10-09 16:51:15</time>
      </trkpt>
      <trkpt lat="40.22249" lon="-1.84844">
        <ele>1195.8</ele>
        <time>2021-10-09 16:51:16</time>
      </trkpt>
      <trkpt lat="40.22253" lon="-1.84841">
        <ele>1195.8</ele>
        <time>2021-10-09 16:51:17</time>
      </trkpt>
      <trkpt lat="40.22256" lon="-1.84837">
        <ele>1196</ele>
        <time>2021-10-09 16:51:18</time>
      </trkpt>
      <trkpt lat="40.22259" lon="-1.84832">
        <ele>1196</ele>
        <time>2021-10-09 16:51:19</time>
      </trkpt>
      <trkpt lat="40.22263" lon="-1.84827">
        <ele>1196</ele>
        <time>2021-10-09 16:51:20</time>
      </trkpt>
      <trkpt lat="40.22266" lon="-1.84823">
        <ele>1196.4</ele>
        <time>2021-10-09 16:51:21</time>
      </trkpt>
      <trkpt lat="40.2227" lon="-1.84819">
        <ele>1196.4</ele>
        <time>2021-10-09 16:51:22</time>
      </trkpt>
      <trkpt lat="40.22273" lon="-1.84813">
        <ele>1196.4</ele>
        <time>2021-10-09 16:51:23</time>
      </trkpt>
      <trkpt lat="40.22276" lon="-1.84808">
        <ele>1196.6</ele>
        <time>2021-10-09 16:51:24</time>
      </trkpt>
      <trkpt lat="40.22278" lon="-1.84802">
        <ele>1196.6</ele>
        <time>2021-10-09 16:51:25</time>
      </trkpt>
      <trkpt lat="40.22281" lon="-1.84797">
        <ele>1197</ele>
        <time>2021-10-09 16:51:26</time>
      </trkpt>
      <trkpt lat="40.22284" lon="-1.84792">
        <ele>1197</ele>
        <time>2021-10-09 16:51:27</time>
      </trkpt>
      <trkpt lat="40.22287" lon="-1.84787">
        <ele>1197.2</ele>
        <time>2021-10-09 16:51:28</time>
      </trkpt>
      <trkpt lat="40.2229" lon="-1.84782">
        <ele>1197.2</ele>
        <time>2021-10-09 16:51:29</time>
      </trkpt>
      <trkpt lat="40.22293" lon="-1.84777">
        <ele>1197.4</ele>
        <time>2021-10-09 16:51:30</time>
      </trkpt>
      <trkpt lat="40.22295" lon="-1.84772">
        <ele>1197.4</ele>
        <time>2021-10-09 16:51:31</time>
      </trkpt>
      <trkpt lat="40.22298" lon="-1.84766">
        <ele>1197.6</ele>
        <time>2021-10-09 16:51:32</time>
      </trkpt>
      <trkpt lat="40.223" lon="-1.8476">
        <ele>1197.6</ele>
        <time>2021-10-09 16:51:33</time>
      </trkpt>
      <trkpt lat="40.22302" lon="-1.84755">
        <ele>1198</ele>
        <time>2021-10-09 16:51:34</time>
      </trkpt>
      <trkpt lat="40.22305" lon="-1.84749">
        <ele>1198.2</ele>
        <time>2021-10-09 16:51:35</time>
      </trkpt>
      <trkpt lat="40.22307" lon="-1.84745">
        <ele>1198.2</ele>
        <time>2021-10-09 16:51:36</time>
      </trkpt>
      <trkpt lat="40.22309" lon="-1.84738">
        <ele>1198.6</ele>
        <time>2021-10-09 16:51:37</time>
      </trkpt>
      <trkpt lat="40.22311" lon="-1.84731">
        <ele>1198.6</ele>
        <time>2021-10-09 16:51:38</time>
      </trkpt>
      <trkpt lat="40.22311" lon="-1.84725">
        <ele>1199</ele>
        <time>2021-10-09 16:51:39</time>
      </trkpt>
      <trkpt lat="40.22313" lon="-1.84718">
        <ele>1199</ele>
        <time>2021-10-09 16:51:40</time>
      </trkpt>
      <trkpt lat="40.22315" lon="-1.84711">
        <ele>1199.4</ele>
        <time>2021-10-09 16:51:41</time>
      </trkpt>
      <trkpt lat="40.22316" lon="-1.84704">
        <ele>1199.4</ele>
        <time>2021-10-09 16:51:42</time>
      </trkpt>
      <trkpt lat="40.22319" lon="-1.84698">
        <ele>1199.6</ele>
        <time>2021-10-09 16:51:43</time>
      </trkpt>
      <trkpt lat="40.22321" lon="-1.84691">
        <ele>1199.6</ele>
        <time>2021-10-09 16:51:44</time>
      </trkpt>
      <trkpt lat="40.22323" lon="-1.84685">
        <ele>1200</ele>
        <time>2021-10-09 16:51:45</time>
      </trkpt>
      <trkpt lat="40.22325" lon="-1.84681">
        <ele>1200</ele>
        <time>2021-10-09 16:51:46</time>
      </trkpt>
      <trkpt lat="40.22326" lon="-1.84675">
        <ele>1200.4</ele>
        <time>2021-10-09 16:51:47</time>
      </trkpt>
      <trkpt lat="40.22328" lon="-1.8467">
        <ele>1200.6</ele>
        <time>2021-10-09 16:51:48</time>
      </trkpt>
      <trkpt lat="40.2233" lon="-1.84664">
        <ele>1200.8</ele>
        <time>2021-10-09 16:51:49</time>
      </trkpt>
      <trkpt lat="40.22331" lon="-1.8466">
        <ele>1201.2</ele>
        <time>2021-10-09 16:51:50</time>
      </trkpt>
      <trkpt lat="40.22334" lon="-1.84655">
        <ele>1201.4</ele>
        <time>2021-10-09 16:51:51</time>
      </trkpt>
      <trkpt lat="40.22336" lon="-1.8465">
        <ele>1201.6</ele>
        <time>2021-10-09 16:51:52</time>
      </trkpt>
      <trkpt lat="40.22338" lon="-1.84646">
        <ele>1201.8</ele>
        <time>2021-10-09 16:51:53</time>
      </trkpt>
      <trkpt lat="40.2234" lon="-1.84641">
        <ele>1202.2</ele>
        <time>2021-10-09 16:51:54</time>
      </trkpt>
      <trkpt lat="40.22343" lon="-1.84636">
        <ele>1202.2</ele>
        <time>2021-10-09 16:51:55</time>
      </trkpt>
      <trkpt lat="40.22346" lon="-1.84632">
        <ele>1202.2</ele>
        <time>2021-10-09 16:51:56</time>
      </trkpt>
      <trkpt lat="40.22349" lon="-1.84627">
        <ele>1202.2</ele>
        <time>2021-10-09 16:51:57</time>
      </trkpt>
      <trkpt lat="40.22352" lon="-1.84624">
        <ele>1202.2</ele>
        <time>2021-10-09 16:51:58</time>
      </trkpt>
      <trkpt lat="40.22355" lon="-1.8462">
        <ele>1202.2</ele>
        <time>2021-10-09 16:51:59</time>
      </trkpt>
      <trkpt lat="40.22358" lon="-1.84615">
        <ele>1202.6</ele>
        <time>2021-10-09 16:52:00</time>
      </trkpt>
      <trkpt lat="40.22361" lon="-1.84611">
        <ele>1202.6</ele>
        <time>2021-10-09 16:52:01</time>
      </trkpt>
      <trkpt lat="40.22364" lon="-1.84606">
        <ele>1202.6</ele>
        <time>2021-10-09 16:52:02</time>
      </trkpt>
      <trkpt lat="40.22367" lon="-1.84602">
        <ele>1202.6</ele>
        <time>2021-10-09 16:52:03</time>
      </trkpt>
      <trkpt lat="40.22371" lon="-1.84598">
        <ele>1202.6</ele>
        <time>2021-10-09 16:52:04</time>
      </trkpt>
      <trkpt lat="40.22374" lon="-1.84594">
        <ele>1202.6</ele>
        <time>2021-10-09 16:52:05</time>
      </trkpt>
      <trkpt lat="40.22377" lon="-1.8459">
        <ele>1202.6</ele>
        <time>2021-10-09 16:52:06</time>
      </trkpt>
      <trkpt lat="40.2238" lon="-1.84585">
        <ele>1202.8</ele>
        <time>2021-10-09 16:52:07</time>
      </trkpt>
      <trkpt lat="40.22383" lon="-1.84581">
        <ele>1202.8</ele>
        <time>2021-10-09 16:52:08</time>
      </trkpt>
      <trkpt lat="40.22386" lon="-1.84576">
        <ele>1199.8</ele>
        <time>2021-10-09 16:52:09</time>
      </trkpt>
      <trkpt lat="40.22389" lon="-1.84572">
        <ele>1201</ele>
        <time>2021-10-09 16:52:10</time>
      </trkpt>
      <trkpt lat="40.22392" lon="-1.84568">
        <ele>1202</ele>
        <time>2021-10-09 16:52:11</time>
      </trkpt>
      <trkpt lat="40.22395" lon="-1.84562">
        <ele>1202.6</ele>
        <time>2021-10-09 16:52:12</time>
      </trkpt>
      <trkpt lat="40.22398" lon="-1.84559">
        <ele>1203</ele>
        <time>2021-10-09 16:52:13</time>
      </trkpt>
      <trkpt lat="40.22401" lon="-1.84555">
        <ele>1203</ele>
        <time>2021-10-09 16:52:14</time>
      </trkpt>
      <trkpt lat="40.22403" lon="-1.84551">
        <ele>1203</ele>
        <time>2021-10-09 16:52:15</time>
      </trkpt>
      <trkpt lat="40.22406" lon="-1.84547">
        <ele>1203.2</ele>
        <time>2021-10-09 16:52:16</time>
      </trkpt>
      <trkpt lat="40.22406" lon="-1.84547">
        <ele>1203.2</ele>
        <time>2021-10-09 16:52:17</time>
      </trkpt>
      <trkpt lat="40.22409" lon="-1.84539">
        <ele>1203.2</ele>
        <time>2021-10-09 16:52:18</time>
      </trkpt>
      <trkpt lat="40.22409" lon="-1.84539">
        <ele>1203.2</ele>
        <time>2021-10-09 16:52:19</time>
      </trkpt>
      <trkpt lat="40.22413" lon="-1.84533">
        <ele>1203.4</ele>
        <time>2021-10-09 16:52:20</time>
      </trkpt>
      <trkpt lat="40.22413" lon="-1.84533">
        <ele>1203.4</ele>
        <time>2021-10-09 16:52:21</time>
      </trkpt>
      <trkpt lat="40.22415" lon="-1.84529">
        <ele>1203.4</ele>
        <time>2021-10-09 16:52:22</time>
      </trkpt>
      <trkpt lat="40.22417" lon="-1.84526">
        <ele>1203.4</ele>
        <time>2021-10-09 16:52:23</time>
      </trkpt>
      <trkpt lat="40.22417" lon="-1.84524">
        <ele>1203.4</ele>
        <time>2021-10-09 16:52:24</time>
      </trkpt>
      <trkpt lat="40.22416" lon="-1.84522">
        <ele>1203.4</ele>
        <time>2021-10-09 16:52:25</time>
      </trkpt>
      <trkpt lat="40.22416" lon="-1.84521">
        <ele>1203.4</ele>
        <time>2021-10-09 16:52:26</time>
      </trkpt>
      <trkpt lat="40.22415" lon="-1.84521">
        <ele>1203.4</ele>
        <time>2021-10-09 16:52:27</time>
      </trkpt>
      <trkpt lat="40.22415" lon="-1.84521">
        <ele>1203.4</ele>
        <time>2021-10-09 16:52:28</time>
      </trkpt>
      <trkpt lat="40.22415" lon="-1.84522">
        <ele>1203.8</ele>
        <time>2021-10-09 16:52:29</time>
      </trkpt>
      <trkpt lat="40.22415" lon="-1.8452">
        <ele>1203.8</ele>
        <time>2021-10-09 16:52:30</time>
      </trkpt>
      <trkpt lat="40.22415" lon="-1.84517">
        <ele>1203.4</ele>
        <time>2021-10-09 16:52:31</time>
      </trkpt>
      <trkpt lat="40.22415" lon="-1.84514">
        <ele>1203.4</ele>
        <time>2021-10-09 16:52:32</time>
      </trkpt>
      <trkpt lat="40.22415" lon="-1.8451">
        <ele>1203.2</ele>
        <time>2021-10-09 16:52:33</time>
      </trkpt>
      <trkpt lat="40.22415" lon="-1.84505">
        <ele>1203.2</ele>
        <time>2021-10-09 16:52:34</time>
      </trkpt>
      <trkpt lat="40.22416" lon="-1.845">
        <ele>1202.8</ele>
        <time>2021-10-09 16:52:35</time>
      </trkpt>
      <trkpt lat="40.22418" lon="-1.84495">
        <ele>1202.6</ele>
        <time>2021-10-09 16:52:36</time>
      </trkpt>
      <trkpt lat="40.22423" lon="-1.84489">
        <ele>1202.2</ele>
        <time>2021-10-09 16:52:37</time>
      </trkpt>
      <trkpt lat="40.22425" lon="-1.84482">
        <ele>1202</ele>
        <time>2021-10-09 16:52:51</time>
      </trkpt>
      <trkpt lat="40.22429" lon="-1.84476">
        <ele>1201.8</ele>
        <time>2021-10-09 16:52:52</time>
      </trkpt>
      <trkpt lat="40.22433" lon="-1.8447">
        <ele>1201.6</ele>
        <time>2021-10-09 16:52:53</time>
      </trkpt>
      <trkpt lat="40.22438" lon="-1.84465">
        <ele>1201.2</ele>
        <time>2021-10-09 16:52:54</time>
      </trkpt>
      <trkpt lat="40.22443" lon="-1.84457">
        <ele>1200.8</ele>
        <time>2021-10-09 16:52:55</time>
      </trkpt>
      <trkpt lat="40.22444" lon="-1.84448">
        <ele>1200.4</ele>
        <time>2021-10-09 16:52:56</time>
      </trkpt>
      <trkpt lat="40.22443" lon="-1.84439">
        <ele>1200.2</ele>
        <time>2021-10-09 16:52:57</time>
      </trkpt>
      <trkpt lat="40.22442" lon="-1.84431">
        <ele>1199.8</ele>
        <time>2021-10-09 16:52:58</time>
      </trkpt>
      <trkpt lat="40.22442" lon="-1.84422">
        <ele>1199.8</ele>
        <time>2021-10-09 16:52:59</time>
      </trkpt>
      <trkpt lat="40.22441" lon="-1.84415">
        <ele>1199.4</ele>
        <time>2021-10-09 16:53:00</time>
      </trkpt>
      <trkpt lat="40.2244" lon="-1.84407">
        <ele>1199.4</ele>
        <time>2021-10-09 16:53:01</time>
      </trkpt>
      <trkpt lat="40.22439" lon="-1.844">
        <ele>1199.2</ele>
        <time>2021-10-09 16:53:02</time>
      </trkpt>
      <trkpt lat="40.22438" lon="-1.84393">
        <ele>1199.2</ele>
        <time>2021-10-09 16:53:03</time>
      </trkpt>
      <trkpt lat="40.22436" lon="-1.84386">
        <ele>1199.2</ele>
        <time>2021-10-09 16:53:04</time>
      </trkpt>
      <trkpt lat="40.22435" lon="-1.84379">
        <ele>1199.2</ele>
        <time>2021-10-09 16:53:05</time>
      </trkpt>
      <trkpt lat="40.22434" lon="-1.84373">
        <ele>1199.2</ele>
        <time>2021-10-09 16:53:06</time>
      </trkpt>
      <trkpt lat="40.22433" lon="-1.84366">
        <ele>1199.2</ele>
        <time>2021-10-09 16:53:07</time>
      </trkpt>
      <trkpt lat="40.22431" lon="-1.8436">
        <ele>1199.2</ele>
        <time>2021-10-09 16:53:08</time>
      </trkpt>
      <trkpt lat="40.2243" lon="-1.84355">
        <ele>1199.2</ele>
        <time>2021-10-09 16:53:09</time>
      </trkpt>
      <trkpt lat="40.22429" lon="-1.84349">
        <ele>1199</ele>
        <time>2021-10-09 16:53:10</time>
      </trkpt>
      <trkpt lat="40.22427" lon="-1.84342">
        <ele>1199</ele>
        <time>2021-10-09 16:53:11</time>
      </trkpt>
      <trkpt lat="40.22425" lon="-1.84336">
        <ele>1199</ele>
        <time>2021-10-09 16:53:12</time>
      </trkpt>
      <trkpt lat="40.22424" lon="-1.84331">
        <ele>1199</ele>
        <time>2021-10-09 16:53:13</time>
      </trkpt>
      <trkpt lat="40.22423" lon="-1.84326">
        <ele>1199</ele>
        <time>2021-10-09 16:53:14</time>
      </trkpt>
      <trkpt lat="40.22422" lon="-1.84321">
        <ele>1199</ele>
        <time>2021-10-09 16:53:15</time>
      </trkpt>
      <trkpt lat="40.22421" lon="-1.84317">
        <ele>1199.2</ele>
        <time>2021-10-09 16:53:16</time>
      </trkpt>
      <trkpt lat="40.2242" lon="-1.84312">
        <ele>1199.2</ele>
        <time>2021-10-09 16:53:17</time>
      </trkpt>
      <trkpt lat="40.22419" lon="-1.84308">
        <ele>1199.4</ele>
        <time>2021-10-09 16:53:18</time>
      </trkpt>
      <trkpt lat="40.22419" lon="-1.84305">
        <ele>1199.6</ele>
        <time>2021-10-09 16:53:19</time>
      </trkpt>
      <trkpt lat="40.22417" lon="-1.84302">
        <ele>1199.6</ele>
        <time>2021-10-09 16:53:20</time>
      </trkpt>
      <trkpt lat="40.22417" lon="-1.84299">
        <ele>1200</ele>
        <time>2021-10-09 16:53:21</time>
      </trkpt>
      <trkpt lat="40.22417" lon="-1.84295">
        <ele>1200</ele>
        <time>2021-10-09 16:53:22</time>
      </trkpt>
      <trkpt lat="40.22417" lon="-1.84292">
        <ele>1200.4</ele>
        <time>2021-10-09 16:53:23</time>
      </trkpt>
      <trkpt lat="40.22419" lon="-1.84288">
        <ele>1200.4</ele>
        <time>2021-10-09 16:53:24</time>
      </trkpt>
      <trkpt lat="40.22421" lon="-1.84285">
        <ele>1200.8</ele>
        <time>2021-10-09 16:53:25</time>
      </trkpt>
      <trkpt lat="40.22422" lon="-1.84282">
        <ele>1201</ele>
        <time>2021-10-09 16:53:26</time>
      </trkpt>
      <trkpt lat="40.22424" lon="-1.8428">
        <ele>1201.4</ele>
        <time>2021-10-09 16:53:27</time>
      </trkpt>
      <trkpt lat="40.22427" lon="-1.84278">
        <ele>1201.8</ele>
        <time>2021-10-09 16:53:28</time>
      </trkpt>
      <trkpt lat="40.22429" lon="-1.84276">
        <ele>1202</ele>
        <time>2021-10-09 16:53:29</time>
      </trkpt>
      <trkpt lat="40.22431" lon="-1.84275">
        <ele>1202.4</ele>
        <time>2021-10-09 16:53:30</time>
      </trkpt>
      <trkpt lat="40.22433" lon="-1.84275">
        <ele>1202.6</ele>
        <time>2021-10-09 16:53:31</time>
      </trkpt>
      <trkpt lat="40.22435" lon="-1.84275">
        <ele>1202.8</ele>
        <time>2021-10-09 16:53:32</time>
      </trkpt>
      <trkpt lat="40.22436" lon="-1.84275">
        <ele>1203.2</ele>
        <time>2021-10-09 16:53:33</time>
      </trkpt>
      <trkpt lat="40.22438" lon="-1.84275">
        <ele>1203.2</ele>
        <time>2021-10-09 16:53:34</time>
      </trkpt>
      <trkpt lat="40.22441" lon="-1.84274">
        <ele>1203.4</ele>
        <time>2021-10-09 16:53:35</time>
      </trkpt>
      <trkpt lat="40.22443" lon="-1.84272">
        <ele>1203.4</ele>
        <time>2021-10-09 16:53:36</time>
      </trkpt>
      <trkpt lat="40.22446" lon="-1.8427">
        <ele>1203.6</ele>
        <time>2021-10-09 16:53:37</time>
      </trkpt>
      <trkpt lat="40.22448" lon="-1.84269">
        <ele>1203.6</ele>
        <time>2021-10-09 16:53:38</time>
      </trkpt>
      <trkpt lat="40.2245" lon="-1.84267">
        <ele>1204</ele>
        <time>2021-10-09 16:53:39</time>
      </trkpt>
      <trkpt lat="40.22452" lon="-1.84265">
        <ele>1204</ele>
        <time>2021-10-09 16:53:40</time>
      </trkpt>
      <trkpt lat="40.22455" lon="-1.84262">
        <ele>1204.2</ele>
        <time>2021-10-09 16:53:41</time>
      </trkpt>
      <trkpt lat="40.22457" lon="-1.8426">
        <ele>1204.2</ele>
        <time>2021-10-09 16:53:42</time>
      </trkpt>
      <trkpt lat="40.22459" lon="-1.84258">
        <ele>1204.2</ele>
        <time>2021-10-09 16:53:43</time>
      </trkpt>
      <trkpt lat="40.22461" lon="-1.84257">
        <ele>1204.6</ele>
        <time>2021-10-09 16:53:44</time>
      </trkpt>
      <trkpt lat="40.22462" lon="-1.84255">
        <ele>1204.6</ele>
        <time>2021-10-09 16:53:45</time>
      </trkpt>
      <trkpt lat="40.22464" lon="-1.84254">
        <ele>1204.6</ele>
        <time>2021-10-09 16:53:46</time>
      </trkpt>
      <trkpt lat="40.22466" lon="-1.84252">
        <ele>1204.8</ele>
        <time>2021-10-09 16:53:47</time>
      </trkpt>
      <trkpt lat="40.22468" lon="-1.84251">
        <ele>1204.8</ele>
        <time>2021-10-09 16:53:48</time>
      </trkpt>
      <trkpt lat="40.2247" lon="-1.84249">
        <ele>1205</ele>
        <time>2021-10-09 16:53:49</time>
      </trkpt>
      <trkpt lat="40.22471" lon="-1.84248">
        <ele>1205</ele>
        <time>2021-10-09 16:53:50</time>
      </trkpt>
      <trkpt lat="40.22473" lon="-1.84246">
        <ele>1205.4</ele>
        <time>2021-10-09 16:53:51</time>
      </trkpt>
      <trkpt lat="40.22475" lon="-1.84244">
        <ele>1205.4</ele>
        <time>2021-10-09 16:53:52</time>
      </trkpt>
      <trkpt lat="40.22477" lon="-1.84242">
        <ele>1205.6</ele>
        <time>2021-10-09 16:53:53</time>
      </trkpt>
      <trkpt lat="40.22479" lon="-1.8424">
        <ele>1205.6</ele>
        <time>2021-10-09 16:53:54</time>
      </trkpt>
      <trkpt lat="40.22481" lon="-1.84238">
        <ele>1205.6</ele>
        <time>2021-10-09 16:53:55</time>
      </trkpt>
      <trkpt lat="40.22482" lon="-1.84236">
        <ele>1205.8</ele>
        <time>2021-10-09 16:53:56</time>
      </trkpt>
      <trkpt lat="40.22484" lon="-1.84235">
        <ele>1205.8</ele>
        <time>2021-10-09 16:53:57</time>
      </trkpt>
      <trkpt lat="40.22486" lon="-1.84233">
        <ele>1205.8</ele>
        <time>2021-10-09 16:53:58</time>
      </trkpt>
      <trkpt lat="40.22487" lon="-1.84232">
        <ele>1205.8</ele>
        <time>2021-10-09 16:53:59</time>
      </trkpt>
      <trkpt lat="40.22489" lon="-1.84231">
        <ele>1206</ele>
        <time>2021-10-09 16:54:00</time>
      </trkpt>
      <trkpt lat="40.22491" lon="-1.8423">
        <ele>1206</ele>
        <time>2021-10-09 16:54:01</time>
      </trkpt>
      <trkpt lat="40.22493" lon="-1.84228">
        <ele>1206</ele>
        <time>2021-10-09 16:54:02</time>
      </trkpt>
      <trkpt lat="40.22495" lon="-1.84227">
        <ele>1206</ele>
        <time>2021-10-09 16:54:03</time>
      </trkpt>
      <trkpt lat="40.22497" lon="-1.84225">
        <ele>1206</ele>
        <time>2021-10-09 16:54:04</time>
      </trkpt>
      <trkpt lat="40.22499" lon="-1.84222">
        <ele>1206.2</ele>
        <time>2021-10-09 16:54:05</time>
      </trkpt>
      <trkpt lat="40.225" lon="-1.8422">
        <ele>1206.2</ele>
        <time>2021-10-09 16:54:06</time>
      </trkpt>
      <trkpt lat="40.22502" lon="-1.84218">
        <ele>1206.2</ele>
        <time>2021-10-09 16:54:07</time>
      </trkpt>
      <trkpt lat="40.22504" lon="-1.84215">
        <ele>1206.6</ele>
        <time>2021-10-09 16:54:08</time>
      </trkpt>
      <trkpt lat="40.22505" lon="-1.84213">
        <ele>1206.6</ele>
        <time>2021-10-09 16:54:09</time>
      </trkpt>
      <trkpt lat="40.22507" lon="-1.84211">
        <ele>1206.6</ele>
        <time>2021-10-09 16:54:10</time>
      </trkpt>
      <trkpt lat="40.22509" lon="-1.84208">
        <ele>1206.8</ele>
        <time>2021-10-09 16:54:11</time>
      </trkpt>
      <trkpt lat="40.2251" lon="-1.84206">
        <ele>1206.8</ele>
        <time>2021-10-09 16:54:12</time>
      </trkpt>
      <trkpt lat="40.22511" lon="-1.84204">
        <ele>1206.8</ele>
        <time>2021-10-09 16:54:13</time>
      </trkpt>
      <trkpt lat="40.22512" lon="-1.84202">
        <ele>1207</ele>
        <time>2021-10-09 16:54:14</time>
      </trkpt>
      <trkpt lat="40.22512" lon="-1.84201">
        <ele>1207</ele>
        <time>2021-10-09 16:54:15</time>
      </trkpt>
      <trkpt lat="40.22511" lon="-1.84201">
        <ele>1207</ele>
        <time>2021-10-09 16:54:16</time>
      </trkpt>
      <trkpt lat="40.22511" lon="-1.84201">
        <ele>1207.2</ele>
        <time>2021-10-09 16:54:17</time>
      </trkpt>
      <trkpt lat="40.22511" lon="-1.84201">
        <ele>1207.2</ele>
        <time>2021-10-09 16:54:18</time>
      </trkpt>
      <trkpt lat="40.22509" lon="-1.84204">
        <ele>1207.2</ele>
        <time>2021-10-09 16:54:19</time>
      </trkpt>
      <trkpt lat="40.22509" lon="-1.84204">
        <ele>1207.2</ele>
        <time>2021-10-09 16:54:20</time>
      </trkpt>
      <trkpt lat="40.22508" lon="-1.84204">
        <ele>1207.2</ele>
        <time>2021-10-09 16:54:21</time>
      </trkpt>
      <trkpt lat="40.22506" lon="-1.84203">
        <ele>1207.2</ele>
        <time>2021-10-09 16:54:22</time>
      </trkpt>
      <trkpt lat="40.22505" lon="-1.84203">
        <ele>1207.2</ele>
        <time>2021-10-09 16:54:23</time>
      </trkpt>
      <trkpt lat="40.22504" lon="-1.84203">
        <ele>1207.4</ele>
        <time>2021-10-09 16:54:24</time>
      </trkpt>
      <trkpt lat="40.22503" lon="-1.84203">
        <ele>1207.4</ele>
        <time>2021-10-09 16:54:25</time>
      </trkpt>
      <trkpt lat="40.22502" lon="-1.84202">
        <ele>1207.4</ele>
        <time>2021-10-09 16:54:26</time>
      </trkpt>
      <trkpt lat="40.22501" lon="-1.84202">
        <ele>1207.4</ele>
        <time>2021-10-09 16:54:36</time>
      </trkpt>
      <trkpt lat="40.225" lon="-1.84203">
        <ele>1207.4</ele>
        <time>2021-10-09 16:54:37</time>
      </trkpt>
      <trkpt lat="40.225" lon="-1.84203">
        <ele>1207.4</ele>
        <time>2021-10-09 16:54:38</time>
      </trkpt>
      <trkpt lat="40.225" lon="-1.84203">
        <ele>1207.4</ele>
        <time>2021-10-09 16:54:39</time>
      </trkpt>
      <trkpt lat="40.225" lon="-1.84203">
        <ele>1207.4</ele>
        <time>2021-10-09 16:54:40</time>
      </trkpt>
      <trkpt lat="40.22499" lon="-1.84203">
        <ele>1207.4</ele>
        <time>2021-10-09 16:54:41</time>
      </trkpt>
      <trkpt lat="40.22498" lon="-1.84202">
        <ele>1207.4</ele>
        <time>2021-10-09 16:54:42</time>
      </trkpt>
      <trkpt lat="40.22496" lon="-1.84202">
        <ele>1207.4</ele>
        <time>2021-10-09 16:54:43</time>
      </trkpt>
      <trkpt lat="40.22494" lon="-1.84201">
        <ele>1207.4</ele>
        <time>2021-10-09 16:54:44</time>
      </trkpt>
      <trkpt lat="40.22493" lon="-1.842">
        <ele>1207.4</ele>
        <time>2021-10-09 16:54:45</time>
      </trkpt>
      <trkpt lat="40.2249" lon="-1.842">
        <ele>1207.4</ele>
        <time>2021-10-09 16:54:46</time>
      </trkpt>
      <trkpt lat="40.22488" lon="-1.842">
        <ele>1207.4</ele>
        <time>2021-10-09 16:54:47</time>
      </trkpt>
      <trkpt lat="40.22486" lon="-1.84199">
        <ele>1207.4</ele>
        <time>2021-10-09 16:54:48</time>
      </trkpt>
      <trkpt lat="40.22484" lon="-1.84199">
        <ele>1207.4</ele>
        <time>2021-10-09 16:54:51</time>
      </trkpt>
      <trkpt lat="40.22482" lon="-1.84198">
        <ele>1207.4</ele>
        <time>2021-10-09 16:54:52</time>
      </trkpt>
      <trkpt lat="40.2248" lon="-1.84197">
        <ele>1207.4</ele>
        <time>2021-10-09 16:54:53</time>
      </trkpt>
      <trkpt lat="40.22477" lon="-1.84197">
        <ele>1207.8</ele>
        <time>2021-10-09 16:54:54</time>
      </trkpt>
      <trkpt lat="40.22475" lon="-1.84197">
        <ele>1207.8</ele>
        <time>2021-10-09 16:54:55</time>
      </trkpt>
      <trkpt lat="40.22472" lon="-1.84196">
        <ele>1207.8</ele>
        <time>2021-10-09 16:54:56</time>
      </trkpt>
      <trkpt lat="40.2247" lon="-1.84196">
        <ele>1207.8</ele>
        <time>2021-10-09 16:54:57</time>
      </trkpt>
      <trkpt lat="40.22468" lon="-1.84195">
        <ele>1207.8</ele>
        <time>2021-10-09 16:54:58</time>
      </trkpt>
      <trkpt lat="40.22466" lon="-1.84196">
        <ele>1207.8</ele>
        <time>2021-10-09 16:54:59</time>
      </trkpt>
      <trkpt lat="40.22464" lon="-1.84196">
        <ele>1207.8</ele>
        <time>2021-10-09 16:55:00</time>
      </trkpt>
      <trkpt lat="40.22462" lon="-1.84197">
        <ele>1206.8</ele>
        <time>2021-10-09 16:55:01</time>
      </trkpt>
      <trkpt lat="40.22461" lon="-1.84198">
        <ele>1207.4</ele>
        <time>2021-10-09 16:55:02</time>
      </trkpt>
      <trkpt lat="40.2246" lon="-1.84198">
        <ele>1207.8</ele>
        <time>2021-10-09 16:55:03</time>
      </trkpt>
      <trkpt lat="40.22459" lon="-1.84198">
        <ele>1207.8</ele>
        <time>2021-10-09 16:55:04</time>
      </trkpt>
      <trkpt lat="40.22458" lon="-1.84198">
        <ele>1208</ele>
        <time>2021-10-09 16:55:05</time>
      </trkpt>
      <trkpt lat="40.22456" lon="-1.84197">
        <ele>1208</ele>
        <time>2021-10-09 16:55:06</time>
      </trkpt>
      <trkpt lat="40.22455" lon="-1.84196">
        <ele>1208</ele>
        <time>2021-10-09 16:55:07</time>
      </trkpt>
      <trkpt lat="40.22453" lon="-1.84196">
        <ele>1208</ele>
        <time>2021-10-09 16:55:08</time>
      </trkpt>
      <trkpt lat="40.22451" lon="-1.84196">
        <ele>1208</ele>
        <time>2021-10-09 16:55:09</time>
      </trkpt>
      <trkpt lat="40.22449" lon="-1.84196">
        <ele>1208</ele>
        <time>2021-10-09 16:55:10</time>
      </trkpt>
      <trkpt lat="40.22448" lon="-1.84196">
        <ele>1208</ele>
        <time>2021-10-09 16:55:11</time>
      </trkpt>
      <trkpt lat="40.22446" lon="-1.84196">
        <ele>1208</ele>
        <time>2021-10-09 16:55:12</time>
      </trkpt>
      <trkpt lat="40.22444" lon="-1.84197">
        <ele>1208</ele>
        <time>2021-10-09 16:55:13</time>
      </trkpt>
      <trkpt lat="40.22443" lon="-1.84198">
        <ele>1208</ele>
        <time>2021-10-09 16:55:14</time>
      </trkpt>
      <trkpt lat="40.22443" lon="-1.84199">
        <ele>1208</ele>
        <time>2021-10-09 16:55:15</time>
      </trkpt>
      <trkpt lat="40.22443" lon="-1.842">
        <ele>1208</ele>
        <time>2021-10-09 16:55:16</time>
      </trkpt>
      <trkpt lat="40.22443" lon="-1.842">
        <ele>1208</ele>
        <time>2021-10-09 16:55:17</time>
      </trkpt>
      <trkpt lat="40.22443" lon="-1.842">
        <ele>1208</ele>
        <time>2021-10-09 16:55:18</time>
      </trkpt>
      <trkpt lat="40.22441" lon="-1.84203">
        <ele>1208</ele>
        <time>2021-10-09 16:55:19</time>
      </trkpt>
      <trkpt lat="40.2244" lon="-1.84204">
        <ele>1208</ele>
        <time>2021-10-09 16:55:20</time>
      </trkpt>
      <trkpt lat="40.22439" lon="-1.84206">
        <ele>1208</ele>
        <time>2021-10-09 16:55:21</time>
      </trkpt>
      <trkpt lat="40.22437" lon="-1.84207">
        <ele>1208</ele>
        <time>2021-10-09 16:55:22</time>
      </trkpt>
      <trkpt lat="40.22436" lon="-1.84209">
        <ele>1208</ele>
        <time>2021-10-09 16:55:23</time>
      </trkpt>
      <trkpt lat="40.22434" lon="-1.84211">
        <ele>1208</ele>
        <time>2021-10-09 16:55:24</time>
      </trkpt>
      <trkpt lat="40.22433" lon="-1.84211">
        <ele>1208</ele>
        <time>2021-10-09 16:55:25</time>
      </trkpt>
      <trkpt lat="40.22433" lon="-1.84212">
        <ele>1208</ele>
        <time>2021-10-09 16:55:26</time>
      </trkpt>
      <trkpt lat="40.22432" lon="-1.84212">
        <ele>1208</ele>
        <time>2021-10-09 16:55:30</time>
      </trkpt>
      <trkpt lat="40.22432" lon="-1.84212">
        <ele>1208</ele>
        <time>2021-10-09 16:55:31</time>
      </trkpt>
      <trkpt lat="40.22432" lon="-1.84212">
        <ele>1208</ele>
        <time>2021-10-09 16:55:32</time>
      </trkpt>
      <trkpt lat="40.22432" lon="-1.84212">
        <ele>1208</ele>
        <time>2021-10-09 16:55:33</time>
      </trkpt>
      <trkpt lat="40.22429" lon="-1.8421">
        <ele>1207.6</ele>
        <time>2021-10-09 16:55:34</time>
      </trkpt>
      <trkpt lat="40.22428" lon="-1.84208">
        <ele>1207.6</ele>
        <time>2021-10-09 16:55:35</time>
      </trkpt>
      <trkpt lat="40.22428" lon="-1.84206">
        <ele>1207.6</ele>
        <time>2021-10-09 16:55:36</time>
      </trkpt>
      <trkpt lat="40.22428" lon="-1.84204">
        <ele>1207.6</ele>
        <time>2021-10-09 16:55:37</time>
      </trkpt>
      <trkpt lat="40.22428" lon="-1.84202">
        <ele>1207.6</ele>
        <time>2021-10-09 16:55:38</time>
      </trkpt>
      <trkpt lat="40.22428" lon="-1.842">
        <ele>1207.6</ele>
        <time>2021-10-09 16:55:39</time>
      </trkpt>
      <trkpt lat="40.22428" lon="-1.842">
        <ele>1207.6</ele>
        <time>2021-10-09 16:55:40</time>
      </trkpt>
      <trkpt lat="40.22428" lon="-1.842">
        <ele>1207.6</ele>
        <time>2021-10-09 16:55:41</time>
      </trkpt>
      <trkpt lat="40.22428" lon="-1.84199">
        <ele>1208</ele>
        <time>2021-10-09 16:55:52</time>
      </trkpt>
      <trkpt lat="40.22428" lon="-1.84199">
        <ele>1208</ele>
        <time>2021-10-09 16:55:53</time>
      </trkpt>
      <trkpt lat="40.22428" lon="-1.84199">
        <ele>1208</ele>
        <time>2021-10-09 16:55:54</time>
      </trkpt>
      <trkpt lat="40.22428" lon="-1.84198">
        <ele>1208</ele>
        <time>2021-10-09 16:55:55</time>
      </trkpt>
      <trkpt lat="40.22428" lon="-1.84197">
        <ele>1208</ele>
        <time>2021-10-09 16:55:56</time>
      </trkpt>
      <trkpt lat="40.22428" lon="-1.84196">
        <ele>1207.6</ele>
        <time>2021-10-09 16:55:57</time>
      </trkpt>
      <trkpt lat="40.22427" lon="-1.84196">
        <ele>1207.6</ele>
        <time>2021-10-09 16:55:58</time>
      </trkpt>
      <trkpt lat="40.22426" lon="-1.84195">
        <ele>1207.6</ele>
        <time>2021-10-09 16:55:59</time>
      </trkpt>
      <trkpt lat="40.22426" lon="-1.84194">
        <ele>1207.6</ele>
        <time>2021-10-09 16:56:00</time>
      </trkpt>
      <trkpt lat="40.22425" lon="-1.84192">
        <ele>1207.6</ele>
        <time>2021-10-09 16:56:01</time>
      </trkpt>
      <trkpt lat="40.22424" lon="-1.84191">
        <ele>1207.6</ele>
        <time>2021-10-09 16:56:02</time>
      </trkpt>
      <trkpt lat="40.22424" lon="-1.84189">
        <ele>1207.6</ele>
        <time>2021-10-09 16:56:03</time>
      </trkpt>
      <trkpt lat="40.22424" lon="-1.84187">
        <ele>1207.6</ele>
        <time>2021-10-09 16:56:04</time>
      </trkpt>
      <trkpt lat="40.22423" lon="-1.84187">
        <ele>1207.6</ele>
        <time>2021-10-09 16:56:05</time>
      </trkpt>
      <trkpt lat="40.22423" lon="-1.84186">
        <ele>1207.6</ele>
        <time>2021-10-09 16:56:06</time>
      </trkpt>
      <trkpt lat="40.22423" lon="-1.84186">
        <ele>1207.6</ele>
        <time>2021-10-09 16:56:07</time>
      </trkpt>
      <trkpt lat="40.22422" lon="-1.84186">
        <ele>1207.6</ele>
        <time>2021-10-09 16:56:08</time>
      </trkpt>
      <trkpt lat="40.22421" lon="-1.84186">
        <ele>1207.6</ele>
        <time>2021-10-09 16:56:09</time>
      </trkpt>
      <trkpt lat="40.2242" lon="-1.84187">
        <ele>1207.6</ele>
        <time>2021-10-09 16:56:10</time>
      </trkpt>
      <trkpt lat="40.22419" lon="-1.84188">
        <ele>1207.4</ele>
        <time>2021-10-09 16:56:11</time>
      </trkpt>
      <trkpt lat="40.22419" lon="-1.84189">
        <ele>1207.4</ele>
        <time>2021-10-09 16:56:12</time>
      </trkpt>
      <trkpt lat="40.22419" lon="-1.8419">
        <ele>1207.4</ele>
        <time>2021-10-09 16:56:13</time>
      </trkpt>
      <trkpt lat="40.22419" lon="-1.8419">
        <ele>1207.2</ele>
        <time>2021-10-09 16:56:14</time>
      </trkpt>
      <trkpt lat="40.22419" lon="-1.8419">
        <ele>1207.2</ele>
        <time>2021-10-09 16:56:15</time>
      </trkpt>
      <trkpt lat="40.22419" lon="-1.8419">
        <ele>1207.2</ele>
        <time>2021-10-09 16:56:16</time>
      </trkpt>
      <trkpt lat="40.22419" lon="-1.84193">
        <ele>1207.2</ele>
        <time>2021-10-09 16:56:17</time>
      </trkpt>
      <trkpt lat="40.22418" lon="-1.84194">
        <ele>1207.2</ele>
        <time>2021-10-09 16:56:18</time>
      </trkpt>
      <trkpt lat="40.22417" lon="-1.84196">
        <ele>1207.2</ele>
        <time>2021-10-09 16:56:19</time>
      </trkpt>
      <trkpt lat="40.22415" lon="-1.84198">
        <ele>1207.2</ele>
        <time>2021-10-09 16:56:20</time>
      </trkpt>
      <trkpt lat="40.22414" lon="-1.84201">
        <ele>1207</ele>
        <time>2021-10-09 16:56:21</time>
      </trkpt>
      <trkpt lat="40.22412" lon="-1.84205">
        <ele>1207</ele>
        <time>2021-10-09 16:56:22</time>
      </trkpt>
      <trkpt lat="40.22411" lon="-1.84209">
        <ele>1207</ele>
        <time>2021-10-09 16:56:23</time>
      </trkpt>
      <trkpt lat="40.22409" lon="-1.84213">
        <ele>1206.6</ele>
        <time>2021-10-09 16:56:24</time>
      </trkpt>
      <trkpt lat="40.22407" lon="-1.84217">
        <ele>1206.6</ele>
        <time>2021-10-09 16:56:28</time>
      </trkpt>
      <trkpt lat="40.22406" lon="-1.84222">
        <ele>1206.6</ele>
        <time>2021-10-09 16:56:29</time>
      </trkpt>
      <trkpt lat="40.22404" lon="-1.84227">
        <ele>1206.6</ele>
        <time>2021-10-09 16:56:30</time>
      </trkpt>
      <trkpt lat="40.22403" lon="-1.84231">
        <ele>1206.2</ele>
        <time>2021-10-09 16:56:31</time>
      </trkpt>
      <trkpt lat="40.22401" lon="-1.84236">
        <ele>1206</ele>
        <time>2021-10-09 16:56:32</time>
      </trkpt>
      <trkpt lat="40.224" lon="-1.84239">
        <ele>1205.8</ele>
        <time>2021-10-09 16:56:33</time>
      </trkpt>
      <trkpt lat="40.22398" lon="-1.84242">
        <ele>1205.8</ele>
        <time>2021-10-09 16:56:34</time>
      </trkpt>
      <trkpt lat="40.22396" lon="-1.84243">
        <ele>1205.4</ele>
        <time>2021-10-09 16:56:35</time>
      </trkpt>
      <trkpt lat="40.22394" lon="-1.84243">
        <ele>1205.4</ele>
        <time>2021-10-09 16:56:36</time>
      </trkpt>
      <trkpt lat="40.22392" lon="-1.84241">
        <ele>1205.2</ele>
        <time>2021-10-09 16:56:37</time>
      </trkpt>
      <trkpt lat="40.22391" lon="-1.8424">
        <ele>1205.2</ele>
        <time>2021-10-09 16:56:38</time>
      </trkpt>
      <trkpt lat="40.2239" lon="-1.84238">
        <ele>1205.2</ele>
        <time>2021-10-09 16:56:39</time>
      </trkpt>
      <trkpt lat="40.22388" lon="-1.84237">
        <ele>1205.2</ele>
        <time>2021-10-09 16:56:40</time>
      </trkpt>
      <trkpt lat="40.22387" lon="-1.84236">
        <ele>1205.2</ele>
        <time>2021-10-09 16:56:41</time>
      </trkpt>
      <trkpt lat="40.22386" lon="-1.84235">
        <ele>1205.2</ele>
        <time>2021-10-09 16:56:42</time>
      </trkpt>
      <trkpt lat="40.22384" lon="-1.84234">
        <ele>1205.4</ele>
        <time>2021-10-09 16:56:43</time>
      </trkpt>
      <trkpt lat="40.22383" lon="-1.84232">
        <ele>1205.4</ele>
        <time>2021-10-09 16:56:44</time>
      </trkpt>
      <trkpt lat="40.22382" lon="-1.84231">
        <ele>1205.6</ele>
        <time>2021-10-09 16:56:45</time>
      </trkpt>
      <trkpt lat="40.22381" lon="-1.84229">
        <ele>1205.6</ele>
        <time>2021-10-09 16:56:46</time>
      </trkpt>
      <trkpt lat="40.2238" lon="-1.84228">
        <ele>1205.6</ele>
        <time>2021-10-09 16:56:47</time>
      </trkpt>
      <trkpt lat="40.22379" lon="-1.84226">
        <ele>1205.8</ele>
        <time>2021-10-09 16:56:48</time>
      </trkpt>
      <trkpt lat="40.22378" lon="-1.84226">
        <ele>1206.2</ele>
        <time>2021-10-09 16:56:49</time>
      </trkpt>
      <trkpt lat="40.22376" lon="-1.84225">
        <ele>1206.2</ele>
        <time>2021-10-09 16:56:50</time>
      </trkpt>
      <trkpt lat="40.22374" lon="-1.84225">
        <ele>1206.6</ele>
        <time>2021-10-09 16:56:51</time>
      </trkpt>
      <trkpt lat="40.22373" lon="-1.84225">
        <ele>1206.6</ele>
        <time>2021-10-09 16:56:52</time>
      </trkpt>
      <trkpt lat="40.22371" lon="-1.84224">
        <ele>1206.8</ele>
        <time>2021-10-09 16:56:53</time>
      </trkpt>
      <trkpt lat="40.2237" lon="-1.84223">
        <ele>1206.8</ele>
        <time>2021-10-09 16:56:54</time>
      </trkpt>
      <trkpt lat="40.22369" lon="-1.84221">
        <ele>1207</ele>
        <time>2021-10-09 16:56:55</time>
      </trkpt>
      <trkpt lat="40.22368" lon="-1.8422">
        <ele>1207</ele>
        <time>2021-10-09 16:56:56</time>
      </trkpt>
      <trkpt lat="40.22366" lon="-1.84219">
        <ele>1207.4</ele>
        <time>2021-10-09 16:56:57</time>
      </trkpt>
      <trkpt lat="40.22365" lon="-1.84218">
        <ele>1207.4</ele>
        <time>2021-10-09 16:56:58</time>
      </trkpt>
      <trkpt lat="40.22364" lon="-1.84218">
        <ele>1207.6</ele>
        <time>2021-10-09 16:56:59</time>
      </trkpt>
      <trkpt lat="40.22362" lon="-1.84217">
        <ele>1207.6</ele>
        <time>2021-10-09 16:57:00</time>
      </trkpt>
      <trkpt lat="40.2236" lon="-1.84216">
        <ele>1208</ele>
        <time>2021-10-09 16:57:01</time>
      </trkpt>
      <trkpt lat="40.22359" lon="-1.84214">
        <ele>1208</ele>
        <time>2021-10-09 16:57:02</time>
      </trkpt>
      <trkpt lat="40.22357" lon="-1.84213">
        <ele>1208.2</ele>
        <time>2021-10-09 16:57:03</time>
      </trkpt>
      <trkpt lat="40.22355" lon="-1.84212">
        <ele>1208.2</ele>
        <time>2021-10-09 16:57:04</time>
      </trkpt>
      <trkpt lat="40.22353" lon="-1.84211">
        <ele>1208.6</ele>
        <time>2021-10-09 16:57:05</time>
      </trkpt>
      <trkpt lat="40.22351" lon="-1.84211">
        <ele>1208.6</ele>
        <time>2021-10-09 16:57:06</time>
      </trkpt>
      <trkpt lat="40.22349" lon="-1.8421">
        <ele>1208.8</ele>
        <time>2021-10-09 16:57:07</time>
      </trkpt>
      <trkpt lat="40.22347" lon="-1.84208">
        <ele>1208.8</ele>
        <time>2021-10-09 16:57:08</time>
      </trkpt>
      <trkpt lat="40.22345" lon="-1.84207">
        <ele>1209</ele>
        <time>2021-10-09 16:57:09</time>
      </trkpt>
      <trkpt lat="40.22343" lon="-1.84205">
        <ele>1209</ele>
        <time>2021-10-09 16:57:10</time>
      </trkpt>
      <trkpt lat="40.2234" lon="-1.84204">
        <ele>1209</ele>
        <time>2021-10-09 16:57:11</time>
      </trkpt>
      <trkpt lat="40.22338" lon="-1.84204">
        <ele>1209.2</ele>
        <time>2021-10-09 16:57:12</time>
      </trkpt>
      <trkpt lat="40.22336" lon="-1.84203">
        <ele>1209.2</ele>
        <time>2021-10-09 16:57:13</time>
      </trkpt>
      <trkpt lat="40.22334" lon="-1.84202">
        <ele>1209.2</ele>
        <time>2021-10-09 16:57:14</time>
      </trkpt>
      <trkpt lat="40.22332" lon="-1.84201">
        <ele>1209.2</ele>
        <time>2021-10-09 16:57:15</time>
      </trkpt>
      <trkpt lat="40.2233" lon="-1.84199">
        <ele>1209.6</ele>
        <time>2021-10-09 16:57:16</time>
      </trkpt>
      <trkpt lat="40.22328" lon="-1.84198">
        <ele>1209.6</ele>
        <time>2021-10-09 16:57:17</time>
      </trkpt>
      <trkpt lat="40.22325" lon="-1.84197">
        <ele>1209.6</ele>
        <time>2021-10-09 16:57:18</time>
      </trkpt>
      <trkpt lat="40.22323" lon="-1.84195">
        <ele>1209.6</ele>
        <time>2021-10-09 16:57:19</time>
      </trkpt>
      <trkpt lat="40.2232" lon="-1.84194">
        <ele>1209.6</ele>
        <time>2021-10-09 16:57:20</time>
      </trkpt>
      <trkpt lat="40.22317" lon="-1.84192">
        <ele>1209.6</ele>
        <time>2021-10-09 16:57:21</time>
      </trkpt>
      <trkpt lat="40.22314" lon="-1.8419">
        <ele>1209.6</ele>
        <time>2021-10-09 16:57:22</time>
      </trkpt>
      <trkpt lat="40.22311" lon="-1.84188">
        <ele>1209.6</ele>
        <time>2021-10-09 16:57:23</time>
      </trkpt>
      <trkpt lat="40.22308" lon="-1.84186">
        <ele>1209.6</ele>
        <time>2021-10-09 16:57:24</time>
      </trkpt>
      <trkpt lat="40.22305" lon="-1.84184">
        <ele>1209.6</ele>
        <time>2021-10-09 16:57:25</time>
      </trkpt>
      <trkpt lat="40.22302" lon="-1.84182">
        <ele>1209.6</ele>
        <time>2021-10-09 16:57:26</time>
      </trkpt>
      <trkpt lat="40.22298" lon="-1.8418">
        <ele>1209.4</ele>
        <time>2021-10-09 16:57:27</time>
      </trkpt>
      <trkpt lat="40.22295" lon="-1.84178">
        <ele>1209.4</ele>
        <time>2021-10-09 16:57:28</time>
      </trkpt>
      <trkpt lat="40.22292" lon="-1.84175">
        <ele>1209.4</ele>
        <time>2021-10-09 16:57:29</time>
      </trkpt>
      <trkpt lat="40.22288" lon="-1.84174">
        <ele>1209.2</ele>
        <time>2021-10-09 16:57:30</time>
      </trkpt>
      <trkpt lat="40.22284" lon="-1.84172">
        <ele>1209.2</ele>
        <time>2021-10-09 16:57:31</time>
      </trkpt>
      <trkpt lat="40.2228" lon="-1.8417">
        <ele>1209</ele>
        <time>2021-10-09 16:57:32</time>
      </trkpt>
      <trkpt lat="40.22277" lon="-1.84168">
        <ele>1209</ele>
        <time>2021-10-09 16:57:33</time>
      </trkpt>
      <trkpt lat="40.22273" lon="-1.84166">
        <ele>1208.6</ele>
        <time>2021-10-09 16:57:34</time>
      </trkpt>
      <trkpt lat="40.2227" lon="-1.84164">
        <ele>1208.6</ele>
        <time>2021-10-09 16:57:35</time>
      </trkpt>
      <trkpt lat="40.22266" lon="-1.84163">
        <ele>1208.6</ele>
        <time>2021-10-09 16:57:36</time>
      </trkpt>
      <trkpt lat="40.22263" lon="-1.84161">
        <ele>1208.6</ele>
        <time>2021-10-09 16:57:37</time>
      </trkpt>
      <trkpt lat="40.2226" lon="-1.8416">
        <ele>1208.6</ele>
        <time>2021-10-09 16:57:38</time>
      </trkpt>
      <trkpt lat="40.22257" lon="-1.8416">
        <ele>1208.6</ele>
        <time>2021-10-09 16:57:39</time>
      </trkpt>
      <trkpt lat="40.22254" lon="-1.84159">
        <ele>1209</ele>
        <time>2021-10-09 16:57:40</time>
      </trkpt>
      <trkpt lat="40.22252" lon="-1.84158">
        <ele>1209</ele>
        <time>2021-10-09 16:57:41</time>
      </trkpt>
      <trkpt lat="40.2225" lon="-1.84157">
        <ele>1209.4</ele>
        <time>2021-10-09 16:57:42</time>
      </trkpt>
      <trkpt lat="40.22247" lon="-1.84156">
        <ele>1209.6</ele>
        <time>2021-10-09 16:57:43</time>
      </trkpt>
      <trkpt lat="40.22245" lon="-1.84156">
        <ele>1209.8</ele>
        <time>2021-10-09 16:57:44</time>
      </trkpt>
      <trkpt lat="40.22242" lon="-1.84156">
        <ele>1209.8</ele>
        <time>2021-10-09 16:57:45</time>
      </trkpt>
      <trkpt lat="40.22239" lon="-1.84156">
        <ele>1210.2</ele>
        <time>2021-10-09 16:57:46</time>
      </trkpt>
      <trkpt lat="40.22237" lon="-1.84156">
        <ele>1210.4</ele>
        <time>2021-10-09 16:57:47</time>
      </trkpt>
      <trkpt lat="40.22234" lon="-1.84156">
        <ele>1210.6</ele>
        <time>2021-10-09 16:57:48</time>
      </trkpt>
      <trkpt lat="40.22229" lon="-1.84155">
        <ele>1210.6</ele>
        <time>2021-10-09 16:57:49</time>
      </trkpt>
      <trkpt lat="40.22226" lon="-1.84154">
        <ele>1211</ele>
        <time>2021-10-09 16:57:50</time>
      </trkpt>
      <trkpt lat="40.22224" lon="-1.84153">
        <ele>1211</ele>
        <time>2021-10-09 16:57:51</time>
      </trkpt>
      <trkpt lat="40.22222" lon="-1.84152">
        <ele>1211.4</ele>
        <time>2021-10-09 16:57:52</time>
      </trkpt>
      <trkpt lat="40.22219" lon="-1.84152">
        <ele>1211.4</ele>
        <time>2021-10-09 16:57:53</time>
      </trkpt>
      <trkpt lat="40.22216" lon="-1.84151">
        <ele>1211.6</ele>
        <time>2021-10-09 16:57:54</time>
      </trkpt>
      <trkpt lat="40.22214" lon="-1.84151">
        <ele>1211.6</ele>
        <time>2021-10-09 16:57:55</time>
      </trkpt>
      <trkpt lat="40.22211" lon="-1.84151">
        <ele>1212</ele>
        <time>2021-10-09 16:57:56</time>
      </trkpt>
      <trkpt lat="40.22208" lon="-1.84152">
        <ele>1212</ele>
        <time>2021-10-09 16:57:57</time>
      </trkpt>
      <trkpt lat="40.22205" lon="-1.84152">
        <ele>1212</ele>
        <time>2021-10-09 16:57:58</time>
      </trkpt>
      <trkpt lat="40.22203" lon="-1.84153">
        <ele>1212.2</ele>
        <time>2021-10-09 16:57:59</time>
      </trkpt>
      <trkpt lat="40.222" lon="-1.84153">
        <ele>1212.2</ele>
        <time>2021-10-09 16:58:00</time>
      </trkpt>
      <trkpt lat="40.22198" lon="-1.84153">
        <ele>1212.2</ele>
        <time>2021-10-09 16:58:01</time>
      </trkpt>
      <trkpt lat="40.22195" lon="-1.84153">
        <ele>1212.4</ele>
        <time>2021-10-09 16:58:02</time>
      </trkpt>
      <trkpt lat="40.22193" lon="-1.84153">
        <ele>1212.4</ele>
        <time>2021-10-09 16:58:03</time>
      </trkpt>
      <trkpt lat="40.22191" lon="-1.84153">
        <ele>1212.8</ele>
        <time>2021-10-09 16:58:04</time>
      </trkpt>
      <trkpt lat="40.22188" lon="-1.84153">
        <ele>1212.8</ele>
        <time>2021-10-09 16:58:05</time>
      </trkpt>
      <trkpt lat="40.22186" lon="-1.84153">
        <ele>1213</ele>
        <time>2021-10-09 16:58:06</time>
      </trkpt>
      <trkpt lat="40.22184" lon="-1.84154">
        <ele>1213</ele>
        <time>2021-10-09 16:58:07</time>
      </trkpt>
      <trkpt lat="40.22182" lon="-1.84154">
        <ele>1213.4</ele>
        <time>2021-10-09 16:58:08</time>
      </trkpt>
      <trkpt lat="40.22181" lon="-1.84155">
        <ele>1213.6</ele>
        <time>2021-10-09 16:58:09</time>
      </trkpt>
      <trkpt lat="40.22179" lon="-1.84155">
        <ele>1213.6</ele>
        <time>2021-10-09 16:58:10</time>
      </trkpt>
      <trkpt lat="40.22177" lon="-1.84155">
        <ele>1213.8</ele>
        <time>2021-10-09 16:58:11</time>
      </trkpt>
      <trkpt lat="40.22174" lon="-1.84155">
        <ele>1213.8</ele>
        <time>2021-10-09 16:58:12</time>
      </trkpt>
      <trkpt lat="40.22172" lon="-1.84155">
        <ele>1214</ele>
        <time>2021-10-09 16:58:13</time>
      </trkpt>
      <trkpt lat="40.2217" lon="-1.84156">
        <ele>1214</ele>
        <time>2021-10-09 16:58:14</time>
      </trkpt>
      <trkpt lat="40.22168" lon="-1.84157">
        <ele>1214.4</ele>
        <time>2021-10-09 16:58:15</time>
      </trkpt>
      <trkpt lat="40.22166" lon="-1.84157">
        <ele>1214.6</ele>
        <time>2021-10-09 16:58:16</time>
      </trkpt>
      <trkpt lat="40.22164" lon="-1.84158">
        <ele>1214.6</ele>
        <time>2021-10-09 16:58:17</time>
      </trkpt>
      <trkpt lat="40.22162" lon="-1.84158">
        <ele>1215</ele>
        <time>2021-10-09 16:58:18</time>
      </trkpt>
      <trkpt lat="40.2216" lon="-1.84159">
        <ele>1215</ele>
        <time>2021-10-09 16:58:19</time>
      </trkpt>
      <trkpt lat="40.22158" lon="-1.8416">
        <ele>1215.2</ele>
        <time>2021-10-09 16:58:20</time>
      </trkpt>
      <trkpt lat="40.22156" lon="-1.8416">
        <ele>1215.2</ele>
        <time>2021-10-09 16:58:21</time>
      </trkpt>
      <trkpt lat="40.22153" lon="-1.8416">
        <ele>1215.2</ele>
        <time>2021-10-09 16:58:22</time>
      </trkpt>
      <trkpt lat="40.22151" lon="-1.8416">
        <ele>1215.4</ele>
        <time>2021-10-09 16:58:23</time>
      </trkpt>
      <trkpt lat="40.22149" lon="-1.84161">
        <ele>1215.4</ele>
        <time>2021-10-09 16:58:24</time>
      </trkpt>
      <trkpt lat="40.22146" lon="-1.84161">
        <ele>1215.6</ele>
        <time>2021-10-09 16:58:25</time>
      </trkpt>
      <trkpt lat="40.22144" lon="-1.84161">
        <ele>1215.6</ele>
        <time>2021-10-09 16:58:26</time>
      </trkpt>
      <trkpt lat="40.22142" lon="-1.84161">
        <ele>1216</ele>
        <time>2021-10-09 16:58:27</time>
      </trkpt>
      <trkpt lat="40.22139" lon="-1.84162">
        <ele>1216</ele>
        <time>2021-10-09 16:58:28</time>
      </trkpt>
      <trkpt lat="40.22137" lon="-1.84162">
        <ele>1216</ele>
        <time>2021-10-09 16:58:29</time>
      </trkpt>
      <trkpt lat="40.22135" lon="-1.84162">
        <ele>1216.2</ele>
        <time>2021-10-09 16:58:30</time>
      </trkpt>
      <trkpt lat="40.22132" lon="-1.84162">
        <ele>1216.2</ele>
        <time>2021-10-09 16:58:31</time>
      </trkpt>
      <trkpt lat="40.2213" lon="-1.84162">
        <ele>1216.2</ele>
        <time>2021-10-09 16:58:32</time>
      </trkpt>
      <trkpt lat="40.22128" lon="-1.84162">
        <ele>1216.2</ele>
        <time>2021-10-09 16:58:33</time>
      </trkpt>
      <trkpt lat="40.22126" lon="-1.84162">
        <ele>1216.4</ele>
        <time>2021-10-09 16:58:34</time>
      </trkpt>
      <trkpt lat="40.22123" lon="-1.84162">
        <ele>1216.4</ele>
        <time>2021-10-09 16:58:35</time>
      </trkpt>
      <trkpt lat="40.22121" lon="-1.84162">
        <ele>1216.4</ele>
        <time>2021-10-09 16:58:36</time>
      </trkpt>
      <trkpt lat="40.22119" lon="-1.84163">
        <ele>1216.4</ele>
        <time>2021-10-09 16:58:37</time>
      </trkpt>
      <trkpt lat="40.22116" lon="-1.84165">
        <ele>1216.4</ele>
        <time>2021-10-09 16:58:38</time>
      </trkpt>
      <trkpt lat="40.22113" lon="-1.84166">
        <ele>1216.4</ele>
        <time>2021-10-09 16:58:39</time>
      </trkpt>
      <trkpt lat="40.2211" lon="-1.84166">
        <ele>1216.4</ele>
        <time>2021-10-09 16:58:40</time>
      </trkpt>
      <trkpt lat="40.22107" lon="-1.84166">
        <ele>1216.6</ele>
        <time>2021-10-09 16:58:41</time>
      </trkpt>
      <trkpt lat="40.22104" lon="-1.84166">
        <ele>1216.6</ele>
        <time>2021-10-09 16:58:42</time>
      </trkpt>
      <trkpt lat="40.22102" lon="-1.84166">
        <ele>1216.6</ele>
        <time>2021-10-09 16:58:43</time>
      </trkpt>
      <trkpt lat="40.22099" lon="-1.84166">
        <ele>1216.6</ele>
        <time>2021-10-09 16:58:44</time>
      </trkpt>
      <trkpt lat="40.22096" lon="-1.84167">
        <ele>1217</ele>
        <time>2021-10-09 16:58:45</time>
      </trkpt>
      <trkpt lat="40.22094" lon="-1.84167">
        <ele>1217</ele>
        <time>2021-10-09 16:58:46</time>
      </trkpt>
      <trkpt lat="40.22091" lon="-1.84167">
        <ele>1217</ele>
        <time>2021-10-09 16:58:47</time>
      </trkpt>
      <trkpt lat="40.22088" lon="-1.84167">
        <ele>1217</ele>
        <time>2021-10-09 16:58:48</time>
      </trkpt>
      <trkpt lat="40.22085" lon="-1.84168">
        <ele>1217</ele>
        <time>2021-10-09 16:58:49</time>
      </trkpt>
      <trkpt lat="40.22081" lon="-1.84168">
        <ele>1217</ele>
        <time>2021-10-09 16:58:50</time>
      </trkpt>
      <trkpt lat="40.22078" lon="-1.84169">
        <ele>1217.2</ele>
        <time>2021-10-09 16:58:51</time>
      </trkpt>
      <trkpt lat="40.22075" lon="-1.84169">
        <ele>1217.2</ele>
        <time>2021-10-09 16:58:52</time>
      </trkpt>
      <trkpt lat="40.22072" lon="-1.8417">
        <ele>1217.2</ele>
        <time>2021-10-09 16:58:53</time>
      </trkpt>
      <trkpt lat="40.22069" lon="-1.8417">
        <ele>1217.2</ele>
        <time>2021-10-09 16:58:54</time>
      </trkpt>
      <trkpt lat="40.22067" lon="-1.8417">
        <ele>1217.2</ele>
        <time>2021-10-09 16:58:55</time>
      </trkpt>
      <trkpt lat="40.22065" lon="-1.8417">
        <ele>1217.2</ele>
        <time>2021-10-09 16:58:56</time>
      </trkpt>
      <trkpt lat="40.22064" lon="-1.84171">
        <ele>1217.2</ele>
        <time>2021-10-09 16:58:57</time>
      </trkpt>
      <trkpt lat="40.22063" lon="-1.84171">
        <ele>1217.4</ele>
        <time>2021-10-09 16:58:58</time>
      </trkpt>
      <trkpt lat="40.22063" lon="-1.84171">
        <ele>1217.4</ele>
        <time>2021-10-09 16:58:59</time>
      </trkpt>
      <trkpt lat="40.22063" lon="-1.84171">
        <ele>1217.6</ele>
        <time>2021-10-09 16:59:00</time>
      </trkpt>
      <trkpt lat="40.22064" lon="-1.84171">
        <ele>1217.6</ele>
        <time>2021-10-09 16:59:01</time>
      </trkpt>
      <trkpt lat="40.22063" lon="-1.84171">
        <ele>1218</ele>
        <time>2021-10-09 16:59:02</time>
      </trkpt>
      <trkpt lat="40.22062" lon="-1.84171">
        <ele>1218</ele>
        <time>2021-10-09 16:59:03</time>
      </trkpt>
      <trkpt lat="40.22061" lon="-1.84172">
        <ele>1218</ele>
        <time>2021-10-09 16:59:04</time>
      </trkpt>
      <trkpt lat="40.22059" lon="-1.84172">
        <ele>1218</ele>
        <time>2021-10-09 16:59:05</time>
      </trkpt>
      <trkpt lat="40.22058" lon="-1.84173">
        <ele>1218</ele>
        <time>2021-10-09 16:59:06</time>
      </trkpt>
      <trkpt lat="40.22057" lon="-1.84173">
        <ele>1218</ele>
        <time>2021-10-09 16:59:07</time>
      </trkpt>
      <trkpt lat="40.22055" lon="-1.84173">
        <ele>1218</ele>
        <time>2021-10-09 16:59:08</time>
      </trkpt>
      <trkpt lat="40.22054" lon="-1.84174">
        <ele>1218.2</ele>
        <time>2021-10-09 16:59:09</time>
      </trkpt>
      <trkpt lat="40.22053" lon="-1.84174">
        <ele>1218.2</ele>
        <time>2021-10-09 16:59:34</time>
      </trkpt>
      <trkpt lat="40.22051" lon="-1.84174">
        <ele>1218.2</ele>
        <time>2021-10-09 16:59:35</time>
      </trkpt>
      <trkpt lat="40.2205" lon="-1.84174">
        <ele>1218.4</ele>
        <time>2021-10-09 16:59:36</time>
      </trkpt>
      <trkpt lat="40.22048" lon="-1.84174">
        <ele>1218.4</ele>
        <time>2021-10-09 16:59:37</time>
      </trkpt>
      <trkpt lat="40.22047" lon="-1.84174">
        <ele>1218.8</ele>
        <time>2021-10-09 16:59:38</time>
      </trkpt>
      <trkpt lat="40.22046" lon="-1.84174">
        <ele>1218.8</ele>
        <time>2021-10-09 16:59:39</time>
      </trkpt>
      <trkpt lat="40.22044" lon="-1.84175">
        <ele>1219</ele>
        <time>2021-10-09 16:59:40</time>
      </trkpt>
      <trkpt lat="40.22043" lon="-1.84175">
        <ele>1219</ele>
        <time>2021-10-09 16:59:41</time>
      </trkpt>
      <trkpt lat="40.22041" lon="-1.84176">
        <ele>1219.4</ele>
        <time>2021-10-09 16:59:42</time>
      </trkpt>
      <trkpt lat="40.2204" lon="-1.84176">
        <ele>1219.6</ele>
        <time>2021-10-09 16:59:43</time>
      </trkpt>
      <trkpt lat="40.22038" lon="-1.84176">
        <ele>1219.8</ele>
        <time>2021-10-09 16:59:44</time>
      </trkpt>
      <trkpt lat="40.22037" lon="-1.84176">
        <ele>1219.8</ele>
        <time>2021-10-09 16:59:45</time>
      </trkpt>
      <trkpt lat="40.22036" lon="-1.84176">
        <ele>1220.2</ele>
        <time>2021-10-09 16:59:46</time>
      </trkpt>
      <trkpt lat="40.22034" lon="-1.84177">
        <ele>1220.2</ele>
        <time>2021-10-09 16:59:47</time>
      </trkpt>
      <trkpt lat="40.22032" lon="-1.84177">
        <ele>1220.6</ele>
        <time>2021-10-09 16:59:48</time>
      </trkpt>
      <trkpt lat="40.22031" lon="-1.84177">
        <ele>1220.6</ele>
        <time>2021-10-09 16:59:49</time>
      </trkpt>
      <trkpt lat="40.22029" lon="-1.84178">
        <ele>1220.8</ele>
        <time>2021-10-09 16:59:50</time>
      </trkpt>
      <trkpt lat="40.22028" lon="-1.84178">
        <ele>1220.8</ele>
        <time>2021-10-09 16:59:51</time>
      </trkpt>
      <trkpt lat="40.22026" lon="-1.84178">
        <ele>1221</ele>
        <time>2021-10-09 16:59:52</time>
      </trkpt>
      <trkpt lat="40.22025" lon="-1.84179">
        <ele>1221</ele>
        <time>2021-10-09 16:59:53</time>
      </trkpt>
      <trkpt lat="40.22024" lon="-1.84179">
        <ele>1221.2</ele>
        <time>2021-10-09 16:59:54</time>
      </trkpt>
      <trkpt lat="40.22022" lon="-1.84179">
        <ele>1221.2</ele>
        <time>2021-10-09 16:59:55</time>
      </trkpt>
      <trkpt lat="40.22021" lon="-1.84179">
        <ele>1221.6</ele>
        <time>2021-10-09 16:59:56</time>
      </trkpt>
      <trkpt lat="40.2202" lon="-1.84179">
        <ele>1221.6</ele>
        <time>2021-10-09 16:59:57</time>
      </trkpt>
      <trkpt lat="40.22019" lon="-1.84179">
        <ele>1222</ele>
        <time>2021-10-09 16:59:58</time>
      </trkpt>
      <trkpt lat="40.22017" lon="-1.84179">
        <ele>1222</ele>
        <time>2021-10-09 16:59:59</time>
      </trkpt>
      <trkpt lat="40.22016" lon="-1.84179">
        <ele>1222.2</ele>
        <time>2021-10-09 17:00:00</time>
      </trkpt>
      <trkpt lat="40.22015" lon="-1.84179">
        <ele>1222.2</ele>
        <time>2021-10-09 17:00:01</time>
      </trkpt>
      <trkpt lat="40.22014" lon="-1.8418">
        <ele>1222.4</ele>
        <time>2021-10-09 17:00:02</time>
      </trkpt>
      <trkpt lat="40.22013" lon="-1.8418">
        <ele>1222.4</ele>
        <time>2021-10-09 17:00:03</time>
      </trkpt>
      <trkpt lat="40.22012" lon="-1.8418">
        <ele>1222.4</ele>
        <time>2021-10-09 17:00:04</time>
      </trkpt>
      <trkpt lat="40.22011" lon="-1.8418">
        <ele>1222.6</ele>
        <time>2021-10-09 17:00:05</time>
      </trkpt>
      <trkpt lat="40.2201" lon="-1.8418">
        <ele>1222.6</ele>
        <time>2021-10-09 17:00:06</time>
      </trkpt>
      <trkpt lat="40.22009" lon="-1.8418">
        <ele>1222.6</ele>
        <time>2021-10-09 17:00:07</time>
      </trkpt>
      <trkpt lat="40.22008" lon="-1.84181">
        <ele>1222.6</ele>
        <time>2021-10-09 17:00:08</time>
      </trkpt>
      <trkpt lat="40.22007" lon="-1.84181">
        <ele>1222.6</ele>
        <time>2021-10-09 17:00:09</time>
      </trkpt>
      <trkpt lat="40.22006" lon="-1.84181">
        <ele>1222.6</ele>
        <time>2021-10-09 17:00:10</time>
      </trkpt>
      <trkpt lat="40.22005" lon="-1.84181">
        <ele>1222.6</ele>
        <time>2021-10-09 17:00:11</time>
      </trkpt>
      <trkpt lat="40.22005" lon="-1.84182">
        <ele>1223</ele>
        <time>2021-10-09 17:00:12</time>
      </trkpt>
      <trkpt lat="40.22004" lon="-1.84182">
        <ele>1223</ele>
        <time>2021-10-09 17:00:13</time>
      </trkpt>
      <trkpt lat="40.22003" lon="-1.84182">
        <ele>1223</ele>
        <time>2021-10-09 17:00:14</time>
      </trkpt>
      <trkpt lat="40.22002" lon="-1.84183">
        <ele>1223</ele>
        <time>2021-10-09 17:00:15</time>
      </trkpt>
      <trkpt lat="40.22002" lon="-1.84183">
        <ele>1223</ele>
        <time>2021-10-09 17:00:16</time>
      </trkpt>
      <trkpt lat="40.22002" lon="-1.84183">
        <ele>1223</ele>
        <time>2021-10-09 17:00:17</time>
      </trkpt>
      <trkpt lat="40.22001" lon="-1.84183">
        <ele>1223</ele>
        <time>2021-10-09 17:00:18</time>
      </trkpt>
      <trkpt lat="40.22001" lon="-1.84182">
        <ele>1223</ele>
        <time>2021-10-09 17:00:19</time>
      </trkpt>
      <trkpt lat="40.22001" lon="-1.84182">
        <ele>1223</ele>
        <time>2021-10-09 17:00:20</time>
      </trkpt>
      <trkpt lat="40.22002" lon="-1.84184">
        <ele>1224.2</ele>
        <time>2021-10-09 17:00:21</time>
      </trkpt>
      <trkpt lat="40.22001" lon="-1.84183">
        <ele>1224.4</ele>
        <time>2021-10-09 17:00:22</time>
      </trkpt>
      <trkpt lat="40.22001" lon="-1.84182">
        <ele>1224.4</ele>
        <time>2021-10-09 17:00:23</time>
      </trkpt>
      <trkpt lat="40.22001" lon="-1.84182">
        <ele>1224.4</ele>
        <time>2021-10-09 17:00:24</time>
      </trkpt>
      <trkpt lat="40.22002" lon="-1.84182">
        <ele>1224.6</ele>
        <time>2021-10-09 17:00:25</time>
      </trkpt>
      <trkpt lat="40.22001" lon="-1.84182">
        <ele>1224.8</ele>
        <time>2021-10-09 17:00:26</time>
      </trkpt>
      <trkpt lat="40.22" lon="-1.8418">
        <ele>1224.8</ele>
        <time>2021-10-09 17:00:27</time>
      </trkpt>
      <trkpt lat="40.21999" lon="-1.8418">
        <ele>1224.8</ele>
        <time>2021-10-09 17:00:28</time>
      </trkpt>
      <trkpt lat="40.21997" lon="-1.8418">
        <ele>1224.8</ele>
        <time>2021-10-09 17:42:00</time>
      </trkpt>
      <trkpt lat="40.21995" lon="-1.8418">
        <ele>1224.8</ele>
        <time>2021-10-09 17:42:01</time>
      </trkpt>
      <trkpt lat="40.21993" lon="-1.84181">
        <ele>1224.8</ele>
        <time>2021-10-09 17:42:02</time>
      </trkpt>
      <trkpt lat="40.2199" lon="-1.84182">
        <ele>1224.8</ele>
        <time>2021-10-09 17:42:03</time>
      </trkpt>
      <trkpt lat="40.21987" lon="-1.84183">
        <ele>1224.8</ele>
        <time>2021-10-09 17:42:04</time>
      </trkpt>
      <trkpt lat="40.21983" lon="-1.84183">
        <ele>1224.8</ele>
        <time>2021-10-09 17:42:12</time>
      </trkpt>
      <trkpt lat="40.2198" lon="-1.84183">
        <ele>1224.8</ele>
        <time>2021-10-09 17:42:13</time>
      </trkpt>
      <trkpt lat="40.21976" lon="-1.84183">
        <ele>1224.8</ele>
        <time>2021-10-09 17:42:14</time>
      </trkpt>
      <trkpt lat="40.21972" lon="-1.84183">
        <ele>1224.8</ele>
        <time>2021-10-09 17:42:15</time>
      </trkpt>
      <trkpt lat="40.21968" lon="-1.84184">
        <ele>1224.8</ele>
        <time>2021-10-09 17:42:16</time>
      </trkpt>
      <trkpt lat="40.21964" lon="-1.84184">
        <ele>1224.8</ele>
        <time>2021-10-09 17:42:25</time>
      </trkpt>
      <trkpt lat="40.2196" lon="-1.84184">
        <ele>1224.8</ele>
        <time>2021-10-09 17:42:26</time>
      </trkpt>
      <trkpt lat="40.21956" lon="-1.84185">
        <ele>1224.8</ele>
        <time>2021-10-09 17:42:27</time>
      </trkpt>
      <trkpt lat="40.21952" lon="-1.84185">
        <ele>1224.8</ele>
        <time>2021-10-09 17:42:28</time>
      </trkpt>
      <trkpt lat="40.21948" lon="-1.84186">
        <ele>1224.8</ele>
        <time>2021-10-09 17:42:29</time>
      </trkpt>
      <trkpt lat="40.21943" lon="-1.84186">
        <ele>1224.8</ele>
        <time>2021-10-09 17:42:30</time>
      </trkpt>
      <trkpt lat="40.21938" lon="-1.84186">
        <ele>1224.8</ele>
        <time>2021-10-09 17:42:31</time>
      </trkpt>
      <trkpt lat="40.21932" lon="-1.84186">
        <ele>1224.6</ele>
        <time>2021-10-09 17:42:32</time>
      </trkpt>
      <trkpt lat="40.21927" lon="-1.84187">
        <ele>1224.4</ele>
        <time>2021-10-09 17:42:33</time>
      </trkpt>
      <trkpt lat="40.21921" lon="-1.84187">
        <ele>1224</ele>
        <time>2021-10-09 17:42:34</time>
      </trkpt>
      <trkpt lat="40.21914" lon="-1.84187">
        <ele>1223.8</ele>
        <time>2021-10-09 17:42:35</time>
      </trkpt>
      <trkpt lat="40.21907" lon="-1.84188">
        <ele>1223.4</ele>
        <time>2021-10-09 17:42:36</time>
      </trkpt>
      <trkpt lat="40.219" lon="-1.84189">
        <ele>1223</ele>
        <time>2021-10-09 17:42:37</time>
      </trkpt>
      <trkpt lat="40.21892" lon="-1.8419">
        <ele>1222.4</ele>
        <time>2021-10-09 17:42:38</time>
      </trkpt>
      <trkpt lat="40.21885" lon="-1.8419">
        <ele>1222</ele>
        <time>2021-10-09 17:42:39</time>
      </trkpt>
      <trkpt lat="40.21878" lon="-1.84191">
        <ele>1221.8</ele>
        <time>2021-10-09 17:42:40</time>
      </trkpt>
      <trkpt lat="40.21871" lon="-1.84191">
        <ele>1221.8</ele>
        <time>2021-10-09 17:42:41</time>
      </trkpt>
      <trkpt lat="40.21864" lon="-1.84192">
        <ele>1221.8</ele>
        <time>2021-10-09 17:42:42</time>
      </trkpt>
      <trkpt lat="40.21858" lon="-1.84193">
        <ele>1221.8</ele>
        <time>2021-10-09 17:42:43</time>
      </trkpt>
      <trkpt lat="40.21852" lon="-1.84193">
        <ele>1221.8</ele>
        <time>2021-10-09 17:42:44</time>
      </trkpt>
      <trkpt lat="40.21847" lon="-1.84194">
        <ele>1222.2</ele>
        <time>2021-10-09 17:42:45</time>
      </trkpt>
      <trkpt lat="40.21842" lon="-1.84195">
        <ele>1222.2</ele>
        <time>2021-10-09 17:42:46</time>
      </trkpt>
      <trkpt lat="40.21837" lon="-1.84196">
        <ele>1222.4</ele>
        <time>2021-10-09 17:42:47</time>
      </trkpt>
      <trkpt lat="40.21833" lon="-1.84196">
        <ele>1222.6</ele>
        <time>2021-10-09 17:42:48</time>
      </trkpt>
      <trkpt lat="40.21828" lon="-1.84197">
        <ele>1223</ele>
        <time>2021-10-09 17:42:49</time>
      </trkpt>
      <trkpt lat="40.21824" lon="-1.84198">
        <ele>1223.2</ele>
        <time>2021-10-09 17:42:50</time>
      </trkpt>
      <trkpt lat="40.21819" lon="-1.84198">
        <ele>1223.2</ele>
        <time>2021-10-09 17:42:51</time>
      </trkpt>
      <trkpt lat="40.21816" lon="-1.84199">
        <ele>1223.6</ele>
        <time>2021-10-09 17:42:52</time>
      </trkpt>
      <trkpt lat="40.21812" lon="-1.84199">
        <ele>1223.6</ele>
        <time>2021-10-09 17:42:53</time>
      </trkpt>
      <trkpt lat="40.21808" lon="-1.84199">
        <ele>1224</ele>
        <time>2021-10-09 17:42:54</time>
      </trkpt>
      <trkpt lat="40.21804" lon="-1.842">
        <ele>1224</ele>
        <time>2021-10-09 17:42:55</time>
      </trkpt>
      <trkpt lat="40.218" lon="-1.842">
        <ele>1224.2</ele>
        <time>2021-10-09 17:42:56</time>
      </trkpt>
      <trkpt lat="40.21796" lon="-1.84201">
        <ele>1224.2</ele>
        <time>2021-10-09 17:42:57</time>
      </trkpt>
      <trkpt lat="40.21792" lon="-1.84201">
        <ele>1224.4</ele>
        <time>2021-10-09 17:42:58</time>
      </trkpt>
      <trkpt lat="40.21788" lon="-1.84201">
        <ele>1224.4</ele>
        <time>2021-10-09 17:42:59</time>
      </trkpt>
      <trkpt lat="40.21784" lon="-1.84201">
        <ele>1224.6</ele>
        <time>2021-10-09 17:43:00</time>
      </trkpt>
      <trkpt lat="40.2178" lon="-1.84202">
        <ele>1224.6</ele>
        <time>2021-10-09 17:43:01</time>
      </trkpt>
      <trkpt lat="40.21776" lon="-1.84202">
        <ele>1225</ele>
        <time>2021-10-09 17:43:02</time>
      </trkpt>
      <trkpt lat="40.21772" lon="-1.84203">
        <ele>1225</ele>
        <time>2021-10-09 17:43:03</time>
      </trkpt>
      <trkpt lat="40.21768" lon="-1.84203">
        <ele>1225.2</ele>
        <time>2021-10-09 17:43:04</time>
      </trkpt>
      <trkpt lat="40.21764" lon="-1.84203">
        <ele>1225.2</ele>
        <time>2021-10-09 17:43:05</time>
      </trkpt>
      <trkpt lat="40.2176" lon="-1.84203">
        <ele>1225.2</ele>
        <time>2021-10-09 17:43:06</time>
      </trkpt>
      <trkpt lat="40.21756" lon="-1.84203">
        <ele>1225.2</ele>
        <time>2021-10-09 17:43:07</time>
      </trkpt>
      <trkpt lat="40.21751" lon="-1.84204">
        <ele>1225.2</ele>
        <time>2021-10-09 17:43:08</time>
      </trkpt>
      <trkpt lat="40.21747" lon="-1.84204">
        <ele>1225.2</ele>
        <time>2021-10-09 17:43:09</time>
      </trkpt>
      <trkpt lat="40.21743" lon="-1.84205">
        <ele>1225.2</ele>
        <time>2021-10-09 17:43:10</time>
      </trkpt>
      <trkpt lat="40.21739" lon="-1.84205">
        <ele>1225.4</ele>
        <time>2021-10-09 17:43:11</time>
      </trkpt>
      <trkpt lat="40.21735" lon="-1.84206">
        <ele>1225.4</ele>
        <time>2021-10-09 17:43:12</time>
      </trkpt>
      <trkpt lat="40.2173" lon="-1.84206">
        <ele>1225.4</ele>
        <time>2021-10-09 17:43:13</time>
      </trkpt>
      <trkpt lat="40.21726" lon="-1.84206">
        <ele>1225.6</ele>
        <time>2021-10-09 17:43:14</time>
      </trkpt>
      <trkpt lat="40.21722" lon="-1.84206">
        <ele>1225.6</ele>
        <time>2021-10-09 17:43:15</time>
      </trkpt>
      <trkpt lat="40.21718" lon="-1.84207">
        <ele>1225.6</ele>
        <time>2021-10-09 17:43:16</time>
      </trkpt>
      <trkpt lat="40.21714" lon="-1.84207">
        <ele>1225.6</ele>
        <time>2021-10-09 17:43:17</time>
      </trkpt>
      <trkpt lat="40.2171" lon="-1.84208">
        <ele>1226</ele>
        <time>2021-10-09 17:43:18</time>
      </trkpt>
      <trkpt lat="40.21706" lon="-1.84208">
        <ele>1226</ele>
        <time>2021-10-09 17:43:19</time>
      </trkpt>
      <trkpt lat="40.21702" lon="-1.84208">
        <ele>1226</ele>
        <time>2021-10-09 17:43:20</time>
      </trkpt>
      <trkpt lat="40.21698" lon="-1.84209">
        <ele>1226</ele>
        <time>2021-10-09 17:43:21</time>
      </trkpt>
      <trkpt lat="40.21694" lon="-1.84209">
        <ele>1226.2</ele>
        <time>2021-10-09 17:43:22</time>
      </trkpt>
      <trkpt lat="40.2169" lon="-1.8421">
        <ele>1226.2</ele>
        <time>2021-10-09 17:43:23</time>
      </trkpt>
      <trkpt lat="40.21686" lon="-1.84209">
        <ele>1226.2</ele>
        <time>2021-10-09 17:43:24</time>
      </trkpt>
      <trkpt lat="40.21682" lon="-1.84209">
        <ele>1226.4</ele>
        <time>2021-10-09 17:43:25</time>
      </trkpt>
      <trkpt lat="40.21678" lon="-1.84209">
        <ele>1226.4</ele>
        <time>2021-10-09 17:43:26</time>
      </trkpt>
      <trkpt lat="40.21674" lon="-1.84208">
        <ele>1226.4</ele>
        <time>2021-10-09 17:43:27</time>
      </trkpt>
      <trkpt lat="40.21669" lon="-1.84207">
        <ele>1226.4</ele>
        <time>2021-10-09 17:43:28</time>
      </trkpt>
      <trkpt lat="40.21664" lon="-1.84204">
        <ele>1226.4</ele>
        <time>2021-10-09 17:43:29</time>
      </trkpt>
      <trkpt lat="40.21659" lon="-1.84202">
        <ele>1226</ele>
        <time>2021-10-09 17:43:30</time>
      </trkpt>
      <trkpt lat="40.21653" lon="-1.84198">
        <ele>1225.6</ele>
        <time>2021-10-09 17:43:31</time>
      </trkpt>
      <trkpt lat="40.21647" lon="-1.84194">
        <ele>1225.2</ele>
        <time>2021-10-09 17:43:32</time>
      </trkpt>
      <trkpt lat="40.21641" lon="-1.8419">
        <ele>1224.6</ele>
        <time>2021-10-09 17:43:33</time>
      </trkpt>
      <trkpt lat="40.21634" lon="-1.84186">
        <ele>1224.2</ele>
        <time>2021-10-09 17:43:34</time>
      </trkpt>
      <trkpt lat="40.21626" lon="-1.84185">
        <ele>1223.8</ele>
        <time>2021-10-09 17:43:35</time>
      </trkpt>
      <trkpt lat="40.2162" lon="-1.84183">
        <ele>1223.6</ele>
        <time>2021-10-09 17:43:36</time>
      </trkpt>
      <trkpt lat="40.21613" lon="-1.84182">
        <ele>1223.4</ele>
        <time>2021-10-09 17:43:37</time>
      </trkpt>
      <trkpt lat="40.21606" lon="-1.84181">
        <ele>1223.4</ele>
        <time>2021-10-09 17:43:38</time>
      </trkpt>
      <trkpt lat="40.21601" lon="-1.8418">
        <ele>1223.4</ele>
        <time>2021-10-09 17:43:39</time>
      </trkpt>
      <trkpt lat="40.21595" lon="-1.8418">
        <ele>1223.4</ele>
        <time>2021-10-09 17:43:40</time>
      </trkpt>
      <trkpt lat="40.2159" lon="-1.8418">
        <ele>1223.4</ele>
        <time>2021-10-09 17:43:41</time>
      </trkpt>
      <trkpt lat="40.21584" lon="-1.8418">
        <ele>1223.4</ele>
        <time>2021-10-09 17:43:42</time>
      </trkpt>
      <trkpt lat="40.21579" lon="-1.8418">
        <ele>1223.4</ele>
        <time>2021-10-09 17:43:43</time>
      </trkpt>
      <trkpt lat="40.21573" lon="-1.84181">
        <ele>1223.4</ele>
        <time>2021-10-09 17:43:44</time>
      </trkpt>
      <trkpt lat="40.21568" lon="-1.8418">
        <ele>1223.4</ele>
        <time>2021-10-09 17:43:45</time>
      </trkpt>
      <trkpt lat="40.21562" lon="-1.84181">
        <ele>1223.4</ele>
        <time>2021-10-09 17:43:46</time>
      </trkpt>
      <trkpt lat="40.21556" lon="-1.84181">
        <ele>1223.4</ele>
        <time>2021-10-09 17:43:47</time>
      </trkpt>
      <trkpt lat="40.2155" lon="-1.84181">
        <ele>1223.4</ele>
        <time>2021-10-09 17:43:48</time>
      </trkpt>
      <trkpt lat="40.21544" lon="-1.84181">
        <ele>1223.4</ele>
        <time>2021-10-09 17:43:49</time>
      </trkpt>
      <trkpt lat="40.21538" lon="-1.8418">
        <ele>1223.4</ele>
        <time>2021-10-09 17:43:50</time>
      </trkpt>
      <trkpt lat="40.21532" lon="-1.84181">
        <ele>1223.4</ele>
        <time>2021-10-09 17:43:51</time>
      </trkpt>
      <trkpt lat="40.21526" lon="-1.84181">
        <ele>1223.2</ele>
        <time>2021-10-09 17:43:52</time>
      </trkpt>
      <trkpt lat="40.2152" lon="-1.84181">
        <ele>1223.2</ele>
        <time>2021-10-09 17:43:53</time>
      </trkpt>
      <trkpt lat="40.21514" lon="-1.84181">
        <ele>1223.2</ele>
        <time>2021-10-09 17:43:54</time>
      </trkpt>
      <trkpt lat="40.21508" lon="-1.84181">
        <ele>1223.2</ele>
        <time>2021-10-09 17:43:55</time>
      </trkpt>
      <trkpt lat="40.21502" lon="-1.84181">
        <ele>1223.2</ele>
        <time>2021-10-09 17:43:56</time>
      </trkpt>
      <trkpt lat="40.21496" lon="-1.84181">
        <ele>1223.2</ele>
        <time>2021-10-09 17:43:57</time>
      </trkpt>
      <trkpt lat="40.21489" lon="-1.84181">
        <ele>1222.8</ele>
        <time>2021-10-09 17:43:58</time>
      </trkpt>
      <trkpt lat="40.21484" lon="-1.84181">
        <ele>1222.8</ele>
        <time>2021-10-09 17:43:59</time>
      </trkpt>
      <trkpt lat="40.21478" lon="-1.84181">
        <ele>1222.8</ele>
        <time>2021-10-09 17:44:00</time>
      </trkpt>
      <trkpt lat="40.21472" lon="-1.84182">
        <ele>1222.8</ele>
        <time>2021-10-09 17:44:01</time>
      </trkpt>
      <trkpt lat="40.21466" lon="-1.84182">
        <ele>1222.8</ele>
        <time>2021-10-09 17:44:02</time>
      </trkpt>
      <trkpt lat="40.21461" lon="-1.84182">
        <ele>1222.8</ele>
        <time>2021-10-09 17:44:03</time>
      </trkpt>
      <trkpt lat="40.21454" lon="-1.84183">
        <ele>1222.8</ele>
        <time>2021-10-09 17:44:04</time>
      </trkpt>
      <trkpt lat="40.21448" lon="-1.84183">
        <ele>1222.8</ele>
        <time>2021-10-09 17:44:05</time>
      </trkpt>
      <trkpt lat="40.21442" lon="-1.84184">
        <ele>1222.8</ele>
        <time>2021-10-09 17:44:06</time>
      </trkpt>
      <trkpt lat="40.21436" lon="-1.84183">
        <ele>1222.6</ele>
        <time>2021-10-09 17:44:07</time>
      </trkpt>
      <trkpt lat="40.21429" lon="-1.84184">
        <ele>1222.6</ele>
        <time>2021-10-09 17:44:08</time>
      </trkpt>
      <trkpt lat="40.21423" lon="-1.84183">
        <ele>1222.4</ele>
        <time>2021-10-09 17:44:09</time>
      </trkpt>
      <trkpt lat="40.21416" lon="-1.84184">
        <ele>1222.2</ele>
        <time>2021-10-09 17:44:10</time>
      </trkpt>
      <trkpt lat="40.21408" lon="-1.84184">
        <ele>1222.2</ele>
        <time>2021-10-09 17:44:11</time>
      </trkpt>
      <trkpt lat="40.21401" lon="-1.84184">
        <ele>1221.8</ele>
        <time>2021-10-09 17:44:12</time>
      </trkpt>
      <trkpt lat="40.21394" lon="-1.84186">
        <ele>1221.8</ele>
        <time>2021-10-09 17:44:13</time>
      </trkpt>
      <trkpt lat="40.21388" lon="-1.84188">
        <ele>1221.8</ele>
        <time>2021-10-09 17:44:14</time>
      </trkpt>
      <trkpt lat="40.21382" lon="-1.84191">
        <ele>1221.8</ele>
        <time>2021-10-09 17:44:15</time>
      </trkpt>
      <trkpt lat="40.21378" lon="-1.84196">
        <ele>1222.4</ele>
        <time>2021-10-09 17:44:16</time>
      </trkpt>
      <trkpt lat="40.21374" lon="-1.84199">
        <ele>1222.6</ele>
        <time>2021-10-09 17:44:17</time>
      </trkpt>
      <trkpt lat="40.2137" lon="-1.84201">
        <ele>1222.6</ele>
        <time>2021-10-09 17:44:18</time>
      </trkpt>
      <trkpt lat="40.21367" lon="-1.84204">
        <ele>1223.2</ele>
        <time>2021-10-09 17:44:19</time>
      </trkpt>
      <trkpt lat="40.21364" lon="-1.84207">
        <ele>1223.4</ele>
        <time>2021-10-09 17:44:20</time>
      </trkpt>
      <trkpt lat="40.21362" lon="-1.84209">
        <ele>1223.6</ele>
        <time>2021-10-09 17:44:21</time>
      </trkpt>
      <trkpt lat="40.2136" lon="-1.84212">
        <ele>1223.8</ele>
        <time>2021-10-09 17:44:22</time>
      </trkpt>
      <trkpt lat="40.21357" lon="-1.84215">
        <ele>1224.2</ele>
        <time>2021-10-09 17:44:23</time>
      </trkpt>
      <trkpt lat="40.21355" lon="-1.84216">
        <ele>1224.4</ele>
        <time>2021-10-09 17:44:24</time>
      </trkpt>
      <trkpt lat="40.21353" lon="-1.8422">
        <ele>1224.6</ele>
        <time>2021-10-09 17:44:25</time>
      </trkpt>
      <trkpt lat="40.21352" lon="-1.84222">
        <ele>1224.8</ele>
        <time>2021-10-09 17:44:26</time>
      </trkpt>
      <trkpt lat="40.2135" lon="-1.84225">
        <ele>1224.8</ele>
        <time>2021-10-09 17:44:27</time>
      </trkpt>
      <trkpt lat="40.21348" lon="-1.84227">
        <ele>1225.2</ele>
        <time>2021-10-09 17:44:28</time>
      </trkpt>
      <trkpt lat="40.21346" lon="-1.84229">
        <ele>1225.6</ele>
        <time>2021-10-09 17:44:29</time>
      </trkpt>
      <trkpt lat="40.21345" lon="-1.84231">
        <ele>1225.8</ele>
        <time>2021-10-09 17:44:30</time>
      </trkpt>
      <trkpt lat="40.21343" lon="-1.84233">
        <ele>1226</ele>
        <time>2021-10-09 17:44:31</time>
      </trkpt>
      <trkpt lat="40.21342" lon="-1.84235">
        <ele>1226.2</ele>
        <time>2021-10-09 17:44:32</time>
      </trkpt>
      <trkpt lat="40.21341" lon="-1.84236">
        <ele>1226.2</ele>
        <time>2021-10-09 17:44:33</time>
      </trkpt>
      <trkpt lat="40.21339" lon="-1.84238">
        <ele>1226.6</ele>
        <time>2021-10-09 17:44:34</time>
      </trkpt>
      <trkpt lat="40.21339" lon="-1.84241">
        <ele>1226.2</ele>
        <time>2021-10-09 17:44:35</time>
      </trkpt>
      <trkpt lat="40.21338" lon="-1.84244">
        <ele>1226.8</ele>
        <time>2021-10-09 17:44:36</time>
      </trkpt>
      <trkpt lat="40.21337" lon="-1.84246">
        <ele>1226.8</ele>
        <time>2021-10-09 17:44:37</time>
      </trkpt>
      <trkpt lat="40.21336" lon="-1.84248">
        <ele>1227</ele>
        <time>2021-10-09 17:44:38</time>
      </trkpt>
      <trkpt lat="40.21335" lon="-1.84251">
        <ele>1227</ele>
        <time>2021-10-09 17:44:39</time>
      </trkpt>
      <trkpt lat="40.21334" lon="-1.84253">
        <ele>1227.6</ele>
        <time>2021-10-09 17:44:40</time>
      </trkpt>
      <trkpt lat="40.21333" lon="-1.84255">
        <ele>1227.8</ele>
        <time>2021-10-09 17:44:41</time>
      </trkpt>
      <trkpt lat="40.21332" lon="-1.84256">
        <ele>1227.8</ele>
        <time>2021-10-09 17:44:42</time>
      </trkpt>
      <trkpt lat="40.21331" lon="-1.84259">
        <ele>1228.2</ele>
        <time>2021-10-09 17:44:43</time>
      </trkpt>
      <trkpt lat="40.21329" lon="-1.84261">
        <ele>1228.4</ele>
        <time>2021-10-09 17:44:44</time>
      </trkpt>
      <trkpt lat="40.21328" lon="-1.84263">
        <ele>1228.4</ele>
        <time>2021-10-09 17:44:45</time>
      </trkpt>
      <trkpt lat="40.21327" lon="-1.84266">
        <ele>1228.8</ele>
        <time>2021-10-09 17:44:46</time>
      </trkpt>
      <trkpt lat="40.21325" lon="-1.84269">
        <ele>1228.8</ele>
        <time>2021-10-09 17:44:47</time>
      </trkpt>
      <trkpt lat="40.21324" lon="-1.84271">
        <ele>1229</ele>
        <time>2021-10-09 17:44:48</time>
      </trkpt>
      <trkpt lat="40.21323" lon="-1.84274">
        <ele>1229</ele>
        <time>2021-10-09 17:44:49</time>
      </trkpt>
      <trkpt lat="40.21322" lon="-1.84276">
        <ele>1229.2</ele>
        <time>2021-10-09 17:44:50</time>
      </trkpt>
      <trkpt lat="40.21321" lon="-1.84278">
        <ele>1229.2</ele>
        <time>2021-10-09 17:44:51</time>
      </trkpt>
      <trkpt lat="40.2132" lon="-1.8428">
        <ele>1229.6</ele>
        <time>2021-10-09 17:44:52</time>
      </trkpt>
      <trkpt lat="40.21319" lon="-1.84282">
        <ele>1229.8</ele>
        <time>2021-10-09 17:44:53</time>
      </trkpt>
      <trkpt lat="40.21318" lon="-1.84285">
        <ele>1229.8</ele>
        <time>2021-10-09 17:44:54</time>
      </trkpt>
      <trkpt lat="40.21317" lon="-1.84287">
        <ele>1230</ele>
        <time>2021-10-09 17:44:55</time>
      </trkpt>
      <trkpt lat="40.21316" lon="-1.84289">
        <ele>1230</ele>
        <time>2021-10-09 17:44:56</time>
      </trkpt>
      <trkpt lat="40.21315" lon="-1.84291">
        <ele>1230</ele>
        <time>2021-10-09 17:44:57</time>
      </trkpt>
      <trkpt lat="40.21314" lon="-1.84293">
        <ele>1230.4</ele>
        <time>2021-10-09 17:44:58</time>
      </trkpt>
      <trkpt lat="40.21313" lon="-1.84295">
        <ele>1230.4</ele>
        <time>2021-10-09 17:44:59</time>
      </trkpt>
      <trkpt lat="40.21312" lon="-1.84297">
        <ele>1230.6</ele>
        <time>2021-10-09 17:45:00</time>
      </trkpt>
      <trkpt lat="40.2131" lon="-1.84299">
        <ele>1230.6</ele>
        <time>2021-10-09 17:45:01</time>
      </trkpt>
      <trkpt lat="40.21309" lon="-1.84301">
        <ele>1230.8</ele>
        <time>2021-10-09 17:45:02</time>
      </trkpt>
      <trkpt lat="40.21308" lon="-1.84303">
        <ele>1230.8</ele>
        <time>2021-10-09 17:45:03</time>
      </trkpt>
      <trkpt lat="40.21306" lon="-1.84305">
        <ele>1231.2</ele>
        <time>2021-10-09 17:45:04</time>
      </trkpt>
      <trkpt lat="40.21304" lon="-1.84307">
        <ele>1231.2</ele>
        <time>2021-10-09 17:45:05</time>
      </trkpt>
      <trkpt lat="40.21302" lon="-1.84308">
        <ele>1231.6</ele>
        <time>2021-10-09 17:45:06</time>
      </trkpt>
      <trkpt lat="40.21301" lon="-1.8431">
        <ele>1231.6</ele>
        <time>2021-10-09 17:45:07</time>
      </trkpt>
      <trkpt lat="40.21299" lon="-1.84311">
        <ele>1231.8</ele>
        <time>2021-10-09 17:45:08</time>
      </trkpt>
      <trkpt lat="40.21297" lon="-1.84312">
        <ele>1231.8</ele>
        <time>2021-10-09 17:45:09</time>
      </trkpt>
      <trkpt lat="40.21295" lon="-1.84313">
        <ele>1232.2</ele>
        <time>2021-10-09 17:45:10</time>
      </trkpt>
      <trkpt lat="40.21293" lon="-1.84314">
        <ele>1232.2</ele>
        <time>2021-10-09 17:45:11</time>
      </trkpt>
      <trkpt lat="40.21291" lon="-1.84315">
        <ele>1232.4</ele>
        <time>2021-10-09 17:45:12</time>
      </trkpt>
      <trkpt lat="40.21289" lon="-1.84317">
        <ele>1232.4</ele>
        <time>2021-10-09 17:45:13</time>
      </trkpt>
      <trkpt lat="40.21287" lon="-1.84318">
        <ele>1232.6</ele>
        <time>2021-10-09 17:45:14</time>
      </trkpt>
      <trkpt lat="40.21285" lon="-1.84319">
        <ele>1232.6</ele>
        <time>2021-10-09 17:45:15</time>
      </trkpt>
      <trkpt lat="40.21283" lon="-1.8432">
        <ele>1232.8</ele>
        <time>2021-10-09 17:45:16</time>
      </trkpt>
      <trkpt lat="40.21281" lon="-1.84321">
        <ele>1232.8</ele>
        <time>2021-10-09 17:45:17</time>
      </trkpt>
      <trkpt lat="40.21279" lon="-1.84321">
        <ele>1233</ele>
        <time>2021-10-09 17:45:18</time>
      </trkpt>
      <trkpt lat="40.21277" lon="-1.84322">
        <ele>1233</ele>
        <time>2021-10-09 17:45:19</time>
      </trkpt>
      <trkpt lat="40.21276" lon="-1.84322">
        <ele>1233.4</ele>
        <time>2021-10-09 17:45:20</time>
      </trkpt>
      <trkpt lat="40.21274" lon="-1.84323">
        <ele>1233.4</ele>
        <time>2021-10-09 17:45:21</time>
      </trkpt>
      <trkpt lat="40.21271" lon="-1.84324">
        <ele>1233.6</ele>
        <time>2021-10-09 17:45:22</time>
      </trkpt>
      <trkpt lat="40.21268" lon="-1.84325">
        <ele>1233.6</ele>
        <time>2021-10-09 17:45:23</time>
      </trkpt>
      <trkpt lat="40.21266" lon="-1.84326">
        <ele>1233.6</ele>
        <time>2021-10-09 17:45:24</time>
      </trkpt>
      <trkpt lat="40.21264" lon="-1.84327">
        <ele>1233.8</ele>
        <time>2021-10-09 17:45:25</time>
      </trkpt>
      <trkpt lat="40.21262" lon="-1.84327">
        <ele>1233.8</ele>
        <time>2021-10-09 17:45:26</time>
      </trkpt>
      <trkpt lat="40.2126" lon="-1.84327">
        <ele>1233.8</ele>
        <time>2021-10-09 17:45:27</time>
      </trkpt>
      <trkpt lat="40.21259" lon="-1.84328">
        <ele>1233.8</ele>
        <time>2021-10-09 17:45:28</time>
      </trkpt>
      <trkpt lat="40.21257" lon="-1.84329">
        <ele>1234.2</ele>
        <time>2021-10-09 17:45:29</time>
      </trkpt>
      <trkpt lat="40.21255" lon="-1.84329">
        <ele>1234.2</ele>
        <time>2021-10-09 17:45:30</time>
      </trkpt>
      <trkpt lat="40.21253" lon="-1.84329">
        <ele>1234.4</ele>
        <time>2021-10-09 17:45:31</time>
      </trkpt>
      <trkpt lat="40.2125" lon="-1.8433">
        <ele>1234.4</ele>
        <time>2021-10-09 17:45:32</time>
      </trkpt>
      <trkpt lat="40.21248" lon="-1.84331">
        <ele>1234.4</ele>
        <time>2021-10-09 17:45:33</time>
      </trkpt>
      <trkpt lat="40.21246" lon="-1.84331">
        <ele>1234.8</ele>
        <time>2021-10-09 17:45:34</time>
      </trkpt>
      <trkpt lat="40.21245" lon="-1.84331">
        <ele>1234.8</ele>
        <time>2021-10-09 17:45:35</time>
      </trkpt>
      <trkpt lat="40.21243" lon="-1.84331">
        <ele>1234.8</ele>
        <time>2021-10-09 17:45:36</time>
      </trkpt>
      <trkpt lat="40.21241" lon="-1.84332">
        <ele>1235.2</ele>
        <time>2021-10-09 17:45:37</time>
      </trkpt>
      <trkpt lat="40.21239" lon="-1.84332">
        <ele>1235.2</ele>
        <time>2021-10-09 17:45:38</time>
      </trkpt>
      <trkpt lat="40.21238" lon="-1.84332">
        <ele>1235.4</ele>
        <time>2021-10-09 17:45:39</time>
      </trkpt>
      <trkpt lat="40.21235" lon="-1.84333">
        <ele>1235.4</ele>
        <time>2021-10-09 17:45:40</time>
      </trkpt>
      <trkpt lat="40.21234" lon="-1.84333">
        <ele>1235.6</ele>
        <time>2021-10-09 17:45:41</time>
      </trkpt>
      <trkpt lat="40.21232" lon="-1.84333">
        <ele>1235.6</ele>
        <time>2021-10-09 17:45:42</time>
      </trkpt>
      <trkpt lat="40.2123" lon="-1.84333">
        <ele>1235.8</ele>
        <time>2021-10-09 17:45:43</time>
      </trkpt>
      <trkpt lat="40.21228" lon="-1.84333">
        <ele>1235.8</ele>
        <time>2021-10-09 17:45:44</time>
      </trkpt>
      <trkpt lat="40.21226" lon="-1.84333">
        <ele>1235.8</ele>
        <time>2021-10-09 17:45:45</time>
      </trkpt>
      <trkpt lat="40.21224" lon="-1.84333">
        <ele>1236.2</ele>
        <time>2021-10-09 17:45:46</time>
      </trkpt>
      <trkpt lat="40.21222" lon="-1.84333">
        <ele>1236.2</ele>
        <time>2021-10-09 17:45:47</time>
      </trkpt>
      <trkpt lat="40.2122" lon="-1.84333">
        <ele>1236.4</ele>
        <time>2021-10-09 17:45:48</time>
      </trkpt>
      <trkpt lat="40.21219" lon="-1.84332">
        <ele>1236.4</ele>
        <time>2021-10-09 17:45:49</time>
      </trkpt>
      <trkpt lat="40.21217" lon="-1.84333">
        <ele>1236.6</ele>
        <time>2021-10-09 17:45:50</time>
      </trkpt>
      <trkpt lat="40.21215" lon="-1.84333">
        <ele>1236.6</ele>
        <time>2021-10-09 17:45:51</time>
      </trkpt>
      <trkpt lat="40.21213" lon="-1.84334">
        <ele>1236.8</ele>
        <time>2021-10-09 17:45:52</time>
      </trkpt>
      <trkpt lat="40.21211" lon="-1.84335">
        <ele>1236.8</ele>
        <time>2021-10-09 17:45:53</time>
      </trkpt>
      <trkpt lat="40.21208" lon="-1.84335">
        <ele>1237</ele>
        <time>2021-10-09 17:45:54</time>
      </trkpt>
      <trkpt lat="40.21206" lon="-1.84336">
        <ele>1237</ele>
        <time>2021-10-09 17:45:55</time>
      </trkpt>
      <trkpt lat="40.21203" lon="-1.84336">
        <ele>1237.2</ele>
        <time>2021-10-09 17:45:56</time>
      </trkpt>
      <trkpt lat="40.21201" lon="-1.84337">
        <ele>1237.2</ele>
        <time>2021-10-09 17:45:57</time>
      </trkpt>
      <trkpt lat="40.21199" lon="-1.84338">
        <ele>1237.6</ele>
        <time>2021-10-09 17:45:58</time>
      </trkpt>
      <trkpt lat="40.21197" lon="-1.84339">
        <ele>1237.6</ele>
        <time>2021-10-09 17:45:59</time>
      </trkpt>
      <trkpt lat="40.21195" lon="-1.84339">
        <ele>1237.8</ele>
        <time>2021-10-09 17:46:00</time>
      </trkpt>
      <trkpt lat="40.21192" lon="-1.84339">
        <ele>1237.8</ele>
        <time>2021-10-09 17:46:01</time>
      </trkpt>
      <trkpt lat="40.2119" lon="-1.8434">
        <ele>1238.2</ele>
        <time>2021-10-09 17:46:02</time>
      </trkpt>
      <trkpt lat="40.21188" lon="-1.8434">
        <ele>1238.2</ele>
        <time>2021-10-09 17:46:03</time>
      </trkpt>
      <trkpt lat="40.21185" lon="-1.8434">
        <ele>1238.4</ele>
        <time>2021-10-09 17:46:04</time>
      </trkpt>
      <trkpt lat="40.21183" lon="-1.84341">
        <ele>1238.4</ele>
        <time>2021-10-09 17:46:05</time>
      </trkpt>
      <trkpt lat="40.21181" lon="-1.84341">
        <ele>1238.6</ele>
        <time>2021-10-09 17:46:06</time>
      </trkpt>
      <trkpt lat="40.21179" lon="-1.84341">
        <ele>1238.6</ele>
        <time>2021-10-09 17:46:07</time>
      </trkpt>
      <trkpt lat="40.21177" lon="-1.84341">
        <ele>1238.8</ele>
        <time>2021-10-09 17:46:08</time>
      </trkpt>
      <trkpt lat="40.21175" lon="-1.84341">
        <ele>1238.8</ele>
        <time>2021-10-09 17:46:09</time>
      </trkpt>
      <trkpt lat="40.21173" lon="-1.84341">
        <ele>1239.2</ele>
        <time>2021-10-09 17:46:10</time>
      </trkpt>
      <trkpt lat="40.21171" lon="-1.84341">
        <ele>1239.2</ele>
        <time>2021-10-09 17:46:11</time>
      </trkpt>
      <trkpt lat="40.21169" lon="-1.84341">
        <ele>1239.4</ele>
        <time>2021-10-09 17:46:12</time>
      </trkpt>
      <trkpt lat="40.21167" lon="-1.84342">
        <ele>1239.6</ele>
        <time>2021-10-09 17:46:13</time>
      </trkpt>
      <trkpt lat="40.21165" lon="-1.84342">
        <ele>1239.6</ele>
        <time>2021-10-09 17:46:14</time>
      </trkpt>
      <trkpt lat="40.21164" lon="-1.84343">
        <ele>1239.8</ele>
        <time>2021-10-09 17:46:15</time>
      </trkpt>
      <trkpt lat="40.21162" lon="-1.84344">
        <ele>1240</ele>
        <time>2021-10-09 17:46:16</time>
      </trkpt>
      <trkpt lat="40.21161" lon="-1.84344">
        <ele>1240</ele>
        <time>2021-10-09 17:46:17</time>
      </trkpt>
      <trkpt lat="40.21159" lon="-1.84345">
        <ele>1240.4</ele>
        <time>2021-10-09 17:46:18</time>
      </trkpt>
      <trkpt lat="40.21158" lon="-1.84346">
        <ele>1240.4</ele>
        <time>2021-10-09 17:46:19</time>
      </trkpt>
      <trkpt lat="40.21156" lon="-1.84347">
        <ele>1240.6</ele>
        <time>2021-10-09 17:46:20</time>
      </trkpt>
      <trkpt lat="40.21155" lon="-1.84349">
        <ele>1240.6</ele>
        <time>2021-10-09 17:46:21</time>
      </trkpt>
      <trkpt lat="40.21153" lon="-1.8435">
        <ele>1240.8</ele>
        <time>2021-10-09 17:46:22</time>
      </trkpt>
      <trkpt lat="40.21151" lon="-1.84351">
        <ele>1240.8</ele>
        <time>2021-10-09 17:46:23</time>
      </trkpt>
      <trkpt lat="40.21149" lon="-1.84353">
        <ele>1241.2</ele>
        <time>2021-10-09 17:46:24</time>
      </trkpt>
      <trkpt lat="40.21148" lon="-1.84354">
        <ele>1241.2</ele>
        <time>2021-10-09 17:46:25</time>
      </trkpt>
      <trkpt lat="40.21146" lon="-1.84356">
        <ele>1241.4</ele>
        <time>2021-10-09 17:46:26</time>
      </trkpt>
      <trkpt lat="40.21145" lon="-1.84358">
        <ele>1241.6</ele>
        <time>2021-10-09 17:46:27</time>
      </trkpt>
      <trkpt lat="40.21144" lon="-1.84359">
        <ele>1241.6</ele>
        <time>2021-10-09 17:46:28</time>
      </trkpt>
      <trkpt lat="40.21142" lon="-1.84361">
        <ele>1242</ele>
        <time>2021-10-09 17:46:29</time>
      </trkpt>
      <trkpt lat="40.21141" lon="-1.84363">
        <ele>1242</ele>
        <time>2021-10-09 17:46:30</time>
      </trkpt>
      <trkpt lat="40.21139" lon="-1.84365">
        <ele>1242.2</ele>
        <time>2021-10-09 17:46:31</time>
      </trkpt>
      <trkpt lat="40.21137" lon="-1.84368">
        <ele>1242.2</ele>
        <time>2021-10-09 17:46:32</time>
      </trkpt>
      <trkpt lat="40.21135" lon="-1.84371">
        <ele>1242.4</ele>
        <time>2021-10-09 17:46:33</time>
      </trkpt>
      <trkpt lat="40.21133" lon="-1.84374">
        <ele>1242.4</ele>
        <time>2021-10-09 17:46:34</time>
      </trkpt>
      <trkpt lat="40.21132" lon="-1.84375">
        <ele>1242.6</ele>
        <time>2021-10-09 17:46:35</time>
      </trkpt>
      <trkpt lat="40.21129" lon="-1.84377">
        <ele>1242.6</ele>
        <time>2021-10-09 17:46:36</time>
      </trkpt>
      <trkpt lat="40.21127" lon="-1.84378">
        <ele>1242.6</ele>
        <time>2021-10-09 17:46:37</time>
      </trkpt>
      <trkpt lat="40.21125" lon="-1.8438">
        <ele>1243</ele>
        <time>2021-10-09 17:46:38</time>
      </trkpt>
      <trkpt lat="40.21124" lon="-1.84381">
        <ele>1243</ele>
        <time>2021-10-09 17:46:39</time>
      </trkpt>
      <trkpt lat="40.21122" lon="-1.84381">
        <ele>1243.2</ele>
        <time>2021-10-09 17:46:40</time>
      </trkpt>
      <trkpt lat="40.2112" lon="-1.84382">
        <ele>1243.2</ele>
        <time>2021-10-09 17:46:41</time>
      </trkpt>
      <trkpt lat="40.21117" lon="-1.84382">
        <ele>1243.6</ele>
        <time>2021-10-09 17:46:42</time>
      </trkpt>
      <trkpt lat="40.21116" lon="-1.84382">
        <ele>1243.6</ele>
        <time>2021-10-09 17:46:43</time>
      </trkpt>
      <trkpt lat="40.21114" lon="-1.84381">
        <ele>1244</ele>
        <time>2021-10-09 17:46:44</time>
      </trkpt>
      <trkpt lat="40.21113" lon="-1.8438">
        <ele>1244</ele>
        <time>2021-10-09 17:46:45</time>
      </trkpt>
      <trkpt lat="40.21112" lon="-1.84379">
        <ele>1244.2</ele>
        <time>2021-10-09 17:46:46</time>
      </trkpt>
      <trkpt lat="40.21111" lon="-1.84376">
        <ele>1244.2</ele>
        <time>2021-10-09 17:46:47</time>
      </trkpt>
      <trkpt lat="40.2111" lon="-1.84373">
        <ele>1244.4</ele>
        <time>2021-10-09 17:46:48</time>
      </trkpt>
      <trkpt lat="40.2111" lon="-1.84372">
        <ele>1244.4</ele>
        <time>2021-10-09 17:46:49</time>
      </trkpt>
      <trkpt lat="40.2111" lon="-1.8437">
        <ele>1244.8</ele>
        <time>2021-10-09 17:46:50</time>
      </trkpt>
      <trkpt lat="40.2111" lon="-1.84367">
        <ele>1245.2</ele>
        <time>2021-10-09 17:46:51</time>
      </trkpt>
      <trkpt lat="40.2111" lon="-1.84364">
        <ele>1245.2</ele>
        <time>2021-10-09 17:46:52</time>
      </trkpt>
      <trkpt lat="40.21111" lon="-1.8436">
        <ele>1245.4</ele>
        <time>2021-10-09 17:46:53</time>
      </trkpt>
      <trkpt lat="40.21111" lon="-1.84358">
        <ele>1245.4</ele>
        <time>2021-10-09 17:46:54</time>
      </trkpt>
      <trkpt lat="40.21113" lon="-1.84355">
        <ele>1245.8</ele>
        <time>2021-10-09 17:46:55</time>
      </trkpt>
      <trkpt lat="40.21114" lon="-1.84353">
        <ele>1245.8</ele>
        <time>2021-10-09 17:46:56</time>
      </trkpt>
      <trkpt lat="40.21116" lon="-1.84351">
        <ele>1246.2</ele>
        <time>2021-10-09 17:46:57</time>
      </trkpt>
      <trkpt lat="40.21117" lon="-1.84349">
        <ele>1246.2</ele>
        <time>2021-10-09 17:46:58</time>
      </trkpt>
      <trkpt lat="40.21119" lon="-1.84347">
        <ele>1246.4</ele>
        <time>2021-10-09 17:46:59</time>
      </trkpt>
      <trkpt lat="40.2112" lon="-1.84346">
        <ele>1246.4</ele>
        <time>2021-10-09 17:47:00</time>
      </trkpt>
      <trkpt lat="40.21122" lon="-1.84343">
        <ele>1246.6</ele>
        <time>2021-10-09 17:47:01</time>
      </trkpt>
      <trkpt lat="40.21123" lon="-1.84341">
        <ele>1246.6</ele>
        <time>2021-10-09 17:47:02</time>
      </trkpt>
      <trkpt lat="40.21124" lon="-1.84339">
        <ele>1247</ele>
        <time>2021-10-09 17:47:03</time>
      </trkpt>
      <trkpt lat="40.21125" lon="-1.84337">
        <ele>1247</ele>
        <time>2021-10-09 17:47:04</time>
      </trkpt>
      <trkpt lat="40.21127" lon="-1.84335">
        <ele>1247.2</ele>
        <time>2021-10-09 17:47:05</time>
      </trkpt>
      <trkpt lat="40.21129" lon="-1.84333">
        <ele>1247.2</ele>
        <time>2021-10-09 17:47:06</time>
      </trkpt>
      <trkpt lat="40.2113" lon="-1.84331">
        <ele>1247.2</ele>
        <time>2021-10-09 17:47:07</time>
      </trkpt>
      <trkpt lat="40.21132" lon="-1.84329">
        <ele>1247.2</ele>
        <time>2021-10-09 17:47:08</time>
      </trkpt>
      <trkpt lat="40.21133" lon="-1.84328">
        <ele>1247.4</ele>
        <time>2021-10-09 17:47:09</time>
      </trkpt>
      <trkpt lat="40.21135" lon="-1.84326">
        <ele>1247.4</ele>
        <time>2021-10-09 17:47:10</time>
      </trkpt>
      <trkpt lat="40.21137" lon="-1.84324">
        <ele>1247.6</ele>
        <time>2021-10-09 17:47:11</time>
      </trkpt>
      <trkpt lat="40.21139" lon="-1.84322">
        <ele>1247.6</ele>
        <time>2021-10-09 17:47:12</time>
      </trkpt>
      <trkpt lat="40.2114" lon="-1.8432">
        <ele>1247.8</ele>
        <time>2021-10-09 17:47:13</time>
      </trkpt>
      <trkpt lat="40.21142" lon="-1.84317">
        <ele>1247.8</ele>
        <time>2021-10-09 17:47:14</time>
      </trkpt>
      <trkpt lat="40.21143" lon="-1.84315">
        <ele>1247.8</ele>
        <time>2021-10-09 17:47:15</time>
      </trkpt>
      <trkpt lat="40.21145" lon="-1.84313">
        <ele>1247.8</ele>
        <time>2021-10-09 17:47:16</time>
      </trkpt>
      <trkpt lat="40.21147" lon="-1.84312">
        <ele>1248</ele>
        <time>2021-10-09 17:47:17</time>
      </trkpt>
      <trkpt lat="40.21149" lon="-1.8431">
        <ele>1248</ele>
        <time>2021-10-09 17:47:18</time>
      </trkpt>
      <trkpt lat="40.21151" lon="-1.84309">
        <ele>1248</ele>
        <time>2021-10-09 17:47:19</time>
      </trkpt>
      <trkpt lat="40.21152" lon="-1.84307">
        <ele>1248.4</ele>
        <time>2021-10-09 17:47:20</time>
      </trkpt>
      <trkpt lat="40.21154" lon="-1.84306">
        <ele>1248.4</ele>
        <time>2021-10-09 17:47:21</time>
      </trkpt>
      <trkpt lat="40.21156" lon="-1.84305">
        <ele>1248.4</ele>
        <time>2021-10-09 17:47:22</time>
      </trkpt>
      <trkpt lat="40.21158" lon="-1.84303">
        <ele>1248.6</ele>
        <time>2021-10-09 17:47:23</time>
      </trkpt>
      <trkpt lat="40.2116" lon="-1.84301">
        <ele>1248.6</ele>
        <time>2021-10-09 17:47:24</time>
      </trkpt>
      <trkpt lat="40.21162" lon="-1.84299">
        <ele>1248.8</ele>
        <time>2021-10-09 17:47:25</time>
      </trkpt>
      <trkpt lat="40.21164" lon="-1.84297">
        <ele>1249</ele>
        <time>2021-10-09 17:47:26</time>
      </trkpt>
      <trkpt lat="40.21166" lon="-1.84295">
        <ele>1249</ele>
        <time>2021-10-09 17:47:27</time>
      </trkpt>
      <trkpt lat="40.21168" lon="-1.84294">
        <ele>1249</ele>
        <time>2021-10-09 17:47:28</time>
      </trkpt>
      <trkpt lat="40.2117" lon="-1.84292">
        <ele>1249.2</ele>
        <time>2021-10-09 17:47:29</time>
      </trkpt>
      <trkpt lat="40.21172" lon="-1.84291">
        <ele>1249.2</ele>
        <time>2021-10-09 17:47:30</time>
      </trkpt>
      <trkpt lat="40.21173" lon="-1.8429">
        <ele>1249.2</ele>
        <time>2021-10-09 17:47:31</time>
      </trkpt>
      <trkpt lat="40.21175" lon="-1.84289">
        <ele>1249.6</ele>
        <time>2021-10-09 17:47:32</time>
      </trkpt>
      <trkpt lat="40.21177" lon="-1.84288">
        <ele>1249.6</ele>
        <time>2021-10-09 17:47:33</time>
      </trkpt>
      <trkpt lat="40.2118" lon="-1.84287">
        <ele>1249.8</ele>
        <time>2021-10-09 17:47:34</time>
      </trkpt>
      <trkpt lat="40.21181" lon="-1.84285">
        <ele>1249.8</ele>
        <time>2021-10-09 17:47:35</time>
      </trkpt>
      <trkpt lat="40.21183" lon="-1.84284">
        <ele>1249.8</ele>
        <time>2021-10-09 17:47:36</time>
      </trkpt>
      <trkpt lat="40.21185" lon="-1.84283">
        <ele>1250</ele>
        <time>2021-10-09 17:47:37</time>
      </trkpt>
      <trkpt lat="40.21187" lon="-1.84281">
        <ele>1250</ele>
        <time>2021-10-09 17:47:38</time>
      </trkpt>
      <trkpt lat="40.2119" lon="-1.8428">
        <ele>1250</ele>
        <time>2021-10-09 17:47:39</time>
      </trkpt>
      <trkpt lat="40.21192" lon="-1.84279">
        <ele>1250.2</ele>
        <time>2021-10-09 17:47:40</time>
      </trkpt>
      <trkpt lat="40.21194" lon="-1.84278">
        <ele>1250.2</ele>
        <time>2021-10-09 17:47:41</time>
      </trkpt>
      <trkpt lat="40.21196" lon="-1.84277">
        <ele>1250.2</ele>
        <time>2021-10-09 17:47:42</time>
      </trkpt>
      <trkpt lat="40.21199" lon="-1.84276">
        <ele>1250.2</ele>
        <time>2021-10-09 17:47:43</time>
      </trkpt>
      <trkpt lat="40.21201" lon="-1.84275">
        <ele>1250.2</ele>
        <time>2021-10-09 17:47:44</time>
      </trkpt>
      <trkpt lat="40.21204" lon="-1.84274">
        <ele>1250.6</ele>
        <time>2021-10-09 17:47:45</time>
      </trkpt>
      <trkpt lat="40.21207" lon="-1.84273">
        <ele>1250.6</ele>
        <time>2021-10-09 17:47:46</time>
      </trkpt>
      <trkpt lat="40.21209" lon="-1.84273">
        <ele>1250.6</ele>
        <time>2021-10-09 17:47:47</time>
      </trkpt>
      <trkpt lat="40.21212" lon="-1.84272">
        <ele>1250.6</ele>
        <time>2021-10-09 17:47:48</time>
      </trkpt>
      <trkpt lat="40.21214" lon="-1.84271">
        <ele>1250.8</ele>
        <time>2021-10-09 17:47:49</time>
      </trkpt>
      <trkpt lat="40.21217" lon="-1.84269">
        <ele>1250.8</ele>
        <time>2021-10-09 17:47:50</time>
      </trkpt>
      <trkpt lat="40.2122" lon="-1.84268">
        <ele>1250.8</ele>
        <time>2021-10-09 17:47:51</time>
      </trkpt>
      <trkpt lat="40.21223" lon="-1.84267">
        <ele>1250.8</ele>
        <time>2021-10-09 17:47:52</time>
      </trkpt>
      <trkpt lat="40.21226" lon="-1.84266">
        <ele>1250.8</ele>
        <time>2021-10-09 17:47:53</time>
      </trkpt>
      <trkpt lat="40.21229" lon="-1.84266">
        <ele>1250.8</ele>
        <time>2021-10-09 17:47:54</time>
      </trkpt>
      <trkpt lat="40.21231" lon="-1.84265">
        <ele>1251</ele>
        <time>2021-10-09 17:47:55</time>
      </trkpt>
      <trkpt lat="40.21233" lon="-1.84264">
        <ele>1251</ele>
        <time>2021-10-09 17:47:56</time>
      </trkpt>
      <trkpt lat="40.21235" lon="-1.84262">
        <ele>1251</ele>
        <time>2021-10-09 17:47:57</time>
      </trkpt>
      <trkpt lat="40.21237" lon="-1.8426">
        <ele>1251</ele>
        <time>2021-10-09 17:47:58</time>
      </trkpt>
      <trkpt lat="40.21238" lon="-1.84258">
        <ele>1251.2</ele>
        <time>2021-10-09 17:47:59</time>
      </trkpt>
      <trkpt lat="40.21239" lon="-1.84256">
        <ele>1251.2</ele>
        <time>2021-10-09 17:48:00</time>
      </trkpt>
      <trkpt lat="40.2124" lon="-1.84254">
        <ele>1251.2</ele>
        <time>2021-10-09 17:48:01</time>
      </trkpt>
      <trkpt lat="40.21241" lon="-1.84251">
        <ele>1251.6</ele>
        <time>2021-10-09 17:48:02</time>
      </trkpt>
      <trkpt lat="40.21242" lon="-1.84248">
        <ele>1251.6</ele>
        <time>2021-10-09 17:48:03</time>
      </trkpt>
      <trkpt lat="40.21241" lon="-1.84246">
        <ele>1251.8</ele>
        <time>2021-10-09 17:48:04</time>
      </trkpt>
      <trkpt lat="40.2124" lon="-1.84244">
        <ele>1251.8</ele>
        <time>2021-10-09 17:48:05</time>
      </trkpt>
      <trkpt lat="40.21238" lon="-1.84242">
        <ele>1252.2</ele>
        <time>2021-10-09 17:48:06</time>
      </trkpt>
      <trkpt lat="40.21237" lon="-1.8424">
        <ele>1252.2</ele>
        <time>2021-10-09 17:48:07</time>
      </trkpt>
      <trkpt lat="40.21237" lon="-1.84239">
        <ele>1252.4</ele>
        <time>2021-10-09 17:48:08</time>
      </trkpt>
      <trkpt lat="40.21237" lon="-1.84237">
        <ele>1252.4</ele>
        <time>2021-10-09 17:48:09</time>
      </trkpt>
      <trkpt lat="40.21237" lon="-1.84236">
        <ele>1252.8</ele>
        <time>2021-10-09 17:48:10</time>
      </trkpt>
      <trkpt lat="40.21237" lon="-1.84235">
        <ele>1252.8</ele>
        <time>2021-10-09 17:48:11</time>
      </trkpt>
      <trkpt lat="40.21237" lon="-1.84234">
        <ele>1253</ele>
        <time>2021-10-09 17:48:12</time>
      </trkpt>
      <trkpt lat="40.21235" lon="-1.84232">
        <ele>1253</ele>
        <time>2021-10-09 17:48:13</time>
      </trkpt>
      <trkpt lat="40.21234" lon="-1.84231">
        <ele>1253.4</ele>
        <time>2021-10-09 17:48:14</time>
      </trkpt>
      <trkpt lat="40.21232" lon="-1.84231">
        <ele>1253.4</ele>
        <time>2021-10-09 17:48:15</time>
      </trkpt>
      <trkpt lat="40.21231" lon="-1.84232">
        <ele>1253.6</ele>
        <time>2021-10-09 17:48:16</time>
      </trkpt>
      <trkpt lat="40.21229" lon="-1.84233">
        <ele>1253.6</ele>
        <time>2021-10-09 17:48:17</time>
      </trkpt>
      <trkpt lat="40.21228" lon="-1.84235">
        <ele>1253.8</ele>
        <time>2021-10-09 17:48:18</time>
      </trkpt>
      <trkpt lat="40.21226" lon="-1.84236">
        <ele>1253.8</ele>
        <time>2021-10-09 17:48:19</time>
      </trkpt>
      <trkpt lat="40.21224" lon="-1.84236">
        <ele>1254.2</ele>
        <time>2021-10-09 17:48:20</time>
      </trkpt>
      <trkpt lat="40.21223" lon="-1.84236">
        <ele>1254.2</ele>
        <time>2021-10-09 17:48:21</time>
      </trkpt>
      <trkpt lat="40.21222" lon="-1.84235">
        <ele>1254.4</ele>
        <time>2021-10-09 17:48:22</time>
      </trkpt>
      <trkpt lat="40.21221" lon="-1.84234">
        <ele>1254.4</ele>
        <time>2021-10-09 17:48:23</time>
      </trkpt>
      <trkpt lat="40.2122" lon="-1.84233">
        <ele>1254.8</ele>
        <time>2021-10-09 17:48:24</time>
      </trkpt>
      <trkpt lat="40.2122" lon="-1.84233">
        <ele>1254.8</ele>
        <time>2021-10-09 17:48:25</time>
      </trkpt>
      <trkpt lat="40.21219" lon="-1.84233">
        <ele>1255</ele>
        <time>2021-10-09 17:48:26</time>
      </trkpt>
      <trkpt lat="40.21218" lon="-1.84233">
        <ele>1255</ele>
        <time>2021-10-09 17:48:27</time>
      </trkpt>
      <trkpt lat="40.21217" lon="-1.84233">
        <ele>1255.2</ele>
        <time>2021-10-09 17:48:28</time>
      </trkpt>
      <trkpt lat="40.21215" lon="-1.84234">
        <ele>1255.2</ele>
        <time>2021-10-09 17:48:29</time>
      </trkpt>
      <trkpt lat="40.21214" lon="-1.84235">
        <ele>1255.2</ele>
        <time>2021-10-09 17:48:30</time>
      </trkpt>
      <trkpt lat="40.21212" lon="-1.84237">
        <ele>1255.4</ele>
        <time>2021-10-09 17:48:31</time>
      </trkpt>
      <trkpt lat="40.21211" lon="-1.84238">
        <ele>1255.4</ele>
        <time>2021-10-09 17:48:32</time>
      </trkpt>
      <trkpt lat="40.21209" lon="-1.84239">
        <ele>1255.4</ele>
        <time>2021-10-09 17:48:33</time>
      </trkpt>
      <trkpt lat="40.21207" lon="-1.8424">
        <ele>1255.6</ele>
        <time>2021-10-09 17:48:34</time>
      </trkpt>
      <trkpt lat="40.21205" lon="-1.84241">
        <ele>1255.6</ele>
        <time>2021-10-09 17:48:35</time>
      </trkpt>
      <trkpt lat="40.21203" lon="-1.84242">
        <ele>1255.6</ele>
        <time>2021-10-09 17:48:36</time>
      </trkpt>
      <trkpt lat="40.21201" lon="-1.84244">
        <ele>1255.6</ele>
        <time>2021-10-09 17:48:37</time>
      </trkpt>
      <trkpt lat="40.21199" lon="-1.84245">
        <ele>1255.8</ele>
        <time>2021-10-09 17:48:38</time>
      </trkpt>
      <trkpt lat="40.21197" lon="-1.84246">
        <ele>1255.8</ele>
        <time>2021-10-09 17:48:39</time>
      </trkpt>
      <trkpt lat="40.21194" lon="-1.84248">
        <ele>1255.8</ele>
        <time>2021-10-09 17:48:40</time>
      </trkpt>
      <trkpt lat="40.21191" lon="-1.84249">
        <ele>1255.8</ele>
        <time>2021-10-09 17:48:41</time>
      </trkpt>
      <trkpt lat="40.21188" lon="-1.84251">
        <ele>1255.8</ele>
        <time>2021-10-09 17:48:42</time>
      </trkpt>
      <trkpt lat="40.21185" lon="-1.84252">
        <ele>1255.8</ele>
        <time>2021-10-09 17:48:43</time>
      </trkpt>
      <trkpt lat="40.21182" lon="-1.84254">
        <ele>1255.8</ele>
        <time>2021-10-09 17:48:44</time>
      </trkpt>
      <trkpt lat="40.21179" lon="-1.84256">
        <ele>1255.8</ele>
        <time>2021-10-09 17:48:45</time>
      </trkpt>
      <trkpt lat="40.21176" lon="-1.84257">
        <ele>1256</ele>
        <time>2021-10-09 17:48:46</time>
      </trkpt>
      <trkpt lat="40.21174" lon="-1.84259">
        <ele>1256</ele>
        <time>2021-10-09 17:48:47</time>
      </trkpt>
      <trkpt lat="40.21171" lon="-1.84261">
        <ele>1256</ele>
        <time>2021-10-09 17:48:48</time>
      </trkpt>
      <trkpt lat="40.21168" lon="-1.84262">
        <ele>1256.4</ele>
        <time>2021-10-09 17:48:49</time>
      </trkpt>
      <trkpt lat="40.21166" lon="-1.84264">
        <ele>1256.4</ele>
        <time>2021-10-09 17:48:50</time>
      </trkpt>
      <trkpt lat="40.21163" lon="-1.84266">
        <ele>1256.4</ele>
        <time>2021-10-09 17:48:51</time>
      </trkpt>
      <trkpt lat="40.21161" lon="-1.84268">
        <ele>1256.6</ele>
        <time>2021-10-09 17:48:52</time>
      </trkpt>
      <trkpt lat="40.21158" lon="-1.84269">
        <ele>1256.6</ele>
        <time>2021-10-09 17:48:53</time>
      </trkpt>
      <trkpt lat="40.21156" lon="-1.84271">
        <ele>1256.8</ele>
        <time>2021-10-09 17:48:54</time>
      </trkpt>
      <trkpt lat="40.21153" lon="-1.84272">
        <ele>1256.8</ele>
        <time>2021-10-09 17:48:55</time>
      </trkpt>
      <trkpt lat="40.2115" lon="-1.84274">
        <ele>1256.8</ele>
        <time>2021-10-09 17:48:56</time>
      </trkpt>
      <trkpt lat="40.21148" lon="-1.84275">
        <ele>1257.2</ele>
        <time>2021-10-09 17:48:57</time>
      </trkpt>
      <trkpt lat="40.21145" lon="-1.84277">
        <ele>1257.2</ele>
        <time>2021-10-09 17:48:58</time>
      </trkpt>
      <trkpt lat="40.21143" lon="-1.84278">
        <ele>1257.2</ele>
        <time>2021-10-09 17:48:59</time>
      </trkpt>
      <trkpt lat="40.2114" lon="-1.84279">
        <ele>1257.4</ele>
        <time>2021-10-09 17:49:00</time>
      </trkpt>
      <trkpt lat="40.21138" lon="-1.8428">
        <ele>1257.4</ele>
        <time>2021-10-09 17:49:01</time>
      </trkpt>
      <trkpt lat="40.21135" lon="-1.84281">
        <ele>1257.4</ele>
        <time>2021-10-09 17:49:02</time>
      </trkpt>
      <trkpt lat="40.21133" lon="-1.84282">
        <ele>1257.8</ele>
        <time>2021-10-09 17:49:03</time>
      </trkpt>
      <trkpt lat="40.21131" lon="-1.84283">
        <ele>1257.8</ele>
        <time>2021-10-09 17:49:04</time>
      </trkpt>
      <trkpt lat="40.21129" lon="-1.84283">
        <ele>1257.8</ele>
        <time>2021-10-09 17:49:05</time>
      </trkpt>
      <trkpt lat="40.21128" lon="-1.84284">
        <ele>1258</ele>
        <time>2021-10-09 17:49:06</time>
      </trkpt>
      <trkpt lat="40.21126" lon="-1.84286">
        <ele>1258</ele>
        <time>2021-10-09 17:49:07</time>
      </trkpt>
      <trkpt lat="40.21125" lon="-1.84288">
        <ele>1258.2</ele>
        <time>2021-10-09 17:49:08</time>
      </trkpt>
      <trkpt lat="40.21123" lon="-1.8429">
        <ele>1258.2</ele>
        <time>2021-10-09 17:49:09</time>
      </trkpt>
      <trkpt lat="40.21122" lon="-1.84291">
        <ele>1258.4</ele>
        <time>2021-10-09 17:49:10</time>
      </trkpt>
      <trkpt lat="40.21121" lon="-1.84292">
        <ele>1258.4</ele>
        <time>2021-10-09 17:49:11</time>
      </trkpt>
      <trkpt lat="40.21118" lon="-1.84294">
        <ele>1258.6</ele>
        <time>2021-10-09 17:49:12</time>
      </trkpt>
      <trkpt lat="40.21116" lon="-1.84295">
        <ele>1258.6</ele>
        <time>2021-10-09 17:49:13</time>
      </trkpt>
      <trkpt lat="40.21115" lon="-1.84295">
        <ele>1259</ele>
        <time>2021-10-09 17:49:14</time>
      </trkpt>
      <trkpt lat="40.21113" lon="-1.84296">
        <ele>1259</ele>
        <time>2021-10-09 17:49:15</time>
      </trkpt>
      <trkpt lat="40.21112" lon="-1.84298">
        <ele>1259</ele>
        <time>2021-10-09 17:49:16</time>
      </trkpt>
      <trkpt lat="40.2111" lon="-1.843">
        <ele>1259.4</ele>
        <time>2021-10-09 17:49:17</time>
      </trkpt>
      <trkpt lat="40.21109" lon="-1.84301">
        <ele>1259.4</ele>
        <time>2021-10-09 17:49:18</time>
      </trkpt>
      <trkpt lat="40.21107" lon="-1.84302">
        <ele>1259.6</ele>
        <time>2021-10-09 17:49:19</time>
      </trkpt>
      <trkpt lat="40.21104" lon="-1.84303">
        <ele>1259.6</ele>
        <time>2021-10-09 17:49:20</time>
      </trkpt>
      <trkpt lat="40.21102" lon="-1.84304">
        <ele>1259.8</ele>
        <time>2021-10-09 17:49:21</time>
      </trkpt>
      <trkpt lat="40.211" lon="-1.84305">
        <ele>1259.8</ele>
        <time>2021-10-09 17:49:22</time>
      </trkpt>
      <trkpt lat="40.21098" lon="-1.84307">
        <ele>1260.2</ele>
        <time>2021-10-09 17:49:23</time>
      </trkpt>
      <trkpt lat="40.21095" lon="-1.84308">
        <ele>1260.2</ele>
        <time>2021-10-09 17:49:24</time>
      </trkpt>
      <trkpt lat="40.21093" lon="-1.84309">
        <ele>1260.4</ele>
        <time>2021-10-09 17:49:25</time>
      </trkpt>
      <trkpt lat="40.21091" lon="-1.84311">
        <ele>1260.4</ele>
        <time>2021-10-09 17:49:26</time>
      </trkpt>
      <trkpt lat="40.21087" lon="-1.84312">
        <ele>1260.6</ele>
        <time>2021-10-09 17:49:27</time>
      </trkpt>
      <trkpt lat="40.21084" lon="-1.84313">
        <ele>1260.6</ele>
        <time>2021-10-09 17:49:28</time>
      </trkpt>
      <trkpt lat="40.21082" lon="-1.84314">
        <ele>1261</ele>
        <time>2021-10-09 17:49:29</time>
      </trkpt>
      <trkpt lat="40.21079" lon="-1.84315">
        <ele>1261</ele>
        <time>2021-10-09 17:49:30</time>
      </trkpt>
      <trkpt lat="40.21076" lon="-1.84315">
        <ele>1261</ele>
        <time>2021-10-09 17:49:31</time>
      </trkpt>
      <trkpt lat="40.21074" lon="-1.84316">
        <ele>1261.2</ele>
        <time>2021-10-09 17:49:32</time>
      </trkpt>
      <trkpt lat="40.21071" lon="-1.84316">
        <ele>1261.2</ele>
        <time>2021-10-09 17:49:33</time>
      </trkpt>
      <trkpt lat="40.21069" lon="-1.84316">
        <ele>1261.4</ele>
        <time>2021-10-09 17:49:34</time>
      </trkpt>
      <trkpt lat="40.21066" lon="-1.84317">
        <ele>1261.4</ele>
        <time>2021-10-09 17:49:35</time>
      </trkpt>
      <trkpt lat="40.21064" lon="-1.84317">
        <ele>1261.4</ele>
        <time>2021-10-09 17:49:36</time>
      </trkpt>
      <trkpt lat="40.21061" lon="-1.84318">
        <ele>1261.8</ele>
        <time>2021-10-09 17:49:37</time>
      </trkpt>
      <trkpt lat="40.21059" lon="-1.84318">
        <ele>1261.8</ele>
        <time>2021-10-09 17:49:38</time>
      </trkpt>
      <trkpt lat="40.21058" lon="-1.84318">
        <ele>1262</ele>
        <time>2021-10-09 17:49:39</time>
      </trkpt>
      <trkpt lat="40.21056" lon="-1.84319">
        <ele>1262</ele>
        <time>2021-10-09 17:49:40</time>
      </trkpt>
      <trkpt lat="40.21054" lon="-1.84319">
        <ele>1262.4</ele>
        <time>2021-10-09 17:49:41</time>
      </trkpt>
      <trkpt lat="40.21052" lon="-1.8432">
        <ele>1262.4</ele>
        <time>2021-10-09 17:49:42</time>
      </trkpt>
      <trkpt lat="40.2105" lon="-1.84321">
        <ele>1262.6</ele>
        <time>2021-10-09 17:49:43</time>
      </trkpt>
      <trkpt lat="40.21048" lon="-1.84321">
        <ele>1262.6</ele>
        <time>2021-10-09 17:49:44</time>
      </trkpt>
      <trkpt lat="40.21047" lon="-1.84321">
        <ele>1263</ele>
        <time>2021-10-09 17:49:45</time>
      </trkpt>
      <trkpt lat="40.21045" lon="-1.84322">
        <ele>1263.2</ele>
        <time>2021-10-09 17:49:46</time>
      </trkpt>
      <trkpt lat="40.21043" lon="-1.84322">
        <ele>1263.2</ele>
        <time>2021-10-09 17:49:47</time>
      </trkpt>
      <trkpt lat="40.21042" lon="-1.84323">
        <ele>1263.6</ele>
        <time>2021-10-09 17:49:48</time>
      </trkpt>
      <trkpt lat="40.21041" lon="-1.84323">
        <ele>1263.6</ele>
        <time>2021-10-09 17:49:49</time>
      </trkpt>
      <trkpt lat="40.2104" lon="-1.84324">
        <ele>1263.8</ele>
        <time>2021-10-09 17:49:50</time>
      </trkpt>
      <trkpt lat="40.21038" lon="-1.84325">
        <ele>1263.8</ele>
        <time>2021-10-09 17:49:51</time>
      </trkpt>
      <trkpt lat="40.21038" lon="-1.84326">
        <ele>1264.2</ele>
        <time>2021-10-09 17:49:52</time>
      </trkpt>
      <trkpt lat="40.21037" lon="-1.84329">
        <ele>1264.2</ele>
        <time>2021-10-09 17:49:53</time>
      </trkpt>
      <trkpt lat="40.21036" lon="-1.84331">
        <ele>1264.4</ele>
        <time>2021-10-09 17:49:54</time>
      </trkpt>
      <trkpt lat="40.21035" lon="-1.84333">
        <ele>1264.4</ele>
        <time>2021-10-09 17:49:55</time>
      </trkpt>
      <trkpt lat="40.21034" lon="-1.84335">
        <ele>1264.8</ele>
        <time>2021-10-09 17:49:56</time>
      </trkpt>
      <trkpt lat="40.21032" lon="-1.84336">
        <ele>1265</ele>
        <time>2021-10-09 17:49:57</time>
      </trkpt>
      <trkpt lat="40.21031" lon="-1.84337">
        <ele>1265</ele>
        <time>2021-10-09 17:49:58</time>
      </trkpt>
      <trkpt lat="40.2103" lon="-1.84339">
        <ele>1265.2</ele>
        <time>2021-10-09 17:49:59</time>
      </trkpt>
      <trkpt lat="40.21029" lon="-1.84341">
        <ele>1265.4</ele>
        <time>2021-10-09 17:50:00</time>
      </trkpt>
      <trkpt lat="40.21027" lon="-1.84342">
        <ele>1265.8</ele>
        <time>2021-10-09 17:50:01</time>
      </trkpt>
      <trkpt lat="40.21026" lon="-1.84344">
        <ele>1265.8</ele>
        <time>2021-10-09 17:50:02</time>
      </trkpt>
      <trkpt lat="40.21025" lon="-1.84345">
        <ele>1266</ele>
        <time>2021-10-09 17:50:03</time>
      </trkpt>
      <trkpt lat="40.21024" lon="-1.84346">
        <ele>1266.2</ele>
        <time>2021-10-09 17:50:04</time>
      </trkpt>
      <trkpt lat="40.21022" lon="-1.84348">
        <ele>1266.2</ele>
        <time>2021-10-09 17:50:05</time>
      </trkpt>
      <trkpt lat="40.21021" lon="-1.8435">
        <ele>1266.6</ele>
        <time>2021-10-09 17:50:06</time>
      </trkpt>
      <trkpt lat="40.21019" lon="-1.84352">
        <ele>1266.6</ele>
        <time>2021-10-09 17:50:07</time>
      </trkpt>
      <trkpt lat="40.21018" lon="-1.84354">
        <ele>1267</ele>
        <time>2021-10-09 17:50:08</time>
      </trkpt>
      <trkpt lat="40.21017" lon="-1.84356">
        <ele>1267.2</ele>
        <time>2021-10-09 17:50:09</time>
      </trkpt>
      <trkpt lat="40.21016" lon="-1.84358">
        <ele>1267.2</ele>
        <time>2021-10-09 17:50:10</time>
      </trkpt>
      <trkpt lat="40.21014" lon="-1.8436">
        <ele>1267.6</ele>
        <time>2021-10-09 17:50:11</time>
      </trkpt>
      <trkpt lat="40.21013" lon="-1.84362">
        <ele>1267.8</ele>
        <time>2021-10-09 17:50:12</time>
      </trkpt>
      <trkpt lat="40.21012" lon="-1.84364">
        <ele>1267.8</ele>
        <time>2021-10-09 17:50:13</time>
      </trkpt>
      <trkpt lat="40.2101" lon="-1.84366">
        <ele>1268.2</ele>
        <time>2021-10-09 17:50:14</time>
      </trkpt>
      <trkpt lat="40.21009" lon="-1.84368">
        <ele>1268.2</ele>
        <time>2021-10-09 17:50:15</time>
      </trkpt>
      <trkpt lat="40.21008" lon="-1.8437">
        <ele>1268.6</ele>
        <time>2021-10-09 17:50:16</time>
      </trkpt>
      <trkpt lat="40.21006" lon="-1.84372">
        <ele>1268.6</ele>
        <time>2021-10-09 17:50:17</time>
      </trkpt>
      <trkpt lat="40.21004" lon="-1.84374">
        <ele>1268.8</ele>
        <time>2021-10-09 17:50:18</time>
      </trkpt>
      <trkpt lat="40.21003" lon="-1.84375">
        <ele>1268.8</ele>
        <time>2021-10-09 17:50:19</time>
      </trkpt>
      <trkpt lat="40.21001" lon="-1.84377">
        <ele>1268.8</ele>
        <time>2021-10-09 17:50:20</time>
      </trkpt>
      <trkpt lat="40.20999" lon="-1.84378">
        <ele>1269</ele>
        <time>2021-10-09 17:50:21</time>
      </trkpt>
      <trkpt lat="40.20997" lon="-1.84379">
        <ele>1269</ele>
        <time>2021-10-09 17:50:22</time>
      </trkpt>
      <trkpt lat="40.20995" lon="-1.84381">
        <ele>1269.2</ele>
        <time>2021-10-09 17:50:23</time>
      </trkpt>
      <trkpt lat="40.20993" lon="-1.84381">
        <ele>1269.2</ele>
        <time>2021-10-09 17:50:24</time>
      </trkpt>
      <trkpt lat="40.20992" lon="-1.84383">
        <ele>1269.6</ele>
        <time>2021-10-09 17:50:25</time>
      </trkpt>
      <trkpt lat="40.2099" lon="-1.84384">
        <ele>1269.6</ele>
        <time>2021-10-09 17:50:26</time>
      </trkpt>
      <trkpt lat="40.20988" lon="-1.84385">
        <ele>1269.6</ele>
        <time>2021-10-09 17:50:27</time>
      </trkpt>
      <trkpt lat="40.20985" lon="-1.84386">
        <ele>1269.8</ele>
        <time>2021-10-09 17:50:28</time>
      </trkpt>
      <trkpt lat="40.20983" lon="-1.84386">
        <ele>1269.8</ele>
        <time>2021-10-09 17:50:29</time>
      </trkpt>
      <trkpt lat="40.20981" lon="-1.84386">
        <ele>1269.8</ele>
        <time>2021-10-09 17:50:30</time>
      </trkpt>
      <trkpt lat="40.20979" lon="-1.84386">
        <ele>1270.2</ele>
        <time>2021-10-09 17:50:31</time>
      </trkpt>
      <trkpt lat="40.20977" lon="-1.84385">
        <ele>1270.2</ele>
        <time>2021-10-09 17:50:32</time>
      </trkpt>
      <trkpt lat="40.20975" lon="-1.84384">
        <ele>1270.4</ele>
        <time>2021-10-09 17:50:33</time>
      </trkpt>
      <trkpt lat="40.20973" lon="-1.84384">
        <ele>1270.4</ele>
        <time>2021-10-09 17:50:34</time>
      </trkpt>
      <trkpt lat="40.20971" lon="-1.84384">
        <ele>1270.4</ele>
        <time>2021-10-09 17:50:35</time>
      </trkpt>
      <trkpt lat="40.2097" lon="-1.84383">
        <ele>1270.6</ele>
        <time>2021-10-09 17:50:36</time>
      </trkpt>
      <trkpt lat="40.20966" lon="-1.84383">
        <ele>1270.6</ele>
        <time>2021-10-09 17:50:37</time>
      </trkpt>
      <trkpt lat="40.20964" lon="-1.84383">
        <ele>1271</ele>
        <time>2021-10-09 17:50:38</time>
      </trkpt>
      <trkpt lat="40.20962" lon="-1.84382">
        <ele>1271</ele>
        <time>2021-10-09 17:50:39</time>
      </trkpt>
      <trkpt lat="40.2096" lon="-1.84381">
        <ele>1271</ele>
        <time>2021-10-09 17:50:40</time>
      </trkpt>
      <trkpt lat="40.20958" lon="-1.8438">
        <ele>1271.2</ele>
        <time>2021-10-09 17:50:41</time>
      </trkpt>
      <trkpt lat="40.20956" lon="-1.84379">
        <ele>1271.2</ele>
        <time>2021-10-09 17:50:42</time>
      </trkpt>
      <trkpt lat="40.20954" lon="-1.84378">
        <ele>1271.4</ele>
        <time>2021-10-09 17:50:43</time>
      </trkpt>
      <trkpt lat="40.20952" lon="-1.84377">
        <ele>1271.4</ele>
        <time>2021-10-09 17:50:44</time>
      </trkpt>
      <trkpt lat="40.2095" lon="-1.84376">
        <ele>1271.8</ele>
        <time>2021-10-09 17:50:45</time>
      </trkpt>
      <trkpt lat="40.20948" lon="-1.84375">
        <ele>1271.8</ele>
        <time>2021-10-09 17:50:46</time>
      </trkpt>
      <trkpt lat="40.20946" lon="-1.84374">
        <ele>1272</ele>
        <time>2021-10-09 17:50:47</time>
      </trkpt>
      <trkpt lat="40.20944" lon="-1.84373">
        <ele>1272</ele>
        <time>2021-10-09 17:50:48</time>
      </trkpt>
      <trkpt lat="40.20942" lon="-1.84372">
        <ele>1272.4</ele>
        <time>2021-10-09 17:50:49</time>
      </trkpt>
      <trkpt lat="40.2094" lon="-1.84371">
        <ele>1272.4</ele>
        <time>2021-10-09 17:50:50</time>
      </trkpt>
      <trkpt lat="40.20939" lon="-1.8437">
        <ele>1272.6</ele>
        <time>2021-10-09 17:50:51</time>
      </trkpt>
      <trkpt lat="40.20937" lon="-1.84369">
        <ele>1272.6</ele>
        <time>2021-10-09 17:50:52</time>
      </trkpt>
      <trkpt lat="40.20935" lon="-1.84368">
        <ele>1273</ele>
        <time>2021-10-09 17:50:53</time>
      </trkpt>
      <trkpt lat="40.20933" lon="-1.84367">
        <ele>1273</ele>
        <time>2021-10-09 17:50:54</time>
      </trkpt>
      <trkpt lat="40.20931" lon="-1.84366">
        <ele>1273.2</ele>
        <time>2021-10-09 17:50:55</time>
      </trkpt>
      <trkpt lat="40.20929" lon="-1.84365">
        <ele>1273.4</ele>
        <time>2021-10-09 17:50:56</time>
      </trkpt>
      <trkpt lat="40.20927" lon="-1.84364">
        <ele>1273.4</ele>
        <time>2021-10-09 17:50:57</time>
      </trkpt>
      <trkpt lat="40.20925" lon="-1.84363">
        <ele>1273.8</ele>
        <time>2021-10-09 17:50:58</time>
      </trkpt>
      <trkpt lat="40.20923" lon="-1.84362">
        <ele>1273.8</ele>
        <time>2021-10-09 17:50:59</time>
      </trkpt>
      <trkpt lat="40.20921" lon="-1.84361">
        <ele>1274.2</ele>
        <time>2021-10-09 17:51:00</time>
      </trkpt>
      <trkpt lat="40.20919" lon="-1.84361">
        <ele>1274.2</ele>
        <time>2021-10-09 17:51:01</time>
      </trkpt>
      <trkpt lat="40.20917" lon="-1.8436">
        <ele>1274.4</ele>
        <time>2021-10-09 17:51:02</time>
      </trkpt>
      <trkpt lat="40.20915" lon="-1.84359">
        <ele>1274.4</ele>
        <time>2021-10-09 17:51:03</time>
      </trkpt>
      <trkpt lat="40.20913" lon="-1.84358">
        <ele>1274.6</ele>
        <time>2021-10-09 17:51:04</time>
      </trkpt>
      <trkpt lat="40.20911" lon="-1.84357">
        <ele>1274.6</ele>
        <time>2021-10-09 17:51:05</time>
      </trkpt>
      <trkpt lat="40.2091" lon="-1.84357">
        <ele>1275</ele>
        <time>2021-10-09 17:51:06</time>
      </trkpt>
      <trkpt lat="40.20907" lon="-1.84356">
        <ele>1275</ele>
        <time>2021-10-09 17:51:07</time>
      </trkpt>
      <trkpt lat="40.20906" lon="-1.84356">
        <ele>1275.2</ele>
        <time>2021-10-09 17:51:08</time>
      </trkpt>
      <trkpt lat="40.20904" lon="-1.84355">
        <ele>1275.2</ele>
        <time>2021-10-09 17:51:09</time>
      </trkpt>
      <trkpt lat="40.20902" lon="-1.84354">
        <ele>1275.6</ele>
        <time>2021-10-09 17:51:10</time>
      </trkpt>
      <trkpt lat="40.209" lon="-1.84353">
        <ele>1275.6</ele>
        <time>2021-10-09 17:51:11</time>
      </trkpt>
      <trkpt lat="40.20898" lon="-1.84352">
        <ele>1275.8</ele>
        <time>2021-10-09 17:51:12</time>
      </trkpt>
      <trkpt lat="40.20896" lon="-1.84351">
        <ele>1275.8</ele>
        <time>2021-10-09 17:51:13</time>
      </trkpt>
      <trkpt lat="40.20894" lon="-1.8435">
        <ele>1276</ele>
        <time>2021-10-09 17:51:14</time>
      </trkpt>
      <trkpt lat="40.20892" lon="-1.84349">
        <ele>1276</ele>
        <time>2021-10-09 17:51:15</time>
      </trkpt>
      <trkpt lat="40.2089" lon="-1.84348">
        <ele>1276.4</ele>
        <time>2021-10-09 17:51:16</time>
      </trkpt>
      <trkpt lat="40.20889" lon="-1.84347">
        <ele>1276.4</ele>
        <time>2021-10-09 17:51:17</time>
      </trkpt>
      <trkpt lat="40.20887" lon="-1.84346">
        <ele>1276.6</ele>
        <time>2021-10-09 17:51:18</time>
      </trkpt>
      <trkpt lat="40.20886" lon="-1.84346">
        <ele>1276.6</ele>
        <time>2021-10-09 17:51:19</time>
      </trkpt>
      <trkpt lat="40.20885" lon="-1.84345">
        <ele>1277</ele>
        <time>2021-10-09 17:51:20</time>
      </trkpt>
      <trkpt lat="40.20883" lon="-1.84345">
        <ele>1277</ele>
        <time>2021-10-09 17:51:21</time>
      </trkpt>
      <trkpt lat="40.20881" lon="-1.84345">
        <ele>1277.2</ele>
        <time>2021-10-09 17:51:22</time>
      </trkpt>
      <trkpt lat="40.20879" lon="-1.84344">
        <ele>1277.2</ele>
        <time>2021-10-09 17:51:23</time>
      </trkpt>
      <trkpt lat="40.20877" lon="-1.84344">
        <ele>1277.4</ele>
        <time>2021-10-09 17:51:24</time>
      </trkpt>
      <trkpt lat="40.20875" lon="-1.84344">
        <ele>1277.4</ele>
        <time>2021-10-09 17:51:25</time>
      </trkpt>
      <trkpt lat="40.20873" lon="-1.84344">
        <ele>1277.4</ele>
        <time>2021-10-09 17:51:26</time>
      </trkpt>
      <trkpt lat="40.20871" lon="-1.84344">
        <ele>1277.8</ele>
        <time>2021-10-09 17:51:27</time>
      </trkpt>
      <trkpt lat="40.20869" lon="-1.84344">
        <ele>1277.8</ele>
        <time>2021-10-09 17:51:28</time>
      </trkpt>
      <trkpt lat="40.20867" lon="-1.84345">
        <ele>1278</ele>
        <time>2021-10-09 17:51:29</time>
      </trkpt>
      <trkpt lat="40.20865" lon="-1.84345">
        <ele>1278</ele>
        <time>2021-10-09 17:51:30</time>
      </trkpt>
      <trkpt lat="40.20863" lon="-1.84346">
        <ele>1278.2</ele>
        <time>2021-10-09 17:51:31</time>
      </trkpt>
      <trkpt lat="40.20861" lon="-1.84346">
        <ele>1278.2</ele>
        <time>2021-10-09 17:51:32</time>
      </trkpt>
      <trkpt lat="40.20859" lon="-1.84346">
        <ele>1278.4</ele>
        <time>2021-10-09 17:51:33</time>
      </trkpt>
      <trkpt lat="40.20857" lon="-1.84346">
        <ele>1278.4</ele>
        <time>2021-10-09 17:51:34</time>
      </trkpt>
      <trkpt lat="40.20855" lon="-1.84346">
        <ele>1278.8</ele>
        <time>2021-10-09 17:51:35</time>
      </trkpt>
      <trkpt lat="40.20853" lon="-1.84347">
        <ele>1278.8</ele>
        <time>2021-10-09 17:51:36</time>
      </trkpt>
      <trkpt lat="40.20851" lon="-1.84347">
        <ele>1278.8</ele>
        <time>2021-10-09 17:51:37</time>
      </trkpt>
      <trkpt lat="40.20849" lon="-1.84347">
        <ele>1279</ele>
        <time>2021-10-09 17:51:38</time>
      </trkpt>
      <trkpt lat="40.20846" lon="-1.84347">
        <ele>1279</ele>
        <time>2021-10-09 17:51:39</time>
      </trkpt>
      <trkpt lat="40.20845" lon="-1.84347">
        <ele>1279</ele>
        <time>2021-10-09 17:51:40</time>
      </trkpt>
      <trkpt lat="40.20843" lon="-1.84347">
        <ele>1279</ele>
        <time>2021-10-09 17:51:41</time>
      </trkpt>
      <trkpt lat="40.20841" lon="-1.84347">
        <ele>1279.2</ele>
        <time>2021-10-09 17:51:42</time>
      </trkpt>
      <trkpt lat="40.20838" lon="-1.84347">
        <ele>1279.2</ele>
        <time>2021-10-09 17:51:43</time>
      </trkpt>
      <trkpt lat="40.20836" lon="-1.84348">
        <ele>1279.4</ele>
        <time>2021-10-09 17:51:44</time>
      </trkpt>
      <trkpt lat="40.20834" lon="-1.84348">
        <ele>1279.4</ele>
        <time>2021-10-09 17:51:45</time>
      </trkpt>
      <trkpt lat="40.20832" lon="-1.84349">
        <ele>1279.8</ele>
        <time>2021-10-09 17:51:46</time>
      </trkpt>
      <trkpt lat="40.20829" lon="-1.84349">
        <ele>1279.8</ele>
        <time>2021-10-09 17:51:47</time>
      </trkpt>
      <trkpt lat="40.20827" lon="-1.84349">
        <ele>1280</ele>
        <time>2021-10-09 17:51:48</time>
      </trkpt>
      <trkpt lat="40.20824" lon="-1.84349">
        <ele>1280</ele>
        <time>2021-10-09 17:51:49</time>
      </trkpt>
      <trkpt lat="40.20821" lon="-1.84349">
        <ele>1280.2</ele>
        <time>2021-10-09 17:51:50</time>
      </trkpt>
      <trkpt lat="40.20818" lon="-1.84349">
        <ele>1280.2</ele>
        <time>2021-10-09 17:51:51</time>
      </trkpt>
      <trkpt lat="40.20816" lon="-1.84349">
        <ele>1280.6</ele>
        <time>2021-10-09 17:51:52</time>
      </trkpt>
      <trkpt lat="40.20814" lon="-1.84349">
        <ele>1280.6</ele>
        <time>2021-10-09 17:51:53</time>
      </trkpt>
      <trkpt lat="40.20812" lon="-1.84348">
        <ele>1280.8</ele>
        <time>2021-10-09 17:51:54</time>
      </trkpt>
      <trkpt lat="40.2081" lon="-1.84348">
        <ele>1281</ele>
        <time>2021-10-09 17:51:55</time>
      </trkpt>
      <trkpt lat="40.20808" lon="-1.84348">
        <ele>1281.2</ele>
        <time>2021-10-09 17:51:56</time>
      </trkpt>
      <trkpt lat="40.20805" lon="-1.84348">
        <ele>1281.2</ele>
        <time>2021-10-09 17:51:57</time>
      </trkpt>
      <trkpt lat="40.20803" lon="-1.84348">
        <ele>1281.6</ele>
        <time>2021-10-09 17:51:58</time>
      </trkpt>
      <trkpt lat="40.20801" lon="-1.84348">
        <ele>1281.6</ele>
        <time>2021-10-09 17:51:59</time>
      </trkpt>
      <trkpt lat="40.20799" lon="-1.84348">
        <ele>1282</ele>
        <time>2021-10-09 17:52:00</time>
      </trkpt>
      <trkpt lat="40.20798" lon="-1.84348">
        <ele>1282.2</ele>
        <time>2021-10-09 17:52:01</time>
      </trkpt>
      <trkpt lat="40.20796" lon="-1.84349">
        <ele>1282.4</ele>
        <time>2021-10-09 17:52:02</time>
      </trkpt>
      <trkpt lat="40.20794" lon="-1.84349">
        <ele>1282.4</ele>
        <time>2021-10-09 17:52:03</time>
      </trkpt>
      <trkpt lat="40.20792" lon="-1.8435">
        <ele>1282.6</ele>
        <time>2021-10-09 17:52:04</time>
      </trkpt>
      <trkpt lat="40.2079" lon="-1.8435">
        <ele>1282.6</ele>
        <time>2021-10-09 17:52:05</time>
      </trkpt>
      <trkpt lat="40.20788" lon="-1.8435">
        <ele>1283</ele>
        <time>2021-10-09 17:52:06</time>
      </trkpt>
      <trkpt lat="40.20786" lon="-1.8435">
        <ele>1283.2</ele>
        <time>2021-10-09 17:52:07</time>
      </trkpt>
      <trkpt lat="40.20784" lon="-1.8435">
        <ele>1283.4</ele>
        <time>2021-10-09 17:52:08</time>
      </trkpt>
      <trkpt lat="40.20782" lon="-1.8435">
        <ele>1283.4</ele>
        <time>2021-10-09 17:52:09</time>
      </trkpt>
      <trkpt lat="40.2078" lon="-1.8435">
        <ele>1283.8</ele>
        <time>2021-10-09 17:52:10</time>
      </trkpt>
      <trkpt lat="40.20778" lon="-1.8435">
        <ele>1283.8</ele>
        <time>2021-10-09 17:52:11</time>
      </trkpt>
      <trkpt lat="40.20776" lon="-1.84351">
        <ele>1284.2</ele>
        <time>2021-10-09 17:52:12</time>
      </trkpt>
      <trkpt lat="40.20773" lon="-1.84352">
        <ele>1284.4</ele>
        <time>2021-10-09 17:52:13</time>
      </trkpt>
      <trkpt lat="40.20771" lon="-1.84353">
        <ele>1284.6</ele>
        <time>2021-10-09 17:52:14</time>
      </trkpt>
      <trkpt lat="40.20769" lon="-1.84354">
        <ele>1284.8</ele>
        <time>2021-10-09 17:52:15</time>
      </trkpt>
      <trkpt lat="40.20768" lon="-1.84354">
        <ele>1284.8</ele>
        <time>2021-10-09 17:52:16</time>
      </trkpt>
      <trkpt lat="40.20765" lon="-1.84354">
        <ele>1285.2</ele>
        <time>2021-10-09 17:52:17</time>
      </trkpt>
      <trkpt lat="40.20763" lon="-1.84353">
        <ele>1285.2</ele>
        <time>2021-10-09 17:52:18</time>
      </trkpt>
      <trkpt lat="40.2076" lon="-1.84351">
        <ele>1285.6</ele>
        <time>2021-10-09 17:52:19</time>
      </trkpt>
      <trkpt lat="40.20758" lon="-1.84349">
        <ele>1285.6</ele>
        <time>2021-10-09 17:52:20</time>
      </trkpt>
      <trkpt lat="40.20756" lon="-1.84347">
        <ele>1285.8</ele>
        <time>2021-10-09 17:52:21</time>
      </trkpt>
      <trkpt lat="40.20754" lon="-1.84346">
        <ele>1285.8</ele>
        <time>2021-10-09 17:52:22</time>
      </trkpt>
      <trkpt lat="40.20752" lon="-1.84345">
        <ele>1286</ele>
        <time>2021-10-09 17:52:23</time>
      </trkpt>
      <trkpt lat="40.20751" lon="-1.84344">
        <ele>1286</ele>
        <time>2021-10-09 17:52:24</time>
      </trkpt>
      <trkpt lat="40.20749" lon="-1.84342">
        <ele>1286.4</ele>
        <time>2021-10-09 17:52:25</time>
      </trkpt>
      <trkpt lat="40.20747" lon="-1.84341">
        <ele>1286.4</ele>
        <time>2021-10-09 17:52:26</time>
      </trkpt>
      <trkpt lat="40.20745" lon="-1.84339">
        <ele>1286.6</ele>
        <time>2021-10-09 17:52:27</time>
      </trkpt>
      <trkpt lat="40.20743" lon="-1.84338">
        <ele>1286.6</ele>
        <time>2021-10-09 17:52:28</time>
      </trkpt>
      <trkpt lat="40.20741" lon="-1.84337">
        <ele>1286.6</ele>
        <time>2021-10-09 17:52:29</time>
      </trkpt>
      <trkpt lat="40.20739" lon="-1.84336">
        <ele>1286.8</ele>
        <time>2021-10-09 17:52:30</time>
      </trkpt>
      <trkpt lat="40.20736" lon="-1.84334">
        <ele>1287</ele>
        <time>2021-10-09 17:52:31</time>
      </trkpt>
      <trkpt lat="40.20734" lon="-1.84332">
        <ele>1287</ele>
        <time>2021-10-09 17:52:32</time>
      </trkpt>
      <trkpt lat="40.20732" lon="-1.84331">
        <ele>1287.4</ele>
        <time>2021-10-09 17:52:33</time>
      </trkpt>
      <trkpt lat="40.20729" lon="-1.84329">
        <ele>1287.4</ele>
        <time>2021-10-09 17:52:34</time>
      </trkpt>
      <trkpt lat="40.20727" lon="-1.84328">
        <ele>1287.6</ele>
        <time>2021-10-09 17:52:35</time>
      </trkpt>
      <trkpt lat="40.20725" lon="-1.84326">
        <ele>1287.6</ele>
        <time>2021-10-09 17:52:36</time>
      </trkpt>
      <trkpt lat="40.20723" lon="-1.84324">
        <ele>1288</ele>
        <time>2021-10-09 17:52:37</time>
      </trkpt>
      <trkpt lat="40.20721" lon="-1.84323">
        <ele>1288</ele>
        <time>2021-10-09 17:52:38</time>
      </trkpt>
      <trkpt lat="40.20718" lon="-1.84321">
        <ele>1288</ele>
        <time>2021-10-09 17:52:39</time>
      </trkpt>
      <trkpt lat="40.20716" lon="-1.8432">
        <ele>1288.2</ele>
        <time>2021-10-09 17:52:40</time>
      </trkpt>
      <trkpt lat="40.20714" lon="-1.84318">
        <ele>1288.2</ele>
        <time>2021-10-09 17:52:41</time>
      </trkpt>
      <trkpt lat="40.20712" lon="-1.84317">
        <ele>1288.6</ele>
        <time>2021-10-09 17:52:42</time>
      </trkpt>
      <trkpt lat="40.20709" lon="-1.84315">
        <ele>1288.6</ele>
        <time>2021-10-09 17:52:43</time>
      </trkpt>
      <trkpt lat="40.20707" lon="-1.84314">
        <ele>1288.8</ele>
        <time>2021-10-09 17:52:44</time>
      </trkpt>
      <trkpt lat="40.20705" lon="-1.84312">
        <ele>1288.8</ele>
        <time>2021-10-09 17:52:45</time>
      </trkpt>
      <trkpt lat="40.20703" lon="-1.84311">
        <ele>1289</ele>
        <time>2021-10-09 17:52:46</time>
      </trkpt>
      <trkpt lat="40.20701" lon="-1.8431">
        <ele>1289</ele>
        <time>2021-10-09 17:52:47</time>
      </trkpt>
      <trkpt lat="40.20699" lon="-1.84308">
        <ele>1289</ele>
        <time>2021-10-09 17:52:48</time>
      </trkpt>
      <trkpt lat="40.20696" lon="-1.84307">
        <ele>1289.4</ele>
        <time>2021-10-09 17:52:49</time>
      </trkpt>
      <trkpt lat="40.20694" lon="-1.84306">
        <ele>1289.4</ele>
        <time>2021-10-09 17:52:50</time>
      </trkpt>
      <trkpt lat="40.20692" lon="-1.84305">
        <ele>1289.6</ele>
        <time>2021-10-09 17:52:51</time>
      </trkpt>
      <trkpt lat="40.2069" lon="-1.84304">
        <ele>1289.6</ele>
        <time>2021-10-09 17:52:52</time>
      </trkpt>
      <trkpt lat="40.20687" lon="-1.84304">
        <ele>1290</ele>
        <time>2021-10-09 17:52:53</time>
      </trkpt>
      <trkpt lat="40.20685" lon="-1.84303">
        <ele>1290</ele>
        <time>2021-10-09 17:52:54</time>
      </trkpt>
      <trkpt lat="40.20683" lon="-1.84302">
        <ele>1290.2</ele>
        <time>2021-10-09 17:52:55</time>
      </trkpt>
      <trkpt lat="40.20681" lon="-1.84301">
        <ele>1290.2</ele>
        <time>2021-10-09 17:52:56</time>
      </trkpt>
      <trkpt lat="40.20679" lon="-1.84299">
        <ele>1290.4</ele>
        <time>2021-10-09 17:52:57</time>
      </trkpt>
      <trkpt lat="40.20677" lon="-1.84298">
        <ele>1290.4</ele>
        <time>2021-10-09 17:52:58</time>
      </trkpt>
      <trkpt lat="40.20674" lon="-1.84297">
        <ele>1290.6</ele>
        <time>2021-10-09 17:52:59</time>
      </trkpt>
      <trkpt lat="40.20672" lon="-1.84295">
        <ele>1290.6</ele>
        <time>2021-10-09 17:53:00</time>
      </trkpt>
      <trkpt lat="40.2067" lon="-1.84294">
        <ele>1290.6</ele>
        <time>2021-10-09 17:53:01</time>
      </trkpt>
      <trkpt lat="40.20668" lon="-1.84293">
        <ele>1290.8</ele>
        <time>2021-10-09 17:53:02</time>
      </trkpt>
      <trkpt lat="40.20666" lon="-1.84291">
        <ele>1290.8</ele>
        <time>2021-10-09 17:53:03</time>
      </trkpt>
      <trkpt lat="40.20664" lon="-1.8429">
        <ele>1291.2</ele>
        <time>2021-10-09 17:53:04</time>
      </trkpt>
      <trkpt lat="40.20662" lon="-1.84288">
        <ele>1291.2</ele>
        <time>2021-10-09 17:53:05</time>
      </trkpt>
      <trkpt lat="40.2066" lon="-1.84287">
        <ele>1291.4</ele>
        <time>2021-10-09 17:53:06</time>
      </trkpt>
      <trkpt lat="40.20658" lon="-1.84285">
        <ele>1291.4</ele>
        <time>2021-10-09 17:53:07</time>
      </trkpt>
      <trkpt lat="40.20655" lon="-1.84284">
        <ele>1291.4</ele>
        <time>2021-10-09 17:53:08</time>
      </trkpt>
      <trkpt lat="40.20653" lon="-1.84282">
        <ele>1291.8</ele>
        <time>2021-10-09 17:53:09</time>
      </trkpt>
      <trkpt lat="40.20651" lon="-1.84281">
        <ele>1291.8</ele>
        <time>2021-10-09 17:53:10</time>
      </trkpt>
      <trkpt lat="40.20649" lon="-1.84279">
        <ele>1292</ele>
        <time>2021-10-09 17:53:11</time>
      </trkpt>
      <trkpt lat="40.20647" lon="-1.84278">
        <ele>1292</ele>
        <time>2021-10-09 17:53:12</time>
      </trkpt>
      <trkpt lat="40.20644" lon="-1.84276">
        <ele>1292.2</ele>
        <time>2021-10-09 17:53:13</time>
      </trkpt>
      <trkpt lat="40.20642" lon="-1.84275">
        <ele>1292.2</ele>
        <time>2021-10-09 17:53:14</time>
      </trkpt>
      <trkpt lat="40.20638" lon="-1.84271">
        <ele>1292.6</ele>
        <time>2021-10-09 17:53:15</time>
      </trkpt>
      <trkpt lat="40.20636" lon="-1.84269">
        <ele>1292.6</ele>
        <time>2021-10-09 17:53:16</time>
      </trkpt>
      <trkpt lat="40.20634" lon="-1.84267">
        <ele>1292.8</ele>
        <time>2021-10-09 17:53:17</time>
      </trkpt>
      <trkpt lat="40.20632" lon="-1.84266">
        <ele>1292.8</ele>
        <time>2021-10-09 17:53:18</time>
      </trkpt>
      <trkpt lat="40.20629" lon="-1.84265">
        <ele>1293.2</ele>
        <time>2021-10-09 17:53:19</time>
      </trkpt>
      <trkpt lat="40.20627" lon="-1.84263">
        <ele>1293.2</ele>
        <time>2021-10-09 17:53:20</time>
      </trkpt>
      <trkpt lat="40.20624" lon="-1.84261">
        <ele>1293.6</ele>
        <time>2021-10-09 17:53:21</time>
      </trkpt>
      <trkpt lat="40.20622" lon="-1.84259">
        <ele>1293.6</ele>
        <time>2021-10-09 17:53:22</time>
      </trkpt>
      <trkpt lat="40.20621" lon="-1.84257">
        <ele>1293.8</ele>
        <time>2021-10-09 17:53:23</time>
      </trkpt>
      <trkpt lat="40.20619" lon="-1.84255">
        <ele>1293.8</ele>
        <time>2021-10-09 17:53:24</time>
      </trkpt>
      <trkpt lat="40.20616" lon="-1.84252">
        <ele>1293.8</ele>
        <time>2021-10-09 17:53:25</time>
      </trkpt>
      <trkpt lat="40.20614" lon="-1.8425">
        <ele>1294</ele>
        <time>2021-10-09 17:53:26</time>
      </trkpt>
      <trkpt lat="40.20611" lon="-1.84246">
        <ele>1294</ele>
        <time>2021-10-09 17:53:27</time>
      </trkpt>
      <trkpt lat="40.20608" lon="-1.84242">
        <ele>1294</ele>
        <time>2021-10-09 17:53:28</time>
      </trkpt>
      <trkpt lat="40.20607" lon="-1.84236">
        <ele>1294</ele>
        <time>2021-10-09 17:53:29</time>
      </trkpt>
      <trkpt lat="40.20604" lon="-1.8423">
        <ele>1293.8</ele>
        <time>2021-10-09 17:53:30</time>
      </trkpt>
      <trkpt lat="40.20602" lon="-1.84224">
        <ele>1293.8</ele>
        <time>2021-10-09 17:53:31</time>
      </trkpt>
      <trkpt lat="40.20599" lon="-1.84218">
        <ele>1293.4</ele>
        <time>2021-10-09 17:53:32</time>
      </trkpt>
      <trkpt lat="40.20597" lon="-1.8421">
        <ele>1293</ele>
        <time>2021-10-09 17:53:33</time>
      </trkpt>
      <trkpt lat="40.20595" lon="-1.84202">
        <ele>1292.6</ele>
        <time>2021-10-09 17:53:34</time>
      </trkpt>
      <trkpt lat="40.20592" lon="-1.84195">
        <ele>1292.4</ele>
        <time>2021-10-09 17:53:35</time>
      </trkpt>
      <trkpt lat="40.20589" lon="-1.84187">
        <ele>1292</ele>
        <time>2021-10-09 17:53:36</time>
      </trkpt>
      <trkpt lat="40.20586" lon="-1.84178">
        <ele>1291.6</ele>
        <time>2021-10-09 17:53:37</time>
      </trkpt>
      <trkpt lat="40.20582" lon="-1.8417">
        <ele>1291.2</ele>
        <time>2021-10-09 17:53:38</time>
      </trkpt>
      <trkpt lat="40.20578" lon="-1.84162">
        <ele>1290.8</ele>
        <time>2021-10-09 17:53:39</time>
      </trkpt>
      <trkpt lat="40.20574" lon="-1.84153">
        <ele>1290.4</ele>
        <time>2021-10-09 17:53:40</time>
      </trkpt>
      <trkpt lat="40.2057" lon="-1.84145">
        <ele>1290.2</ele>
        <time>2021-10-09 17:53:41</time>
      </trkpt>
      <trkpt lat="40.20566" lon="-1.84138">
        <ele>1289.8</ele>
        <time>2021-10-09 17:53:42</time>
      </trkpt>
      <trkpt lat="40.20561" lon="-1.84132">
        <ele>1289.6</ele>
        <time>2021-10-09 17:53:43</time>
      </trkpt>
      <trkpt lat="40.20556" lon="-1.84126">
        <ele>1289.6</ele>
        <time>2021-10-09 17:53:44</time>
      </trkpt>
      <trkpt lat="40.20552" lon="-1.84119">
        <ele>1289.6</ele>
        <time>2021-10-09 17:53:45</time>
      </trkpt>
      <trkpt lat="40.20546" lon="-1.84114">
        <ele>1289.6</ele>
        <time>2021-10-09 17:53:46</time>
      </trkpt>
      <trkpt lat="40.20541" lon="-1.84108">
        <ele>1289.2</ele>
        <time>2021-10-09 17:53:47</time>
      </trkpt>
      <trkpt lat="40.20536" lon="-1.84101">
        <ele>1289</ele>
        <time>2021-10-09 17:53:48</time>
      </trkpt>
      <trkpt lat="40.2053" lon="-1.84095">
        <ele>1288.8</ele>
        <time>2021-10-09 17:53:49</time>
      </trkpt>
      <trkpt lat="40.20525" lon="-1.84088">
        <ele>1288.4</ele>
        <time>2021-10-09 17:53:50</time>
      </trkpt>
      <trkpt lat="40.20519" lon="-1.8408">
        <ele>1288.2</ele>
        <time>2021-10-09 17:53:51</time>
      </trkpt>
      <trkpt lat="40.20512" lon="-1.84072">
        <ele>1287.8</ele>
        <time>2021-10-09 17:53:52</time>
      </trkpt>
      <trkpt lat="40.20506" lon="-1.84064">
        <ele>1287.2</ele>
        <time>2021-10-09 17:53:53</time>
      </trkpt>
      <trkpt lat="40.20498" lon="-1.84058">
        <ele>1286.8</ele>
        <time>2021-10-09 17:53:54</time>
      </trkpt>
      <trkpt lat="40.20491" lon="-1.84051">
        <ele>1286.2</ele>
        <time>2021-10-09 17:53:55</time>
      </trkpt>
      <trkpt lat="40.20484" lon="-1.84045">
        <ele>1285.8</ele>
        <time>2021-10-09 17:53:56</time>
      </trkpt>
      <trkpt lat="40.20477" lon="-1.84041">
        <ele>1285.4</ele>
        <time>2021-10-09 17:53:57</time>
      </trkpt>
      <trkpt lat="40.20469" lon="-1.84038">
        <ele>1285.4</ele>
        <time>2021-10-09 17:53:58</time>
      </trkpt>
      <trkpt lat="40.20462" lon="-1.84037">
        <ele>1285.2</ele>
        <time>2021-10-09 17:53:59</time>
      </trkpt>
      <trkpt lat="40.20455" lon="-1.84035">
        <ele>1285.2</ele>
        <time>2021-10-09 17:54:00</time>
      </trkpt>
      <trkpt lat="40.20449" lon="-1.84035">
        <ele>1285.4</ele>
        <time>2021-10-09 17:54:01</time>
      </trkpt>
      <trkpt lat="40.20443" lon="-1.84036">
        <ele>1285.4</ele>
        <time>2021-10-09 17:54:02</time>
      </trkpt>
      <trkpt lat="40.20437" lon="-1.84036">
        <ele>1285.8</ele>
        <time>2021-10-09 17:54:03</time>
      </trkpt>
      <trkpt lat="40.20431" lon="-1.84037">
        <ele>1285.8</ele>
        <time>2021-10-09 17:54:04</time>
      </trkpt>
      <trkpt lat="40.20426" lon="-1.84037">
        <ele>1286.2</ele>
        <time>2021-10-09 17:54:05</time>
      </trkpt>
      <trkpt lat="40.20421" lon="-1.84039">
        <ele>1286.2</ele>
        <time>2021-10-09 17:54:06</time>
      </trkpt>
      <trkpt lat="40.20415" lon="-1.8404">
        <ele>1286.4</ele>
        <time>2021-10-09 17:54:07</time>
      </trkpt>
      <trkpt lat="40.2041" lon="-1.84041">
        <ele>1286.4</ele>
        <time>2021-10-09 17:54:08</time>
      </trkpt>
      <trkpt lat="40.20404" lon="-1.84042">
        <ele>1286.6</ele>
        <time>2021-10-09 17:54:09</time>
      </trkpt>
      <trkpt lat="40.20399" lon="-1.84044">
        <ele>1286.6</ele>
        <time>2021-10-09 17:54:10</time>
      </trkpt>
      <trkpt lat="40.20392" lon="-1.84045">
        <ele>1286.6</ele>
        <time>2021-10-09 17:54:11</time>
      </trkpt>
      <trkpt lat="40.20386" lon="-1.84046">
        <ele>1286.4</ele>
        <time>2021-10-09 17:54:12</time>
      </trkpt>
      <trkpt lat="40.20379" lon="-1.84047">
        <ele>1286.2</ele>
        <time>2021-10-09 17:54:13</time>
      </trkpt>
      <trkpt lat="40.20371" lon="-1.84049">
        <ele>1285.8</ele>
        <time>2021-10-09 17:54:14</time>
      </trkpt>
      <trkpt lat="40.20363" lon="-1.84051">
        <ele>1285.2</ele>
        <time>2021-10-09 17:54:15</time>
      </trkpt>
      <trkpt lat="40.20355" lon="-1.84054">
        <ele>1284.8</ele>
        <time>2021-10-09 17:54:16</time>
      </trkpt>
      <trkpt lat="40.20347" lon="-1.84056">
        <ele>1284.4</ele>
        <time>2021-10-09 17:54:17</time>
      </trkpt>
      <trkpt lat="40.20338" lon="-1.84057">
        <ele>1284</ele>
        <time>2021-10-09 17:54:18</time>
      </trkpt>
      <trkpt lat="40.2033" lon="-1.8406">
        <ele>1283.4</ele>
        <time>2021-10-09 17:54:19</time>
      </trkpt>
      <trkpt lat="40.20321" lon="-1.84063">
        <ele>1283</ele>
        <time>2021-10-09 17:54:20</time>
      </trkpt>
      <trkpt lat="40.20313" lon="-1.84064">
        <ele>1282.6</ele>
        <time>2021-10-09 17:54:21</time>
      </trkpt>
      <trkpt lat="40.20304" lon="-1.84068">
        <ele>1282.2</ele>
        <time>2021-10-09 17:54:22</time>
      </trkpt>
      <trkpt lat="40.20296" lon="-1.84071">
        <ele>1281.8</ele>
        <time>2021-10-09 17:54:23</time>
      </trkpt>
      <trkpt lat="40.20288" lon="-1.84075">
        <ele>1281.4</ele>
        <time>2021-10-09 17:54:24</time>
      </trkpt>
      <trkpt lat="40.2028" lon="-1.8408">
        <ele>1281</ele>
        <time>2021-10-09 17:54:25</time>
      </trkpt>
      <trkpt lat="40.20273" lon="-1.84086">
        <ele>1280.6</ele>
        <time>2021-10-09 17:54:26</time>
      </trkpt>
      <trkpt lat="40.20266" lon="-1.84092">
        <ele>1280.4</ele>
        <time>2021-10-09 17:54:27</time>
      </trkpt>
      <trkpt lat="40.20258" lon="-1.84098">
        <ele>1280</ele>
        <time>2021-10-09 17:54:28</time>
      </trkpt>
      <trkpt lat="40.20251" lon="-1.84104">
        <ele>1279.8</ele>
        <time>2021-10-09 17:54:29</time>
      </trkpt>
      <trkpt lat="40.20243" lon="-1.8411">
        <ele>1279.6</ele>
        <time>2021-10-09 17:54:30</time>
      </trkpt>
      <trkpt lat="40.20236" lon="-1.84117">
        <ele>1279.2</ele>
        <time>2021-10-09 17:54:31</time>
      </trkpt>
      <trkpt lat="40.20228" lon="-1.84123">
        <ele>1278.8</ele>
        <time>2021-10-09 17:54:32</time>
      </trkpt>
      <trkpt lat="40.2022" lon="-1.84129">
        <ele>1278.4</ele>
        <time>2021-10-09 17:54:33</time>
      </trkpt>
      <trkpt lat="40.20212" lon="-1.84134">
        <ele>1277.8</ele>
        <time>2021-10-09 17:54:34</time>
      </trkpt>
      <trkpt lat="40.20204" lon="-1.84139">
        <ele>1277.4</ele>
        <time>2021-10-09 17:54:35</time>
      </trkpt>
      <trkpt lat="40.20194" lon="-1.84141">
        <ele>1277</ele>
        <time>2021-10-09 17:54:36</time>
      </trkpt>
      <trkpt lat="40.20185" lon="-1.84143">
        <ele>1276.6</ele>
        <time>2021-10-09 17:54:37</time>
      </trkpt>
      <trkpt lat="40.20177" lon="-1.84143">
        <ele>1276.4</ele>
        <time>2021-10-09 17:54:38</time>
      </trkpt>
      <trkpt lat="40.20169" lon="-1.84142">
        <ele>1276.2</ele>
        <time>2021-10-09 17:54:39</time>
      </trkpt>
      <trkpt lat="40.20161" lon="-1.84142">
        <ele>1276.2</ele>
        <time>2021-10-09 17:54:40</time>
      </trkpt>
      <trkpt lat="40.20154" lon="-1.84142">
        <ele>1276.2</ele>
        <time>2021-10-09 17:54:41</time>
      </trkpt>
      <trkpt lat="40.20147" lon="-1.84141">
        <ele>1276.2</ele>
        <time>2021-10-09 17:54:42</time>
      </trkpt>
      <trkpt lat="40.20141" lon="-1.84141">
        <ele>1276.2</ele>
        <time>2021-10-09 17:54:43</time>
      </trkpt>
      <trkpt lat="40.20135" lon="-1.8414">
        <ele>1276.2</ele>
        <time>2021-10-09 17:54:44</time>
      </trkpt>
      <trkpt lat="40.20135" lon="-1.8414">
        <ele>1276.6</ele>
        <time>2021-10-09 17:54:45</time>
      </trkpt>
      <trkpt lat="40.20124" lon="-1.8414">
        <ele>1276.6</ele>
        <time>2021-10-09 17:54:46</time>
      </trkpt>
      <trkpt lat="40.20119" lon="-1.8414">
        <ele>1277</ele>
        <time>2021-10-09 17:54:47</time>
      </trkpt>
      <trkpt lat="40.20115" lon="-1.84139">
        <ele>1277.2</ele>
        <time>2021-10-09 17:54:48</time>
      </trkpt>
      <trkpt lat="40.20115" lon="-1.84139">
        <ele>1277.4</ele>
        <time>2021-10-09 17:54:49</time>
      </trkpt>
      <trkpt lat="40.20109" lon="-1.84139">
        <ele>1277.4</ele>
        <time>2021-10-09 17:54:50</time>
      </trkpt>
      <trkpt lat="40.20105" lon="-1.84139">
        <ele>1277.8</ele>
        <time>2021-10-09 17:54:51</time>
      </trkpt>
      <trkpt lat="40.20101" lon="-1.84138">
        <ele>1278</ele>
        <time>2021-10-09 17:54:52</time>
      </trkpt>
      <trkpt lat="40.20096" lon="-1.84138">
        <ele>1278</ele>
        <time>2021-10-09 17:54:53</time>
      </trkpt>
      <trkpt lat="40.20092" lon="-1.84138">
        <ele>1278.4</ele>
        <time>2021-10-09 17:54:54</time>
      </trkpt>
      <trkpt lat="40.20088" lon="-1.84137">
        <ele>1278.6</ele>
        <time>2021-10-09 17:54:55</time>
      </trkpt>
      <trkpt lat="40.20084" lon="-1.84137">
        <ele>1278.8</ele>
        <time>2021-10-09 17:54:56</time>
      </trkpt>
      <trkpt lat="40.20081" lon="-1.84137">
        <ele>1278.8</ele>
        <time>2021-10-09 17:54:57</time>
      </trkpt>
      <trkpt lat="40.20077" lon="-1.84137">
        <ele>1279</ele>
        <time>2021-10-09 17:54:58</time>
      </trkpt>
      <trkpt lat="40.20073" lon="-1.84137">
        <ele>1279</ele>
        <time>2021-10-09 17:54:59</time>
      </trkpt>
      <trkpt lat="40.2007" lon="-1.84137">
        <ele>1279.4</ele>
        <time>2021-10-09 17:55:00</time>
      </trkpt>
      <trkpt lat="40.20065" lon="-1.84136">
        <ele>1279.4</ele>
        <time>2021-10-09 17:55:01</time>
      </trkpt>
      <trkpt lat="40.20062" lon="-1.84136">
        <ele>1279.6</ele>
        <time>2021-10-09 17:55:02</time>
      </trkpt>
      <trkpt lat="40.20057" lon="-1.84137">
        <ele>1279.6</ele>
        <time>2021-10-09 17:55:03</time>
      </trkpt>
      <trkpt lat="40.20053" lon="-1.84136">
        <ele>1279.6</ele>
        <time>2021-10-09 17:55:04</time>
      </trkpt>
      <trkpt lat="40.20049" lon="-1.84136">
        <ele>1280</ele>
        <time>2021-10-09 17:55:05</time>
      </trkpt>
      <trkpt lat="40.20045" lon="-1.84136">
        <ele>1280</ele>
        <time>2021-10-09 17:55:06</time>
      </trkpt>
      <trkpt lat="40.20041" lon="-1.84134">
        <ele>1280</ele>
        <time>2021-10-09 17:55:07</time>
      </trkpt>
      <trkpt lat="40.20037" lon="-1.84134">
        <ele>1280</ele>
        <time>2021-10-09 17:55:08</time>
      </trkpt>
      <trkpt lat="40.20033" lon="-1.84135">
        <ele>1280</ele>
        <time>2021-10-09 17:55:09</time>
      </trkpt>
      <trkpt lat="40.20029" lon="-1.84134">
        <ele>1280</ele>
        <time>2021-10-09 17:55:10</time>
      </trkpt>
      <trkpt lat="40.20024" lon="-1.84135">
        <ele>1280</ele>
        <time>2021-10-09 17:55:11</time>
      </trkpt>
      <trkpt lat="40.20019" lon="-1.84135">
        <ele>1280.2</ele>
        <time>2021-10-09 17:55:12</time>
      </trkpt>
      <trkpt lat="40.20015" lon="-1.84134">
        <ele>1280.2</ele>
        <time>2021-10-09 17:55:13</time>
      </trkpt>
      <trkpt lat="40.20011" lon="-1.84136">
        <ele>1280.2</ele>
        <time>2021-10-09 17:55:14</time>
      </trkpt>
      <trkpt lat="40.20006" lon="-1.84135">
        <ele>1280.2</ele>
        <time>2021-10-09 17:55:15</time>
      </trkpt>
      <trkpt lat="40.20002" lon="-1.84135">
        <ele>1280.2</ele>
        <time>2021-10-09 17:55:16</time>
      </trkpt>
      <trkpt lat="40.19998" lon="-1.84134">
        <ele>1280.2</ele>
        <time>2021-10-09 17:55:17</time>
      </trkpt>
      <trkpt lat="40.19993" lon="-1.84134">
        <ele>1280.2</ele>
        <time>2021-10-09 17:55:18</time>
      </trkpt>
      <trkpt lat="40.19989" lon="-1.84134">
        <ele>1280.2</ele>
        <time>2021-10-09 17:55:19</time>
      </trkpt>
      <trkpt lat="40.19985" lon="-1.84134">
        <ele>1280.4</ele>
        <time>2021-10-09 17:55:20</time>
      </trkpt>
      <trkpt lat="40.19981" lon="-1.84134">
        <ele>1280.4</ele>
        <time>2021-10-09 17:55:21</time>
      </trkpt>
      <trkpt lat="40.19976" lon="-1.84135">
        <ele>1280.4</ele>
        <time>2021-10-09 17:55:22</time>
      </trkpt>
      <trkpt lat="40.19971" lon="-1.84135">
        <ele>1280.4</ele>
        <time>2021-10-09 17:55:23</time>
      </trkpt>
      <trkpt lat="40.19967" lon="-1.84136">
        <ele>1280.4</ele>
        <time>2021-10-09 17:55:24</time>
      </trkpt>
      <trkpt lat="40.19962" lon="-1.84136">
        <ele>1280.4</ele>
        <time>2021-10-09 17:55:25</time>
      </trkpt>
      <trkpt lat="40.19957" lon="-1.84137">
        <ele>1280.6</ele>
        <time>2021-10-09 17:55:26</time>
      </trkpt>
      <trkpt lat="40.19953" lon="-1.84138">
        <ele>1280.6</ele>
        <time>2021-10-09 17:55:27</time>
      </trkpt>
      <trkpt lat="40.19948" lon="-1.84139">
        <ele>1280.6</ele>
        <time>2021-10-09 17:55:28</time>
      </trkpt>
      <trkpt lat="40.19944" lon="-1.8414">
        <ele>1280.8</ele>
        <time>2021-10-09 17:55:29</time>
      </trkpt>
      <trkpt lat="40.1994" lon="-1.84141">
        <ele>1280.8</ele>
        <time>2021-10-09 17:55:30</time>
      </trkpt>
      <trkpt lat="40.19936" lon="-1.84142">
        <ele>1280.8</ele>
        <time>2021-10-09 17:55:31</time>
      </trkpt>
      <trkpt lat="40.19931" lon="-1.84142">
        <ele>1280.8</ele>
        <time>2021-10-09 17:55:32</time>
      </trkpt>
      <trkpt lat="40.19927" lon="-1.84143">
        <ele>1281.2</ele>
        <time>2021-10-09 17:55:33</time>
      </trkpt>
      <trkpt lat="40.19923" lon="-1.84144">
        <ele>1281.2</ele>
        <time>2021-10-09 17:55:34</time>
      </trkpt>
      <trkpt lat="40.19918" lon="-1.84144">
        <ele>1281.2</ele>
        <time>2021-10-09 17:55:35</time>
      </trkpt>
      <trkpt lat="40.19914" lon="-1.84145">
        <ele>1281.2</ele>
        <time>2021-10-09 17:55:36</time>
      </trkpt>
      <trkpt lat="40.19909" lon="-1.84145">
        <ele>1281.2</ele>
        <time>2021-10-09 17:55:37</time>
      </trkpt>
      <trkpt lat="40.19905" lon="-1.84145">
        <ele>1281.4</ele>
        <time>2021-10-09 17:55:38</time>
      </trkpt>
      <trkpt lat="40.199" lon="-1.84145">
        <ele>1281.4</ele>
        <time>2021-10-09 17:55:39</time>
      </trkpt>
      <trkpt lat="40.19896" lon="-1.84146">
        <ele>1281.6</ele>
        <time>2021-10-09 17:55:40</time>
      </trkpt>
      <trkpt lat="40.19892" lon="-1.84147">
        <ele>1281.6</ele>
        <time>2021-10-09 17:55:41</time>
      </trkpt>
      <trkpt lat="40.19888" lon="-1.84146">
        <ele>1281.8</ele>
        <time>2021-10-09 17:55:42</time>
      </trkpt>
      <trkpt lat="40.19884" lon="-1.84144">
        <ele>1281.8</ele>
        <time>2021-10-09 17:55:43</time>
      </trkpt>
      <trkpt lat="40.19879" lon="-1.84143">
        <ele>1282</ele>
        <time>2021-10-09 17:55:44</time>
      </trkpt>
      <trkpt lat="40.19875" lon="-1.84141">
        <ele>1282</ele>
        <time>2021-10-09 17:55:45</time>
      </trkpt>
      <trkpt lat="40.19871" lon="-1.84139">
        <ele>1282</ele>
        <time>2021-10-09 17:55:46</time>
      </trkpt>
      <trkpt lat="40.19868" lon="-1.84137">
        <ele>1282</ele>
        <time>2021-10-09 17:55:47</time>
      </trkpt>
      <trkpt lat="40.19864" lon="-1.84134">
        <ele>1282.4</ele>
        <time>2021-10-09 17:55:48</time>
      </trkpt>
      <trkpt lat="40.1986" lon="-1.84131">
        <ele>1282.4</ele>
        <time>2021-10-09 17:55:49</time>
      </trkpt>
      <trkpt lat="40.19856" lon="-1.84128">
        <ele>1282.4</ele>
        <time>2021-10-09 17:55:50</time>
      </trkpt>
      <trkpt lat="40.19852" lon="-1.84125">
        <ele>1282.6</ele>
        <time>2021-10-09 17:55:51</time>
      </trkpt>
      <trkpt lat="40.19849" lon="-1.84122">
        <ele>1282.6</ele>
        <time>2021-10-09 17:55:52</time>
      </trkpt>
      <trkpt lat="40.19844" lon="-1.84119">
        <ele>1282.6</ele>
        <time>2021-10-09 17:55:53</time>
      </trkpt>
      <trkpt lat="40.1984" lon="-1.84117">
        <ele>1282.6</ele>
        <time>2021-10-09 17:55:54</time>
      </trkpt>
      <trkpt lat="40.19836" lon="-1.84113">
        <ele>1282.6</ele>
        <time>2021-10-09 17:55:55</time>
      </trkpt>
      <trkpt lat="40.19833" lon="-1.8411">
        <ele>1282.6</ele>
        <time>2021-10-09 17:55:56</time>
      </trkpt>
      <trkpt lat="40.19829" lon="-1.84107">
        <ele>1282.6</ele>
        <time>2021-10-09 17:55:57</time>
      </trkpt>
      <trkpt lat="40.19825" lon="-1.84103">
        <ele>1282.6</ele>
        <time>2021-10-09 17:55:58</time>
      </trkpt>
      <trkpt lat="40.19821" lon="-1.841">
        <ele>1282.6</ele>
        <time>2021-10-09 17:55:59</time>
      </trkpt>
      <trkpt lat="40.19817" lon="-1.84097">
        <ele>1282.8</ele>
        <time>2021-10-09 17:56:00</time>
      </trkpt>
      <trkpt lat="40.19813" lon="-1.84095">
        <ele>1282.8</ele>
        <time>2021-10-09 17:56:01</time>
      </trkpt>
      <trkpt lat="40.1981" lon="-1.84092">
        <ele>1283</ele>
        <time>2021-10-09 17:56:02</time>
      </trkpt>
      <trkpt lat="40.19807" lon="-1.8409">
        <ele>1283</ele>
        <time>2021-10-09 17:56:03</time>
      </trkpt>
      <trkpt lat="40.19804" lon="-1.84088">
        <ele>1283.4</ele>
        <time>2021-10-09 17:56:04</time>
      </trkpt>
      <trkpt lat="40.198" lon="-1.84086">
        <ele>1283.4</ele>
        <time>2021-10-09 17:56:05</time>
      </trkpt>
      <trkpt lat="40.19797" lon="-1.84084">
        <ele>1283.8</ele>
        <time>2021-10-09 17:56:06</time>
      </trkpt>
      <trkpt lat="40.19794" lon="-1.84082">
        <ele>1283.8</ele>
        <time>2021-10-09 17:56:07</time>
      </trkpt>
      <trkpt lat="40.19791" lon="-1.8408">
        <ele>1283.8</ele>
        <time>2021-10-09 17:56:08</time>
      </trkpt>
      <trkpt lat="40.19787" lon="-1.84078">
        <ele>1284</ele>
        <time>2021-10-09 17:56:09</time>
      </trkpt>
      <trkpt lat="40.19784" lon="-1.84075">
        <ele>1284</ele>
        <time>2021-10-09 17:56:10</time>
      </trkpt>
      <trkpt lat="40.1978" lon="-1.84073">
        <ele>1284.2</ele>
        <time>2021-10-09 17:56:11</time>
      </trkpt>
      <trkpt lat="40.19776" lon="-1.84071">
        <ele>1284.2</ele>
        <time>2021-10-09 17:56:12</time>
      </trkpt>
      <trkpt lat="40.19772" lon="-1.84068">
        <ele>1284.2</ele>
        <time>2021-10-09 17:56:13</time>
      </trkpt>
      <trkpt lat="40.19769" lon="-1.84066">
        <ele>1284.2</ele>
        <time>2021-10-09 17:56:14</time>
      </trkpt>
      <trkpt lat="40.19765" lon="-1.84064">
        <ele>1284.4</ele>
        <time>2021-10-09 17:56:15</time>
      </trkpt>
      <trkpt lat="40.19762" lon="-1.84062">
        <ele>1284.4</ele>
        <time>2021-10-09 17:56:16</time>
      </trkpt>
      <trkpt lat="40.19759" lon="-1.8406">
        <ele>1284.4</ele>
        <time>2021-10-09 17:56:17</time>
      </trkpt>
      <trkpt lat="40.19755" lon="-1.84058">
        <ele>1284.4</ele>
        <time>2021-10-09 17:56:18</time>
      </trkpt>
      <trkpt lat="40.19752" lon="-1.84057">
        <ele>1284.6</ele>
        <time>2021-10-09 17:56:19</time>
      </trkpt>
      <trkpt lat="40.19748" lon="-1.84055">
        <ele>1284.6</ele>
        <time>2021-10-09 17:56:20</time>
      </trkpt>
      <trkpt lat="40.19745" lon="-1.84054">
        <ele>1284.8</ele>
        <time>2021-10-09 17:56:21</time>
      </trkpt>
      <trkpt lat="40.19741" lon="-1.84053">
        <ele>1284.8</ele>
        <time>2021-10-09 17:56:22</time>
      </trkpt>
      <trkpt lat="40.19738" lon="-1.84053">
        <ele>1284.8</ele>
        <time>2021-10-09 17:56:23</time>
      </trkpt>
      <trkpt lat="40.19734" lon="-1.84052">
        <ele>1285.2</ele>
        <time>2021-10-09 17:56:24</time>
      </trkpt>
      <trkpt lat="40.19731" lon="-1.84051">
        <ele>1285.2</ele>
        <time>2021-10-09 17:56:25</time>
      </trkpt>
      <trkpt lat="40.19727" lon="-1.8405">
        <ele>1285.4</ele>
        <time>2021-10-09 17:56:26</time>
      </trkpt>
      <trkpt lat="40.19724" lon="-1.84049">
        <ele>1285.4</ele>
        <time>2021-10-09 17:56:27</time>
      </trkpt>
      <trkpt lat="40.19721" lon="-1.84048">
        <ele>1285.8</ele>
        <time>2021-10-09 17:56:28</time>
      </trkpt>
      <trkpt lat="40.19718" lon="-1.84047">
        <ele>1285.8</ele>
        <time>2021-10-09 17:56:29</time>
      </trkpt>
      <trkpt lat="40.19714" lon="-1.84046">
        <ele>1285.8</ele>
        <time>2021-10-09 17:56:30</time>
      </trkpt>
      <trkpt lat="40.19711" lon="-1.84045">
        <ele>1286.2</ele>
        <time>2021-10-09 17:56:31</time>
      </trkpt>
      <trkpt lat="40.19708" lon="-1.84044">
        <ele>1286.2</ele>
        <time>2021-10-09 17:56:32</time>
      </trkpt>
      <trkpt lat="40.19704" lon="-1.84043">
        <ele>1286.2</ele>
        <time>2021-10-09 17:56:33</time>
      </trkpt>
      <trkpt lat="40.19701" lon="-1.84041">
        <ele>1286.4</ele>
        <time>2021-10-09 17:56:34</time>
      </trkpt>
      <trkpt lat="40.19697" lon="-1.8404">
        <ele>1286.4</ele>
        <time>2021-10-09 17:56:35</time>
      </trkpt>
      <trkpt lat="40.19694" lon="-1.84038">
        <ele>1286.4</ele>
        <time>2021-10-09 17:56:36</time>
      </trkpt>
      <trkpt lat="40.1969" lon="-1.84037">
        <ele>1286.4</ele>
        <time>2021-10-09 17:56:37</time>
      </trkpt>
      <trkpt lat="40.19686" lon="-1.84036">
        <ele>1286.4</ele>
        <time>2021-10-09 17:56:38</time>
      </trkpt>
      <trkpt lat="40.19683" lon="-1.84034">
        <ele>1286.6</ele>
        <time>2021-10-09 17:56:39</time>
      </trkpt>
      <trkpt lat="40.19679" lon="-1.84033">
        <ele>1286.6</ele>
        <time>2021-10-09 17:56:40</time>
      </trkpt>
      <trkpt lat="40.19676" lon="-1.84031">
        <ele>1286.6</ele>
        <time>2021-10-09 17:56:41</time>
      </trkpt>
      <trkpt lat="40.19672" lon="-1.8403">
        <ele>1286.6</ele>
        <time>2021-10-09 17:56:42</time>
      </trkpt>
      <trkpt lat="40.19669" lon="-1.84028">
        <ele>1286.6</ele>
        <time>2021-10-09 17:56:43</time>
      </trkpt>
      <trkpt lat="40.19665" lon="-1.84027">
        <ele>1286.6</ele>
        <time>2021-10-09 17:56:44</time>
      </trkpt>
      <trkpt lat="40.19661" lon="-1.84025">
        <ele>1286.6</ele>
        <time>2021-10-09 17:56:45</time>
      </trkpt>
      <trkpt lat="40.19657" lon="-1.84024">
        <ele>1286.6</ele>
        <time>2021-10-09 17:56:46</time>
      </trkpt>
      <trkpt lat="40.19653" lon="-1.84023">
        <ele>1286.6</ele>
        <time>2021-10-09 17:56:47</time>
      </trkpt>
      <trkpt lat="40.19649" lon="-1.84021">
        <ele>1286.6</ele>
        <time>2021-10-09 17:56:48</time>
      </trkpt>
      <trkpt lat="40.19645" lon="-1.8402">
        <ele>1286.6</ele>
        <time>2021-10-09 17:56:49</time>
      </trkpt>
      <trkpt lat="40.19641" lon="-1.84018">
        <ele>1286.6</ele>
        <time>2021-10-09 17:56:50</time>
      </trkpt>
      <trkpt lat="40.19637" lon="-1.84016">
        <ele>1286.6</ele>
        <time>2021-10-09 17:56:51</time>
      </trkpt>
      <trkpt lat="40.19633" lon="-1.84013">
        <ele>1286.6</ele>
        <time>2021-10-09 17:56:52</time>
      </trkpt>
      <trkpt lat="40.19629" lon="-1.84011">
        <ele>1286.6</ele>
        <time>2021-10-09 17:56:53</time>
      </trkpt>
      <trkpt lat="40.19626" lon="-1.8401">
        <ele>1286.6</ele>
        <time>2021-10-09 17:56:54</time>
      </trkpt>
      <trkpt lat="40.19622" lon="-1.84007">
        <ele>1286.6</ele>
        <time>2021-10-09 17:56:55</time>
      </trkpt>
      <trkpt lat="40.19618" lon="-1.84005">
        <ele>1286.6</ele>
        <time>2021-10-09 17:56:56</time>
      </trkpt>
      <trkpt lat="40.19615" lon="-1.84004">
        <ele>1287</ele>
        <time>2021-10-09 17:56:57</time>
      </trkpt>
      <trkpt lat="40.19611" lon="-1.84003">
        <ele>1287</ele>
        <time>2021-10-09 17:56:58</time>
      </trkpt>
      <trkpt lat="40.19607" lon="-1.84001">
        <ele>1287</ele>
        <time>2021-10-09 17:56:59</time>
      </trkpt>
      <trkpt lat="40.19603" lon="-1.84">
        <ele>1287.2</ele>
        <time>2021-10-09 17:57:00</time>
      </trkpt>
      <trkpt lat="40.19599" lon="-1.83998">
        <ele>1287.2</ele>
        <time>2021-10-09 17:57:01</time>
      </trkpt>
      <trkpt lat="40.19595" lon="-1.83997">
        <ele>1287.2</ele>
        <time>2021-10-09 17:57:02</time>
      </trkpt>
      <trkpt lat="40.19592" lon="-1.83995">
        <ele>1287.2</ele>
        <time>2021-10-09 17:57:03</time>
      </trkpt>
      <trkpt lat="40.19588" lon="-1.83994">
        <ele>1287.4</ele>
        <time>2021-10-09 17:57:04</time>
      </trkpt>
      <trkpt lat="40.19585" lon="-1.83992">
        <ele>1287.4</ele>
        <time>2021-10-09 17:57:05</time>
      </trkpt>
      <trkpt lat="40.19581" lon="-1.83991">
        <ele>1287.6</ele>
        <time>2021-10-09 17:57:06</time>
      </trkpt>
      <trkpt lat="40.19577" lon="-1.83989">
        <ele>1287.6</ele>
        <time>2021-10-09 17:57:07</time>
      </trkpt>
      <trkpt lat="40.19574" lon="-1.83987">
        <ele>1287.6</ele>
        <time>2021-10-09 17:57:08</time>
      </trkpt>
      <trkpt lat="40.1957" lon="-1.83986">
        <ele>1287.8</ele>
        <time>2021-10-09 17:57:09</time>
      </trkpt>
      <trkpt lat="40.19567" lon="-1.83984">
        <ele>1287.8</ele>
        <time>2021-10-09 17:57:10</time>
      </trkpt>
      <trkpt lat="40.19563" lon="-1.83983">
        <ele>1287.8</ele>
        <time>2021-10-09 17:57:11</time>
      </trkpt>
      <trkpt lat="40.19559" lon="-1.83981">
        <ele>1288.2</ele>
        <time>2021-10-09 17:57:12</time>
      </trkpt>
      <trkpt lat="40.19556" lon="-1.8398">
        <ele>1288.2</ele>
        <time>2021-10-09 17:57:13</time>
      </trkpt>
      <trkpt lat="40.19552" lon="-1.83978">
        <ele>1288.2</ele>
        <time>2021-10-09 17:57:14</time>
      </trkpt>
      <trkpt lat="40.19549" lon="-1.83977">
        <ele>1288.2</ele>
        <time>2021-10-09 17:57:15</time>
      </trkpt>
      <trkpt lat="40.19545" lon="-1.83976">
        <ele>1288.2</ele>
        <time>2021-10-09 17:57:16</time>
      </trkpt>
      <trkpt lat="40.19541" lon="-1.83976">
        <ele>1288.4</ele>
        <time>2021-10-09 17:57:17</time>
      </trkpt>
      <trkpt lat="40.19537" lon="-1.83975">
        <ele>1288.4</ele>
        <time>2021-10-09 17:57:18</time>
      </trkpt>
      <trkpt lat="40.19533" lon="-1.83975">
        <ele>1288.4</ele>
        <time>2021-10-09 17:57:19</time>
      </trkpt>
      <trkpt lat="40.19529" lon="-1.83974">
        <ele>1288.4</ele>
        <time>2021-10-09 17:57:20</time>
      </trkpt>
      <trkpt lat="40.19526" lon="-1.83974">
        <ele>1288.6</ele>
        <time>2021-10-09 17:57:21</time>
      </trkpt>
      <trkpt lat="40.19522" lon="-1.83974">
        <ele>1288.6</ele>
        <time>2021-10-09 17:57:22</time>
      </trkpt>
      <trkpt lat="40.19518" lon="-1.83973">
        <ele>1288.6</ele>
        <time>2021-10-09 17:57:23</time>
      </trkpt>
      <trkpt lat="40.19514" lon="-1.83973">
        <ele>1288.6</ele>
        <time>2021-10-09 17:57:24</time>
      </trkpt>
      <trkpt lat="40.19511" lon="-1.83973">
        <ele>1288.8</ele>
        <time>2021-10-09 17:57:25</time>
      </trkpt>
      <trkpt lat="40.19507" lon="-1.83973">
        <ele>1288.8</ele>
        <time>2021-10-09 17:57:26</time>
      </trkpt>
      <trkpt lat="40.19503" lon="-1.83972">
        <ele>1288.8</ele>
        <time>2021-10-09 17:57:27</time>
      </trkpt>
      <trkpt lat="40.19499" lon="-1.83972">
        <ele>1289</ele>
        <time>2021-10-09 17:57:28</time>
      </trkpt>
      <trkpt lat="40.19495" lon="-1.83972">
        <ele>1289</ele>
        <time>2021-10-09 17:57:29</time>
      </trkpt>
      <trkpt lat="40.19492" lon="-1.83971">
        <ele>1289.4</ele>
        <time>2021-10-09 17:57:30</time>
      </trkpt>
      <trkpt lat="40.19489" lon="-1.83971">
        <ele>1289.4</ele>
        <time>2021-10-09 17:57:31</time>
      </trkpt>
      <trkpt lat="40.19485" lon="-1.8397">
        <ele>1289.6</ele>
        <time>2021-10-09 17:57:32</time>
      </trkpt>
      <trkpt lat="40.19482" lon="-1.8397">
        <ele>1289.6</ele>
        <time>2021-10-09 17:57:33</time>
      </trkpt>
      <trkpt lat="40.19478" lon="-1.8397">
        <ele>1289.6</ele>
        <time>2021-10-09 17:57:34</time>
      </trkpt>
      <trkpt lat="40.19475" lon="-1.8397">
        <ele>1290</ele>
        <time>2021-10-09 17:57:35</time>
      </trkpt>
      <trkpt lat="40.19472" lon="-1.8397">
        <ele>1290</ele>
        <time>2021-10-09 17:57:36</time>
      </trkpt>
      <trkpt lat="40.19468" lon="-1.8397">
        <ele>1290.2</ele>
        <time>2021-10-09 17:57:37</time>
      </trkpt>
      <trkpt lat="40.19466" lon="-1.8397">
        <ele>1290.4</ele>
        <time>2021-10-09 17:57:38</time>
      </trkpt>
      <trkpt lat="40.19463" lon="-1.8397">
        <ele>1290.4</ele>
        <time>2021-10-09 17:57:39</time>
      </trkpt>
      <trkpt lat="40.1946" lon="-1.8397">
        <ele>1290.8</ele>
        <time>2021-10-09 17:57:40</time>
      </trkpt>
      <trkpt lat="40.19457" lon="-1.83969">
        <ele>1290.8</ele>
        <time>2021-10-09 17:57:41</time>
      </trkpt>
      <trkpt lat="40.19454" lon="-1.83969">
        <ele>1291</ele>
        <time>2021-10-09 17:57:42</time>
      </trkpt>
      <trkpt lat="40.19452" lon="-1.83968">
        <ele>1291</ele>
        <time>2021-10-09 17:57:43</time>
      </trkpt>
      <trkpt lat="40.19449" lon="-1.83968">
        <ele>1291.4</ele>
        <time>2021-10-09 17:57:44</time>
      </trkpt>
      <trkpt lat="40.19446" lon="-1.83968">
        <ele>1291.4</ele>
        <time>2021-10-09 17:57:45</time>
      </trkpt>
      <trkpt lat="40.19443" lon="-1.83968">
        <ele>1291.8</ele>
        <time>2021-10-09 17:57:46</time>
      </trkpt>
      <trkpt lat="40.1944" lon="-1.83968">
        <ele>1291.8</ele>
        <time>2021-10-09 17:57:47</time>
      </trkpt>
      <trkpt lat="40.19433" lon="-1.83967">
        <ele>1291.8</ele>
        <time>2021-10-09 17:57:48</time>
      </trkpt>
      <trkpt lat="40.1943" lon="-1.83967">
        <ele>1292</ele>
        <time>2021-10-09 17:57:49</time>
      </trkpt>
      <trkpt lat="40.19427" lon="-1.83967">
        <ele>1292</ele>
        <time>2021-10-09 17:57:50</time>
      </trkpt>
      <trkpt lat="40.19424" lon="-1.83967">
        <ele>1292.2</ele>
        <time>2021-10-09 17:57:51</time>
      </trkpt>
      <trkpt lat="40.19421" lon="-1.83967">
        <ele>1292.2</ele>
        <time>2021-10-09 17:57:52</time>
      </trkpt>
      <trkpt lat="40.19418" lon="-1.83967">
        <ele>1292.4</ele>
        <time>2021-10-09 17:57:53</time>
      </trkpt>
      <trkpt lat="40.19415" lon="-1.83966">
        <ele>1292.4</ele>
        <time>2021-10-09 17:57:54</time>
      </trkpt>
      <trkpt lat="40.19411" lon="-1.83966">
        <ele>1292.8</ele>
        <time>2021-10-09 17:57:55</time>
      </trkpt>
      <trkpt lat="40.19408" lon="-1.83966">
        <ele>1292.8</ele>
        <time>2021-10-09 17:57:56</time>
      </trkpt>
      <trkpt lat="40.19405" lon="-1.83966">
        <ele>1293</ele>
        <time>2021-10-09 17:57:57</time>
      </trkpt>
      <trkpt lat="40.19402" lon="-1.83967">
        <ele>1293</ele>
        <time>2021-10-09 17:57:58</time>
      </trkpt>
      <trkpt lat="40.19398" lon="-1.83967">
        <ele>1293</ele>
        <time>2021-10-09 17:57:59</time>
      </trkpt>
      <trkpt lat="40.19395" lon="-1.83967">
        <ele>1293.2</ele>
        <time>2021-10-09 17:58:00</time>
      </trkpt>
      <trkpt lat="40.19392" lon="-1.83967">
        <ele>1293.2</ele>
        <time>2021-10-09 17:58:01</time>
      </trkpt>
      <trkpt lat="40.19389" lon="-1.83967">
        <ele>1293.2</ele>
        <time>2021-10-09 17:58:02</time>
      </trkpt>
      <trkpt lat="40.19385" lon="-1.83967">
        <ele>1293.4</ele>
        <time>2021-10-09 17:58:03</time>
      </trkpt>
      <trkpt lat="40.19381" lon="-1.83967">
        <ele>1293.4</ele>
        <time>2021-10-09 17:58:04</time>
      </trkpt>
      <trkpt lat="40.19378" lon="-1.83967">
        <ele>1293.4</ele>
        <time>2021-10-09 17:58:05</time>
      </trkpt>
      <trkpt lat="40.19374" lon="-1.83967">
        <ele>1293.4</ele>
        <time>2021-10-09 17:58:06</time>
      </trkpt>
      <trkpt lat="40.19371" lon="-1.83966">
        <ele>1293.4</ele>
        <time>2021-10-09 17:58:07</time>
      </trkpt>
      <trkpt lat="40.19367" lon="-1.83965">
        <ele>1293.4</ele>
        <time>2021-10-09 17:58:08</time>
      </trkpt>
      <trkpt lat="40.19363" lon="-1.83964">
        <ele>1293.4</ele>
        <time>2021-10-09 17:58:09</time>
      </trkpt>
      <trkpt lat="40.19359" lon="-1.83963">
        <ele>1293.4</ele>
        <time>2021-10-09 17:58:10</time>
      </trkpt>
      <trkpt lat="40.19356" lon="-1.83962">
        <ele>1293.6</ele>
        <time>2021-10-09 17:58:11</time>
      </trkpt>
      <trkpt lat="40.19353" lon="-1.83961">
        <ele>1293.6</ele>
        <time>2021-10-09 17:58:12</time>
      </trkpt>
      <trkpt lat="40.19349" lon="-1.8396">
        <ele>1293.6</ele>
        <time>2021-10-09 17:58:13</time>
      </trkpt>
      <trkpt lat="40.19346" lon="-1.83958">
        <ele>1293.6</ele>
        <time>2021-10-09 17:58:14</time>
      </trkpt>
      <trkpt lat="40.19342" lon="-1.83957">
        <ele>1293.6</ele>
        <time>2021-10-09 17:58:15</time>
      </trkpt>
      <trkpt lat="40.19339" lon="-1.83955">
        <ele>1293.6</ele>
        <time>2021-10-09 17:58:16</time>
      </trkpt>
      <trkpt lat="40.19335" lon="-1.83954">
        <ele>1293.6</ele>
        <time>2021-10-09 17:58:17</time>
      </trkpt>
      <trkpt lat="40.19332" lon="-1.83952">
        <ele>1293.6</ele>
        <time>2021-10-09 17:58:18</time>
      </trkpt>
      <trkpt lat="40.19328" lon="-1.8395">
        <ele>1293.6</ele>
        <time>2021-10-09 17:58:19</time>
      </trkpt>
      <trkpt lat="40.19325" lon="-1.83948">
        <ele>1293.6</ele>
        <time>2021-10-09 17:58:20</time>
      </trkpt>
      <trkpt lat="40.19322" lon="-1.83946">
        <ele>1293.6</ele>
        <time>2021-10-09 17:58:21</time>
      </trkpt>
      <trkpt lat="40.19318" lon="-1.83945">
        <ele>1293.6</ele>
        <time>2021-10-09 17:58:22</time>
      </trkpt>
      <trkpt lat="40.19315" lon="-1.83943">
        <ele>1294</ele>
        <time>2021-10-09 17:58:23</time>
      </trkpt>
      <trkpt lat="40.19312" lon="-1.83941">
        <ele>1294</ele>
        <time>2021-10-09 17:58:24</time>
      </trkpt>
      <trkpt lat="40.19309" lon="-1.8394">
        <ele>1294.2</ele>
        <time>2021-10-09 17:58:25</time>
      </trkpt>
      <trkpt lat="40.19306" lon="-1.83938">
        <ele>1294.2</ele>
        <time>2021-10-09 17:58:26</time>
      </trkpt>
      <trkpt lat="40.19303" lon="-1.83937">
        <ele>1294.2</ele>
        <time>2021-10-09 17:58:27</time>
      </trkpt>
      <trkpt lat="40.19301" lon="-1.83935">
        <ele>1294.6</ele>
        <time>2021-10-09 17:58:28</time>
      </trkpt>
      <trkpt lat="40.19298" lon="-1.83934">
        <ele>1294.6</ele>
        <time>2021-10-09 17:58:29</time>
      </trkpt>
      <trkpt lat="40.19296" lon="-1.83932">
        <ele>1294.8</ele>
        <time>2021-10-09 17:58:30</time>
      </trkpt>
      <trkpt lat="40.19293" lon="-1.8393">
        <ele>1295</ele>
        <time>2021-10-09 17:58:31</time>
      </trkpt>
      <trkpt lat="40.19291" lon="-1.83928">
        <ele>1295</ele>
        <time>2021-10-09 17:58:32</time>
      </trkpt>
      <trkpt lat="40.19289" lon="-1.83926">
        <ele>1295.4</ele>
        <time>2021-10-09 17:58:33</time>
      </trkpt>
      <trkpt lat="40.19286" lon="-1.83924">
        <ele>1295.4</ele>
        <time>2021-10-09 17:58:34</time>
      </trkpt>
      <trkpt lat="40.19284" lon="-1.83922">
        <ele>1295.8</ele>
        <time>2021-10-09 17:58:35</time>
      </trkpt>
      <trkpt lat="40.19281" lon="-1.8392">
        <ele>1295.8</ele>
        <time>2021-10-09 17:58:36</time>
      </trkpt>
      <trkpt lat="40.19279" lon="-1.83918">
        <ele>1296</ele>
        <time>2021-10-09 17:58:37</time>
      </trkpt>
      <trkpt lat="40.19277" lon="-1.83916">
        <ele>1296</ele>
        <time>2021-10-09 17:58:38</time>
      </trkpt>
      <trkpt lat="40.19275" lon="-1.83915">
        <ele>1296.4</ele>
        <time>2021-10-09 17:58:39</time>
      </trkpt>
      <trkpt lat="40.19273" lon="-1.83913">
        <ele>1296.4</ele>
        <time>2021-10-09 17:58:40</time>
      </trkpt>
      <trkpt lat="40.19271" lon="-1.83911">
        <ele>1296.6</ele>
        <time>2021-10-09 17:58:41</time>
      </trkpt>
      <trkpt lat="40.1927" lon="-1.83908">
        <ele>1296.6</ele>
        <time>2021-10-09 17:58:42</time>
      </trkpt>
      <trkpt lat="40.19268" lon="-1.83906">
        <ele>1297</ele>
        <time>2021-10-09 17:58:43</time>
      </trkpt>
      <trkpt lat="40.19266" lon="-1.83903">
        <ele>1297</ele>
        <time>2021-10-09 17:58:44</time>
      </trkpt>
      <trkpt lat="40.19264" lon="-1.83901">
        <ele>1297.2</ele>
        <time>2021-10-09 17:58:45</time>
      </trkpt>
      <trkpt lat="40.19262" lon="-1.83898">
        <ele>1297.2</ele>
        <time>2021-10-09 17:58:46</time>
      </trkpt>
      <trkpt lat="40.1926" lon="-1.83895">
        <ele>1297.2</ele>
        <time>2021-10-09 17:58:47</time>
      </trkpt>
      <trkpt lat="40.19258" lon="-1.83892">
        <ele>1297.4</ele>
        <time>2021-10-09 17:58:48</time>
      </trkpt>
      <trkpt lat="40.19257" lon="-1.83889">
        <ele>1297.4</ele>
        <time>2021-10-09 17:58:49</time>
      </trkpt>
      <trkpt lat="40.19255" lon="-1.83886">
        <ele>1297.6</ele>
        <time>2021-10-09 17:58:50</time>
      </trkpt>
      <trkpt lat="40.19255" lon="-1.83886">
        <ele>1297.6</ele>
        <time>2021-10-09 17:58:51</time>
      </trkpt>
      <trkpt lat="40.19253" lon="-1.83884">
        <ele>1298</ele>
        <time>2021-10-09 17:58:52</time>
      </trkpt>
      <trkpt lat="40.1925" lon="-1.83881">
        <ele>1298</ele>
        <time>2021-10-09 17:58:53</time>
      </trkpt>
      <trkpt lat="40.19248" lon="-1.83877">
        <ele>1298</ele>
        <time>2021-10-09 17:58:54</time>
      </trkpt>
      <trkpt lat="40.19246" lon="-1.83875">
        <ele>1298</ele>
        <time>2021-10-09 17:58:55</time>
      </trkpt>
      <trkpt lat="40.19244" lon="-1.83872">
        <ele>1298</ele>
        <time>2021-10-09 17:58:56</time>
      </trkpt>
      <trkpt lat="40.19242" lon="-1.83869">
        <ele>1298</ele>
        <time>2021-10-09 17:58:57</time>
      </trkpt>
      <trkpt lat="40.1924" lon="-1.83866">
        <ele>1298.2</ele>
        <time>2021-10-09 17:58:58</time>
      </trkpt>
      <trkpt lat="40.19238" lon="-1.83862">
        <ele>1298.2</ele>
        <time>2021-10-09 17:58:59</time>
      </trkpt>
      <trkpt lat="40.19236" lon="-1.83859">
        <ele>1298.2</ele>
        <time>2021-10-09 17:59:00</time>
      </trkpt>
      <trkpt lat="40.19234" lon="-1.83856">
        <ele>1298.2</ele>
        <time>2021-10-09 17:59:01</time>
      </trkpt>
      <trkpt lat="40.19232" lon="-1.83852">
        <ele>1298.2</ele>
        <time>2021-10-09 17:59:02</time>
      </trkpt>
      <trkpt lat="40.1923" lon="-1.83849">
        <ele>1298.2</ele>
        <time>2021-10-09 17:59:03</time>
      </trkpt>
      <trkpt lat="40.19228" lon="-1.83846">
        <ele>1298.2</ele>
        <time>2021-10-09 17:59:04</time>
      </trkpt>
      <trkpt lat="40.19226" lon="-1.83842">
        <ele>1298.2</ele>
        <time>2021-10-09 17:59:05</time>
      </trkpt>
      <trkpt lat="40.19224" lon="-1.83838">
        <ele>1298.2</ele>
        <time>2021-10-09 17:59:06</time>
      </trkpt>
      <trkpt lat="40.19221" lon="-1.83834">
        <ele>1298.2</ele>
        <time>2021-10-09 17:59:07</time>
      </trkpt>
      <trkpt lat="40.19219" lon="-1.8383">
        <ele>1298.2</ele>
        <time>2021-10-09 17:59:08</time>
      </trkpt>
      <trkpt lat="40.19216" lon="-1.83826">
        <ele>1298.2</ele>
        <time>2021-10-09 17:59:09</time>
      </trkpt>
      <trkpt lat="40.19214" lon="-1.83822">
        <ele>1298.2</ele>
        <time>2021-10-09 17:59:10</time>
      </trkpt>
      <trkpt lat="40.19212" lon="-1.83818">
        <ele>1298.2</ele>
        <time>2021-10-09 17:59:11</time>
      </trkpt>
      <trkpt lat="40.19211" lon="-1.83814">
        <ele>1298.4</ele>
        <time>2021-10-09 17:59:12</time>
      </trkpt>
      <trkpt lat="40.19209" lon="-1.83811">
        <ele>1298.4</ele>
        <time>2021-10-09 17:59:13</time>
      </trkpt>
      <trkpt lat="40.19206" lon="-1.83808">
        <ele>1298.6</ele>
        <time>2021-10-09 17:59:14</time>
      </trkpt>
      <trkpt lat="40.19204" lon="-1.83805">
        <ele>1298.6</ele>
        <time>2021-10-09 17:59:15</time>
      </trkpt>
      <trkpt lat="40.19202" lon="-1.83802">
        <ele>1299</ele>
        <time>2021-10-09 17:59:16</time>
      </trkpt>
      <trkpt lat="40.192" lon="-1.83799">
        <ele>1299.2</ele>
        <time>2021-10-09 17:59:17</time>
      </trkpt>
      <trkpt lat="40.19197" lon="-1.83796">
        <ele>1299.2</ele>
        <time>2021-10-09 17:59:18</time>
      </trkpt>
      <trkpt lat="40.19195" lon="-1.83794">
        <ele>1299.6</ele>
        <time>2021-10-09 17:59:19</time>
      </trkpt>
      <trkpt lat="40.19191" lon="-1.83792">
        <ele>1299.6</ele>
        <time>2021-10-09 17:59:20</time>
      </trkpt>
      <trkpt lat="40.19188" lon="-1.8379">
        <ele>1300</ele>
        <time>2021-10-09 17:59:21</time>
      </trkpt>
      <trkpt lat="40.19185" lon="-1.83788">
        <ele>1300.2</ele>
        <time>2021-10-09 17:59:22</time>
      </trkpt>
      <trkpt lat="40.19182" lon="-1.83786">
        <ele>1300.6</ele>
        <time>2021-10-09 17:59:23</time>
      </trkpt>
      <trkpt lat="40.19179" lon="-1.83784">
        <ele>1300.8</ele>
        <time>2021-10-09 17:59:24</time>
      </trkpt>
      <trkpt lat="40.19176" lon="-1.83782">
        <ele>1300.8</ele>
        <time>2021-10-09 17:59:25</time>
      </trkpt>
      <trkpt lat="40.19173" lon="-1.8378">
        <ele>1301</ele>
        <time>2021-10-09 17:59:26</time>
      </trkpt>
      <trkpt lat="40.1917" lon="-1.83778">
        <ele>1301</ele>
        <time>2021-10-09 17:59:27</time>
      </trkpt>
      <trkpt lat="40.19166" lon="-1.83776">
        <ele>1301.4</ele>
        <time>2021-10-09 17:59:28</time>
      </trkpt>
      <trkpt lat="40.19162" lon="-1.83774">
        <ele>1301.4</ele>
        <time>2021-10-09 17:59:29</time>
      </trkpt>
      <trkpt lat="40.19158" lon="-1.83771">
        <ele>1301.4</ele>
        <time>2021-10-09 17:59:30</time>
      </trkpt>
      <trkpt lat="40.19154" lon="-1.83769">
        <ele>1301.6</ele>
        <time>2021-10-09 17:59:31</time>
      </trkpt>
      <trkpt lat="40.1915" lon="-1.83767">
        <ele>1301.6</ele>
        <time>2021-10-09 17:59:32</time>
      </trkpt>
      <trkpt lat="40.19146" lon="-1.83765">
        <ele>1302</ele>
        <time>2021-10-09 17:59:33</time>
      </trkpt>
      <trkpt lat="40.19141" lon="-1.83763">
        <ele>1302</ele>
        <time>2021-10-09 17:59:34</time>
      </trkpt>
      <trkpt lat="40.19137" lon="-1.8376">
        <ele>1302.2</ele>
        <time>2021-10-09 17:59:35</time>
      </trkpt>
      <trkpt lat="40.19133" lon="-1.83757">
        <ele>1302.2</ele>
        <time>2021-10-09 17:59:36</time>
      </trkpt>
      <trkpt lat="40.19129" lon="-1.83754">
        <ele>1302.2</ele>
        <time>2021-10-09 17:59:37</time>
      </trkpt>
      <trkpt lat="40.19125" lon="-1.83753">
        <ele>1302.6</ele>
        <time>2021-10-09 17:59:38</time>
      </trkpt>
      <trkpt lat="40.19121" lon="-1.83751">
        <ele>1302.6</ele>
        <time>2021-10-09 17:59:39</time>
      </trkpt>
      <trkpt lat="40.19117" lon="-1.83749">
        <ele>1302.8</ele>
        <time>2021-10-09 17:59:40</time>
      </trkpt>
      <trkpt lat="40.19113" lon="-1.83748">
        <ele>1302.8</ele>
        <time>2021-10-09 17:59:41</time>
      </trkpt>
      <trkpt lat="40.19109" lon="-1.83747">
        <ele>1303</ele>
        <time>2021-10-09 17:59:42</time>
      </trkpt>
      <trkpt lat="40.19105" lon="-1.83746">
        <ele>1303</ele>
        <time>2021-10-09 17:59:43</time>
      </trkpt>
      <trkpt lat="40.191" lon="-1.83744">
        <ele>1303.2</ele>
        <time>2021-10-09 17:59:44</time>
      </trkpt>
      <trkpt lat="40.19096" lon="-1.83742">
        <ele>1303.2</ele>
        <time>2021-10-09 17:59:45</time>
      </trkpt>
      <trkpt lat="40.19091" lon="-1.83741">
        <ele>1303.6</ele>
        <time>2021-10-09 17:59:46</time>
      </trkpt>
      <trkpt lat="40.19087" lon="-1.8374">
        <ele>1303.6</ele>
        <time>2021-10-09 17:59:47</time>
      </trkpt>
      <trkpt lat="40.19082" lon="-1.83739">
        <ele>1303.6</ele>
        <time>2021-10-09 17:59:48</time>
      </trkpt>
      <trkpt lat="40.19077" lon="-1.83739">
        <ele>1303.8</ele>
        <time>2021-10-09 17:59:49</time>
      </trkpt>
      <trkpt lat="40.19072" lon="-1.83738">
        <ele>1303.8</ele>
        <time>2021-10-09 17:59:50</time>
      </trkpt>
      <trkpt lat="40.19067" lon="-1.83735">
        <ele>1303.8</ele>
        <time>2021-10-09 17:59:51</time>
      </trkpt>
      <trkpt lat="40.19062" lon="-1.83734">
        <ele>1303.8</ele>
        <time>2021-10-09 17:59:52</time>
      </trkpt>
      <trkpt lat="40.19056" lon="-1.83732">
        <ele>1304.2</ele>
        <time>2021-10-09 17:59:53</time>
      </trkpt>
      <trkpt lat="40.19051" lon="-1.83729">
        <ele>1304.2</ele>
        <time>2021-10-09 17:59:54</time>
      </trkpt>
      <trkpt lat="40.19046" lon="-1.83726">
        <ele>1304.2</ele>
        <time>2021-10-09 17:59:55</time>
      </trkpt>
      <trkpt lat="40.19041" lon="-1.83723">
        <ele>1304.2</ele>
        <time>2021-10-09 17:59:56</time>
      </trkpt>
      <trkpt lat="40.19036" lon="-1.83719">
        <ele>1304.2</ele>
        <time>2021-10-09 17:59:57</time>
      </trkpt>
      <trkpt lat="40.1903" lon="-1.83716">
        <ele>1304.2</ele>
        <time>2021-10-09 17:59:58</time>
      </trkpt>
      <trkpt lat="40.19024" lon="-1.83712">
        <ele>1304.2</ele>
        <time>2021-10-09 17:59:59</time>
      </trkpt>
      <trkpt lat="40.19019" lon="-1.83708">
        <ele>1304.2</ele>
        <time>2021-10-09 18:00:00</time>
      </trkpt>
      <trkpt lat="40.19013" lon="-1.83704">
        <ele>1304.2</ele>
        <time>2021-10-09 18:00:01</time>
      </trkpt>
      <trkpt lat="40.19006" lon="-1.83701">
        <ele>1304.2</ele>
        <time>2021-10-09 18:00:02</time>
      </trkpt>
      <trkpt lat="40.19001" lon="-1.83697">
        <ele>1304.2</ele>
        <time>2021-10-09 18:00:03</time>
      </trkpt>
      <trkpt lat="40.18995" lon="-1.83693">
        <ele>1304.2</ele>
        <time>2021-10-09 18:00:04</time>
      </trkpt>
      <trkpt lat="40.18988" lon="-1.83689">
        <ele>1304.2</ele>
        <time>2021-10-09 18:00:05</time>
      </trkpt>
      <trkpt lat="40.18982" lon="-1.83684">
        <ele>1304.2</ele>
        <time>2021-10-09 18:00:06</time>
      </trkpt>
      <trkpt lat="40.18976" lon="-1.83679">
        <ele>1303.8</ele>
        <time>2021-10-09 18:00:07</time>
      </trkpt>
      <trkpt lat="40.18969" lon="-1.83674">
        <ele>1303.8</ele>
        <time>2021-10-09 18:00:08</time>
      </trkpt>
      <trkpt lat="40.18962" lon="-1.8367">
        <ele>1303.6</ele>
        <time>2021-10-09 18:00:09</time>
      </trkpt>
      <trkpt lat="40.18954" lon="-1.83665">
        <ele>1303.6</ele>
        <time>2021-10-09 18:00:10</time>
      </trkpt>
      <trkpt lat="40.18946" lon="-1.83661">
        <ele>1303.4</ele>
        <time>2021-10-09 18:00:11</time>
      </trkpt>
      <trkpt lat="40.18939" lon="-1.83656">
        <ele>1303.4</ele>
        <time>2021-10-09 18:00:12</time>
      </trkpt>
      <trkpt lat="40.18931" lon="-1.83654">
        <ele>1303.4</ele>
        <time>2021-10-09 18:00:13</time>
      </trkpt>
      <trkpt lat="40.18923" lon="-1.83653">
        <ele>1303</ele>
        <time>2021-10-09 18:00:14</time>
      </trkpt>
      <trkpt lat="40.18915" lon="-1.83652">
        <ele>1303</ele>
        <time>2021-10-09 18:00:15</time>
      </trkpt>
      <trkpt lat="40.18907" lon="-1.83653">
        <ele>1303</ele>
        <time>2021-10-09 18:00:16</time>
      </trkpt>
      <trkpt lat="40.189" lon="-1.83653">
        <ele>1303</ele>
        <time>2021-10-09 18:00:17</time>
      </trkpt>
      <trkpt lat="40.18893" lon="-1.83653">
        <ele>1303</ele>
        <time>2021-10-09 18:00:18</time>
      </trkpt>
      <trkpt lat="40.18885" lon="-1.83654">
        <ele>1303</ele>
        <time>2021-10-09 18:00:19</time>
      </trkpt>
      <trkpt lat="40.18878" lon="-1.83654">
        <ele>1303</ele>
        <time>2021-10-09 18:00:20</time>
      </trkpt>
      <trkpt lat="40.1887" lon="-1.83655">
        <ele>1303</ele>
        <time>2021-10-09 18:00:21</time>
      </trkpt>
      <trkpt lat="40.18863" lon="-1.83654">
        <ele>1303</ele>
        <time>2021-10-09 18:00:22</time>
      </trkpt>
      <trkpt lat="40.18856" lon="-1.83654">
        <ele>1303.4</ele>
        <time>2021-10-09 18:00:23</time>
      </trkpt>
      <trkpt lat="40.18849" lon="-1.83652">
        <ele>1303.4</ele>
        <time>2021-10-09 18:00:24</time>
      </trkpt>
      <trkpt lat="40.18843" lon="-1.83649">
        <ele>1303.8</ele>
        <time>2021-10-09 18:00:25</time>
      </trkpt>
      <trkpt lat="40.18837" lon="-1.83644">
        <ele>1303.8</ele>
        <time>2021-10-09 18:00:26</time>
      </trkpt>
      <trkpt lat="40.18831" lon="-1.83638">
        <ele>1304</ele>
        <time>2021-10-09 18:00:27</time>
      </trkpt>
      <trkpt lat="40.18827" lon="-1.83632">
        <ele>1304</ele>
        <time>2021-10-09 18:00:28</time>
      </trkpt>
      <trkpt lat="40.18824" lon="-1.83625">
        <ele>1304.4</ele>
        <time>2021-10-09 18:00:29</time>
      </trkpt>
      <trkpt lat="40.1882" lon="-1.83618">
        <ele>1304.6</ele>
        <time>2021-10-09 18:00:30</time>
      </trkpt>
      <trkpt lat="40.18817" lon="-1.83612">
        <ele>1304.6</ele>
        <time>2021-10-09 18:00:31</time>
      </trkpt>
      <trkpt lat="40.18816" lon="-1.83605">
        <ele>1305</ele>
        <time>2021-10-09 18:00:32</time>
      </trkpt>
      <trkpt lat="40.18814" lon="-1.83599">
        <ele>1305</ele>
        <time>2021-10-09 18:00:33</time>
      </trkpt>
      <trkpt lat="40.18812" lon="-1.83593">
        <ele>1305.6</ele>
        <time>2021-10-09 18:00:34</time>
      </trkpt>
      <trkpt lat="40.1881" lon="-1.83587">
        <ele>1305.6</ele>
        <time>2021-10-09 18:00:35</time>
      </trkpt>
      <trkpt lat="40.18808" lon="-1.83581">
        <ele>1306</ele>
        <time>2021-10-09 18:00:36</time>
      </trkpt>
      <trkpt lat="40.18807" lon="-1.83576">
        <ele>1306.2</ele>
        <time>2021-10-09 18:00:37</time>
      </trkpt>
      <trkpt lat="40.18806" lon="-1.83571">
        <ele>1306.2</ele>
        <time>2021-10-09 18:00:38</time>
      </trkpt>
      <trkpt lat="40.18804" lon="-1.83566">
        <ele>1306.6</ele>
        <time>2021-10-09 18:00:39</time>
      </trkpt>
      <trkpt lat="40.18802" lon="-1.83561">
        <ele>1306.6</ele>
        <time>2021-10-09 18:00:40</time>
      </trkpt>
      <trkpt lat="40.18801" lon="-1.83556">
        <ele>1306.8</ele>
        <time>2021-10-09 18:00:41</time>
      </trkpt>
      <trkpt lat="40.18801" lon="-1.83551">
        <ele>1307</ele>
        <time>2021-10-09 18:00:42</time>
      </trkpt>
      <trkpt lat="40.188" lon="-1.83547">
        <ele>1307</ele>
        <time>2021-10-09 18:00:43</time>
      </trkpt>
      <trkpt lat="40.18798" lon="-1.83543">
        <ele>1307.4</ele>
        <time>2021-10-09 18:00:44</time>
      </trkpt>
      <trkpt lat="40.18797" lon="-1.83538">
        <ele>1307.4</ele>
        <time>2021-10-09 18:00:45</time>
      </trkpt>
      <trkpt lat="40.18796" lon="-1.83534">
        <ele>1307.8</ele>
        <time>2021-10-09 18:00:46</time>
      </trkpt>
      <trkpt lat="40.18795" lon="-1.8353">
        <ele>1308</ele>
        <time>2021-10-09 18:00:47</time>
      </trkpt>
      <trkpt lat="40.18794" lon="-1.83527">
        <ele>1308</ele>
        <time>2021-10-09 18:00:48</time>
      </trkpt>
      <trkpt lat="40.18793" lon="-1.83524">
        <ele>1308.4</ele>
        <time>2021-10-09 18:00:49</time>
      </trkpt>
      <trkpt lat="40.18791" lon="-1.8352">
        <ele>1308.6</ele>
        <time>2021-10-09 18:00:50</time>
      </trkpt>
      <trkpt lat="40.1879" lon="-1.83517">
        <ele>1309</ele>
        <time>2021-10-09 18:00:51</time>
      </trkpt>
      <trkpt lat="40.18789" lon="-1.83514">
        <ele>1309.2</ele>
        <time>2021-10-09 18:00:52</time>
      </trkpt>
      <trkpt lat="40.18788" lon="-1.83511">
        <ele>1309.6</ele>
        <time>2021-10-09 18:00:53</time>
      </trkpt>
      <trkpt lat="40.18788" lon="-1.83508">
        <ele>1309.8</ele>
        <time>2021-10-09 18:00:54</time>
      </trkpt>
      <trkpt lat="40.18787" lon="-1.83504">
        <ele>1310</ele>
        <time>2021-10-09 18:00:55</time>
      </trkpt>
      <trkpt lat="40.18786" lon="-1.83501">
        <ele>1310.4</ele>
        <time>2021-10-09 18:00:56</time>
      </trkpt>
      <trkpt lat="40.18786" lon="-1.83498">
        <ele>1310.6</ele>
        <time>2021-10-09 18:00:57</time>
      </trkpt>
      <trkpt lat="40.18785" lon="-1.83495">
        <ele>1310.8</ele>
        <time>2021-10-09 18:00:58</time>
      </trkpt>
      <trkpt lat="40.18784" lon="-1.83491">
        <ele>1311</ele>
        <time>2021-10-09 18:00:59</time>
      </trkpt>
      <trkpt lat="40.18783" lon="-1.83488">
        <ele>1311.4</ele>
        <time>2021-10-09 18:01:00</time>
      </trkpt>
      <trkpt lat="40.18782" lon="-1.83485">
        <ele>1311.6</ele>
        <time>2021-10-09 18:01:01</time>
      </trkpt>
      <trkpt lat="40.18781" lon="-1.83482">
        <ele>1311.8</ele>
        <time>2021-10-09 18:01:02</time>
      </trkpt>
      <trkpt lat="40.1878" lon="-1.83478">
        <ele>1312</ele>
        <time>2021-10-09 18:01:03</time>
      </trkpt>
      <trkpt lat="40.18779" lon="-1.83475">
        <ele>1312.2</ele>
        <time>2021-10-09 18:01:04</time>
      </trkpt>
      <trkpt lat="40.18778" lon="-1.83472">
        <ele>1312.4</ele>
        <time>2021-10-09 18:01:05</time>
      </trkpt>
      <trkpt lat="40.18777" lon="-1.83469">
        <ele>1312.4</ele>
        <time>2021-10-09 18:01:06</time>
      </trkpt>
      <trkpt lat="40.18776" lon="-1.83466">
        <ele>1312.8</ele>
        <time>2021-10-09 18:01:07</time>
      </trkpt>
      <trkpt lat="40.18775" lon="-1.83462">
        <ele>1312.8</ele>
        <time>2021-10-09 18:01:08</time>
      </trkpt>
      <trkpt lat="40.18774" lon="-1.83459">
        <ele>1313.2</ele>
        <time>2021-10-09 18:01:09</time>
      </trkpt>
      <trkpt lat="40.18773" lon="-1.83457">
        <ele>1313.6</ele>
        <time>2021-10-09 18:01:10</time>
      </trkpt>
      <trkpt lat="40.18772" lon="-1.83454">
        <ele>1313.8</ele>
        <time>2021-10-09 18:01:11</time>
      </trkpt>
      <trkpt lat="40.18771" lon="-1.8345">
        <ele>1314</ele>
        <time>2021-10-09 18:01:12</time>
      </trkpt>
      <trkpt lat="40.1877" lon="-1.83447">
        <ele>1314.2</ele>
        <time>2021-10-09 18:01:13</time>
      </trkpt>
      <trkpt lat="40.18768" lon="-1.83444">
        <ele>1314.2</ele>
        <time>2021-10-09 18:01:14</time>
      </trkpt>
      <trkpt lat="40.18767" lon="-1.83441">
        <ele>1314.6</ele>
        <time>2021-10-09 18:01:15</time>
      </trkpt>
      <trkpt lat="40.18766" lon="-1.83438">
        <ele>1314.8</ele>
        <time>2021-10-09 18:01:16</time>
      </trkpt>
      <trkpt lat="40.18765" lon="-1.83435">
        <ele>1314.8</ele>
        <time>2021-10-09 18:01:17</time>
      </trkpt>
      <trkpt lat="40.18764" lon="-1.83432">
        <ele>1315.4</ele>
        <time>2021-10-09 18:01:18</time>
      </trkpt>
      <trkpt lat="40.18763" lon="-1.83429">
        <ele>1315.6</ele>
        <time>2021-10-09 18:01:19</time>
      </trkpt>
      <trkpt lat="40.18763" lon="-1.83425">
        <ele>1315.6</ele>
        <time>2021-10-09 18:01:20</time>
      </trkpt>
      <trkpt lat="40.18762" lon="-1.83422">
        <ele>1316</ele>
        <time>2021-10-09 18:01:21</time>
      </trkpt>
      <trkpt lat="40.18761" lon="-1.83419">
        <ele>1316.2</ele>
        <time>2021-10-09 18:01:22</time>
      </trkpt>
      <trkpt lat="40.1876" lon="-1.83415">
        <ele>1316.2</ele>
        <time>2021-10-09 18:01:23</time>
      </trkpt>
      <trkpt lat="40.18759" lon="-1.83412">
        <ele>1316.6</ele>
        <time>2021-10-09 18:01:24</time>
      </trkpt>
      <trkpt lat="40.18758" lon="-1.83408">
        <ele>1316.6</ele>
        <time>2021-10-09 18:01:25</time>
      </trkpt>
      <trkpt lat="40.18757" lon="-1.83405">
        <ele>1317</ele>
        <time>2021-10-09 18:01:26</time>
      </trkpt>
      <trkpt lat="40.18756" lon="-1.83402">
        <ele>1317.2</ele>
        <time>2021-10-09 18:01:27</time>
      </trkpt>
      <trkpt lat="40.18755" lon="-1.83399">
        <ele>1317.2</ele>
        <time>2021-10-09 18:01:28</time>
      </trkpt>
      <trkpt lat="40.18754" lon="-1.83396">
        <ele>1317.4</ele>
        <time>2021-10-09 18:01:29</time>
      </trkpt>
      <trkpt lat="40.18753" lon="-1.83392">
        <ele>1317.4</ele>
        <time>2021-10-09 18:01:30</time>
      </trkpt>
      <trkpt lat="40.18752" lon="-1.83389">
        <ele>1317.8</ele>
        <time>2021-10-09 18:01:31</time>
      </trkpt>
      <trkpt lat="40.1875" lon="-1.83385">
        <ele>1317.8</ele>
        <time>2021-10-09 18:01:32</time>
      </trkpt>
      <trkpt lat="40.18749" lon="-1.83381">
        <ele>1318</ele>
        <time>2021-10-09 18:01:33</time>
      </trkpt>
      <trkpt lat="40.18748" lon="-1.83378">
        <ele>1318</ele>
        <time>2021-10-09 18:01:34</time>
      </trkpt>
      <trkpt lat="40.18747" lon="-1.83374">
        <ele>1318.4</ele>
        <time>2021-10-09 18:01:35</time>
      </trkpt>
      <trkpt lat="40.18746" lon="-1.83371">
        <ele>1318.6</ele>
        <time>2021-10-09 18:01:36</time>
      </trkpt>
      <trkpt lat="40.18744" lon="-1.83368">
        <ele>1318.8</ele>
        <time>2021-10-09 18:01:37</time>
      </trkpt>
      <trkpt lat="40.18743" lon="-1.83364">
        <ele>1318.8</ele>
        <time>2021-10-09 18:01:38</time>
      </trkpt>
      <trkpt lat="40.18742" lon="-1.8336">
        <ele>1319.2</ele>
        <time>2021-10-09 18:01:39</time>
      </trkpt>
      <trkpt lat="40.18741" lon="-1.83357">
        <ele>1319.2</ele>
        <time>2021-10-09 18:01:40</time>
      </trkpt>
      <trkpt lat="40.1874" lon="-1.83353">
        <ele>1319.6</ele>
        <time>2021-10-09 18:01:41</time>
      </trkpt>
      <trkpt lat="40.18739" lon="-1.8335">
        <ele>1319.8</ele>
        <time>2021-10-09 18:01:42</time>
      </trkpt>
      <trkpt lat="40.18738" lon="-1.83347">
        <ele>1320</ele>
        <time>2021-10-09 18:01:43</time>
      </trkpt>
      <trkpt lat="40.18737" lon="-1.83343">
        <ele>1320.2</ele>
        <time>2021-10-09 18:01:44</time>
      </trkpt>
      <trkpt lat="40.18735" lon="-1.8334">
        <ele>1320.2</ele>
        <time>2021-10-09 18:01:45</time>
      </trkpt>
      <trkpt lat="40.18734" lon="-1.83336">
        <ele>1320.4</ele>
        <time>2021-10-09 18:01:46</time>
      </trkpt>
      <trkpt lat="40.18734" lon="-1.83332">
        <ele>1320.4</ele>
        <time>2021-10-09 18:01:47</time>
      </trkpt>
      <trkpt lat="40.18733" lon="-1.83329">
        <ele>1320.8</ele>
        <time>2021-10-09 18:01:48</time>
      </trkpt>
      <trkpt lat="40.18733" lon="-1.83325">
        <ele>1321</ele>
        <time>2021-10-09 18:01:49</time>
      </trkpt>
      <trkpt lat="40.18733" lon="-1.83322">
        <ele>1321</ele>
        <time>2021-10-09 18:01:50</time>
      </trkpt>
      <trkpt lat="40.18733" lon="-1.83318">
        <ele>1321.4</ele>
        <time>2021-10-09 18:01:51</time>
      </trkpt>
      <trkpt lat="40.18732" lon="-1.83314">
        <ele>1321.6</ele>
        <time>2021-10-09 18:01:52</time>
      </trkpt>
      <trkpt lat="40.18732" lon="-1.83311">
        <ele>1321.6</ele>
        <time>2021-10-09 18:01:53</time>
      </trkpt>
      <trkpt lat="40.18732" lon="-1.83307">
        <ele>1322</ele>
        <time>2021-10-09 18:01:54</time>
      </trkpt>
      <trkpt lat="40.18731" lon="-1.83303">
        <ele>1322</ele>
        <time>2021-10-09 18:01:55</time>
      </trkpt>
      <trkpt lat="40.18731" lon="-1.833">
        <ele>1322.4</ele>
        <time>2021-10-09 18:01:56</time>
      </trkpt>
      <trkpt lat="40.18732" lon="-1.83297">
        <ele>1322.4</ele>
        <time>2021-10-09 18:01:57</time>
      </trkpt>
      <trkpt lat="40.18732" lon="-1.83293">
        <ele>1322.6</ele>
        <time>2021-10-09 18:01:58</time>
      </trkpt>
      <trkpt lat="40.18732" lon="-1.83289">
        <ele>1322.6</ele>
        <time>2021-10-09 18:01:59</time>
      </trkpt>
      <trkpt lat="40.18733" lon="-1.83285">
        <ele>1323</ele>
        <time>2021-10-09 18:02:00</time>
      </trkpt>
      <trkpt lat="40.18733" lon="-1.83281">
        <ele>1323.2</ele>
        <time>2021-10-09 18:02:01</time>
      </trkpt>
      <trkpt lat="40.18734" lon="-1.83278">
        <ele>1323.4</ele>
        <time>2021-10-09 18:02:02</time>
      </trkpt>
      <trkpt lat="40.18734" lon="-1.83275">
        <ele>1323.4</ele>
        <time>2021-10-09 18:02:03</time>
      </trkpt>
      <trkpt lat="40.18735" lon="-1.83271">
        <ele>1323.8</ele>
        <time>2021-10-09 18:02:04</time>
      </trkpt>
      <trkpt lat="40.18735" lon="-1.83267">
        <ele>1324</ele>
        <time>2021-10-09 18:02:05</time>
      </trkpt>
      <trkpt lat="40.18736" lon="-1.83263">
        <ele>1324</ele>
        <time>2021-10-09 18:02:06</time>
      </trkpt>
      <trkpt lat="40.18737" lon="-1.83259">
        <ele>1324.4</ele>
        <time>2021-10-09 18:02:07</time>
      </trkpt>
      <trkpt lat="40.18739" lon="-1.83255">
        <ele>1324.4</ele>
        <time>2021-10-09 18:02:08</time>
      </trkpt>
      <trkpt lat="40.1874" lon="-1.83251">
        <ele>1324.8</ele>
        <time>2021-10-09 18:02:09</time>
      </trkpt>
      <trkpt lat="40.18741" lon="-1.83248">
        <ele>1324.8</ele>
        <time>2021-10-09 18:02:10</time>
      </trkpt>
      <trkpt lat="40.18742" lon="-1.83244">
        <ele>1325</ele>
        <time>2021-10-09 18:02:11</time>
      </trkpt>
      <trkpt lat="40.18743" lon="-1.8324">
        <ele>1325</ele>
        <time>2021-10-09 18:02:12</time>
      </trkpt>
      <trkpt lat="40.18744" lon="-1.83235">
        <ele>1325.4</ele>
        <time>2021-10-09 18:02:13</time>
      </trkpt>
      <trkpt lat="40.18744" lon="-1.83232">
        <ele>1325.6</ele>
        <time>2021-10-09 18:02:14</time>
      </trkpt>
      <trkpt lat="40.18745" lon="-1.83227">
        <ele>1325.6</ele>
        <time>2021-10-09 18:02:15</time>
      </trkpt>
      <trkpt lat="40.18745" lon="-1.83223">
        <ele>1325.8</ele>
        <time>2021-10-09 18:02:16</time>
      </trkpt>
      <trkpt lat="40.18746" lon="-1.83219">
        <ele>1326</ele>
        <time>2021-10-09 18:02:17</time>
      </trkpt>
      <trkpt lat="40.18746" lon="-1.83215">
        <ele>1326.4</ele>
        <time>2021-10-09 18:02:18</time>
      </trkpt>
      <trkpt lat="40.18746" lon="-1.83211">
        <ele>1326.8</ele>
        <time>2021-10-09 18:02:19</time>
      </trkpt>
      <trkpt lat="40.18746" lon="-1.83207">
        <ele>1326.8</ele>
        <time>2021-10-09 18:02:20</time>
      </trkpt>
      <trkpt lat="40.18746" lon="-1.83203">
        <ele>1327.2</ele>
        <time>2021-10-09 18:02:21</time>
      </trkpt>
      <trkpt lat="40.18745" lon="-1.83199">
        <ele>1327.2</ele>
        <time>2021-10-09 18:02:22</time>
      </trkpt>
      <trkpt lat="40.18745" lon="-1.83195">
        <ele>1326.4</ele>
        <time>2021-10-09 18:02:23</time>
      </trkpt>
      <trkpt lat="40.18745" lon="-1.83191">
        <ele>1327</ele>
        <time>2021-10-09 18:02:24</time>
      </trkpt>
      <trkpt lat="40.18746" lon="-1.83187">
        <ele>1327.4</ele>
        <time>2021-10-09 18:02:25</time>
      </trkpt>
      <trkpt lat="40.18746" lon="-1.83184">
        <ele>1328</ele>
        <time>2021-10-09 18:02:26</time>
      </trkpt>
      <trkpt lat="40.18746" lon="-1.8318">
        <ele>1328</ele>
        <time>2021-10-09 18:02:27</time>
      </trkpt>
      <trkpt lat="40.18745" lon="-1.83177">
        <ele>1328.6</ele>
        <time>2021-10-09 18:02:28</time>
      </trkpt>
      <trkpt lat="40.18744" lon="-1.83173">
        <ele>1328.8</ele>
        <time>2021-10-09 18:02:29</time>
      </trkpt>
      <trkpt lat="40.18744" lon="-1.83168">
        <ele>1328.8</ele>
        <time>2021-10-09 18:02:30</time>
      </trkpt>
      <trkpt lat="40.18744" lon="-1.83165">
        <ele>1329.2</ele>
        <time>2021-10-09 18:02:31</time>
      </trkpt>
      <trkpt lat="40.18743" lon="-1.83161">
        <ele>1329.2</ele>
        <time>2021-10-09 18:02:32</time>
      </trkpt>
      <trkpt lat="40.18743" lon="-1.83157">
        <ele>1329.8</ele>
        <time>2021-10-09 18:02:33</time>
      </trkpt>
      <trkpt lat="40.18742" lon="-1.83153">
        <ele>1329.8</ele>
        <time>2021-10-09 18:02:34</time>
      </trkpt>
      <trkpt lat="40.18741" lon="-1.8315">
        <ele>1330.2</ele>
        <time>2021-10-09 18:02:35</time>
      </trkpt>
      <trkpt lat="40.18741" lon="-1.83146">
        <ele>1330.2</ele>
        <time>2021-10-09 18:02:36</time>
      </trkpt>
      <trkpt lat="40.18741" lon="-1.83142">
        <ele>1330.6</ele>
        <time>2021-10-09 18:02:37</time>
      </trkpt>
      <trkpt lat="40.18741" lon="-1.83139">
        <ele>1330.8</ele>
        <time>2021-10-09 18:02:38</time>
      </trkpt>
      <trkpt lat="40.18741" lon="-1.83135">
        <ele>1331</ele>
        <time>2021-10-09 18:02:39</time>
      </trkpt>
      <trkpt lat="40.18741" lon="-1.83132">
        <ele>1331</ele>
        <time>2021-10-09 18:02:40</time>
      </trkpt>
      <trkpt lat="40.18741" lon="-1.83128">
        <ele>1331.4</ele>
        <time>2021-10-09 18:02:41</time>
      </trkpt>
      <trkpt lat="40.1874" lon="-1.83125">
        <ele>1331.6</ele>
        <time>2021-10-09 18:02:42</time>
      </trkpt>
      <trkpt lat="40.18739" lon="-1.83122">
        <ele>1332</ele>
        <time>2021-10-09 18:02:43</time>
      </trkpt>
      <trkpt lat="40.18739" lon="-1.83118">
        <ele>1332.2</ele>
        <time>2021-10-09 18:02:44</time>
      </trkpt>
      <trkpt lat="40.18738" lon="-1.83115">
        <ele>1332.4</ele>
        <time>2021-10-09 18:02:45</time>
      </trkpt>
      <trkpt lat="40.18738" lon="-1.83112">
        <ele>1332.8</ele>
        <time>2021-10-09 18:02:46</time>
      </trkpt>
      <trkpt lat="40.18738" lon="-1.83109">
        <ele>1333</ele>
        <time>2021-10-09 18:02:47</time>
      </trkpt>
      <trkpt lat="40.18738" lon="-1.83106">
        <ele>1333</ele>
        <time>2021-10-09 18:02:48</time>
      </trkpt>
      <trkpt lat="40.18738" lon="-1.83103">
        <ele>1333.4</ele>
        <time>2021-10-09 18:02:49</time>
      </trkpt>
      <trkpt lat="40.18737" lon="-1.831">
        <ele>1333.4</ele>
        <time>2021-10-09 18:02:50</time>
      </trkpt>
      <trkpt lat="40.18736" lon="-1.83097">
        <ele>1333.8</ele>
        <time>2021-10-09 18:02:51</time>
      </trkpt>
      <trkpt lat="40.18736" lon="-1.83093">
        <ele>1334</ele>
        <time>2021-10-09 18:02:52</time>
      </trkpt>
      <trkpt lat="40.18735" lon="-1.8309">
        <ele>1334</ele>
        <time>2021-10-09 18:02:53</time>
      </trkpt>
      <trkpt lat="40.18734" lon="-1.83087">
        <ele>1334.4</ele>
        <time>2021-10-09 18:02:54</time>
      </trkpt>
      <trkpt lat="40.18734" lon="-1.83084">
        <ele>1334.4</ele>
        <time>2021-10-09 18:02:55</time>
      </trkpt>
      <trkpt lat="40.18734" lon="-1.83081">
        <ele>1334.8</ele>
        <time>2021-10-09 18:02:56</time>
      </trkpt>
      <trkpt lat="40.18734" lon="-1.83078">
        <ele>1335</ele>
        <time>2021-10-09 18:02:57</time>
      </trkpt>
      <trkpt lat="40.18733" lon="-1.83075">
        <ele>1335.2</ele>
        <time>2021-10-09 18:02:58</time>
      </trkpt>
      <trkpt lat="40.18733" lon="-1.83072">
        <ele>1335.4</ele>
        <time>2021-10-09 18:02:59</time>
      </trkpt>
      <trkpt lat="40.18731" lon="-1.83069">
        <ele>1335.8</ele>
        <time>2021-10-09 18:03:00</time>
      </trkpt>
      <trkpt lat="40.1873" lon="-1.83067">
        <ele>1336</ele>
        <time>2021-10-09 18:03:01</time>
      </trkpt>
      <trkpt lat="40.18729" lon="-1.83064">
        <ele>1336.2</ele>
        <time>2021-10-09 18:03:02</time>
      </trkpt>
      <trkpt lat="40.18727" lon="-1.83062">
        <ele>1336.6</ele>
        <time>2021-10-09 18:03:03</time>
      </trkpt>
      <trkpt lat="40.18726" lon="-1.8306">
        <ele>1336.8</ele>
        <time>2021-10-09 18:03:04</time>
      </trkpt>
      <trkpt lat="40.18725" lon="-1.83058">
        <ele>1337</ele>
        <time>2021-10-09 18:03:05</time>
      </trkpt>
      <trkpt lat="40.18724" lon="-1.83055">
        <ele>1337.4</ele>
        <time>2021-10-09 18:03:06</time>
      </trkpt>
      <trkpt lat="40.18722" lon="-1.83053">
        <ele>1337.6</ele>
        <time>2021-10-09 18:03:07</time>
      </trkpt>
      <trkpt lat="40.18721" lon="-1.8305">
        <ele>1337.8</ele>
        <time>2021-10-09 18:03:08</time>
      </trkpt>
      <trkpt lat="40.1872" lon="-1.83048">
        <ele>1338.2</ele>
        <time>2021-10-09 18:03:09</time>
      </trkpt>
      <trkpt lat="40.18718" lon="-1.83046">
        <ele>1338.4</ele>
        <time>2021-10-09 18:03:10</time>
      </trkpt>
      <trkpt lat="40.18717" lon="-1.83044">
        <ele>1338.6</ele>
        <time>2021-10-09 18:03:11</time>
      </trkpt>
      <trkpt lat="40.18715" lon="-1.83041">
        <ele>1338.8</ele>
        <time>2021-10-09 18:03:12</time>
      </trkpt>
      <trkpt lat="40.18714" lon="-1.83039">
        <ele>1339.2</ele>
        <time>2021-10-09 18:03:13</time>
      </trkpt>
      <trkpt lat="40.18712" lon="-1.83037">
        <ele>1339.4</ele>
        <time>2021-10-09 18:03:14</time>
      </trkpt>
      <trkpt lat="40.18711" lon="-1.83034">
        <ele>1339.8</ele>
        <time>2021-10-09 18:03:15</time>
      </trkpt>
      <trkpt lat="40.1871" lon="-1.83032">
        <ele>1340.2</ele>
        <time>2021-10-09 18:03:16</time>
      </trkpt>
      <trkpt lat="40.18709" lon="-1.8303">
        <ele>1340.4</ele>
        <time>2021-10-09 18:03:17</time>
      </trkpt>
      <trkpt lat="40.18706" lon="-1.83028">
        <ele>1340.8</ele>
        <time>2021-10-09 18:03:18</time>
      </trkpt>
      <trkpt lat="40.18704" lon="-1.83027">
        <ele>1341</ele>
        <time>2021-10-09 18:03:19</time>
      </trkpt>
      <trkpt lat="40.18702" lon="-1.83026">
        <ele>1341.4</ele>
        <time>2021-10-09 18:03:20</time>
      </trkpt>
      <trkpt lat="40.187" lon="-1.83024">
        <ele>1341.6</ele>
        <time>2021-10-09 18:03:21</time>
      </trkpt>
      <trkpt lat="40.18698" lon="-1.83023">
        <ele>1342</ele>
        <time>2021-10-09 18:03:22</time>
      </trkpt>
      <trkpt lat="40.18696" lon="-1.83021">
        <ele>1342</ele>
        <time>2021-10-09 18:03:23</time>
      </trkpt>
      <trkpt lat="40.18695" lon="-1.8302">
        <ele>1342.2</ele>
        <time>2021-10-09 18:03:24</time>
      </trkpt>
      <trkpt lat="40.18693" lon="-1.83019">
        <ele>1342</ele>
        <time>2021-10-09 18:03:25</time>
      </trkpt>
      <trkpt lat="40.18691" lon="-1.83018">
        <ele>1342.4</ele>
        <time>2021-10-09 18:03:26</time>
      </trkpt>
      <trkpt lat="40.18689" lon="-1.83017">
        <ele>1342.8</ele>
        <time>2021-10-09 18:03:27</time>
      </trkpt>
      <trkpt lat="40.18687" lon="-1.83015">
        <ele>1342.8</ele>
        <time>2021-10-09 18:03:28</time>
      </trkpt>
      <trkpt lat="40.18686" lon="-1.83013">
        <ele>1343.2</ele>
        <time>2021-10-09 18:03:29</time>
      </trkpt>
      <trkpt lat="40.18684" lon="-1.8301">
        <ele>1343.2</ele>
        <time>2021-10-09 18:03:30</time>
      </trkpt>
      <trkpt lat="40.18683" lon="-1.83007">
        <ele>1343.4</ele>
        <time>2021-10-09 18:03:31</time>
      </trkpt>
      <trkpt lat="40.18681" lon="-1.83005">
        <ele>1343.4</ele>
        <time>2021-10-09 18:03:32</time>
      </trkpt>
      <trkpt lat="40.1868" lon="-1.83002">
        <ele>1343.6</ele>
        <time>2021-10-09 18:03:33</time>
      </trkpt>
      <trkpt lat="40.18678" lon="-1.82999">
        <ele>1343.6</ele>
        <time>2021-10-09 18:03:34</time>
      </trkpt>
      <trkpt lat="40.18676" lon="-1.82997">
        <ele>1343.6</ele>
        <time>2021-10-09 18:03:35</time>
      </trkpt>
      <trkpt lat="40.18673" lon="-1.82995">
        <ele>1343.6</ele>
        <time>2021-10-09 18:03:36</time>
      </trkpt>
      <trkpt lat="40.18669" lon="-1.82996">
        <ele>1343.6</ele>
        <time>2021-10-09 18:03:37</time>
      </trkpt>
      <trkpt lat="40.18665" lon="-1.82998">
        <ele>1343.6</ele>
        <time>2021-10-09 18:03:38</time>
      </trkpt>
      <trkpt lat="40.18662" lon="-1.83002">
        <ele>1343.6</ele>
        <time>2021-10-09 18:03:39</time>
      </trkpt>
      <trkpt lat="40.18658" lon="-1.83004">
        <ele>1343.2</ele>
        <time>2021-10-09 18:03:40</time>
      </trkpt>
      <trkpt lat="40.18654" lon="-1.83006">
        <ele>1343</ele>
        <time>2021-10-09 18:03:41</time>
      </trkpt>
      <trkpt lat="40.18651" lon="-1.83007">
        <ele>1342.8</ele>
        <time>2021-10-09 18:03:42</time>
      </trkpt>
      <trkpt lat="40.18648" lon="-1.83006">
        <ele>1342.6</ele>
        <time>2021-10-09 18:03:43</time>
      </trkpt>
      <trkpt lat="40.18645" lon="-1.83005">
        <ele>1342.6</ele>
        <time>2021-10-09 18:03:44</time>
      </trkpt>
      <trkpt lat="40.18642" lon="-1.83003">
        <ele>1342.2</ele>
        <time>2021-10-09 18:03:45</time>
      </trkpt>
      <trkpt lat="40.1864" lon="-1.83001">
        <ele>1342.2</ele>
        <time>2021-10-09 18:03:46</time>
      </trkpt>
      <trkpt lat="40.18637" lon="-1.82997">
        <ele>1341.8</ele>
        <time>2021-10-09 18:03:47</time>
      </trkpt>
      <trkpt lat="40.18636" lon="-1.82992">
        <ele>1341.6</ele>
        <time>2021-10-09 18:03:48</time>
      </trkpt>
      <trkpt lat="40.18634" lon="-1.82987">
        <ele>1341.6</ele>
        <time>2021-10-09 18:03:49</time>
      </trkpt>
      <trkpt lat="40.18633" lon="-1.82982">
        <ele>1341.4</ele>
        <time>2021-10-09 18:03:50</time>
      </trkpt>
      <trkpt lat="40.18632" lon="-1.82977">
        <ele>1341.4</ele>
        <time>2021-10-09 18:03:51</time>
      </trkpt>
      <trkpt lat="40.1863" lon="-1.82972">
        <ele>1341.4</ele>
        <time>2021-10-09 18:03:52</time>
      </trkpt>
      <trkpt lat="40.18628" lon="-1.82967">
        <ele>1341.4</ele>
        <time>2021-10-09 18:03:53</time>
      </trkpt>
      <trkpt lat="40.18626" lon="-1.82962">
        <ele>1341.4</ele>
        <time>2021-10-09 18:03:54</time>
      </trkpt>
      <trkpt lat="40.18625" lon="-1.82957">
        <ele>1341.4</ele>
        <time>2021-10-09 18:03:55</time>
      </trkpt>
      <trkpt lat="40.18623" lon="-1.82953">
        <ele>1341.4</ele>
        <time>2021-10-09 18:03:56</time>
      </trkpt>
      <trkpt lat="40.18622" lon="-1.82948">
        <ele>1341.4</ele>
        <time>2021-10-09 18:03:57</time>
      </trkpt>
      <trkpt lat="40.18621" lon="-1.82943">
        <ele>1341.6</ele>
        <time>2021-10-09 18:03:58</time>
      </trkpt>
      <trkpt lat="40.18621" lon="-1.82939">
        <ele>1341.6</ele>
        <time>2021-10-09 18:03:59</time>
      </trkpt>
      <trkpt lat="40.1862" lon="-1.82936">
        <ele>1341.8</ele>
        <time>2021-10-09 18:04:00</time>
      </trkpt>
      <trkpt lat="40.18619" lon="-1.82933">
        <ele>1341.8</ele>
        <time>2021-10-09 18:04:01</time>
      </trkpt>
      <trkpt lat="40.18618" lon="-1.8293">
        <ele>1342.2</ele>
        <time>2021-10-09 18:04:02</time>
      </trkpt>
      <trkpt lat="40.18617" lon="-1.82927">
        <ele>1342.2</ele>
        <time>2021-10-09 18:04:03</time>
      </trkpt>
      <trkpt lat="40.18617" lon="-1.82924">
        <ele>1342.4</ele>
        <time>2021-10-09 18:04:04</time>
      </trkpt>
      <trkpt lat="40.18616" lon="-1.82921">
        <ele>1342.4</ele>
        <time>2021-10-09 18:04:05</time>
      </trkpt>
      <trkpt lat="40.18616" lon="-1.82918">
        <ele>1342.6</ele>
        <time>2021-10-09 18:04:06</time>
      </trkpt>
      <trkpt lat="40.18615" lon="-1.82915">
        <ele>1342.6</ele>
        <time>2021-10-09 18:04:07</time>
      </trkpt>
      <trkpt lat="40.18615" lon="-1.82912">
        <ele>1342.6</ele>
        <time>2021-10-09 18:04:08</time>
      </trkpt>
      <trkpt lat="40.18615" lon="-1.8291">
        <ele>1342.6</ele>
        <time>2021-10-09 18:04:09</time>
      </trkpt>
      <trkpt lat="40.18614" lon="-1.82907">
        <ele>1342.6</ele>
        <time>2021-10-09 18:04:10</time>
      </trkpt>
      <trkpt lat="40.18614" lon="-1.82904">
        <ele>1342.8</ele>
        <time>2021-10-09 18:04:11</time>
      </trkpt>
      <trkpt lat="40.18613" lon="-1.82901">
        <ele>1342.8</ele>
        <time>2021-10-09 18:04:12</time>
      </trkpt>
      <trkpt lat="40.18613" lon="-1.82899">
        <ele>1343.2</ele>
        <time>2021-10-09 18:04:13</time>
      </trkpt>
      <trkpt lat="40.18612" lon="-1.82896">
        <ele>1343.2</ele>
        <time>2021-10-09 18:04:14</time>
      </trkpt>
      <trkpt lat="40.18612" lon="-1.82893">
        <ele>1343.4</ele>
        <time>2021-10-09 18:04:15</time>
      </trkpt>
      <trkpt lat="40.18612" lon="-1.8289">
        <ele>1343.4</ele>
        <time>2021-10-09 18:04:16</time>
      </trkpt>
      <trkpt lat="40.18612" lon="-1.82887">
        <ele>1343.6</ele>
        <time>2021-10-09 18:04:17</time>
      </trkpt>
      <trkpt lat="40.18612" lon="-1.82885">
        <ele>1343.8</ele>
        <time>2021-10-09 18:04:18</time>
      </trkpt>
      <trkpt lat="40.18612" lon="-1.82883">
        <ele>1344.2</ele>
        <time>2021-10-09 18:04:19</time>
      </trkpt>
      <trkpt lat="40.18613" lon="-1.82881">
        <ele>1344.2</ele>
        <time>2021-10-09 18:04:20</time>
      </trkpt>
      <trkpt lat="40.18615" lon="-1.82881">
        <ele>1344.4</ele>
        <time>2021-10-09 18:04:21</time>
      </trkpt>
      <trkpt lat="40.18616" lon="-1.82882">
        <ele>1344.4</ele>
        <time>2021-10-09 18:04:22</time>
      </trkpt>
      <trkpt lat="40.18616" lon="-1.82883">
        <ele>1344.6</ele>
        <time>2021-10-09 18:04:23</time>
      </trkpt>
      <trkpt lat="40.18616" lon="-1.82883">
        <ele>1344.6</ele>
        <time>2021-10-09 18:04:24</time>
      </trkpt>
      <trkpt lat="40.18616" lon="-1.82883">
        <ele>1344.6</ele>
        <time>2021-10-09 18:04:25</time>
      </trkpt>
      <trkpt lat="40.18617" lon="-1.82882">
        <ele>1344.8</ele>
        <time>2021-10-09 18:04:26</time>
      </trkpt>
      <trkpt lat="40.18617" lon="-1.82882">
        <ele>1344.8</ele>
        <time>2021-10-09 18:04:27</time>
      </trkpt>
      <trkpt lat="40.18617" lon="-1.82882">
        <ele>1344.8</ele>
        <time>2021-10-09 18:04:28</time>
      </trkpt>
      <trkpt lat="40.18617" lon="-1.82882">
        <ele>1344.8</ele>
        <time>2021-10-09 18:04:29</time>
      </trkpt>
      <trkpt lat="40.18619" lon="-1.82882">
        <ele>1344.8</ele>
        <time>2021-10-09 18:04:30</time>
      </trkpt>
      <trkpt lat="40.18619" lon="-1.82881">
        <ele>1344.8</ele>
        <time>2021-10-09 18:04:31</time>
      </trkpt>
      <trkpt lat="40.18618" lon="-1.82881">
        <ele>1344.6</ele>
        <time>2021-10-09 18:04:32</time>
      </trkpt>
      <trkpt lat="40.18618" lon="-1.8288">
        <ele>1344.6</ele>
        <time>2021-10-09 18:04:33</time>
      </trkpt>
      <trkpt lat="40.18617" lon="-1.8288">
        <ele>1344.4</ele>
        <time>2021-10-09 18:04:34</time>
      </trkpt>
      <trkpt lat="40.18616" lon="-1.82879">
        <ele>1344.4</ele>
        <time>2021-10-09 18:04:35</time>
      </trkpt>
      <trkpt lat="40.18615" lon="-1.82879">
        <ele>1344.4</ele>
        <time>2021-10-09 18:04:36</time>
      </trkpt>
      <trkpt lat="40.18614" lon="-1.82878">
        <ele>1344.4</ele>
        <time>2021-10-09 18:04:37</time>
      </trkpt>
      <trkpt lat="40.18614" lon="-1.82878">
        <ele>1344.4</ele>
        <time>2021-10-09 18:04:38</time>
      </trkpt>
      <trkpt lat="40.18614" lon="-1.82878">
        <ele>1344.4</ele>
        <time>2021-10-09 18:04:41</time>
      </trkpt>
      <trkpt lat="40.18614" lon="-1.82878">
        <ele>1344.4</ele>
        <time>2021-10-09 18:04:42</time>
      </trkpt>
      <trkpt lat="40.18612" lon="-1.82877">
        <ele>1344.6</ele>
        <time>2021-10-09 18:04:43</time>
      </trkpt>
      <trkpt lat="40.18611" lon="-1.82876">
        <ele>1344.6</ele>
        <time>2021-10-09 18:04:44</time>
      </trkpt>
      <trkpt lat="40.18611" lon="-1.82874">
        <ele>1344.6</ele>
        <time>2021-10-09 18:11:49</time>
      </trkpt>
      <trkpt lat="40.18611" lon="-1.82873">
        <ele>1344.6</ele>
        <time>2021-10-09 18:11:50</time>
      </trkpt>
      <trkpt lat="40.1861" lon="-1.82872">
        <ele>1344.6</ele>
        <time>2021-10-09 18:11:51</time>
      </trkpt>
      <trkpt lat="40.1861" lon="-1.82871">
        <ele>1344.6</ele>
        <time>2021-10-09 18:11:52</time>
      </trkpt>
      <trkpt lat="40.18609" lon="-1.82869">
        <ele>1344.6</ele>
        <time>2021-10-09 18:11:53</time>
      </trkpt>
      <trkpt lat="40.18609" lon="-1.82868">
        <ele>1344.8</ele>
        <time>2021-10-09 18:11:54</time>
      </trkpt>
      <trkpt lat="40.18609" lon="-1.82866">
        <ele>1344.8</ele>
        <time>2021-10-09 18:11:55</time>
      </trkpt>
      <trkpt lat="40.18609" lon="-1.82864">
        <ele>1344.8</ele>
        <time>2021-10-09 18:11:56</time>
      </trkpt>
      <trkpt lat="40.18609" lon="-1.82861">
        <ele>1344.8</ele>
        <time>2021-10-09 18:11:57</time>
      </trkpt>
      <trkpt lat="40.18608" lon="-1.82858">
        <ele>1344.8</ele>
        <time>2021-10-09 18:11:58</time>
      </trkpt>
      <trkpt lat="40.18607" lon="-1.82857">
        <ele>1345</ele>
        <time>2021-10-09 18:11:59</time>
      </trkpt>
      <trkpt lat="40.18607" lon="-1.82855">
        <ele>1345</ele>
        <time>2021-10-09 18:12:00</time>
      </trkpt>
      <trkpt lat="40.18607" lon="-1.82852">
        <ele>1345</ele>
        <time>2021-10-09 18:12:24</time>
      </trkpt>
      <trkpt lat="40.18606" lon="-1.8285">
        <ele>1345</ele>
        <time>2021-10-09 18:12:25</time>
      </trkpt>
      <trkpt lat="40.18605" lon="-1.82848">
        <ele>1345</ele>
        <time>2021-10-09 18:12:26</time>
      </trkpt>
      <trkpt lat="40.18604" lon="-1.82846">
        <ele>1345.2</ele>
        <time>2021-10-09 18:12:27</time>
      </trkpt>
      <trkpt lat="40.18603" lon="-1.82843">
        <ele>1345.2</ele>
        <time>2021-10-09 18:12:28</time>
      </trkpt>
      <trkpt lat="40.18603" lon="-1.82841">
        <ele>1345.4</ele>
        <time>2021-10-09 18:12:29</time>
      </trkpt>
      <trkpt lat="40.18604" lon="-1.82838">
        <ele>1345.6</ele>
        <time>2021-10-09 18:12:30</time>
      </trkpt>
      <trkpt lat="40.18604" lon="-1.82836">
        <ele>1345.6</ele>
        <time>2021-10-09 18:12:31</time>
      </trkpt>
      <trkpt lat="40.18604" lon="-1.82835">
        <ele>1345.6</ele>
        <time>2021-10-09 18:12:32</time>
      </trkpt>
      <trkpt lat="40.18604" lon="-1.82834">
        <ele>1346</ele>
        <time>2021-10-09 18:12:33</time>
      </trkpt>
      <trkpt lat="40.18603" lon="-1.82832">
        <ele>1346</ele>
        <time>2021-10-09 18:12:34</time>
      </trkpt>
      <trkpt lat="40.18604" lon="-1.82829">
        <ele>1346</ele>
        <time>2021-10-09 18:12:35</time>
      </trkpt>
      <trkpt lat="40.18605" lon="-1.82828">
        <ele>1346.2</ele>
        <time>2021-10-09 18:12:36</time>
      </trkpt>
      <trkpt lat="40.18607" lon="-1.82829">
        <ele>1346.2</ele>
        <time>2021-10-09 18:12:37</time>
      </trkpt>
      <trkpt lat="40.18608" lon="-1.82832">
        <ele>1346.4</ele>
        <time>2021-10-09 18:12:38</time>
      </trkpt>
      <trkpt lat="40.18607" lon="-1.82836">
        <ele>1346.4</ele>
        <time>2021-10-09 18:12:39</time>
      </trkpt>
      <trkpt lat="40.18605" lon="-1.82839">
        <ele>1346</ele>
        <time>2021-10-09 18:12:40</time>
      </trkpt>
      <trkpt lat="40.18601" lon="-1.8284">
        <ele>1346</ele>
        <time>2021-10-09 18:12:41</time>
      </trkpt>
      <trkpt lat="40.18599" lon="-1.82837">
        <ele>1345.6</ele>
        <time>2021-10-09 18:12:42</time>
      </trkpt>
      <trkpt lat="40.18597" lon="-1.82833">
        <ele>1345.6</ele>
        <time>2021-10-09 18:12:43</time>
      </trkpt>
      <trkpt lat="40.18597" lon="-1.82829">
        <ele>1345.6</ele>
        <time>2021-10-09 18:12:44</time>
      </trkpt>
      <trkpt lat="40.18596" lon="-1.82824">
        <ele>1345.4</ele>
        <time>2021-10-09 18:12:45</time>
      </trkpt>
      <trkpt lat="40.18595" lon="-1.8282">
        <ele>1345.4</ele>
        <time>2021-10-09 18:12:46</time>
      </trkpt>
      <trkpt lat="40.18593" lon="-1.82815">
        <ele>1345.4</ele>
        <time>2021-10-09 18:12:47</time>
      </trkpt>
      <trkpt lat="40.18592" lon="-1.8281">
        <ele>1345.6</ele>
        <time>2021-10-09 18:12:48</time>
      </trkpt>
      <trkpt lat="40.1859" lon="-1.82806">
        <ele>1345.6</ele>
        <time>2021-10-09 18:12:49</time>
      </trkpt>
      <trkpt lat="40.18589" lon="-1.82802">
        <ele>1345.6</ele>
        <time>2021-10-09 18:12:50</time>
      </trkpt>
      <trkpt lat="40.18587" lon="-1.82798">
        <ele>1345.8</ele>
        <time>2021-10-09 18:12:51</time>
      </trkpt>
      <trkpt lat="40.18586" lon="-1.82794">
        <ele>1345.8</ele>
        <time>2021-10-09 18:12:52</time>
      </trkpt>
      <trkpt lat="40.18584" lon="-1.8279">
        <ele>1345.8</ele>
        <time>2021-10-09 18:12:53</time>
      </trkpt>
      <trkpt lat="40.18581" lon="-1.82785">
        <ele>1346</ele>
        <time>2021-10-09 18:12:54</time>
      </trkpt>
      <trkpt lat="40.18579" lon="-1.82781">
        <ele>1346</ele>
        <time>2021-10-09 18:12:55</time>
      </trkpt>
      <trkpt lat="40.18576" lon="-1.82776">
        <ele>1346</ele>
        <time>2021-10-09 18:12:56</time>
      </trkpt>
      <trkpt lat="40.18574" lon="-1.82771">
        <ele>1346</ele>
        <time>2021-10-09 18:12:57</time>
      </trkpt>
      <trkpt lat="40.18571" lon="-1.82765">
        <ele>1346.4</ele>
        <time>2021-10-09 18:12:58</time>
      </trkpt>
      <trkpt lat="40.1857" lon="-1.82758">
        <ele>1346.4</ele>
        <time>2021-10-09 18:12:59</time>
      </trkpt>
      <trkpt lat="40.18568" lon="-1.82753">
        <ele>1346.4</ele>
        <time>2021-10-09 18:13:00</time>
      </trkpt>
      <trkpt lat="40.18565" lon="-1.82748">
        <ele>1346.8</ele>
        <time>2021-10-09 18:13:01</time>
      </trkpt>
      <trkpt lat="40.18563" lon="-1.82742">
        <ele>1346.8</ele>
        <time>2021-10-09 18:13:02</time>
      </trkpt>
      <trkpt lat="40.1856" lon="-1.82735">
        <ele>1346.8</ele>
        <time>2021-10-09 18:13:03</time>
      </trkpt>
      <trkpt lat="40.18557" lon="-1.82731">
        <ele>1347</ele>
        <time>2021-10-09 18:13:04</time>
      </trkpt>
      <trkpt lat="40.18555" lon="-1.82727">
        <ele>1347</ele>
        <time>2021-10-09 18:13:05</time>
      </trkpt>
      <trkpt lat="40.18552" lon="-1.82724">
        <ele>1347.2</ele>
        <time>2021-10-09 18:13:06</time>
      </trkpt>
      <trkpt lat="40.1855" lon="-1.8272">
        <ele>1347.2</ele>
        <time>2021-10-09 18:13:07</time>
      </trkpt>
      <trkpt lat="40.18549" lon="-1.82717">
        <ele>1347.6</ele>
        <time>2021-10-09 18:13:08</time>
      </trkpt>
      <trkpt lat="40.18547" lon="-1.82715">
        <ele>1347.6</ele>
        <time>2021-10-09 18:13:09</time>
      </trkpt>
      <trkpt lat="40.18545" lon="-1.82712">
        <ele>1347.8</ele>
        <time>2021-10-09 18:13:10</time>
      </trkpt>
      <trkpt lat="40.18544" lon="-1.82708">
        <ele>1347.8</ele>
        <time>2021-10-09 18:13:11</time>
      </trkpt>
      <trkpt lat="40.18543" lon="-1.82705">
        <ele>1348</ele>
        <time>2021-10-09 18:13:12</time>
      </trkpt>
      <trkpt lat="40.18541" lon="-1.82701">
        <ele>1348</ele>
        <time>2021-10-09 18:13:13</time>
      </trkpt>
      <trkpt lat="40.18539" lon="-1.82698">
        <ele>1348.4</ele>
        <time>2021-10-09 18:13:14</time>
      </trkpt>
      <trkpt lat="40.18538" lon="-1.82694">
        <ele>1348.4</ele>
        <time>2021-10-09 18:13:15</time>
      </trkpt>
      <trkpt lat="40.18536" lon="-1.82691">
        <ele>1348.4</ele>
        <time>2021-10-09 18:13:16</time>
      </trkpt>
      <trkpt lat="40.18535" lon="-1.82688">
        <ele>1348.6</ele>
        <time>2021-10-09 18:13:17</time>
      </trkpt>
      <trkpt lat="40.18533" lon="-1.82685">
        <ele>1348.6</ele>
        <time>2021-10-09 18:13:18</time>
      </trkpt>
      <trkpt lat="40.18532" lon="-1.82682">
        <ele>1348.6</ele>
        <time>2021-10-09 18:13:19</time>
      </trkpt>
      <trkpt lat="40.1853" lon="-1.82679">
        <ele>1348.6</ele>
        <time>2021-10-09 18:13:20</time>
      </trkpt>
      <trkpt lat="40.18529" lon="-1.82676">
        <ele>1348.8</ele>
        <time>2021-10-09 18:13:21</time>
      </trkpt>
      <trkpt lat="40.18527" lon="-1.82673">
        <ele>1348.8</ele>
        <time>2021-10-09 18:13:22</time>
      </trkpt>
      <trkpt lat="40.18526" lon="-1.8267">
        <ele>1349.2</ele>
        <time>2021-10-09 18:13:23</time>
      </trkpt>
      <trkpt lat="40.18524" lon="-1.82666">
        <ele>1349.2</ele>
        <time>2021-10-09 18:13:24</time>
      </trkpt>
      <trkpt lat="40.18523" lon="-1.82663">
        <ele>1349.4</ele>
        <time>2021-10-09 18:13:25</time>
      </trkpt>
      <trkpt lat="40.18522" lon="-1.8266">
        <ele>1349.4</ele>
        <time>2021-10-09 18:13:26</time>
      </trkpt>
      <trkpt lat="40.18522" lon="-1.82657">
        <ele>1349.4</ele>
        <time>2021-10-09 18:13:27</time>
      </trkpt>
      <trkpt lat="40.18521" lon="-1.82654">
        <ele>1349.4</ele>
        <time>2021-10-09 18:13:28</time>
      </trkpt>
      <trkpt lat="40.18521" lon="-1.82651">
        <ele>1349.6</ele>
        <time>2021-10-09 18:13:29</time>
      </trkpt>
      <trkpt lat="40.18521" lon="-1.82648">
        <ele>1349.6</ele>
        <time>2021-10-09 18:13:30</time>
      </trkpt>
      <trkpt lat="40.18521" lon="-1.82645">
        <ele>1349.6</ele>
        <time>2021-10-09 18:13:31</time>
      </trkpt>
      <trkpt lat="40.18521" lon="-1.82641">
        <ele>1350</ele>
        <time>2021-10-09 18:13:32</time>
      </trkpt>
      <trkpt lat="40.18521" lon="-1.82638">
        <ele>1350</ele>
        <time>2021-10-09 18:13:33</time>
      </trkpt>
      <trkpt lat="40.18521" lon="-1.82635">
        <ele>1350</ele>
        <time>2021-10-09 18:13:34</time>
      </trkpt>
      <trkpt lat="40.18521" lon="-1.82631">
        <ele>1350.2</ele>
        <time>2021-10-09 18:13:35</time>
      </trkpt>
      <trkpt lat="40.18521" lon="-1.82628">
        <ele>1350.2</ele>
        <time>2021-10-09 18:13:36</time>
      </trkpt>
      <trkpt lat="40.18521" lon="-1.82624">
        <ele>1350.6</ele>
        <time>2021-10-09 18:13:37</time>
      </trkpt>
      <trkpt lat="40.18521" lon="-1.82621">
        <ele>1350.6</ele>
        <time>2021-10-09 18:13:38</time>
      </trkpt>
      <trkpt lat="40.18521" lon="-1.82618">
        <ele>1351</ele>
        <time>2021-10-09 18:13:39</time>
      </trkpt>
      <trkpt lat="40.1852" lon="-1.82614">
        <ele>1351.2</ele>
        <time>2021-10-09 18:13:40</time>
      </trkpt>
      <trkpt lat="40.1852" lon="-1.82611">
        <ele>1351.2</ele>
        <time>2021-10-09 18:13:41</time>
      </trkpt>
      <trkpt lat="40.1852" lon="-1.82609">
        <ele>1351.6</ele>
        <time>2021-10-09 18:13:42</time>
      </trkpt>
      <trkpt lat="40.1852" lon="-1.82606">
        <ele>1351.6</ele>
        <time>2021-10-09 18:13:43</time>
      </trkpt>
      <trkpt lat="40.1852" lon="-1.82604">
        <ele>1352</ele>
        <time>2021-10-09 18:13:44</time>
      </trkpt>
      <trkpt lat="40.1852" lon="-1.82601">
        <ele>1352</ele>
        <time>2021-10-09 18:13:45</time>
      </trkpt>
      <trkpt lat="40.1852" lon="-1.82598">
        <ele>1352.4</ele>
        <time>2021-10-09 18:13:46</time>
      </trkpt>
      <trkpt lat="40.18519" lon="-1.82595">
        <ele>1352.4</ele>
        <time>2021-10-09 18:13:47</time>
      </trkpt>
      <trkpt lat="40.18518" lon="-1.82592">
        <ele>1352.6</ele>
        <time>2021-10-09 18:13:48</time>
      </trkpt>
      <trkpt lat="40.18516" lon="-1.82588">
        <ele>1352.6</ele>
        <time>2021-10-09 18:13:49</time>
      </trkpt>
      <trkpt lat="40.18515" lon="-1.82585">
        <ele>1352.6</ele>
        <time>2021-10-09 18:13:50</time>
      </trkpt>
      <trkpt lat="40.18513" lon="-1.82581">
        <ele>1352.6</ele>
        <time>2021-10-09 18:13:51</time>
      </trkpt>
      <trkpt lat="40.18511" lon="-1.82578">
        <ele>1352.6</ele>
        <time>2021-10-09 18:13:52</time>
      </trkpt>
      <trkpt lat="40.18509" lon="-1.82575">
        <ele>1352.6</ele>
        <time>2021-10-09 18:13:53</time>
      </trkpt>
      <trkpt lat="40.18508" lon="-1.82571">
        <ele>1352.6</ele>
        <time>2021-10-09 18:13:54</time>
      </trkpt>
      <trkpt lat="40.18506" lon="-1.82567">
        <ele>1352.8</ele>
        <time>2021-10-09 18:13:55</time>
      </trkpt>
      <trkpt lat="40.18504" lon="-1.82564">
        <ele>1352.8</ele>
        <time>2021-10-09 18:13:56</time>
      </trkpt>
      <trkpt lat="40.18502" lon="-1.82561">
        <ele>1352.8</ele>
        <time>2021-10-09 18:13:57</time>
      </trkpt>
      <trkpt lat="40.185" lon="-1.82557">
        <ele>1353</ele>
        <time>2021-10-09 18:13:58</time>
      </trkpt>
      <trkpt lat="40.18498" lon="-1.82555">
        <ele>1353</ele>
        <time>2021-10-09 18:13:59</time>
      </trkpt>
      <trkpt lat="40.18496" lon="-1.82552">
        <ele>1353.4</ele>
        <time>2021-10-09 18:14:00</time>
      </trkpt>
      <trkpt lat="40.18494" lon="-1.8255">
        <ele>1353.4</ele>
        <time>2021-10-09 18:14:01</time>
      </trkpt>
      <trkpt lat="40.18491" lon="-1.82548">
        <ele>1353.6</ele>
        <time>2021-10-09 18:14:02</time>
      </trkpt>
      <trkpt lat="40.1849" lon="-1.82545">
        <ele>1353.6</ele>
        <time>2021-10-09 18:14:03</time>
      </trkpt>
      <trkpt lat="40.18489" lon="-1.82542">
        <ele>1353.8</ele>
        <time>2021-10-09 18:14:04</time>
      </trkpt>
      <trkpt lat="40.18487" lon="-1.82539">
        <ele>1353.8</ele>
        <time>2021-10-09 18:14:05</time>
      </trkpt>
      <trkpt lat="40.18486" lon="-1.82536">
        <ele>1354</ele>
        <time>2021-10-09 18:14:06</time>
      </trkpt>
      <trkpt lat="40.18484" lon="-1.82533">
        <ele>1354</ele>
        <time>2021-10-09 18:14:07</time>
      </trkpt>
      <trkpt lat="40.18483" lon="-1.8253">
        <ele>1354</ele>
        <time>2021-10-09 18:14:08</time>
      </trkpt>
      <trkpt lat="40.18481" lon="-1.82527">
        <ele>1354</ele>
        <time>2021-10-09 18:14:09</time>
      </trkpt>
      <trkpt lat="40.1848" lon="-1.82525">
        <ele>1354.2</ele>
        <time>2021-10-09 18:14:10</time>
      </trkpt>
      <trkpt lat="40.18478" lon="-1.82522">
        <ele>1354.2</ele>
        <time>2021-10-09 18:14:11</time>
      </trkpt>
      <trkpt lat="40.18476" lon="-1.8252">
        <ele>1354.4</ele>
        <time>2021-10-09 18:14:12</time>
      </trkpt>
      <trkpt lat="40.18475" lon="-1.82517">
        <ele>1354.4</ele>
        <time>2021-10-09 18:14:13</time>
      </trkpt>
      <trkpt lat="40.18473" lon="-1.82514">
        <ele>1354.6</ele>
        <time>2021-10-09 18:14:14</time>
      </trkpt>
      <trkpt lat="40.18472" lon="-1.82511">
        <ele>1354.6</ele>
        <time>2021-10-09 18:14:15</time>
      </trkpt>
      <trkpt lat="40.18471" lon="-1.82508">
        <ele>1355</ele>
        <time>2021-10-09 18:14:16</time>
      </trkpt>
      <trkpt lat="40.1847" lon="-1.82505">
        <ele>1355</ele>
        <time>2021-10-09 18:14:17</time>
      </trkpt>
      <trkpt lat="40.18469" lon="-1.82502">
        <ele>1355</ele>
        <time>2021-10-09 18:14:18</time>
      </trkpt>
      <trkpt lat="40.18467" lon="-1.82499">
        <ele>1355.2</ele>
        <time>2021-10-09 18:14:19</time>
      </trkpt>
      <trkpt lat="40.18466" lon="-1.82496">
        <ele>1355.2</ele>
        <time>2021-10-09 18:14:20</time>
      </trkpt>
      <trkpt lat="40.18465" lon="-1.82493">
        <ele>1355.4</ele>
        <time>2021-10-09 18:14:21</time>
      </trkpt>
      <trkpt lat="40.18464" lon="-1.82489">
        <ele>1355.4</ele>
        <time>2021-10-09 18:14:22</time>
      </trkpt>
      <trkpt lat="40.18463" lon="-1.82485">
        <ele>1355.4</ele>
        <time>2021-10-09 18:14:23</time>
      </trkpt>
      <trkpt lat="40.18462" lon="-1.82482">
        <ele>1355.8</ele>
        <time>2021-10-09 18:14:24</time>
      </trkpt>
      <trkpt lat="40.18462" lon="-1.82478">
        <ele>1355.8</ele>
        <time>2021-10-09 18:14:25</time>
      </trkpt>
      <trkpt lat="40.18461" lon="-1.82475">
        <ele>1355.8</ele>
        <time>2021-10-09 18:14:26</time>
      </trkpt>
      <trkpt lat="40.18461" lon="-1.82471">
        <ele>1355.8</ele>
        <time>2021-10-09 18:14:27</time>
      </trkpt>
      <trkpt lat="40.1846" lon="-1.82467">
        <ele>1355.8</ele>
        <time>2021-10-09 18:14:28</time>
      </trkpt>
      <trkpt lat="40.18459" lon="-1.82464">
        <ele>1356</ele>
        <time>2021-10-09 18:14:29</time>
      </trkpt>
      <trkpt lat="40.18458" lon="-1.8246">
        <ele>1356</ele>
        <time>2021-10-09 18:14:30</time>
      </trkpt>
      <trkpt lat="40.18457" lon="-1.82456">
        <ele>1356</ele>
        <time>2021-10-09 18:14:31</time>
      </trkpt>
      <trkpt lat="40.18456" lon="-1.82453">
        <ele>1356.2</ele>
        <time>2021-10-09 18:14:32</time>
      </trkpt>
      <trkpt lat="40.18455" lon="-1.82449">
        <ele>1356.2</ele>
        <time>2021-10-09 18:14:33</time>
      </trkpt>
      <trkpt lat="40.18454" lon="-1.82445">
        <ele>1356.2</ele>
        <time>2021-10-09 18:14:34</time>
      </trkpt>
      <trkpt lat="40.18452" lon="-1.82441">
        <ele>1356.2</ele>
        <time>2021-10-09 18:14:35</time>
      </trkpt>
      <trkpt lat="40.18451" lon="-1.82437">
        <ele>1356.4</ele>
        <time>2021-10-09 18:14:36</time>
      </trkpt>
      <trkpt lat="40.18449" lon="-1.82433">
        <ele>1356.4</ele>
        <time>2021-10-09 18:14:37</time>
      </trkpt>
      <trkpt lat="40.18447" lon="-1.82429">
        <ele>1356.4</ele>
        <time>2021-10-09 18:14:38</time>
      </trkpt>
      <trkpt lat="40.18445" lon="-1.82425">
        <ele>1356.4</ele>
        <time>2021-10-09 18:14:39</time>
      </trkpt>
      <trkpt lat="40.18443" lon="-1.82422">
        <ele>1356.6</ele>
        <time>2021-10-09 18:14:40</time>
      </trkpt>
      <trkpt lat="40.18441" lon="-1.82418">
        <ele>1356.6</ele>
        <time>2021-10-09 18:14:41</time>
      </trkpt>
      <trkpt lat="40.18439" lon="-1.82415">
        <ele>1356.6</ele>
        <time>2021-10-09 18:14:42</time>
      </trkpt>
      <trkpt lat="40.18437" lon="-1.82411">
        <ele>1356.6</ele>
        <time>2021-10-09 18:14:43</time>
      </trkpt>
      <trkpt lat="40.18436" lon="-1.82408">
        <ele>1356.6</ele>
        <time>2021-10-09 18:14:44</time>
      </trkpt>
      <trkpt lat="40.18434" lon="-1.82404">
        <ele>1356.8</ele>
        <time>2021-10-09 18:14:45</time>
      </trkpt>
      <trkpt lat="40.18433" lon="-1.824">
        <ele>1356.8</ele>
        <time>2021-10-09 18:14:46</time>
      </trkpt>
      <trkpt lat="40.18431" lon="-1.82396">
        <ele>1356.8</ele>
        <time>2021-10-09 18:14:47</time>
      </trkpt>
      <trkpt lat="40.1843" lon="-1.82392">
        <ele>1357</ele>
        <time>2021-10-09 18:14:48</time>
      </trkpt>
      <trkpt lat="40.18429" lon="-1.82388">
        <ele>1357</ele>
        <time>2021-10-09 18:14:49</time>
      </trkpt>
      <trkpt lat="40.18428" lon="-1.82385">
        <ele>1357</ele>
        <time>2021-10-09 18:14:50</time>
      </trkpt>
      <trkpt lat="40.18427" lon="-1.82381">
        <ele>1357</ele>
        <time>2021-10-09 18:14:51</time>
      </trkpt>
      <trkpt lat="40.18426" lon="-1.82377">
        <ele>1357.4</ele>
        <time>2021-10-09 18:14:52</time>
      </trkpt>
      <trkpt lat="40.18426" lon="-1.82373">
        <ele>1357.4</ele>
        <time>2021-10-09 18:14:53</time>
      </trkpt>
      <trkpt lat="40.18426" lon="-1.82369">
        <ele>1357.4</ele>
        <time>2021-10-09 18:14:54</time>
      </trkpt>
      <trkpt lat="40.18426" lon="-1.82365">
        <ele>1357.6</ele>
        <time>2021-10-09 18:14:55</time>
      </trkpt>
      <trkpt lat="40.18426" lon="-1.82361">
        <ele>1357.6</ele>
        <time>2021-10-09 18:14:56</time>
      </trkpt>
      <trkpt lat="40.18426" lon="-1.82357">
        <ele>1358</ele>
        <time>2021-10-09 18:14:57</time>
      </trkpt>
      <trkpt lat="40.18426" lon="-1.82354">
        <ele>1358</ele>
        <time>2021-10-09 18:14:58</time>
      </trkpt>
      <trkpt lat="40.18426" lon="-1.8235">
        <ele>1358.2</ele>
        <time>2021-10-09 18:14:59</time>
      </trkpt>
      <trkpt lat="40.18425" lon="-1.82346">
        <ele>1358.2</ele>
        <time>2021-10-09 18:15:00</time>
      </trkpt>
      <trkpt lat="40.18425" lon="-1.82343">
        <ele>1358.6</ele>
        <time>2021-10-09 18:15:01</time>
      </trkpt>
      <trkpt lat="40.18423" lon="-1.82339">
        <ele>1358.6</ele>
        <time>2021-10-09 18:15:02</time>
      </trkpt>
      <trkpt lat="40.18421" lon="-1.82335">
        <ele>1358.6</ele>
        <time>2021-10-09 18:15:03</time>
      </trkpt>
      <trkpt lat="40.18418" lon="-1.82332">
        <ele>1358.8</ele>
        <time>2021-10-09 18:15:04</time>
      </trkpt>
      <trkpt lat="40.18415" lon="-1.82329">
        <ele>1358.8</ele>
        <time>2021-10-09 18:15:05</time>
      </trkpt>
      <trkpt lat="40.18412" lon="-1.82325">
        <ele>1358.8</ele>
        <time>2021-10-09 18:15:06</time>
      </trkpt>
      <trkpt lat="40.1841" lon="-1.82322">
        <ele>1358.8</ele>
        <time>2021-10-09 18:15:07</time>
      </trkpt>
      <trkpt lat="40.18407" lon="-1.82319">
        <ele>1358.8</ele>
        <time>2021-10-09 18:15:08</time>
      </trkpt>
      <trkpt lat="40.18405" lon="-1.82315">
        <ele>1358.8</ele>
        <time>2021-10-09 18:15:09</time>
      </trkpt>
      <trkpt lat="40.18402" lon="-1.82311">
        <ele>1358.8</ele>
        <time>2021-10-09 18:15:10</time>
      </trkpt>
      <trkpt lat="40.184" lon="-1.82307">
        <ele>1358.8</ele>
        <time>2021-10-09 18:15:11</time>
      </trkpt>
      <trkpt lat="40.18398" lon="-1.82304">
        <ele>1358.8</ele>
        <time>2021-10-09 18:15:12</time>
      </trkpt>
      <trkpt lat="40.18395" lon="-1.823">
        <ele>1359</ele>
        <time>2021-10-09 18:15:13</time>
      </trkpt>
      <trkpt lat="40.18393" lon="-1.82296">
        <ele>1359</ele>
        <time>2021-10-09 18:15:14</time>
      </trkpt>
      <trkpt lat="40.18391" lon="-1.82292">
        <ele>1359</ele>
        <time>2021-10-09 18:15:15</time>
      </trkpt>
      <trkpt lat="40.18388" lon="-1.82288">
        <ele>1359.2</ele>
        <time>2021-10-09 18:15:16</time>
      </trkpt>
      <trkpt lat="40.18386" lon="-1.82284">
        <ele>1359.2</ele>
        <time>2021-10-09 18:15:17</time>
      </trkpt>
      <trkpt lat="40.18384" lon="-1.82279">
        <ele>1359.2</ele>
        <time>2021-10-09 18:15:18</time>
      </trkpt>
      <trkpt lat="40.18382" lon="-1.82275">
        <ele>1359.2</ele>
        <time>2021-10-09 18:15:19</time>
      </trkpt>
      <trkpt lat="40.1838" lon="-1.82271">
        <ele>1359.6</ele>
        <time>2021-10-09 18:15:20</time>
      </trkpt>
      <trkpt lat="40.18379" lon="-1.82266">
        <ele>1359.6</ele>
        <time>2021-10-09 18:15:21</time>
      </trkpt>
      <trkpt lat="40.18377" lon="-1.82262">
        <ele>1359.6</ele>
        <time>2021-10-09 18:15:22</time>
      </trkpt>
      <trkpt lat="40.18376" lon="-1.82257">
        <ele>1359.8</ele>
        <time>2021-10-09 18:15:23</time>
      </trkpt>
      <trkpt lat="40.18374" lon="-1.82253">
        <ele>1359.8</ele>
        <time>2021-10-09 18:15:24</time>
      </trkpt>
      <trkpt lat="40.18373" lon="-1.82249">
        <ele>1359.8</ele>
        <time>2021-10-09 18:15:25</time>
      </trkpt>
      <trkpt lat="40.18371" lon="-1.82245">
        <ele>1360</ele>
        <time>2021-10-09 18:15:26</time>
      </trkpt>
      <trkpt lat="40.1837" lon="-1.8224">
        <ele>1360</ele>
        <time>2021-10-09 18:15:27</time>
      </trkpt>
      <trkpt lat="40.18369" lon="-1.82236">
        <ele>1360.2</ele>
        <time>2021-10-09 18:15:28</time>
      </trkpt>
      <trkpt lat="40.18367" lon="-1.82232">
        <ele>1360.2</ele>
        <time>2021-10-09 18:15:29</time>
      </trkpt>
      <trkpt lat="40.18365" lon="-1.82228">
        <ele>1360.6</ele>
        <time>2021-10-09 18:15:30</time>
      </trkpt>
      <trkpt lat="40.18363" lon="-1.82224">
        <ele>1360.6</ele>
        <time>2021-10-09 18:15:31</time>
      </trkpt>
      <trkpt lat="40.18362" lon="-1.8222">
        <ele>1360.8</ele>
        <time>2021-10-09 18:15:32</time>
      </trkpt>
      <trkpt lat="40.1836" lon="-1.82216">
        <ele>1360.8</ele>
        <time>2021-10-09 18:15:33</time>
      </trkpt>
      <trkpt lat="40.18358" lon="-1.82213">
        <ele>1361</ele>
        <time>2021-10-09 18:15:34</time>
      </trkpt>
      <trkpt lat="40.18355" lon="-1.82209">
        <ele>1361</ele>
        <time>2021-10-09 18:15:35</time>
      </trkpt>
      <trkpt lat="40.18353" lon="-1.82206">
        <ele>1361.2</ele>
        <time>2021-10-09 18:15:36</time>
      </trkpt>
      <trkpt lat="40.18351" lon="-1.82202">
        <ele>1361.2</ele>
        <time>2021-10-09 18:15:37</time>
      </trkpt>
      <trkpt lat="40.18349" lon="-1.82198">
        <ele>1361.6</ele>
        <time>2021-10-09 18:15:38</time>
      </trkpt>
      <trkpt lat="40.18347" lon="-1.82195">
        <ele>1361.6</ele>
        <time>2021-10-09 18:15:39</time>
      </trkpt>
      <trkpt lat="40.18345" lon="-1.82191">
        <ele>1361.6</ele>
        <time>2021-10-09 18:15:40</time>
      </trkpt>
      <trkpt lat="40.18343" lon="-1.82188">
        <ele>1361.8</ele>
        <time>2021-10-09 18:15:41</time>
      </trkpt>
      <trkpt lat="40.18341" lon="-1.82185">
        <ele>1361.8</ele>
        <time>2021-10-09 18:15:42</time>
      </trkpt>
      <trkpt lat="40.18338" lon="-1.82182">
        <ele>1361.8</ele>
        <time>2021-10-09 18:15:43</time>
      </trkpt>
      <trkpt lat="40.18336" lon="-1.82178">
        <ele>1362.2</ele>
        <time>2021-10-09 18:15:44</time>
      </trkpt>
      <trkpt lat="40.18333" lon="-1.82175">
        <ele>1362.2</ele>
        <time>2021-10-09 18:15:45</time>
      </trkpt>
      <trkpt lat="40.18331" lon="-1.82171">
        <ele>1362.2</ele>
        <time>2021-10-09 18:15:46</time>
      </trkpt>
      <trkpt lat="40.18329" lon="-1.82167">
        <ele>1362.4</ele>
        <time>2021-10-09 18:15:47</time>
      </trkpt>
      <trkpt lat="40.18326" lon="-1.82163">
        <ele>1362.4</ele>
        <time>2021-10-09 18:15:48</time>
      </trkpt>
      <trkpt lat="40.18324" lon="-1.8216">
        <ele>1362.4</ele>
        <time>2021-10-09 18:15:49</time>
      </trkpt>
      <trkpt lat="40.18322" lon="-1.82156">
        <ele>1362.6</ele>
        <time>2021-10-09 18:15:50</time>
      </trkpt>
      <trkpt lat="40.1832" lon="-1.82152">
        <ele>1362.6</ele>
        <time>2021-10-09 18:15:51</time>
      </trkpt>
      <trkpt lat="40.18317" lon="-1.82149">
        <ele>1362.6</ele>
        <time>2021-10-09 18:15:52</time>
      </trkpt>
      <trkpt lat="40.18315" lon="-1.82145">
        <ele>1362.8</ele>
        <time>2021-10-09 18:15:53</time>
      </trkpt>
      <trkpt lat="40.18313" lon="-1.82141">
        <ele>1362.8</ele>
        <time>2021-10-09 18:15:54</time>
      </trkpt>
      <trkpt lat="40.1831" lon="-1.82137">
        <ele>1363.2</ele>
        <time>2021-10-09 18:15:55</time>
      </trkpt>
      <trkpt lat="40.18308" lon="-1.82134">
        <ele>1363.2</ele>
        <time>2021-10-09 18:15:56</time>
      </trkpt>
      <trkpt lat="40.18305" lon="-1.8213">
        <ele>1363.2</ele>
        <time>2021-10-09 18:15:57</time>
      </trkpt>
      <trkpt lat="40.18303" lon="-1.82126">
        <ele>1363.4</ele>
        <time>2021-10-09 18:15:58</time>
      </trkpt>
      <trkpt lat="40.183" lon="-1.82123">
        <ele>1363.4</ele>
        <time>2021-10-09 18:15:59</time>
      </trkpt>
      <trkpt lat="40.18298" lon="-1.82119">
        <ele>1363.4</ele>
        <time>2021-10-09 18:16:00</time>
      </trkpt>
      <trkpt lat="40.18295" lon="-1.82116">
        <ele>1363.6</ele>
        <time>2021-10-09 18:16:01</time>
      </trkpt>
      <trkpt lat="40.18292" lon="-1.82113">
        <ele>1363.6</ele>
        <time>2021-10-09 18:16:02</time>
      </trkpt>
      <trkpt lat="40.1829" lon="-1.82109">
        <ele>1363.6</ele>
        <time>2021-10-09 18:16:03</time>
      </trkpt>
      <trkpt lat="40.18287" lon="-1.82105">
        <ele>1363.8</ele>
        <time>2021-10-09 18:16:04</time>
      </trkpt>
      <trkpt lat="40.18285" lon="-1.82101">
        <ele>1363.8</ele>
        <time>2021-10-09 18:16:05</time>
      </trkpt>
      <trkpt lat="40.18283" lon="-1.82098">
        <ele>1364.2</ele>
        <time>2021-10-09 18:16:06</time>
      </trkpt>
      <trkpt lat="40.18281" lon="-1.82094">
        <ele>1364.2</ele>
        <time>2021-10-09 18:16:07</time>
      </trkpt>
      <trkpt lat="40.18279" lon="-1.82091">
        <ele>1364.4</ele>
        <time>2021-10-09 18:16:08</time>
      </trkpt>
      <trkpt lat="40.18277" lon="-1.82088">
        <ele>1364.4</ele>
        <time>2021-10-09 18:16:09</time>
      </trkpt>
      <trkpt lat="40.18275" lon="-1.82084">
        <ele>1364.4</ele>
        <time>2021-10-09 18:16:10</time>
      </trkpt>
      <trkpt lat="40.18273" lon="-1.82081">
        <ele>1364.8</ele>
        <time>2021-10-09 18:16:11</time>
      </trkpt>
      <trkpt lat="40.18271" lon="-1.82077">
        <ele>1364.8</ele>
        <time>2021-10-09 18:16:12</time>
      </trkpt>
      <trkpt lat="40.18269" lon="-1.82074">
        <ele>1365</ele>
        <time>2021-10-09 18:16:13</time>
      </trkpt>
      <trkpt lat="40.18267" lon="-1.8207">
        <ele>1365</ele>
        <time>2021-10-09 18:16:14</time>
      </trkpt>
      <trkpt lat="40.18265" lon="-1.82067">
        <ele>1365.4</ele>
        <time>2021-10-09 18:16:15</time>
      </trkpt>
      <trkpt lat="40.18264" lon="-1.82063">
        <ele>1365.4</ele>
        <time>2021-10-09 18:16:16</time>
      </trkpt>
      <trkpt lat="40.18262" lon="-1.8206">
        <ele>1365.6</ele>
        <time>2021-10-09 18:16:17</time>
      </trkpt>
      <trkpt lat="40.1826" lon="-1.82057">
        <ele>1365.8</ele>
        <time>2021-10-09 18:16:18</time>
      </trkpt>
      <trkpt lat="40.18258" lon="-1.82054">
        <ele>1366.2</ele>
        <time>2021-10-09 18:16:19</time>
      </trkpt>
      <trkpt lat="40.18256" lon="-1.82051">
        <ele>1366.2</ele>
        <time>2021-10-09 18:16:20</time>
      </trkpt>
      <trkpt lat="40.18254" lon="-1.82048">
        <ele>1366.2</ele>
        <time>2021-10-09 18:16:21</time>
      </trkpt>
      <trkpt lat="40.18252" lon="-1.82044">
        <ele>1366.2</ele>
        <time>2021-10-09 18:16:22</time>
      </trkpt>
      <trkpt lat="40.18249" lon="-1.82038">
        <ele>1366.4</ele>
        <time>2021-10-09 18:16:23</time>
      </trkpt>
      <trkpt lat="40.18247" lon="-1.82034">
        <ele>1366.4</ele>
        <time>2021-10-09 18:16:24</time>
      </trkpt>
      <trkpt lat="40.18245" lon="-1.82031">
        <ele>1366.4</ele>
        <time>2021-10-09 18:16:25</time>
      </trkpt>
      <trkpt lat="40.18243" lon="-1.82028">
        <ele>1366.8</ele>
        <time>2021-10-09 18:16:26</time>
      </trkpt>
      <trkpt lat="40.18241" lon="-1.82025">
        <ele>1366.8</ele>
        <time>2021-10-09 18:16:27</time>
      </trkpt>
      <trkpt lat="40.18239" lon="-1.82023">
        <ele>1367</ele>
        <time>2021-10-09 18:16:28</time>
      </trkpt>
      <trkpt lat="40.18237" lon="-1.8202">
        <ele>1367</ele>
        <time>2021-10-09 18:16:29</time>
      </trkpt>
      <trkpt lat="40.18235" lon="-1.82017">
        <ele>1367.2</ele>
        <time>2021-10-09 18:16:30</time>
      </trkpt>
      <trkpt lat="40.18233" lon="-1.82014">
        <ele>1367.2</ele>
        <time>2021-10-09 18:16:31</time>
      </trkpt>
      <trkpt lat="40.1823" lon="-1.82011">
        <ele>1367.6</ele>
        <time>2021-10-09 18:16:32</time>
      </trkpt>
      <trkpt lat="40.18228" lon="-1.82008">
        <ele>1367.6</ele>
        <time>2021-10-09 18:16:33</time>
      </trkpt>
      <trkpt lat="40.18226" lon="-1.82005">
        <ele>1367.8</ele>
        <time>2021-10-09 18:16:34</time>
      </trkpt>
      <trkpt lat="40.18223" lon="-1.82003">
        <ele>1367.8</ele>
        <time>2021-10-09 18:16:35</time>
      </trkpt>
      <trkpt lat="40.18221" lon="-1.82001">
        <ele>1368</ele>
        <time>2021-10-09 18:16:36</time>
      </trkpt>
      <trkpt lat="40.18218" lon="-1.81998">
        <ele>1368</ele>
        <time>2021-10-09 18:16:37</time>
      </trkpt>
      <trkpt lat="40.18216" lon="-1.81995">
        <ele>1368.2</ele>
        <time>2021-10-09 18:16:38</time>
      </trkpt>
      <trkpt lat="40.18213" lon="-1.81993">
        <ele>1368.2</ele>
        <time>2021-10-09 18:16:39</time>
      </trkpt>
      <trkpt lat="40.18211" lon="-1.8199">
        <ele>1368.4</ele>
        <time>2021-10-09 18:16:40</time>
      </trkpt>
      <trkpt lat="40.18208" lon="-1.81988">
        <ele>1368.4</ele>
        <time>2021-10-09 18:16:41</time>
      </trkpt>
      <trkpt lat="40.18206" lon="-1.81985">
        <ele>1368.8</ele>
        <time>2021-10-09 18:16:42</time>
      </trkpt>
      <trkpt lat="40.18204" lon="-1.81982">
        <ele>1368.8</ele>
        <time>2021-10-09 18:16:43</time>
      </trkpt>
      <trkpt lat="40.18201" lon="-1.8198">
        <ele>1369.2</ele>
        <time>2021-10-09 18:16:44</time>
      </trkpt>
      <trkpt lat="40.18199" lon="-1.81977">
        <ele>1369.2</ele>
        <time>2021-10-09 18:16:45</time>
      </trkpt>
      <trkpt lat="40.18196" lon="-1.81975">
        <ele>1369.6</ele>
        <time>2021-10-09 18:16:46</time>
      </trkpt>
      <trkpt lat="40.18194" lon="-1.81972">
        <ele>1369.6</ele>
        <time>2021-10-09 18:16:47</time>
      </trkpt>
      <trkpt lat="40.18192" lon="-1.81969">
        <ele>1369.8</ele>
        <time>2021-10-09 18:16:48</time>
      </trkpt>
      <trkpt lat="40.1819" lon="-1.81966">
        <ele>1369.8</ele>
        <time>2021-10-09 18:16:49</time>
      </trkpt>
      <trkpt lat="40.18188" lon="-1.81963">
        <ele>1370.2</ele>
        <time>2021-10-09 18:16:50</time>
      </trkpt>
      <trkpt lat="40.18186" lon="-1.81961">
        <ele>1370.4</ele>
        <time>2021-10-09 18:16:51</time>
      </trkpt>
      <trkpt lat="40.18184" lon="-1.81958">
        <ele>1370.6</ele>
        <time>2021-10-09 18:16:52</time>
      </trkpt>
      <trkpt lat="40.18182" lon="-1.81956">
        <ele>1370.6</ele>
        <time>2021-10-09 18:16:53</time>
      </trkpt>
      <trkpt lat="40.1818" lon="-1.81953">
        <ele>1371</ele>
        <time>2021-10-09 18:16:54</time>
      </trkpt>
      <trkpt lat="40.18178" lon="-1.81951">
        <ele>1371.2</ele>
        <time>2021-10-09 18:16:55</time>
      </trkpt>
      <trkpt lat="40.18176" lon="-1.81948">
        <ele>1371.2</ele>
        <time>2021-10-09 18:16:56</time>
      </trkpt>
      <trkpt lat="40.18174" lon="-1.81945">
        <ele>1371.6</ele>
        <time>2021-10-09 18:16:57</time>
      </trkpt>
      <trkpt lat="40.18172" lon="-1.81942">
        <ele>1371.8</ele>
        <time>2021-10-09 18:16:58</time>
      </trkpt>
      <trkpt lat="40.1817" lon="-1.81939">
        <ele>1372.2</ele>
        <time>2021-10-09 18:16:59</time>
      </trkpt>
      <trkpt lat="40.18168" lon="-1.81936">
        <ele>1372.4</ele>
        <time>2021-10-09 18:17:00</time>
      </trkpt>
      <trkpt lat="40.18166" lon="-1.81933">
        <ele>1372.4</ele>
        <time>2021-10-09 18:17:01</time>
      </trkpt>
      <trkpt lat="40.18165" lon="-1.8193">
        <ele>1372.6</ele>
        <time>2021-10-09 18:17:02</time>
      </trkpt>
      <trkpt lat="40.18162" lon="-1.81927">
        <ele>1372.8</ele>
        <time>2021-10-09 18:17:03</time>
      </trkpt>
      <trkpt lat="40.1816" lon="-1.81924">
        <ele>1373</ele>
        <time>2021-10-09 18:17:04</time>
      </trkpt>
      <trkpt lat="40.18158" lon="-1.81922">
        <ele>1373</ele>
        <time>2021-10-09 18:17:05</time>
      </trkpt>
      <trkpt lat="40.18156" lon="-1.8192">
        <ele>1373.4</ele>
        <time>2021-10-09 18:17:06</time>
      </trkpt>
      <trkpt lat="40.18154" lon="-1.81917">
        <ele>1373.8</ele>
        <time>2021-10-09 18:17:07</time>
      </trkpt>
      <trkpt lat="40.18152" lon="-1.81915">
        <ele>1373.8</ele>
        <time>2021-10-09 18:17:08</time>
      </trkpt>
      <trkpt lat="40.18151" lon="-1.81913">
        <ele>1374.2</ele>
        <time>2021-10-09 18:17:09</time>
      </trkpt>
      <trkpt lat="40.18149" lon="-1.8191">
        <ele>1374.4</ele>
        <time>2021-10-09 18:17:10</time>
      </trkpt>
      <trkpt lat="40.18147" lon="-1.81908">
        <ele>1374.6</ele>
        <time>2021-10-09 18:17:11</time>
      </trkpt>
      <trkpt lat="40.18146" lon="-1.81907">
        <ele>1374.8</ele>
        <time>2021-10-09 18:17:12</time>
      </trkpt>
      <trkpt lat="40.18144" lon="-1.81905">
        <ele>1375</ele>
        <time>2021-10-09 18:17:13</time>
      </trkpt>
      <trkpt lat="40.18142" lon="-1.81903">
        <ele>1375.4</ele>
        <time>2021-10-09 18:17:14</time>
      </trkpt>
      <trkpt lat="40.1814" lon="-1.81901">
        <ele>1375.6</ele>
        <time>2021-10-09 18:17:15</time>
      </trkpt>
      <trkpt lat="40.18139" lon="-1.819">
        <ele>1375.8</ele>
        <time>2021-10-09 18:17:16</time>
      </trkpt>
      <trkpt lat="40.18137" lon="-1.81899">
        <ele>1376</ele>
        <time>2021-10-09 18:17:17</time>
      </trkpt>
      <trkpt lat="40.18135" lon="-1.81897">
        <ele>1376.2</ele>
        <time>2021-10-09 18:17:18</time>
      </trkpt>
      <trkpt lat="40.18133" lon="-1.81896">
        <ele>1376.6</ele>
        <time>2021-10-09 18:17:19</time>
      </trkpt>
      <trkpt lat="40.1813" lon="-1.81895">
        <ele>1376.8</ele>
        <time>2021-10-09 18:17:20</time>
      </trkpt>
      <trkpt lat="40.18127" lon="-1.81893">
        <ele>1377</ele>
        <time>2021-10-09 18:17:21</time>
      </trkpt>
      <trkpt lat="40.18125" lon="-1.81891">
        <ele>1377</ele>
        <time>2021-10-09 18:17:22</time>
      </trkpt>
      <trkpt lat="40.18123" lon="-1.81889">
        <ele>1377.4</ele>
        <time>2021-10-09 18:17:23</time>
      </trkpt>
      <trkpt lat="40.18121" lon="-1.81888">
        <ele>1377.6</ele>
        <time>2021-10-09 18:17:24</time>
      </trkpt>
      <trkpt lat="40.1812" lon="-1.81886">
        <ele>1377.8</ele>
        <time>2021-10-09 18:17:25</time>
      </trkpt>
      <trkpt lat="40.18118" lon="-1.81885">
        <ele>1378.2</ele>
        <time>2021-10-09 18:17:26</time>
      </trkpt>
      <trkpt lat="40.18117" lon="-1.81883">
        <ele>1378.4</ele>
        <time>2021-10-09 18:17:27</time>
      </trkpt>
      <trkpt lat="40.18115" lon="-1.81883">
        <ele>1378.4</ele>
        <time>2021-10-09 18:17:28</time>
      </trkpt>
      <trkpt lat="40.18114" lon="-1.81882">
        <ele>1378.8</ele>
        <time>2021-10-09 18:17:29</time>
      </trkpt>
      <trkpt lat="40.18112" lon="-1.81881">
        <ele>1379</ele>
        <time>2021-10-09 18:17:30</time>
      </trkpt>
      <trkpt lat="40.1811" lon="-1.8188">
        <ele>1379.4</ele>
        <time>2021-10-09 18:17:31</time>
      </trkpt>
      <trkpt lat="40.18108" lon="-1.81879">
        <ele>1379.6</ele>
        <time>2021-10-09 18:17:32</time>
      </trkpt>
      <trkpt lat="40.18107" lon="-1.81878">
        <ele>1379.8</ele>
        <time>2021-10-09 18:17:33</time>
      </trkpt>
      <trkpt lat="40.18106" lon="-1.81877">
        <ele>1379.8</ele>
        <time>2021-10-09 18:17:34</time>
      </trkpt>
      <trkpt lat="40.18104" lon="-1.81875">
        <ele>1380.2</ele>
        <time>2021-10-09 18:17:35</time>
      </trkpt>
      <trkpt lat="40.18102" lon="-1.81875">
        <ele>1380.4</ele>
        <time>2021-10-09 18:17:36</time>
      </trkpt>
      <trkpt lat="40.18101" lon="-1.81874">
        <ele>1380.8</ele>
        <time>2021-10-09 18:17:37</time>
      </trkpt>
      <trkpt lat="40.181" lon="-1.81874">
        <ele>1381</ele>
        <time>2021-10-09 18:17:38</time>
      </trkpt>
      <trkpt lat="40.18098" lon="-1.81873">
        <ele>1381</ele>
        <time>2021-10-09 18:17:39</time>
      </trkpt>
      <trkpt lat="40.18096" lon="-1.81873">
        <ele>1381.4</ele>
        <time>2021-10-09 18:17:40</time>
      </trkpt>
      <trkpt lat="40.18095" lon="-1.81872">
        <ele>1381.4</ele>
        <time>2021-10-09 18:17:41</time>
      </trkpt>
      <trkpt lat="40.18093" lon="-1.81871">
        <ele>1381.8</ele>
        <time>2021-10-09 18:17:42</time>
      </trkpt>
      <trkpt lat="40.18091" lon="-1.81871">
        <ele>1381.8</ele>
        <time>2021-10-09 18:17:43</time>
      </trkpt>
      <trkpt lat="40.18089" lon="-1.81871">
        <ele>1382</ele>
        <time>2021-10-09 18:17:44</time>
      </trkpt>
      <trkpt lat="40.18087" lon="-1.81871">
        <ele>1382</ele>
        <time>2021-10-09 18:17:45</time>
      </trkpt>
      <trkpt lat="40.18085" lon="-1.81871">
        <ele>1382.4</ele>
        <time>2021-10-09 18:17:46</time>
      </trkpt>
      <trkpt lat="40.18083" lon="-1.81871">
        <ele>1382.8</ele>
        <time>2021-10-09 18:17:47</time>
      </trkpt>
      <trkpt lat="40.18081" lon="-1.81871">
        <ele>1382.8</ele>
        <time>2021-10-09 18:17:48</time>
      </trkpt>
      <trkpt lat="40.1808" lon="-1.8187">
        <ele>1383</ele>
        <time>2021-10-09 18:17:49</time>
      </trkpt>
      <trkpt lat="40.18077" lon="-1.81869">
        <ele>1383.4</ele>
        <time>2021-10-09 18:17:50</time>
      </trkpt>
      <trkpt lat="40.18075" lon="-1.81869">
        <ele>1383.6</ele>
        <time>2021-10-09 18:17:51</time>
      </trkpt>
      <trkpt lat="40.18073" lon="-1.81869">
        <ele>1383.8</ele>
        <time>2021-10-09 18:17:52</time>
      </trkpt>
      <trkpt lat="40.18071" lon="-1.81869">
        <ele>1384</ele>
        <time>2021-10-09 18:17:53</time>
      </trkpt>
      <trkpt lat="40.18069" lon="-1.81869">
        <ele>1384.2</ele>
        <time>2021-10-09 18:17:54</time>
      </trkpt>
      <trkpt lat="40.18067" lon="-1.8187">
        <ele>1384.4</ele>
        <time>2021-10-09 18:17:55</time>
      </trkpt>
      <trkpt lat="40.18064" lon="-1.8187">
        <ele>1384.4</ele>
        <time>2021-10-09 18:17:56</time>
      </trkpt>
      <trkpt lat="40.18062" lon="-1.8187">
        <ele>1384.8</ele>
        <time>2021-10-09 18:17:57</time>
      </trkpt>
      <trkpt lat="40.1806" lon="-1.8187">
        <ele>1384.8</ele>
        <time>2021-10-09 18:17:58</time>
      </trkpt>
      <trkpt lat="40.18058" lon="-1.81869">
        <ele>1385.2</ele>
        <time>2021-10-09 18:17:59</time>
      </trkpt>
      <trkpt lat="40.18056" lon="-1.81868">
        <ele>1385.4</ele>
        <time>2021-10-09 18:18:00</time>
      </trkpt>
      <trkpt lat="40.18054" lon="-1.81866">
        <ele>1385.6</ele>
        <time>2021-10-09 18:18:01</time>
      </trkpt>
      <trkpt lat="40.18051" lon="-1.81865">
        <ele>1385.6</ele>
        <time>2021-10-09 18:18:02</time>
      </trkpt>
      <trkpt lat="40.18049" lon="-1.81864">
        <ele>1386</ele>
        <time>2021-10-09 18:18:03</time>
      </trkpt>
      <trkpt lat="40.18047" lon="-1.81863">
        <ele>1386.2</ele>
        <time>2021-10-09 18:18:04</time>
      </trkpt>
      <trkpt lat="40.18045" lon="-1.81862">
        <ele>1386.4</ele>
        <time>2021-10-09 18:18:05</time>
      </trkpt>
      <trkpt lat="40.18043" lon="-1.81861">
        <ele>1386.6</ele>
        <time>2021-10-09 18:18:06</time>
      </trkpt>
      <trkpt lat="40.18041" lon="-1.8186">
        <ele>1386.6</ele>
        <time>2021-10-09 18:18:07</time>
      </trkpt>
      <trkpt lat="40.18038" lon="-1.81859">
        <ele>1387</ele>
        <time>2021-10-09 18:18:08</time>
      </trkpt>
      <trkpt lat="40.18037" lon="-1.81858">
        <ele>1387.2</ele>
        <time>2021-10-09 18:18:09</time>
      </trkpt>
      <trkpt lat="40.18035" lon="-1.81858">
        <ele>1387.6</ele>
        <time>2021-10-09 18:18:10</time>
      </trkpt>
      <trkpt lat="40.18033" lon="-1.81856">
        <ele>1388</ele>
        <time>2021-10-09 18:18:11</time>
      </trkpt>
      <trkpt lat="40.18031" lon="-1.81855">
        <ele>1388.2</ele>
        <time>2021-10-09 18:18:12</time>
      </trkpt>
      <trkpt lat="40.18028" lon="-1.81854">
        <ele>1388.6</ele>
        <time>2021-10-09 18:18:13</time>
      </trkpt>
      <trkpt lat="40.18026" lon="-1.81853">
        <ele>1388.6</ele>
        <time>2021-10-09 18:18:14</time>
      </trkpt>
      <trkpt lat="40.18024" lon="-1.81852">
        <ele>1388.6</ele>
        <time>2021-10-09 18:18:15</time>
      </trkpt>
      <trkpt lat="40.18022" lon="-1.81851">
        <ele>1388.6</ele>
        <time>2021-10-09 18:18:16</time>
      </trkpt>
      <trkpt lat="40.18019" lon="-1.8185">
        <ele>1389</ele>
        <time>2021-10-09 18:18:17</time>
      </trkpt>
      <trkpt lat="40.18017" lon="-1.81849">
        <ele>1389</ele>
        <time>2021-10-09 18:18:18</time>
      </trkpt>
      <trkpt lat="40.18015" lon="-1.81848">
        <ele>1389.2</ele>
        <time>2021-10-09 18:18:19</time>
      </trkpt>
      <trkpt lat="40.18015" lon="-1.81848">
        <ele>1389.2</ele>
        <time>2021-10-09 18:18:20</time>
      </trkpt>
      <trkpt lat="40.18013" lon="-1.81848">
        <ele>1389.6</ele>
        <time>2021-10-09 18:18:21</time>
      </trkpt>
      <trkpt lat="40.18011" lon="-1.81847">
        <ele>1389.6</ele>
        <time>2021-10-09 18:18:22</time>
      </trkpt>
      <trkpt lat="40.18009" lon="-1.81846">
        <ele>1390</ele>
        <time>2021-10-09 18:18:23</time>
      </trkpt>
      <trkpt lat="40.18006" lon="-1.81845">
        <ele>1390.2</ele>
        <time>2021-10-09 18:18:24</time>
      </trkpt>
      <trkpt lat="40.18004" lon="-1.81844">
        <ele>1390.4</ele>
        <time>2021-10-09 18:18:25</time>
      </trkpt>
      <trkpt lat="40.18002" lon="-1.81843">
        <ele>1390.6</ele>
        <time>2021-10-09 18:18:26</time>
      </trkpt>
      <trkpt lat="40.18" lon="-1.81842">
        <ele>1391</ele>
        <time>2021-10-09 18:18:27</time>
      </trkpt>
      <trkpt lat="40.17998" lon="-1.8184">
        <ele>1391.2</ele>
        <time>2021-10-09 18:18:28</time>
      </trkpt>
      <trkpt lat="40.17995" lon="-1.81839">
        <ele>1391.4</ele>
        <time>2021-10-09 18:18:29</time>
      </trkpt>
      <trkpt lat="40.17993" lon="-1.81837">
        <ele>1391.4</ele>
        <time>2021-10-09 18:18:30</time>
      </trkpt>
      <trkpt lat="40.17991" lon="-1.81836">
        <ele>1391.8</ele>
        <time>2021-10-09 18:18:31</time>
      </trkpt>
      <trkpt lat="40.17989" lon="-1.81834">
        <ele>1391.8</ele>
        <time>2021-10-09 18:18:32</time>
      </trkpt>
      <trkpt lat="40.17987" lon="-1.81832">
        <ele>1392.4</ele>
        <time>2021-10-09 18:18:33</time>
      </trkpt>
      <trkpt lat="40.17985" lon="-1.81831">
        <ele>1392.6</ele>
        <time>2021-10-09 18:18:34</time>
      </trkpt>
      <trkpt lat="40.17983" lon="-1.8183">
        <ele>1392.8</ele>
        <time>2021-10-09 18:18:35</time>
      </trkpt>
      <trkpt lat="40.17981" lon="-1.81829">
        <ele>1393</ele>
        <time>2021-10-09 18:18:36</time>
      </trkpt>
      <trkpt lat="40.17979" lon="-1.81828">
        <ele>1393.2</ele>
        <time>2021-10-09 18:18:37</time>
      </trkpt>
      <trkpt lat="40.17977" lon="-1.81826">
        <ele>1393.4</ele>
        <time>2021-10-09 18:18:38</time>
      </trkpt>
      <trkpt lat="40.17974" lon="-1.81824">
        <ele>1393.8</ele>
        <time>2021-10-09 18:18:39</time>
      </trkpt>
      <trkpt lat="40.17972" lon="-1.81822">
        <ele>1394.2</ele>
        <time>2021-10-09 18:18:40</time>
      </trkpt>
      <trkpt lat="40.17969" lon="-1.8182">
        <ele>1394.4</ele>
        <time>2021-10-09 18:18:41</time>
      </trkpt>
      <trkpt lat="40.17967" lon="-1.81819">
        <ele>1394.6</ele>
        <time>2021-10-09 18:18:42</time>
      </trkpt>
      <trkpt lat="40.17964" lon="-1.81817">
        <ele>1394.8</ele>
        <time>2021-10-09 18:18:43</time>
      </trkpt>
      <trkpt lat="40.17962" lon="-1.81815">
        <ele>1395.2</ele>
        <time>2021-10-09 18:18:44</time>
      </trkpt>
      <trkpt lat="40.1796" lon="-1.81814">
        <ele>1395.4</ele>
        <time>2021-10-09 18:18:45</time>
      </trkpt>
      <trkpt lat="40.17959" lon="-1.81812">
        <ele>1395.8</ele>
        <time>2021-10-09 18:18:46</time>
      </trkpt>
      <trkpt lat="40.17957" lon="-1.8181">
        <ele>1396.2</ele>
        <time>2021-10-09 18:18:47</time>
      </trkpt>
      <trkpt lat="40.17955" lon="-1.81809">
        <ele>1396.4</ele>
        <time>2021-10-09 18:18:48</time>
      </trkpt>
      <trkpt lat="40.17953" lon="-1.81807">
        <ele>1396.6</ele>
        <time>2021-10-09 18:18:49</time>
      </trkpt>
      <trkpt lat="40.17951" lon="-1.81805">
        <ele>1396.8</ele>
        <time>2021-10-09 18:18:50</time>
      </trkpt>
      <trkpt lat="40.17949" lon="-1.81803">
        <ele>1397</ele>
        <time>2021-10-09 18:18:51</time>
      </trkpt>
      <trkpt lat="40.17947" lon="-1.81801">
        <ele>1397.4</ele>
        <time>2021-10-09 18:18:52</time>
      </trkpt>
      <trkpt lat="40.17946" lon="-1.81799">
        <ele>1397.6</ele>
        <time>2021-10-09 18:18:53</time>
      </trkpt>
      <trkpt lat="40.17944" lon="-1.81797">
        <ele>1397.6</ele>
        <time>2021-10-09 18:18:54</time>
      </trkpt>
      <trkpt lat="40.17943" lon="-1.81795">
        <ele>1397.8</ele>
        <time>2021-10-09 18:18:55</time>
      </trkpt>
      <trkpt lat="40.17941" lon="-1.81793">
        <ele>1397.8</ele>
        <time>2021-10-09 18:18:56</time>
      </trkpt>
      <trkpt lat="40.1794" lon="-1.81791">
        <ele>1398.2</ele>
        <time>2021-10-09 18:18:57</time>
      </trkpt>
      <trkpt lat="40.17938" lon="-1.8179">
        <ele>1398.2</ele>
        <time>2021-10-09 18:18:58</time>
      </trkpt>
      <trkpt lat="40.17936" lon="-1.81788">
        <ele>1398.4</ele>
        <time>2021-10-09 18:18:59</time>
      </trkpt>
      <trkpt lat="40.17935" lon="-1.81786">
        <ele>1398.4</ele>
        <time>2021-10-09 18:19:00</time>
      </trkpt>
      <trkpt lat="40.17933" lon="-1.81784">
        <ele>1398.8</ele>
        <time>2021-10-09 18:19:01</time>
      </trkpt>
      <trkpt lat="40.17932" lon="-1.81782">
        <ele>1398.8</ele>
        <time>2021-10-09 18:19:02</time>
      </trkpt>
      <trkpt lat="40.17931" lon="-1.8178">
        <ele>1399.2</ele>
        <time>2021-10-09 18:19:03</time>
      </trkpt>
      <trkpt lat="40.17929" lon="-1.81777">
        <ele>1399.2</ele>
        <time>2021-10-09 18:19:04</time>
      </trkpt>
      <trkpt lat="40.17928" lon="-1.81775">
        <ele>1399.4</ele>
        <time>2021-10-09 18:19:05</time>
      </trkpt>
      <trkpt lat="40.17927" lon="-1.81773">
        <ele>1399.4</ele>
        <time>2021-10-09 18:19:06</time>
      </trkpt>
      <trkpt lat="40.17926" lon="-1.81771">
        <ele>1399.6</ele>
        <time>2021-10-09 18:19:07</time>
      </trkpt>
      <trkpt lat="40.17925" lon="-1.81768">
        <ele>1399.6</ele>
        <time>2021-10-09 18:19:08</time>
      </trkpt>
      <trkpt lat="40.17923" lon="-1.81766">
        <ele>1400</ele>
        <time>2021-10-09 18:19:09</time>
      </trkpt>
      <trkpt lat="40.17922" lon="-1.81763">
        <ele>1400</ele>
        <time>2021-10-09 18:19:10</time>
      </trkpt>
      <trkpt lat="40.17921" lon="-1.81761">
        <ele>1400.2</ele>
        <time>2021-10-09 18:19:11</time>
      </trkpt>
      <trkpt lat="40.17919" lon="-1.81759">
        <ele>1400.2</ele>
        <time>2021-10-09 18:19:12</time>
      </trkpt>
      <trkpt lat="40.17918" lon="-1.81757">
        <ele>1400.4</ele>
        <time>2021-10-09 18:19:13</time>
      </trkpt>
      <trkpt lat="40.17916" lon="-1.81755">
        <ele>1400.4</ele>
        <time>2021-10-09 18:19:14</time>
      </trkpt>
      <trkpt lat="40.17915" lon="-1.81752">
        <ele>1400.4</ele>
        <time>2021-10-09 18:19:15</time>
      </trkpt>
      <trkpt lat="40.17914" lon="-1.8175">
        <ele>1400.6</ele>
        <time>2021-10-09 18:19:16</time>
      </trkpt>
      <trkpt lat="40.17912" lon="-1.81748">
        <ele>1400.6</ele>
        <time>2021-10-09 18:19:17</time>
      </trkpt>
      <trkpt lat="40.17911" lon="-1.81745">
        <ele>1400.6</ele>
        <time>2021-10-09 18:19:18</time>
      </trkpt>
      <trkpt lat="40.1791" lon="-1.81743">
        <ele>1400.8</ele>
        <time>2021-10-09 18:19:19</time>
      </trkpt>
      <trkpt lat="40.17909" lon="-1.8174">
        <ele>1400.8</ele>
        <time>2021-10-09 18:19:20</time>
      </trkpt>
      <trkpt lat="40.17907" lon="-1.81738">
        <ele>1400.8</ele>
        <time>2021-10-09 18:19:21</time>
      </trkpt>
      <trkpt lat="40.17906" lon="-1.81736">
        <ele>1401</ele>
        <time>2021-10-09 18:19:22</time>
      </trkpt>
      <trkpt lat="40.17904" lon="-1.81734">
        <ele>1401</ele>
        <time>2021-10-09 18:19:23</time>
      </trkpt>
      <trkpt lat="40.17902" lon="-1.81732">
        <ele>1401</ele>
        <time>2021-10-09 18:19:24</time>
      </trkpt>
      <trkpt lat="40.179" lon="-1.81729">
        <ele>1401</ele>
        <time>2021-10-09 18:19:25</time>
      </trkpt>
      <trkpt lat="40.17899" lon="-1.81727">
        <ele>1401</ele>
        <time>2021-10-09 18:19:26</time>
      </trkpt>
      <trkpt lat="40.17897" lon="-1.81724">
        <ele>1401</ele>
        <time>2021-10-09 18:19:27</time>
      </trkpt>
      <trkpt lat="40.17895" lon="-1.81722">
        <ele>1401.4</ele>
        <time>2021-10-09 18:19:28</time>
      </trkpt>
      <trkpt lat="40.17893" lon="-1.81719">
        <ele>1401.4</ele>
        <time>2021-10-09 18:19:29</time>
      </trkpt>
      <trkpt lat="40.17891" lon="-1.81717">
        <ele>1401.4</ele>
        <time>2021-10-09 18:19:30</time>
      </trkpt>
      <trkpt lat="40.17888" lon="-1.81714">
        <ele>1401.4</ele>
        <time>2021-10-09 18:19:31</time>
      </trkpt>
      <trkpt lat="40.17886" lon="-1.81711">
        <ele>1401.4</ele>
        <time>2021-10-09 18:19:32</time>
      </trkpt>
      <trkpt lat="40.17884" lon="-1.81708">
        <ele>1401.4</ele>
        <time>2021-10-09 18:19:33</time>
      </trkpt>
      <trkpt lat="40.17881" lon="-1.81705">
        <ele>1401.4</ele>
        <time>2021-10-09 18:19:34</time>
      </trkpt>
      <trkpt lat="40.17878" lon="-1.81702">
        <ele>1401.4</ele>
        <time>2021-10-09 18:19:35</time>
      </trkpt>
      <trkpt lat="40.17876" lon="-1.81699">
        <ele>1401.4</ele>
        <time>2021-10-09 18:19:36</time>
      </trkpt>
      <trkpt lat="40.17873" lon="-1.81695">
        <ele>1401.4</ele>
        <time>2021-10-09 18:19:37</time>
      </trkpt>
      <trkpt lat="40.17871" lon="-1.81692">
        <ele>1401.4</ele>
        <time>2021-10-09 18:19:38</time>
      </trkpt>
      <trkpt lat="40.17868" lon="-1.81689">
        <ele>1401.4</ele>
        <time>2021-10-09 18:19:39</time>
      </trkpt>
      <trkpt lat="40.17864" lon="-1.81686">
        <ele>1401.4</ele>
        <time>2021-10-09 18:19:40</time>
      </trkpt>
      <trkpt lat="40.17861" lon="-1.81683">
        <ele>1401.4</ele>
        <time>2021-10-09 18:19:41</time>
      </trkpt>
      <trkpt lat="40.17858" lon="-1.8168">
        <ele>1401</ele>
        <time>2021-10-09 18:19:42</time>
      </trkpt>
      <trkpt lat="40.17854" lon="-1.81677">
        <ele>1401</ele>
        <time>2021-10-09 18:19:43</time>
      </trkpt>
      <trkpt lat="40.1785" lon="-1.81673">
        <ele>1401</ele>
        <time>2021-10-09 18:19:44</time>
      </trkpt>
      <trkpt lat="40.17846" lon="-1.81669">
        <ele>1400.6</ele>
        <time>2021-10-09 18:19:45</time>
      </trkpt>
      <trkpt lat="40.17842" lon="-1.81665">
        <ele>1400.6</ele>
        <time>2021-10-09 18:19:46</time>
      </trkpt>
      <trkpt lat="40.17838" lon="-1.81661">
        <ele>1400.4</ele>
        <time>2021-10-09 18:19:47</time>
      </trkpt>
      <trkpt lat="40.17834" lon="-1.81657">
        <ele>1400.4</ele>
        <time>2021-10-09 18:19:48</time>
      </trkpt>
      <trkpt lat="40.1783" lon="-1.81653">
        <ele>1400.4</ele>
        <time>2021-10-09 18:19:49</time>
      </trkpt>
      <trkpt lat="40.17825" lon="-1.81649">
        <ele>1400</ele>
        <time>2021-10-09 18:19:50</time>
      </trkpt>
      <trkpt lat="40.1782" lon="-1.81645">
        <ele>1400</ele>
        <time>2021-10-09 18:19:51</time>
      </trkpt>
      <trkpt lat="40.17815" lon="-1.8164">
        <ele>1399.6</ele>
        <time>2021-10-09 18:19:52</time>
      </trkpt>
      <trkpt lat="40.17809" lon="-1.81636">
        <ele>1399.4</ele>
        <time>2021-10-09 18:19:53</time>
      </trkpt>
      <trkpt lat="40.17803" lon="-1.81632">
        <ele>1399</ele>
        <time>2021-10-09 18:19:54</time>
      </trkpt>
      <trkpt lat="40.17797" lon="-1.81628">
        <ele>1398.8</ele>
        <time>2021-10-09 18:19:55</time>
      </trkpt>
      <trkpt lat="40.1779" lon="-1.81625">
        <ele>1398.4</ele>
        <time>2021-10-09 18:19:56</time>
      </trkpt>
      <trkpt lat="40.17783" lon="-1.81622">
        <ele>1398</ele>
        <time>2021-10-09 18:19:57</time>
      </trkpt>
      <trkpt lat="40.17775" lon="-1.81619">
        <ele>1397.6</ele>
        <time>2021-10-09 18:19:58</time>
      </trkpt>
      <trkpt lat="40.17768" lon="-1.81616">
        <ele>1397</ele>
        <time>2021-10-09 18:19:59</time>
      </trkpt>
      <trkpt lat="40.17759" lon="-1.81614">
        <ele>1396.4</ele>
        <time>2021-10-09 18:20:00</time>
      </trkpt>
      <trkpt lat="40.1775" lon="-1.81613">
        <ele>1395.6</ele>
        <time>2021-10-09 18:20:01</time>
      </trkpt>
      <trkpt lat="40.17741" lon="-1.81612">
        <ele>1395</ele>
        <time>2021-10-09 18:20:02</time>
      </trkpt>
      <trkpt lat="40.17731" lon="-1.81611">
        <ele>1394.4</ele>
        <time>2021-10-09 18:20:03</time>
      </trkpt>
      <trkpt lat="40.1772" lon="-1.8161">
        <ele>1393.6</ele>
        <time>2021-10-09 18:20:04</time>
      </trkpt>
      <trkpt lat="40.1771" lon="-1.8161">
        <ele>1392.8</ele>
        <time>2021-10-09 18:20:05</time>
      </trkpt>
      <trkpt lat="40.17699" lon="-1.81611">
        <ele>1391.8</ele>
        <time>2021-10-09 18:20:06</time>
      </trkpt>
      <trkpt lat="40.17687" lon="-1.81613">
        <ele>1390.8</ele>
        <time>2021-10-09 18:20:07</time>
      </trkpt>
      <trkpt lat="40.17675" lon="-1.81616">
        <ele>1389.6</ele>
        <time>2021-10-09 18:20:08</time>
      </trkpt>
      <trkpt lat="40.17663" lon="-1.81618">
        <ele>1388.4</ele>
        <time>2021-10-09 18:20:09</time>
      </trkpt>
      <trkpt lat="40.17651" lon="-1.8162">
        <ele>1387.2</ele>
        <time>2021-10-09 18:20:10</time>
      </trkpt>
      <trkpt lat="40.17639" lon="-1.81623">
        <ele>1386</ele>
        <time>2021-10-09 18:20:11</time>
      </trkpt>
      <trkpt lat="40.17626" lon="-1.81625">
        <ele>1384.8</ele>
        <time>2021-10-09 18:20:12</time>
      </trkpt>
      <trkpt lat="40.17613" lon="-1.81627">
        <ele>1383.6</ele>
        <time>2021-10-09 18:20:13</time>
      </trkpt>
      <trkpt lat="40.176" lon="-1.8163">
        <ele>1382.2</ele>
        <time>2021-10-09 18:20:14</time>
      </trkpt>
      <trkpt lat="40.17586" lon="-1.81633">
        <ele>1381</ele>
        <time>2021-10-09 18:20:15</time>
      </trkpt>
      <trkpt lat="40.17572" lon="-1.81636">
        <ele>1379.4</ele>
        <time>2021-10-09 18:20:16</time>
      </trkpt>
      <trkpt lat="40.17558" lon="-1.81638">
        <ele>1377.8</ele>
        <time>2021-10-09 18:20:17</time>
      </trkpt>
      <trkpt lat="40.17544" lon="-1.8164">
        <ele>1376.4</ele>
        <time>2021-10-09 18:20:18</time>
      </trkpt>
      <trkpt lat="40.1753" lon="-1.81643">
        <ele>1374.8</ele>
        <time>2021-10-09 18:20:19</time>
      </trkpt>
      <trkpt lat="40.17516" lon="-1.81645">
        <ele>1373.6</ele>
        <time>2021-10-09 18:20:20</time>
      </trkpt>
      <trkpt lat="40.17501" lon="-1.81648">
        <ele>1372.4</ele>
        <time>2021-10-09 18:20:21</time>
      </trkpt>
      <trkpt lat="40.17486" lon="-1.81651">
        <ele>1371.2</ele>
        <time>2021-10-09 18:20:22</time>
      </trkpt>
      <trkpt lat="40.17472" lon="-1.81654">
        <ele>1370</ele>
        <time>2021-10-09 18:20:23</time>
      </trkpt>
      <trkpt lat="40.17457" lon="-1.81656">
        <ele>1368.6</ele>
        <time>2021-10-09 18:20:24</time>
      </trkpt>
      <trkpt lat="40.17443" lon="-1.81658">
        <ele>1367.2</ele>
        <time>2021-10-09 18:20:25</time>
      </trkpt>
      <trkpt lat="40.17429" lon="-1.8166">
        <ele>1366</ele>
        <time>2021-10-09 18:20:26</time>
      </trkpt>
      <trkpt lat="40.17414" lon="-1.81663">
        <ele>1364.8</ele>
        <time>2021-10-09 18:20:27</time>
      </trkpt>
      <trkpt lat="40.174" lon="-1.81665">
        <ele>1363.8</ele>
        <time>2021-10-09 18:20:28</time>
      </trkpt>
      <trkpt lat="40.17386" lon="-1.81668">
        <ele>1362.8</ele>
        <time>2021-10-09 18:20:29</time>
      </trkpt>
      <trkpt lat="40.17371" lon="-1.8167">
        <ele>1361.6</ele>
        <time>2021-10-09 18:20:30</time>
      </trkpt>
      <trkpt lat="40.17357" lon="-1.81672">
        <ele>1360.6</ele>
        <time>2021-10-09 18:20:31</time>
      </trkpt>
      <trkpt lat="40.17343" lon="-1.81675">
        <ele>1359.4</ele>
        <time>2021-10-09 18:20:32</time>
      </trkpt>
      <trkpt lat="40.17331" lon="-1.81678">
        <ele>1358.4</ele>
        <time>2021-10-09 18:20:33</time>
      </trkpt>
      <trkpt lat="40.17319" lon="-1.81679">
        <ele>1357.4</ele>
        <time>2021-10-09 18:20:34</time>
      </trkpt>
      <trkpt lat="40.17309" lon="-1.81681">
        <ele>1356.6</ele>
        <time>2021-10-09 18:20:35</time>
      </trkpt>
      <trkpt lat="40.173" lon="-1.81683">
        <ele>1355.6</ele>
        <time>2021-10-09 18:20:36</time>
      </trkpt>
      <trkpt lat="40.17291" lon="-1.81684">
        <ele>1354.8</ele>
        <time>2021-10-09 18:20:37</time>
      </trkpt>
      <trkpt lat="40.17282" lon="-1.81686">
        <ele>1354</ele>
        <time>2021-10-09 18:20:38</time>
      </trkpt>
      <trkpt lat="40.17273" lon="-1.81687">
        <ele>1353.2</ele>
        <time>2021-10-09 18:20:39</time>
      </trkpt>
      <trkpt lat="40.17264" lon="-1.81689">
        <ele>1352.4</ele>
        <time>2021-10-09 18:20:40</time>
      </trkpt>
      <trkpt lat="40.17254" lon="-1.8169">
        <ele>1351.6</ele>
        <time>2021-10-09 18:20:41</time>
      </trkpt>
      <trkpt lat="40.17244" lon="-1.81691">
        <ele>1350.8</ele>
        <time>2021-10-09 18:20:42</time>
      </trkpt>
      <trkpt lat="40.17233" lon="-1.81691">
        <ele>1349.8</ele>
        <time>2021-10-09 18:20:43</time>
      </trkpt>
      <trkpt lat="40.17223" lon="-1.81691">
        <ele>1349</ele>
        <time>2021-10-09 18:20:44</time>
      </trkpt>
      <trkpt lat="40.17211" lon="-1.8169">
        <ele>1348</ele>
        <time>2021-10-09 18:20:45</time>
      </trkpt>
      <trkpt lat="40.172" lon="-1.81689">
        <ele>1347</ele>
        <time>2021-10-09 18:20:46</time>
      </trkpt>
      <trkpt lat="40.17188" lon="-1.81687">
        <ele>1346</ele>
        <time>2021-10-09 18:20:47</time>
      </trkpt>
      <trkpt lat="40.17176" lon="-1.81686">
        <ele>1345</ele>
        <time>2021-10-09 18:20:48</time>
      </trkpt>
      <trkpt lat="40.17164" lon="-1.81684">
        <ele>1344</ele>
        <time>2021-10-09 18:20:49</time>
      </trkpt>
      <trkpt lat="40.17152" lon="-1.81681">
        <ele>1342.8</ele>
        <time>2021-10-09 18:20:50</time>
      </trkpt>
      <trkpt lat="40.17139" lon="-1.8168">
        <ele>1341.6</ele>
        <time>2021-10-09 18:20:51</time>
      </trkpt>
      <trkpt lat="40.17127" lon="-1.81677">
        <ele>1340.6</ele>
        <time>2021-10-09 18:20:52</time>
      </trkpt>
      <trkpt lat="40.17115" lon="-1.81675">
        <ele>1339.8</ele>
        <time>2021-10-09 18:20:53</time>
      </trkpt>
      <trkpt lat="40.17103" lon="-1.81672">
        <ele>1338.8</ele>
        <time>2021-10-09 18:20:54</time>
      </trkpt>
      <trkpt lat="40.17092" lon="-1.81668">
        <ele>1338</ele>
        <time>2021-10-09 18:20:55</time>
      </trkpt>
      <trkpt lat="40.1708" lon="-1.81665">
        <ele>1337.4</ele>
        <time>2021-10-09 18:20:56</time>
      </trkpt>
      <trkpt lat="40.17069" lon="-1.81662">
        <ele>1337</ele>
        <time>2021-10-09 18:20:57</time>
      </trkpt>
      <trkpt lat="40.17058" lon="-1.81658">
        <ele>1336.6</ele>
        <time>2021-10-09 18:20:58</time>
      </trkpt>
      <trkpt lat="40.17047" lon="-1.81654">
        <ele>1336.2</ele>
        <time>2021-10-09 18:20:59</time>
      </trkpt>
      <trkpt lat="40.17037" lon="-1.8165">
        <ele>1335.8</ele>
        <time>2021-10-09 18:21:00</time>
      </trkpt>
      <trkpt lat="40.17026" lon="-1.81646">
        <ele>1335.4</ele>
        <time>2021-10-09 18:21:01</time>
      </trkpt>
      <trkpt lat="40.17016" lon="-1.81643">
        <ele>1335.2</ele>
        <time>2021-10-09 18:21:02</time>
      </trkpt>
      <trkpt lat="40.17006" lon="-1.8164">
        <ele>1334.8</ele>
        <time>2021-10-09 18:21:03</time>
      </trkpt>
      <trkpt lat="40.16997" lon="-1.81636">
        <ele>1334.4</ele>
        <time>2021-10-09 18:21:04</time>
      </trkpt>
      <trkpt lat="40.16987" lon="-1.81633">
        <ele>1334.4</ele>
        <time>2021-10-09 18:21:05</time>
      </trkpt>
      <trkpt lat="40.16978" lon="-1.81629">
        <ele>1334</ele>
        <time>2021-10-09 18:21:06</time>
      </trkpt>
      <trkpt lat="40.16968" lon="-1.81626">
        <ele>1334</ele>
        <time>2021-10-09 18:21:07</time>
      </trkpt>
      <trkpt lat="40.16959" lon="-1.81623">
        <ele>1333.8</ele>
        <time>2021-10-09 18:21:08</time>
      </trkpt>
      <trkpt lat="40.1695" lon="-1.81621">
        <ele>1333.8</ele>
        <time>2021-10-09 18:21:09</time>
      </trkpt>
      <trkpt lat="40.16941" lon="-1.81618">
        <ele>1333.4</ele>
        <time>2021-10-09 18:21:10</time>
      </trkpt>
      <trkpt lat="40.16934" lon="-1.81617">
        <ele>1333.4</ele>
        <time>2021-10-09 18:21:11</time>
      </trkpt>
      <trkpt lat="40.16927" lon="-1.81616">
        <ele>1333.4</ele>
        <time>2021-10-09 18:21:12</time>
      </trkpt>
      <trkpt lat="40.16921" lon="-1.81613">
        <ele>1333.4</ele>
        <time>2021-10-09 18:21:13</time>
      </trkpt>
      <trkpt lat="40.16915" lon="-1.81612">
        <ele>1333.4</ele>
        <time>2021-10-09 18:21:14</time>
      </trkpt>
      <trkpt lat="40.16908" lon="-1.8161">
        <ele>1333.4</ele>
        <time>2021-10-09 18:21:15</time>
      </trkpt>
      <trkpt lat="40.16901" lon="-1.81606">
        <ele>1333</ele>
        <time>2021-10-09 18:21:16</time>
      </trkpt>
      <trkpt lat="40.16895" lon="-1.81604">
        <ele>1333</ele>
        <time>2021-10-09 18:21:17</time>
      </trkpt>
      <trkpt lat="40.16889" lon="-1.816">
        <ele>1332.8</ele>
        <time>2021-10-09 18:21:18</time>
      </trkpt>
      <trkpt lat="40.16882" lon="-1.81597">
        <ele>1332.8</ele>
        <time>2021-10-09 18:21:19</time>
      </trkpt>
      <trkpt lat="40.16876" lon="-1.81594">
        <ele>1332.6</ele>
        <time>2021-10-09 18:21:20</time>
      </trkpt>
      <trkpt lat="40.16868" lon="-1.81593">
        <ele>1332.6</ele>
        <time>2021-10-09 18:21:21</time>
      </trkpt>
      <trkpt lat="40.16861" lon="-1.81593">
        <ele>1332.6</ele>
        <time>2021-10-09 18:21:22</time>
      </trkpt>
      <trkpt lat="40.16855" lon="-1.81591">
        <ele>1332.6</ele>
        <time>2021-10-09 18:21:23</time>
      </trkpt>
      <trkpt lat="40.16847" lon="-1.8159">
        <ele>1332.6</ele>
        <time>2021-10-09 18:21:24</time>
      </trkpt>
      <trkpt lat="40.1684" lon="-1.81589">
        <ele>1332.2</ele>
        <time>2021-10-09 18:21:25</time>
      </trkpt>
      <trkpt lat="40.16833" lon="-1.81589">
        <ele>1332.2</ele>
        <time>2021-10-09 18:21:26</time>
      </trkpt>
      <trkpt lat="40.16826" lon="-1.81587">
        <ele>1332.2</ele>
        <time>2021-10-09 18:21:27</time>
      </trkpt>
      <trkpt lat="40.1682" lon="-1.81586">
        <ele>1332.2</ele>
        <time>2021-10-09 18:21:28</time>
      </trkpt>
      <trkpt lat="40.16813" lon="-1.81585">
        <ele>1331.8</ele>
        <time>2021-10-09 18:21:29</time>
      </trkpt>
      <trkpt lat="40.16806" lon="-1.81583">
        <ele>1331.8</ele>
        <time>2021-10-09 18:21:30</time>
      </trkpt>
      <trkpt lat="40.168" lon="-1.81581">
        <ele>1331.8</ele>
        <time>2021-10-09 18:21:31</time>
      </trkpt>
      <trkpt lat="40.16794" lon="-1.81578">
        <ele>1332</ele>
        <time>2021-10-09 18:21:32</time>
      </trkpt>
      <trkpt lat="40.16788" lon="-1.81574">
        <ele>1332</ele>
        <time>2021-10-09 18:21:33</time>
      </trkpt>
      <trkpt lat="40.16783" lon="-1.8157">
        <ele>1332.4</ele>
        <time>2021-10-09 18:21:34</time>
      </trkpt>
      <trkpt lat="40.16778" lon="-1.81566">
        <ele>1332.4</ele>
        <time>2021-10-09 18:21:35</time>
      </trkpt>
      <trkpt lat="40.16773" lon="-1.81562">
        <ele>1332.4</ele>
        <time>2021-10-09 18:21:36</time>
      </trkpt>
      <trkpt lat="40.16769" lon="-1.81557">
        <ele>1332.4</ele>
        <time>2021-10-09 18:21:37</time>
      </trkpt>
      <trkpt lat="40.16765" lon="-1.81552">
        <ele>1332.4</ele>
        <time>2021-10-09 18:21:38</time>
      </trkpt>
      <trkpt lat="40.16761" lon="-1.81547">
        <ele>1332.4</ele>
        <time>2021-10-09 18:21:39</time>
      </trkpt>
      <trkpt lat="40.16757" lon="-1.81543">
        <ele>1332.8</ele>
        <time>2021-10-09 18:21:40</time>
      </trkpt>
      <trkpt lat="40.16753" lon="-1.81538">
        <ele>1332.8</ele>
        <time>2021-10-09 18:21:41</time>
      </trkpt>
      <trkpt lat="40.16749" lon="-1.81534">
        <ele>1332.8</ele>
        <time>2021-10-09 18:21:42</time>
      </trkpt>
      <trkpt lat="40.16746" lon="-1.81529">
        <ele>1333.2</ele>
        <time>2021-10-09 18:21:43</time>
      </trkpt>
      <trkpt lat="40.16741" lon="-1.81526">
        <ele>1333.2</ele>
        <time>2021-10-09 18:21:44</time>
      </trkpt>
      <trkpt lat="40.16736" lon="-1.81522">
        <ele>1333.2</ele>
        <time>2021-10-09 18:21:45</time>
      </trkpt>
      <trkpt lat="40.16731" lon="-1.81519">
        <ele>1333.2</ele>
        <time>2021-10-09 18:21:46</time>
      </trkpt>
      <trkpt lat="40.16726" lon="-1.81517">
        <ele>1333.2</ele>
        <time>2021-10-09 18:21:47</time>
      </trkpt>
      <trkpt lat="40.16721" lon="-1.81514">
        <ele>1333.2</ele>
        <time>2021-10-09 18:21:48</time>
      </trkpt>
      <trkpt lat="40.16714" lon="-1.81513">
        <ele>1333.2</ele>
        <time>2021-10-09 18:21:49</time>
      </trkpt>
      <trkpt lat="40.16709" lon="-1.8151">
        <ele>1333</ele>
        <time>2021-10-09 18:21:50</time>
      </trkpt>
      <trkpt lat="40.16702" lon="-1.81509">
        <ele>1333</ele>
        <time>2021-10-09 18:21:51</time>
      </trkpt>
      <trkpt lat="40.16695" lon="-1.81506">
        <ele>1332.4</ele>
        <time>2021-10-09 18:21:52</time>
      </trkpt>
      <trkpt lat="40.16688" lon="-1.81503">
        <ele>1332.2</ele>
        <time>2021-10-09 18:21:53</time>
      </trkpt>
      <trkpt lat="40.16681" lon="-1.815">
        <ele>1331.6</ele>
        <time>2021-10-09 18:21:54</time>
      </trkpt>
      <trkpt lat="40.16673" lon="-1.81497">
        <ele>1331.4</ele>
        <time>2021-10-09 18:21:55</time>
      </trkpt>
      <trkpt lat="40.16665" lon="-1.81493">
        <ele>1331</ele>
        <time>2021-10-09 18:21:56</time>
      </trkpt>
      <trkpt lat="40.16656" lon="-1.81489">
        <ele>1330.6</ele>
        <time>2021-10-09 18:21:57</time>
      </trkpt>
      <trkpt lat="40.16649" lon="-1.81484">
        <ele>1330</ele>
        <time>2021-10-09 18:21:58</time>
      </trkpt>
      <trkpt lat="40.16643" lon="-1.81476">
        <ele>1329.6</ele>
        <time>2021-10-09 18:21:59</time>
      </trkpt>
      <trkpt lat="40.16635" lon="-1.8147">
        <ele>1329.2</ele>
        <time>2021-10-09 18:22:00</time>
      </trkpt>
      <trkpt lat="40.16629" lon="-1.81464">
        <ele>1328.8</ele>
        <time>2021-10-09 18:22:01</time>
      </trkpt>
      <trkpt lat="40.16623" lon="-1.81457">
        <ele>1328.4</ele>
        <time>2021-10-09 18:22:02</time>
      </trkpt>
      <trkpt lat="40.16616" lon="-1.81451">
        <ele>1328.2</ele>
        <time>2021-10-09 18:22:03</time>
      </trkpt>
      <trkpt lat="40.16609" lon="-1.81443">
        <ele>1327.8</ele>
        <time>2021-10-09 18:22:04</time>
      </trkpt>
      <trkpt lat="40.16601" lon="-1.81438">
        <ele>1327.2</ele>
        <time>2021-10-09 18:22:05</time>
      </trkpt>
      <trkpt lat="40.16593" lon="-1.81434">
        <ele>1326.8</ele>
        <time>2021-10-09 18:22:06</time>
      </trkpt>
      <trkpt lat="40.16585" lon="-1.81431">
        <ele>1326.6</ele>
        <time>2021-10-09 18:22:07</time>
      </trkpt>
      <trkpt lat="40.16577" lon="-1.81426">
        <ele>1326.2</ele>
        <time>2021-10-09 18:22:08</time>
      </trkpt>
      <trkpt lat="40.16569" lon="-1.81422">
        <ele>1325.8</ele>
        <time>2021-10-09 18:22:09</time>
      </trkpt>
      <trkpt lat="40.16561" lon="-1.81418">
        <ele>1325.4</ele>
        <time>2021-10-09 18:22:10</time>
      </trkpt>
      <trkpt lat="40.16553" lon="-1.81415">
        <ele>1325</ele>
        <time>2021-10-09 18:22:11</time>
      </trkpt>
      <trkpt lat="40.16544" lon="-1.81412">
        <ele>1324.6</ele>
        <time>2021-10-09 18:22:12</time>
      </trkpt>
      <trkpt lat="40.16536" lon="-1.81409">
        <ele>1324.2</ele>
        <time>2021-10-09 18:22:13</time>
      </trkpt>
      <trkpt lat="40.16527" lon="-1.81408">
        <ele>1323.8</ele>
        <time>2021-10-09 18:22:14</time>
      </trkpt>
      <trkpt lat="40.16519" lon="-1.8141">
        <ele>1323.4</ele>
        <time>2021-10-09 18:22:15</time>
      </trkpt>
      <trkpt lat="40.1651" lon="-1.81415">
        <ele>1323</ele>
        <time>2021-10-09 18:22:16</time>
      </trkpt>
      <trkpt lat="40.16502" lon="-1.8142">
        <ele>1322.6</ele>
        <time>2021-10-09 18:22:17</time>
      </trkpt>
      <trkpt lat="40.16495" lon="-1.81423">
        <ele>1322.4</ele>
        <time>2021-10-09 18:22:18</time>
      </trkpt>
      <trkpt lat="40.16487" lon="-1.81427">
        <ele>1322.4</ele>
        <time>2021-10-09 18:22:19</time>
      </trkpt>
      <trkpt lat="40.16479" lon="-1.81431">
        <ele>1322.2</ele>
        <time>2021-10-09 18:22:20</time>
      </trkpt>
      <trkpt lat="40.16472" lon="-1.81433">
        <ele>1322.2</ele>
        <time>2021-10-09 18:22:21</time>
      </trkpt>
      <trkpt lat="40.16465" lon="-1.81434">
        <ele>1322</ele>
        <time>2021-10-09 18:22:22</time>
      </trkpt>
      <trkpt lat="40.16458" lon="-1.81435">
        <ele>1322</ele>
        <time>2021-10-09 18:22:23</time>
      </trkpt>
      <trkpt lat="40.16451" lon="-1.81436">
        <ele>1322</ele>
        <time>2021-10-09 18:22:24</time>
      </trkpt>
      <trkpt lat="40.16444" lon="-1.81437">
        <ele>1322</ele>
        <time>2021-10-09 18:22:25</time>
      </trkpt>
      <trkpt lat="40.16437" lon="-1.81437">
        <ele>1322</ele>
        <time>2021-10-09 18:22:26</time>
      </trkpt>
      <trkpt lat="40.1643" lon="-1.81437">
        <ele>1322</ele>
        <time>2021-10-09 18:22:27</time>
      </trkpt>
      <trkpt lat="40.16423" lon="-1.81436">
        <ele>1322</ele>
        <time>2021-10-09 18:22:28</time>
      </trkpt>
      <trkpt lat="40.16417" lon="-1.81436">
        <ele>1321.8</ele>
        <time>2021-10-09 18:22:29</time>
      </trkpt>
      <trkpt lat="40.1641" lon="-1.81435">
        <ele>1321.8</ele>
        <time>2021-10-09 18:22:30</time>
      </trkpt>
      <trkpt lat="40.16403" lon="-1.81434">
        <ele>1321.8</ele>
        <time>2021-10-09 18:22:31</time>
      </trkpt>
      <trkpt lat="40.16397" lon="-1.81432">
        <ele>1321.8</ele>
        <time>2021-10-09 18:22:32</time>
      </trkpt>
      <trkpt lat="40.16391" lon="-1.81429">
        <ele>1321.6</ele>
        <time>2021-10-09 18:22:33</time>
      </trkpt>
      <trkpt lat="40.16384" lon="-1.81427">
        <ele>1321.6</ele>
        <time>2021-10-09 18:22:34</time>
      </trkpt>
      <trkpt lat="40.16379" lon="-1.81424">
        <ele>1321.4</ele>
        <time>2021-10-09 18:22:35</time>
      </trkpt>
      <trkpt lat="40.16372" lon="-1.81421">
        <ele>1321.4</ele>
        <time>2021-10-09 18:22:36</time>
      </trkpt>
      <trkpt lat="40.16366" lon="-1.81418">
        <ele>1321</ele>
        <time>2021-10-09 18:22:37</time>
      </trkpt>
      <trkpt lat="40.16359" lon="-1.81415">
        <ele>1321</ele>
        <time>2021-10-09 18:22:38</time>
      </trkpt>
      <trkpt lat="40.16353" lon="-1.81412">
        <ele>1320.4</ele>
        <time>2021-10-09 18:22:39</time>
      </trkpt>
      <trkpt lat="40.16346" lon="-1.81409">
        <ele>1320.4</ele>
        <time>2021-10-09 18:22:40</time>
      </trkpt>
      <trkpt lat="40.16339" lon="-1.81406">
        <ele>1320.2</ele>
        <time>2021-10-09 18:22:41</time>
      </trkpt>
      <trkpt lat="40.16333" lon="-1.81402">
        <ele>1320.2</ele>
        <time>2021-10-09 18:22:42</time>
      </trkpt>
      <trkpt lat="40.16326" lon="-1.81399">
        <ele>1319.8</ele>
        <time>2021-10-09 18:22:43</time>
      </trkpt>
      <trkpt lat="40.16319" lon="-1.81396">
        <ele>1319.8</ele>
        <time>2021-10-09 18:22:44</time>
      </trkpt>
      <trkpt lat="40.16312" lon="-1.81392">
        <ele>1319.4</ele>
        <time>2021-10-09 18:22:45</time>
      </trkpt>
      <trkpt lat="40.16304" lon="-1.81389">
        <ele>1319.4</ele>
        <time>2021-10-09 18:22:46</time>
      </trkpt>
      <trkpt lat="40.16296" lon="-1.81385">
        <ele>1319</ele>
        <time>2021-10-09 18:22:47</time>
      </trkpt>
      <trkpt lat="40.16288" lon="-1.81381">
        <ele>1319</ele>
        <time>2021-10-09 18:22:48</time>
      </trkpt>
      <trkpt lat="40.1628" lon="-1.81378">
        <ele>1318.4</ele>
        <time>2021-10-09 18:22:49</time>
      </trkpt>
      <trkpt lat="40.16273" lon="-1.81375">
        <ele>1318.2</ele>
        <time>2021-10-09 18:22:50</time>
      </trkpt>
      <trkpt lat="40.16265" lon="-1.81372">
        <ele>1318</ele>
        <time>2021-10-09 18:22:51</time>
      </trkpt>
      <trkpt lat="40.16257" lon="-1.81368">
        <ele>1317.8</ele>
        <time>2021-10-09 18:22:52</time>
      </trkpt>
      <trkpt lat="40.16249" lon="-1.81365">
        <ele>1317.8</ele>
        <time>2021-10-09 18:22:53</time>
      </trkpt>
      <trkpt lat="40.16241" lon="-1.81363">
        <ele>1317.4</ele>
        <time>2021-10-09 18:22:54</time>
      </trkpt>
      <trkpt lat="40.16233" lon="-1.81361">
        <ele>1317.4</ele>
        <time>2021-10-09 18:22:55</time>
      </trkpt>
      <trkpt lat="40.16225" lon="-1.81359">
        <ele>1317.2</ele>
        <time>2021-10-09 18:22:56</time>
      </trkpt>
      <trkpt lat="40.16217" lon="-1.81356">
        <ele>1317.2</ele>
        <time>2021-10-09 18:22:57</time>
      </trkpt>
      <trkpt lat="40.1621" lon="-1.81353">
        <ele>1316.8</ele>
        <time>2021-10-09 18:22:58</time>
      </trkpt>
      <trkpt lat="40.16202" lon="-1.81351">
        <ele>1316.8</ele>
        <time>2021-10-09 18:22:59</time>
      </trkpt>
      <trkpt lat="40.16195" lon="-1.81349">
        <ele>1316.6</ele>
        <time>2021-10-09 18:23:00</time>
      </trkpt>
      <trkpt lat="40.16188" lon="-1.81346">
        <ele>1316.6</ele>
        <time>2021-10-09 18:23:01</time>
      </trkpt>
      <trkpt lat="40.16181" lon="-1.81344">
        <ele>1316.4</ele>
        <time>2021-10-09 18:23:02</time>
      </trkpt>
      <trkpt lat="40.16174" lon="-1.81341">
        <ele>1316.4</ele>
        <time>2021-10-09 18:23:03</time>
      </trkpt>
      <trkpt lat="40.16168" lon="-1.81339">
        <ele>1316.4</ele>
        <time>2021-10-09 18:23:04</time>
      </trkpt>
      <trkpt lat="40.16161" lon="-1.81335">
        <ele>1316.4</ele>
        <time>2021-10-09 18:23:05</time>
      </trkpt>
      <trkpt lat="40.16155" lon="-1.81331">
        <ele>1316.4</ele>
        <time>2021-10-09 18:23:06</time>
      </trkpt>
      <trkpt lat="40.16148" lon="-1.81327">
        <ele>1316.2</ele>
        <time>2021-10-09 18:23:07</time>
      </trkpt>
      <trkpt lat="40.16141" lon="-1.81323">
        <ele>1316.2</ele>
        <time>2021-10-09 18:23:08</time>
      </trkpt>
      <trkpt lat="40.16134" lon="-1.8132">
        <ele>1315.8</ele>
        <time>2021-10-09 18:23:09</time>
      </trkpt>
      <trkpt lat="40.16128" lon="-1.81316">
        <ele>1315.8</ele>
        <time>2021-10-09 18:23:10</time>
      </trkpt>
      <trkpt lat="40.16121" lon="-1.81312">
        <ele>1315.6</ele>
        <time>2021-10-09 18:23:11</time>
      </trkpt>
      <trkpt lat="40.16114" lon="-1.81308">
        <ele>1315.6</ele>
        <time>2021-10-09 18:23:12</time>
      </trkpt>
      <trkpt lat="40.16107" lon="-1.81305">
        <ele>1315.6</ele>
        <time>2021-10-09 18:23:13</time>
      </trkpt>
      <trkpt lat="40.161" lon="-1.813">
        <ele>1315.6</ele>
        <time>2021-10-09 18:23:14</time>
      </trkpt>
      <trkpt lat="40.16093" lon="-1.81296">
        <ele>1315</ele>
        <time>2021-10-09 18:23:15</time>
      </trkpt>
      <trkpt lat="40.16087" lon="-1.81291">
        <ele>1314.8</ele>
        <time>2021-10-09 18:23:16</time>
      </trkpt>
      <trkpt lat="40.16081" lon="-1.81285">
        <ele>1314.6</ele>
        <time>2021-10-09 18:23:17</time>
      </trkpt>
      <trkpt lat="40.16075" lon="-1.81281">
        <ele>1314.4</ele>
        <time>2021-10-09 18:23:18</time>
      </trkpt>
      <trkpt lat="40.16068" lon="-1.81276">
        <ele>1314.2</ele>
        <time>2021-10-09 18:23:19</time>
      </trkpt>
      <trkpt lat="40.16061" lon="-1.81273">
        <ele>1314.2</ele>
        <time>2021-10-09 18:23:20</time>
      </trkpt>
      <trkpt lat="40.16054" lon="-1.8127">
        <ele>1314</ele>
        <time>2021-10-09 18:23:21</time>
      </trkpt>
      <trkpt lat="40.16047" lon="-1.81267">
        <ele>1313.6</ele>
        <time>2021-10-09 18:23:22</time>
      </trkpt>
      <trkpt lat="40.1604" lon="-1.81264">
        <ele>1313.4</ele>
        <time>2021-10-09 18:23:23</time>
      </trkpt>
      <trkpt lat="40.16033" lon="-1.81261">
        <ele>1313</ele>
        <time>2021-10-09 18:23:24</time>
      </trkpt>
      <trkpt lat="40.16025" lon="-1.81258">
        <ele>1312.8</ele>
        <time>2021-10-09 18:23:25</time>
      </trkpt>
      <trkpt lat="40.16017" lon="-1.81255">
        <ele>1312.6</ele>
        <time>2021-10-09 18:23:26</time>
      </trkpt>
      <trkpt lat="40.16009" lon="-1.81251">
        <ele>1312.2</ele>
        <time>2021-10-09 18:23:27</time>
      </trkpt>
      <trkpt lat="40.16001" lon="-1.81248">
        <ele>1312</ele>
        <time>2021-10-09 18:23:28</time>
      </trkpt>
      <trkpt lat="40.15994" lon="-1.81244">
        <ele>1311.8</ele>
        <time>2021-10-09 18:23:29</time>
      </trkpt>
      <trkpt lat="40.15986" lon="-1.81241">
        <ele>1311.6</ele>
        <time>2021-10-09 18:23:30</time>
      </trkpt>
      <trkpt lat="40.15978" lon="-1.81237">
        <ele>1311.6</ele>
        <time>2021-10-09 18:23:31</time>
      </trkpt>
      <trkpt lat="40.15971" lon="-1.81233">
        <ele>1311.2</ele>
        <time>2021-10-09 18:23:32</time>
      </trkpt>
      <trkpt lat="40.15963" lon="-1.81229">
        <ele>1311</ele>
        <time>2021-10-09 18:23:33</time>
      </trkpt>
      <trkpt lat="40.15955" lon="-1.81225">
        <ele>1311</ele>
        <time>2021-10-09 18:23:34</time>
      </trkpt>
      <trkpt lat="40.15947" lon="-1.81221">
        <ele>1310.4</ele>
        <time>2021-10-09 18:23:35</time>
      </trkpt>
      <trkpt lat="40.1594" lon="-1.81218">
        <ele>1310.4</ele>
        <time>2021-10-09 18:23:36</time>
      </trkpt>
      <trkpt lat="40.15932" lon="-1.81214">
        <ele>1310</ele>
        <time>2021-10-09 18:23:37</time>
      </trkpt>
      <trkpt lat="40.15923" lon="-1.81211">
        <ele>1309.8</ele>
        <time>2021-10-09 18:23:38</time>
      </trkpt>
      <trkpt lat="40.15915" lon="-1.81208">
        <ele>1309.8</ele>
        <time>2021-10-09 18:23:39</time>
      </trkpt>
      <trkpt lat="40.15907" lon="-1.81205">
        <ele>1309.4</ele>
        <time>2021-10-09 18:23:40</time>
      </trkpt>
      <trkpt lat="40.15899" lon="-1.81202">
        <ele>1309.4</ele>
        <time>2021-10-09 18:23:41</time>
      </trkpt>
      <trkpt lat="40.15891" lon="-1.81201">
        <ele>1309</ele>
        <time>2021-10-09 18:23:42</time>
      </trkpt>
      <trkpt lat="40.15883" lon="-1.81199">
        <ele>1309</ele>
        <time>2021-10-09 18:23:43</time>
      </trkpt>
      <trkpt lat="40.15875" lon="-1.81196">
        <ele>1308.8</ele>
        <time>2021-10-09 18:23:44</time>
      </trkpt>
      <trkpt lat="40.15866" lon="-1.81193">
        <ele>1308.8</ele>
        <time>2021-10-09 18:23:45</time>
      </trkpt>
      <trkpt lat="40.15858" lon="-1.81191">
        <ele>1308.6</ele>
        <time>2021-10-09 18:23:46</time>
      </trkpt>
      <trkpt lat="40.1585" lon="-1.81188">
        <ele>1308.2</ele>
        <time>2021-10-09 18:23:47</time>
      </trkpt>
      <trkpt lat="40.15843" lon="-1.81185">
        <ele>1308.2</ele>
        <time>2021-10-09 18:23:48</time>
      </trkpt>
      <trkpt lat="40.15835" lon="-1.81184">
        <ele>1308</ele>
        <time>2021-10-09 18:23:49</time>
      </trkpt>
      <trkpt lat="40.15827" lon="-1.81181">
        <ele>1308</ele>
        <time>2021-10-09 18:23:50</time>
      </trkpt>
      <trkpt lat="40.1582" lon="-1.81179">
        <ele>1308</ele>
        <time>2021-10-09 18:23:51</time>
      </trkpt>
      <trkpt lat="40.15812" lon="-1.81177">
        <ele>1307.8</ele>
        <time>2021-10-09 18:23:52</time>
      </trkpt>
      <trkpt lat="40.15804" lon="-1.81174">
        <ele>1307.8</ele>
        <time>2021-10-09 18:23:53</time>
      </trkpt>
      <trkpt lat="40.15796" lon="-1.81172">
        <ele>1307.4</ele>
        <time>2021-10-09 18:23:54</time>
      </trkpt>
      <trkpt lat="40.15789" lon="-1.81169">
        <ele>1307.2</ele>
        <time>2021-10-09 18:23:55</time>
      </trkpt>
      <trkpt lat="40.1578" lon="-1.81166">
        <ele>1307</ele>
        <time>2021-10-09 18:23:56</time>
      </trkpt>
      <trkpt lat="40.15773" lon="-1.81163">
        <ele>1306.8</ele>
        <time>2021-10-09 18:23:57</time>
      </trkpt>
      <trkpt lat="40.15765" lon="-1.81159">
        <ele>1306.8</ele>
        <time>2021-10-09 18:23:58</time>
      </trkpt>
      <trkpt lat="40.15757" lon="-1.81156">
        <ele>1306.6</ele>
        <time>2021-10-09 18:23:59</time>
      </trkpt>
      <trkpt lat="40.15749" lon="-1.81154">
        <ele>1306.6</ele>
        <time>2021-10-09 18:24:00</time>
      </trkpt>
      <trkpt lat="40.15741" lon="-1.81152">
        <ele>1306.6</ele>
        <time>2021-10-09 18:24:01</time>
      </trkpt>
      <trkpt lat="40.15734" lon="-1.81149">
        <ele>1306.6</ele>
        <time>2021-10-09 18:24:02</time>
      </trkpt>
      <trkpt lat="40.15726" lon="-1.81146">
        <ele>1306.6</ele>
        <time>2021-10-09 18:24:03</time>
      </trkpt>
      <trkpt lat="40.1572" lon="-1.81142">
        <ele>1306.2</ele>
        <time>2021-10-09 18:24:04</time>
      </trkpt>
      <trkpt lat="40.15713" lon="-1.8114">
        <ele>1306.2</ele>
        <time>2021-10-09 18:24:05</time>
      </trkpt>
      <trkpt lat="40.15705" lon="-1.81137">
        <ele>1306</ele>
        <time>2021-10-09 18:24:06</time>
      </trkpt>
      <trkpt lat="40.15698" lon="-1.81135">
        <ele>1306</ele>
        <time>2021-10-09 18:24:07</time>
      </trkpt>
      <trkpt lat="40.15691" lon="-1.81133">
        <ele>1306</ele>
        <time>2021-10-09 18:24:08</time>
      </trkpt>
      <trkpt lat="40.15685" lon="-1.81131">
        <ele>1306</ele>
        <time>2021-10-09 18:24:09</time>
      </trkpt>
      <trkpt lat="40.15678" lon="-1.81128">
        <ele>1306</ele>
        <time>2021-10-09 18:24:10</time>
      </trkpt>
      <trkpt lat="40.15671" lon="-1.81126">
        <ele>1306.2</ele>
        <time>2021-10-09 18:24:11</time>
      </trkpt>
      <trkpt lat="40.15665" lon="-1.81124">
        <ele>1306.2</ele>
        <time>2021-10-09 18:24:12</time>
      </trkpt>
      <trkpt lat="40.15659" lon="-1.81121">
        <ele>1306.2</ele>
        <time>2021-10-09 18:24:13</time>
      </trkpt>
      <trkpt lat="40.15653" lon="-1.81119">
        <ele>1306.2</ele>
        <time>2021-10-09 18:24:14</time>
      </trkpt>
      <trkpt lat="40.15646" lon="-1.81116">
        <ele>1306.2</ele>
        <time>2021-10-09 18:24:15</time>
      </trkpt>
      <trkpt lat="40.1564" lon="-1.81114">
        <ele>1306.2</ele>
        <time>2021-10-09 18:24:16</time>
      </trkpt>
      <trkpt lat="40.15634" lon="-1.81111">
        <ele>1306.2</ele>
        <time>2021-10-09 18:24:17</time>
      </trkpt>
      <trkpt lat="40.15629" lon="-1.81108">
        <ele>1306.2</ele>
        <time>2021-10-09 18:24:18</time>
      </trkpt>
      <trkpt lat="40.15623" lon="-1.81106">
        <ele>1306.2</ele>
        <time>2021-10-09 18:24:19</time>
      </trkpt>
      <trkpt lat="40.15616" lon="-1.81103">
        <ele>1306.2</ele>
        <time>2021-10-09 18:24:20</time>
      </trkpt>
      <trkpt lat="40.1561" lon="-1.811">
        <ele>1306.2</ele>
        <time>2021-10-09 18:24:21</time>
      </trkpt>
      <trkpt lat="40.15604" lon="-1.81096">
        <ele>1306</ele>
        <time>2021-10-09 18:24:22</time>
      </trkpt>
      <trkpt lat="40.15598" lon="-1.81093">
        <ele>1306</ele>
        <time>2021-10-09 18:24:23</time>
      </trkpt>
      <trkpt lat="40.15592" lon="-1.81088">
        <ele>1305.6</ele>
        <time>2021-10-09 18:24:24</time>
      </trkpt>
      <trkpt lat="40.15586" lon="-1.81084">
        <ele>1305.6</ele>
        <time>2021-10-09 18:24:25</time>
      </trkpt>
      <trkpt lat="40.1558" lon="-1.81079">
        <ele>1305.4</ele>
        <time>2021-10-09 18:24:26</time>
      </trkpt>
      <trkpt lat="40.15574" lon="-1.81073">
        <ele>1305.2</ele>
        <time>2021-10-09 18:24:27</time>
      </trkpt>
      <trkpt lat="40.15569" lon="-1.81066">
        <ele>1304.8</ele>
        <time>2021-10-09 18:24:28</time>
      </trkpt>
      <trkpt lat="40.15564" lon="-1.81058">
        <ele>1304.6</ele>
        <time>2021-10-09 18:24:29</time>
      </trkpt>
      <trkpt lat="40.1556" lon="-1.8105">
        <ele>1304.2</ele>
        <time>2021-10-09 18:24:30</time>
      </trkpt>
      <trkpt lat="40.15556" lon="-1.8104">
        <ele>1303.6</ele>
        <time>2021-10-09 18:24:31</time>
      </trkpt>
      <trkpt lat="40.15554" lon="-1.81028">
        <ele>1303.2</ele>
        <time>2021-10-09 18:24:32</time>
      </trkpt>
      <trkpt lat="40.15553" lon="-1.81017">
        <ele>1302.8</ele>
        <time>2021-10-09 18:24:33</time>
      </trkpt>
      <trkpt lat="40.15552" lon="-1.81005">
        <ele>1302.2</ele>
        <time>2021-10-09 18:24:34</time>
      </trkpt>
      <trkpt lat="40.15552" lon="-1.80993">
        <ele>1301.6</ele>
        <time>2021-10-09 18:24:35</time>
      </trkpt>
      <trkpt lat="40.15551" lon="-1.80979">
        <ele>1301</ele>
        <time>2021-10-09 18:24:36</time>
      </trkpt>
      <trkpt lat="40.15549" lon="-1.80966">
        <ele>1300.2</ele>
        <time>2021-10-09 18:24:37</time>
      </trkpt>
      <trkpt lat="40.15547" lon="-1.80953">
        <ele>1299.4</ele>
        <time>2021-10-09 18:24:38</time>
      </trkpt>
      <trkpt lat="40.15546" lon="-1.80942">
        <ele>1298.6</ele>
        <time>2021-10-09 18:24:39</time>
      </trkpt>
      <trkpt lat="40.15543" lon="-1.8093">
        <ele>1297.8</ele>
        <time>2021-10-09 18:24:40</time>
      </trkpt>
      <trkpt lat="40.15539" lon="-1.80922">
        <ele>1297.2</ele>
        <time>2021-10-09 18:24:41</time>
      </trkpt>
      <trkpt lat="40.15535" lon="-1.80916">
        <ele>1296.6</ele>
        <time>2021-10-09 18:24:42</time>
      </trkpt>
      <trkpt lat="40.1553" lon="-1.80911">
        <ele>1295.8</ele>
        <time>2021-10-09 18:24:43</time>
      </trkpt>
      <trkpt lat="40.15524" lon="-1.80908">
        <ele>1295.2</ele>
        <time>2021-10-09 18:24:44</time>
      </trkpt>
      <trkpt lat="40.15518" lon="-1.80908">
        <ele>1294.6</ele>
        <time>2021-10-09 18:24:45</time>
      </trkpt>
      <trkpt lat="40.15511" lon="-1.80908">
        <ele>1294.2</ele>
        <time>2021-10-09 18:24:46</time>
      </trkpt>
      <trkpt lat="40.15505" lon="-1.80906">
        <ele>1294.2</ele>
        <time>2021-10-09 18:24:47</time>
      </trkpt>
      <trkpt lat="40.155" lon="-1.80904">
        <ele>1294</ele>
        <time>2021-10-09 18:24:48</time>
      </trkpt>
      <trkpt lat="40.15495" lon="-1.80901">
        <ele>1294</ele>
        <time>2021-10-09 18:24:49</time>
      </trkpt>
      <trkpt lat="40.15491" lon="-1.80897">
        <ele>1294</ele>
        <time>2021-10-09 18:24:50</time>
      </trkpt>
      <trkpt lat="40.15487" lon="-1.80893">
        <ele>1294</ele>
        <time>2021-10-09 18:24:51</time>
      </trkpt>
      <trkpt lat="40.15483" lon="-1.80889">
        <ele>1294</ele>
        <time>2021-10-09 18:24:52</time>
      </trkpt>
      <trkpt lat="40.1548" lon="-1.80884">
        <ele>1294.2</ele>
        <time>2021-10-09 18:24:53</time>
      </trkpt>
      <trkpt lat="40.15477" lon="-1.80878">
        <ele>1294.2</ele>
        <time>2021-10-09 18:24:54</time>
      </trkpt>
      <trkpt lat="40.15475" lon="-1.80871">
        <ele>1294.2</ele>
        <time>2021-10-09 18:24:55</time>
      </trkpt>
      <trkpt lat="40.15474" lon="-1.80864">
        <ele>1294.2</ele>
        <time>2021-10-09 18:24:56</time>
      </trkpt>
      <trkpt lat="40.15475" lon="-1.80857">
        <ele>1294.2</ele>
        <time>2021-10-09 18:24:57</time>
      </trkpt>
      <trkpt lat="40.15477" lon="-1.8085">
        <ele>1294</ele>
        <time>2021-10-09 18:24:58</time>
      </trkpt>
      <trkpt lat="40.15478" lon="-1.8084">
        <ele>1293.4</ele>
        <time>2021-10-09 18:24:59</time>
      </trkpt>
      <trkpt lat="40.15483" lon="-1.80829">
        <ele>1293</ele>
        <time>2021-10-09 18:25:00</time>
      </trkpt>
      <trkpt lat="40.15488" lon="-1.8082">
        <ele>1292.2</ele>
        <time>2021-10-09 18:25:01</time>
      </trkpt>
      <trkpt lat="40.15492" lon="-1.8081">
        <ele>1291.4</ele>
        <time>2021-10-09 18:25:02</time>
      </trkpt>
      <trkpt lat="40.15499" lon="-1.80801">
        <ele>1290.4</ele>
        <time>2021-10-09 18:25:03</time>
      </trkpt>
      <trkpt lat="40.15505" lon="-1.80792">
        <ele>1289.2</ele>
        <time>2021-10-09 18:25:04</time>
      </trkpt>
      <trkpt lat="40.15511" lon="-1.80786">
        <ele>1288</ele>
        <time>2021-10-09 18:25:05</time>
      </trkpt>
      <trkpt lat="40.15515" lon="-1.80781">
        <ele>1286.6</ele>
        <time>2021-10-09 18:25:06</time>
      </trkpt>
      <trkpt lat="40.15518" lon="-1.80773">
        <ele>1285.4</ele>
        <time>2021-10-09 18:25:07</time>
      </trkpt>
      <trkpt lat="40.15522" lon="-1.80766">
        <ele>1284.2</ele>
        <time>2021-10-09 18:25:08</time>
      </trkpt>
      <trkpt lat="40.15526" lon="-1.80759">
        <ele>1283.2</ele>
        <time>2021-10-09 18:25:09</time>
      </trkpt>
      <trkpt lat="40.15529" lon="-1.80753">
        <ele>1282</ele>
        <time>2021-10-09 18:25:10</time>
      </trkpt>
      <trkpt lat="40.15531" lon="-1.80747">
        <ele>1281</ele>
        <time>2021-10-09 18:25:11</time>
      </trkpt>
      <trkpt lat="40.15534" lon="-1.80741">
        <ele>1280</ele>
        <time>2021-10-09 18:25:12</time>
      </trkpt>
      <trkpt lat="40.15533" lon="-1.80731">
        <ele>1279.2</ele>
        <time>2021-10-09 18:25:13</time>
      </trkpt>
      <trkpt lat="40.15531" lon="-1.80722">
        <ele>1278.4</ele>
        <time>2021-10-09 18:25:14</time>
      </trkpt>
      <trkpt lat="40.15527" lon="-1.80713">
        <ele>1277.6</ele>
        <time>2021-10-09 18:25:15</time>
      </trkpt>
      <trkpt lat="40.15521" lon="-1.80704">
        <ele>1277</ele>
        <time>2021-10-09 18:25:16</time>
      </trkpt>
      <trkpt lat="40.15516" lon="-1.80697">
        <ele>1276.2</ele>
        <time>2021-10-09 18:25:17</time>
      </trkpt>
      <trkpt lat="40.15509" lon="-1.80691">
        <ele>1275.6</ele>
        <time>2021-10-09 18:25:18</time>
      </trkpt>
      <trkpt lat="40.15504" lon="-1.80686">
        <ele>1275.4</ele>
        <time>2021-10-09 18:25:19</time>
      </trkpt>
      <trkpt lat="40.15501" lon="-1.80679">
        <ele>1274.8</ele>
        <time>2021-10-09 18:25:20</time>
      </trkpt>
      <trkpt lat="40.15499" lon="-1.80674">
        <ele>1274.4</ele>
        <time>2021-10-09 18:25:21</time>
      </trkpt>
      <trkpt lat="40.15497" lon="-1.80668">
        <ele>1274</ele>
        <time>2021-10-09 18:25:22</time>
      </trkpt>
      <trkpt lat="40.15494" lon="-1.80662">
        <ele>1273.6</ele>
        <time>2021-10-09 18:25:23</time>
      </trkpt>
      <trkpt lat="40.15492" lon="-1.80658">
        <ele>1273.2</ele>
        <time>2021-10-09 18:25:24</time>
      </trkpt>
      <trkpt lat="40.15492" lon="-1.80653">
        <ele>1272.8</ele>
        <time>2021-10-09 18:25:25</time>
      </trkpt>
      <trkpt lat="40.15492" lon="-1.80651">
        <ele>1272.8</ele>
        <time>2021-10-09 18:25:26</time>
      </trkpt>
      <trkpt lat="40.15491" lon="-1.80646">
        <ele>1272.8</ele>
        <time>2021-10-09 18:25:27</time>
      </trkpt>
      <trkpt lat="40.1549" lon="-1.80642">
        <ele>1272.8</ele>
        <time>2021-10-09 18:25:28</time>
      </trkpt>
      <trkpt lat="40.15489" lon="-1.8064">
        <ele>1272.8</ele>
        <time>2021-10-09 18:25:29</time>
      </trkpt>
      <trkpt lat="40.15488" lon="-1.80638">
        <ele>1272.8</ele>
        <time>2021-10-09 18:25:30</time>
      </trkpt>
      <trkpt lat="40.15486" lon="-1.80636">
        <ele>1272.8</ele>
        <time>2021-10-09 18:25:31</time>
      </trkpt>
      <trkpt lat="40.15485" lon="-1.80633">
        <ele>1272.8</ele>
        <time>2021-10-09 18:25:32</time>
      </trkpt>
      <trkpt lat="40.15484" lon="-1.80631">
        <ele>1272.8</ele>
        <time>2021-10-09 18:25:33</time>
      </trkpt>
      <trkpt lat="40.15483" lon="-1.80628">
        <ele>1273.2</ele>
        <time>2021-10-09 18:25:34</time>
      </trkpt>
      <trkpt lat="40.15482" lon="-1.80624">
        <ele>1273.2</ele>
        <time>2021-10-09 18:25:35</time>
      </trkpt>
      <trkpt lat="40.1548" lon="-1.8062">
        <ele>1273.2</ele>
        <time>2021-10-09 18:25:36</time>
      </trkpt>
      <trkpt lat="40.15478" lon="-1.80615">
        <ele>1273.2</ele>
        <time>2021-10-09 18:25:37</time>
      </trkpt>
      <trkpt lat="40.15476" lon="-1.80611">
        <ele>1273.2</ele>
        <time>2021-10-09 18:25:38</time>
      </trkpt>
      <trkpt lat="40.15473" lon="-1.80606">
        <ele>1273.2</ele>
        <time>2021-10-09 18:25:39</time>
      </trkpt>
      <trkpt lat="40.15471" lon="-1.806">
        <ele>1272.8</ele>
        <time>2021-10-09 18:25:40</time>
      </trkpt>
      <trkpt lat="40.15469" lon="-1.80594">
        <ele>1272.8</ele>
        <time>2021-10-09 18:25:41</time>
      </trkpt>
      <trkpt lat="40.15466" lon="-1.80588">
        <ele>1272.6</ele>
        <time>2021-10-09 18:25:42</time>
      </trkpt>
      <trkpt lat="40.15464" lon="-1.80581">
        <ele>1272.6</ele>
        <time>2021-10-09 18:25:43</time>
      </trkpt>
      <trkpt lat="40.15462" lon="-1.80574">
        <ele>1272.2</ele>
        <time>2021-10-09 18:25:44</time>
      </trkpt>
      <trkpt lat="40.15459" lon="-1.80566">
        <ele>1272</ele>
        <time>2021-10-09 18:25:45</time>
      </trkpt>
      <trkpt lat="40.15457" lon="-1.80558">
        <ele>1271.8</ele>
        <time>2021-10-09 18:25:46</time>
      </trkpt>
      <trkpt lat="40.15455" lon="-1.8055">
        <ele>1271.6</ele>
        <time>2021-10-09 18:25:47</time>
      </trkpt>
      <trkpt lat="40.15454" lon="-1.80542">
        <ele>1271.2</ele>
        <time>2021-10-09 18:25:48</time>
      </trkpt>
      <trkpt lat="40.15453" lon="-1.80534">
        <ele>1271.2</ele>
        <time>2021-10-09 18:25:49</time>
      </trkpt>
      <trkpt lat="40.15451" lon="-1.80526">
        <ele>1271.2</ele>
        <time>2021-10-09 18:25:50</time>
      </trkpt>
      <trkpt lat="40.1545" lon="-1.80519">
        <ele>1271.2</ele>
        <time>2021-10-09 18:25:51</time>
      </trkpt>
      <trkpt lat="40.15448" lon="-1.80513">
        <ele>1271.2</ele>
        <time>2021-10-09 18:25:52</time>
      </trkpt>
      <trkpt lat="40.15446" lon="-1.80506">
        <ele>1271.2</ele>
        <time>2021-10-09 18:25:53</time>
      </trkpt>
      <trkpt lat="40.15444" lon="-1.805">
        <ele>1271.2</ele>
        <time>2021-10-09 18:25:54</time>
      </trkpt>
      <trkpt lat="40.15443" lon="-1.80493">
        <ele>1271.6</ele>
        <time>2021-10-09 18:25:55</time>
      </trkpt>
      <trkpt lat="40.15441" lon="-1.80487">
        <ele>1271.6</ele>
        <time>2021-10-09 18:25:56</time>
      </trkpt>
      <trkpt lat="40.15439" lon="-1.80481">
        <ele>1271.6</ele>
        <time>2021-10-09 18:25:57</time>
      </trkpt>
      <trkpt lat="40.15438" lon="-1.80475">
        <ele>1272</ele>
        <time>2021-10-09 18:25:58</time>
      </trkpt>
      <trkpt lat="40.15436" lon="-1.8047">
        <ele>1272.2</ele>
        <time>2021-10-09 18:25:59</time>
      </trkpt>
      <trkpt lat="40.15433" lon="-1.80466">
        <ele>1272.6</ele>
        <time>2021-10-09 18:26:00</time>
      </trkpt>
      <trkpt lat="40.15431" lon="-1.80463">
        <ele>1272.8</ele>
        <time>2021-10-09 18:26:01</time>
      </trkpt>
      <trkpt lat="40.15428" lon="-1.8046">
        <ele>1273</ele>
        <time>2021-10-09 18:26:02</time>
      </trkpt>
      <trkpt lat="40.15426" lon="-1.80457">
        <ele>1273.2</ele>
        <time>2021-10-09 18:26:03</time>
      </trkpt>
      <trkpt lat="40.15422" lon="-1.80454">
        <ele>1273.2</ele>
        <time>2021-10-09 18:26:04</time>
      </trkpt>
      <trkpt lat="40.15419" lon="-1.80451">
        <ele>1273.6</ele>
        <time>2021-10-09 18:26:05</time>
      </trkpt>
      <trkpt lat="40.15416" lon="-1.80448">
        <ele>1273.8</ele>
        <time>2021-10-09 18:26:06</time>
      </trkpt>
      <trkpt lat="40.15413" lon="-1.80446">
        <ele>1273.8</ele>
        <time>2021-10-09 18:26:07</time>
      </trkpt>
      <trkpt lat="40.15409" lon="-1.80443">
        <ele>1274</ele>
        <time>2021-10-09 18:26:08</time>
      </trkpt>
      <trkpt lat="40.15405" lon="-1.8044">
        <ele>1274</ele>
        <time>2021-10-09 18:26:09</time>
      </trkpt>
      <trkpt lat="40.15401" lon="-1.80437">
        <ele>1274</ele>
        <time>2021-10-09 18:26:10</time>
      </trkpt>
      <trkpt lat="40.15397" lon="-1.80433">
        <ele>1273.8</ele>
        <time>2021-10-09 18:26:11</time>
      </trkpt>
      <trkpt lat="40.15392" lon="-1.80429">
        <ele>1273.8</ele>
        <time>2021-10-09 18:26:12</time>
      </trkpt>
      <trkpt lat="40.15388" lon="-1.80422">
        <ele>1273.2</ele>
        <time>2021-10-09 18:26:13</time>
      </trkpt>
      <trkpt lat="40.15384" lon="-1.80413">
        <ele>1273.2</ele>
        <time>2021-10-09 18:26:14</time>
      </trkpt>
      <trkpt lat="40.15379" lon="-1.80404">
        <ele>1272.8</ele>
        <time>2021-10-09 18:26:15</time>
      </trkpt>
      <trkpt lat="40.15377" lon="-1.80392">
        <ele>1272.4</ele>
        <time>2021-10-09 18:26:16</time>
      </trkpt>
      <trkpt lat="40.15375" lon="-1.80381">
        <ele>1271.8</ele>
        <time>2021-10-09 18:26:17</time>
      </trkpt>
      <trkpt lat="40.15372" lon="-1.80369">
        <ele>1271.2</ele>
        <time>2021-10-09 18:26:18</time>
      </trkpt>
      <trkpt lat="40.15369" lon="-1.80357">
        <ele>1270.4</ele>
        <time>2021-10-09 18:26:19</time>
      </trkpt>
      <trkpt lat="40.15364" lon="-1.80345">
        <ele>1269.6</ele>
        <time>2021-10-09 18:26:20</time>
      </trkpt>
      <trkpt lat="40.15359" lon="-1.80333">
        <ele>1268.8</ele>
        <time>2021-10-09 18:26:21</time>
      </trkpt>
      <trkpt lat="40.15354" lon="-1.8032">
        <ele>1268.2</ele>
        <time>2021-10-09 18:26:22</time>
      </trkpt>
      <trkpt lat="40.15347" lon="-1.80311">
        <ele>1267.4</ele>
        <time>2021-10-09 18:26:23</time>
      </trkpt>
      <trkpt lat="40.1534" lon="-1.803">
        <ele>1266.8</ele>
        <time>2021-10-09 18:26:24</time>
      </trkpt>
      <trkpt lat="40.15332" lon="-1.80291">
        <ele>1266</ele>
        <time>2021-10-09 18:26:25</time>
      </trkpt>
      <trkpt lat="40.15325" lon="-1.80282">
        <ele>1265.6</ele>
        <time>2021-10-09 18:26:26</time>
      </trkpt>
      <trkpt lat="40.15317" lon="-1.80274">
        <ele>1264.8</ele>
        <time>2021-10-09 18:26:27</time>
      </trkpt>
      <trkpt lat="40.15311" lon="-1.80264">
        <ele>1264.4</ele>
        <time>2021-10-09 18:26:28</time>
      </trkpt>
      <trkpt lat="40.15305" lon="-1.80256">
        <ele>1264</ele>
        <time>2021-10-09 18:26:29</time>
      </trkpt>
      <trkpt lat="40.15296" lon="-1.80252">
        <ele>1263.8</ele>
        <time>2021-10-09 18:26:30</time>
      </trkpt>
      <trkpt lat="40.1529" lon="-1.80247">
        <ele>1263.8</ele>
        <time>2021-10-09 18:26:31</time>
      </trkpt>
      <trkpt lat="40.15282" lon="-1.80244">
        <ele>1263.8</ele>
        <time>2021-10-09 18:26:32</time>
      </trkpt>
      <trkpt lat="40.15274" lon="-1.80245">
        <ele>1263.8</ele>
        <time>2021-10-09 18:26:33</time>
      </trkpt>
      <trkpt lat="40.15267" lon="-1.80248">
        <ele>1263.6</ele>
        <time>2021-10-09 18:26:34</time>
      </trkpt>
      <trkpt lat="40.1526" lon="-1.80251">
        <ele>1263.6</ele>
        <time>2021-10-09 18:26:35</time>
      </trkpt>
      <trkpt lat="40.15253" lon="-1.80255">
        <ele>1263.6</ele>
        <time>2021-10-09 18:26:36</time>
      </trkpt>
      <trkpt lat="40.15246" lon="-1.80261">
        <ele>1263.2</ele>
        <time>2021-10-09 18:26:37</time>
      </trkpt>
      <trkpt lat="40.1524" lon="-1.80266">
        <ele>1263.2</ele>
        <time>2021-10-09 18:26:38</time>
      </trkpt>
      <trkpt lat="40.15233" lon="-1.80272">
        <ele>1263</ele>
        <time>2021-10-09 18:26:39</time>
      </trkpt>
      <trkpt lat="40.15229" lon="-1.80279">
        <ele>1262.8</ele>
        <time>2021-10-09 18:26:40</time>
      </trkpt>
      <trkpt lat="40.15224" lon="-1.80289">
        <ele>1262.4</ele>
        <time>2021-10-09 18:26:41</time>
      </trkpt>
      <trkpt lat="40.15219" lon="-1.80295">
        <ele>1262.4</ele>
        <time>2021-10-09 18:26:42</time>
      </trkpt>
      <trkpt lat="40.15214" lon="-1.80303">
        <ele>1262</ele>
        <time>2021-10-09 18:26:43</time>
      </trkpt>
      <trkpt lat="40.15207" lon="-1.80303">
        <ele>1262</ele>
        <time>2021-10-09 18:26:44</time>
      </trkpt>
      <trkpt lat="40.15201" lon="-1.80305">
        <ele>1262</ele>
        <time>2021-10-09 18:26:45</time>
      </trkpt>
      <trkpt lat="40.15195" lon="-1.80308">
        <ele>1262</ele>
        <time>2021-10-09 18:26:46</time>
      </trkpt>
      <trkpt lat="40.15189" lon="-1.80305">
        <ele>1262</ele>
        <time>2021-10-09 18:26:47</time>
      </trkpt>
      <trkpt lat="40.15183" lon="-1.80303">
        <ele>1262.2</ele>
        <time>2021-10-09 18:26:48</time>
      </trkpt>
      <trkpt lat="40.15178" lon="-1.80301">
        <ele>1262.4</ele>
        <time>2021-10-09 18:26:49</time>
      </trkpt>
      <trkpt lat="40.15174" lon="-1.80297">
        <ele>1263</ele>
        <time>2021-10-09 18:26:50</time>
      </trkpt>
      <trkpt lat="40.15169" lon="-1.80292">
        <ele>1263.2</ele>
        <time>2021-10-09 18:26:51</time>
      </trkpt>
      <trkpt lat="40.15164" lon="-1.80287">
        <ele>1263.6</ele>
        <time>2021-10-09 18:26:52</time>
      </trkpt>
      <trkpt lat="40.1516" lon="-1.80281">
        <ele>1263.6</ele>
        <time>2021-10-09 18:26:53</time>
      </trkpt>
      <trkpt lat="40.15158" lon="-1.80273">
        <ele>1263.8</ele>
        <time>2021-10-09 18:26:54</time>
      </trkpt>
      <trkpt lat="40.15156" lon="-1.80265">
        <ele>1263.8</ele>
        <time>2021-10-09 18:26:55</time>
      </trkpt>
      <trkpt lat="40.15153" lon="-1.80257">
        <ele>1263.8</ele>
        <time>2021-10-09 18:26:56</time>
      </trkpt>
      <trkpt lat="40.15151" lon="-1.80249">
        <ele>1263.8</ele>
        <time>2021-10-09 18:26:57</time>
      </trkpt>
      <trkpt lat="40.15148" lon="-1.8024">
        <ele>1263.6</ele>
        <time>2021-10-09 18:26:58</time>
      </trkpt>
      <trkpt lat="40.15146" lon="-1.80231">
        <ele>1263.6</ele>
        <time>2021-10-09 18:26:59</time>
      </trkpt>
      <trkpt lat="40.15145" lon="-1.80221">
        <ele>1263</ele>
        <time>2021-10-09 18:27:00</time>
      </trkpt>
      <trkpt lat="40.15143" lon="-1.80211">
        <ele>1263</ele>
        <time>2021-10-09 18:27:01</time>
      </trkpt>
      <trkpt lat="40.15141" lon="-1.80201">
        <ele>1262.6</ele>
        <time>2021-10-09 18:27:02</time>
      </trkpt>
      <trkpt lat="40.15139" lon="-1.80193">
        <ele>1262.4</ele>
        <time>2021-10-09 18:27:03</time>
      </trkpt>
      <trkpt lat="40.15138" lon="-1.80185">
        <ele>1262.4</ele>
        <time>2021-10-09 18:27:04</time>
      </trkpt>
      <trkpt lat="40.15137" lon="-1.80178">
        <ele>1262.4</ele>
        <time>2021-10-09 18:27:05</time>
      </trkpt>
      <trkpt lat="40.15135" lon="-1.80171">
        <ele>1262.4</ele>
        <time>2021-10-09 18:27:06</time>
      </trkpt>
      <trkpt lat="40.15134" lon="-1.80165">
        <ele>1262.4</ele>
        <time>2021-10-09 18:27:07</time>
      </trkpt>
      <trkpt lat="40.15133" lon="-1.80158">
        <ele>1262.6</ele>
        <time>2021-10-09 18:27:08</time>
      </trkpt>
      <trkpt lat="40.15132" lon="-1.80152">
        <ele>1262.8</ele>
        <time>2021-10-09 18:27:09</time>
      </trkpt>
      <trkpt lat="40.15132" lon="-1.80145">
        <ele>1263</ele>
        <time>2021-10-09 18:27:10</time>
      </trkpt>
      <trkpt lat="40.15131" lon="-1.80139">
        <ele>1263.2</ele>
        <time>2021-10-09 18:27:11</time>
      </trkpt>
      <trkpt lat="40.1513" lon="-1.80132">
        <ele>1263.6</ele>
        <time>2021-10-09 18:27:12</time>
      </trkpt>
      <trkpt lat="40.15129" lon="-1.80126">
        <ele>1263.8</ele>
        <time>2021-10-09 18:27:13</time>
      </trkpt>
      <trkpt lat="40.15129" lon="-1.80119">
        <ele>1264</ele>
        <time>2021-10-09 18:27:14</time>
      </trkpt>
      <trkpt lat="40.15129" lon="-1.80112">
        <ele>1264.2</ele>
        <time>2021-10-09 18:27:15</time>
      </trkpt>
      <trkpt lat="40.15129" lon="-1.80107">
        <ele>1264.4</ele>
        <time>2021-10-09 18:27:16</time>
      </trkpt>
      <trkpt lat="40.15129" lon="-1.80101">
        <ele>1264.4</ele>
        <time>2021-10-09 18:27:17</time>
      </trkpt>
      <trkpt lat="40.15129" lon="-1.80094">
        <ele>1264.8</ele>
        <time>2021-10-09 18:27:18</time>
      </trkpt>
      <trkpt lat="40.15129" lon="-1.80088">
        <ele>1264.8</ele>
        <time>2021-10-09 18:27:19</time>
      </trkpt>
      <trkpt lat="40.15129" lon="-1.80083">
        <ele>1265.2</ele>
        <time>2021-10-09 18:27:20</time>
      </trkpt>
      <trkpt lat="40.15129" lon="-1.80077">
        <ele>1265.2</ele>
        <time>2021-10-09 18:27:21</time>
      </trkpt>
      <trkpt lat="40.1513" lon="-1.80071">
        <ele>1265.8</ele>
        <time>2021-10-09 18:27:22</time>
      </trkpt>
      <trkpt lat="40.1513" lon="-1.80066">
        <ele>1265.8</ele>
        <time>2021-10-09 18:27:23</time>
      </trkpt>
      <trkpt lat="40.1513" lon="-1.80059">
        <ele>1266.2</ele>
        <time>2021-10-09 18:27:24</time>
      </trkpt>
      <trkpt lat="40.1513" lon="-1.80053">
        <ele>1266.4</ele>
        <time>2021-10-09 18:27:25</time>
      </trkpt>
      <trkpt lat="40.1513" lon="-1.80048">
        <ele>1266.4</ele>
        <time>2021-10-09 18:27:26</time>
      </trkpt>
      <trkpt lat="40.1513" lon="-1.80042">
        <ele>1266.8</ele>
        <time>2021-10-09 18:27:27</time>
      </trkpt>
      <trkpt lat="40.15131" lon="-1.80035">
        <ele>1266.8</ele>
        <time>2021-10-09 18:27:28</time>
      </trkpt>
      <trkpt lat="40.15131" lon="-1.80029">
        <ele>1267</ele>
        <time>2021-10-09 18:27:29</time>
      </trkpt>
      <trkpt lat="40.1513" lon="-1.80025">
        <ele>1267</ele>
        <time>2021-10-09 18:27:30</time>
      </trkpt>
      <trkpt lat="40.1513" lon="-1.80018">
        <ele>1267.4</ele>
        <time>2021-10-09 18:27:31</time>
      </trkpt>
      <trkpt lat="40.15131" lon="-1.80013">
        <ele>1267.6</ele>
        <time>2021-10-09 18:27:32</time>
      </trkpt>
      <trkpt lat="40.15133" lon="-1.80006">
        <ele>1267.8</ele>
        <time>2021-10-09 18:27:33</time>
      </trkpt>
      <trkpt lat="40.15134" lon="-1.80001">
        <ele>1268</ele>
        <time>2021-10-09 18:27:34</time>
      </trkpt>
      <trkpt lat="40.15134" lon="-1.79995">
        <ele>1268.2</ele>
        <time>2021-10-09 18:27:35</time>
      </trkpt>
      <trkpt lat="40.15133" lon="-1.7999">
        <ele>1268.4</ele>
        <time>2021-10-09 18:27:36</time>
      </trkpt>
      <trkpt lat="40.15133" lon="-1.79985">
        <ele>1268.8</ele>
        <time>2021-10-09 18:27:37</time>
      </trkpt>
      <trkpt lat="40.15132" lon="-1.79979">
        <ele>1268.8</ele>
        <time>2021-10-09 18:27:38</time>
      </trkpt>
      <trkpt lat="40.1513" lon="-1.79974">
        <ele>1269.2</ele>
        <time>2021-10-09 18:27:39</time>
      </trkpt>
      <trkpt lat="40.15129" lon="-1.79968">
        <ele>1269.2</ele>
        <time>2021-10-09 18:27:40</time>
      </trkpt>
      <trkpt lat="40.15127" lon="-1.79964">
        <ele>1269.6</ele>
        <time>2021-10-09 18:27:41</time>
      </trkpt>
      <trkpt lat="40.15125" lon="-1.79958">
        <ele>1269.6</ele>
        <time>2021-10-09 18:27:42</time>
      </trkpt>
      <trkpt lat="40.15125" lon="-1.79954">
        <ele>1270</ele>
        <time>2021-10-09 18:27:43</time>
      </trkpt>
      <trkpt lat="40.15124" lon="-1.79949">
        <ele>1270.2</ele>
        <time>2021-10-09 18:27:44</time>
      </trkpt>
      <trkpt lat="40.15123" lon="-1.79945">
        <ele>1270.2</ele>
        <time>2021-10-09 18:27:45</time>
      </trkpt>
      <trkpt lat="40.15122" lon="-1.7994">
        <ele>1270.4</ele>
        <time>2021-10-09 18:27:46</time>
      </trkpt>
      <trkpt lat="40.15121" lon="-1.79936">
        <ele>1270.4</ele>
        <time>2021-10-09 18:27:47</time>
      </trkpt>
      <trkpt lat="40.15121" lon="-1.79932">
        <ele>1270.8</ele>
        <time>2021-10-09 18:27:48</time>
      </trkpt>
      <trkpt lat="40.15122" lon="-1.79928">
        <ele>1270.8</ele>
        <time>2021-10-09 18:27:49</time>
      </trkpt>
      <trkpt lat="40.15122" lon="-1.79924">
        <ele>1271.2</ele>
        <time>2021-10-09 18:27:50</time>
      </trkpt>
      <trkpt lat="40.15121" lon="-1.79921">
        <ele>1271.2</ele>
        <time>2021-10-09 18:27:51</time>
      </trkpt>
      <trkpt lat="40.15121" lon="-1.79917">
        <ele>1271.4</ele>
        <time>2021-10-09 18:27:52</time>
      </trkpt>
      <trkpt lat="40.15121" lon="-1.79914">
        <ele>1271.4</ele>
        <time>2021-10-09 18:27:53</time>
      </trkpt>
      <trkpt lat="40.15121" lon="-1.7991">
        <ele>1271.8</ele>
        <time>2021-10-09 18:27:54</time>
      </trkpt>
      <trkpt lat="40.15121" lon="-1.79907">
        <ele>1272</ele>
        <time>2021-10-09 18:27:55</time>
      </trkpt>
      <trkpt lat="40.15121" lon="-1.79903">
        <ele>1272.2</ele>
        <time>2021-10-09 18:27:56</time>
      </trkpt>
      <trkpt lat="40.15121" lon="-1.799">
        <ele>1272.6</ele>
        <time>2021-10-09 18:27:57</time>
      </trkpt>
      <trkpt lat="40.15121" lon="-1.79897">
        <ele>1272.8</ele>
        <time>2021-10-09 18:27:58</time>
      </trkpt>
      <trkpt lat="40.15121" lon="-1.79893">
        <ele>1273</ele>
        <time>2021-10-09 18:27:59</time>
      </trkpt>
      <trkpt lat="40.1512" lon="-1.7989">
        <ele>1273.2</ele>
        <time>2021-10-09 18:28:00</time>
      </trkpt>
      <trkpt lat="40.1512" lon="-1.79887">
        <ele>1273.4</ele>
        <time>2021-10-09 18:28:01</time>
      </trkpt>
      <trkpt lat="40.1512" lon="-1.79883">
        <ele>1273.6</ele>
        <time>2021-10-09 18:28:02</time>
      </trkpt>
      <trkpt lat="40.1512" lon="-1.7988">
        <ele>1273.6</ele>
        <time>2021-10-09 18:28:03</time>
      </trkpt>
      <trkpt lat="40.15121" lon="-1.79876">
        <ele>1274</ele>
        <time>2021-10-09 18:28:04</time>
      </trkpt>
      <trkpt lat="40.15121" lon="-1.79873">
        <ele>1274.2</ele>
        <time>2021-10-09 18:28:05</time>
      </trkpt>
      <trkpt lat="40.15121" lon="-1.7987">
        <ele>1274.4</ele>
        <time>2021-10-09 18:28:06</time>
      </trkpt>
      <trkpt lat="40.15121" lon="-1.79866">
        <ele>1274.6</ele>
        <time>2021-10-09 18:28:07</time>
      </trkpt>
      <trkpt lat="40.15121" lon="-1.79863">
        <ele>1275</ele>
        <time>2021-10-09 18:28:08</time>
      </trkpt>
      <trkpt lat="40.15121" lon="-1.7986">
        <ele>1275.2</ele>
        <time>2021-10-09 18:28:09</time>
      </trkpt>
      <trkpt lat="40.1512" lon="-1.79856">
        <ele>1275.6</ele>
        <time>2021-10-09 18:28:10</time>
      </trkpt>
      <trkpt lat="40.1512" lon="-1.79853">
        <ele>1275.8</ele>
        <time>2021-10-09 18:28:11</time>
      </trkpt>
      <trkpt lat="40.1512" lon="-1.7985">
        <ele>1276</ele>
        <time>2021-10-09 18:28:12</time>
      </trkpt>
      <trkpt lat="40.15121" lon="-1.79847">
        <ele>1276.4</ele>
        <time>2021-10-09 18:28:13</time>
      </trkpt>
      <trkpt lat="40.15121" lon="-1.79844">
        <ele>1276.6</ele>
        <time>2021-10-09 18:28:14</time>
      </trkpt>
      <trkpt lat="40.15121" lon="-1.79841">
        <ele>1276.8</ele>
        <time>2021-10-09 18:28:15</time>
      </trkpt>
      <trkpt lat="40.15121" lon="-1.79838">
        <ele>1277</ele>
        <time>2021-10-09 18:28:16</time>
      </trkpt>
      <trkpt lat="40.15121" lon="-1.79834">
        <ele>1277.2</ele>
        <time>2021-10-09 18:28:17</time>
      </trkpt>
      <trkpt lat="40.15121" lon="-1.79832">
        <ele>1277.2</ele>
        <time>2021-10-09 18:28:18</time>
      </trkpt>
      <trkpt lat="40.1512" lon="-1.79829">
        <ele>1277.8</ele>
        <time>2021-10-09 18:28:19</time>
      </trkpt>
      <trkpt lat="40.1512" lon="-1.79825">
        <ele>1278</ele>
        <time>2021-10-09 18:28:20</time>
      </trkpt>
      <trkpt lat="40.15119" lon="-1.79823">
        <ele>1278</ele>
        <time>2021-10-09 18:28:21</time>
      </trkpt>
      <trkpt lat="40.15119" lon="-1.7982">
        <ele>1278.4</ele>
        <time>2021-10-09 18:28:22</time>
      </trkpt>
      <trkpt lat="40.15119" lon="-1.79816">
        <ele>1278.4</ele>
        <time>2021-10-09 18:28:23</time>
      </trkpt>
      <trkpt lat="40.15119" lon="-1.79812">
        <ele>1278.8</ele>
        <time>2021-10-09 18:28:24</time>
      </trkpt>
      <trkpt lat="40.15119" lon="-1.79808">
        <ele>1279</ele>
        <time>2021-10-09 18:28:25</time>
      </trkpt>
      <trkpt lat="40.15119" lon="-1.79805">
        <ele>1279</ele>
        <time>2021-10-09 18:28:26</time>
      </trkpt>
      <trkpt lat="40.15118" lon="-1.79801">
        <ele>1279.4</ele>
        <time>2021-10-09 18:28:27</time>
      </trkpt>
      <trkpt lat="40.15118" lon="-1.79798">
        <ele>1279.6</ele>
        <time>2021-10-09 18:28:28</time>
      </trkpt>
      <trkpt lat="40.15118" lon="-1.79794">
        <ele>1279.6</ele>
        <time>2021-10-09 18:28:29</time>
      </trkpt>
      <trkpt lat="40.15118" lon="-1.7979">
        <ele>1280</ele>
        <time>2021-10-09 18:28:30</time>
      </trkpt>
      <trkpt lat="40.15118" lon="-1.79787">
        <ele>1280</ele>
        <time>2021-10-09 18:28:31</time>
      </trkpt>
      <trkpt lat="40.15117" lon="-1.79783">
        <ele>1280.2</ele>
        <time>2021-10-09 18:28:32</time>
      </trkpt>
      <trkpt lat="40.15117" lon="-1.79779">
        <ele>1280.6</ele>
        <time>2021-10-09 18:28:33</time>
      </trkpt>
      <trkpt lat="40.15116" lon="-1.79775">
        <ele>1280.6</ele>
        <time>2021-10-09 18:28:34</time>
      </trkpt>
      <trkpt lat="40.15116" lon="-1.79771">
        <ele>1280.8</ele>
        <time>2021-10-09 18:28:35</time>
      </trkpt>
      <trkpt lat="40.15116" lon="-1.79768">
        <ele>1280.8</ele>
        <time>2021-10-09 18:28:36</time>
      </trkpt>
      <trkpt lat="40.15116" lon="-1.79764">
        <ele>1281.2</ele>
        <time>2021-10-09 18:28:37</time>
      </trkpt>
      <trkpt lat="40.15115" lon="-1.7976">
        <ele>1281.6</ele>
        <time>2021-10-09 18:28:38</time>
      </trkpt>
      <trkpt lat="40.15114" lon="-1.79757">
        <ele>1281.6</ele>
        <time>2021-10-09 18:28:39</time>
      </trkpt>
      <trkpt lat="40.15114" lon="-1.79754">
        <ele>1282</ele>
        <time>2021-10-09 18:28:40</time>
      </trkpt>
      <trkpt lat="40.15113" lon="-1.79751">
        <ele>1282.2</ele>
        <time>2021-10-09 18:28:41</time>
      </trkpt>
      <trkpt lat="40.15112" lon="-1.79748">
        <ele>1282.2</ele>
        <time>2021-10-09 18:28:42</time>
      </trkpt>
      <trkpt lat="40.15111" lon="-1.79744">
        <ele>1282.6</ele>
        <time>2021-10-09 18:28:43</time>
      </trkpt>
      <trkpt lat="40.1511" lon="-1.79741">
        <ele>1282.6</ele>
        <time>2021-10-09 18:28:44</time>
      </trkpt>
      <trkpt lat="40.15108" lon="-1.79738">
        <ele>1283</ele>
        <time>2021-10-09 18:28:45</time>
      </trkpt>
      <trkpt lat="40.15107" lon="-1.79735">
        <ele>1283.2</ele>
        <time>2021-10-09 18:28:46</time>
      </trkpt>
      <trkpt lat="40.15106" lon="-1.79731">
        <ele>1283.2</ele>
        <time>2021-10-09 18:28:47</time>
      </trkpt>
      <trkpt lat="40.15105" lon="-1.79728">
        <ele>1283.4</ele>
        <time>2021-10-09 18:28:48</time>
      </trkpt>
      <trkpt lat="40.15104" lon="-1.79725">
        <ele>1283.4</ele>
        <time>2021-10-09 18:28:49</time>
      </trkpt>
      <trkpt lat="40.15103" lon="-1.79722">
        <ele>1283.8</ele>
        <time>2021-10-09 18:28:50</time>
      </trkpt>
      <trkpt lat="40.15101" lon="-1.79718">
        <ele>1283.8</ele>
        <time>2021-10-09 18:28:51</time>
      </trkpt>
      <trkpt lat="40.151" lon="-1.79715">
        <ele>1284.2</ele>
        <time>2021-10-09 18:28:52</time>
      </trkpt>
      <trkpt lat="40.15099" lon="-1.79712">
        <ele>1284.2</ele>
        <time>2021-10-09 18:28:53</time>
      </trkpt>
      <trkpt lat="40.15098" lon="-1.79708">
        <ele>1284.6</ele>
        <time>2021-10-09 18:28:54</time>
      </trkpt>
      <trkpt lat="40.15097" lon="-1.79704">
        <ele>1284.6</ele>
        <time>2021-10-09 18:28:55</time>
      </trkpt>
      <trkpt lat="40.15095" lon="-1.79701">
        <ele>1284.8</ele>
        <time>2021-10-09 18:28:56</time>
      </trkpt>
      <trkpt lat="40.15094" lon="-1.79698">
        <ele>1285.2</ele>
        <time>2021-10-09 18:28:57</time>
      </trkpt>
      <trkpt lat="40.15094" lon="-1.79694">
        <ele>1285.2</ele>
        <time>2021-10-09 18:28:58</time>
      </trkpt>
      <trkpt lat="40.15093" lon="-1.79691">
        <ele>1285.4</ele>
        <time>2021-10-09 18:28:59</time>
      </trkpt>
      <trkpt lat="40.15092" lon="-1.79688">
        <ele>1285.4</ele>
        <time>2021-10-09 18:29:00</time>
      </trkpt>
      <trkpt lat="40.15091" lon="-1.79684">
        <ele>1285.6</ele>
        <time>2021-10-09 18:29:01</time>
      </trkpt>
      <trkpt lat="40.1509" lon="-1.7968">
        <ele>1285.6</ele>
        <time>2021-10-09 18:29:02</time>
      </trkpt>
      <trkpt lat="40.1509" lon="-1.79676">
        <ele>1285.8</ele>
        <time>2021-10-09 18:29:03</time>
      </trkpt>
      <trkpt lat="40.1509" lon="-1.79671">
        <ele>1285.8</ele>
        <time>2021-10-09 18:29:04</time>
      </trkpt>
      <trkpt lat="40.1509" lon="-1.79667">
        <ele>1286.2</ele>
        <time>2021-10-09 18:29:05</time>
      </trkpt>
      <trkpt lat="40.1509" lon="-1.79663">
        <ele>1286.2</ele>
        <time>2021-10-09 18:29:06</time>
      </trkpt>
      <trkpt lat="40.15089" lon="-1.79658">
        <ele>1286.4</ele>
        <time>2021-10-09 18:29:07</time>
      </trkpt>
      <trkpt lat="40.15089" lon="-1.79653">
        <ele>1286.4</ele>
        <time>2021-10-09 18:29:08</time>
      </trkpt>
      <trkpt lat="40.15089" lon="-1.79648">
        <ele>1286.8</ele>
        <time>2021-10-09 18:29:09</time>
      </trkpt>
      <trkpt lat="40.15089" lon="-1.79644">
        <ele>1286.8</ele>
        <time>2021-10-09 18:29:10</time>
      </trkpt>
      <trkpt lat="40.15089" lon="-1.7964">
        <ele>1287.2</ele>
        <time>2021-10-09 18:29:11</time>
      </trkpt>
      <trkpt lat="40.15089" lon="-1.79636">
        <ele>1287.2</ele>
        <time>2021-10-09 18:29:12</time>
      </trkpt>
      <trkpt lat="40.15089" lon="-1.79631">
        <ele>1287.4</ele>
        <time>2021-10-09 18:29:13</time>
      </trkpt>
      <trkpt lat="40.15089" lon="-1.79627">
        <ele>1288</ele>
        <time>2021-10-09 18:29:14</time>
      </trkpt>
      <trkpt lat="40.15089" lon="-1.79623">
        <ele>1288</ele>
        <time>2021-10-09 18:29:15</time>
      </trkpt>
      <trkpt lat="40.15089" lon="-1.79618">
        <ele>1288</ele>
        <time>2021-10-09 18:29:16</time>
      </trkpt>
      <trkpt lat="40.15088" lon="-1.79614">
        <ele>1288</ele>
        <time>2021-10-09 18:29:17</time>
      </trkpt>
      <trkpt lat="40.15088" lon="-1.7961">
        <ele>1288</ele>
        <time>2021-10-09 18:29:18</time>
      </trkpt>
      <trkpt lat="40.15087" lon="-1.79606">
        <ele>1288.2</ele>
        <time>2021-10-09 18:29:19</time>
      </trkpt>
      <trkpt lat="40.15086" lon="-1.79602">
        <ele>1288.2</ele>
        <time>2021-10-09 18:29:20</time>
      </trkpt>
      <trkpt lat="40.15085" lon="-1.79598">
        <ele>1288.2</ele>
        <time>2021-10-09 18:29:21</time>
      </trkpt>
      <trkpt lat="40.15083" lon="-1.79593">
        <ele>1288.2</ele>
        <time>2021-10-09 18:29:22</time>
      </trkpt>
      <trkpt lat="40.15082" lon="-1.79589">
        <ele>1288.4</ele>
        <time>2021-10-09 18:29:23</time>
      </trkpt>
      <trkpt lat="40.1508" lon="-1.79585">
        <ele>1288.4</ele>
        <time>2021-10-09 18:29:24</time>
      </trkpt>
      <trkpt lat="40.15079" lon="-1.79581">
        <ele>1288.6</ele>
        <time>2021-10-09 18:29:25</time>
      </trkpt>
      <trkpt lat="40.15077" lon="-1.79577">
        <ele>1288.6</ele>
        <time>2021-10-09 18:29:26</time>
      </trkpt>
      <trkpt lat="40.15075" lon="-1.79573">
        <ele>1288.8</ele>
        <time>2021-10-09 18:29:27</time>
      </trkpt>
      <trkpt lat="40.15073" lon="-1.7957">
        <ele>1288.8</ele>
        <time>2021-10-09 18:29:28</time>
      </trkpt>
      <trkpt lat="40.15071" lon="-1.79566">
        <ele>1288.8</ele>
        <time>2021-10-09 18:29:29</time>
      </trkpt>
      <trkpt lat="40.15069" lon="-1.79563">
        <ele>1288.8</ele>
        <time>2021-10-09 18:29:30</time>
      </trkpt>
      <trkpt lat="40.15066" lon="-1.79559">
        <ele>1289</ele>
        <time>2021-10-09 18:29:31</time>
      </trkpt>
      <trkpt lat="40.15063" lon="-1.79556">
        <ele>1289</ele>
        <time>2021-10-09 18:29:32</time>
      </trkpt>
      <trkpt lat="40.15061" lon="-1.79552">
        <ele>1289.4</ele>
        <time>2021-10-09 18:29:33</time>
      </trkpt>
      <trkpt lat="40.15058" lon="-1.79548">
        <ele>1289.4</ele>
        <time>2021-10-09 18:29:34</time>
      </trkpt>
      <trkpt lat="40.15055" lon="-1.79544">
        <ele>1289.6</ele>
        <time>2021-10-09 18:29:35</time>
      </trkpt>
      <trkpt lat="40.15053" lon="-1.79541">
        <ele>1289.6</ele>
        <time>2021-10-09 18:29:36</time>
      </trkpt>
      <trkpt lat="40.1505" lon="-1.79536">
        <ele>1289.8</ele>
        <time>2021-10-09 18:29:37</time>
      </trkpt>
      <trkpt lat="40.15048" lon="-1.79532">
        <ele>1289.8</ele>
        <time>2021-10-09 18:29:38</time>
      </trkpt>
      <trkpt lat="40.15045" lon="-1.79529">
        <ele>1290.2</ele>
        <time>2021-10-09 18:29:39</time>
      </trkpt>
      <trkpt lat="40.15043" lon="-1.79525">
        <ele>1290.4</ele>
        <time>2021-10-09 18:29:40</time>
      </trkpt>
      <trkpt lat="40.1504" lon="-1.79521">
        <ele>1290.8</ele>
        <time>2021-10-09 18:29:41</time>
      </trkpt>
      <trkpt lat="40.15038" lon="-1.79517">
        <ele>1291.2</ele>
        <time>2021-10-09 18:29:42</time>
      </trkpt>
      <trkpt lat="40.15035" lon="-1.79514">
        <ele>1291.2</ele>
        <time>2021-10-09 18:29:43</time>
      </trkpt>
      <trkpt lat="40.15032" lon="-1.7951">
        <ele>1291.2</ele>
        <time>2021-10-09 18:29:44</time>
      </trkpt>
      <trkpt lat="40.1503" lon="-1.79506">
        <ele>1291.2</ele>
        <time>2021-10-09 18:29:45</time>
      </trkpt>
      <trkpt lat="40.15027" lon="-1.79503">
        <ele>1291.2</ele>
        <time>2021-10-09 18:29:46</time>
      </trkpt>
      <trkpt lat="40.15024" lon="-1.79499">
        <ele>1291.2</ele>
        <time>2021-10-09 18:29:47</time>
      </trkpt>
      <trkpt lat="40.15022" lon="-1.79495">
        <ele>1291.2</ele>
        <time>2021-10-09 18:29:48</time>
      </trkpt>
      <trkpt lat="40.15019" lon="-1.79491">
        <ele>1291.2</ele>
        <time>2021-10-09 18:29:49</time>
      </trkpt>
      <trkpt lat="40.15017" lon="-1.79488">
        <ele>1291.2</ele>
        <time>2021-10-09 18:29:50</time>
      </trkpt>
      <trkpt lat="40.15014" lon="-1.79485">
        <ele>1291.4</ele>
        <time>2021-10-09 18:29:51</time>
      </trkpt>
      <trkpt lat="40.15012" lon="-1.79481">
        <ele>1291.4</ele>
        <time>2021-10-09 18:29:52</time>
      </trkpt>
      <trkpt lat="40.1501" lon="-1.79478">
        <ele>1291.4</ele>
        <time>2021-10-09 18:29:53</time>
      </trkpt>
      <trkpt lat="40.15008" lon="-1.79474">
        <ele>1291.8</ele>
        <time>2021-10-09 18:29:54</time>
      </trkpt>
      <trkpt lat="40.15006" lon="-1.7947">
        <ele>1291.8</ele>
        <time>2021-10-09 18:29:55</time>
      </trkpt>
      <trkpt lat="40.15004" lon="-1.79466">
        <ele>1292</ele>
        <time>2021-10-09 18:29:56</time>
      </trkpt>
      <trkpt lat="40.15001" lon="-1.79463">
        <ele>1292</ele>
        <time>2021-10-09 18:29:57</time>
      </trkpt>
      <trkpt lat="40.14998" lon="-1.79459">
        <ele>1292.4</ele>
        <time>2021-10-09 18:29:58</time>
      </trkpt>
      <trkpt lat="40.14994" lon="-1.79454">
        <ele>1292.4</ele>
        <time>2021-10-09 18:29:59</time>
      </trkpt>
      <trkpt lat="40.14991" lon="-1.79449">
        <ele>1292.6</ele>
        <time>2021-10-09 18:30:00</time>
      </trkpt>
      <trkpt lat="40.14989" lon="-1.79445">
        <ele>1292.6</ele>
        <time>2021-10-09 18:30:01</time>
      </trkpt>
      <trkpt lat="40.14986" lon="-1.79442">
        <ele>1293</ele>
        <time>2021-10-09 18:30:02</time>
      </trkpt>
      <trkpt lat="40.14983" lon="-1.79438">
        <ele>1293</ele>
        <time>2021-10-09 18:30:03</time>
      </trkpt>
      <trkpt lat="40.1498" lon="-1.79434">
        <ele>1293.4</ele>
        <time>2021-10-09 18:30:04</time>
      </trkpt>
      <trkpt lat="40.14977" lon="-1.79431">
        <ele>1293.6</ele>
        <time>2021-10-09 18:30:05</time>
      </trkpt>
      <trkpt lat="40.14975" lon="-1.79428">
        <ele>1293.6</ele>
        <time>2021-10-09 18:30:06</time>
      </trkpt>
      <trkpt lat="40.14972" lon="-1.79425">
        <ele>1294</ele>
        <time>2021-10-09 18:30:07</time>
      </trkpt>
      <trkpt lat="40.14969" lon="-1.79423">
        <ele>1294</ele>
        <time>2021-10-09 18:30:08</time>
      </trkpt>
      <trkpt lat="40.14966" lon="-1.79421">
        <ele>1294.4</ele>
        <time>2021-10-09 18:30:09</time>
      </trkpt>
      <trkpt lat="40.14963" lon="-1.79418">
        <ele>1294.4</ele>
        <time>2021-10-09 18:30:10</time>
      </trkpt>
      <trkpt lat="40.1496" lon="-1.79415">
        <ele>1294.8</ele>
        <time>2021-10-09 18:30:11</time>
      </trkpt>
      <trkpt lat="40.14957" lon="-1.79413">
        <ele>1295</ele>
        <time>2021-10-09 18:30:12</time>
      </trkpt>
      <trkpt lat="40.14955" lon="-1.7941">
        <ele>1295</ele>
        <time>2021-10-09 18:30:13</time>
      </trkpt>
      <trkpt lat="40.14952" lon="-1.79408">
        <ele>1295.2</ele>
        <time>2021-10-09 18:30:14</time>
      </trkpt>
      <trkpt lat="40.14949" lon="-1.79405">
        <ele>1295.4</ele>
        <time>2021-10-09 18:30:15</time>
      </trkpt>
      <trkpt lat="40.14945" lon="-1.79404">
        <ele>1295.4</ele>
        <time>2021-10-09 18:30:16</time>
      </trkpt>
      <trkpt lat="40.14942" lon="-1.79402">
        <ele>1295.8</ele>
        <time>2021-10-09 18:30:17</time>
      </trkpt>
      <trkpt lat="40.14939" lon="-1.79399">
        <ele>1295.8</ele>
        <time>2021-10-09 18:30:18</time>
      </trkpt>
      <trkpt lat="40.14936" lon="-1.79397">
        <ele>1296</ele>
        <time>2021-10-09 18:30:19</time>
      </trkpt>
      <trkpt lat="40.14934" lon="-1.79394">
        <ele>1296</ele>
        <time>2021-10-09 18:30:20</time>
      </trkpt>
      <trkpt lat="40.14931" lon="-1.79391">
        <ele>1296.4</ele>
        <time>2021-10-09 18:30:21</time>
      </trkpt>
      <trkpt lat="40.14928" lon="-1.79388">
        <ele>1296.4</ele>
        <time>2021-10-09 18:30:22</time>
      </trkpt>
      <trkpt lat="40.14926" lon="-1.79386">
        <ele>1296.8</ele>
        <time>2021-10-09 18:30:23</time>
      </trkpt>
      <trkpt lat="40.14923" lon="-1.79384">
        <ele>1296.8</ele>
        <time>2021-10-09 18:30:24</time>
      </trkpt>
      <trkpt lat="40.1492" lon="-1.79381">
        <ele>1297</ele>
        <time>2021-10-09 18:30:25</time>
      </trkpt>
      <trkpt lat="40.14917" lon="-1.79379">
        <ele>1297</ele>
        <time>2021-10-09 18:30:26</time>
      </trkpt>
      <trkpt lat="40.14914" lon="-1.79376">
        <ele>1297.2</ele>
        <time>2021-10-09 18:30:27</time>
      </trkpt>
      <trkpt lat="40.14911" lon="-1.79374">
        <ele>1297.2</ele>
        <time>2021-10-09 18:30:28</time>
      </trkpt>
      <trkpt lat="40.14908" lon="-1.79372">
        <ele>1297.4</ele>
        <time>2021-10-09 18:30:29</time>
      </trkpt>
      <trkpt lat="40.14905" lon="-1.79369">
        <ele>1297.4</ele>
        <time>2021-10-09 18:30:30</time>
      </trkpt>
      <trkpt lat="40.14902" lon="-1.79367">
        <ele>1297.8</ele>
        <time>2021-10-09 18:30:31</time>
      </trkpt>
      <trkpt lat="40.14899" lon="-1.79364">
        <ele>1297.8</ele>
        <time>2021-10-09 18:30:32</time>
      </trkpt>
      <trkpt lat="40.14896" lon="-1.79361">
        <ele>1298.2</ele>
        <time>2021-10-09 18:30:33</time>
      </trkpt>
      <trkpt lat="40.14893" lon="-1.79358">
        <ele>1298.2</ele>
        <time>2021-10-09 18:30:34</time>
      </trkpt>
      <trkpt lat="40.1489" lon="-1.79355">
        <ele>1298.4</ele>
        <time>2021-10-09 18:30:35</time>
      </trkpt>
      <trkpt lat="40.14887" lon="-1.79352">
        <ele>1298.4</ele>
        <time>2021-10-09 18:30:36</time>
      </trkpt>
      <trkpt lat="40.14884" lon="-1.79349">
        <ele>1298.6</ele>
        <time>2021-10-09 18:30:37</time>
      </trkpt>
      <trkpt lat="40.14881" lon="-1.79345">
        <ele>1298.6</ele>
        <time>2021-10-09 18:30:38</time>
      </trkpt>
      <trkpt lat="40.14878" lon="-1.79343">
        <ele>1299</ele>
        <time>2021-10-09 18:30:39</time>
      </trkpt>
      <trkpt lat="40.14875" lon="-1.7934">
        <ele>1299</ele>
        <time>2021-10-09 18:30:40</time>
      </trkpt>
      <trkpt lat="40.14871" lon="-1.79337">
        <ele>1299</ele>
        <time>2021-10-09 18:30:41</time>
      </trkpt>
      <trkpt lat="40.14867" lon="-1.79335">
        <ele>1299</ele>
        <time>2021-10-09 18:30:42</time>
      </trkpt>
      <trkpt lat="40.14864" lon="-1.79331">
        <ele>1299</ele>
        <time>2021-10-09 18:30:43</time>
      </trkpt>
      <trkpt lat="40.14861" lon="-1.79328">
        <ele>1299</ele>
        <time>2021-10-09 18:30:44</time>
      </trkpt>
      <trkpt lat="40.14856" lon="-1.79324">
        <ele>1299</ele>
        <time>2021-10-09 18:30:45</time>
      </trkpt>
      <trkpt lat="40.14853" lon="-1.79321">
        <ele>1299</ele>
        <time>2021-10-09 18:30:46</time>
      </trkpt>
      <trkpt lat="40.1485" lon="-1.79317">
        <ele>1299</ele>
        <time>2021-10-09 18:30:47</time>
      </trkpt>
      <trkpt lat="40.14846" lon="-1.79313">
        <ele>1299.2</ele>
        <time>2021-10-09 18:30:48</time>
      </trkpt>
      <trkpt lat="40.14843" lon="-1.7931">
        <ele>1299.2</ele>
        <time>2021-10-09 18:30:49</time>
      </trkpt>
      <trkpt lat="40.14839" lon="-1.79306">
        <ele>1299.2</ele>
        <time>2021-10-09 18:30:50</time>
      </trkpt>
      <trkpt lat="40.14836" lon="-1.79303">
        <ele>1299.2</ele>
        <time>2021-10-09 18:30:51</time>
      </trkpt>
      <trkpt lat="40.14832" lon="-1.793">
        <ele>1299.2</ele>
        <time>2021-10-09 18:30:52</time>
      </trkpt>
      <trkpt lat="40.14828" lon="-1.79296">
        <ele>1299</ele>
        <time>2021-10-09 18:30:53</time>
      </trkpt>
      <trkpt lat="40.14825" lon="-1.79292">
        <ele>1299</ele>
        <time>2021-10-09 18:30:54</time>
      </trkpt>
      <trkpt lat="40.14821" lon="-1.79288">
        <ele>1298.8</ele>
        <time>2021-10-09 18:30:55</time>
      </trkpt>
      <trkpt lat="40.14816" lon="-1.79284">
        <ele>1298.4</ele>
        <time>2021-10-09 18:30:56</time>
      </trkpt>
      <trkpt lat="40.14812" lon="-1.79279">
        <ele>1298.4</ele>
        <time>2021-10-09 18:30:57</time>
      </trkpt>
      <trkpt lat="40.14807" lon="-1.79274">
        <ele>1298</ele>
        <time>2021-10-09 18:30:58</time>
      </trkpt>
      <trkpt lat="40.14803" lon="-1.79269">
        <ele>1297.8</ele>
        <time>2021-10-09 18:30:59</time>
      </trkpt>
      <trkpt lat="40.14798" lon="-1.79264">
        <ele>1297.8</ele>
        <time>2021-10-09 18:31:00</time>
      </trkpt>
      <trkpt lat="40.14794" lon="-1.79259">
        <ele>1297.4</ele>
        <time>2021-10-09 18:31:01</time>
      </trkpt>
      <trkpt lat="40.14789" lon="-1.79253">
        <ele>1297.2</ele>
        <time>2021-10-09 18:31:02</time>
      </trkpt>
      <trkpt lat="40.14783" lon="-1.79247">
        <ele>1296.8</ele>
        <time>2021-10-09 18:31:03</time>
      </trkpt>
      <trkpt lat="40.14778" lon="-1.79241">
        <ele>1296.6</ele>
        <time>2021-10-09 18:31:04</time>
      </trkpt>
      <trkpt lat="40.14771" lon="-1.79236">
        <ele>1296.2</ele>
        <time>2021-10-09 18:31:05</time>
      </trkpt>
      <trkpt lat="40.14766" lon="-1.7923">
        <ele>1295.8</ele>
        <time>2021-10-09 18:31:06</time>
      </trkpt>
      <trkpt lat="40.14759" lon="-1.79223">
        <ele>1295.4</ele>
        <time>2021-10-09 18:31:07</time>
      </trkpt>
      <trkpt lat="40.14753" lon="-1.79215">
        <ele>1294.8</ele>
        <time>2021-10-09 18:31:08</time>
      </trkpt>
      <trkpt lat="40.14747" lon="-1.79207">
        <ele>1294.4</ele>
        <time>2021-10-09 18:31:09</time>
      </trkpt>
      <trkpt lat="40.1474" lon="-1.79199">
        <ele>1293.8</ele>
        <time>2021-10-09 18:31:10</time>
      </trkpt>
      <trkpt lat="40.14733" lon="-1.79191">
        <ele>1293.2</ele>
        <time>2021-10-09 18:31:11</time>
      </trkpt>
      <trkpt lat="40.14726" lon="-1.79182">
        <ele>1292.6</ele>
        <time>2021-10-09 18:31:12</time>
      </trkpt>
      <trkpt lat="40.14718" lon="-1.79173">
        <ele>1291.8</ele>
        <time>2021-10-09 18:31:13</time>
      </trkpt>
      <trkpt lat="40.14711" lon="-1.79164">
        <ele>1291.2</ele>
        <time>2021-10-09 18:31:14</time>
      </trkpt>
      <trkpt lat="40.14703" lon="-1.79155">
        <ele>1290.4</ele>
        <time>2021-10-09 18:31:15</time>
      </trkpt>
      <trkpt lat="40.14695" lon="-1.79145">
        <ele>1289.8</ele>
        <time>2021-10-09 18:31:16</time>
      </trkpt>
      <trkpt lat="40.14688" lon="-1.79135">
        <ele>1289</ele>
        <time>2021-10-09 18:31:17</time>
      </trkpt>
      <trkpt lat="40.1468" lon="-1.79125">
        <ele>1288.2</ele>
        <time>2021-10-09 18:31:18</time>
      </trkpt>
      <trkpt lat="40.14672" lon="-1.79113">
        <ele>1287.4</ele>
        <time>2021-10-09 18:31:19</time>
      </trkpt>
      <trkpt lat="40.14666" lon="-1.791">
        <ele>1286.6</ele>
        <time>2021-10-09 18:31:20</time>
      </trkpt>
      <trkpt lat="40.1466" lon="-1.79087">
        <ele>1285.8</ele>
        <time>2021-10-09 18:31:21</time>
      </trkpt>
      <trkpt lat="40.14655" lon="-1.79073">
        <ele>1285</ele>
        <time>2021-10-09 18:31:22</time>
      </trkpt>
      <trkpt lat="40.14651" lon="-1.79059">
        <ele>1284.4</ele>
        <time>2021-10-09 18:31:23</time>
      </trkpt>
      <trkpt lat="40.14646" lon="-1.79045">
        <ele>1283.8</ele>
        <time>2021-10-09 18:31:24</time>
      </trkpt>
      <trkpt lat="40.14643" lon="-1.79031">
        <ele>1283.2</ele>
        <time>2021-10-09 18:31:25</time>
      </trkpt>
      <trkpt lat="40.14639" lon="-1.79019">
        <ele>1282.8</ele>
        <time>2021-10-09 18:31:26</time>
      </trkpt>
      <trkpt lat="40.14636" lon="-1.79006">
        <ele>1282.8</ele>
        <time>2021-10-09 18:31:27</time>
      </trkpt>
      <trkpt lat="40.14636" lon="-1.78995">
        <ele>1282.4</ele>
        <time>2021-10-09 18:31:28</time>
      </trkpt>
      <trkpt lat="40.14636" lon="-1.78984">
        <ele>1282.4</ele>
        <time>2021-10-09 18:31:29</time>
      </trkpt>
      <trkpt lat="40.14639" lon="-1.78975">
        <ele>1282.4</ele>
        <time>2021-10-09 18:31:30</time>
      </trkpt>
      <trkpt lat="40.14645" lon="-1.78968">
        <ele>1282.4</ele>
        <time>2021-10-09 18:31:31</time>
      </trkpt>
      <trkpt lat="40.14648" lon="-1.78961">
        <ele>1282.4</ele>
        <time>2021-10-09 18:31:32</time>
      </trkpt>
      <trkpt lat="40.14653" lon="-1.78954">
        <ele>1282.4</ele>
        <time>2021-10-09 18:31:33</time>
      </trkpt>
      <trkpt lat="40.14656" lon="-1.78947">
        <ele>1282.4</ele>
        <time>2021-10-09 18:31:34</time>
      </trkpt>
      <trkpt lat="40.1466" lon="-1.78941">
        <ele>1282.4</ele>
        <time>2021-10-09 18:31:35</time>
      </trkpt>
      <trkpt lat="40.14664" lon="-1.78932">
        <ele>1282.4</ele>
        <time>2021-10-09 18:31:36</time>
      </trkpt>
      <trkpt lat="40.14668" lon="-1.78925">
        <ele>1282.4</ele>
        <time>2021-10-09 18:31:37</time>
      </trkpt>
      <trkpt lat="40.1467" lon="-1.78918">
        <ele>1282.4</ele>
        <time>2021-10-09 18:31:38</time>
      </trkpt>
      <trkpt lat="40.14673" lon="-1.78909">
        <ele>1282.4</ele>
        <time>2021-10-09 18:31:39</time>
      </trkpt>
      <trkpt lat="40.14673" lon="-1.78903">
        <ele>1282.4</ele>
        <time>2021-10-09 18:31:40</time>
      </trkpt>
      <trkpt lat="40.14672" lon="-1.78895">
        <ele>1282</ele>
        <time>2021-10-09 18:31:41</time>
      </trkpt>
      <trkpt lat="40.14669" lon="-1.78889">
        <ele>1282</ele>
        <time>2021-10-09 18:31:42</time>
      </trkpt>
      <trkpt lat="40.14666" lon="-1.78883">
        <ele>1281.8</ele>
        <time>2021-10-09 18:31:43</time>
      </trkpt>
      <trkpt lat="40.14663" lon="-1.78878">
        <ele>1281.8</ele>
        <time>2021-10-09 18:31:44</time>
      </trkpt>
      <trkpt lat="40.14658" lon="-1.78874">
        <ele>1281.4</ele>
        <time>2021-10-09 18:31:45</time>
      </trkpt>
      <trkpt lat="40.14652" lon="-1.7887">
        <ele>1281.4</ele>
        <time>2021-10-09 18:31:46</time>
      </trkpt>
      <trkpt lat="40.14646" lon="-1.78867">
        <ele>1281</ele>
        <time>2021-10-09 18:31:47</time>
      </trkpt>
      <trkpt lat="40.1464" lon="-1.78864">
        <ele>1280.6</ele>
        <time>2021-10-09 18:31:48</time>
      </trkpt>
      <trkpt lat="40.14633" lon="-1.78861">
        <ele>1280</ele>
        <time>2021-10-09 18:31:49</time>
      </trkpt>
      <trkpt lat="40.14626" lon="-1.78858">
        <ele>1279.8</ele>
        <time>2021-10-09 18:31:50</time>
      </trkpt>
      <trkpt lat="40.14619" lon="-1.78855">
        <ele>1279.4</ele>
        <time>2021-10-09 18:31:51</time>
      </trkpt>
      <trkpt lat="40.14612" lon="-1.78851">
        <ele>1278.8</ele>
        <time>2021-10-09 18:31:52</time>
      </trkpt>
      <trkpt lat="40.14606" lon="-1.78847">
        <ele>1278.2</ele>
        <time>2021-10-09 18:31:53</time>
      </trkpt>
      <trkpt lat="40.14599" lon="-1.78844">
        <ele>1277.6</ele>
        <time>2021-10-09 18:31:54</time>
      </trkpt>
      <trkpt lat="40.14593" lon="-1.78842">
        <ele>1277</ele>
        <time>2021-10-09 18:31:55</time>
      </trkpt>
      <trkpt lat="40.14587" lon="-1.78839">
        <ele>1276.6</ele>
        <time>2021-10-09 18:31:56</time>
      </trkpt>
      <trkpt lat="40.1458" lon="-1.78838">
        <ele>1276.2</ele>
        <time>2021-10-09 18:31:57</time>
      </trkpt>
      <trkpt lat="40.14574" lon="-1.78837">
        <ele>1275.6</ele>
        <time>2021-10-09 18:31:58</time>
      </trkpt>
      <trkpt lat="40.14568" lon="-1.78835">
        <ele>1275</ele>
        <time>2021-10-09 18:31:59</time>
      </trkpt>
      <trkpt lat="40.1456" lon="-1.78833">
        <ele>1274.6</ele>
        <time>2021-10-09 18:32:00</time>
      </trkpt>
      <trkpt lat="40.14552" lon="-1.78831">
        <ele>1274</ele>
        <time>2021-10-09 18:32:01</time>
      </trkpt>
      <trkpt lat="40.14545" lon="-1.78828">
        <ele>1273.6</ele>
        <time>2021-10-09 18:32:02</time>
      </trkpt>
      <trkpt lat="40.14536" lon="-1.78827">
        <ele>1273</ele>
        <time>2021-10-09 18:32:03</time>
      </trkpt>
      <trkpt lat="40.14527" lon="-1.78824">
        <ele>1272.4</ele>
        <time>2021-10-09 18:32:04</time>
      </trkpt>
      <trkpt lat="40.14518" lon="-1.78824">
        <ele>1272</ele>
        <time>2021-10-09 18:32:05</time>
      </trkpt>
      <trkpt lat="40.14509" lon="-1.78822">
        <ele>1271.4</ele>
        <time>2021-10-09 18:32:06</time>
      </trkpt>
      <trkpt lat="40.14501" lon="-1.78821">
        <ele>1271</ele>
        <time>2021-10-09 18:32:07</time>
      </trkpt>
      <trkpt lat="40.14492" lon="-1.78819">
        <ele>1270.6</ele>
        <time>2021-10-09 18:32:08</time>
      </trkpt>
      <trkpt lat="40.14483" lon="-1.78817">
        <ele>1270.2</ele>
        <time>2021-10-09 18:32:09</time>
      </trkpt>
      <trkpt lat="40.14474" lon="-1.78816">
        <ele>1269.8</ele>
        <time>2021-10-09 18:32:10</time>
      </trkpt>
      <trkpt lat="40.14464" lon="-1.78814">
        <ele>1269.4</ele>
        <time>2021-10-09 18:32:11</time>
      </trkpt>
      <trkpt lat="40.14456" lon="-1.78812">
        <ele>1269</ele>
        <time>2021-10-09 18:32:12</time>
      </trkpt>
      <trkpt lat="40.14447" lon="-1.7881">
        <ele>1268.6</ele>
        <time>2021-10-09 18:32:13</time>
      </trkpt>
      <trkpt lat="40.14439" lon="-1.78806">
        <ele>1268.4</ele>
        <time>2021-10-09 18:32:14</time>
      </trkpt>
      <trkpt lat="40.14432" lon="-1.78801">
        <ele>1268.2</ele>
        <time>2021-10-09 18:32:15</time>
      </trkpt>
      <trkpt lat="40.14424" lon="-1.78796">
        <ele>1267.8</ele>
        <time>2021-10-09 18:32:16</time>
      </trkpt>
      <trkpt lat="40.1441" lon="-1.78784">
        <ele>1267.6</ele>
        <time>2021-10-09 18:32:17</time>
      </trkpt>
      <trkpt lat="40.14402" lon="-1.78777">
        <ele>1267.2</ele>
        <time>2021-10-09 18:32:18</time>
      </trkpt>
      <trkpt lat="40.14396" lon="-1.7877">
        <ele>1266.8</ele>
        <time>2021-10-09 18:32:19</time>
      </trkpt>
      <trkpt lat="40.14389" lon="-1.78762">
        <ele>1266.4</ele>
        <time>2021-10-09 18:32:20</time>
      </trkpt>
      <trkpt lat="40.14382" lon="-1.78754">
        <ele>1266</ele>
        <time>2021-10-09 18:32:21</time>
      </trkpt>
      <trkpt lat="40.14375" lon="-1.78748">
        <ele>1265.4</ele>
        <time>2021-10-09 18:32:22</time>
      </trkpt>
      <trkpt lat="40.14368" lon="-1.78741">
        <ele>1265</ele>
        <time>2021-10-09 18:32:23</time>
      </trkpt>
      <trkpt lat="40.14361" lon="-1.78733">
        <ele>1264.6</ele>
        <time>2021-10-09 18:32:24</time>
      </trkpt>
      <trkpt lat="40.14353" lon="-1.78726">
        <ele>1264.2</ele>
        <time>2021-10-09 18:32:25</time>
      </trkpt>
      <trkpt lat="40.14346" lon="-1.78719">
        <ele>1263.6</ele>
        <time>2021-10-09 18:32:26</time>
      </trkpt>
      <trkpt lat="40.14339" lon="-1.7871">
        <ele>1263</ele>
        <time>2021-10-09 18:32:27</time>
      </trkpt>
      <trkpt lat="40.14331" lon="-1.78703">
        <ele>1262.2</ele>
        <time>2021-10-09 18:32:28</time>
      </trkpt>
      <trkpt lat="40.14323" lon="-1.78695">
        <ele>1261.6</ele>
        <time>2021-10-09 18:32:29</time>
      </trkpt>
      <trkpt lat="40.14314" lon="-1.78688">
        <ele>1260.8</ele>
        <time>2021-10-09 18:32:30</time>
      </trkpt>
      <trkpt lat="40.14304" lon="-1.78684">
        <ele>1260</ele>
        <time>2021-10-09 18:32:31</time>
      </trkpt>
      <trkpt lat="40.14294" lon="-1.7868">
        <ele>1259.2</ele>
        <time>2021-10-09 18:32:32</time>
      </trkpt>
      <trkpt lat="40.14284" lon="-1.78678">
        <ele>1258.6</ele>
        <time>2021-10-09 18:32:33</time>
      </trkpt>
      <trkpt lat="40.14273" lon="-1.78675">
        <ele>1258</ele>
        <time>2021-10-09 18:32:34</time>
      </trkpt>
      <trkpt lat="40.14262" lon="-1.78673">
        <ele>1257.2</ele>
        <time>2021-10-09 18:32:35</time>
      </trkpt>
      <trkpt lat="40.14252" lon="-1.78671">
        <ele>1256.8</ele>
        <time>2021-10-09 18:32:36</time>
      </trkpt>
      <trkpt lat="40.14241" lon="-1.78668">
        <ele>1256</ele>
        <time>2021-10-09 18:32:37</time>
      </trkpt>
      <trkpt lat="40.14231" lon="-1.78667">
        <ele>1255.6</ele>
        <time>2021-10-09 18:32:38</time>
      </trkpt>
      <trkpt lat="40.1422" lon="-1.78665">
        <ele>1255.2</ele>
        <time>2021-10-09 18:32:39</time>
      </trkpt>
      <trkpt lat="40.1421" lon="-1.78663">
        <ele>1254.6</ele>
        <time>2021-10-09 18:32:40</time>
      </trkpt>
      <trkpt lat="40.14199" lon="-1.78662">
        <ele>1254.2</ele>
        <time>2021-10-09 18:32:41</time>
      </trkpt>
      <trkpt lat="40.14188" lon="-1.7866">
        <ele>1253.4</ele>
        <time>2021-10-09 18:32:42</time>
      </trkpt>
      <trkpt lat="40.14177" lon="-1.78658">
        <ele>1252.6</ele>
        <time>2021-10-09 18:32:43</time>
      </trkpt>
      <trkpt lat="40.14165" lon="-1.78656">
        <ele>1251.8</ele>
        <time>2021-10-09 18:32:44</time>
      </trkpt>
      <trkpt lat="40.14153" lon="-1.78655">
        <ele>1251</ele>
        <time>2021-10-09 18:32:45</time>
      </trkpt>
      <trkpt lat="40.14141" lon="-1.78653">
        <ele>1250</ele>
        <time>2021-10-09 18:32:46</time>
      </trkpt>
      <trkpt lat="40.14128" lon="-1.78652">
        <ele>1248.8</ele>
        <time>2021-10-09 18:32:47</time>
      </trkpt>
      <trkpt lat="40.14114" lon="-1.78651">
        <ele>1247.6</ele>
        <time>2021-10-09 18:32:48</time>
      </trkpt>
      <trkpt lat="40.141" lon="-1.78652">
        <ele>1246.4</ele>
        <time>2021-10-09 18:32:49</time>
      </trkpt>
      <trkpt lat="40.14086" lon="-1.78653">
        <ele>1244.8</ele>
        <time>2021-10-09 18:32:50</time>
      </trkpt>
      <trkpt lat="40.1407" lon="-1.78654">
        <ele>1243</ele>
        <time>2021-10-09 18:32:51</time>
      </trkpt>
      <trkpt lat="40.14055" lon="-1.78655">
        <ele>1241.2</ele>
        <time>2021-10-09 18:32:52</time>
      </trkpt>
      <trkpt lat="40.1404" lon="-1.78655">
        <ele>1239</ele>
        <time>2021-10-09 18:32:53</time>
      </trkpt>
      <trkpt lat="40.14026" lon="-1.78655">
        <ele>1236.8</ele>
        <time>2021-10-09 18:32:54</time>
      </trkpt>
      <trkpt lat="40.14011" lon="-1.78655">
        <ele>1235</ele>
        <time>2021-10-09 18:32:55</time>
      </trkpt>
      <trkpt lat="40.13997" lon="-1.78653">
        <ele>1233.4</ele>
        <time>2021-10-09 18:32:56</time>
      </trkpt>
      <trkpt lat="40.13983" lon="-1.7865">
        <ele>1232</ele>
        <time>2021-10-09 18:32:57</time>
      </trkpt>
      <trkpt lat="40.13969" lon="-1.78648">
        <ele>1230.8</ele>
        <time>2021-10-09 18:32:58</time>
      </trkpt>
      <trkpt lat="40.13956" lon="-1.78645">
        <ele>1229.8</ele>
        <time>2021-10-09 18:32:59</time>
      </trkpt>
      <trkpt lat="40.13943" lon="-1.78641">
        <ele>1229</ele>
        <time>2021-10-09 18:33:00</time>
      </trkpt>
      <trkpt lat="40.13931" lon="-1.78634">
        <ele>1228</ele>
        <time>2021-10-09 18:33:01</time>
      </trkpt>
      <trkpt lat="40.13921" lon="-1.78626">
        <ele>1227.2</ele>
        <time>2021-10-09 18:33:02</time>
      </trkpt>
      <trkpt lat="40.1391" lon="-1.78618">
        <ele>1226.4</ele>
        <time>2021-10-09 18:33:03</time>
      </trkpt>
      <trkpt lat="40.139" lon="-1.7861">
        <ele>1225.6</ele>
        <time>2021-10-09 18:33:04</time>
      </trkpt>
      <trkpt lat="40.13891" lon="-1.78603">
        <ele>1225.2</ele>
        <time>2021-10-09 18:33:05</time>
      </trkpt>
      <trkpt lat="40.13882" lon="-1.78594">
        <ele>1224.6</ele>
        <time>2021-10-09 18:33:06</time>
      </trkpt>
      <trkpt lat="40.13872" lon="-1.78588">
        <ele>1224.4</ele>
        <time>2021-10-09 18:33:07</time>
      </trkpt>
      <trkpt lat="40.13863" lon="-1.78581">
        <ele>1224</ele>
        <time>2021-10-09 18:33:08</time>
      </trkpt>
      <trkpt lat="40.13853" lon="-1.78578">
        <ele>1223.6</ele>
        <time>2021-10-09 18:33:09</time>
      </trkpt>
      <trkpt lat="40.13843" lon="-1.78574">
        <ele>1223.2</ele>
        <time>2021-10-09 18:33:10</time>
      </trkpt>
      <trkpt lat="40.13833" lon="-1.78572">
        <ele>1222.8</ele>
        <time>2021-10-09 18:33:11</time>
      </trkpt>
      <trkpt lat="40.13823" lon="-1.78572">
        <ele>1222.4</ele>
        <time>2021-10-09 18:33:12</time>
      </trkpt>
      <trkpt lat="40.13813" lon="-1.78571">
        <ele>1222</ele>
        <time>2021-10-09 18:33:13</time>
      </trkpt>
      <trkpt lat="40.13802" lon="-1.78571">
        <ele>1221.6</ele>
        <time>2021-10-09 18:33:14</time>
      </trkpt>
      <trkpt lat="40.13792" lon="-1.78569">
        <ele>1221</ele>
        <time>2021-10-09 18:33:15</time>
      </trkpt>
      <trkpt lat="40.13782" lon="-1.78566">
        <ele>1220.6</ele>
        <time>2021-10-09 18:33:16</time>
      </trkpt>
      <trkpt lat="40.13771" lon="-1.78562">
        <ele>1220.4</ele>
        <time>2021-10-09 18:33:17</time>
      </trkpt>
      <trkpt lat="40.13761" lon="-1.78556">
        <ele>1219.6</ele>
        <time>2021-10-09 18:33:18</time>
      </trkpt>
      <trkpt lat="40.13751" lon="-1.78551">
        <ele>1219</ele>
        <time>2021-10-09 18:33:19</time>
      </trkpt>
      <trkpt lat="40.13741" lon="-1.78545">
        <ele>1218.4</ele>
        <time>2021-10-09 18:33:20</time>
      </trkpt>
      <trkpt lat="40.13731" lon="-1.78538">
        <ele>1217.6</ele>
        <time>2021-10-09 18:33:21</time>
      </trkpt>
      <trkpt lat="40.1372" lon="-1.78532">
        <ele>1216.8</ele>
        <time>2021-10-09 18:33:22</time>
      </trkpt>
      <trkpt lat="40.1371" lon="-1.78525">
        <ele>1216.2</ele>
        <time>2021-10-09 18:33:23</time>
      </trkpt>
      <trkpt lat="40.13699" lon="-1.78519">
        <ele>1215.4</ele>
        <time>2021-10-09 18:33:24</time>
      </trkpt>
      <trkpt lat="40.13687" lon="-1.78514">
        <ele>1214.8</ele>
        <time>2021-10-09 18:33:25</time>
      </trkpt>
      <trkpt lat="40.13676" lon="-1.78509">
        <ele>1214</ele>
        <time>2021-10-09 18:33:26</time>
      </trkpt>
      <trkpt lat="40.13665" lon="-1.78504">
        <ele>1213.4</ele>
        <time>2021-10-09 18:33:27</time>
      </trkpt>
      <trkpt lat="40.13653" lon="-1.78502">
        <ele>1212.8</ele>
        <time>2021-10-09 18:33:28</time>
      </trkpt>
      <trkpt lat="40.13642" lon="-1.78499">
        <ele>1212.2</ele>
        <time>2021-10-09 18:33:29</time>
      </trkpt>
      <trkpt lat="40.13631" lon="-1.78497">
        <ele>1211.6</ele>
        <time>2021-10-09 18:33:30</time>
      </trkpt>
      <trkpt lat="40.1362" lon="-1.78495">
        <ele>1211.2</ele>
        <time>2021-10-09 18:33:31</time>
      </trkpt>
      <trkpt lat="40.13609" lon="-1.78493">
        <ele>1210.8</ele>
        <time>2021-10-09 18:33:32</time>
      </trkpt>
      <trkpt lat="40.13598" lon="-1.78491">
        <ele>1210.2</ele>
        <time>2021-10-09 18:33:33</time>
      </trkpt>
      <trkpt lat="40.13587" lon="-1.78489">
        <ele>1209.8</ele>
        <time>2021-10-09 18:33:34</time>
      </trkpt>
      <trkpt lat="40.13576" lon="-1.78487">
        <ele>1209.4</ele>
        <time>2021-10-09 18:33:35</time>
      </trkpt>
      <trkpt lat="40.13564" lon="-1.78485">
        <ele>1209.2</ele>
        <time>2021-10-09 18:33:36</time>
      </trkpt>
      <trkpt lat="40.13553" lon="-1.78483">
        <ele>1208.8</ele>
        <time>2021-10-09 18:33:37</time>
      </trkpt>
      <trkpt lat="40.13542" lon="-1.78482">
        <ele>1208.2</ele>
        <time>2021-10-09 18:33:38</time>
      </trkpt>
      <trkpt lat="40.13531" lon="-1.7848">
        <ele>1208.2</ele>
        <time>2021-10-09 18:33:39</time>
      </trkpt>
      <trkpt lat="40.13521" lon="-1.78478">
        <ele>1208</ele>
        <time>2021-10-09 18:33:40</time>
      </trkpt>
      <trkpt lat="40.1351" lon="-1.78475">
        <ele>1207.6</ele>
        <time>2021-10-09 18:33:41</time>
      </trkpt>
      <trkpt lat="40.135" lon="-1.78473">
        <ele>1207.2</ele>
        <time>2021-10-09 18:33:42</time>
      </trkpt>
      <trkpt lat="40.1349" lon="-1.7847">
        <ele>1207</ele>
        <time>2021-10-09 18:33:43</time>
      </trkpt>
      <trkpt lat="40.13481" lon="-1.78466">
        <ele>1206.8</ele>
        <time>2021-10-09 18:33:44</time>
      </trkpt>
      <trkpt lat="40.13471" lon="-1.78464">
        <ele>1206.8</ele>
        <time>2021-10-09 18:33:45</time>
      </trkpt>
      <trkpt lat="40.13462" lon="-1.78461">
        <ele>1206.2</ele>
        <time>2021-10-09 18:33:46</time>
      </trkpt>
      <trkpt lat="40.13452" lon="-1.78457">
        <ele>1206.2</ele>
        <time>2021-10-09 18:33:47</time>
      </trkpt>
      <trkpt lat="40.13443" lon="-1.78455">
        <ele>1206</ele>
        <time>2021-10-09 18:33:48</time>
      </trkpt>
      <trkpt lat="40.13434" lon="-1.78451">
        <ele>1206</ele>
        <time>2021-10-09 18:33:49</time>
      </trkpt>
      <trkpt lat="40.13425" lon="-1.78448">
        <ele>1205.6</ele>
        <time>2021-10-09 18:33:50</time>
      </trkpt>
      <trkpt lat="40.13417" lon="-1.78443">
        <ele>1205.6</ele>
        <time>2021-10-09 18:33:51</time>
      </trkpt>
      <trkpt lat="40.13409" lon="-1.7844">
        <ele>1205.2</ele>
        <time>2021-10-09 18:33:52</time>
      </trkpt>
      <trkpt lat="40.13401" lon="-1.78435">
        <ele>1205.2</ele>
        <time>2021-10-09 18:33:53</time>
      </trkpt>
      <trkpt lat="40.13393" lon="-1.78431">
        <ele>1205</ele>
        <time>2021-10-09 18:33:54</time>
      </trkpt>
      <trkpt lat="40.13385" lon="-1.78429">
        <ele>1205</ele>
        <time>2021-10-09 18:33:55</time>
      </trkpt>
      <trkpt lat="40.13377" lon="-1.78426">
        <ele>1205</ele>
        <time>2021-10-09 18:33:56</time>
      </trkpt>
      <trkpt lat="40.13369" lon="-1.78424">
        <ele>1205</ele>
        <time>2021-10-09 18:33:57</time>
      </trkpt>
      <trkpt lat="40.13361" lon="-1.7842">
        <ele>1204.8</ele>
        <time>2021-10-09 18:33:58</time>
      </trkpt>
      <trkpt lat="40.13353" lon="-1.78417">
        <ele>1204.8</ele>
        <time>2021-10-09 18:33:59</time>
      </trkpt>
      <trkpt lat="40.13353" lon="-1.78417">
        <ele>1204.8</ele>
        <time>2021-10-09 18:34:00</time>
      </trkpt>
      <trkpt lat="40.13345" lon="-1.78414">
        <ele>1204.8</ele>
        <time>2021-10-09 18:34:01</time>
      </trkpt>
      <trkpt lat="40.13337" lon="-1.7841">
        <ele>1204.6</ele>
        <time>2021-10-09 18:34:02</time>
      </trkpt>
      <trkpt lat="40.13329" lon="-1.78407">
        <ele>1204.6</ele>
        <time>2021-10-09 18:34:03</time>
      </trkpt>
      <trkpt lat="40.13322" lon="-1.78403">
        <ele>1204.6</ele>
        <time>2021-10-09 18:34:04</time>
      </trkpt>
      <trkpt lat="40.13314" lon="-1.784">
        <ele>1204.2</ele>
        <time>2021-10-09 18:34:05</time>
      </trkpt>
      <trkpt lat="40.13306" lon="-1.78397">
        <ele>1204.2</ele>
        <time>2021-10-09 18:34:06</time>
      </trkpt>
      <trkpt lat="40.13298" lon="-1.78393">
        <ele>1204.2</ele>
        <time>2021-10-09 18:34:07</time>
      </trkpt>
      <trkpt lat="40.1329" lon="-1.7839">
        <ele>1203.8</ele>
        <time>2021-10-09 18:34:08</time>
      </trkpt>
      <trkpt lat="40.13283" lon="-1.78387">
        <ele>1203.8</ele>
        <time>2021-10-09 18:34:09</time>
      </trkpt>
      <trkpt lat="40.13275" lon="-1.78382">
        <ele>1203.6</ele>
        <time>2021-10-09 18:34:10</time>
      </trkpt>
      <trkpt lat="40.13267" lon="-1.78378">
        <ele>1203.6</ele>
        <time>2021-10-09 18:34:11</time>
      </trkpt>
      <trkpt lat="40.1326" lon="-1.78373">
        <ele>1203.4</ele>
        <time>2021-10-09 18:34:12</time>
      </trkpt>
      <trkpt lat="40.13252" lon="-1.78369">
        <ele>1203.4</ele>
        <time>2021-10-09 18:34:13</time>
      </trkpt>
      <trkpt lat="40.13245" lon="-1.78364">
        <ele>1203</ele>
        <time>2021-10-09 18:34:14</time>
      </trkpt>
      <trkpt lat="40.13238" lon="-1.7836">
        <ele>1203</ele>
        <time>2021-10-09 18:34:15</time>
      </trkpt>
      <trkpt lat="40.13231" lon="-1.78354">
        <ele>1202.8</ele>
        <time>2021-10-09 18:34:16</time>
      </trkpt>
      <trkpt lat="40.13224" lon="-1.78349">
        <ele>1202.6</ele>
        <time>2021-10-09 18:34:17</time>
      </trkpt>
      <trkpt lat="40.13217" lon="-1.78344">
        <ele>1202.6</ele>
        <time>2021-10-09 18:34:18</time>
      </trkpt>
      <trkpt lat="40.1321" lon="-1.78339">
        <ele>1202.6</ele>
        <time>2021-10-09 18:34:19</time>
      </trkpt>
      <trkpt lat="40.13203" lon="-1.78334">
        <ele>1202.2</ele>
        <time>2021-10-09 18:34:20</time>
      </trkpt>
      <trkpt lat="40.13197" lon="-1.78329">
        <ele>1202.2</ele>
        <time>2021-10-09 18:34:21</time>
      </trkpt>
      <trkpt lat="40.1319" lon="-1.78324">
        <ele>1202</ele>
        <time>2021-10-09 18:34:22</time>
      </trkpt>
      <trkpt lat="40.13183" lon="-1.78318">
        <ele>1201.8</ele>
        <time>2021-10-09 18:34:23</time>
      </trkpt>
      <trkpt lat="40.13177" lon="-1.78313">
        <ele>1201.8</ele>
        <time>2021-10-09 18:34:24</time>
      </trkpt>
      <trkpt lat="40.1317" lon="-1.78308">
        <ele>1201.6</ele>
        <time>2021-10-09 18:34:25</time>
      </trkpt>
      <trkpt lat="40.13163" lon="-1.78303">
        <ele>1201.6</ele>
        <time>2021-10-09 18:34:26</time>
      </trkpt>
      <trkpt lat="40.13156" lon="-1.78298">
        <ele>1201.2</ele>
        <time>2021-10-09 18:34:27</time>
      </trkpt>
      <trkpt lat="40.1315" lon="-1.78293">
        <ele>1201.2</ele>
        <time>2021-10-09 18:34:28</time>
      </trkpt>
      <trkpt lat="40.13144" lon="-1.78287">
        <ele>1201</ele>
        <time>2021-10-09 18:34:29</time>
      </trkpt>
      <trkpt lat="40.13138" lon="-1.7828">
        <ele>1201</ele>
        <time>2021-10-09 18:34:30</time>
      </trkpt>
      <trkpt lat="40.13133" lon="-1.78272">
        <ele>1200.6</ele>
        <time>2021-10-09 18:34:31</time>
      </trkpt>
      <trkpt lat="40.13129" lon="-1.78264">
        <ele>1200.6</ele>
        <time>2021-10-09 18:34:32</time>
      </trkpt>
      <trkpt lat="40.13126" lon="-1.78254">
        <ele>1200.4</ele>
        <time>2021-10-09 18:34:33</time>
      </trkpt>
      <trkpt lat="40.13124" lon="-1.78244">
        <ele>1200.4</ele>
        <time>2021-10-09 18:34:34</time>
      </trkpt>
      <trkpt lat="40.13122" lon="-1.78234">
        <ele>1200</ele>
        <time>2021-10-09 18:34:35</time>
      </trkpt>
      <trkpt lat="40.13119" lon="-1.78225">
        <ele>1200</ele>
        <time>2021-10-09 18:34:36</time>
      </trkpt>
      <trkpt lat="40.13115" lon="-1.78215">
        <ele>1199.8</ele>
        <time>2021-10-09 18:34:37</time>
      </trkpt>
      <trkpt lat="40.13112" lon="-1.78205">
        <ele>1199.4</ele>
        <time>2021-10-09 18:34:38</time>
      </trkpt>
      <trkpt lat="40.13109" lon="-1.78196">
        <ele>1199.4</ele>
        <time>2021-10-09 18:34:39</time>
      </trkpt>
      <trkpt lat="40.13104" lon="-1.78186">
        <ele>1199.2</ele>
        <time>2021-10-09 18:34:40</time>
      </trkpt>
      <trkpt lat="40.131" lon="-1.78178">
        <ele>1199.2</ele>
        <time>2021-10-09 18:34:41</time>
      </trkpt>
      <trkpt lat="40.13095" lon="-1.78168">
        <ele>1198.8</ele>
        <time>2021-10-09 18:34:42</time>
      </trkpt>
      <trkpt lat="40.13091" lon="-1.7816">
        <ele>1198.8</ele>
        <time>2021-10-09 18:34:43</time>
      </trkpt>
      <trkpt lat="40.13086" lon="-1.78151">
        <ele>1198.4</ele>
        <time>2021-10-09 18:34:44</time>
      </trkpt>
      <trkpt lat="40.13082" lon="-1.78142">
        <ele>1198.4</ele>
        <time>2021-10-09 18:34:45</time>
      </trkpt>
      <trkpt lat="40.13076" lon="-1.78133">
        <ele>1198</ele>
        <time>2021-10-09 18:34:46</time>
      </trkpt>
      <trkpt lat="40.13071" lon="-1.78126">
        <ele>1198</ele>
        <time>2021-10-09 18:34:47</time>
      </trkpt>
      <trkpt lat="40.13065" lon="-1.78119">
        <ele>1198</ele>
        <time>2021-10-09 18:34:48</time>
      </trkpt>
      <trkpt lat="40.13059" lon="-1.78111">
        <ele>1197.6</ele>
        <time>2021-10-09 18:34:49</time>
      </trkpt>
      <trkpt lat="40.13053" lon="-1.78105">
        <ele>1197.4</ele>
        <time>2021-10-09 18:34:50</time>
      </trkpt>
      <trkpt lat="40.13047" lon="-1.78097">
        <ele>1197.4</ele>
        <time>2021-10-09 18:34:51</time>
      </trkpt>
      <trkpt lat="40.1304" lon="-1.78091">
        <ele>1197</ele>
        <time>2021-10-09 18:34:52</time>
      </trkpt>
      <trkpt lat="40.13034" lon="-1.78084">
        <ele>1196.8</ele>
        <time>2021-10-09 18:34:53</time>
      </trkpt>
      <trkpt lat="40.13028" lon="-1.78078">
        <ele>1196.8</ele>
        <time>2021-10-09 18:34:54</time>
      </trkpt>
      <trkpt lat="40.13022" lon="-1.78072">
        <ele>1196.4</ele>
        <time>2021-10-09 18:34:55</time>
      </trkpt>
      <trkpt lat="40.13015" lon="-1.78066">
        <ele>1196.4</ele>
        <time>2021-10-09 18:34:56</time>
      </trkpt>
      <trkpt lat="40.13009" lon="-1.78062">
        <ele>1196.2</ele>
        <time>2021-10-09 18:34:57</time>
      </trkpt>
      <trkpt lat="40.13002" lon="-1.78057">
        <ele>1196.2</ele>
        <time>2021-10-09 18:34:58</time>
      </trkpt>
      <trkpt lat="40.12995" lon="-1.78053">
        <ele>1195.8</ele>
        <time>2021-10-09 18:34:59</time>
      </trkpt>
      <trkpt lat="40.12987" lon="-1.7805">
        <ele>1195.4</ele>
        <time>2021-10-09 18:35:00</time>
      </trkpt>
      <trkpt lat="40.1298" lon="-1.78049">
        <ele>1195.2</ele>
        <time>2021-10-09 18:35:01</time>
      </trkpt>
      <trkpt lat="40.12972" lon="-1.78048">
        <ele>1195</ele>
        <time>2021-10-09 18:35:02</time>
      </trkpt>
      <trkpt lat="40.12964" lon="-1.78049">
        <ele>1195</ele>
        <time>2021-10-09 18:35:03</time>
      </trkpt>
      <trkpt lat="40.12956" lon="-1.78049">
        <ele>1194.4</ele>
        <time>2021-10-09 18:35:04</time>
      </trkpt>
      <trkpt lat="40.12947" lon="-1.78049">
        <ele>1194.2</ele>
        <time>2021-10-09 18:35:05</time>
      </trkpt>
      <trkpt lat="40.12939" lon="-1.7805">
        <ele>1194</ele>
        <time>2021-10-09 18:35:06</time>
      </trkpt>
      <trkpt lat="40.12931" lon="-1.78051">
        <ele>1194</ele>
        <time>2021-10-09 18:35:07</time>
      </trkpt>
      <trkpt lat="40.12923" lon="-1.78052">
        <ele>1193.4</ele>
        <time>2021-10-09 18:35:08</time>
      </trkpt>
      <trkpt lat="40.12915" lon="-1.78053">
        <ele>1193.4</ele>
        <time>2021-10-09 18:35:09</time>
      </trkpt>
      <trkpt lat="40.12907" lon="-1.78055">
        <ele>1193.2</ele>
        <time>2021-10-09 18:35:10</time>
      </trkpt>
      <trkpt lat="40.12899" lon="-1.78055">
        <ele>1193</ele>
        <time>2021-10-09 18:35:11</time>
      </trkpt>
      <trkpt lat="40.12891" lon="-1.78055">
        <ele>1193</ele>
        <time>2021-10-09 18:35:12</time>
      </trkpt>
      <trkpt lat="40.12883" lon="-1.78054">
        <ele>1192.6</ele>
        <time>2021-10-09 18:35:13</time>
      </trkpt>
      <trkpt lat="40.12874" lon="-1.78053">
        <ele>1192.4</ele>
        <time>2021-10-09 18:35:14</time>
      </trkpt>
      <trkpt lat="40.12867" lon="-1.78052">
        <ele>1192</ele>
        <time>2021-10-09 18:35:15</time>
      </trkpt>
      <trkpt lat="40.12859" lon="-1.7805">
        <ele>1191.6</ele>
        <time>2021-10-09 18:35:16</time>
      </trkpt>
      <trkpt lat="40.1285" lon="-1.78048">
        <ele>1191.4</ele>
        <time>2021-10-09 18:35:17</time>
      </trkpt>
      <trkpt lat="40.12842" lon="-1.78047">
        <ele>1191</ele>
        <time>2021-10-09 18:35:18</time>
      </trkpt>
      <trkpt lat="40.12834" lon="-1.78046">
        <ele>1190.6</ele>
        <time>2021-10-09 18:35:19</time>
      </trkpt>
      <trkpt lat="40.12825" lon="-1.78045">
        <ele>1190.2</ele>
        <time>2021-10-09 18:35:20</time>
      </trkpt>
      <trkpt lat="40.12816" lon="-1.78045">
        <ele>1190</ele>
        <time>2021-10-09 18:35:21</time>
      </trkpt>
      <trkpt lat="40.12807" lon="-1.78045">
        <ele>1189.4</ele>
        <time>2021-10-09 18:35:22</time>
      </trkpt>
      <trkpt lat="40.12798" lon="-1.78045">
        <ele>1188.8</ele>
        <time>2021-10-09 18:35:23</time>
      </trkpt>
      <trkpt lat="40.12788" lon="-1.78046">
        <ele>1188.4</ele>
        <time>2021-10-09 18:35:24</time>
      </trkpt>
      <trkpt lat="40.12779" lon="-1.78048">
        <ele>1187.8</ele>
        <time>2021-10-09 18:35:25</time>
      </trkpt>
      <trkpt lat="40.12769" lon="-1.78048">
        <ele>1187.2</ele>
        <time>2021-10-09 18:35:26</time>
      </trkpt>
      <trkpt lat="40.12759" lon="-1.7805">
        <ele>1186.6</ele>
        <time>2021-10-09 18:35:27</time>
      </trkpt>
      <trkpt lat="40.1275" lon="-1.78052">
        <ele>1185.8</ele>
        <time>2021-10-09 18:35:28</time>
      </trkpt>
      <trkpt lat="40.1274" lon="-1.78056">
        <ele>1185</ele>
        <time>2021-10-09 18:35:29</time>
      </trkpt>
      <trkpt lat="40.12729" lon="-1.78061">
        <ele>1184.4</ele>
        <time>2021-10-09 18:35:30</time>
      </trkpt>
      <trkpt lat="40.12721" lon="-1.78067">
        <ele>1183.8</ele>
        <time>2021-10-09 18:35:31</time>
      </trkpt>
      <trkpt lat="40.12712" lon="-1.78073">
        <ele>1183.4</ele>
        <time>2021-10-09 18:35:32</time>
      </trkpt>
      <trkpt lat="40.12703" lon="-1.78079">
        <ele>1182.8</ele>
        <time>2021-10-09 18:35:33</time>
      </trkpt>
      <trkpt lat="40.12694" lon="-1.78085">
        <ele>1182.2</ele>
        <time>2021-10-09 18:35:34</time>
      </trkpt>
      <trkpt lat="40.12685" lon="-1.7809">
        <ele>1181.6</ele>
        <time>2021-10-09 18:35:35</time>
      </trkpt>
      <trkpt lat="40.12675" lon="-1.78093">
        <ele>1181.2</ele>
        <time>2021-10-09 18:35:36</time>
      </trkpt>
      <trkpt lat="40.12666" lon="-1.78096">
        <ele>1180.8</ele>
        <time>2021-10-09 18:35:37</time>
      </trkpt>
      <trkpt lat="40.12657" lon="-1.78099">
        <ele>1180.8</ele>
        <time>2021-10-09 18:35:38</time>
      </trkpt>
      <trkpt lat="40.12648" lon="-1.781">
        <ele>1180.6</ele>
        <time>2021-10-09 18:35:39</time>
      </trkpt>
      <trkpt lat="40.1264" lon="-1.78102">
        <ele>1180.6</ele>
        <time>2021-10-09 18:35:40</time>
      </trkpt>
      <trkpt lat="40.12631" lon="-1.78103">
        <ele>1180.6</ele>
        <time>2021-10-09 18:35:41</time>
      </trkpt>
      <trkpt lat="40.12623" lon="-1.78105">
        <ele>1180.2</ele>
        <time>2021-10-09 18:35:42</time>
      </trkpt>
      <trkpt lat="40.12615" lon="-1.78108">
        <ele>1179.8</ele>
        <time>2021-10-09 18:35:43</time>
      </trkpt>
      <trkpt lat="40.12608" lon="-1.78112">
        <ele>1179.6</ele>
        <time>2021-10-09 18:35:44</time>
      </trkpt>
      <trkpt lat="40.126" lon="-1.78118">
        <ele>1179.2</ele>
        <time>2021-10-09 18:35:45</time>
      </trkpt>
      <trkpt lat="40.12594" lon="-1.78123">
        <ele>1179</ele>
        <time>2021-10-09 18:35:46</time>
      </trkpt>
      <trkpt lat="40.12586" lon="-1.7813">
        <ele>1178.8</ele>
        <time>2021-10-09 18:35:47</time>
      </trkpt>
      <trkpt lat="40.1258" lon="-1.78136">
        <ele>1178.6</ele>
        <time>2021-10-09 18:35:48</time>
      </trkpt>
      <trkpt lat="40.12572" lon="-1.78142">
        <ele>1178.2</ele>
        <time>2021-10-09 18:35:49</time>
      </trkpt>
      <trkpt lat="40.12566" lon="-1.78147">
        <ele>1178.2</ele>
        <time>2021-10-09 18:35:50</time>
      </trkpt>
      <trkpt lat="40.12559" lon="-1.78151">
        <ele>1178</ele>
        <time>2021-10-09 18:35:51</time>
      </trkpt>
      <trkpt lat="40.12552" lon="-1.78154">
        <ele>1178</ele>
        <time>2021-10-09 18:35:52</time>
      </trkpt>
      <trkpt lat="40.12545" lon="-1.78156">
        <ele>1177.8</ele>
        <time>2021-10-09 18:35:53</time>
      </trkpt>
      <trkpt lat="40.12536" lon="-1.78158">
        <ele>1177.8</ele>
        <time>2021-10-09 18:35:54</time>
      </trkpt>
      <trkpt lat="40.12529" lon="-1.7816">
        <ele>1177.8</ele>
        <time>2021-10-09 18:35:55</time>
      </trkpt>
      <trkpt lat="40.12521" lon="-1.78162">
        <ele>1177.8</ele>
        <time>2021-10-09 18:35:56</time>
      </trkpt>
      <trkpt lat="40.12514" lon="-1.78164">
        <ele>1177.6</ele>
        <time>2021-10-09 18:35:57</time>
      </trkpt>
      <trkpt lat="40.12506" lon="-1.78165">
        <ele>1177.6</ele>
        <time>2021-10-09 18:35:58</time>
      </trkpt>
      <trkpt lat="40.12499" lon="-1.78167">
        <ele>1177.4</ele>
        <time>2021-10-09 18:35:59</time>
      </trkpt>
      <trkpt lat="40.12491" lon="-1.78169">
        <ele>1177.4</ele>
        <time>2021-10-09 18:36:00</time>
      </trkpt>
      <trkpt lat="40.12484" lon="-1.78172">
        <ele>1177</ele>
        <time>2021-10-09 18:36:01</time>
      </trkpt>
      <trkpt lat="40.12477" lon="-1.78177">
        <ele>1177</ele>
        <time>2021-10-09 18:36:02</time>
      </trkpt>
      <trkpt lat="40.12471" lon="-1.78183">
        <ele>1176.8</ele>
        <time>2021-10-09 18:36:03</time>
      </trkpt>
      <trkpt lat="40.12465" lon="-1.78187">
        <ele>1176.8</ele>
        <time>2021-10-09 18:36:04</time>
      </trkpt>
      <trkpt lat="40.12459" lon="-1.78192">
        <ele>1176.8</ele>
        <time>2021-10-09 18:36:05</time>
      </trkpt>
      <trkpt lat="40.12453" lon="-1.78195">
        <ele>1177</ele>
        <time>2021-10-09 18:36:06</time>
      </trkpt>
      <trkpt lat="40.12446" lon="-1.78199">
        <ele>1177</ele>
        <time>2021-10-09 18:36:07</time>
      </trkpt>
      <trkpt lat="40.12439" lon="-1.78201">
        <ele>1176.8</ele>
        <time>2021-10-09 18:36:08</time>
      </trkpt>
      <trkpt lat="40.12431" lon="-1.78203">
        <ele>1176.8</ele>
        <time>2021-10-09 18:36:09</time>
      </trkpt>
      <trkpt lat="40.12424" lon="-1.78204">
        <ele>1176.8</ele>
        <time>2021-10-09 18:36:10</time>
      </trkpt>
      <trkpt lat="40.12417" lon="-1.78204">
        <ele>1176.8</ele>
        <time>2021-10-09 18:36:11</time>
      </trkpt>
      <trkpt lat="40.12409" lon="-1.78205">
        <ele>1176.8</ele>
        <time>2021-10-09 18:36:12</time>
      </trkpt>
      <trkpt lat="40.12402" lon="-1.78206">
        <ele>1176.4</ele>
        <time>2021-10-09 18:36:13</time>
      </trkpt>
      <trkpt lat="40.12395" lon="-1.78209">
        <ele>1176.4</ele>
        <time>2021-10-09 18:36:14</time>
      </trkpt>
      <trkpt lat="40.12388" lon="-1.78212">
        <ele>1176.2</ele>
        <time>2021-10-09 18:36:15</time>
      </trkpt>
      <trkpt lat="40.1238" lon="-1.78215">
        <ele>1176.2</ele>
        <time>2021-10-09 18:36:16</time>
      </trkpt>
      <trkpt lat="40.12373" lon="-1.78217">
        <ele>1175.6</ele>
        <time>2021-10-09 18:36:17</time>
      </trkpt>
      <trkpt lat="40.12366" lon="-1.78221">
        <ele>1175.4</ele>
        <time>2021-10-09 18:36:18</time>
      </trkpt>
      <trkpt lat="40.12358" lon="-1.78224">
        <ele>1175</ele>
        <time>2021-10-09 18:36:19</time>
      </trkpt>
      <trkpt lat="40.12349" lon="-1.78228">
        <ele>1174.4</ele>
        <time>2021-10-09 18:36:20</time>
      </trkpt>
      <trkpt lat="40.1234" lon="-1.78233">
        <ele>1173.6</ele>
        <time>2021-10-09 18:36:21</time>
      </trkpt>
      <trkpt lat="40.1233" lon="-1.78239">
        <ele>1172.6</ele>
        <time>2021-10-09 18:36:22</time>
      </trkpt>
      <trkpt lat="40.1232" lon="-1.78248">
        <ele>1171.2</ele>
        <time>2021-10-09 18:36:23</time>
      </trkpt>
      <trkpt lat="40.12311" lon="-1.7826">
        <ele>1169.6</ele>
        <time>2021-10-09 18:36:24</time>
      </trkpt>
      <trkpt lat="40.12301" lon="-1.7827">
        <ele>1167.8</ele>
        <time>2021-10-09 18:36:25</time>
      </trkpt>
      <trkpt lat="40.12291" lon="-1.78284">
        <ele>1166</ele>
        <time>2021-10-09 18:36:26</time>
      </trkpt>
      <trkpt lat="40.12283" lon="-1.78298">
        <ele>1164.6</ele>
        <time>2021-10-09 18:36:27</time>
      </trkpt>
      <trkpt lat="40.12275" lon="-1.78313">
        <ele>1163</ele>
        <time>2021-10-09 18:36:28</time>
      </trkpt>
      <trkpt lat="40.12267" lon="-1.78327">
        <ele>1161.8</ele>
        <time>2021-10-09 18:36:29</time>
      </trkpt>
      <trkpt lat="40.12258" lon="-1.78339">
        <ele>1160.6</ele>
        <time>2021-10-09 18:36:30</time>
      </trkpt>
      <trkpt lat="40.12249" lon="-1.7835">
        <ele>1159.6</ele>
        <time>2021-10-09 18:36:31</time>
      </trkpt>
      <trkpt lat="40.12239" lon="-1.78357">
        <ele>1158.6</ele>
        <time>2021-10-09 18:36:32</time>
      </trkpt>
      <trkpt lat="40.12229" lon="-1.78358">
        <ele>1157.8</ele>
        <time>2021-10-09 18:36:33</time>
      </trkpt>
      <trkpt lat="40.12219" lon="-1.7836">
        <ele>1157.2</ele>
        <time>2021-10-09 18:36:34</time>
      </trkpt>
      <trkpt lat="40.1221" lon="-1.78361">
        <ele>1156.6</ele>
        <time>2021-10-09 18:36:35</time>
      </trkpt>
      <trkpt lat="40.12202" lon="-1.78359">
        <ele>1156</ele>
        <time>2021-10-09 18:36:36</time>
      </trkpt>
      <trkpt lat="40.12195" lon="-1.78355">
        <ele>1155.6</ele>
        <time>2021-10-09 18:36:37</time>
      </trkpt>
      <trkpt lat="40.1219" lon="-1.78349">
        <ele>1155.2</ele>
        <time>2021-10-09 18:36:38</time>
      </trkpt>
      <trkpt lat="40.12186" lon="-1.78341">
        <ele>1155</ele>
        <time>2021-10-09 18:36:39</time>
      </trkpt>
      <trkpt lat="40.12183" lon="-1.78332">
        <ele>1154.8</ele>
        <time>2021-10-09 18:36:40</time>
      </trkpt>
      <trkpt lat="40.12179" lon="-1.78324">
        <ele>1154.8</ele>
        <time>2021-10-09 18:36:41</time>
      </trkpt>
      <trkpt lat="40.12176" lon="-1.78317">
        <ele>1154.4</ele>
        <time>2021-10-09 18:36:42</time>
      </trkpt>
      <trkpt lat="40.12172" lon="-1.78311">
        <ele>1154.4</ele>
        <time>2021-10-09 18:36:43</time>
      </trkpt>
      <trkpt lat="40.12167" lon="-1.78308">
        <ele>1154.6</ele>
        <time>2021-10-09 18:36:44</time>
      </trkpt>
      <trkpt lat="40.12161" lon="-1.78305">
        <ele>1154.6</ele>
        <time>2021-10-09 18:36:45</time>
      </trkpt>
      <trkpt lat="40.12156" lon="-1.78301">
        <ele>1155</ele>
        <time>2021-10-09 18:36:46</time>
      </trkpt>
      <trkpt lat="40.1215" lon="-1.783">
        <ele>1155</ele>
        <time>2021-10-09 18:36:47</time>
      </trkpt>
      <trkpt lat="40.12145" lon="-1.78297">
        <ele>1155.2</ele>
        <time>2021-10-09 18:36:48</time>
      </trkpt>
      <trkpt lat="40.12139" lon="-1.78295">
        <ele>1155.2</ele>
        <time>2021-10-09 18:36:49</time>
      </trkpt>
      <trkpt lat="40.12134" lon="-1.78292">
        <ele>1155.2</ele>
        <time>2021-10-09 18:36:50</time>
      </trkpt>
      <trkpt lat="40.12129" lon="-1.7829">
        <ele>1155.4</ele>
        <time>2021-10-09 18:36:51</time>
      </trkpt>
      <trkpt lat="40.12124" lon="-1.78288">
        <ele>1155.4</ele>
        <time>2021-10-09 18:36:52</time>
      </trkpt>
      <trkpt lat="40.12119" lon="-1.78285">
        <ele>1155.4</ele>
        <time>2021-10-09 18:36:53</time>
      </trkpt>
      <trkpt lat="40.12114" lon="-1.78282">
        <ele>1155.4</ele>
        <time>2021-10-09 18:36:54</time>
      </trkpt>
      <trkpt lat="40.12109" lon="-1.78279">
        <ele>1155.6</ele>
        <time>2021-10-09 18:36:55</time>
      </trkpt>
      <trkpt lat="40.12103" lon="-1.78276">
        <ele>1155.6</ele>
        <time>2021-10-09 18:36:56</time>
      </trkpt>
      <trkpt lat="40.12098" lon="-1.78272">
        <ele>1155.6</ele>
        <time>2021-10-09 18:36:57</time>
      </trkpt>
      <trkpt lat="40.12093" lon="-1.78269">
        <ele>1155.6</ele>
        <time>2021-10-09 18:36:58</time>
      </trkpt>
      <trkpt lat="40.12087" lon="-1.78266">
        <ele>1155.4</ele>
        <time>2021-10-09 18:36:59</time>
      </trkpt>
      <trkpt lat="40.12082" lon="-1.78262">
        <ele>1155.4</ele>
        <time>2021-10-09 18:37:00</time>
      </trkpt>
      <trkpt lat="40.12076" lon="-1.78259">
        <ele>1155.2</ele>
        <time>2021-10-09 18:37:01</time>
      </trkpt>
      <trkpt lat="40.12071" lon="-1.78254">
        <ele>1155</ele>
        <time>2021-10-09 18:37:02</time>
      </trkpt>
      <trkpt lat="40.12065" lon="-1.78251">
        <ele>1155</ele>
        <time>2021-10-09 18:37:03</time>
      </trkpt>
      <trkpt lat="40.12059" lon="-1.78247">
        <ele>1155</ele>
        <time>2021-10-09 18:37:04</time>
      </trkpt>
      <trkpt lat="40.12053" lon="-1.78243">
        <ele>1154.6</ele>
        <time>2021-10-09 18:37:05</time>
      </trkpt>
      <trkpt lat="40.12047" lon="-1.78239">
        <ele>1154.6</ele>
        <time>2021-10-09 18:37:06</time>
      </trkpt>
      <trkpt lat="40.1204" lon="-1.78236">
        <ele>1154.4</ele>
        <time>2021-10-09 18:37:07</time>
      </trkpt>
      <trkpt lat="40.12034" lon="-1.78233">
        <ele>1154.4</ele>
        <time>2021-10-09 18:37:08</time>
      </trkpt>
      <trkpt lat="40.12027" lon="-1.78231">
        <ele>1154.2</ele>
        <time>2021-10-09 18:37:09</time>
      </trkpt>
      <trkpt lat="40.1202" lon="-1.78229">
        <ele>1154.2</ele>
        <time>2021-10-09 18:37:10</time>
      </trkpt>
      <trkpt lat="40.12013" lon="-1.78227">
        <ele>1153.8</ele>
        <time>2021-10-09 18:37:11</time>
      </trkpt>
      <trkpt lat="40.12006" lon="-1.78224">
        <ele>1153.8</ele>
        <time>2021-10-09 18:37:12</time>
      </trkpt>
      <trkpt lat="40.11999" lon="-1.78222">
        <ele>1153.6</ele>
        <time>2021-10-09 18:37:13</time>
      </trkpt>
      <trkpt lat="40.11992" lon="-1.78219">
        <ele>1153.6</ele>
        <time>2021-10-09 18:37:14</time>
      </trkpt>
      <trkpt lat="40.11985" lon="-1.78217">
        <ele>1153.2</ele>
        <time>2021-10-09 18:37:15</time>
      </trkpt>
      <trkpt lat="40.11978" lon="-1.78214">
        <ele>1153</ele>
        <time>2021-10-09 18:37:16</time>
      </trkpt>
      <trkpt lat="40.11971" lon="-1.78212">
        <ele>1152.6</ele>
        <time>2021-10-09 18:37:17</time>
      </trkpt>
      <trkpt lat="40.11963" lon="-1.78209">
        <ele>1152.4</ele>
        <time>2021-10-09 18:37:18</time>
      </trkpt>
      <trkpt lat="40.11956" lon="-1.78208">
        <ele>1152.4</ele>
        <time>2021-10-09 18:37:19</time>
      </trkpt>
      <trkpt lat="40.11948" lon="-1.78206">
        <ele>1152</ele>
        <time>2021-10-09 18:37:20</time>
      </trkpt>
      <trkpt lat="40.1194" lon="-1.78205">
        <ele>1151.8</ele>
        <time>2021-10-09 18:37:21</time>
      </trkpt>
      <trkpt lat="40.11933" lon="-1.78204">
        <ele>1151.4</ele>
        <time>2021-10-09 18:37:22</time>
      </trkpt>
      <trkpt lat="40.11925" lon="-1.78203">
        <ele>1151.2</ele>
        <time>2021-10-09 18:37:23</time>
      </trkpt>
      <trkpt lat="40.11918" lon="-1.78202">
        <ele>1151.2</ele>
        <time>2021-10-09 18:37:24</time>
      </trkpt>
      <trkpt lat="40.11911" lon="-1.78202">
        <ele>1150.8</ele>
        <time>2021-10-09 18:37:25</time>
      </trkpt>
      <trkpt lat="40.11903" lon="-1.78203">
        <ele>1150.8</ele>
        <time>2021-10-09 18:37:26</time>
      </trkpt>
      <trkpt lat="40.11896" lon="-1.78203">
        <ele>1150.8</ele>
        <time>2021-10-09 18:37:27</time>
      </trkpt>
      <trkpt lat="40.11889" lon="-1.78203">
        <ele>1150.4</ele>
        <time>2021-10-09 18:37:28</time>
      </trkpt>
      <trkpt lat="40.11882" lon="-1.78204">
        <ele>1150.2</ele>
        <time>2021-10-09 18:37:29</time>
      </trkpt>
      <trkpt lat="40.11875" lon="-1.78204">
        <ele>1150.2</ele>
        <time>2021-10-09 18:37:30</time>
      </trkpt>
      <trkpt lat="40.11869" lon="-1.78205">
        <ele>1149.8</ele>
        <time>2021-10-09 18:37:31</time>
      </trkpt>
      <trkpt lat="40.11862" lon="-1.78206">
        <ele>1149.6</ele>
        <time>2021-10-09 18:37:32</time>
      </trkpt>
      <trkpt lat="40.11855" lon="-1.78206">
        <ele>1149.6</ele>
        <time>2021-10-09 18:37:33</time>
      </trkpt>
      <trkpt lat="40.11849" lon="-1.78207">
        <ele>1149.4</ele>
        <time>2021-10-09 18:37:34</time>
      </trkpt>
      <trkpt lat="40.11842" lon="-1.78208">
        <ele>1149.2</ele>
        <time>2021-10-09 18:37:35</time>
      </trkpt>
      <trkpt lat="40.11836" lon="-1.78208">
        <ele>1149.2</ele>
        <time>2021-10-09 18:37:36</time>
      </trkpt>
      <trkpt lat="40.11829" lon="-1.78208">
        <ele>1148.6</ele>
        <time>2021-10-09 18:37:37</time>
      </trkpt>
      <trkpt lat="40.11823" lon="-1.78206">
        <ele>1148.6</ele>
        <time>2021-10-09 18:37:38</time>
      </trkpt>
      <trkpt lat="40.11817" lon="-1.78204">
        <ele>1148.6</ele>
        <time>2021-10-09 18:37:39</time>
      </trkpt>
      <trkpt lat="40.11811" lon="-1.78202">
        <ele>1148.4</ele>
        <time>2021-10-09 18:37:40</time>
      </trkpt>
      <trkpt lat="40.11805" lon="-1.78199">
        <ele>1148.4</ele>
        <time>2021-10-09 18:37:41</time>
      </trkpt>
      <trkpt lat="40.118" lon="-1.78196">
        <ele>1148.4</ele>
        <time>2021-10-09 18:37:42</time>
      </trkpt>
      <trkpt lat="40.11796" lon="-1.78193">
        <ele>1148.4</ele>
        <time>2021-10-09 18:37:43</time>
      </trkpt>
      <trkpt lat="40.11792" lon="-1.78189">
        <ele>1148.8</ele>
        <time>2021-10-09 18:37:44</time>
      </trkpt>
      <trkpt lat="40.11787" lon="-1.78186">
        <ele>1148.8</ele>
        <time>2021-10-09 18:37:45</time>
      </trkpt>
      <trkpt lat="40.11782" lon="-1.78183">
        <ele>1148.8</ele>
        <time>2021-10-09 18:37:46</time>
      </trkpt>
      <trkpt lat="40.11778" lon="-1.78179">
        <ele>1149</ele>
        <time>2021-10-09 18:37:47</time>
      </trkpt>
      <trkpt lat="40.11774" lon="-1.78176">
        <ele>1149</ele>
        <time>2021-10-09 18:37:48</time>
      </trkpt>
      <trkpt lat="40.1177" lon="-1.78172">
        <ele>1149.2</ele>
        <time>2021-10-09 18:37:49</time>
      </trkpt>
      <trkpt lat="40.11767" lon="-1.7817">
        <ele>1149.6</ele>
        <time>2021-10-09 18:37:50</time>
      </trkpt>
      <trkpt lat="40.11763" lon="-1.78167">
        <ele>1149.8</ele>
        <time>2021-10-09 18:37:51</time>
      </trkpt>
      <trkpt lat="40.11759" lon="-1.78164">
        <ele>1149.8</ele>
        <time>2021-10-09 18:37:52</time>
      </trkpt>
      <trkpt lat="40.11755" lon="-1.78161">
        <ele>1150.4</ele>
        <time>2021-10-09 18:37:53</time>
      </trkpt>
      <trkpt lat="40.11753" lon="-1.78157">
        <ele>1150.6</ele>
        <time>2021-10-09 18:37:54</time>
      </trkpt>
      <trkpt lat="40.11749" lon="-1.78154">
        <ele>1150.8</ele>
        <time>2021-10-09 18:37:55</time>
      </trkpt>
      <trkpt lat="40.11747" lon="-1.78151">
        <ele>1151</ele>
        <time>2021-10-09 18:37:56</time>
      </trkpt>
      <trkpt lat="40.11743" lon="-1.78148">
        <ele>1151.2</ele>
        <time>2021-10-09 18:37:57</time>
      </trkpt>
      <trkpt lat="40.1174" lon="-1.78145">
        <ele>1151.4</ele>
        <time>2021-10-09 18:37:58</time>
      </trkpt>
      <trkpt lat="40.11737" lon="-1.78142">
        <ele>1151.6</ele>
        <time>2021-10-09 18:37:59</time>
      </trkpt>
      <trkpt lat="40.11733" lon="-1.78139">
        <ele>1152</ele>
        <time>2021-10-09 18:38:00</time>
      </trkpt>
      <trkpt lat="40.11731" lon="-1.78136">
        <ele>1152.2</ele>
        <time>2021-10-09 18:38:01</time>
      </trkpt>
      <trkpt lat="40.11728" lon="-1.78132">
        <ele>1152.2</ele>
        <time>2021-10-09 18:38:02</time>
      </trkpt>
      <trkpt lat="40.11724" lon="-1.7813">
        <ele>1152.4</ele>
        <time>2021-10-09 18:38:03</time>
      </trkpt>
      <trkpt lat="40.11721" lon="-1.78126">
        <ele>1152.4</ele>
        <time>2021-10-09 18:38:04</time>
      </trkpt>
      <trkpt lat="40.11717" lon="-1.78123">
        <ele>1153</ele>
        <time>2021-10-09 18:38:05</time>
      </trkpt>
      <trkpt lat="40.11714" lon="-1.78119">
        <ele>1153</ele>
        <time>2021-10-09 18:38:06</time>
      </trkpt>
      <trkpt lat="40.11711" lon="-1.78115">
        <ele>1153.2</ele>
        <time>2021-10-09 18:38:07</time>
      </trkpt>
      <trkpt lat="40.11708" lon="-1.7811">
        <ele>1153.2</ele>
        <time>2021-10-09 18:38:08</time>
      </trkpt>
      <trkpt lat="40.11705" lon="-1.78106">
        <ele>1153.4</ele>
        <time>2021-10-09 18:38:09</time>
      </trkpt>
      <trkpt lat="40.11702" lon="-1.78101">
        <ele>1153.4</ele>
        <time>2021-10-09 18:38:10</time>
      </trkpt>
      <trkpt lat="40.11699" lon="-1.78096">
        <ele>1153.8</ele>
        <time>2021-10-09 18:38:11</time>
      </trkpt>
      <trkpt lat="40.11697" lon="-1.78092">
        <ele>1153.8</ele>
        <time>2021-10-09 18:38:12</time>
      </trkpt>
      <trkpt lat="40.11694" lon="-1.78087">
        <ele>1153.8</ele>
        <time>2021-10-09 18:38:13</time>
      </trkpt>
      <trkpt lat="40.11691" lon="-1.78083">
        <ele>1154</ele>
        <time>2021-10-09 18:38:14</time>
      </trkpt>
      <trkpt lat="40.11688" lon="-1.78078">
        <ele>1154</ele>
        <time>2021-10-09 18:38:15</time>
      </trkpt>
      <trkpt lat="40.11686" lon="-1.78074">
        <ele>1154.2</ele>
        <time>2021-10-09 18:38:16</time>
      </trkpt>
      <trkpt lat="40.11684" lon="-1.78069">
        <ele>1154.2</ele>
        <time>2021-10-09 18:38:17</time>
      </trkpt>
      <trkpt lat="40.11682" lon="-1.78064">
        <ele>1154.2</ele>
        <time>2021-10-09 18:38:18</time>
      </trkpt>
      <trkpt lat="40.1168" lon="-1.78059">
        <ele>1154.6</ele>
        <time>2021-10-09 18:38:19</time>
      </trkpt>
      <trkpt lat="40.11678" lon="-1.78054">
        <ele>1154.6</ele>
        <time>2021-10-09 18:38:20</time>
      </trkpt>
      <trkpt lat="40.11676" lon="-1.78048">
        <ele>1154.8</ele>
        <time>2021-10-09 18:38:21</time>
      </trkpt>
      <trkpt lat="40.11673" lon="-1.78043">
        <ele>1154.8</ele>
        <time>2021-10-09 18:38:22</time>
      </trkpt>
      <trkpt lat="40.11672" lon="-1.78038">
        <ele>1154.8</ele>
        <time>2021-10-09 18:38:23</time>
      </trkpt>
      <trkpt lat="40.1167" lon="-1.78032">
        <ele>1154.8</ele>
        <time>2021-10-09 18:38:24</time>
      </trkpt>
      <trkpt lat="40.1167" lon="-1.78027">
        <ele>1154.8</ele>
        <time>2021-10-09 18:38:25</time>
      </trkpt>
      <trkpt lat="40.11668" lon="-1.78021">
        <ele>1155</ele>
        <time>2021-10-09 18:38:26</time>
      </trkpt>
      <trkpt lat="40.11667" lon="-1.78016">
        <ele>1155</ele>
        <time>2021-10-09 18:38:27</time>
      </trkpt>
      <trkpt lat="40.11665" lon="-1.7801">
        <ele>1155</ele>
        <time>2021-10-09 18:38:28</time>
      </trkpt>
      <trkpt lat="40.11664" lon="-1.78005">
        <ele>1155.4</ele>
        <time>2021-10-09 18:38:29</time>
      </trkpt>
      <trkpt lat="40.11663" lon="-1.77999">
        <ele>1155.4</ele>
        <time>2021-10-09 18:38:30</time>
      </trkpt>
      <trkpt lat="40.11662" lon="-1.77993">
        <ele>1155.4</ele>
        <time>2021-10-09 18:38:31</time>
      </trkpt>
      <trkpt lat="40.11661" lon="-1.77987">
        <ele>1155.4</ele>
        <time>2021-10-09 18:38:32</time>
      </trkpt>
      <trkpt lat="40.1166" lon="-1.77981">
        <ele>1155.4</ele>
        <time>2021-10-09 18:38:33</time>
      </trkpt>
      <trkpt lat="40.11659" lon="-1.77975">
        <ele>1155.4</ele>
        <time>2021-10-09 18:38:34</time>
      </trkpt>
      <trkpt lat="40.11658" lon="-1.77969">
        <ele>1155.4</ele>
        <time>2021-10-09 18:38:35</time>
      </trkpt>
      <trkpt lat="40.11656" lon="-1.77963">
        <ele>1155.4</ele>
        <time>2021-10-09 18:38:36</time>
      </trkpt>
      <trkpt lat="40.11654" lon="-1.77958">
        <ele>1155.4</ele>
        <time>2021-10-09 18:38:37</time>
      </trkpt>
      <trkpt lat="40.11651" lon="-1.77951">
        <ele>1155.4</ele>
        <time>2021-10-09 18:38:38</time>
      </trkpt>
      <trkpt lat="40.11649" lon="-1.77944">
        <ele>1155.4</ele>
        <time>2021-10-09 18:38:39</time>
      </trkpt>
      <trkpt lat="40.11646" lon="-1.77938">
        <ele>1155</ele>
        <time>2021-10-09 18:38:40</time>
      </trkpt>
      <trkpt lat="40.11643" lon="-1.77931">
        <ele>1154.8</ele>
        <time>2021-10-09 18:38:41</time>
      </trkpt>
      <trkpt lat="40.11638" lon="-1.77924">
        <ele>1154.6</ele>
        <time>2021-10-09 18:38:42</time>
      </trkpt>
      <trkpt lat="40.11633" lon="-1.77918">
        <ele>1154.2</ele>
        <time>2021-10-09 18:38:43</time>
      </trkpt>
      <trkpt lat="40.11627" lon="-1.77912">
        <ele>1154</ele>
        <time>2021-10-09 18:38:44</time>
      </trkpt>
      <trkpt lat="40.11622" lon="-1.77906">
        <ele>1153.8</ele>
        <time>2021-10-09 18:38:45</time>
      </trkpt>
      <trkpt lat="40.11615" lon="-1.77901">
        <ele>1153.8</ele>
        <time>2021-10-09 18:38:46</time>
      </trkpt>
      <trkpt lat="40.11608" lon="-1.77898">
        <ele>1153.4</ele>
        <time>2021-10-09 18:38:47</time>
      </trkpt>
      <trkpt lat="40.11601" lon="-1.77895">
        <ele>1153.4</ele>
        <time>2021-10-09 18:38:48</time>
      </trkpt>
      <trkpt lat="40.11595" lon="-1.77892">
        <ele>1153.2</ele>
        <time>2021-10-09 18:38:49</time>
      </trkpt>
      <trkpt lat="40.11589" lon="-1.77889">
        <ele>1153.2</ele>
        <time>2021-10-09 18:38:50</time>
      </trkpt>
      <trkpt lat="40.11583" lon="-1.77886">
        <ele>1153.2</ele>
        <time>2021-10-09 18:38:51</time>
      </trkpt>
      <trkpt lat="40.11577" lon="-1.77883">
        <ele>1153.2</ele>
        <time>2021-10-09 18:38:52</time>
      </trkpt>
      <trkpt lat="40.11571" lon="-1.7788">
        <ele>1153</ele>
        <time>2021-10-09 18:38:53</time>
      </trkpt>
      <trkpt lat="40.11565" lon="-1.77878">
        <ele>1153</ele>
        <time>2021-10-09 18:38:54</time>
      </trkpt>
      <trkpt lat="40.11558" lon="-1.77875">
        <ele>1153</ele>
        <time>2021-10-09 18:38:55</time>
      </trkpt>
      <trkpt lat="40.11553" lon="-1.77872">
        <ele>1153</ele>
        <time>2021-10-09 18:38:56</time>
      </trkpt>
      <trkpt lat="40.11547" lon="-1.77869">
        <ele>1153</ele>
        <time>2021-10-09 18:38:57</time>
      </trkpt>
      <trkpt lat="40.11541" lon="-1.77866">
        <ele>1153</ele>
        <time>2021-10-09 18:38:58</time>
      </trkpt>
      <trkpt lat="40.11535" lon="-1.77862">
        <ele>1153</ele>
        <time>2021-10-09 18:38:59</time>
      </trkpt>
      <trkpt lat="40.11529" lon="-1.7786">
        <ele>1153</ele>
        <time>2021-10-09 18:39:00</time>
      </trkpt>
      <trkpt lat="40.11523" lon="-1.77857">
        <ele>1153</ele>
        <time>2021-10-09 18:39:01</time>
      </trkpt>
      <trkpt lat="40.11517" lon="-1.77854">
        <ele>1153</ele>
        <time>2021-10-09 18:39:02</time>
      </trkpt>
      <trkpt lat="40.11511" lon="-1.7785">
        <ele>1153</ele>
        <time>2021-10-09 18:39:03</time>
      </trkpt>
      <trkpt lat="40.11506" lon="-1.77846">
        <ele>1152.6</ele>
        <time>2021-10-09 18:39:04</time>
      </trkpt>
      <trkpt lat="40.11501" lon="-1.77842">
        <ele>1152.6</ele>
        <time>2021-10-09 18:39:05</time>
      </trkpt>
      <trkpt lat="40.11496" lon="-1.77837">
        <ele>1152.6</ele>
        <time>2021-10-09 18:39:06</time>
      </trkpt>
      <trkpt lat="40.11491" lon="-1.77833">
        <ele>1152.4</ele>
        <time>2021-10-09 18:39:07</time>
      </trkpt>
      <trkpt lat="40.11486" lon="-1.77828">
        <ele>1152.4</ele>
        <time>2021-10-09 18:39:08</time>
      </trkpt>
      <trkpt lat="40.11481" lon="-1.77823">
        <ele>1152.2</ele>
        <time>2021-10-09 18:39:09</time>
      </trkpt>
      <trkpt lat="40.11476" lon="-1.77817">
        <ele>1152</ele>
        <time>2021-10-09 18:39:10</time>
      </trkpt>
      <trkpt lat="40.11472" lon="-1.77811">
        <ele>1152</ele>
        <time>2021-10-09 18:39:11</time>
      </trkpt>
      <trkpt lat="40.11467" lon="-1.77805">
        <ele>1151.6</ele>
        <time>2021-10-09 18:39:12</time>
      </trkpt>
      <trkpt lat="40.11462" lon="-1.77799">
        <ele>1151.2</ele>
        <time>2021-10-09 18:39:13</time>
      </trkpt>
      <trkpt lat="40.11458" lon="-1.77793">
        <ele>1151.2</ele>
        <time>2021-10-09 18:39:14</time>
      </trkpt>
      <trkpt lat="40.11453" lon="-1.77786">
        <ele>1151</ele>
        <time>2021-10-09 18:39:15</time>
      </trkpt>
      <trkpt lat="40.11449" lon="-1.77779">
        <ele>1150.8</ele>
        <time>2021-10-09 18:39:16</time>
      </trkpt>
      <trkpt lat="40.11445" lon="-1.77772">
        <ele>1150.8</ele>
        <time>2021-10-09 18:39:17</time>
      </trkpt>
      <trkpt lat="40.11441" lon="-1.77765">
        <ele>1150.2</ele>
        <time>2021-10-09 18:39:18</time>
      </trkpt>
      <trkpt lat="40.11436" lon="-1.77757">
        <ele>1150</ele>
        <time>2021-10-09 18:39:19</time>
      </trkpt>
      <trkpt lat="40.11432" lon="-1.77749">
        <ele>1149.8</ele>
        <time>2021-10-09 18:39:20</time>
      </trkpt>
      <trkpt lat="40.11427" lon="-1.77742">
        <ele>1149.4</ele>
        <time>2021-10-09 18:39:21</time>
      </trkpt>
      <trkpt lat="40.11422" lon="-1.77735">
        <ele>1149.2</ele>
        <time>2021-10-09 18:39:22</time>
      </trkpt>
      <trkpt lat="40.11417" lon="-1.77728">
        <ele>1148.8</ele>
        <time>2021-10-09 18:39:23</time>
      </trkpt>
      <trkpt lat="40.11411" lon="-1.77721">
        <ele>1148.2</ele>
        <time>2021-10-09 18:39:24</time>
      </trkpt>
      <trkpt lat="40.11405" lon="-1.77713">
        <ele>1147.8</ele>
        <time>2021-10-09 18:39:25</time>
      </trkpt>
      <trkpt lat="40.11398" lon="-1.77707">
        <ele>1147</ele>
        <time>2021-10-09 18:39:26</time>
      </trkpt>
      <trkpt lat="40.11391" lon="-1.77699">
        <ele>1146.4</ele>
        <time>2021-10-09 18:39:27</time>
      </trkpt>
      <trkpt lat="40.11384" lon="-1.77691">
        <ele>1145.8</ele>
        <time>2021-10-09 18:39:28</time>
      </trkpt>
      <trkpt lat="40.11377" lon="-1.77683">
        <ele>1145.2</ele>
        <time>2021-10-09 18:39:29</time>
      </trkpt>
      <trkpt lat="40.11371" lon="-1.77673">
        <ele>1144.6</ele>
        <time>2021-10-09 18:39:30</time>
      </trkpt>
      <trkpt lat="40.11365" lon="-1.77663">
        <ele>1144</ele>
        <time>2021-10-09 18:39:31</time>
      </trkpt>
      <trkpt lat="40.1136" lon="-1.77653">
        <ele>1143.4</ele>
        <time>2021-10-09 18:39:32</time>
      </trkpt>
      <trkpt lat="40.11354" lon="-1.77643">
        <ele>1142.8</ele>
        <time>2021-10-09 18:39:33</time>
      </trkpt>
      <trkpt lat="40.11349" lon="-1.77633">
        <ele>1142.2</ele>
        <time>2021-10-09 18:39:34</time>
      </trkpt>
      <trkpt lat="40.11343" lon="-1.77624">
        <ele>1141.8</ele>
        <time>2021-10-09 18:39:35</time>
      </trkpt>
      <trkpt lat="40.11337" lon="-1.77614">
        <ele>1141.4</ele>
        <time>2021-10-09 18:39:36</time>
      </trkpt>
      <trkpt lat="40.11331" lon="-1.77605">
        <ele>1141</ele>
        <time>2021-10-09 18:39:37</time>
      </trkpt>
      <trkpt lat="40.11325" lon="-1.77596">
        <ele>1140.6</ele>
        <time>2021-10-09 18:39:38</time>
      </trkpt>
      <trkpt lat="40.11319" lon="-1.77588">
        <ele>1140.2</ele>
        <time>2021-10-09 18:39:39</time>
      </trkpt>
      <trkpt lat="40.11312" lon="-1.77581">
        <ele>1140.2</ele>
        <time>2021-10-09 18:39:40</time>
      </trkpt>
      <trkpt lat="40.11305" lon="-1.77573">
        <ele>1139.8</ele>
        <time>2021-10-09 18:39:41</time>
      </trkpt>
      <trkpt lat="40.11298" lon="-1.77566">
        <ele>1139.4</ele>
        <time>2021-10-09 18:39:42</time>
      </trkpt>
      <trkpt lat="40.11291" lon="-1.7756">
        <ele>1139.2</ele>
        <time>2021-10-09 18:39:43</time>
      </trkpt>
      <trkpt lat="40.11284" lon="-1.77554">
        <ele>1139</ele>
        <time>2021-10-09 18:39:44</time>
      </trkpt>
      <trkpt lat="40.11276" lon="-1.77549">
        <ele>1138.6</ele>
        <time>2021-10-09 18:39:45</time>
      </trkpt>
      <trkpt lat="40.11268" lon="-1.77544">
        <ele>1138.4</ele>
        <time>2021-10-09 18:39:46</time>
      </trkpt>
      <trkpt lat="40.1126" lon="-1.77539">
        <ele>1138.2</ele>
        <time>2021-10-09 18:39:47</time>
      </trkpt>
      <trkpt lat="40.11252" lon="-1.77533">
        <ele>1137.8</ele>
        <time>2021-10-09 18:39:48</time>
      </trkpt>
      <trkpt lat="40.11244" lon="-1.77528">
        <ele>1137.6</ele>
        <time>2021-10-09 18:39:49</time>
      </trkpt>
      <trkpt lat="40.11236" lon="-1.77524">
        <ele>1137.2</ele>
        <time>2021-10-09 18:39:50</time>
      </trkpt>
      <trkpt lat="40.11228" lon="-1.77519">
        <ele>1137</ele>
        <time>2021-10-09 18:39:51</time>
      </trkpt>
      <trkpt lat="40.1122" lon="-1.77515">
        <ele>1136.6</ele>
        <time>2021-10-09 18:39:52</time>
      </trkpt>
      <trkpt lat="40.11211" lon="-1.7751">
        <ele>1136.2</ele>
        <time>2021-10-09 18:39:53</time>
      </trkpt>
      <trkpt lat="40.11203" lon="-1.77505">
        <ele>1135.8</ele>
        <time>2021-10-09 18:39:54</time>
      </trkpt>
      <trkpt lat="40.11194" lon="-1.77501">
        <ele>1135.6</ele>
        <time>2021-10-09 18:39:55</time>
      </trkpt>
      <trkpt lat="40.11185" lon="-1.77497">
        <ele>1135.2</ele>
        <time>2021-10-09 18:39:56</time>
      </trkpt>
      <trkpt lat="40.11177" lon="-1.77492">
        <ele>1134.8</ele>
        <time>2021-10-09 18:39:57</time>
      </trkpt>
      <trkpt lat="40.11168" lon="-1.77488">
        <ele>1134.6</ele>
        <time>2021-10-09 18:39:58</time>
      </trkpt>
      <trkpt lat="40.11159" lon="-1.77483">
        <ele>1134.2</ele>
        <time>2021-10-09 18:39:59</time>
      </trkpt>
      <trkpt lat="40.11151" lon="-1.77477">
        <ele>1133.8</ele>
        <time>2021-10-09 18:40:00</time>
      </trkpt>
      <trkpt lat="40.11143" lon="-1.77471">
        <ele>1133.4</ele>
        <time>2021-10-09 18:40:01</time>
      </trkpt>
      <trkpt lat="40.11136" lon="-1.77463">
        <ele>1133</ele>
        <time>2021-10-09 18:40:02</time>
      </trkpt>
      <trkpt lat="40.11129" lon="-1.77457">
        <ele>1132.6</ele>
        <time>2021-10-09 18:40:03</time>
      </trkpt>
      <trkpt lat="40.11122" lon="-1.77449">
        <ele>1132.2</ele>
        <time>2021-10-09 18:40:04</time>
      </trkpt>
      <trkpt lat="40.11115" lon="-1.77442">
        <ele>1131.8</ele>
        <time>2021-10-09 18:40:05</time>
      </trkpt>
      <trkpt lat="40.11108" lon="-1.77435">
        <ele>1131.6</ele>
        <time>2021-10-09 18:40:06</time>
      </trkpt>
      <trkpt lat="40.11102" lon="-1.77427">
        <ele>1131.4</ele>
        <time>2021-10-09 18:40:07</time>
      </trkpt>
      <trkpt lat="40.11095" lon="-1.7742">
        <ele>1131.2</ele>
        <time>2021-10-09 18:40:08</time>
      </trkpt>
      <trkpt lat="40.11089" lon="-1.77412">
        <ele>1130.8</ele>
        <time>2021-10-09 18:40:09</time>
      </trkpt>
      <trkpt lat="40.11082" lon="-1.77405">
        <ele>1130.6</ele>
        <time>2021-10-09 18:40:10</time>
      </trkpt>
      <trkpt lat="40.11076" lon="-1.77398">
        <ele>1130.6</ele>
        <time>2021-10-09 18:40:11</time>
      </trkpt>
      <trkpt lat="40.1107" lon="-1.77391">
        <ele>1130.4</ele>
        <time>2021-10-09 18:40:12</time>
      </trkpt>
      <trkpt lat="40.11065" lon="-1.77384">
        <ele>1130.4</ele>
        <time>2021-10-09 18:40:13</time>
      </trkpt>
      <trkpt lat="40.11059" lon="-1.77377">
        <ele>1130.2</ele>
        <time>2021-10-09 18:40:14</time>
      </trkpt>
      <trkpt lat="40.11053" lon="-1.7737">
        <ele>1130.2</ele>
        <time>2021-10-09 18:40:15</time>
      </trkpt>
      <trkpt lat="40.11047" lon="-1.77363">
        <ele>1129.8</ele>
        <time>2021-10-09 18:40:16</time>
      </trkpt>
      <trkpt lat="40.11042" lon="-1.77356">
        <ele>1129.8</ele>
        <time>2021-10-09 18:40:17</time>
      </trkpt>
      <trkpt lat="40.11037" lon="-1.77348">
        <ele>1129.8</ele>
        <time>2021-10-09 18:40:18</time>
      </trkpt>
      <trkpt lat="40.11031" lon="-1.7734">
        <ele>1129.8</ele>
        <time>2021-10-09 18:40:19</time>
      </trkpt>
      <trkpt lat="40.11026" lon="-1.77332">
        <ele>1129.8</ele>
        <time>2021-10-09 18:40:20</time>
      </trkpt>
      <trkpt lat="40.11022" lon="-1.77324">
        <ele>1129.6</ele>
        <time>2021-10-09 18:40:21</time>
      </trkpt>
      <trkpt lat="40.11017" lon="-1.77316">
        <ele>1129.6</ele>
        <time>2021-10-09 18:40:22</time>
      </trkpt>
      <trkpt lat="40.11013" lon="-1.77308">
        <ele>1129.6</ele>
        <time>2021-10-09 18:40:23</time>
      </trkpt>
      <trkpt lat="40.11009" lon="-1.77301">
        <ele>1129.6</ele>
        <time>2021-10-09 18:40:24</time>
      </trkpt>
      <trkpt lat="40.11004" lon="-1.77293">
        <ele>1129.4</ele>
        <time>2021-10-09 18:40:25</time>
      </trkpt>
      <trkpt lat="40.11" lon="-1.77285">
        <ele>1129.4</ele>
        <time>2021-10-09 18:40:26</time>
      </trkpt>
      <trkpt lat="40.10996" lon="-1.77277">
        <ele>1129.4</ele>
        <time>2021-10-09 18:40:27</time>
      </trkpt>
      <trkpt lat="40.10992" lon="-1.77269">
        <ele>1129</ele>
        <time>2021-10-09 18:40:28</time>
      </trkpt>
      <trkpt lat="40.10988" lon="-1.77262">
        <ele>1129</ele>
        <time>2021-10-09 18:40:29</time>
      </trkpt>
      <trkpt lat="40.10984" lon="-1.77255">
        <ele>1129</ele>
        <time>2021-10-09 18:40:30</time>
      </trkpt>
      <trkpt lat="40.10979" lon="-1.77247">
        <ele>1129</ele>
        <time>2021-10-09 18:40:31</time>
      </trkpt>
      <trkpt lat="40.10976" lon="-1.7724">
        <ele>1129</ele>
        <time>2021-10-09 18:40:32</time>
      </trkpt>
      <trkpt lat="40.10972" lon="-1.77233">
        <ele>1128.8</ele>
        <time>2021-10-09 18:40:33</time>
      </trkpt>
      <trkpt lat="40.10968" lon="-1.77226">
        <ele>1128.8</ele>
        <time>2021-10-09 18:40:34</time>
      </trkpt>
      <trkpt lat="40.10965" lon="-1.77219">
        <ele>1128.8</ele>
        <time>2021-10-09 18:40:35</time>
      </trkpt>
      <trkpt lat="40.10961" lon="-1.77212">
        <ele>1128.6</ele>
        <time>2021-10-09 18:40:36</time>
      </trkpt>
      <trkpt lat="40.10957" lon="-1.77205">
        <ele>1128.6</ele>
        <time>2021-10-09 18:40:37</time>
      </trkpt>
      <trkpt lat="40.10953" lon="-1.77198">
        <ele>1128.6</ele>
        <time>2021-10-09 18:40:38</time>
      </trkpt>
      <trkpt lat="40.10949" lon="-1.77192">
        <ele>1128.6</ele>
        <time>2021-10-09 18:40:39</time>
      </trkpt>
      <trkpt lat="40.10944" lon="-1.77185">
        <ele>1128.6</ele>
        <time>2021-10-09 18:40:40</time>
      </trkpt>
      <trkpt lat="40.10939" lon="-1.77179">
        <ele>1128.6</ele>
        <time>2021-10-09 18:40:41</time>
      </trkpt>
      <trkpt lat="40.10935" lon="-1.77174">
        <ele>1128.6</ele>
        <time>2021-10-09 18:40:42</time>
      </trkpt>
      <trkpt lat="40.1093" lon="-1.77169">
        <ele>1128.4</ele>
        <time>2021-10-09 18:40:43</time>
      </trkpt>
      <trkpt lat="40.10925" lon="-1.77164">
        <ele>1128.4</ele>
        <time>2021-10-09 18:40:44</time>
      </trkpt>
      <trkpt lat="40.1092" lon="-1.77159">
        <ele>1128.4</ele>
        <time>2021-10-09 18:40:45</time>
      </trkpt>
      <trkpt lat="40.10915" lon="-1.77155">
        <ele>1128.6</ele>
        <time>2021-10-09 18:40:46</time>
      </trkpt>
      <trkpt lat="40.1091" lon="-1.77151">
        <ele>1128.6</ele>
        <time>2021-10-09 18:40:47</time>
      </trkpt>
      <trkpt lat="40.10905" lon="-1.77148">
        <ele>1128.6</ele>
        <time>2021-10-09 18:40:48</time>
      </trkpt>
      <trkpt lat="40.109" lon="-1.77144">
        <ele>1128.6</ele>
        <time>2021-10-09 18:40:49</time>
      </trkpt>
      <trkpt lat="40.10895" lon="-1.77141">
        <ele>1128.8</ele>
        <time>2021-10-09 18:40:50</time>
      </trkpt>
      <trkpt lat="40.1089" lon="-1.77138">
        <ele>1128.8</ele>
        <time>2021-10-09 18:40:51</time>
      </trkpt>
      <trkpt lat="40.10886" lon="-1.77135">
        <ele>1128.8</ele>
        <time>2021-10-09 18:40:52</time>
      </trkpt>
      <trkpt lat="40.10881" lon="-1.77132">
        <ele>1129</ele>
        <time>2021-10-09 18:40:53</time>
      </trkpt>
      <trkpt lat="40.10877" lon="-1.77129">
        <ele>1129</ele>
        <time>2021-10-09 18:40:54</time>
      </trkpt>
      <trkpt lat="40.10872" lon="-1.77127">
        <ele>1129</ele>
        <time>2021-10-09 18:40:55</time>
      </trkpt>
      <trkpt lat="40.10868" lon="-1.77124">
        <ele>1129</ele>
        <time>2021-10-09 18:40:56</time>
      </trkpt>
      <trkpt lat="40.10864" lon="-1.77122">
        <ele>1129.2</ele>
        <time>2021-10-09 18:40:57</time>
      </trkpt>
      <trkpt lat="40.10861" lon="-1.7712">
        <ele>1129.2</ele>
        <time>2021-10-09 18:40:58</time>
      </trkpt>
      <trkpt lat="40.10857" lon="-1.77118">
        <ele>1129.6</ele>
        <time>2021-10-09 18:40:59</time>
      </trkpt>
      <trkpt lat="40.10854" lon="-1.77116">
        <ele>1129.6</ele>
        <time>2021-10-09 18:41:00</time>
      </trkpt>
      <trkpt lat="40.10851" lon="-1.77114">
        <ele>1129.8</ele>
        <time>2021-10-09 18:41:01</time>
      </trkpt>
      <trkpt lat="40.10849" lon="-1.77112">
        <ele>1129.8</ele>
        <time>2021-10-09 18:41:02</time>
      </trkpt>
      <trkpt lat="40.10846" lon="-1.77111">
        <ele>1129.8</ele>
        <time>2021-10-09 18:41:03</time>
      </trkpt>
      <trkpt lat="40.10844" lon="-1.7711">
        <ele>1130</ele>
        <time>2021-10-09 18:41:04</time>
      </trkpt>
      <trkpt lat="40.10841" lon="-1.77109">
        <ele>1130</ele>
        <time>2021-10-09 18:41:05</time>
      </trkpt>
      <trkpt lat="40.10839" lon="-1.77107">
        <ele>1130</ele>
        <time>2021-10-09 18:41:06</time>
      </trkpt>
      <trkpt lat="40.10836" lon="-1.77106">
        <ele>1130</ele>
        <time>2021-10-09 18:41:07</time>
      </trkpt>
      <trkpt lat="40.10834" lon="-1.77105">
        <ele>1130.2</ele>
        <time>2021-10-09 18:41:08</time>
      </trkpt>
      <trkpt lat="40.10832" lon="-1.77103">
        <ele>1130.2</ele>
        <time>2021-10-09 18:41:09</time>
      </trkpt>
      <trkpt lat="40.10831" lon="-1.77102">
        <ele>1130.2</ele>
        <time>2021-10-09 18:41:10</time>
      </trkpt>
      <trkpt lat="40.1083" lon="-1.77101">
        <ele>1130.2</ele>
        <time>2021-10-09 18:41:11</time>
      </trkpt>
      <trkpt lat="40.10828" lon="-1.771">
        <ele>1130.4</ele>
        <time>2021-10-09 18:41:12</time>
      </trkpt>
      <trkpt lat="40.10826" lon="-1.77099">
        <ele>1130.4</ele>
        <time>2021-10-09 18:41:13</time>
      </trkpt>
      <trkpt lat="40.10823" lon="-1.77097">
        <ele>1130.4</ele>
        <time>2021-10-09 18:41:14</time>
      </trkpt>
      <trkpt lat="40.10821" lon="-1.77096">
        <ele>1130.4</ele>
        <time>2021-10-09 18:41:15</time>
      </trkpt>
      <trkpt lat="40.10819" lon="-1.77095">
        <ele>1130.4</ele>
        <time>2021-10-09 18:41:16</time>
      </trkpt>
      <trkpt lat="40.10816" lon="-1.77093">
        <ele>1130.4</ele>
        <time>2021-10-09 18:41:17</time>
      </trkpt>
      <trkpt lat="40.10813" lon="-1.77091">
        <ele>1130.8</ele>
        <time>2021-10-09 18:41:18</time>
      </trkpt>
      <trkpt lat="40.1081" lon="-1.7709">
        <ele>1130.8</ele>
        <time>2021-10-09 18:41:19</time>
      </trkpt>
      <trkpt lat="40.10806" lon="-1.77088">
        <ele>1130.8</ele>
        <time>2021-10-09 18:41:20</time>
      </trkpt>
      <trkpt lat="40.10802" lon="-1.77087">
        <ele>1130.8</ele>
        <time>2021-10-09 18:41:21</time>
      </trkpt>
      <trkpt lat="40.10798" lon="-1.77085">
        <ele>1130.8</ele>
        <time>2021-10-09 18:41:22</time>
      </trkpt>
      <trkpt lat="40.10795" lon="-1.77083">
        <ele>1131</ele>
        <time>2021-10-09 18:41:23</time>
      </trkpt>
      <trkpt lat="40.10791" lon="-1.77081">
        <ele>1131</ele>
        <time>2021-10-09 18:41:24</time>
      </trkpt>
      <trkpt lat="40.10787" lon="-1.7708">
        <ele>1131</ele>
        <time>2021-10-09 18:41:25</time>
      </trkpt>
      <trkpt lat="40.10784" lon="-1.77079">
        <ele>1131</ele>
        <time>2021-10-09 18:41:26</time>
      </trkpt>
      <trkpt lat="40.1078" lon="-1.77078">
        <ele>1131</ele>
        <time>2021-10-09 18:41:27</time>
      </trkpt>
      <trkpt lat="40.10777" lon="-1.77077">
        <ele>1131.2</ele>
        <time>2021-10-09 18:41:28</time>
      </trkpt>
      <trkpt lat="40.10774" lon="-1.77077">
        <ele>1131.2</ele>
        <time>2021-10-09 18:41:29</time>
      </trkpt>
      <trkpt lat="40.10772" lon="-1.77077">
        <ele>1131.2</ele>
        <time>2021-10-09 18:41:30</time>
      </trkpt>
      <trkpt lat="40.10769" lon="-1.77077">
        <ele>1131.2</ele>
        <time>2021-10-09 18:41:31</time>
      </trkpt>
      <trkpt lat="40.10766" lon="-1.77077">
        <ele>1131.2</ele>
        <time>2021-10-09 18:41:32</time>
      </trkpt>
      <trkpt lat="40.10764" lon="-1.77076">
        <ele>1131.4</ele>
        <time>2021-10-09 18:41:33</time>
      </trkpt>
      <trkpt lat="40.10761" lon="-1.77076">
        <ele>1131.4</ele>
        <time>2021-10-09 18:41:34</time>
      </trkpt>
      <trkpt lat="40.10759" lon="-1.77076">
        <ele>1131.4</ele>
        <time>2021-10-09 18:41:35</time>
      </trkpt>
      <trkpt lat="40.10757" lon="-1.77076">
        <ele>1131.4</ele>
        <time>2021-10-09 18:41:36</time>
      </trkpt>
      <trkpt lat="40.10755" lon="-1.77076">
        <ele>1131.4</ele>
        <time>2021-10-09 18:41:37</time>
      </trkpt>
      <trkpt lat="40.10753" lon="-1.77076">
        <ele>1131.4</ele>
        <time>2021-10-09 18:41:38</time>
      </trkpt>
      <trkpt lat="40.1075" lon="-1.77077">
        <ele>1131.4</ele>
        <time>2021-10-09 18:41:39</time>
      </trkpt>
      <trkpt lat="40.10748" lon="-1.77077">
        <ele>1131.4</ele>
        <time>2021-10-09 18:41:40</time>
      </trkpt>
      <trkpt lat="40.10745" lon="-1.77078">
        <ele>1131.4</ele>
        <time>2021-10-09 18:41:41</time>
      </trkpt>
      <trkpt lat="40.10742" lon="-1.77079">
        <ele>1131.2</ele>
        <time>2021-10-09 18:41:42</time>
      </trkpt>
      <trkpt lat="40.10739" lon="-1.77081">
        <ele>1131.2</ele>
        <time>2021-10-09 18:41:43</time>
      </trkpt>
      <trkpt lat="40.10735" lon="-1.77082">
        <ele>1131.2</ele>
        <time>2021-10-09 18:41:44</time>
      </trkpt>
      <trkpt lat="40.1073" lon="-1.77082">
        <ele>1130.8</ele>
        <time>2021-10-09 18:41:45</time>
      </trkpt>
      <trkpt lat="40.10725" lon="-1.77082">
        <ele>1130.8</ele>
        <time>2021-10-09 18:41:46</time>
      </trkpt>
      <trkpt lat="40.1072" lon="-1.77082">
        <ele>1130.6</ele>
        <time>2021-10-09 18:41:47</time>
      </trkpt>
      <trkpt lat="40.10714" lon="-1.77082">
        <ele>1130.4</ele>
        <time>2021-10-09 18:41:48</time>
      </trkpt>
      <trkpt lat="40.10709" lon="-1.77083">
        <ele>1130.4</ele>
        <time>2021-10-09 18:41:49</time>
      </trkpt>
      <trkpt lat="40.10703" lon="-1.77083">
        <ele>1130</ele>
        <time>2021-10-09 18:41:50</time>
      </trkpt>
      <trkpt lat="40.10697" lon="-1.77084">
        <ele>1129.6</ele>
        <time>2021-10-09 18:41:51</time>
      </trkpt>
      <trkpt lat="40.10691" lon="-1.77084">
        <ele>1129.6</ele>
        <time>2021-10-09 18:41:52</time>
      </trkpt>
      <trkpt lat="40.10684" lon="-1.77085">
        <ele>1129.2</ele>
        <time>2021-10-09 18:41:53</time>
      </trkpt>
      <trkpt lat="40.10677" lon="-1.77084">
        <ele>1129</ele>
        <time>2021-10-09 18:41:54</time>
      </trkpt>
      <trkpt lat="40.1067" lon="-1.77084">
        <ele>1128.8</ele>
        <time>2021-10-09 18:41:55</time>
      </trkpt>
      <trkpt lat="40.10663" lon="-1.77083">
        <ele>1128.4</ele>
        <time>2021-10-09 18:41:56</time>
      </trkpt>
      <trkpt lat="40.10656" lon="-1.77082">
        <ele>1128.2</ele>
        <time>2021-10-09 18:41:57</time>
      </trkpt>
      <trkpt lat="40.10649" lon="-1.77079">
        <ele>1128</ele>
        <time>2021-10-09 18:41:58</time>
      </trkpt>
      <trkpt lat="40.10643" lon="-1.77077">
        <ele>1127.6</ele>
        <time>2021-10-09 18:41:59</time>
      </trkpt>
      <trkpt lat="40.10636" lon="-1.77075">
        <ele>1127.4</ele>
        <time>2021-10-09 18:42:00</time>
      </trkpt>
      <trkpt lat="40.10629" lon="-1.77074">
        <ele>1127.4</ele>
        <time>2021-10-09 18:42:01</time>
      </trkpt>
      <trkpt lat="40.10622" lon="-1.77072">
        <ele>1127</ele>
        <time>2021-10-09 18:42:02</time>
      </trkpt>
      <trkpt lat="40.10616" lon="-1.7707">
        <ele>1126.6</ele>
        <time>2021-10-09 18:42:03</time>
      </trkpt>
      <trkpt lat="40.10609" lon="-1.77068">
        <ele>1126.4</ele>
        <time>2021-10-09 18:42:04</time>
      </trkpt>
      <trkpt lat="40.10603" lon="-1.77065">
        <ele>1126.2</ele>
        <time>2021-10-09 18:42:05</time>
      </trkpt>
      <trkpt lat="40.10597" lon="-1.77062">
        <ele>1126</ele>
        <time>2021-10-09 18:42:06</time>
      </trkpt>
      <trkpt lat="40.10591" lon="-1.77059">
        <ele>1125.8</ele>
        <time>2021-10-09 18:42:07</time>
      </trkpt>
      <trkpt lat="40.10585" lon="-1.77057">
        <ele>1125.6</ele>
        <time>2021-10-09 18:42:08</time>
      </trkpt>
      <trkpt lat="40.10579" lon="-1.77054">
        <ele>1125.6</ele>
        <time>2021-10-09 18:42:09</time>
      </trkpt>
      <trkpt lat="40.10574" lon="-1.7705">
        <ele>1125.2</ele>
        <time>2021-10-09 18:42:10</time>
      </trkpt>
      <trkpt lat="40.10568" lon="-1.77047">
        <ele>1125.2</ele>
        <time>2021-10-09 18:42:11</time>
      </trkpt>
      <trkpt lat="40.10563" lon="-1.77044">
        <ele>1125</ele>
        <time>2021-10-09 18:42:12</time>
      </trkpt>
      <trkpt lat="40.10557" lon="-1.77041">
        <ele>1125</ele>
        <time>2021-10-09 18:42:13</time>
      </trkpt>
      <trkpt lat="40.10552" lon="-1.77038">
        <ele>1125</ele>
        <time>2021-10-09 18:42:14</time>
      </trkpt>
      <trkpt lat="40.10547" lon="-1.77034">
        <ele>1124.8</ele>
        <time>2021-10-09 18:42:15</time>
      </trkpt>
      <trkpt lat="40.10542" lon="-1.77031">
        <ele>1124.8</ele>
        <time>2021-10-09 18:42:16</time>
      </trkpt>
      <trkpt lat="40.10537" lon="-1.77028">
        <ele>1124.6</ele>
        <time>2021-10-09 18:42:17</time>
      </trkpt>
      <trkpt lat="40.10532" lon="-1.77025">
        <ele>1124.6</ele>
        <time>2021-10-09 18:42:18</time>
      </trkpt>
      <trkpt lat="40.10528" lon="-1.77022">
        <ele>1124.6</ele>
        <time>2021-10-09 18:42:19</time>
      </trkpt>
      <trkpt lat="40.10525" lon="-1.77019">
        <ele>1124.6</ele>
        <time>2021-10-09 18:42:20</time>
      </trkpt>
      <trkpt lat="40.10521" lon="-1.77016">
        <ele>1124.4</ele>
        <time>2021-10-09 18:42:21</time>
      </trkpt>
      <trkpt lat="40.1052" lon="-1.77015">
        <ele>1124.4</ele>
        <time>2021-10-09 18:42:22</time>
      </trkpt>
      <trkpt lat="40.1052" lon="-1.77014">
        <ele>1124.4</ele>
        <time>2021-10-09 18:42:23</time>
      </trkpt>
      <trkpt lat="40.1052" lon="-1.77014">
        <ele>1124.4</ele>
        <time>2021-10-09 18:42:24</time>
      </trkpt>
      <trkpt lat="40.10521" lon="-1.77015">
        <ele>1124.6</ele>
        <time>2021-10-09 18:42:25</time>
      </trkpt>
      <trkpt lat="40.10521" lon="-1.77015">
        <ele>1124.6</ele>
        <time>2021-10-09 18:42:26</time>
      </trkpt>
      <trkpt lat="40.10519" lon="-1.77013">
        <ele>1124.6</ele>
        <time>2021-10-09 18:42:27</time>
      </trkpt>
      <trkpt lat="40.10518" lon="-1.77012">
        <ele>1124.6</ele>
        <time>2021-10-09 18:42:28</time>
      </trkpt>
      <trkpt lat="40.10516" lon="-1.7701">
        <ele>1124.6</ele>
        <time>2021-10-09 18:42:29</time>
      </trkpt>
      <trkpt lat="40.10514" lon="-1.77009">
        <ele>1124.6</ele>
        <time>2021-10-09 18:42:30</time>
      </trkpt>
      <trkpt lat="40.10511" lon="-1.77008">
        <ele>1124.6</ele>
        <time>2021-10-09 18:42:31</time>
      </trkpt>
      <trkpt lat="40.10508" lon="-1.77007">
        <ele>1124.6</ele>
        <time>2021-10-09 18:42:32</time>
      </trkpt>
      <trkpt lat="40.10505" lon="-1.77005">
        <ele>1124.6</ele>
        <time>2021-10-09 18:42:33</time>
      </trkpt>
      <trkpt lat="40.10503" lon="-1.77004">
        <ele>1124.6</ele>
        <time>2021-10-09 18:42:34</time>
      </trkpt>
      <trkpt lat="40.105" lon="-1.77002">
        <ele>1124.6</ele>
        <time>2021-10-09 18:42:35</time>
      </trkpt>
      <trkpt lat="40.10498" lon="-1.76999">
        <ele>1124.4</ele>
        <time>2021-10-09 18:42:36</time>
      </trkpt>
      <trkpt lat="40.10496" lon="-1.76996">
        <ele>1124.4</ele>
        <time>2021-10-09 18:42:37</time>
      </trkpt>
      <trkpt lat="40.10493" lon="-1.76995">
        <ele>1124.4</ele>
        <time>2021-10-09 18:42:38</time>
      </trkpt>
      <trkpt lat="40.1049" lon="-1.76994">
        <ele>1124.4</ele>
        <time>2021-10-09 18:42:39</time>
      </trkpt>
      <trkpt lat="40.10486" lon="-1.76993">
        <ele>1124.2</ele>
        <time>2021-10-09 18:42:40</time>
      </trkpt>
      <trkpt lat="40.10483" lon="-1.76992">
        <ele>1124.2</ele>
        <time>2021-10-09 18:42:43</time>
      </trkpt>
      <trkpt lat="40.1048" lon="-1.76991">
        <ele>1124.2</ele>
        <time>2021-10-09 18:42:44</time>
      </trkpt>
      <trkpt lat="40.10478" lon="-1.76989">
        <ele>1123.8</ele>
        <time>2021-10-09 18:42:45</time>
      </trkpt>
      <trkpt lat="40.10475" lon="-1.76987">
        <ele>1123.8</ele>
        <time>2021-10-09 18:42:46</time>
      </trkpt>
      <trkpt lat="40.10473" lon="-1.76984">
        <ele>1123.8</ele>
        <time>2021-10-09 18:42:47</time>
      </trkpt>
      <trkpt lat="40.1047" lon="-1.76982">
        <ele>1123.8</ele>
        <time>2021-10-09 18:42:48</time>
      </trkpt>
      <trkpt lat="40.10468" lon="-1.76981">
        <ele>1123.8</ele>
        <time>2021-10-09 18:42:49</time>
      </trkpt>
      <trkpt lat="40.10465" lon="-1.76981">
        <ele>1123.8</ele>
        <time>2021-10-09 18:42:50</time>
      </trkpt>
      <trkpt lat="40.1046" lon="-1.7698">
        <ele>1123.8</ele>
        <time>2021-10-09 18:42:51</time>
      </trkpt>
      <trkpt lat="40.10456" lon="-1.76978">
        <ele>1123.8</ele>
        <time>2021-10-09 18:42:52</time>
      </trkpt>
      <trkpt lat="40.10452" lon="-1.76975">
        <ele>1123.8</ele>
        <time>2021-10-09 18:42:53</time>
      </trkpt>
      <trkpt lat="40.10448" lon="-1.76974">
        <ele>1123.8</ele>
        <time>2021-10-09 18:42:54</time>
      </trkpt>
      <trkpt lat="40.10444" lon="-1.76972">
        <ele>1123.6</ele>
        <time>2021-10-09 18:42:55</time>
      </trkpt>
      <trkpt lat="40.1044" lon="-1.7697">
        <ele>1123.6</ele>
        <time>2021-10-09 18:42:56</time>
      </trkpt>
      <trkpt lat="40.10435" lon="-1.76968">
        <ele>1123.6</ele>
        <time>2021-10-09 18:42:57</time>
      </trkpt>
      <trkpt lat="40.10431" lon="-1.76966">
        <ele>1123.6</ele>
        <time>2021-10-09 18:42:58</time>
      </trkpt>
      <trkpt lat="40.10427" lon="-1.76964">
        <ele>1123.6</ele>
        <time>2021-10-09 18:42:59</time>
      </trkpt>
      <trkpt lat="40.10423" lon="-1.76962">
        <ele>1123.4</ele>
        <time>2021-10-09 18:43:00</time>
      </trkpt>
      <trkpt lat="40.10419" lon="-1.7696">
        <ele>1123.4</ele>
        <time>2021-10-09 18:43:01</time>
      </trkpt>
      <trkpt lat="40.10415" lon="-1.76957">
        <ele>1123.4</ele>
        <time>2021-10-09 18:43:02</time>
      </trkpt>
      <trkpt lat="40.10412" lon="-1.76955">
        <ele>1123</ele>
        <time>2021-10-09 18:43:03</time>
      </trkpt>
      <trkpt lat="40.10409" lon="-1.76953">
        <ele>1123</ele>
        <time>2021-10-09 18:43:04</time>
      </trkpt>
      <trkpt lat="40.10405" lon="-1.76951">
        <ele>1123</ele>
        <time>2021-10-09 18:43:05</time>
      </trkpt>
      <trkpt lat="40.10402" lon="-1.76949">
        <ele>1122.8</ele>
        <time>2021-10-09 18:43:06</time>
      </trkpt>
      <trkpt lat="40.10398" lon="-1.76946">
        <ele>1122.8</ele>
        <time>2021-10-09 18:43:07</time>
      </trkpt>
      <trkpt lat="40.10395" lon="-1.76944">
        <ele>1122.8</ele>
        <time>2021-10-09 18:43:08</time>
      </trkpt>
      <trkpt lat="40.10391" lon="-1.76942">
        <ele>1122.8</ele>
        <time>2021-10-09 18:43:09</time>
      </trkpt>
      <trkpt lat="40.10387" lon="-1.7694">
        <ele>1122.6</ele>
        <time>2021-10-09 18:43:10</time>
      </trkpt>
      <trkpt lat="40.10384" lon="-1.76938">
        <ele>1122.6</ele>
        <time>2021-10-09 18:43:11</time>
      </trkpt>
      <trkpt lat="40.1038" lon="-1.76935">
        <ele>1122.6</ele>
        <time>2021-10-09 18:43:12</time>
      </trkpt>
      <trkpt lat="40.10377" lon="-1.76933">
        <ele>1122.6</ele>
        <time>2021-10-09 18:43:13</time>
      </trkpt>
      <trkpt lat="40.10373" lon="-1.76931">
        <ele>1122.6</ele>
        <time>2021-10-09 18:43:14</time>
      </trkpt>
      <trkpt lat="40.1037" lon="-1.7693">
        <ele>1122.6</ele>
        <time>2021-10-09 18:43:15</time>
      </trkpt>
      <trkpt lat="40.10367" lon="-1.76928">
        <ele>1122.4</ele>
        <time>2021-10-09 18:43:16</time>
      </trkpt>
      <trkpt lat="40.10363" lon="-1.76926">
        <ele>1122.4</ele>
        <time>2021-10-09 18:43:17</time>
      </trkpt>
      <trkpt lat="40.1036" lon="-1.76924">
        <ele>1122.4</ele>
        <time>2021-10-09 18:43:18</time>
      </trkpt>
      <trkpt lat="40.10357" lon="-1.76923">
        <ele>1122.4</ele>
        <time>2021-10-09 18:43:19</time>
      </trkpt>
      <trkpt lat="40.10354" lon="-1.76922">
        <ele>1122.4</ele>
        <time>2021-10-09 18:43:20</time>
      </trkpt>
      <trkpt lat="40.10352" lon="-1.76921">
        <ele>1122.4</ele>
        <time>2021-10-09 18:43:21</time>
      </trkpt>
      <trkpt lat="40.10351" lon="-1.76921">
        <ele>1122.4</ele>
        <time>2021-10-09 18:43:22</time>
      </trkpt>
      <trkpt lat="40.10351" lon="-1.76921">
        <ele>1122.4</ele>
        <time>2021-10-09 18:43:23</time>
      </trkpt>
      <trkpt lat="40.10351" lon="-1.76921">
        <ele>1122.4</ele>
        <time>2021-10-09 18:43:24</time>
      </trkpt>
      <trkpt lat="40.10351" lon="-1.76921">
        <ele>1122.6</ele>
        <time>2021-10-09 18:43:25</time>
      </trkpt>
      <trkpt lat="40.1035" lon="-1.76921">
        <ele>1122.6</ele>
        <time>2021-10-09 18:43:26</time>
      </trkpt>
      <trkpt lat="40.10349" lon="-1.7692">
        <ele>1122.6</ele>
        <time>2021-10-09 18:43:27</time>
      </trkpt>
      <trkpt lat="40.10348" lon="-1.76919">
        <ele>1122.6</ele>
        <time>2021-10-09 18:43:28</time>
      </trkpt>
      <trkpt lat="40.10348" lon="-1.76918">
        <ele>1122.6</ele>
        <time>2021-10-09 18:43:29</time>
      </trkpt>
      <trkpt lat="40.10349" lon="-1.76917">
        <ele>1122.6</ele>
        <time>2021-10-09 18:43:30</time>
      </trkpt>
      <trkpt lat="40.10349" lon="-1.76916">
        <ele>1122.6</ele>
        <time>2021-10-09 18:43:31</time>
      </trkpt>
      <trkpt lat="40.10351" lon="-1.76915">
        <ele>1122.6</ele>
        <time>2021-10-09 18:43:32</time>
      </trkpt>
      <trkpt lat="40.10352" lon="-1.76915">
        <ele>1122.6</ele>
        <time>2021-10-09 18:43:33</time>
      </trkpt>
      <trkpt lat="40.10352" lon="-1.76916">
        <ele>1122.8</ele>
        <time>2021-10-09 18:43:34</time>
      </trkpt>
      <trkpt lat="40.10353" lon="-1.76916">
        <ele>1122.8</ele>
        <time>2021-10-09 18:43:35</time>
      </trkpt>
      <trkpt lat="40.10354" lon="-1.76917">
        <ele>1122.8</ele>
        <time>2021-10-09 18:43:36</time>
      </trkpt>
      <trkpt lat="40.10355" lon="-1.76918">
        <ele>1122.8</ele>
        <time>2021-10-09 18:43:37</time>
      </trkpt>
      <trkpt lat="40.10355" lon="-1.76919">
        <ele>1122.8</ele>
        <time>2021-10-09 18:43:38</time>
      </trkpt>
      <trkpt lat="40.10356" lon="-1.76919">
        <ele>1122.8</ele>
        <time>2021-10-09 18:43:39</time>
      </trkpt>
      <trkpt lat="40.10357" lon="-1.76921">
        <ele>1122.8</ele>
        <time>2021-10-09 18:43:46</time>
      </trkpt>
      <trkpt lat="40.10358" lon="-1.76922">
        <ele>1122.6</ele>
        <time>2021-10-09 18:43:47</time>
      </trkpt>
      <trkpt lat="40.10357" lon="-1.76922">
        <ele>1122.6</ele>
        <time>2021-10-09 18:43:48</time>
      </trkpt>
      <trkpt lat="40.10357" lon="-1.76922">
        <ele>1122.6</ele>
        <time>2021-10-09 18:43:49</time>
      </trkpt>
      <trkpt lat="40.10356" lon="-1.76922">
        <ele>1122.6</ele>
        <time>2021-10-09 18:43:50</time>
      </trkpt>
      <trkpt lat="40.10355" lon="-1.76922">
        <ele>1122.6</ele>
        <time>2021-10-09 18:43:51</time>
      </trkpt>
      <trkpt lat="40.10354" lon="-1.76923">
        <ele>1122.6</ele>
        <time>2021-10-09 18:43:52</time>
      </trkpt>
      <trkpt lat="40.10352" lon="-1.76923">
        <ele>1122.6</ele>
        <time>2021-10-09 18:43:53</time>
      </trkpt>
      <trkpt lat="40.10352" lon="-1.76923">
        <ele>1122.6</ele>
        <time>2021-10-09 18:43:54</time>
      </trkpt>
      <trkpt lat="40.10351" lon="-1.76922">
        <ele>1122.6</ele>
        <time>2021-10-09 18:43:55</time>
      </trkpt>
      <trkpt lat="40.1035" lon="-1.7692">
        <ele>1122.6</ele>
        <time>2021-10-09 18:43:56</time>
      </trkpt>
      <trkpt lat="40.10348" lon="-1.76919">
        <ele>1122.6</ele>
        <time>2021-10-09 18:43:57</time>
      </trkpt>
      <trkpt lat="40.10346" lon="-1.76918">
        <ele>1122.6</ele>
        <time>2021-10-09 18:43:58</time>
      </trkpt>
      <trkpt lat="40.10343" lon="-1.76916">
        <ele>1122.6</ele>
        <time>2021-10-09 18:43:59</time>
      </trkpt>
      <trkpt lat="40.1034" lon="-1.76915">
        <ele>1122.6</ele>
        <time>2021-10-09 18:44:00</time>
      </trkpt>
      <trkpt lat="40.10336" lon="-1.76915">
        <ele>1122.6</ele>
        <time>2021-10-09 18:44:01</time>
      </trkpt>
      <trkpt lat="40.10332" lon="-1.76915">
        <ele>1122.6</ele>
        <time>2021-10-09 18:44:02</time>
      </trkpt>
      <trkpt lat="40.10328" lon="-1.76915">
        <ele>1122.6</ele>
        <time>2021-10-09 18:44:03</time>
      </trkpt>
      <trkpt lat="40.10324" lon="-1.76915">
        <ele>1122.6</ele>
        <time>2021-10-09 18:44:04</time>
      </trkpt>
      <trkpt lat="40.1032" lon="-1.76914">
        <ele>1122.6</ele>
        <time>2021-10-09 18:44:16</time>
      </trkpt>
      <trkpt lat="40.10316" lon="-1.76913">
        <ele>1122.6</ele>
        <time>2021-10-09 18:44:17</time>
      </trkpt>
      <trkpt lat="40.10313" lon="-1.76912">
        <ele>1122.6</ele>
        <time>2021-10-09 18:44:18</time>
      </trkpt>
      <trkpt lat="40.10309" lon="-1.76912">
        <ele>1122.6</ele>
        <time>2021-10-09 18:44:19</time>
      </trkpt>
      <trkpt lat="40.10306" lon="-1.76911">
        <ele>1122.6</ele>
        <time>2021-10-09 18:44:20</time>
      </trkpt>
      <trkpt lat="40.10302" lon="-1.7691">
        <ele>1122.6</ele>
        <time>2021-10-09 18:44:21</time>
      </trkpt>
      <trkpt lat="40.10299" lon="-1.7691">
        <ele>1122.6</ele>
        <time>2021-10-09 18:44:22</time>
      </trkpt>
      <trkpt lat="40.10296" lon="-1.76909">
        <ele>1122.6</ele>
        <time>2021-10-09 18:44:23</time>
      </trkpt>
      <trkpt lat="40.10293" lon="-1.76908">
        <ele>1122.6</ele>
        <time>2021-10-09 18:44:24</time>
      </trkpt>
      <trkpt lat="40.10289" lon="-1.76906">
        <ele>1122.6</ele>
        <time>2021-10-09 18:44:25</time>
      </trkpt>
      <trkpt lat="40.10285" lon="-1.76905">
        <ele>1122.4</ele>
        <time>2021-10-09 18:44:26</time>
      </trkpt>
      <trkpt lat="40.10281" lon="-1.76903">
        <ele>1122.4</ele>
        <time>2021-10-09 18:44:27</time>
      </trkpt>
      <trkpt lat="40.10277" lon="-1.76902">
        <ele>1122.4</ele>
        <time>2021-10-09 18:44:28</time>
      </trkpt>
      <trkpt lat="40.10272" lon="-1.769">
        <ele>1122.4</ele>
        <time>2021-10-09 18:44:29</time>
      </trkpt>
      <trkpt lat="40.10267" lon="-1.76899">
        <ele>1122.4</ele>
        <time>2021-10-09 18:44:30</time>
      </trkpt>
      <trkpt lat="40.10263" lon="-1.76897">
        <ele>1122.4</ele>
        <time>2021-10-09 18:44:31</time>
      </trkpt>
      <trkpt lat="40.10259" lon="-1.76896">
        <ele>1122.4</ele>
        <time>2021-10-09 18:44:32</time>
      </trkpt>
      <trkpt lat="40.10254" lon="-1.76894">
        <ele>1122.4</ele>
        <time>2021-10-09 18:44:33</time>
      </trkpt>
      <trkpt lat="40.10251" lon="-1.76892">
        <ele>1122.4</ele>
        <time>2021-10-09 18:44:34</time>
      </trkpt>
      <trkpt lat="40.10246" lon="-1.7689">
        <ele>1122.4</ele>
        <time>2021-10-09 18:44:35</time>
      </trkpt>
      <trkpt lat="40.10243" lon="-1.76886">
        <ele>1122.4</ele>
        <time>2021-10-09 18:44:36</time>
      </trkpt>
      <trkpt lat="40.1024" lon="-1.76884">
        <ele>1122.4</ele>
        <time>2021-10-09 18:44:37</time>
      </trkpt>
      <trkpt lat="40.10236" lon="-1.76882">
        <ele>1122.4</ele>
        <time>2021-10-09 18:44:38</time>
      </trkpt>
      <trkpt lat="40.10233" lon="-1.76879">
        <ele>1122.4</ele>
        <time>2021-10-09 18:44:39</time>
      </trkpt>
      <trkpt lat="40.10228" lon="-1.76876">
        <ele>1122.4</ele>
        <time>2021-10-09 18:44:40</time>
      </trkpt>
      <trkpt lat="40.10224" lon="-1.76874">
        <ele>1122.4</ele>
        <time>2021-10-09 18:44:41</time>
      </trkpt>
      <trkpt lat="40.10219" lon="-1.76872">
        <ele>1122.4</ele>
        <time>2021-10-09 18:44:42</time>
      </trkpt>
      <trkpt lat="40.10215" lon="-1.76869">
        <ele>1122.4</ele>
        <time>2021-10-09 18:44:43</time>
      </trkpt>
      <trkpt lat="40.10211" lon="-1.76867">
        <ele>1122.4</ele>
        <time>2021-10-09 18:44:44</time>
      </trkpt>
      <trkpt lat="40.10207" lon="-1.76867">
        <ele>1122.4</ele>
        <time>2021-10-09 18:44:45</time>
      </trkpt>
      <trkpt lat="40.10202" lon="-1.76865">
        <ele>1122.4</ele>
        <time>2021-10-09 18:44:46</time>
      </trkpt>
      <trkpt lat="40.10198" lon="-1.76864">
        <ele>1122.2</ele>
        <time>2021-10-09 18:44:47</time>
      </trkpt>
      <trkpt lat="40.10193" lon="-1.76861">
        <ele>1122.2</ele>
        <time>2021-10-09 18:44:48</time>
      </trkpt>
      <trkpt lat="40.1019" lon="-1.76858">
        <ele>1122.2</ele>
        <time>2021-10-09 18:44:49</time>
      </trkpt>
      <trkpt lat="40.10188" lon="-1.76853">
        <ele>1122.2</ele>
        <time>2021-10-09 18:44:50</time>
      </trkpt>
      <trkpt lat="40.10186" lon="-1.76849">
        <ele>1122</ele>
        <time>2021-10-09 18:44:51</time>
      </trkpt>
      <trkpt lat="40.10185" lon="-1.76846">
        <ele>1122</ele>
        <time>2021-10-09 18:44:52</time>
      </trkpt>
      <trkpt lat="40.10183" lon="-1.76843">
        <ele>1122</ele>
        <time>2021-10-09 18:44:53</time>
      </trkpt>
      <trkpt lat="40.10181" lon="-1.76839">
        <ele>1122.2</ele>
        <time>2021-10-09 18:44:54</time>
      </trkpt>
      <trkpt lat="40.1018" lon="-1.76837">
        <ele>1122.2</ele>
        <time>2021-10-09 18:44:55</time>
      </trkpt>
      <trkpt lat="40.10178" lon="-1.76834">
        <ele>1122.4</ele>
        <time>2021-10-09 18:44:56</time>
      </trkpt>
      <trkpt lat="40.10175" lon="-1.76832">
        <ele>1122.4</ele>
        <time>2021-10-09 18:44:57</time>
      </trkpt>
      <trkpt lat="40.10173" lon="-1.76831">
        <ele>1122.6</ele>
        <time>2021-10-09 18:44:58</time>
      </trkpt>
      <trkpt lat="40.1017" lon="-1.7683">
        <ele>1122.6</ele>
        <time>2021-10-09 18:44:59</time>
      </trkpt>
      <trkpt lat="40.10169" lon="-1.76829">
        <ele>1122.8</ele>
        <time>2021-10-09 18:45:00</time>
      </trkpt>
      <trkpt lat="40.10167" lon="-1.76827">
        <ele>1122.8</ele>
        <time>2021-10-09 18:45:01</time>
      </trkpt>
      <trkpt lat="40.10165" lon="-1.76825">
        <ele>1123</ele>
        <time>2021-10-09 18:45:02</time>
      </trkpt>
      <trkpt lat="40.10163" lon="-1.76823">
        <ele>1123</ele>
        <time>2021-10-09 18:45:03</time>
      </trkpt>
      <trkpt lat="40.10162" lon="-1.7682">
        <ele>1123.4</ele>
        <time>2021-10-09 18:45:04</time>
      </trkpt>
      <trkpt lat="40.1016" lon="-1.76817">
        <ele>1123.4</ele>
        <time>2021-10-09 18:45:05</time>
      </trkpt>
      <trkpt lat="40.1016" lon="-1.76815">
        <ele>1123.6</ele>
        <time>2021-10-09 18:45:06</time>
      </trkpt>
      <trkpt lat="40.10159" lon="-1.76812">
        <ele>1123.6</ele>
        <time>2021-10-09 18:45:07</time>
      </trkpt>
      <trkpt lat="40.10158" lon="-1.76809">
        <ele>1123.6</ele>
        <time>2021-10-09 18:45:08</time>
      </trkpt>
      <trkpt lat="40.10156" lon="-1.76807">
        <ele>1124</ele>
        <time>2021-10-09 18:45:09</time>
      </trkpt>
      <trkpt lat="40.10154" lon="-1.76805">
        <ele>1124</ele>
        <time>2021-10-09 18:45:10</time>
      </trkpt>
      <trkpt lat="40.10151" lon="-1.76803">
        <ele>1124</ele>
        <time>2021-10-09 18:45:11</time>
      </trkpt>
      <trkpt lat="40.10149" lon="-1.76801">
        <ele>1124.2</ele>
        <time>2021-10-09 18:45:12</time>
      </trkpt>
      <trkpt lat="40.10147" lon="-1.768">
        <ele>1124.2</ele>
        <time>2021-10-09 18:45:13</time>
      </trkpt>
      <trkpt lat="40.10144" lon="-1.76798">
        <ele>1124.2</ele>
        <time>2021-10-09 18:45:14</time>
      </trkpt>
      <trkpt lat="40.10141" lon="-1.76796">
        <ele>1124.2</ele>
        <time>2021-10-09 18:45:15</time>
      </trkpt>
      <trkpt lat="40.10139" lon="-1.76794">
        <ele>1124.2</ele>
        <time>2021-10-09 18:45:16</time>
      </trkpt>
      <trkpt lat="40.10137" lon="-1.76792">
        <ele>1124.2</ele>
        <time>2021-10-09 18:45:17</time>
      </trkpt>
      <trkpt lat="40.10136" lon="-1.7679">
        <ele>1124.2</ele>
        <time>2021-10-09 18:45:18</time>
      </trkpt>
      <trkpt lat="40.10135" lon="-1.7679">
        <ele>1124.2</ele>
        <time>2021-10-09 18:45:19</time>
      </trkpt>
      <trkpt lat="40.10134" lon="-1.76791">
        <ele>1124.2</ele>
        <time>2021-10-09 18:45:20</time>
      </trkpt>
      <trkpt lat="40.10134" lon="-1.76793">
        <ele>1124.2</ele>
        <time>2021-10-09 18:45:21</time>
      </trkpt>
      <trkpt lat="40.10134" lon="-1.76796">
        <ele>1124.2</ele>
        <time>2021-10-09 18:45:22</time>
      </trkpt>
      <trkpt lat="40.10135" lon="-1.76801">
        <ele>1124.2</ele>
        <time>2021-10-09 18:45:23</time>
      </trkpt>
      <trkpt lat="40.10136" lon="-1.76806">
        <ele>1124.2</ele>
        <time>2021-10-09 18:45:24</time>
      </trkpt>
      <trkpt lat="40.10137" lon="-1.76811">
        <ele>1124</ele>
        <time>2021-10-09 18:45:25</time>
      </trkpt>
      <trkpt lat="40.10138" lon="-1.76816">
        <ele>1124</ele>
        <time>2021-10-09 18:45:26</time>
      </trkpt>
      <trkpt lat="40.10139" lon="-1.76822">
        <ele>1123.6</ele>
        <time>2021-10-09 18:45:27</time>
      </trkpt>
      <trkpt lat="40.10139" lon="-1.76826">
        <ele>1123.4</ele>
        <time>2021-10-09 18:45:28</time>
      </trkpt>
      <trkpt lat="40.10139" lon="-1.76829">
        <ele>1123.4</ele>
        <time>2021-10-09 18:45:29</time>
      </trkpt>
      <trkpt lat="40.10139" lon="-1.76832">
        <ele>1123</ele>
        <time>2021-10-09 18:45:30</time>
      </trkpt>
      <trkpt lat="40.10139" lon="-1.76834">
        <ele>1123</ele>
        <time>2021-10-09 18:45:31</time>
      </trkpt>
      <trkpt lat="40.1014" lon="-1.76836">
        <ele>1122.6</ele>
        <time>2021-10-09 18:45:32</time>
      </trkpt>
      <trkpt lat="40.1014" lon="-1.76837">
        <ele>1122.6</ele>
        <time>2021-10-09 18:45:33</time>
      </trkpt>
      <trkpt lat="40.1014" lon="-1.76837">
        <ele>1122.4</ele>
        <time>2021-10-09 18:45:34</time>
      </trkpt>
      <trkpt lat="40.1014" lon="-1.76837">
        <ele>1122.4</ele>
        <time>2021-10-09 18:45:35</time>
      </trkpt>
      <trkpt lat="40.10141" lon="-1.76836">
        <ele>1122</ele>
        <time>2021-10-09 18:45:36</time>
      </trkpt>
      <trkpt lat="40.1014" lon="-1.76834">
        <ele>1122</ele>
        <time>2021-10-09 18:45:37</time>
      </trkpt>
      <trkpt lat="40.1014" lon="-1.76833">
        <ele>1122</ele>
        <time>2021-10-09 18:45:38</time>
      </trkpt>
      <trkpt lat="40.1014" lon="-1.76832">
        <ele>1122</ele>
        <time>2021-10-09 18:45:39</time>
      </trkpt>
      <trkpt lat="40.1014" lon="-1.76831">
        <ele>1122</ele>
        <time>2021-10-09 18:45:40</time>
      </trkpt>
      <trkpt lat="40.1014" lon="-1.7683">
        <ele>1122</ele>
        <time>2021-10-09 18:45:41</time>
      </trkpt>
      <trkpt lat="40.1014" lon="-1.76829">
        <ele>1122</ele>
        <time>2021-10-09 18:45:42</time>
      </trkpt>
      <trkpt lat="40.1014" lon="-1.76828">
        <ele>1122</ele>
        <time>2021-10-09 18:45:43</time>
      </trkpt>
      <trkpt lat="40.1014" lon="-1.76826">
        <ele>1122</ele>
        <time>2021-10-09 18:45:44</time>
      </trkpt>
      <trkpt lat="40.1014" lon="-1.76825">
        <ele>1122</ele>
        <time>2021-10-09 18:45:45</time>
      </trkpt>
      <trkpt lat="40.10139" lon="-1.76824">
        <ele>1122</ele>
        <time>2021-10-09 18:45:46</time>
      </trkpt>
      <trkpt lat="40.10139" lon="-1.76824">
        <ele>1122</ele>
        <time>2021-10-09 18:45:47</time>
      </trkpt>
      <trkpt lat="40.10138" lon="-1.76824">
        <ele>1122</ele>
        <time>2021-10-09 18:45:48</time>
      </trkpt>
      <trkpt lat="40.10138" lon="-1.76824">
        <ele>1122</ele>
        <time>2021-10-09 18:45:49</time>
      </trkpt>
      <trkpt lat="40.10137" lon="-1.76825">
        <ele>1122.4</ele>
        <time>2021-10-09 18:45:55</time>
      </trkpt>
      <trkpt lat="40.10137" lon="-1.76826">
        <ele>1122.4</ele>
        <time>2021-10-09 18:45:56</time>
      </trkpt>
      <trkpt lat="40.10137" lon="-1.76827">
        <ele>1122.4</ele>
        <time>2021-10-09 18:45:57</time>
      </trkpt>
      <trkpt lat="40.10137" lon="-1.76828">
        <ele>1122.4</ele>
        <time>2021-10-09 18:45:58</time>
      </trkpt>
      <trkpt lat="40.10138" lon="-1.76829">
        <ele>1122.4</ele>
        <time>2021-10-09 18:45:59</time>
      </trkpt>
      <trkpt lat="40.10138" lon="-1.76829">
        <ele>1122.4</ele>
        <time>2021-10-09 18:46:00</time>
      </trkpt>
      <trkpt lat="40.10138" lon="-1.76829">
        <ele>1122.4</ele>
        <time>2021-10-09 18:46:01</time>
      </trkpt>
      <trkpt lat="40.1014" lon="-1.7683">
        <ele>1122.4</ele>
        <time>2021-10-09 18:46:02</time>
      </trkpt>
      <trkpt lat="40.1014" lon="-1.76831">
        <ele>1122.4</ele>
        <time>2021-10-09 18:46:03</time>
      </trkpt>
      <trkpt lat="40.1014" lon="-1.76831">
        <ele>1122.4</ele>
        <time>2021-10-09 18:46:04</time>
      </trkpt>
      <trkpt lat="40.1014" lon="-1.76831">
        <ele>1122.4</ele>
        <time>2021-10-09 18:46:05</time>
      </trkpt>
      <trkpt lat="40.10131" lon="-1.76831">
        <ele>1122.8</ele>
        <time>2021-10-09 18:46:06</time>
      </trkpt>
      <trkpt lat="40.10131" lon="-1.76831">
        <ele>1122.6</ele>
        <time>2021-10-09 18:46:07</time>
      </trkpt>
      <trkpt lat="40.10132" lon="-1.76832">
        <ele>1122.6</ele>
        <time>2021-10-09 18:46:08</time>
      </trkpt>
      <trkpt lat="40.10133" lon="-1.76834">
        <ele>1122.2</ele>
        <time>2021-10-09 18:46:47</time>
      </trkpt>
      <trkpt lat="40.10133" lon="-1.76835">
        <ele>1122.2</ele>
        <time>2021-10-09 18:46:48</time>
      </trkpt>
      <trkpt lat="40.10134" lon="-1.76836">
        <ele>1122.2</ele>
        <time>2021-10-09 18:46:49</time>
      </trkpt>
      <trkpt lat="40.10134" lon="-1.76837">
        <ele>1122.2</ele>
        <time>2021-10-09 18:46:50</time>
      </trkpt>
      <trkpt lat="40.10134" lon="-1.76838">
        <ele>1122.2</ele>
        <time>2021-10-09 18:46:51</time>
      </trkpt>
      <trkpt lat="40.10134" lon="-1.76839">
        <ele>1122.2</ele>
        <time>2021-10-09 18:46:52</time>
      </trkpt>
      <trkpt lat="40.10134" lon="-1.76839">
        <ele>1122.2</ele>
        <time>2021-10-09 18:46:53</time>
      </trkpt>
      <trkpt lat="40.10134" lon="-1.7684">
        <ele>1122.2</ele>
        <time>2021-10-09 18:46:56</time>
      </trkpt>
      <trkpt lat="40.10137" lon="-1.76843">
        <ele>1122.2</ele>
        <time>2021-10-09 18:46:57</time>
      </trkpt>
      <trkpt lat="40.10137" lon="-1.76844">
        <ele>1122.2</ele>
        <time>2021-10-09 18:46:58</time>
      </trkpt>
      <trkpt lat="40.10136" lon="-1.76844">
        <ele>1122.2</ele>
        <time>2021-10-09 18:46:59</time>
      </trkpt>
      <trkpt lat="40.10137" lon="-1.76842">
        <ele>1122</ele>
        <time>2021-10-09 19:04:28</time>
      </trkpt>
      <trkpt lat="40.10137" lon="-1.76843">
        <ele>1122</ele>
        <time>2021-10-09 19:04:29</time>
      </trkpt>
      <trkpt lat="40.10137" lon="-1.76843">
        <ele>1122</ele>
        <time>2021-10-09 19:04:30</time>
      </trkpt>
      <trkpt lat="40.10137" lon="-1.76844">
        <ele>1122</ele>
        <time>2021-10-09 19:04:31</time>
      </trkpt>
      <trkpt lat="40.10137" lon="-1.76843">
        <ele>1121.8</ele>
        <time>2021-10-09 19:04:32</time>
      </trkpt>
      <trkpt lat="40.10136" lon="-1.76842">
        <ele>1121.8</ele>
        <time>2021-10-09 19:04:33</time>
      </trkpt>
      <trkpt lat="40.10135" lon="-1.76841">
        <ele>1121.8</ele>
        <time>2021-10-09 19:04:36</time>
      </trkpt>
      <trkpt lat="40.10135" lon="-1.7684">
        <ele>1121.8</ele>
        <time>2021-10-09 19:04:37</time>
      </trkpt>
      <trkpt lat="40.10135" lon="-1.76839">
        <ele>1121.8</ele>
        <time>2021-10-09 19:04:38</time>
      </trkpt>
      <trkpt lat="40.10135" lon="-1.76839">
        <ele>1121.8</ele>
        <time>2021-10-09 19:04:39</time>
      </trkpt>
      <trkpt lat="40.10135" lon="-1.76839">
        <ele>1121.8</ele>
        <time>2021-10-09 19:04:40</time>
      </trkpt>
      <trkpt lat="40.10135" lon="-1.76837">
        <ele>1121.8</ele>
        <time>2021-10-09 19:04:41</time>
      </trkpt>
      <trkpt lat="40.10136" lon="-1.76835">
        <ele>1121.8</ele>
        <time>2021-10-09 19:04:42</time>
      </trkpt>
      <trkpt lat="40.10136" lon="-1.76833">
        <ele>1121.8</ele>
        <time>2021-10-09 19:04:43</time>
      </trkpt>
      <trkpt lat="40.10137" lon="-1.7683">
        <ele>1121.8</ele>
        <time>2021-10-09 19:06:53</time>
      </trkpt>
      <trkpt lat="40.10137" lon="-1.76827">
        <ele>1122</ele>
        <time>2021-10-09 19:06:54</time>
      </trkpt>
      <trkpt lat="40.10137" lon="-1.76825">
        <ele>1122</ele>
        <time>2021-10-09 19:06:55</time>
      </trkpt>
      <trkpt lat="40.10137" lon="-1.76822">
        <ele>1122.2</ele>
        <time>2021-10-09 19:06:56</time>
      </trkpt>
      <trkpt lat="40.10137" lon="-1.7682">
        <ele>1122.2</ele>
        <time>2021-10-09 19:07:43</time>
      </trkpt>
      <trkpt lat="40.10136" lon="-1.76817">
        <ele>1122.4</ele>
        <time>2021-10-09 19:07:44</time>
      </trkpt>
      <trkpt lat="40.10136" lon="-1.76814">
        <ele>1122.4</ele>
        <time>2021-10-09 19:07:45</time>
      </trkpt>
      <trkpt lat="40.10137" lon="-1.76811">
        <ele>1122.8</ele>
        <time>2021-10-09 19:07:46</time>
      </trkpt>
      <trkpt lat="40.10137" lon="-1.76809">
        <ele>1122.8</ele>
        <time>2021-10-09 19:07:57</time>
      </trkpt>
      <trkpt lat="40.10137" lon="-1.76807">
        <ele>1123.2</ele>
        <time>2021-10-09 19:07:58</time>
      </trkpt>
      <trkpt lat="40.10136" lon="-1.76804">
        <ele>1123.2</ele>
        <time>2021-10-09 19:07:59</time>
      </trkpt>
      <trkpt lat="40.10136" lon="-1.76802">
        <ele>1123.4</ele>
        <time>2021-10-09 19:08:00</time>
      </trkpt>
      <trkpt lat="40.10135" lon="-1.76801">
        <ele>1123.6</ele>
        <time>2021-10-09 19:08:01</time>
      </trkpt>
      <trkpt lat="40.10135" lon="-1.76798">
        <ele>1123.6</ele>
        <time>2021-10-09 19:08:02</time>
      </trkpt>
      <trkpt lat="40.10134" lon="-1.76796">
        <ele>1124</ele>
        <time>2021-10-09 19:08:03</time>
      </trkpt>
      <trkpt lat="40.10134" lon="-1.76794">
        <ele>1124</ele>
        <time>2021-10-09 19:08:16</time>
      </trkpt>
      <trkpt lat="40.10133" lon="-1.76791">
        <ele>1124.4</ele>
        <time>2021-10-09 19:08:17</time>
      </trkpt>
      <trkpt lat="40.10133" lon="-1.76789">
        <ele>1124.6</ele>
        <time>2021-10-09 19:08:18</time>
      </trkpt>
      <trkpt lat="40.10132" lon="-1.76786">
        <ele>1124.6</ele>
        <time>2021-10-09 19:08:19</time>
      </trkpt>
      <trkpt lat="40.10132" lon="-1.76784">
        <ele>1125</ele>
        <time>2021-10-09 19:08:20</time>
      </trkpt>
      <trkpt lat="40.10131" lon="-1.76781">
        <ele>1125</ele>
        <time>2021-10-09 19:08:21</time>
      </trkpt>
      <trkpt lat="40.10131" lon="-1.76778">
        <ele>1125.2</ele>
        <time>2021-10-09 19:08:22</time>
      </trkpt>
      <trkpt lat="40.1013" lon="-1.76775">
        <ele>1125.2</ele>
        <time>2021-10-09 19:08:23</time>
      </trkpt>
      <trkpt lat="40.10129" lon="-1.76773">
        <ele>1125.6</ele>
        <time>2021-10-09 19:08:24</time>
      </trkpt>
      <trkpt lat="40.10129" lon="-1.76771">
        <ele>1125.6</ele>
        <time>2021-10-09 19:08:25</time>
      </trkpt>
      <trkpt lat="40.10128" lon="-1.76768">
        <ele>1126</ele>
        <time>2021-10-09 19:08:26</time>
      </trkpt>
      <trkpt lat="40.10127" lon="-1.76765">
        <ele>1126</ele>
        <time>2021-10-09 19:08:27</time>
      </trkpt>
      <trkpt lat="40.10127" lon="-1.76762">
        <ele>1126.2</ele>
        <time>2021-10-09 19:08:28</time>
      </trkpt>
      <trkpt lat="40.10126" lon="-1.76759">
        <ele>1126.2</ele>
        <time>2021-10-09 19:08:29</time>
      </trkpt>
      <trkpt lat="40.10125" lon="-1.76756">
        <ele>1126.4</ele>
        <time>2021-10-09 19:08:30</time>
      </trkpt>
      <trkpt lat="40.10124" lon="-1.76753">
        <ele>1126.4</ele>
        <time>2021-10-09 19:08:31</time>
      </trkpt>
      <trkpt lat="40.10122" lon="-1.76751">
        <ele>1126.8</ele>
        <time>2021-10-09 19:08:32</time>
      </trkpt>
      <trkpt lat="40.10121" lon="-1.76748">
        <ele>1126.8</ele>
        <time>2021-10-09 19:08:33</time>
      </trkpt>
      <trkpt lat="40.1012" lon="-1.76745">
        <ele>1127</ele>
        <time>2021-10-09 19:08:34</time>
      </trkpt>
      <trkpt lat="40.10118" lon="-1.76742">
        <ele>1127</ele>
        <time>2021-10-09 19:08:35</time>
      </trkpt>
      <trkpt lat="40.10117" lon="-1.76739">
        <ele>1127</ele>
        <time>2021-10-09 19:08:36</time>
      </trkpt>
      <trkpt lat="40.10117" lon="-1.76735">
        <ele>1127</ele>
        <time>2021-10-09 19:08:37</time>
      </trkpt>
      <trkpt lat="40.10117" lon="-1.76731">
        <ele>1127.2</ele>
        <time>2021-10-09 19:08:38</time>
      </trkpt>
      <trkpt lat="40.10117" lon="-1.76727">
        <ele>1127.2</ele>
        <time>2021-10-09 19:08:39</time>
      </trkpt>
      <trkpt lat="40.10116" lon="-1.76723">
        <ele>1127.2</ele>
        <time>2021-10-09 19:08:40</time>
      </trkpt>
      <trkpt lat="40.10115" lon="-1.7672">
        <ele>1127.2</ele>
        <time>2021-10-09 19:08:41</time>
      </trkpt>
      <trkpt lat="40.10114" lon="-1.76717">
        <ele>1127.2</ele>
        <time>2021-10-09 19:08:42</time>
      </trkpt>
      <trkpt lat="40.10113" lon="-1.76715">
        <ele>1127.2</ele>
        <time>2021-10-09 19:08:43</time>
      </trkpt>
      <trkpt lat="40.10112" lon="-1.76711">
        <ele>1127.2</ele>
        <time>2021-10-09 19:08:44</time>
      </trkpt>
      <trkpt lat="40.10111" lon="-1.76706">
        <ele>1127.2</ele>
        <time>2021-10-09 19:08:45</time>
      </trkpt>
      <trkpt lat="40.1011" lon="-1.76702">
        <ele>1127.2</ele>
        <time>2021-10-09 19:08:46</time>
      </trkpt>
      <trkpt lat="40.10109" lon="-1.76698">
        <ele>1127.2</ele>
        <time>2021-10-09 19:08:47</time>
      </trkpt>
      <trkpt lat="40.10108" lon="-1.76693">
        <ele>1127.2</ele>
        <time>2021-10-09 19:08:48</time>
      </trkpt>
      <trkpt lat="40.10106" lon="-1.76688">
        <ele>1127.2</ele>
        <time>2021-10-09 19:08:49</time>
      </trkpt>
      <trkpt lat="40.10104" lon="-1.76683">
        <ele>1126.8</ele>
        <time>2021-10-09 19:08:50</time>
      </trkpt>
      <trkpt lat="40.10101" lon="-1.76676">
        <ele>1126.8</ele>
        <time>2021-10-09 19:08:51</time>
      </trkpt>
      <trkpt lat="40.10099" lon="-1.76669">
        <ele>1126.6</ele>
        <time>2021-10-09 19:08:52</time>
      </trkpt>
      <trkpt lat="40.10097" lon="-1.76662">
        <ele>1126.6</ele>
        <time>2021-10-09 19:08:53</time>
      </trkpt>
      <trkpt lat="40.10094" lon="-1.76657">
        <ele>1126.4</ele>
        <time>2021-10-09 19:08:54</time>
      </trkpt>
      <trkpt lat="40.1009" lon="-1.7665">
        <ele>1126.4</ele>
        <time>2021-10-09 19:08:55</time>
      </trkpt>
      <trkpt lat="40.10087" lon="-1.76646">
        <ele>1126</ele>
        <time>2021-10-09 19:08:56</time>
      </trkpt>
      <trkpt lat="40.10082" lon="-1.76642">
        <ele>1126</ele>
        <time>2021-10-09 19:08:57</time>
      </trkpt>
      <trkpt lat="40.10078" lon="-1.76638">
        <ele>1125.8</ele>
        <time>2021-10-09 19:08:58</time>
      </trkpt>
      <trkpt lat="40.10073" lon="-1.76635">
        <ele>1125.8</ele>
        <time>2021-10-09 19:08:59</time>
      </trkpt>
      <trkpt lat="40.10068" lon="-1.76631">
        <ele>1125.4</ele>
        <time>2021-10-09 19:09:00</time>
      </trkpt>
      <trkpt lat="40.10063" lon="-1.76629">
        <ele>1125.2</ele>
        <time>2021-10-09 19:09:01</time>
      </trkpt>
      <trkpt lat="40.10056" lon="-1.76627">
        <ele>1125</ele>
        <time>2021-10-09 19:09:02</time>
      </trkpt>
      <trkpt lat="40.1005" lon="-1.76624">
        <ele>1124.6</ele>
        <time>2021-10-09 19:09:03</time>
      </trkpt>
      <trkpt lat="40.10042" lon="-1.76623">
        <ele>1124.4</ele>
        <time>2021-10-09 19:09:04</time>
      </trkpt>
      <trkpt lat="40.10033" lon="-1.76626">
        <ele>1124.2</ele>
        <time>2021-10-09 19:09:05</time>
      </trkpt>
      <trkpt lat="40.10025" lon="-1.76626">
        <ele>1124</ele>
        <time>2021-10-09 19:09:06</time>
      </trkpt>
      <trkpt lat="40.10017" lon="-1.76624">
        <ele>1123.6</ele>
        <time>2021-10-09 19:09:07</time>
      </trkpt>
      <trkpt lat="40.10009" lon="-1.76622">
        <ele>1123.4</ele>
        <time>2021-10-09 19:09:08</time>
      </trkpt>
      <trkpt lat="40.10002" lon="-1.7662">
        <ele>1123.4</ele>
        <time>2021-10-09 19:09:09</time>
      </trkpt>
      <trkpt lat="40.09996" lon="-1.76616">
        <ele>1123.2</ele>
        <time>2021-10-09 19:09:10</time>
      </trkpt>
      <trkpt lat="40.09991" lon="-1.76611">
        <ele>1123.2</ele>
        <time>2021-10-09 19:09:11</time>
      </trkpt>
      <trkpt lat="40.09987" lon="-1.76606">
        <ele>1123.2</ele>
        <time>2021-10-09 19:09:12</time>
      </trkpt>
      <trkpt lat="40.09983" lon="-1.76599">
        <ele>1123</ele>
        <time>2021-10-09 19:09:13</time>
      </trkpt>
      <trkpt lat="40.09981" lon="-1.76594">
        <ele>1123</ele>
        <time>2021-10-09 19:09:14</time>
      </trkpt>
      <trkpt lat="40.09979" lon="-1.76589">
        <ele>1123</ele>
        <time>2021-10-09 19:09:15</time>
      </trkpt>
      <trkpt lat="40.09977" lon="-1.76583">
        <ele>1123.2</ele>
        <time>2021-10-09 19:09:16</time>
      </trkpt>
      <trkpt lat="40.09975" lon="-1.76578">
        <ele>1123.2</ele>
        <time>2021-10-09 19:09:17</time>
      </trkpt>
      <trkpt lat="40.09974" lon="-1.76572">
        <ele>1123.4</ele>
        <time>2021-10-09 19:09:18</time>
      </trkpt>
      <trkpt lat="40.09974" lon="-1.76566">
        <ele>1123.4</ele>
        <time>2021-10-09 19:09:19</time>
      </trkpt>
      <trkpt lat="40.09973" lon="-1.76561">
        <ele>1123.6</ele>
        <time>2021-10-09 19:09:20</time>
      </trkpt>
      <trkpt lat="40.09973" lon="-1.76555">
        <ele>1123.6</ele>
        <time>2021-10-09 19:09:21</time>
      </trkpt>
      <trkpt lat="40.09972" lon="-1.76551">
        <ele>1124</ele>
        <time>2021-10-09 19:09:22</time>
      </trkpt>
      <trkpt lat="40.09972" lon="-1.76546">
        <ele>1124</ele>
        <time>2021-10-09 19:09:23</time>
      </trkpt>
      <trkpt lat="40.09971" lon="-1.76542">
        <ele>1124.2</ele>
        <time>2021-10-09 19:09:24</time>
      </trkpt>
      <trkpt lat="40.0997" lon="-1.76537">
        <ele>1124.2</ele>
        <time>2021-10-09 19:09:25</time>
      </trkpt>
      <trkpt lat="40.0997" lon="-1.76532">
        <ele>1124.4</ele>
        <time>2021-10-09 19:09:26</time>
      </trkpt>
      <trkpt lat="40.0997" lon="-1.76527">
        <ele>1124.4</ele>
        <time>2021-10-09 19:09:27</time>
      </trkpt>
      <trkpt lat="40.09969" lon="-1.76522">
        <ele>1124.8</ele>
        <time>2021-10-09 19:09:28</time>
      </trkpt>
      <trkpt lat="40.09969" lon="-1.76516">
        <ele>1124.8</ele>
        <time>2021-10-09 19:09:29</time>
      </trkpt>
      <trkpt lat="40.09969" lon="-1.76511">
        <ele>1125</ele>
        <time>2021-10-09 19:09:30</time>
      </trkpt>
      <trkpt lat="40.09968" lon="-1.76506">
        <ele>1125</ele>
        <time>2021-10-09 19:09:31</time>
      </trkpt>
      <trkpt lat="40.09968" lon="-1.76501">
        <ele>1125</ele>
        <time>2021-10-09 19:09:32</time>
      </trkpt>
      <trkpt lat="40.09968" lon="-1.76496">
        <ele>1125.2</ele>
        <time>2021-10-09 19:09:33</time>
      </trkpt>
      <trkpt lat="40.09967" lon="-1.76491">
        <ele>1125.2</ele>
        <time>2021-10-09 19:09:34</time>
      </trkpt>
      <trkpt lat="40.09967" lon="-1.76486">
        <ele>1125.2</ele>
        <time>2021-10-09 19:09:35</time>
      </trkpt>
      <trkpt lat="40.09967" lon="-1.7648">
        <ele>1125.6</ele>
        <time>2021-10-09 19:09:36</time>
      </trkpt>
      <trkpt lat="40.09966" lon="-1.76475">
        <ele>1125.6</ele>
        <time>2021-10-09 19:09:37</time>
      </trkpt>
      <trkpt lat="40.09966" lon="-1.7647">
        <ele>1125.8</ele>
        <time>2021-10-09 19:09:38</time>
      </trkpt>
      <trkpt lat="40.09965" lon="-1.76465">
        <ele>1125.8</ele>
        <time>2021-10-09 19:09:39</time>
      </trkpt>
      <trkpt lat="40.09965" lon="-1.7646">
        <ele>1126</ele>
        <time>2021-10-09 19:09:40</time>
      </trkpt>
      <trkpt lat="40.09964" lon="-1.76455">
        <ele>1126</ele>
        <time>2021-10-09 19:09:41</time>
      </trkpt>
      <trkpt lat="40.09964" lon="-1.76449">
        <ele>1126.4</ele>
        <time>2021-10-09 19:09:42</time>
      </trkpt>
      <trkpt lat="40.09964" lon="-1.76444">
        <ele>1126.4</ele>
        <time>2021-10-09 19:09:43</time>
      </trkpt>
      <trkpt lat="40.09963" lon="-1.76439">
        <ele>1126.6</ele>
        <time>2021-10-09 19:09:44</time>
      </trkpt>
      <trkpt lat="40.09963" lon="-1.76434">
        <ele>1126.6</ele>
        <time>2021-10-09 19:09:45</time>
      </trkpt>
      <trkpt lat="40.09963" lon="-1.76428">
        <ele>1126.6</ele>
        <time>2021-10-09 19:09:46</time>
      </trkpt>
      <trkpt lat="40.09962" lon="-1.76423">
        <ele>1127</ele>
        <time>2021-10-09 19:09:47</time>
      </trkpt>
      <trkpt lat="40.09962" lon="-1.76418">
        <ele>1127</ele>
        <time>2021-10-09 19:09:48</time>
      </trkpt>
      <trkpt lat="40.09962" lon="-1.76413">
        <ele>1127.2</ele>
        <time>2021-10-09 19:09:49</time>
      </trkpt>
      <trkpt lat="40.09962" lon="-1.76408">
        <ele>1127.2</ele>
        <time>2021-10-09 19:09:50</time>
      </trkpt>
      <trkpt lat="40.09961" lon="-1.76402">
        <ele>1127.4</ele>
        <time>2021-10-09 19:09:51</time>
      </trkpt>
      <trkpt lat="40.09961" lon="-1.76397">
        <ele>1127.4</ele>
        <time>2021-10-09 19:09:52</time>
      </trkpt>
      <trkpt lat="40.09961" lon="-1.76392">
        <ele>1127.4</ele>
        <time>2021-10-09 19:09:53</time>
      </trkpt>
      <trkpt lat="40.09961" lon="-1.76386">
        <ele>1127.8</ele>
        <time>2021-10-09 19:09:54</time>
      </trkpt>
      <trkpt lat="40.0996" lon="-1.76381">
        <ele>1127.8</ele>
        <time>2021-10-09 19:09:55</time>
      </trkpt>
      <trkpt lat="40.0996" lon="-1.76375">
        <ele>1128</ele>
        <time>2021-10-09 19:09:56</time>
      </trkpt>
      <trkpt lat="40.0996" lon="-1.7637">
        <ele>1128</ele>
        <time>2021-10-09 19:09:57</time>
      </trkpt>
      <trkpt lat="40.0996" lon="-1.76364">
        <ele>1128</ele>
        <time>2021-10-09 19:09:58</time>
      </trkpt>
      <trkpt lat="40.09959" lon="-1.76359">
        <ele>1128.4</ele>
        <time>2021-10-09 19:09:59</time>
      </trkpt>
      <trkpt lat="40.09959" lon="-1.76353">
        <ele>1128.4</ele>
        <time>2021-10-09 19:10:00</time>
      </trkpt>
      <trkpt lat="40.09959" lon="-1.76347">
        <ele>1128.4</ele>
        <time>2021-10-09 19:10:01</time>
      </trkpt>
      <trkpt lat="40.0996" lon="-1.76341">
        <ele>1128.4</ele>
        <time>2021-10-09 19:10:02</time>
      </trkpt>
      <trkpt lat="40.09962" lon="-1.76336">
        <ele>1128.6</ele>
        <time>2021-10-09 19:10:03</time>
      </trkpt>
      <trkpt lat="40.09963" lon="-1.76331">
        <ele>1128.6</ele>
        <time>2021-10-09 19:10:04</time>
      </trkpt>
      <trkpt lat="40.09966" lon="-1.76325">
        <ele>1128.6</ele>
        <time>2021-10-09 19:10:05</time>
      </trkpt>
      <trkpt lat="40.09968" lon="-1.7632">
        <ele>1128.6</ele>
        <time>2021-10-09 19:10:06</time>
      </trkpt>
      <trkpt lat="40.0997" lon="-1.76315">
        <ele>1128.6</ele>
        <time>2021-10-09 19:10:07</time>
      </trkpt>
      <trkpt lat="40.09972" lon="-1.76309">
        <ele>1128.6</ele>
        <time>2021-10-09 19:10:08</time>
      </trkpt>
      <trkpt lat="40.09975" lon="-1.76304">
        <ele>1128.6</ele>
        <time>2021-10-09 19:10:09</time>
      </trkpt>
      <trkpt lat="40.09978" lon="-1.76299">
        <ele>1128.8</ele>
        <time>2021-10-09 19:10:10</time>
      </trkpt>
      <trkpt lat="40.09981" lon="-1.76293">
        <ele>1128.8</ele>
        <time>2021-10-09 19:10:11</time>
      </trkpt>
      <trkpt lat="40.09983" lon="-1.76288">
        <ele>1128.8</ele>
        <time>2021-10-09 19:10:12</time>
      </trkpt>
      <trkpt lat="40.09986" lon="-1.76283">
        <ele>1128.8</ele>
        <time>2021-10-09 19:10:13</time>
      </trkpt>
      <trkpt lat="40.09989" lon="-1.76277">
        <ele>1128.8</ele>
        <time>2021-10-09 19:10:14</time>
      </trkpt>
      <trkpt lat="40.09992" lon="-1.76271">
        <ele>1128.8</ele>
        <time>2021-10-09 19:10:15</time>
      </trkpt>
      <trkpt lat="40.09995" lon="-1.76265">
        <ele>1128.8</ele>
        <time>2021-10-09 19:10:16</time>
      </trkpt>
      <trkpt lat="40.09998" lon="-1.76259">
        <ele>1129</ele>
        <time>2021-10-09 19:10:17</time>
      </trkpt>
      <trkpt lat="40.10001" lon="-1.76252">
        <ele>1129</ele>
        <time>2021-10-09 19:10:18</time>
      </trkpt>
      <trkpt lat="40.10005" lon="-1.76246">
        <ele>1129</ele>
        <time>2021-10-09 19:10:19</time>
      </trkpt>
      <trkpt lat="40.10008" lon="-1.76238">
        <ele>1129.2</ele>
        <time>2021-10-09 19:10:20</time>
      </trkpt>
      <trkpt lat="40.10011" lon="-1.76231">
        <ele>1129.2</ele>
        <time>2021-10-09 19:10:21</time>
      </trkpt>
      <trkpt lat="40.10015" lon="-1.76224">
        <ele>1129.2</ele>
        <time>2021-10-09 19:10:22</time>
      </trkpt>
      <trkpt lat="40.10018" lon="-1.76217">
        <ele>1129.6</ele>
        <time>2021-10-09 19:10:23</time>
      </trkpt>
      <trkpt lat="40.10021" lon="-1.76211">
        <ele>1129.6</ele>
        <time>2021-10-09 19:10:24</time>
      </trkpt>
      <trkpt lat="40.10025" lon="-1.76204">
        <ele>1129.6</ele>
        <time>2021-10-09 19:10:25</time>
      </trkpt>
      <trkpt lat="40.10029" lon="-1.76198">
        <ele>1129.6</ele>
        <time>2021-10-09 19:10:26</time>
      </trkpt>
      <trkpt lat="40.10033" lon="-1.76191">
        <ele>1129.6</ele>
        <time>2021-10-09 19:10:27</time>
      </trkpt>
      <trkpt lat="40.10036" lon="-1.76185">
        <ele>1129.6</ele>
        <time>2021-10-09 19:10:28</time>
      </trkpt>
      <trkpt lat="40.10039" lon="-1.76178">
        <ele>1129.6</ele>
        <time>2021-10-09 19:10:29</time>
      </trkpt>
      <trkpt lat="40.10043" lon="-1.76172">
        <ele>1129.6</ele>
        <time>2021-10-09 19:10:30</time>
      </trkpt>
      <trkpt lat="40.10046" lon="-1.76166">
        <ele>1129.6</ele>
        <time>2021-10-09 19:10:31</time>
      </trkpt>
      <trkpt lat="40.10048" lon="-1.76159">
        <ele>1129.6</ele>
        <time>2021-10-09 19:10:32</time>
      </trkpt>
      <trkpt lat="40.10051" lon="-1.76154">
        <ele>1129.6</ele>
        <time>2021-10-09 19:10:33</time>
      </trkpt>
      <trkpt lat="40.10055" lon="-1.76148">
        <ele>1129.6</ele>
        <time>2021-10-09 19:10:34</time>
      </trkpt>
      <trkpt lat="40.10058" lon="-1.76142">
        <ele>1129.6</ele>
        <time>2021-10-09 19:10:35</time>
      </trkpt>
      <trkpt lat="40.10062" lon="-1.76135">
        <ele>1129.8</ele>
        <time>2021-10-09 19:10:36</time>
      </trkpt>
      <trkpt lat="40.10065" lon="-1.76129">
        <ele>1129.8</ele>
        <time>2021-10-09 19:10:37</time>
      </trkpt>
      <trkpt lat="40.10068" lon="-1.76123">
        <ele>1129.8</ele>
        <time>2021-10-09 19:10:38</time>
      </trkpt>
      <trkpt lat="40.10071" lon="-1.76117">
        <ele>1129.8</ele>
        <time>2021-10-09 19:10:39</time>
      </trkpt>
      <trkpt lat="40.10074" lon="-1.76111">
        <ele>1130</ele>
        <time>2021-10-09 19:10:40</time>
      </trkpt>
      <trkpt lat="40.10077" lon="-1.76105">
        <ele>1130</ele>
        <time>2021-10-09 19:10:41</time>
      </trkpt>
      <trkpt lat="40.1008" lon="-1.761">
        <ele>1130</ele>
        <time>2021-10-09 19:10:42</time>
      </trkpt>
      <trkpt lat="40.10082" lon="-1.76094">
        <ele>1130</ele>
        <time>2021-10-09 19:10:43</time>
      </trkpt>
      <trkpt lat="40.10085" lon="-1.76089">
        <ele>1130.2</ele>
        <time>2021-10-09 19:10:44</time>
      </trkpt>
      <trkpt lat="40.10087" lon="-1.76084">
        <ele>1130.2</ele>
        <time>2021-10-09 19:10:45</time>
      </trkpt>
      <trkpt lat="40.10089" lon="-1.76079">
        <ele>1130.2</ele>
        <time>2021-10-09 19:10:46</time>
      </trkpt>
      <trkpt lat="40.10092" lon="-1.76075">
        <ele>1130.2</ele>
        <time>2021-10-09 19:10:47</time>
      </trkpt>
      <trkpt lat="40.10094" lon="-1.7607">
        <ele>1130.2</ele>
        <time>2021-10-09 19:10:48</time>
      </trkpt>
      <trkpt lat="40.10096" lon="-1.76065">
        <ele>1130.2</ele>
        <time>2021-10-09 19:10:49</time>
      </trkpt>
      <trkpt lat="40.10099" lon="-1.76061">
        <ele>1130.4</ele>
        <time>2021-10-09 19:10:50</time>
      </trkpt>
      <trkpt lat="40.10101" lon="-1.76056">
        <ele>1130.4</ele>
        <time>2021-10-09 19:10:51</time>
      </trkpt>
      <trkpt lat="40.10103" lon="-1.76051">
        <ele>1130.6</ele>
        <time>2021-10-09 19:10:52</time>
      </trkpt>
      <trkpt lat="40.10106" lon="-1.76047">
        <ele>1130.6</ele>
        <time>2021-10-09 19:10:53</time>
      </trkpt>
      <trkpt lat="40.10108" lon="-1.76042">
        <ele>1131</ele>
        <time>2021-10-09 19:10:54</time>
      </trkpt>
      <trkpt lat="40.1011" lon="-1.76038">
        <ele>1131</ele>
        <time>2021-10-09 19:10:55</time>
      </trkpt>
      <trkpt lat="40.10113" lon="-1.76033">
        <ele>1131.2</ele>
        <time>2021-10-09 19:10:56</time>
      </trkpt>
      <trkpt lat="40.10115" lon="-1.76029">
        <ele>1131.2</ele>
        <time>2021-10-09 19:10:57</time>
      </trkpt>
      <trkpt lat="40.10117" lon="-1.76024">
        <ele>1131.4</ele>
        <time>2021-10-09 19:10:58</time>
      </trkpt>
      <trkpt lat="40.10119" lon="-1.76019">
        <ele>1131.4</ele>
        <time>2021-10-09 19:10:59</time>
      </trkpt>
      <trkpt lat="40.10122" lon="-1.76015">
        <ele>1131.4</ele>
        <time>2021-10-09 19:11:00</time>
      </trkpt>
      <trkpt lat="40.10124" lon="-1.7601">
        <ele>1131.4</ele>
        <time>2021-10-09 19:11:01</time>
      </trkpt>
      <trkpt lat="40.10126" lon="-1.76006">
        <ele>1131.8</ele>
        <time>2021-10-09 19:11:02</time>
      </trkpt>
      <trkpt lat="40.10128" lon="-1.76001">
        <ele>1131.8</ele>
        <time>2021-10-09 19:11:03</time>
      </trkpt>
      <trkpt lat="40.1013" lon="-1.75997">
        <ele>1132</ele>
        <time>2021-10-09 19:11:04</time>
      </trkpt>
      <trkpt lat="40.10133" lon="-1.75992">
        <ele>1132</ele>
        <time>2021-10-09 19:11:05</time>
      </trkpt>
      <trkpt lat="40.10135" lon="-1.75988">
        <ele>1132.4</ele>
        <time>2021-10-09 19:11:06</time>
      </trkpt>
      <trkpt lat="40.10137" lon="-1.75983">
        <ele>1132.4</ele>
        <time>2021-10-09 19:11:07</time>
      </trkpt>
      <trkpt lat="40.10139" lon="-1.75978">
        <ele>1132.6</ele>
        <time>2021-10-09 19:11:08</time>
      </trkpt>
      <trkpt lat="40.10141" lon="-1.75974">
        <ele>1132.6</ele>
        <time>2021-10-09 19:11:09</time>
      </trkpt>
      <trkpt lat="40.10143" lon="-1.75969">
        <ele>1132.8</ele>
        <time>2021-10-09 19:11:10</time>
      </trkpt>
      <trkpt lat="40.10145" lon="-1.75964">
        <ele>1132.8</ele>
        <time>2021-10-09 19:11:11</time>
      </trkpt>
      <trkpt lat="40.10146" lon="-1.7596">
        <ele>1132.8</ele>
        <time>2021-10-09 19:11:12</time>
      </trkpt>
      <trkpt lat="40.10148" lon="-1.75955">
        <ele>1133</ele>
        <time>2021-10-09 19:11:13</time>
      </trkpt>
      <trkpt lat="40.1015" lon="-1.7595">
        <ele>1133</ele>
        <time>2021-10-09 19:11:14</time>
      </trkpt>
      <trkpt lat="40.10151" lon="-1.75945">
        <ele>1133.4</ele>
        <time>2021-10-09 19:11:15</time>
      </trkpt>
      <trkpt lat="40.10153" lon="-1.7594">
        <ele>1133.4</ele>
        <time>2021-10-09 19:11:16</time>
      </trkpt>
      <trkpt lat="40.10154" lon="-1.75935">
        <ele>1133.6</ele>
        <time>2021-10-09 19:11:17</time>
      </trkpt>
      <trkpt lat="40.10155" lon="-1.7593">
        <ele>1133.6</ele>
        <time>2021-10-09 19:11:18</time>
      </trkpt>
      <trkpt lat="40.10156" lon="-1.75926">
        <ele>1133.8</ele>
        <time>2021-10-09 19:11:19</time>
      </trkpt>
      <trkpt lat="40.10157" lon="-1.75921">
        <ele>1133.8</ele>
        <time>2021-10-09 19:11:20</time>
      </trkpt>
      <trkpt lat="40.10158" lon="-1.75915">
        <ele>1134</ele>
        <time>2021-10-09 19:11:21</time>
      </trkpt>
      <trkpt lat="40.10159" lon="-1.7591">
        <ele>1134</ele>
        <time>2021-10-09 19:11:22</time>
      </trkpt>
      <trkpt lat="40.1016" lon="-1.75905">
        <ele>1134.4</ele>
        <time>2021-10-09 19:11:23</time>
      </trkpt>
      <trkpt lat="40.10161" lon="-1.75899">
        <ele>1134.4</ele>
        <time>2021-10-09 19:11:24</time>
      </trkpt>
      <trkpt lat="40.10161" lon="-1.75894">
        <ele>1134.6</ele>
        <time>2021-10-09 19:11:25</time>
      </trkpt>
      <trkpt lat="40.10162" lon="-1.75889">
        <ele>1134.6</ele>
        <time>2021-10-09 19:11:26</time>
      </trkpt>
      <trkpt lat="40.10163" lon="-1.75883">
        <ele>1135</ele>
        <time>2021-10-09 19:11:27</time>
      </trkpt>
      <trkpt lat="40.10163" lon="-1.75878">
        <ele>1135</ele>
        <time>2021-10-09 19:11:28</time>
      </trkpt>
      <trkpt lat="40.10164" lon="-1.75873">
        <ele>1135.2</ele>
        <time>2021-10-09 19:11:29</time>
      </trkpt>
      <trkpt lat="40.10164" lon="-1.75868">
        <ele>1135.4</ele>
        <time>2021-10-09 19:11:30</time>
      </trkpt>
      <trkpt lat="40.10164" lon="-1.75862">
        <ele>1135.4</ele>
        <time>2021-10-09 19:11:31</time>
      </trkpt>
      <trkpt lat="40.10165" lon="-1.75857">
        <ele>1135.8</ele>
        <time>2021-10-09 19:11:32</time>
      </trkpt>
      <trkpt lat="40.10165" lon="-1.75852">
        <ele>1135.8</ele>
        <time>2021-10-09 19:11:33</time>
      </trkpt>
      <trkpt lat="40.10165" lon="-1.75847">
        <ele>1136.2</ele>
        <time>2021-10-09 19:11:34</time>
      </trkpt>
      <trkpt lat="40.10166" lon="-1.75842">
        <ele>1136.2</ele>
        <time>2021-10-09 19:11:35</time>
      </trkpt>
      <trkpt lat="40.10166" lon="-1.75838">
        <ele>1136.4</ele>
        <time>2021-10-09 19:11:36</time>
      </trkpt>
      <trkpt lat="40.10167" lon="-1.75833">
        <ele>1136.4</ele>
        <time>2021-10-09 19:11:37</time>
      </trkpt>
      <trkpt lat="40.10167" lon="-1.75828">
        <ele>1136.8</ele>
        <time>2021-10-09 19:11:38</time>
      </trkpt>
      <trkpt lat="40.10167" lon="-1.75824">
        <ele>1137</ele>
        <time>2021-10-09 19:11:39</time>
      </trkpt>
      <trkpt lat="40.10167" lon="-1.75819">
        <ele>1137</ele>
        <time>2021-10-09 19:11:40</time>
      </trkpt>
      <trkpt lat="40.10167" lon="-1.75815">
        <ele>1137.2</ele>
        <time>2021-10-09 19:11:41</time>
      </trkpt>
      <trkpt lat="40.10168" lon="-1.75811">
        <ele>1137.2</ele>
        <time>2021-10-09 19:11:42</time>
      </trkpt>
      <trkpt lat="40.10168" lon="-1.75807">
        <ele>1137.2</ele>
        <time>2021-10-09 19:11:43</time>
      </trkpt>
      <trkpt lat="40.10168" lon="-1.75803">
        <ele>1137.6</ele>
        <time>2021-10-09 19:11:44</time>
      </trkpt>
      <trkpt lat="40.10169" lon="-1.75799">
        <ele>1137.6</ele>
        <time>2021-10-09 19:11:45</time>
      </trkpt>
      <trkpt lat="40.10169" lon="-1.75795">
        <ele>1137.6</ele>
        <time>2021-10-09 19:11:46</time>
      </trkpt>
      <trkpt lat="40.1017" lon="-1.75791">
        <ele>1137.8</ele>
        <time>2021-10-09 19:11:47</time>
      </trkpt>
      <trkpt lat="40.1017" lon="-1.75787">
        <ele>1137.8</ele>
        <time>2021-10-09 19:11:48</time>
      </trkpt>
      <trkpt lat="40.1017" lon="-1.75783">
        <ele>1138.2</ele>
        <time>2021-10-09 19:11:49</time>
      </trkpt>
      <trkpt lat="40.1017" lon="-1.75778">
        <ele>1138.2</ele>
        <time>2021-10-09 19:11:50</time>
      </trkpt>
      <trkpt lat="40.10171" lon="-1.75774">
        <ele>1138.4</ele>
        <time>2021-10-09 19:11:51</time>
      </trkpt>
      <trkpt lat="40.10171" lon="-1.75769">
        <ele>1138.4</ele>
        <time>2021-10-09 19:11:52</time>
      </trkpt>
      <trkpt lat="40.10172" lon="-1.75765">
        <ele>1138.8</ele>
        <time>2021-10-09 19:11:53</time>
      </trkpt>
      <trkpt lat="40.10172" lon="-1.75761">
        <ele>1138.8</ele>
        <time>2021-10-09 19:11:54</time>
      </trkpt>
      <trkpt lat="40.10172" lon="-1.75756">
        <ele>1139</ele>
        <time>2021-10-09 19:11:55</time>
      </trkpt>
      <trkpt lat="40.10172" lon="-1.75752">
        <ele>1139</ele>
        <time>2021-10-09 19:11:56</time>
      </trkpt>
      <trkpt lat="40.10173" lon="-1.75747">
        <ele>1139.4</ele>
        <time>2021-10-09 19:11:57</time>
      </trkpt>
      <trkpt lat="40.10173" lon="-1.75743">
        <ele>1139.4</ele>
        <time>2021-10-09 19:11:58</time>
      </trkpt>
      <trkpt lat="40.10174" lon="-1.75739">
        <ele>1139.8</ele>
        <time>2021-10-09 19:11:59</time>
      </trkpt>
      <trkpt lat="40.10174" lon="-1.75735">
        <ele>1139.8</ele>
        <time>2021-10-09 19:12:00</time>
      </trkpt>
      <trkpt lat="40.10175" lon="-1.7573">
        <ele>1140</ele>
        <time>2021-10-09 19:12:01</time>
      </trkpt>
      <trkpt lat="40.10175" lon="-1.75726">
        <ele>1140</ele>
        <time>2021-10-09 19:12:02</time>
      </trkpt>
      <trkpt lat="40.10175" lon="-1.75722">
        <ele>1140.4</ele>
        <time>2021-10-09 19:12:03</time>
      </trkpt>
      <trkpt lat="40.10175" lon="-1.75718">
        <ele>1140.4</ele>
        <time>2021-10-09 19:12:04</time>
      </trkpt>
      <trkpt lat="40.10175" lon="-1.75714">
        <ele>1140.8</ele>
        <time>2021-10-09 19:12:05</time>
      </trkpt>
      <trkpt lat="40.10175" lon="-1.7571">
        <ele>1140.8</ele>
        <time>2021-10-09 19:12:06</time>
      </trkpt>
      <trkpt lat="40.10175" lon="-1.75707">
        <ele>1141</ele>
        <time>2021-10-09 19:12:07</time>
      </trkpt>
      <trkpt lat="40.10176" lon="-1.75703">
        <ele>1141</ele>
        <time>2021-10-09 19:12:08</time>
      </trkpt>
      <trkpt lat="40.10176" lon="-1.75699">
        <ele>1141.2</ele>
        <time>2021-10-09 19:12:09</time>
      </trkpt>
      <trkpt lat="40.10176" lon="-1.75695">
        <ele>1141.2</ele>
        <time>2021-10-09 19:12:10</time>
      </trkpt>
      <trkpt lat="40.10176" lon="-1.75692">
        <ele>1141.6</ele>
        <time>2021-10-09 19:12:11</time>
      </trkpt>
      <trkpt lat="40.10176" lon="-1.75689">
        <ele>1141.6</ele>
        <time>2021-10-09 19:12:12</time>
      </trkpt>
      <trkpt lat="40.10177" lon="-1.75685">
        <ele>1142</ele>
        <time>2021-10-09 19:12:13</time>
      </trkpt>
      <trkpt lat="40.10177" lon="-1.75681">
        <ele>1142</ele>
        <time>2021-10-09 19:12:14</time>
      </trkpt>
      <trkpt lat="40.10177" lon="-1.75677">
        <ele>1142</ele>
        <time>2021-10-09 19:12:15</time>
      </trkpt>
      <trkpt lat="40.10178" lon="-1.75673">
        <ele>1142.2</ele>
        <time>2021-10-09 19:12:16</time>
      </trkpt>
      <trkpt lat="40.10178" lon="-1.75669">
        <ele>1142.2</ele>
        <time>2021-10-09 19:12:17</time>
      </trkpt>
      <trkpt lat="40.10179" lon="-1.75666">
        <ele>1142.4</ele>
        <time>2021-10-09 19:12:18</time>
      </trkpt>
      <trkpt lat="40.10179" lon="-1.75662">
        <ele>1142.4</ele>
        <time>2021-10-09 19:12:19</time>
      </trkpt>
      <trkpt lat="40.1018" lon="-1.75658">
        <ele>1142.8</ele>
        <time>2021-10-09 19:12:20</time>
      </trkpt>
      <trkpt lat="40.1018" lon="-1.75654">
        <ele>1142.8</ele>
        <time>2021-10-09 19:12:21</time>
      </trkpt>
      <trkpt lat="40.1018" lon="-1.7565">
        <ele>1143.2</ele>
        <time>2021-10-09 19:12:22</time>
      </trkpt>
      <trkpt lat="40.1018" lon="-1.75646">
        <ele>1143.4</ele>
        <time>2021-10-09 19:12:23</time>
      </trkpt>
      <trkpt lat="40.1018" lon="-1.75642">
        <ele>1143.4</ele>
        <time>2021-10-09 19:12:24</time>
      </trkpt>
      <trkpt lat="40.1018" lon="-1.75639">
        <ele>1143.8</ele>
        <time>2021-10-09 19:12:25</time>
      </trkpt>
      <trkpt lat="40.10181" lon="-1.75635">
        <ele>1144</ele>
        <time>2021-10-09 19:12:26</time>
      </trkpt>
      <trkpt lat="40.10181" lon="-1.75631">
        <ele>1144.2</ele>
        <time>2021-10-09 19:12:27</time>
      </trkpt>
      <trkpt lat="40.10181" lon="-1.75627">
        <ele>1144.2</ele>
        <time>2021-10-09 19:12:28</time>
      </trkpt>
      <trkpt lat="40.10181" lon="-1.75624">
        <ele>1144.4</ele>
        <time>2021-10-09 19:12:29</time>
      </trkpt>
      <trkpt lat="40.10181" lon="-1.7562">
        <ele>1144.4</ele>
        <time>2021-10-09 19:12:30</time>
      </trkpt>
      <trkpt lat="40.1018" lon="-1.75616">
        <ele>1144.6</ele>
        <time>2021-10-09 19:12:31</time>
      </trkpt>
      <trkpt lat="40.1018" lon="-1.75613">
        <ele>1144.6</ele>
        <time>2021-10-09 19:12:32</time>
      </trkpt>
      <trkpt lat="40.1018" lon="-1.75609">
        <ele>1145</ele>
        <time>2021-10-09 19:12:33</time>
      </trkpt>
      <trkpt lat="40.1018" lon="-1.75605">
        <ele>1145</ele>
        <time>2021-10-09 19:12:34</time>
      </trkpt>
      <trkpt lat="40.1018" lon="-1.75602">
        <ele>1145.2</ele>
        <time>2021-10-09 19:12:35</time>
      </trkpt>
      <trkpt lat="40.1018" lon="-1.75598">
        <ele>1145.2</ele>
        <time>2021-10-09 19:12:36</time>
      </trkpt>
      <trkpt lat="40.10179" lon="-1.75595">
        <ele>1145.6</ele>
        <time>2021-10-09 19:12:37</time>
      </trkpt>
      <trkpt lat="40.10179" lon="-1.75592">
        <ele>1145.6</ele>
        <time>2021-10-09 19:12:38</time>
      </trkpt>
      <trkpt lat="40.10179" lon="-1.75588">
        <ele>1145.8</ele>
        <time>2021-10-09 19:12:39</time>
      </trkpt>
      <trkpt lat="40.10179" lon="-1.75585">
        <ele>1145.8</ele>
        <time>2021-10-09 19:12:40</time>
      </trkpt>
      <trkpt lat="40.10178" lon="-1.75582">
        <ele>1146</ele>
        <time>2021-10-09 19:12:41</time>
      </trkpt>
      <trkpt lat="40.10178" lon="-1.75579">
        <ele>1146</ele>
        <time>2021-10-09 19:12:42</time>
      </trkpt>
      <trkpt lat="40.10178" lon="-1.75576">
        <ele>1146.4</ele>
        <time>2021-10-09 19:12:43</time>
      </trkpt>
      <trkpt lat="40.10177" lon="-1.75572">
        <ele>1146.4</ele>
        <time>2021-10-09 19:12:44</time>
      </trkpt>
      <trkpt lat="40.10177" lon="-1.75569">
        <ele>1146.6</ele>
        <time>2021-10-09 19:12:45</time>
      </trkpt>
      <trkpt lat="40.10176" lon="-1.75566">
        <ele>1146.6</ele>
        <time>2021-10-09 19:12:46</time>
      </trkpt>
      <trkpt lat="40.10176" lon="-1.75563">
        <ele>1146.8</ele>
        <time>2021-10-09 19:12:47</time>
      </trkpt>
      <trkpt lat="40.10175" lon="-1.7556">
        <ele>1146.8</ele>
        <time>2021-10-09 19:12:48</time>
      </trkpt>
      <trkpt lat="40.10174" lon="-1.75557">
        <ele>1146.8</ele>
        <time>2021-10-09 19:12:49</time>
      </trkpt>
      <trkpt lat="40.10173" lon="-1.75553">
        <ele>1147.2</ele>
        <time>2021-10-09 19:12:50</time>
      </trkpt>
      <trkpt lat="40.10172" lon="-1.7555">
        <ele>1147.2</ele>
        <time>2021-10-09 19:12:51</time>
      </trkpt>
      <trkpt lat="40.10172" lon="-1.75547">
        <ele>1147.4</ele>
        <time>2021-10-09 19:12:52</time>
      </trkpt>
      <trkpt lat="40.10171" lon="-1.75543">
        <ele>1147.4</ele>
        <time>2021-10-09 19:12:53</time>
      </trkpt>
      <trkpt lat="40.10171" lon="-1.7554">
        <ele>1147.6</ele>
        <time>2021-10-09 19:12:54</time>
      </trkpt>
      <trkpt lat="40.1017" lon="-1.75537">
        <ele>1147.6</ele>
        <time>2021-10-09 19:12:55</time>
      </trkpt>
      <trkpt lat="40.10169" lon="-1.75533">
        <ele>1148</ele>
        <time>2021-10-09 19:12:56</time>
      </trkpt>
      <trkpt lat="40.10168" lon="-1.7553">
        <ele>1148</ele>
        <time>2021-10-09 19:12:57</time>
      </trkpt>
      <trkpt lat="40.10167" lon="-1.75527">
        <ele>1148.4</ele>
        <time>2021-10-09 19:12:58</time>
      </trkpt>
      <trkpt lat="40.10167" lon="-1.75523">
        <ele>1148.4</ele>
        <time>2021-10-09 19:12:59</time>
      </trkpt>
      <trkpt lat="40.10166" lon="-1.7552">
        <ele>1148.6</ele>
        <time>2021-10-09 19:13:00</time>
      </trkpt>
      <trkpt lat="40.10165" lon="-1.75517">
        <ele>1148.6</ele>
        <time>2021-10-09 19:13:01</time>
      </trkpt>
      <trkpt lat="40.10164" lon="-1.75514">
        <ele>1149</ele>
        <time>2021-10-09 19:13:02</time>
      </trkpt>
      <trkpt lat="40.10163" lon="-1.75511">
        <ele>1149</ele>
        <time>2021-10-09 19:13:03</time>
      </trkpt>
      <trkpt lat="40.10162" lon="-1.75508">
        <ele>1149.4</ele>
        <time>2021-10-09 19:13:04</time>
      </trkpt>
      <trkpt lat="40.10161" lon="-1.75504">
        <ele>1149.4</ele>
        <time>2021-10-09 19:13:05</time>
      </trkpt>
      <trkpt lat="40.10161" lon="-1.75501">
        <ele>1149.6</ele>
        <time>2021-10-09 19:13:06</time>
      </trkpt>
      <trkpt lat="40.1016" lon="-1.75498">
        <ele>1149.6</ele>
        <time>2021-10-09 19:13:07</time>
      </trkpt>
      <trkpt lat="40.10159" lon="-1.75495">
        <ele>1150</ele>
        <time>2021-10-09 19:13:08</time>
      </trkpt>
      <trkpt lat="40.10158" lon="-1.75491">
        <ele>1150</ele>
        <time>2021-10-09 19:13:09</time>
      </trkpt>
      <trkpt lat="40.10157" lon="-1.75488">
        <ele>1150.2</ele>
        <time>2021-10-09 19:13:10</time>
      </trkpt>
      <trkpt lat="40.10157" lon="-1.75485">
        <ele>1150.2</ele>
        <time>2021-10-09 19:13:11</time>
      </trkpt>
      <trkpt lat="40.10156" lon="-1.75482">
        <ele>1150.4</ele>
        <time>2021-10-09 19:13:12</time>
      </trkpt>
      <trkpt lat="40.10155" lon="-1.75478">
        <ele>1150.4</ele>
        <time>2021-10-09 19:13:13</time>
      </trkpt>
      <trkpt lat="40.10155" lon="-1.75475">
        <ele>1150.8</ele>
        <time>2021-10-09 19:13:14</time>
      </trkpt>
      <trkpt lat="40.10154" lon="-1.75472">
        <ele>1151</ele>
        <time>2021-10-09 19:13:15</time>
      </trkpt>
      <trkpt lat="40.10153" lon="-1.75469">
        <ele>1151</ele>
        <time>2021-10-09 19:13:16</time>
      </trkpt>
      <trkpt lat="40.10152" lon="-1.75466">
        <ele>1151.2</ele>
        <time>2021-10-09 19:13:17</time>
      </trkpt>
      <trkpt lat="40.10151" lon="-1.75462">
        <ele>1151.2</ele>
        <time>2021-10-09 19:13:18</time>
      </trkpt>
      <trkpt lat="40.1015" lon="-1.75459">
        <ele>1151.6</ele>
        <time>2021-10-09 19:13:19</time>
      </trkpt>
      <trkpt lat="40.10149" lon="-1.75456">
        <ele>1151.6</ele>
        <time>2021-10-09 19:13:20</time>
      </trkpt>
      <trkpt lat="40.10149" lon="-1.75453">
        <ele>1151.8</ele>
        <time>2021-10-09 19:13:21</time>
      </trkpt>
      <trkpt lat="40.10148" lon="-1.7545">
        <ele>1151.8</ele>
        <time>2021-10-09 19:13:22</time>
      </trkpt>
      <trkpt lat="40.10147" lon="-1.75447">
        <ele>1152.2</ele>
        <time>2021-10-09 19:13:23</time>
      </trkpt>
      <trkpt lat="40.10146" lon="-1.75444">
        <ele>1152.2</ele>
        <time>2021-10-09 19:13:24</time>
      </trkpt>
      <trkpt lat="40.10145" lon="-1.75441">
        <ele>1152.4</ele>
        <time>2021-10-09 19:13:25</time>
      </trkpt>
      <trkpt lat="40.10144" lon="-1.75438">
        <ele>1152.4</ele>
        <time>2021-10-09 19:13:26</time>
      </trkpt>
      <trkpt lat="40.10144" lon="-1.75435">
        <ele>1152.8</ele>
        <time>2021-10-09 19:13:27</time>
      </trkpt>
      <trkpt lat="40.10143" lon="-1.75432">
        <ele>1152.8</ele>
        <time>2021-10-09 19:13:28</time>
      </trkpt>
      <trkpt lat="40.10142" lon="-1.75429">
        <ele>1153</ele>
        <time>2021-10-09 19:13:29</time>
      </trkpt>
      <trkpt lat="40.10142" lon="-1.75426">
        <ele>1153</ele>
        <time>2021-10-09 19:13:30</time>
      </trkpt>
      <trkpt lat="40.10141" lon="-1.75423">
        <ele>1153.4</ele>
        <time>2021-10-09 19:13:31</time>
      </trkpt>
      <trkpt lat="40.1014" lon="-1.7542">
        <ele>1153.4</ele>
        <time>2021-10-09 19:13:32</time>
      </trkpt>
      <trkpt lat="40.10139" lon="-1.75417">
        <ele>1153.8</ele>
        <time>2021-10-09 19:13:33</time>
      </trkpt>
      <trkpt lat="40.10139" lon="-1.75414">
        <ele>1153.8</ele>
        <time>2021-10-09 19:13:34</time>
      </trkpt>
      <trkpt lat="40.10138" lon="-1.75411">
        <ele>1154.2</ele>
        <time>2021-10-09 19:13:35</time>
      </trkpt>
      <trkpt lat="40.10138" lon="-1.75408">
        <ele>1154.2</ele>
        <time>2021-10-09 19:13:36</time>
      </trkpt>
      <trkpt lat="40.10137" lon="-1.75405">
        <ele>1154.6</ele>
        <time>2021-10-09 19:13:37</time>
      </trkpt>
      <trkpt lat="40.10136" lon="-1.75403">
        <ele>1154.6</ele>
        <time>2021-10-09 19:13:38</time>
      </trkpt>
      <trkpt lat="40.10136" lon="-1.754">
        <ele>1155</ele>
        <time>2021-10-09 19:13:39</time>
      </trkpt>
      <trkpt lat="40.10135" lon="-1.75398">
        <ele>1155</ele>
        <time>2021-10-09 19:13:40</time>
      </trkpt>
      <trkpt lat="40.10135" lon="-1.75395">
        <ele>1155.2</ele>
        <time>2021-10-09 19:13:41</time>
      </trkpt>
      <trkpt lat="40.10134" lon="-1.75392">
        <ele>1155.2</ele>
        <time>2021-10-09 19:13:42</time>
      </trkpt>
      <trkpt lat="40.10133" lon="-1.7539">
        <ele>1155.6</ele>
        <time>2021-10-09 19:13:43</time>
      </trkpt>
      <trkpt lat="40.10132" lon="-1.75387">
        <ele>1155.6</ele>
        <time>2021-10-09 19:13:44</time>
      </trkpt>
      <trkpt lat="40.10132" lon="-1.75385">
        <ele>1155.8</ele>
        <time>2021-10-09 19:13:45</time>
      </trkpt>
      <trkpt lat="40.10131" lon="-1.75382">
        <ele>1155.8</ele>
        <time>2021-10-09 19:13:46</time>
      </trkpt>
      <trkpt lat="40.1013" lon="-1.75379">
        <ele>1156</ele>
        <time>2021-10-09 19:13:47</time>
      </trkpt>
      <trkpt lat="40.1013" lon="-1.75377">
        <ele>1156</ele>
        <time>2021-10-09 19:13:48</time>
      </trkpt>
      <trkpt lat="40.10129" lon="-1.75374">
        <ele>1156.4</ele>
        <time>2021-10-09 19:13:49</time>
      </trkpt>
      <trkpt lat="40.10128" lon="-1.75371">
        <ele>1156.4</ele>
        <time>2021-10-09 19:13:50</time>
      </trkpt>
      <trkpt lat="40.10128" lon="-1.75369">
        <ele>1156.6</ele>
        <time>2021-10-09 19:13:51</time>
      </trkpt>
      <trkpt lat="40.10127" lon="-1.75366">
        <ele>1156.6</ele>
        <time>2021-10-09 19:13:52</time>
      </trkpt>
      <trkpt lat="40.10127" lon="-1.75363">
        <ele>1157</ele>
        <time>2021-10-09 19:13:53</time>
      </trkpt>
      <trkpt lat="40.10126" lon="-1.75361">
        <ele>1157</ele>
        <time>2021-10-09 19:13:54</time>
      </trkpt>
      <trkpt lat="40.10126" lon="-1.75358">
        <ele>1157.2</ele>
        <time>2021-10-09 19:13:55</time>
      </trkpt>
      <trkpt lat="40.10126" lon="-1.75355">
        <ele>1157.2</ele>
        <time>2021-10-09 19:13:56</time>
      </trkpt>
      <trkpt lat="40.10126" lon="-1.75352">
        <ele>1157.6</ele>
        <time>2021-10-09 19:13:57</time>
      </trkpt>
      <trkpt lat="40.10125" lon="-1.7535">
        <ele>1157.6</ele>
        <time>2021-10-09 19:13:58</time>
      </trkpt>
      <trkpt lat="40.10124" lon="-1.75347">
        <ele>1157.8</ele>
        <time>2021-10-09 19:13:59</time>
      </trkpt>
      <trkpt lat="40.10123" lon="-1.75345">
        <ele>1158</ele>
        <time>2021-10-09 19:14:00</time>
      </trkpt>
      <trkpt lat="40.10122" lon="-1.75343">
        <ele>1158</ele>
        <time>2021-10-09 19:14:01</time>
      </trkpt>
      <trkpt lat="40.10121" lon="-1.75341">
        <ele>1158.4</ele>
        <time>2021-10-09 19:14:02</time>
      </trkpt>
      <trkpt lat="40.10121" lon="-1.75338">
        <ele>1158.4</ele>
        <time>2021-10-09 19:14:03</time>
      </trkpt>
      <trkpt lat="40.1012" lon="-1.75336">
        <ele>1158.8</ele>
        <time>2021-10-09 19:14:04</time>
      </trkpt>
      <trkpt lat="40.10119" lon="-1.75333">
        <ele>1158.8</ele>
        <time>2021-10-09 19:14:05</time>
      </trkpt>
      <trkpt lat="40.10118" lon="-1.75331">
        <ele>1159</ele>
        <time>2021-10-09 19:14:06</time>
      </trkpt>
      <trkpt lat="40.10118" lon="-1.75329">
        <ele>1159</ele>
        <time>2021-10-09 19:14:07</time>
      </trkpt>
      <trkpt lat="40.10117" lon="-1.75326">
        <ele>1159.4</ele>
        <time>2021-10-09 19:14:08</time>
      </trkpt>
      <trkpt lat="40.10116" lon="-1.75324">
        <ele>1159.4</ele>
        <time>2021-10-09 19:14:09</time>
      </trkpt>
      <trkpt lat="40.10116" lon="-1.75321">
        <ele>1159.6</ele>
        <time>2021-10-09 19:14:10</time>
      </trkpt>
      <trkpt lat="40.10115" lon="-1.75319">
        <ele>1159.6</ele>
        <time>2021-10-09 19:14:11</time>
      </trkpt>
      <trkpt lat="40.10115" lon="-1.75316">
        <ele>1160</ele>
        <time>2021-10-09 19:14:12</time>
      </trkpt>
      <trkpt lat="40.10114" lon="-1.75314">
        <ele>1160</ele>
        <time>2021-10-09 19:14:13</time>
      </trkpt>
      <trkpt lat="40.10114" lon="-1.75312">
        <ele>1160.2</ele>
        <time>2021-10-09 19:14:14</time>
      </trkpt>
      <trkpt lat="40.10113" lon="-1.75309">
        <ele>1160.4</ele>
        <time>2021-10-09 19:14:15</time>
      </trkpt>
      <trkpt lat="40.10113" lon="-1.75306">
        <ele>1160.4</ele>
        <time>2021-10-09 19:14:16</time>
      </trkpt>
      <trkpt lat="40.10112" lon="-1.75304">
        <ele>1160.8</ele>
        <time>2021-10-09 19:14:17</time>
      </trkpt>
      <trkpt lat="40.10111" lon="-1.75301">
        <ele>1160.8</ele>
        <time>2021-10-09 19:14:18</time>
      </trkpt>
      <trkpt lat="40.1011" lon="-1.75299">
        <ele>1161.2</ele>
        <time>2021-10-09 19:14:19</time>
      </trkpt>
      <trkpt lat="40.10109" lon="-1.75296">
        <ele>1161.2</ele>
        <time>2021-10-09 19:14:20</time>
      </trkpt>
      <trkpt lat="40.10109" lon="-1.75293">
        <ele>1161.4</ele>
        <time>2021-10-09 19:14:21</time>
      </trkpt>
      <trkpt lat="40.10108" lon="-1.75291">
        <ele>1161.4</ele>
        <time>2021-10-09 19:14:22</time>
      </trkpt>
      <trkpt lat="40.10107" lon="-1.75288">
        <ele>1161.8</ele>
        <time>2021-10-09 19:14:23</time>
      </trkpt>
      <trkpt lat="40.10106" lon="-1.75286">
        <ele>1161.8</ele>
        <time>2021-10-09 19:14:24</time>
      </trkpt>
      <trkpt lat="40.10106" lon="-1.75283">
        <ele>1162.2</ele>
        <time>2021-10-09 19:14:25</time>
      </trkpt>
      <trkpt lat="40.10105" lon="-1.75281">
        <ele>1162.2</ele>
        <time>2021-10-09 19:14:26</time>
      </trkpt>
      <trkpt lat="40.10104" lon="-1.75278">
        <ele>1162.2</ele>
        <time>2021-10-09 19:14:27</time>
      </trkpt>
      <trkpt lat="40.10104" lon="-1.75275">
        <ele>1162.4</ele>
        <time>2021-10-09 19:14:28</time>
      </trkpt>
      <trkpt lat="40.10103" lon="-1.75273">
        <ele>1162.4</ele>
        <time>2021-10-09 19:14:29</time>
      </trkpt>
      <trkpt lat="40.10102" lon="-1.75271">
        <ele>1162.6</ele>
        <time>2021-10-09 19:14:30</time>
      </trkpt>
      <trkpt lat="40.10101" lon="-1.75268">
        <ele>1162.6</ele>
        <time>2021-10-09 19:14:31</time>
      </trkpt>
      <trkpt lat="40.101" lon="-1.75265">
        <ele>1163</ele>
        <time>2021-10-09 19:14:32</time>
      </trkpt>
      <trkpt lat="40.10099" lon="-1.75262">
        <ele>1163</ele>
        <time>2021-10-09 19:14:33</time>
      </trkpt>
      <trkpt lat="40.10098" lon="-1.7526">
        <ele>1163.2</ele>
        <time>2021-10-09 19:14:34</time>
      </trkpt>
      <trkpt lat="40.10098" lon="-1.75258">
        <ele>1163.4</ele>
        <time>2021-10-09 19:14:35</time>
      </trkpt>
      <trkpt lat="40.10097" lon="-1.75255">
        <ele>1163.4</ele>
        <time>2021-10-09 19:14:36</time>
      </trkpt>
      <trkpt lat="40.10096" lon="-1.75253">
        <ele>1163.8</ele>
        <time>2021-10-09 19:14:37</time>
      </trkpt>
      <trkpt lat="40.10095" lon="-1.7525">
        <ele>1163.8</ele>
        <time>2021-10-09 19:14:38</time>
      </trkpt>
      <trkpt lat="40.10095" lon="-1.75248">
        <ele>1164.2</ele>
        <time>2021-10-09 19:14:39</time>
      </trkpt>
      <trkpt lat="40.10094" lon="-1.75245">
        <ele>1164.4</ele>
        <time>2021-10-09 19:14:40</time>
      </trkpt>
      <trkpt lat="40.10092" lon="-1.75242">
        <ele>1164.6</ele>
        <time>2021-10-09 19:14:41</time>
      </trkpt>
      <trkpt lat="40.10091" lon="-1.7524">
        <ele>1164.6</ele>
        <time>2021-10-09 19:14:42</time>
      </trkpt>
      <trkpt lat="40.1009" lon="-1.75237">
        <ele>1164.8</ele>
        <time>2021-10-09 19:14:43</time>
      </trkpt>
      <trkpt lat="40.10089" lon="-1.75235">
        <ele>1164.8</ele>
        <time>2021-10-09 19:14:44</time>
      </trkpt>
      <trkpt lat="40.10089" lon="-1.75232">
        <ele>1165.2</ele>
        <time>2021-10-09 19:14:45</time>
      </trkpt>
      <trkpt lat="40.10088" lon="-1.7523">
        <ele>1165.6</ele>
        <time>2021-10-09 19:14:46</time>
      </trkpt>
      <trkpt lat="40.10087" lon="-1.75227">
        <ele>1165.8</ele>
        <time>2021-10-09 19:14:47</time>
      </trkpt>
      <trkpt lat="40.10085" lon="-1.75225">
        <ele>1165.8</ele>
        <time>2021-10-09 19:14:48</time>
      </trkpt>
      <trkpt lat="40.10084" lon="-1.75222">
        <ele>1166</ele>
        <time>2021-10-09 19:14:49</time>
      </trkpt>
      <trkpt lat="40.10084" lon="-1.75219">
        <ele>1166.2</ele>
        <time>2021-10-09 19:14:50</time>
      </trkpt>
      <trkpt lat="40.10083" lon="-1.75217">
        <ele>1166.2</ele>
        <time>2021-10-09 19:14:51</time>
      </trkpt>
      <trkpt lat="40.10082" lon="-1.75215">
        <ele>1166.6</ele>
        <time>2021-10-09 19:14:52</time>
      </trkpt>
      <trkpt lat="40.10081" lon="-1.75212">
        <ele>1166.6</ele>
        <time>2021-10-09 19:14:53</time>
      </trkpt>
      <trkpt lat="40.1008" lon="-1.75209">
        <ele>1167</ele>
        <time>2021-10-09 19:14:54</time>
      </trkpt>
      <trkpt lat="40.10078" lon="-1.75207">
        <ele>1167</ele>
        <time>2021-10-09 19:14:55</time>
      </trkpt>
      <trkpt lat="40.10077" lon="-1.75205">
        <ele>1167.2</ele>
        <time>2021-10-09 19:14:56</time>
      </trkpt>
      <trkpt lat="40.10076" lon="-1.75203">
        <ele>1167.2</ele>
        <time>2021-10-09 19:14:57</time>
      </trkpt>
      <trkpt lat="40.10075" lon="-1.752">
        <ele>1167.8</ele>
        <time>2021-10-09 19:14:58</time>
      </trkpt>
      <trkpt lat="40.10074" lon="-1.75197">
        <ele>1167.8</ele>
        <time>2021-10-09 19:14:59</time>
      </trkpt>
      <trkpt lat="40.10073" lon="-1.75195">
        <ele>1168</ele>
        <time>2021-10-09 19:15:00</time>
      </trkpt>
      <trkpt lat="40.10073" lon="-1.75192">
        <ele>1168</ele>
        <time>2021-10-09 19:15:01</time>
      </trkpt>
      <trkpt lat="40.10072" lon="-1.7519">
        <ele>1168.2</ele>
        <time>2021-10-09 19:15:02</time>
      </trkpt>
      <trkpt lat="40.10071" lon="-1.75187">
        <ele>1168.4</ele>
        <time>2021-10-09 19:15:03</time>
      </trkpt>
      <trkpt lat="40.10069" lon="-1.75184">
        <ele>1168.6</ele>
        <time>2021-10-09 19:15:04</time>
      </trkpt>
      <trkpt lat="40.10068" lon="-1.75182">
        <ele>1168.6</ele>
        <time>2021-10-09 19:15:05</time>
      </trkpt>
      <trkpt lat="40.10068" lon="-1.7518">
        <ele>1169</ele>
        <time>2021-10-09 19:15:06</time>
      </trkpt>
      <trkpt lat="40.10067" lon="-1.75178">
        <ele>1169</ele>
        <time>2021-10-09 19:15:07</time>
      </trkpt>
      <trkpt lat="40.10066" lon="-1.75175">
        <ele>1169.4</ele>
        <time>2021-10-09 19:15:08</time>
      </trkpt>
      <trkpt lat="40.10064" lon="-1.75172">
        <ele>1169.4</ele>
        <time>2021-10-09 19:15:09</time>
      </trkpt>
      <trkpt lat="40.10063" lon="-1.75169">
        <ele>1169.6</ele>
        <time>2021-10-09 19:15:10</time>
      </trkpt>
      <trkpt lat="40.10062" lon="-1.75167">
        <ele>1169.6</ele>
        <time>2021-10-09 19:15:11</time>
      </trkpt>
      <trkpt lat="40.10061" lon="-1.75164">
        <ele>1170</ele>
        <time>2021-10-09 19:15:12</time>
      </trkpt>
      <trkpt lat="40.1006" lon="-1.75162">
        <ele>1170</ele>
        <time>2021-10-09 19:15:13</time>
      </trkpt>
      <trkpt lat="40.10059" lon="-1.75159">
        <ele>1170.2</ele>
        <time>2021-10-09 19:15:14</time>
      </trkpt>
      <trkpt lat="40.10058" lon="-1.75156">
        <ele>1170.2</ele>
        <time>2021-10-09 19:15:15</time>
      </trkpt>
      <trkpt lat="40.10057" lon="-1.75154">
        <ele>1170.6</ele>
        <time>2021-10-09 19:15:16</time>
      </trkpt>
      <trkpt lat="40.10056" lon="-1.75152">
        <ele>1170.6</ele>
        <time>2021-10-09 19:15:17</time>
      </trkpt>
      <trkpt lat="40.10055" lon="-1.7515">
        <ele>1170.8</ele>
        <time>2021-10-09 19:15:18</time>
      </trkpt>
      <trkpt lat="40.10053" lon="-1.75147">
        <ele>1170.8</ele>
        <time>2021-10-09 19:15:19</time>
      </trkpt>
      <trkpt lat="40.10052" lon="-1.75145">
        <ele>1171.2</ele>
        <time>2021-10-09 19:15:20</time>
      </trkpt>
      <trkpt lat="40.10051" lon="-1.75142">
        <ele>1171.2</ele>
        <time>2021-10-09 19:15:21</time>
      </trkpt>
      <trkpt lat="40.1005" lon="-1.7514">
        <ele>1171.4</ele>
        <time>2021-10-09 19:15:22</time>
      </trkpt>
      <trkpt lat="40.10049" lon="-1.75137">
        <ele>1171.6</ele>
        <time>2021-10-09 19:15:23</time>
      </trkpt>
      <trkpt lat="40.10048" lon="-1.75134">
        <ele>1171.6</ele>
        <time>2021-10-09 19:15:24</time>
      </trkpt>
      <trkpt lat="40.10047" lon="-1.75132">
        <ele>1172</ele>
        <time>2021-10-09 19:15:25</time>
      </trkpt>
      <trkpt lat="40.10047" lon="-1.7513">
        <ele>1172</ele>
        <time>2021-10-09 19:15:26</time>
      </trkpt>
      <trkpt lat="40.10046" lon="-1.75128">
        <ele>1172.4</ele>
        <time>2021-10-09 19:15:27</time>
      </trkpt>
      <trkpt lat="40.10045" lon="-1.75125">
        <ele>1172.4</ele>
        <time>2021-10-09 19:15:28</time>
      </trkpt>
      <trkpt lat="40.10043" lon="-1.75123">
        <ele>1172.8</ele>
        <time>2021-10-09 19:15:29</time>
      </trkpt>
      <trkpt lat="40.10043" lon="-1.7512">
        <ele>1172.8</ele>
        <time>2021-10-09 19:15:30</time>
      </trkpt>
      <trkpt lat="40.10042" lon="-1.75118">
        <ele>1173</ele>
        <time>2021-10-09 19:15:31</time>
      </trkpt>
      <trkpt lat="40.10042" lon="-1.75115">
        <ele>1173</ele>
        <time>2021-10-09 19:15:32</time>
      </trkpt>
      <trkpt lat="40.10041" lon="-1.75113">
        <ele>1173.2</ele>
        <time>2021-10-09 19:15:33</time>
      </trkpt>
      <trkpt lat="40.1004" lon="-1.7511">
        <ele>1173.2</ele>
        <time>2021-10-09 19:15:34</time>
      </trkpt>
      <trkpt lat="40.1004" lon="-1.75108">
        <ele>1173.6</ele>
        <time>2021-10-09 19:15:35</time>
      </trkpt>
      <trkpt lat="40.10038" lon="-1.75106">
        <ele>1173.6</ele>
        <time>2021-10-09 19:15:36</time>
      </trkpt>
      <trkpt lat="40.10037" lon="-1.75103">
        <ele>1173.8</ele>
        <time>2021-10-09 19:15:37</time>
      </trkpt>
      <trkpt lat="40.10037" lon="-1.751">
        <ele>1173.8</ele>
        <time>2021-10-09 19:15:38</time>
      </trkpt>
      <trkpt lat="40.10036" lon="-1.75097">
        <ele>1174.2</ele>
        <time>2021-10-09 19:15:39</time>
      </trkpt>
      <trkpt lat="40.10036" lon="-1.75095">
        <ele>1174.2</ele>
        <time>2021-10-09 19:15:40</time>
      </trkpt>
      <trkpt lat="40.10035" lon="-1.75092">
        <ele>1174.4</ele>
        <time>2021-10-09 19:15:41</time>
      </trkpt>
      <trkpt lat="40.10035" lon="-1.75089">
        <ele>1174.4</ele>
        <time>2021-10-09 19:15:42</time>
      </trkpt>
      <trkpt lat="40.10035" lon="-1.75087">
        <ele>1174.8</ele>
        <time>2021-10-09 19:15:43</time>
      </trkpt>
      <trkpt lat="40.10034" lon="-1.75084">
        <ele>1174.8</ele>
        <time>2021-10-09 19:15:44</time>
      </trkpt>
      <trkpt lat="40.10034" lon="-1.75081">
        <ele>1175.2</ele>
        <time>2021-10-09 19:15:45</time>
      </trkpt>
      <trkpt lat="40.10033" lon="-1.75079">
        <ele>1175.2</ele>
        <time>2021-10-09 19:15:46</time>
      </trkpt>
      <trkpt lat="40.10033" lon="-1.75077">
        <ele>1175.4</ele>
        <time>2021-10-09 19:15:47</time>
      </trkpt>
      <trkpt lat="40.10033" lon="-1.75074">
        <ele>1175.6</ele>
        <time>2021-10-09 19:15:48</time>
      </trkpt>
      <trkpt lat="40.10032" lon="-1.75071">
        <ele>1175.6</ele>
        <time>2021-10-09 19:15:49</time>
      </trkpt>
      <trkpt lat="40.10032" lon="-1.75069">
        <ele>1176</ele>
        <time>2021-10-09 19:15:50</time>
      </trkpt>
      <trkpt lat="40.10031" lon="-1.75066">
        <ele>1176</ele>
        <time>2021-10-09 19:15:51</time>
      </trkpt>
      <trkpt lat="40.10031" lon="-1.75063">
        <ele>1176.4</ele>
        <time>2021-10-09 19:15:52</time>
      </trkpt>
      <trkpt lat="40.10031" lon="-1.75061">
        <ele>1176.4</ele>
        <time>2021-10-09 19:15:53</time>
      </trkpt>
      <trkpt lat="40.1003" lon="-1.75059">
        <ele>1176.8</ele>
        <time>2021-10-09 19:15:54</time>
      </trkpt>
      <trkpt lat="40.10029" lon="-1.75056">
        <ele>1176.8</ele>
        <time>2021-10-09 19:15:55</time>
      </trkpt>
      <trkpt lat="40.10029" lon="-1.75053">
        <ele>1177.2</ele>
        <time>2021-10-09 19:15:56</time>
      </trkpt>
      <trkpt lat="40.10028" lon="-1.75051">
        <ele>1177.4</ele>
        <time>2021-10-09 19:15:57</time>
      </trkpt>
      <trkpt lat="40.10027" lon="-1.75048">
        <ele>1177.4</ele>
        <time>2021-10-09 19:15:58</time>
      </trkpt>
      <trkpt lat="40.10027" lon="-1.75044">
        <ele>1177.8</ele>
        <time>2021-10-09 19:15:59</time>
      </trkpt>
      <trkpt lat="40.10027" lon="-1.75042">
        <ele>1177.8</ele>
        <time>2021-10-09 19:16:00</time>
      </trkpt>
      <trkpt lat="40.10026" lon="-1.75039">
        <ele>1178.2</ele>
        <time>2021-10-09 19:16:01</time>
      </trkpt>
      <trkpt lat="40.10026" lon="-1.75036">
        <ele>1178.2</ele>
        <time>2021-10-09 19:16:02</time>
      </trkpt>
      <trkpt lat="40.10025" lon="-1.75033">
        <ele>1178.4</ele>
        <time>2021-10-09 19:16:03</time>
      </trkpt>
      <trkpt lat="40.10024" lon="-1.7503">
        <ele>1178.8</ele>
        <time>2021-10-09 19:16:04</time>
      </trkpt>
      <trkpt lat="40.10024" lon="-1.75027">
        <ele>1179</ele>
        <time>2021-10-09 19:16:05</time>
      </trkpt>
      <trkpt lat="40.10023" lon="-1.75025">
        <ele>1179.2</ele>
        <time>2021-10-09 19:16:06</time>
      </trkpt>
      <trkpt lat="40.10023" lon="-1.75022">
        <ele>1179.4</ele>
        <time>2021-10-09 19:16:07</time>
      </trkpt>
      <trkpt lat="40.10023" lon="-1.75019">
        <ele>1179.6</ele>
        <time>2021-10-09 19:16:08</time>
      </trkpt>
      <trkpt lat="40.10022" lon="-1.75016">
        <ele>1180</ele>
        <time>2021-10-09 19:16:09</time>
      </trkpt>
      <trkpt lat="40.10021" lon="-1.75013">
        <ele>1180</ele>
        <time>2021-10-09 19:16:10</time>
      </trkpt>
      <trkpt lat="40.10021" lon="-1.75011">
        <ele>1180.2</ele>
        <time>2021-10-09 19:16:11</time>
      </trkpt>
      <trkpt lat="40.10021" lon="-1.75008">
        <ele>1180.4</ele>
        <time>2021-10-09 19:16:12</time>
      </trkpt>
      <trkpt lat="40.10021" lon="-1.75005">
        <ele>1180.6</ele>
        <time>2021-10-09 19:16:13</time>
      </trkpt>
      <trkpt lat="40.1002" lon="-1.75002">
        <ele>1181</ele>
        <time>2021-10-09 19:16:14</time>
      </trkpt>
      <trkpt lat="40.1002" lon="-1.74999">
        <ele>1181.2</ele>
        <time>2021-10-09 19:16:15</time>
      </trkpt>
      <trkpt lat="40.1002" lon="-1.74997">
        <ele>1181.4</ele>
        <time>2021-10-09 19:16:16</time>
      </trkpt>
      <trkpt lat="40.1002" lon="-1.74994">
        <ele>1181.6</ele>
        <time>2021-10-09 19:16:17</time>
      </trkpt>
      <trkpt lat="40.1002" lon="-1.74991">
        <ele>1181.6</ele>
        <time>2021-10-09 19:16:18</time>
      </trkpt>
      <trkpt lat="40.10019" lon="-1.74989">
        <ele>1182</ele>
        <time>2021-10-09 19:16:19</time>
      </trkpt>
      <trkpt lat="40.10019" lon="-1.74986">
        <ele>1182.4</ele>
        <time>2021-10-09 19:16:20</time>
      </trkpt>
      <trkpt lat="40.10019" lon="-1.74984">
        <ele>1182.6</ele>
        <time>2021-10-09 19:16:21</time>
      </trkpt>
      <trkpt lat="40.10018" lon="-1.74981">
        <ele>1182.8</ele>
        <time>2021-10-09 19:16:22</time>
      </trkpt>
      <trkpt lat="40.10018" lon="-1.74979">
        <ele>1183</ele>
        <time>2021-10-09 19:16:23</time>
      </trkpt>
      <trkpt lat="40.10018" lon="-1.74977">
        <ele>1183.2</ele>
        <time>2021-10-09 19:16:24</time>
      </trkpt>
      <trkpt lat="40.10018" lon="-1.74975">
        <ele>1183.4</ele>
        <time>2021-10-09 19:16:25</time>
      </trkpt>
      <trkpt lat="40.10018" lon="-1.74973">
        <ele>1183.6</ele>
        <time>2021-10-09 19:16:26</time>
      </trkpt>
      <trkpt lat="40.10018" lon="-1.7497">
        <ele>1184</ele>
        <time>2021-10-09 19:16:27</time>
      </trkpt>
      <trkpt lat="40.10017" lon="-1.74968">
        <ele>1184.2</ele>
        <time>2021-10-09 19:16:28</time>
      </trkpt>
      <trkpt lat="40.10017" lon="-1.74966">
        <ele>1184.4</ele>
        <time>2021-10-09 19:16:29</time>
      </trkpt>
      <trkpt lat="40.10017" lon="-1.74964">
        <ele>1184.4</ele>
        <time>2021-10-09 19:16:30</time>
      </trkpt>
      <trkpt lat="40.10016" lon="-1.74962">
        <ele>1184.8</ele>
        <time>2021-10-09 19:16:31</time>
      </trkpt>
      <trkpt lat="40.10016" lon="-1.7496">
        <ele>1185</ele>
        <time>2021-10-09 19:16:32</time>
      </trkpt>
      <trkpt lat="40.10015" lon="-1.74958">
        <ele>1185</ele>
        <time>2021-10-09 19:16:33</time>
      </trkpt>
      <trkpt lat="40.10015" lon="-1.74956">
        <ele>1185.4</ele>
        <time>2021-10-09 19:16:34</time>
      </trkpt>
      <trkpt lat="40.10014" lon="-1.74954">
        <ele>1185.4</ele>
        <time>2021-10-09 19:16:35</time>
      </trkpt>
      <trkpt lat="40.10014" lon="-1.74952">
        <ele>1185.6</ele>
        <time>2021-10-09 19:16:36</time>
      </trkpt>
      <trkpt lat="40.10013" lon="-1.7495">
        <ele>1185.6</ele>
        <time>2021-10-09 19:16:37</time>
      </trkpt>
      <trkpt lat="40.10013" lon="-1.74948">
        <ele>1186</ele>
        <time>2021-10-09 19:16:38</time>
      </trkpt>
      <trkpt lat="40.10013" lon="-1.74947">
        <ele>1186</ele>
        <time>2021-10-09 19:16:39</time>
      </trkpt>
      <trkpt lat="40.10012" lon="-1.74945">
        <ele>1186.2</ele>
        <time>2021-10-09 19:16:40</time>
      </trkpt>
      <trkpt lat="40.10012" lon="-1.74942">
        <ele>1186.2</ele>
        <time>2021-10-09 19:16:41</time>
      </trkpt>
      <trkpt lat="40.10011" lon="-1.74941">
        <ele>1186.4</ele>
        <time>2021-10-09 19:16:42</time>
      </trkpt>
      <trkpt lat="40.10011" lon="-1.74939">
        <ele>1186.4</ele>
        <time>2021-10-09 19:16:43</time>
      </trkpt>
      <trkpt lat="40.10011" lon="-1.74937">
        <ele>1186.8</ele>
        <time>2021-10-09 19:16:44</time>
      </trkpt>
      <trkpt lat="40.10011" lon="-1.74936">
        <ele>1186.8</ele>
        <time>2021-10-09 19:16:45</time>
      </trkpt>
      <trkpt lat="40.1001" lon="-1.74934">
        <ele>1187</ele>
        <time>2021-10-09 19:16:46</time>
      </trkpt>
      <trkpt lat="40.1001" lon="-1.74931">
        <ele>1187</ele>
        <time>2021-10-09 19:16:47</time>
      </trkpt>
      <trkpt lat="40.1001" lon="-1.74929">
        <ele>1187.4</ele>
        <time>2021-10-09 19:16:48</time>
      </trkpt>
      <trkpt lat="40.10009" lon="-1.74926">
        <ele>1187.4</ele>
        <time>2021-10-09 19:16:49</time>
      </trkpt>
      <trkpt lat="40.10009" lon="-1.74924">
        <ele>1187.8</ele>
        <time>2021-10-09 19:16:50</time>
      </trkpt>
      <trkpt lat="40.10009" lon="-1.74922">
        <ele>1187.8</ele>
        <time>2021-10-09 19:16:51</time>
      </trkpt>
      <trkpt lat="40.10009" lon="-1.7492">
        <ele>1188</ele>
        <time>2021-10-09 19:16:52</time>
      </trkpt>
      <trkpt lat="40.10008" lon="-1.74918">
        <ele>1188.2</ele>
        <time>2021-10-09 19:16:53</time>
      </trkpt>
      <trkpt lat="40.10008" lon="-1.74916">
        <ele>1188.2</ele>
        <time>2021-10-09 19:16:54</time>
      </trkpt>
      <trkpt lat="40.10007" lon="-1.74913">
        <ele>1188.4</ele>
        <time>2021-10-09 19:16:55</time>
      </trkpt>
      <trkpt lat="40.10007" lon="-1.74911">
        <ele>1188.4</ele>
        <time>2021-10-09 19:16:56</time>
      </trkpt>
      <trkpt lat="40.10006" lon="-1.74909">
        <ele>1188.8</ele>
        <time>2021-10-09 19:16:57</time>
      </trkpt>
      <trkpt lat="40.10005" lon="-1.74907">
        <ele>1188.8</ele>
        <time>2021-10-09 19:16:58</time>
      </trkpt>
      <trkpt lat="40.10004" lon="-1.74904">
        <ele>1189.2</ele>
        <time>2021-10-09 19:16:59</time>
      </trkpt>
      <trkpt lat="40.10003" lon="-1.74901">
        <ele>1189.2</ele>
        <time>2021-10-09 19:17:00</time>
      </trkpt>
      <trkpt lat="40.10002" lon="-1.74899">
        <ele>1189.6</ele>
        <time>2021-10-09 19:17:01</time>
      </trkpt>
      <trkpt lat="40.10001" lon="-1.74897">
        <ele>1189.6</ele>
        <time>2021-10-09 19:17:02</time>
      </trkpt>
      <trkpt lat="40.1" lon="-1.74894">
        <ele>1190</ele>
        <time>2021-10-09 19:17:03</time>
      </trkpt>
      <trkpt lat="40.09999" lon="-1.74892">
        <ele>1190</ele>
        <time>2021-10-09 19:17:04</time>
      </trkpt>
      <trkpt lat="40.09998" lon="-1.74889">
        <ele>1190.2</ele>
        <time>2021-10-09 19:17:05</time>
      </trkpt>
      <trkpt lat="40.09997" lon="-1.74887">
        <ele>1190.2</ele>
        <time>2021-10-09 19:17:06</time>
      </trkpt>
      <trkpt lat="40.09996" lon="-1.74884">
        <ele>1190.6</ele>
        <time>2021-10-09 19:17:07</time>
      </trkpt>
      <trkpt lat="40.09995" lon="-1.74881">
        <ele>1190.8</ele>
        <time>2021-10-09 19:17:08</time>
      </trkpt>
      <trkpt lat="40.09995" lon="-1.74878">
        <ele>1191</ele>
        <time>2021-10-09 19:17:09</time>
      </trkpt>
      <trkpt lat="40.09995" lon="-1.74875">
        <ele>1191</ele>
        <time>2021-10-09 19:17:10</time>
      </trkpt>
      <trkpt lat="40.09994" lon="-1.74873">
        <ele>1191.4</ele>
        <time>2021-10-09 19:17:11</time>
      </trkpt>
      <trkpt lat="40.09994" lon="-1.7487">
        <ele>1191.6</ele>
        <time>2021-10-09 19:17:12</time>
      </trkpt>
      <trkpt lat="40.09993" lon="-1.74867">
        <ele>1191.6</ele>
        <time>2021-10-09 19:17:13</time>
      </trkpt>
      <trkpt lat="40.09993" lon="-1.74864">
        <ele>1192</ele>
        <time>2021-10-09 19:17:14</time>
      </trkpt>
      <trkpt lat="40.09992" lon="-1.74862">
        <ele>1192</ele>
        <time>2021-10-09 19:17:15</time>
      </trkpt>
      <trkpt lat="40.09991" lon="-1.74859">
        <ele>1192.2</ele>
        <time>2021-10-09 19:17:16</time>
      </trkpt>
      <trkpt lat="40.09991" lon="-1.74857">
        <ele>1192.2</ele>
        <time>2021-10-09 19:17:17</time>
      </trkpt>
      <trkpt lat="40.0999" lon="-1.74855">
        <ele>1192.6</ele>
        <time>2021-10-09 19:17:18</time>
      </trkpt>
      <trkpt lat="40.0999" lon="-1.74853">
        <ele>1192.6</ele>
        <time>2021-10-09 19:17:19</time>
      </trkpt>
      <trkpt lat="40.09989" lon="-1.74851">
        <ele>1193</ele>
        <time>2021-10-09 19:17:20</time>
      </trkpt>
      <trkpt lat="40.09989" lon="-1.74849">
        <ele>1193</ele>
        <time>2021-10-09 19:17:21</time>
      </trkpt>
      <trkpt lat="40.09989" lon="-1.74846">
        <ele>1193.4</ele>
        <time>2021-10-09 19:17:22</time>
      </trkpt>
      <trkpt lat="40.09988" lon="-1.74845">
        <ele>1193.4</ele>
        <time>2021-10-09 19:17:23</time>
      </trkpt>
      <trkpt lat="40.09988" lon="-1.74842">
        <ele>1193.8</ele>
        <time>2021-10-09 19:17:24</time>
      </trkpt>
      <trkpt lat="40.09987" lon="-1.7484">
        <ele>1193.8</ele>
        <time>2021-10-09 19:17:25</time>
      </trkpt>
      <trkpt lat="40.09986" lon="-1.74838">
        <ele>1194.2</ele>
        <time>2021-10-09 19:17:26</time>
      </trkpt>
      <trkpt lat="40.09985" lon="-1.74836">
        <ele>1194.2</ele>
        <time>2021-10-09 19:17:27</time>
      </trkpt>
      <trkpt lat="40.09985" lon="-1.74833">
        <ele>1194.4</ele>
        <time>2021-10-09 19:17:28</time>
      </trkpt>
      <trkpt lat="40.09984" lon="-1.74831">
        <ele>1194.4</ele>
        <time>2021-10-09 19:17:29</time>
      </trkpt>
      <trkpt lat="40.09983" lon="-1.74829">
        <ele>1194.8</ele>
        <time>2021-10-09 19:17:30</time>
      </trkpt>
      <trkpt lat="40.09983" lon="-1.74826">
        <ele>1195</ele>
        <time>2021-10-09 19:17:31</time>
      </trkpt>
      <trkpt lat="40.09982" lon="-1.74824">
        <ele>1195.2</ele>
        <time>2021-10-09 19:17:32</time>
      </trkpt>
      <trkpt lat="40.09981" lon="-1.74821">
        <ele>1195.4</ele>
        <time>2021-10-09 19:17:33</time>
      </trkpt>
      <trkpt lat="40.0998" lon="-1.74818">
        <ele>1195.4</ele>
        <time>2021-10-09 19:17:34</time>
      </trkpt>
      <trkpt lat="40.0998" lon="-1.74816">
        <ele>1195.8</ele>
        <time>2021-10-09 19:17:35</time>
      </trkpt>
      <trkpt lat="40.09979" lon="-1.74814">
        <ele>1196</ele>
        <time>2021-10-09 19:17:36</time>
      </trkpt>
      <trkpt lat="40.09978" lon="-1.74811">
        <ele>1196.4</ele>
        <time>2021-10-09 19:17:37</time>
      </trkpt>
      <trkpt lat="40.09978" lon="-1.74809">
        <ele>1196.6</ele>
        <time>2021-10-09 19:17:38</time>
      </trkpt>
      <trkpt lat="40.09977" lon="-1.74806">
        <ele>1196.8</ele>
        <time>2021-10-09 19:17:39</time>
      </trkpt>
      <trkpt lat="40.09976" lon="-1.74803">
        <ele>1197</ele>
        <time>2021-10-09 19:17:40</time>
      </trkpt>
      <trkpt lat="40.09974" lon="-1.74801">
        <ele>1197.2</ele>
        <time>2021-10-09 19:17:41</time>
      </trkpt>
      <trkpt lat="40.09973" lon="-1.74799">
        <ele>1197.6</ele>
        <time>2021-10-09 19:17:42</time>
      </trkpt>
      <trkpt lat="40.09972" lon="-1.74797">
        <ele>1197.6</ele>
        <time>2021-10-09 19:17:43</time>
      </trkpt>
      <trkpt lat="40.09972" lon="-1.74794">
        <ele>1198</ele>
        <time>2021-10-09 19:17:44</time>
      </trkpt>
      <trkpt lat="40.09971" lon="-1.74792">
        <ele>1198.2</ele>
        <time>2021-10-09 19:17:45</time>
      </trkpt>
      <trkpt lat="40.0997" lon="-1.7479">
        <ele>1198.4</ele>
        <time>2021-10-09 19:17:46</time>
      </trkpt>
      <trkpt lat="40.09968" lon="-1.74788">
        <ele>1198.6</ele>
        <time>2021-10-09 19:17:47</time>
      </trkpt>
      <trkpt lat="40.09967" lon="-1.74785">
        <ele>1199</ele>
        <time>2021-10-09 19:17:48</time>
      </trkpt>
      <trkpt lat="40.09966" lon="-1.74783">
        <ele>1199</ele>
        <time>2021-10-09 19:17:49</time>
      </trkpt>
      <trkpt lat="40.09965" lon="-1.7478">
        <ele>1199.4</ele>
        <time>2021-10-09 19:17:50</time>
      </trkpt>
      <trkpt lat="40.09964" lon="-1.74777">
        <ele>1199.8</ele>
        <time>2021-10-09 19:17:51</time>
      </trkpt>
      <trkpt lat="40.09963" lon="-1.74774">
        <ele>1200</ele>
        <time>2021-10-09 19:17:52</time>
      </trkpt>
      <trkpt lat="40.09963" lon="-1.74773">
        <ele>1200.2</ele>
        <time>2021-10-09 19:17:53</time>
      </trkpt>
      <trkpt lat="40.09962" lon="-1.74771">
        <ele>1200.6</ele>
        <time>2021-10-09 19:17:54</time>
      </trkpt>
      <trkpt lat="40.09961" lon="-1.74769">
        <ele>1200.6</ele>
        <time>2021-10-09 19:17:55</time>
      </trkpt>
      <trkpt lat="40.0996" lon="-1.74767">
        <ele>1201</ele>
        <time>2021-10-09 19:17:56</time>
      </trkpt>
      <trkpt lat="40.09958" lon="-1.74765">
        <ele>1201.2</ele>
        <time>2021-10-09 19:17:57</time>
      </trkpt>
      <trkpt lat="40.09957" lon="-1.74762">
        <ele>1201.2</ele>
        <time>2021-10-09 19:17:58</time>
      </trkpt>
      <trkpt lat="40.09956" lon="-1.74761">
        <ele>1201.6</ele>
        <time>2021-10-09 19:17:59</time>
      </trkpt>
      <trkpt lat="40.09955" lon="-1.74759">
        <ele>1201.6</ele>
        <time>2021-10-09 19:18:00</time>
      </trkpt>
      <trkpt lat="40.09953" lon="-1.74755">
        <ele>1202</ele>
        <time>2021-10-09 19:18:01</time>
      </trkpt>
      <trkpt lat="40.09952" lon="-1.74753">
        <ele>1202.4</ele>
        <time>2021-10-09 19:18:02</time>
      </trkpt>
      <trkpt lat="40.09951" lon="-1.7475">
        <ele>1202.4</ele>
        <time>2021-10-09 19:18:03</time>
      </trkpt>
      <trkpt lat="40.0995" lon="-1.74748">
        <ele>1202.8</ele>
        <time>2021-10-09 19:18:04</time>
      </trkpt>
      <trkpt lat="40.09949" lon="-1.74747">
        <ele>1203</ele>
        <time>2021-10-09 19:18:05</time>
      </trkpt>
      <trkpt lat="40.09948" lon="-1.74744">
        <ele>1203.2</ele>
        <time>2021-10-09 19:18:06</time>
      </trkpt>
      <trkpt lat="40.09946" lon="-1.74742">
        <ele>1203.4</ele>
        <time>2021-10-09 19:18:07</time>
      </trkpt>
      <trkpt lat="40.09945" lon="-1.7474">
        <ele>1203.6</ele>
        <time>2021-10-09 19:18:08</time>
      </trkpt>
      <trkpt lat="40.09944" lon="-1.74738">
        <ele>1203.8</ele>
        <time>2021-10-09 19:18:09</time>
      </trkpt>
      <trkpt lat="40.09942" lon="-1.74735">
        <ele>1203.8</ele>
        <time>2021-10-09 19:18:10</time>
      </trkpt>
      <trkpt lat="40.09942" lon="-1.74734">
        <ele>1204.2</ele>
        <time>2021-10-09 19:18:11</time>
      </trkpt>
      <trkpt lat="40.0994" lon="-1.74732">
        <ele>1204.4</ele>
        <time>2021-10-09 19:18:12</time>
      </trkpt>
      <trkpt lat="40.09939" lon="-1.7473">
        <ele>1204.8</ele>
        <time>2021-10-09 19:18:13</time>
      </trkpt>
      <trkpt lat="40.09938" lon="-1.74728">
        <ele>1205</ele>
        <time>2021-10-09 19:18:14</time>
      </trkpt>
      <trkpt lat="40.09937" lon="-1.74726">
        <ele>1205.2</ele>
        <time>2021-10-09 19:18:15</time>
      </trkpt>
      <trkpt lat="40.09936" lon="-1.74724">
        <ele>1205.4</ele>
        <time>2021-10-09 19:18:16</time>
      </trkpt>
      <trkpt lat="40.09935" lon="-1.74722">
        <ele>1205.6</ele>
        <time>2021-10-09 19:18:17</time>
      </trkpt>
      <trkpt lat="40.09934" lon="-1.7472">
        <ele>1205.6</ele>
        <time>2021-10-09 19:18:18</time>
      </trkpt>
      <trkpt lat="40.09933" lon="-1.74718">
        <ele>1206</ele>
        <time>2021-10-09 19:18:19</time>
      </trkpt>
      <trkpt lat="40.09932" lon="-1.74717">
        <ele>1206</ele>
        <time>2021-10-09 19:18:20</time>
      </trkpt>
      <trkpt lat="40.09931" lon="-1.74715">
        <ele>1206.4</ele>
        <time>2021-10-09 19:18:21</time>
      </trkpt>
      <trkpt lat="40.09931" lon="-1.74713">
        <ele>1206.6</ele>
        <time>2021-10-09 19:18:22</time>
      </trkpt>
      <trkpt lat="40.0993" lon="-1.74711">
        <ele>1206.8</ele>
        <time>2021-10-09 19:18:23</time>
      </trkpt>
      <trkpt lat="40.09929" lon="-1.74708">
        <ele>1207</ele>
        <time>2021-10-09 19:18:24</time>
      </trkpt>
      <trkpt lat="40.09929" lon="-1.74706">
        <ele>1207</ele>
        <time>2021-10-09 19:18:25</time>
      </trkpt>
      <trkpt lat="40.09929" lon="-1.74704">
        <ele>1207.4</ele>
        <time>2021-10-09 19:18:26</time>
      </trkpt>
      <trkpt lat="40.09928" lon="-1.74702">
        <ele>1207.6</ele>
        <time>2021-10-09 19:18:27</time>
      </trkpt>
      <trkpt lat="40.09929" lon="-1.74699">
        <ele>1207.6</ele>
        <time>2021-10-09 19:18:28</time>
      </trkpt>
      <trkpt lat="40.09929" lon="-1.74697">
        <ele>1208</ele>
        <time>2021-10-09 19:18:29</time>
      </trkpt>
      <trkpt lat="40.0993" lon="-1.74694">
        <ele>1208.2</ele>
        <time>2021-10-09 19:18:30</time>
      </trkpt>
      <trkpt lat="40.0993" lon="-1.74692">
        <ele>1208.2</ele>
        <time>2021-10-09 19:18:31</time>
      </trkpt>
      <trkpt lat="40.0993" lon="-1.7469">
        <ele>1208.4</ele>
        <time>2021-10-09 19:18:32</time>
      </trkpt>
      <trkpt lat="40.0993" lon="-1.74687">
        <ele>1208.4</ele>
        <time>2021-10-09 19:18:33</time>
      </trkpt>
      <trkpt lat="40.0993" lon="-1.74685">
        <ele>1208.8</ele>
        <time>2021-10-09 19:18:34</time>
      </trkpt>
      <trkpt lat="40.0993" lon="-1.74683">
        <ele>1208.8</ele>
        <time>2021-10-09 19:18:35</time>
      </trkpt>
      <trkpt lat="40.0993" lon="-1.74681">
        <ele>1209.2</ele>
        <time>2021-10-09 19:18:36</time>
      </trkpt>
      <trkpt lat="40.0993" lon="-1.74678">
        <ele>1209.2</ele>
        <time>2021-10-09 19:18:37</time>
      </trkpt>
      <trkpt lat="40.0993" lon="-1.74676">
        <ele>1209.6</ele>
        <time>2021-10-09 19:18:38</time>
      </trkpt>
      <trkpt lat="40.0993" lon="-1.74674">
        <ele>1209.6</ele>
        <time>2021-10-09 19:18:39</time>
      </trkpt>
      <trkpt lat="40.0993" lon="-1.74672">
        <ele>1209.8</ele>
        <time>2021-10-09 19:18:40</time>
      </trkpt>
      <trkpt lat="40.0993" lon="-1.7467">
        <ele>1210.2</ele>
        <time>2021-10-09 19:18:41</time>
      </trkpt>
      <trkpt lat="40.0993" lon="-1.74668">
        <ele>1210</ele>
        <time>2021-10-09 19:18:42</time>
      </trkpt>
      <trkpt lat="40.0993" lon="-1.74666">
        <ele>1210.4</ele>
        <time>2021-10-09 19:18:43</time>
      </trkpt>
      <trkpt lat="40.0993" lon="-1.74664">
        <ele>1210.6</ele>
        <time>2021-10-09 19:18:44</time>
      </trkpt>
      <trkpt lat="40.0993" lon="-1.74662">
        <ele>1210.6</ele>
        <time>2021-10-09 19:18:45</time>
      </trkpt>
      <trkpt lat="40.0993" lon="-1.74659">
        <ele>1210.8</ele>
        <time>2021-10-09 19:18:46</time>
      </trkpt>
      <trkpt lat="40.0993" lon="-1.74657">
        <ele>1210.8</ele>
        <time>2021-10-09 19:18:47</time>
      </trkpt>
      <trkpt lat="40.0993" lon="-1.74655">
        <ele>1211.2</ele>
        <time>2021-10-09 19:18:48</time>
      </trkpt>
      <trkpt lat="40.0993" lon="-1.74653">
        <ele>1211.2</ele>
        <time>2021-10-09 19:18:49</time>
      </trkpt>
      <trkpt lat="40.0993" lon="-1.7465">
        <ele>1211.6</ele>
        <time>2021-10-09 19:18:50</time>
      </trkpt>
      <trkpt lat="40.0993" lon="-1.74648">
        <ele>1211.8</ele>
        <time>2021-10-09 19:18:51</time>
      </trkpt>
      <trkpt lat="40.0993" lon="-1.74646">
        <ele>1212</ele>
        <time>2021-10-09 19:18:52</time>
      </trkpt>
      <trkpt lat="40.0993" lon="-1.74643">
        <ele>1212</ele>
        <time>2021-10-09 19:18:53</time>
      </trkpt>
      <trkpt lat="40.0993" lon="-1.74641">
        <ele>1212.6</ele>
        <time>2021-10-09 19:18:54</time>
      </trkpt>
      <trkpt lat="40.0993" lon="-1.74639">
        <ele>1212.6</ele>
        <time>2021-10-09 19:18:55</time>
      </trkpt>
      <trkpt lat="40.09929" lon="-1.74636">
        <ele>1212.8</ele>
        <time>2021-10-09 19:18:56</time>
      </trkpt>
      <trkpt lat="40.09929" lon="-1.74634">
        <ele>1212.8</ele>
        <time>2021-10-09 19:18:57</time>
      </trkpt>
      <trkpt lat="40.0993" lon="-1.74632">
        <ele>1213.2</ele>
        <time>2021-10-09 19:18:58</time>
      </trkpt>
      <trkpt lat="40.0993" lon="-1.7463">
        <ele>1213.4</ele>
        <time>2021-10-09 19:18:59</time>
      </trkpt>
      <trkpt lat="40.0993" lon="-1.74628">
        <ele>1213.4</ele>
        <time>2021-10-09 19:19:00</time>
      </trkpt>
      <trkpt lat="40.09929" lon="-1.74626">
        <ele>1213.8</ele>
        <time>2021-10-09 19:19:01</time>
      </trkpt>
      <trkpt lat="40.09928" lon="-1.74624">
        <ele>1213.8</ele>
        <time>2021-10-09 19:19:02</time>
      </trkpt>
      <trkpt lat="40.09928" lon="-1.74622">
        <ele>1214</ele>
        <time>2021-10-09 19:19:03</time>
      </trkpt>
      <trkpt lat="40.09928" lon="-1.7462">
        <ele>1214</ele>
        <time>2021-10-09 19:19:04</time>
      </trkpt>
      <trkpt lat="40.09929" lon="-1.74618">
        <ele>1214.6</ele>
        <time>2021-10-09 19:19:05</time>
      </trkpt>
      <trkpt lat="40.0993" lon="-1.74616">
        <ele>1214.8</ele>
        <time>2021-10-09 19:19:06</time>
      </trkpt>
      <trkpt lat="40.0993" lon="-1.74614">
        <ele>1215</ele>
        <time>2021-10-09 19:19:07</time>
      </trkpt>
      <trkpt lat="40.09929" lon="-1.74612">
        <ele>1215.2</ele>
        <time>2021-10-09 19:19:08</time>
      </trkpt>
      <trkpt lat="40.09928" lon="-1.74609">
        <ele>1215.2</ele>
        <time>2021-10-09 19:19:09</time>
      </trkpt>
      <trkpt lat="40.09927" lon="-1.74607">
        <ele>1215.6</ele>
        <time>2021-10-09 19:19:10</time>
      </trkpt>
      <trkpt lat="40.09927" lon="-1.74605">
        <ele>1215.6</ele>
        <time>2021-10-09 19:19:11</time>
      </trkpt>
      <trkpt lat="40.09927" lon="-1.74603">
        <ele>1216</ele>
        <time>2021-10-09 19:19:12</time>
      </trkpt>
      <trkpt lat="40.09928" lon="-1.746">
        <ele>1216.2</ele>
        <time>2021-10-09 19:19:13</time>
      </trkpt>
      <trkpt lat="40.09928" lon="-1.74598">
        <ele>1216.2</ele>
        <time>2021-10-09 19:19:14</time>
      </trkpt>
      <trkpt lat="40.09927" lon="-1.74595">
        <ele>1216.4</ele>
        <time>2021-10-09 19:19:15</time>
      </trkpt>
      <trkpt lat="40.09925" lon="-1.74593">
        <ele>1216.4</ele>
        <time>2021-10-09 19:19:16</time>
      </trkpt>
      <trkpt lat="40.09923" lon="-1.74591">
        <ele>1216.8</ele>
        <time>2021-10-09 19:19:17</time>
      </trkpt>
      <trkpt lat="40.09923" lon="-1.74589">
        <ele>1217</ele>
        <time>2021-10-09 19:19:18</time>
      </trkpt>
      <trkpt lat="40.09922" lon="-1.74587">
        <ele>1217</ele>
        <time>2021-10-09 19:19:19</time>
      </trkpt>
      <trkpt lat="40.09922" lon="-1.74584">
        <ele>1217.4</ele>
        <time>2021-10-09 19:19:20</time>
      </trkpt>
      <trkpt lat="40.09921" lon="-1.74582">
        <ele>1217.4</ele>
        <time>2021-10-09 19:19:21</time>
      </trkpt>
      <trkpt lat="40.09921" lon="-1.74579">
        <ele>1217.8</ele>
        <time>2021-10-09 19:19:22</time>
      </trkpt>
      <trkpt lat="40.09922" lon="-1.74576">
        <ele>1217.8</ele>
        <time>2021-10-09 19:19:23</time>
      </trkpt>
      <trkpt lat="40.09923" lon="-1.74573">
        <ele>1218.2</ele>
        <time>2021-10-09 19:19:24</time>
      </trkpt>
      <trkpt lat="40.09923" lon="-1.74571">
        <ele>1218.4</ele>
        <time>2021-10-09 19:19:25</time>
      </trkpt>
      <trkpt lat="40.09923" lon="-1.74568">
        <ele>1218.6</ele>
        <time>2021-10-09 19:19:26</time>
      </trkpt>
      <trkpt lat="40.09922" lon="-1.74566">
        <ele>1218.6</ele>
        <time>2021-10-09 19:19:27</time>
      </trkpt>
      <trkpt lat="40.0992" lon="-1.74564">
        <ele>1219</ele>
        <time>2021-10-09 19:19:28</time>
      </trkpt>
      <trkpt lat="40.09918" lon="-1.74562">
        <ele>1219</ele>
        <time>2021-10-09 19:19:29</time>
      </trkpt>
      <trkpt lat="40.09917" lon="-1.74559">
        <ele>1219.4</ele>
        <time>2021-10-09 19:19:30</time>
      </trkpt>
      <trkpt lat="40.09917" lon="-1.74557">
        <ele>1219.4</ele>
        <time>2021-10-09 19:19:31</time>
      </trkpt>
      <trkpt lat="40.09917" lon="-1.74555">
        <ele>1219.6</ele>
        <time>2021-10-09 19:19:32</time>
      </trkpt>
      <trkpt lat="40.09918" lon="-1.74553">
        <ele>1219.6</ele>
        <time>2021-10-09 19:19:33</time>
      </trkpt>
      <trkpt lat="40.09917" lon="-1.7455">
        <ele>1220</ele>
        <time>2021-10-09 19:19:34</time>
      </trkpt>
      <trkpt lat="40.09916" lon="-1.74548">
        <ele>1220</ele>
        <time>2021-10-09 19:19:35</time>
      </trkpt>
      <trkpt lat="40.09915" lon="-1.74546">
        <ele>1220.2</ele>
        <time>2021-10-09 19:19:36</time>
      </trkpt>
      <trkpt lat="40.09914" lon="-1.74543">
        <ele>1220.2</ele>
        <time>2021-10-09 19:19:37</time>
      </trkpt>
      <trkpt lat="40.09915" lon="-1.74541">
        <ele>1220.4</ele>
        <time>2021-10-09 19:19:38</time>
      </trkpt>
      <trkpt lat="40.09916" lon="-1.74538">
        <ele>1220.4</ele>
        <time>2021-10-09 19:19:39</time>
      </trkpt>
      <trkpt lat="40.09916" lon="-1.74535">
        <ele>1220.8</ele>
        <time>2021-10-09 19:19:40</time>
      </trkpt>
      <trkpt lat="40.09915" lon="-1.74532">
        <ele>1220.8</ele>
        <time>2021-10-09 19:19:41</time>
      </trkpt>
      <trkpt lat="40.09913" lon="-1.74531">
        <ele>1221.2</ele>
        <time>2021-10-09 19:19:42</time>
      </trkpt>
      <trkpt lat="40.09912" lon="-1.74528">
        <ele>1221.2</ele>
        <time>2021-10-09 19:19:43</time>
      </trkpt>
      <trkpt lat="40.09913" lon="-1.74525">
        <ele>1221.4</ele>
        <time>2021-10-09 19:19:44</time>
      </trkpt>
      <trkpt lat="40.09914" lon="-1.74522">
        <ele>1221.4</ele>
        <time>2021-10-09 19:19:45</time>
      </trkpt>
      <trkpt lat="40.09914" lon="-1.74519">
        <ele>1221.4</ele>
        <time>2021-10-09 19:19:46</time>
      </trkpt>
      <trkpt lat="40.09913" lon="-1.74517">
        <ele>1221.8</ele>
        <time>2021-10-09 19:19:47</time>
      </trkpt>
      <trkpt lat="40.09911" lon="-1.74516">
        <ele>1222</ele>
        <time>2021-10-09 19:19:48</time>
      </trkpt>
      <trkpt lat="40.0991" lon="-1.74514">
        <ele>1222</ele>
        <time>2021-10-09 19:19:49</time>
      </trkpt>
      <trkpt lat="40.0991" lon="-1.74511">
        <ele>1222.4</ele>
        <time>2021-10-09 19:19:50</time>
      </trkpt>
      <trkpt lat="40.0991" lon="-1.74509">
        <ele>1222.4</ele>
        <time>2021-10-09 19:19:51</time>
      </trkpt>
      <trkpt lat="40.0991" lon="-1.74506">
        <ele>1222.6</ele>
        <time>2021-10-09 19:19:52</time>
      </trkpt>
      <trkpt lat="40.09908" lon="-1.74504">
        <ele>1222.8</ele>
        <time>2021-10-09 19:19:53</time>
      </trkpt>
      <trkpt lat="40.09906" lon="-1.74502">
        <ele>1222.8</ele>
        <time>2021-10-09 19:19:54</time>
      </trkpt>
      <trkpt lat="40.09905" lon="-1.745">
        <ele>1223.2</ele>
        <time>2021-10-09 19:19:55</time>
      </trkpt>
      <trkpt lat="40.09904" lon="-1.74498">
        <ele>1223.2</ele>
        <time>2021-10-09 19:19:56</time>
      </trkpt>
      <trkpt lat="40.09904" lon="-1.74496">
        <ele>1223.6</ele>
        <time>2021-10-09 19:19:57</time>
      </trkpt>
      <trkpt lat="40.09903" lon="-1.74494">
        <ele>1223.6</ele>
        <time>2021-10-09 19:19:58</time>
      </trkpt>
      <trkpt lat="40.09903" lon="-1.74491">
        <ele>1223.8</ele>
        <time>2021-10-09 19:19:59</time>
      </trkpt>
      <trkpt lat="40.09903" lon="-1.74489">
        <ele>1223.8</ele>
        <time>2021-10-09 19:20:00</time>
      </trkpt>
      <trkpt lat="40.09904" lon="-1.74484">
        <ele>1224.2</ele>
        <time>2021-10-09 19:20:01</time>
      </trkpt>
      <trkpt lat="40.09904" lon="-1.74482">
        <ele>1224.4</ele>
        <time>2021-10-09 19:20:02</time>
      </trkpt>
      <trkpt lat="40.09903" lon="-1.74481">
        <ele>1224.4</ele>
        <time>2021-10-09 19:20:03</time>
      </trkpt>
      <trkpt lat="40.09901" lon="-1.74479">
        <ele>1224.8</ele>
        <time>2021-10-09 19:20:04</time>
      </trkpt>
      <trkpt lat="40.099" lon="-1.74477">
        <ele>1224.8</ele>
        <time>2021-10-09 19:20:05</time>
      </trkpt>
      <trkpt lat="40.09899" lon="-1.74475">
        <ele>1225</ele>
        <time>2021-10-09 19:20:06</time>
      </trkpt>
      <trkpt lat="40.09898" lon="-1.74473">
        <ele>1225.2</ele>
        <time>2021-10-09 19:20:07</time>
      </trkpt>
      <trkpt lat="40.09897" lon="-1.74471">
        <ele>1225.2</ele>
        <time>2021-10-09 19:20:08</time>
      </trkpt>
      <trkpt lat="40.09896" lon="-1.74469">
        <ele>1225.6</ele>
        <time>2021-10-09 19:20:09</time>
      </trkpt>
      <trkpt lat="40.09895" lon="-1.74467">
        <ele>1225.6</ele>
        <time>2021-10-09 19:20:10</time>
      </trkpt>
      <trkpt lat="40.09895" lon="-1.74465">
        <ele>1226</ele>
        <time>2021-10-09 19:20:11</time>
      </trkpt>
      <trkpt lat="40.09894" lon="-1.74463">
        <ele>1226</ele>
        <time>2021-10-09 19:20:12</time>
      </trkpt>
      <trkpt lat="40.09894" lon="-1.74461">
        <ele>1226.4</ele>
        <time>2021-10-09 19:20:13</time>
      </trkpt>
      <trkpt lat="40.09894" lon="-1.74459">
        <ele>1226.4</ele>
        <time>2021-10-09 19:20:14</time>
      </trkpt>
      <trkpt lat="40.09895" lon="-1.74457">
        <ele>1226.6</ele>
        <time>2021-10-09 19:20:15</time>
      </trkpt>
      <trkpt lat="40.09895" lon="-1.74454">
        <ele>1226.6</ele>
        <time>2021-10-09 19:20:16</time>
      </trkpt>
      <trkpt lat="40.09894" lon="-1.74452">
        <ele>1227</ele>
        <time>2021-10-09 19:20:17</time>
      </trkpt>
      <trkpt lat="40.09893" lon="-1.74451">
        <ele>1227</ele>
        <time>2021-10-09 19:20:18</time>
      </trkpt>
      <trkpt lat="40.09891" lon="-1.7445">
        <ele>1227.4</ele>
        <time>2021-10-09 19:20:19</time>
      </trkpt>
      <trkpt lat="40.0989" lon="-1.74448">
        <ele>1227.4</ele>
        <time>2021-10-09 19:20:20</time>
      </trkpt>
      <trkpt lat="40.09891" lon="-1.74444">
        <ele>1227.6</ele>
        <time>2021-10-09 19:20:21</time>
      </trkpt>
      <trkpt lat="40.09891" lon="-1.74441">
        <ele>1227.6</ele>
        <time>2021-10-09 19:20:22</time>
      </trkpt>
      <trkpt lat="40.09891" lon="-1.74439">
        <ele>1228</ele>
        <time>2021-10-09 19:20:23</time>
      </trkpt>
      <trkpt lat="40.0989" lon="-1.74437">
        <ele>1228</ele>
        <time>2021-10-09 19:20:24</time>
      </trkpt>
      <trkpt lat="40.09889" lon="-1.74435">
        <ele>1228.2</ele>
        <time>2021-10-09 19:20:25</time>
      </trkpt>
      <trkpt lat="40.09888" lon="-1.74434">
        <ele>1228.2</ele>
        <time>2021-10-09 19:20:26</time>
      </trkpt>
      <trkpt lat="40.09887" lon="-1.74431">
        <ele>1228.4</ele>
        <time>2021-10-09 19:20:27</time>
      </trkpt>
      <trkpt lat="40.09887" lon="-1.74429">
        <ele>1228.4</ele>
        <time>2021-10-09 19:20:28</time>
      </trkpt>
      <trkpt lat="40.09886" lon="-1.74427">
        <ele>1228.6</ele>
        <time>2021-10-09 19:20:29</time>
      </trkpt>
      <trkpt lat="40.09885" lon="-1.74425">
        <ele>1228.6</ele>
        <time>2021-10-09 19:20:30</time>
      </trkpt>
      <trkpt lat="40.09885" lon="-1.74423">
        <ele>1229</ele>
        <time>2021-10-09 19:20:31</time>
      </trkpt>
      <trkpt lat="40.09884" lon="-1.74422">
        <ele>1229.2</ele>
        <time>2021-10-09 19:20:32</time>
      </trkpt>
      <trkpt lat="40.09884" lon="-1.7442">
        <ele>1229.2</ele>
        <time>2021-10-09 19:20:33</time>
      </trkpt>
      <trkpt lat="40.09883" lon="-1.74418">
        <ele>1229.4</ele>
        <time>2021-10-09 19:20:34</time>
      </trkpt>
      <trkpt lat="40.09883" lon="-1.74416">
        <ele>1229.4</ele>
        <time>2021-10-09 19:20:35</time>
      </trkpt>
      <trkpt lat="40.09882" lon="-1.74414">
        <ele>1229.8</ele>
        <time>2021-10-09 19:20:36</time>
      </trkpt>
      <trkpt lat="40.09882" lon="-1.74412">
        <ele>1229.8</ele>
        <time>2021-10-09 19:20:37</time>
      </trkpt>
      <trkpt lat="40.09881" lon="-1.74409">
        <ele>1230</ele>
        <time>2021-10-09 19:20:38</time>
      </trkpt>
      <trkpt lat="40.09881" lon="-1.74407">
        <ele>1230</ele>
        <time>2021-10-09 19:20:39</time>
      </trkpt>
      <trkpt lat="40.09881" lon="-1.74404">
        <ele>1230.2</ele>
        <time>2021-10-09 19:20:40</time>
      </trkpt>
      <trkpt lat="40.09881" lon="-1.74402">
        <ele>1230.2</ele>
        <time>2021-10-09 19:20:41</time>
      </trkpt>
      <trkpt lat="40.0988" lon="-1.744">
        <ele>1230.4</ele>
        <time>2021-10-09 19:20:42</time>
      </trkpt>
      <trkpt lat="40.09879" lon="-1.74397">
        <ele>1230.4</ele>
        <time>2021-10-09 19:20:43</time>
      </trkpt>
      <trkpt lat="40.09878" lon="-1.74395">
        <ele>1230.6</ele>
        <time>2021-10-09 19:20:44</time>
      </trkpt>
      <trkpt lat="40.09877" lon="-1.74393">
        <ele>1230.6</ele>
        <time>2021-10-09 19:20:45</time>
      </trkpt>
      <trkpt lat="40.09877" lon="-1.7439">
        <ele>1230.8</ele>
        <time>2021-10-09 19:20:46</time>
      </trkpt>
      <trkpt lat="40.09876" lon="-1.74387">
        <ele>1230.8</ele>
        <time>2021-10-09 19:20:47</time>
      </trkpt>
      <trkpt lat="40.09876" lon="-1.74385">
        <ele>1231</ele>
        <time>2021-10-09 19:20:48</time>
      </trkpt>
      <trkpt lat="40.09875" lon="-1.74383">
        <ele>1231</ele>
        <time>2021-10-09 19:20:49</time>
      </trkpt>
      <trkpt lat="40.09874" lon="-1.7438">
        <ele>1231.2</ele>
        <time>2021-10-09 19:20:50</time>
      </trkpt>
      <trkpt lat="40.09874" lon="-1.74378">
        <ele>1231.2</ele>
        <time>2021-10-09 19:20:51</time>
      </trkpt>
      <trkpt lat="40.09873" lon="-1.74375">
        <ele>1231.6</ele>
        <time>2021-10-09 19:20:52</time>
      </trkpt>
      <trkpt lat="40.09873" lon="-1.74373">
        <ele>1231.6</ele>
        <time>2021-10-09 19:20:53</time>
      </trkpt>
      <trkpt lat="40.09872" lon="-1.7437">
        <ele>1231.6</ele>
        <time>2021-10-09 19:20:54</time>
      </trkpt>
      <trkpt lat="40.09872" lon="-1.74368">
        <ele>1231.8</ele>
        <time>2021-10-09 19:20:55</time>
      </trkpt>
      <trkpt lat="40.09872" lon="-1.74366">
        <ele>1231.8</ele>
        <time>2021-10-09 19:20:56</time>
      </trkpt>
      <trkpt lat="40.09872" lon="-1.74363">
        <ele>1231.8</ele>
        <time>2021-10-09 19:20:57</time>
      </trkpt>
      <trkpt lat="40.09871" lon="-1.7436">
        <ele>1232.2</ele>
        <time>2021-10-09 19:20:58</time>
      </trkpt>
      <trkpt lat="40.09871" lon="-1.74358">
        <ele>1232.2</ele>
        <time>2021-10-09 19:20:59</time>
      </trkpt>
      <trkpt lat="40.0987" lon="-1.74355">
        <ele>1232.2</ele>
        <time>2021-10-09 19:21:00</time>
      </trkpt>
      <trkpt lat="40.0987" lon="-1.74353">
        <ele>1232.2</ele>
        <time>2021-10-09 19:21:01</time>
      </trkpt>
      <trkpt lat="40.09869" lon="-1.7435">
        <ele>1232.4</ele>
        <time>2021-10-09 19:21:02</time>
      </trkpt>
      <trkpt lat="40.09869" lon="-1.74348">
        <ele>1232.4</ele>
        <time>2021-10-09 19:21:03</time>
      </trkpt>
      <trkpt lat="40.09869" lon="-1.74345">
        <ele>1232.4</ele>
        <time>2021-10-09 19:21:04</time>
      </trkpt>
      <trkpt lat="40.09869" lon="-1.74343">
        <ele>1232.6</ele>
        <time>2021-10-09 19:21:05</time>
      </trkpt>
      <trkpt lat="40.09868" lon="-1.7434">
        <ele>1232.6</ele>
        <time>2021-10-09 19:21:06</time>
      </trkpt>
      <trkpt lat="40.09868" lon="-1.74338">
        <ele>1232.6</ele>
        <time>2021-10-09 19:21:07</time>
      </trkpt>
      <trkpt lat="40.09868" lon="-1.74335">
        <ele>1232.8</ele>
        <time>2021-10-09 19:21:08</time>
      </trkpt>
      <trkpt lat="40.09867" lon="-1.74333">
        <ele>1232.8</ele>
        <time>2021-10-09 19:21:09</time>
      </trkpt>
      <trkpt lat="40.09866" lon="-1.7433">
        <ele>1232.8</ele>
        <time>2021-10-09 19:21:10</time>
      </trkpt>
      <trkpt lat="40.09865" lon="-1.74328">
        <ele>1233.2</ele>
        <time>2021-10-09 19:21:11</time>
      </trkpt>
      <trkpt lat="40.09865" lon="-1.74325">
        <ele>1233.2</ele>
        <time>2021-10-09 19:21:12</time>
      </trkpt>
      <trkpt lat="40.09864" lon="-1.74323">
        <ele>1233.2</ele>
        <time>2021-10-09 19:21:13</time>
      </trkpt>
      <trkpt lat="40.09863" lon="-1.7432">
        <ele>1233.4</ele>
        <time>2021-10-09 19:21:14</time>
      </trkpt>
      <trkpt lat="40.09862" lon="-1.74318">
        <ele>1233.4</ele>
        <time>2021-10-09 19:21:15</time>
      </trkpt>
      <trkpt lat="40.09862" lon="-1.74316">
        <ele>1233.4</ele>
        <time>2021-10-09 19:21:16</time>
      </trkpt>
      <trkpt lat="40.09862" lon="-1.74314">
        <ele>1233.6</ele>
        <time>2021-10-09 19:21:17</time>
      </trkpt>
      <trkpt lat="40.09862" lon="-1.74311">
        <ele>1233.6</ele>
        <time>2021-10-09 19:21:18</time>
      </trkpt>
      <trkpt lat="40.09862" lon="-1.74309">
        <ele>1233.6</ele>
        <time>2021-10-09 19:21:19</time>
      </trkpt>
      <trkpt lat="40.09861" lon="-1.74306">
        <ele>1234</ele>
        <time>2021-10-09 19:21:20</time>
      </trkpt>
      <trkpt lat="40.09861" lon="-1.74304">
        <ele>1234</ele>
        <time>2021-10-09 19:21:21</time>
      </trkpt>
      <trkpt lat="40.09861" lon="-1.74302">
        <ele>1234</ele>
        <time>2021-10-09 19:21:22</time>
      </trkpt>
      <trkpt lat="40.09861" lon="-1.743">
        <ele>1234.2</ele>
        <time>2021-10-09 19:21:23</time>
      </trkpt>
      <trkpt lat="40.0986" lon="-1.74297">
        <ele>1234.2</ele>
        <time>2021-10-09 19:21:24</time>
      </trkpt>
      <trkpt lat="40.0986" lon="-1.74293">
        <ele>1234.2</ele>
        <time>2021-10-09 19:21:25</time>
      </trkpt>
      <trkpt lat="40.0986" lon="-1.74291">
        <ele>1234.4</ele>
        <time>2021-10-09 19:21:26</time>
      </trkpt>
      <trkpt lat="40.0986" lon="-1.74288">
        <ele>1234.4</ele>
        <time>2021-10-09 19:21:27</time>
      </trkpt>
      <trkpt lat="40.0986" lon="-1.74285">
        <ele>1234.8</ele>
        <time>2021-10-09 19:21:28</time>
      </trkpt>
      <trkpt lat="40.0986" lon="-1.74282">
        <ele>1234.8</ele>
        <time>2021-10-09 19:21:29</time>
      </trkpt>
      <trkpt lat="40.0986" lon="-1.74279">
        <ele>1234.8</ele>
        <time>2021-10-09 19:21:30</time>
      </trkpt>
      <trkpt lat="40.0986" lon="-1.74276">
        <ele>1235</ele>
        <time>2021-10-09 19:21:31</time>
      </trkpt>
      <trkpt lat="40.0986" lon="-1.74273">
        <ele>1235</ele>
        <time>2021-10-09 19:21:32</time>
      </trkpt>
      <trkpt lat="40.0986" lon="-1.7427">
        <ele>1235.2</ele>
        <time>2021-10-09 19:21:33</time>
      </trkpt>
      <trkpt lat="40.0986" lon="-1.74267">
        <ele>1235.2</ele>
        <time>2021-10-09 19:21:34</time>
      </trkpt>
      <trkpt lat="40.09859" lon="-1.74264">
        <ele>1235.2</ele>
        <time>2021-10-09 19:21:35</time>
      </trkpt>
      <trkpt lat="40.09859" lon="-1.74262">
        <ele>1235.6</ele>
        <time>2021-10-09 19:21:36</time>
      </trkpt>
      <trkpt lat="40.09858" lon="-1.74259">
        <ele>1235.6</ele>
        <time>2021-10-09 19:21:37</time>
      </trkpt>
      <trkpt lat="40.09858" lon="-1.74259">
        <ele>1235.8</ele>
        <time>2021-10-09 19:21:38</time>
      </trkpt>
      <trkpt lat="40.09858" lon="-1.74254">
        <ele>1235.8</ele>
        <time>2021-10-09 19:21:39</time>
      </trkpt>
      <trkpt lat="40.09858" lon="-1.74251">
        <ele>1235.8</ele>
        <time>2021-10-09 19:21:40</time>
      </trkpt>
      <trkpt lat="40.09858" lon="-1.74251">
        <ele>1236</ele>
        <time>2021-10-09 19:21:41</time>
      </trkpt>
      <trkpt lat="40.09858" lon="-1.74248">
        <ele>1236</ele>
        <time>2021-10-09 19:21:42</time>
      </trkpt>
      <trkpt lat="40.09858" lon="-1.74246">
        <ele>1236.2</ele>
        <time>2021-10-09 19:21:43</time>
      </trkpt>
      <trkpt lat="40.09859" lon="-1.74243">
        <ele>1236.2</ele>
        <time>2021-10-09 19:21:44</time>
      </trkpt>
      <trkpt lat="40.09859" lon="-1.7424">
        <ele>1236.4</ele>
        <time>2021-10-09 19:21:45</time>
      </trkpt>
      <trkpt lat="40.0986" lon="-1.74237">
        <ele>1236.4</ele>
        <time>2021-10-09 19:21:46</time>
      </trkpt>
      <trkpt lat="40.0986" lon="-1.74234">
        <ele>1236.4</ele>
        <time>2021-10-09 19:21:47</time>
      </trkpt>
      <trkpt lat="40.0986" lon="-1.74232">
        <ele>1236.6</ele>
        <time>2021-10-09 19:21:48</time>
      </trkpt>
      <trkpt lat="40.0986" lon="-1.74229">
        <ele>1236.6</ele>
        <time>2021-10-09 19:21:49</time>
      </trkpt>
      <trkpt lat="40.0986" lon="-1.74226">
        <ele>1236.6</ele>
        <time>2021-10-09 19:21:50</time>
      </trkpt>
      <trkpt lat="40.0986" lon="-1.74224">
        <ele>1237</ele>
        <time>2021-10-09 19:21:51</time>
      </trkpt>
      <trkpt lat="40.0986" lon="-1.74221">
        <ele>1237</ele>
        <time>2021-10-09 19:21:52</time>
      </trkpt>
      <trkpt lat="40.0986" lon="-1.74218">
        <ele>1237.2</ele>
        <time>2021-10-09 19:21:53</time>
      </trkpt>
      <trkpt lat="40.09861" lon="-1.74216">
        <ele>1237.2</ele>
        <time>2021-10-09 19:21:54</time>
      </trkpt>
      <trkpt lat="40.09861" lon="-1.74213">
        <ele>1237.2</ele>
        <time>2021-10-09 19:21:55</time>
      </trkpt>
      <trkpt lat="40.09861" lon="-1.7421">
        <ele>1237.4</ele>
        <time>2021-10-09 19:21:56</time>
      </trkpt>
      <trkpt lat="40.09862" lon="-1.74207">
        <ele>1237.4</ele>
        <time>2021-10-09 19:21:57</time>
      </trkpt>
      <trkpt lat="40.09862" lon="-1.74204">
        <ele>1237.8</ele>
        <time>2021-10-09 19:21:58</time>
      </trkpt>
      <trkpt lat="40.09862" lon="-1.74202">
        <ele>1237.8</ele>
        <time>2021-10-09 19:21:59</time>
      </trkpt>
      <trkpt lat="40.09863" lon="-1.74199">
        <ele>1238</ele>
        <time>2021-10-09 19:22:00</time>
      </trkpt>
      <trkpt lat="40.09863" lon="-1.74197">
        <ele>1238</ele>
        <time>2021-10-09 19:22:01</time>
      </trkpt>
      <trkpt lat="40.09863" lon="-1.74195">
        <ele>1238.4</ele>
        <time>2021-10-09 19:22:02</time>
      </trkpt>
      <trkpt lat="40.09863" lon="-1.74194">
        <ele>1238.4</ele>
        <time>2021-10-09 19:22:03</time>
      </trkpt>
      <trkpt lat="40.09863" lon="-1.74191">
        <ele>1238.6</ele>
        <time>2021-10-09 19:22:04</time>
      </trkpt>
      <trkpt lat="40.09863" lon="-1.74189">
        <ele>1238.6</ele>
        <time>2021-10-09 19:22:05</time>
      </trkpt>
      <trkpt lat="40.09863" lon="-1.74187">
        <ele>1238.8</ele>
        <time>2021-10-09 19:22:06</time>
      </trkpt>
      <trkpt lat="40.09863" lon="-1.74186">
        <ele>1238.8</ele>
        <time>2021-10-09 19:22:07</time>
      </trkpt>
      <trkpt lat="40.09864" lon="-1.74184">
        <ele>1239.2</ele>
        <time>2021-10-09 19:22:08</time>
      </trkpt>
      <trkpt lat="40.09864" lon="-1.74182">
        <ele>1239.2</ele>
        <time>2021-10-09 19:22:09</time>
      </trkpt>
      <trkpt lat="40.09864" lon="-1.7418">
        <ele>1239.4</ele>
        <time>2021-10-09 19:22:10</time>
      </trkpt>
      <trkpt lat="40.09864" lon="-1.74177">
        <ele>1239.4</ele>
        <time>2021-10-09 19:22:11</time>
      </trkpt>
      <trkpt lat="40.09864" lon="-1.74175">
        <ele>1239.6</ele>
        <time>2021-10-09 19:22:12</time>
      </trkpt>
      <trkpt lat="40.09863" lon="-1.74172">
        <ele>1239.8</ele>
        <time>2021-10-09 19:22:13</time>
      </trkpt>
      <trkpt lat="40.09863" lon="-1.74169">
        <ele>1239.8</ele>
        <time>2021-10-09 19:22:14</time>
      </trkpt>
      <trkpt lat="40.09863" lon="-1.74166">
        <ele>1240.2</ele>
        <time>2021-10-09 19:22:15</time>
      </trkpt>
      <trkpt lat="40.09862" lon="-1.74164">
        <ele>1240.4</ele>
        <time>2021-10-09 19:22:16</time>
      </trkpt>
      <trkpt lat="40.09862" lon="-1.74161">
        <ele>1240.4</ele>
        <time>2021-10-09 19:22:17</time>
      </trkpt>
      <trkpt lat="40.09861" lon="-1.74158">
        <ele>1240.8</ele>
        <time>2021-10-09 19:22:18</time>
      </trkpt>
      <trkpt lat="40.09861" lon="-1.74156">
        <ele>1240.8</ele>
        <time>2021-10-09 19:22:19</time>
      </trkpt>
      <trkpt lat="40.0986" lon="-1.74154">
        <ele>1241.2</ele>
        <time>2021-10-09 19:22:20</time>
      </trkpt>
      <trkpt lat="40.09859" lon="-1.74152">
        <ele>1241.2</ele>
        <time>2021-10-09 19:22:21</time>
      </trkpt>
      <trkpt lat="40.09858" lon="-1.7415">
        <ele>1241.6</ele>
        <time>2021-10-09 19:22:22</time>
      </trkpt>
      <trkpt lat="40.09857" lon="-1.74147">
        <ele>1241.6</ele>
        <time>2021-10-09 19:22:23</time>
      </trkpt>
      <trkpt lat="40.09855" lon="-1.74144">
        <ele>1241.8</ele>
        <time>2021-10-09 19:22:24</time>
      </trkpt>
      <trkpt lat="40.09854" lon="-1.74142">
        <ele>1242</ele>
        <time>2021-10-09 19:22:25</time>
      </trkpt>
      <trkpt lat="40.09852" lon="-1.74139">
        <ele>1242</ele>
        <time>2021-10-09 19:22:26</time>
      </trkpt>
      <trkpt lat="40.09851" lon="-1.74136">
        <ele>1242.4</ele>
        <time>2021-10-09 19:22:27</time>
      </trkpt>
      <trkpt lat="40.09849" lon="-1.74134">
        <ele>1242.8</ele>
        <time>2021-10-09 19:22:28</time>
      </trkpt>
      <trkpt lat="40.09848" lon="-1.74132">
        <ele>1243</ele>
        <time>2021-10-09 19:22:29</time>
      </trkpt>
      <trkpt lat="40.09846" lon="-1.7413">
        <ele>1243</ele>
        <time>2021-10-09 19:22:30</time>
      </trkpt>
      <trkpt lat="40.09845" lon="-1.74128">
        <ele>1243.2</ele>
        <time>2021-10-09 19:22:31</time>
      </trkpt>
      <trkpt lat="40.09844" lon="-1.74126">
        <ele>1243.2</ele>
        <time>2021-10-09 19:22:32</time>
      </trkpt>
      <trkpt lat="40.09843" lon="-1.74123">
        <ele>1243.6</ele>
        <time>2021-10-09 19:22:33</time>
      </trkpt>
      <trkpt lat="40.09842" lon="-1.74121">
        <ele>1243.6</ele>
        <time>2021-10-09 19:22:34</time>
      </trkpt>
      <trkpt lat="40.0984" lon="-1.74119">
        <ele>1244</ele>
        <time>2021-10-09 19:22:35</time>
      </trkpt>
      <trkpt lat="40.09839" lon="-1.74116">
        <ele>1244.2</ele>
        <time>2021-10-09 19:22:36</time>
      </trkpt>
      <trkpt lat="40.09837" lon="-1.74115">
        <ele>1244.2</ele>
        <time>2021-10-09 19:22:37</time>
      </trkpt>
      <trkpt lat="40.09836" lon="-1.74112">
        <ele>1244.6</ele>
        <time>2021-10-09 19:22:38</time>
      </trkpt>
      <trkpt lat="40.09835" lon="-1.7411">
        <ele>1244.6</ele>
        <time>2021-10-09 19:22:39</time>
      </trkpt>
      <trkpt lat="40.09834" lon="-1.74109">
        <ele>1245</ele>
        <time>2021-10-09 19:22:40</time>
      </trkpt>
      <trkpt lat="40.09833" lon="-1.74107">
        <ele>1245</ele>
        <time>2021-10-09 19:22:41</time>
      </trkpt>
      <trkpt lat="40.09831" lon="-1.74105">
        <ele>1245.4</ele>
        <time>2021-10-09 19:22:42</time>
      </trkpt>
      <trkpt lat="40.0983" lon="-1.74103">
        <ele>1245.4</ele>
        <time>2021-10-09 19:22:43</time>
      </trkpt>
      <trkpt lat="40.09829" lon="-1.74101">
        <ele>1245.8</ele>
        <time>2021-10-09 19:22:44</time>
      </trkpt>
      <trkpt lat="40.09828" lon="-1.74099">
        <ele>1245.8</ele>
        <time>2021-10-09 19:22:45</time>
      </trkpt>
      <trkpt lat="40.09826" lon="-1.74097">
        <ele>1246.2</ele>
        <time>2021-10-09 19:22:46</time>
      </trkpt>
      <trkpt lat="40.09825" lon="-1.74095">
        <ele>1246.4</ele>
        <time>2021-10-09 19:22:47</time>
      </trkpt>
      <trkpt lat="40.09824" lon="-1.74093">
        <ele>1246.6</ele>
        <time>2021-10-09 19:22:48</time>
      </trkpt>
      <trkpt lat="40.09823" lon="-1.74091">
        <ele>1246.6</ele>
        <time>2021-10-09 19:22:49</time>
      </trkpt>
      <trkpt lat="40.09821" lon="-1.74089">
        <ele>1246.8</ele>
        <time>2021-10-09 19:22:50</time>
      </trkpt>
      <trkpt lat="40.0982" lon="-1.74087">
        <ele>1246.8</ele>
        <time>2021-10-09 19:22:51</time>
      </trkpt>
      <trkpt lat="40.09819" lon="-1.74085">
        <ele>1247.2</ele>
        <time>2021-10-09 19:22:52</time>
      </trkpt>
      <trkpt lat="40.09818" lon="-1.74083">
        <ele>1247.2</ele>
        <time>2021-10-09 19:22:53</time>
      </trkpt>
      <trkpt lat="40.09817" lon="-1.74081">
        <ele>1247.4</ele>
        <time>2021-10-09 19:22:54</time>
      </trkpt>
      <trkpt lat="40.09815" lon="-1.74079">
        <ele>1247.4</ele>
        <time>2021-10-09 19:22:55</time>
      </trkpt>
      <trkpt lat="40.09814" lon="-1.74077">
        <ele>1247.6</ele>
        <time>2021-10-09 19:22:56</time>
      </trkpt>
      <trkpt lat="40.09813" lon="-1.74075">
        <ele>1247.6</ele>
        <time>2021-10-09 19:22:57</time>
      </trkpt>
      <trkpt lat="40.09811" lon="-1.74073">
        <ele>1248</ele>
        <time>2021-10-09 19:22:58</time>
      </trkpt>
      <trkpt lat="40.0981" lon="-1.7407">
        <ele>1248.4</ele>
        <time>2021-10-09 19:22:59</time>
      </trkpt>
      <trkpt lat="40.09808" lon="-1.74068">
        <ele>1248.4</ele>
        <time>2021-10-09 19:23:00</time>
      </trkpt>
      <trkpt lat="40.09807" lon="-1.74066">
        <ele>1248.6</ele>
        <time>2021-10-09 19:23:01</time>
      </trkpt>
      <trkpt lat="40.09806" lon="-1.74064">
        <ele>1248.6</ele>
        <time>2021-10-09 19:23:02</time>
      </trkpt>
      <trkpt lat="40.09805" lon="-1.74062">
        <ele>1249.2</ele>
        <time>2021-10-09 19:23:03</time>
      </trkpt>
      <trkpt lat="40.09804" lon="-1.7406">
        <ele>1249.2</ele>
        <time>2021-10-09 19:23:04</time>
      </trkpt>
      <trkpt lat="40.09803" lon="-1.74058">
        <ele>1249.4</ele>
        <time>2021-10-09 19:23:05</time>
      </trkpt>
      <trkpt lat="40.09801" lon="-1.74056">
        <ele>1249.4</ele>
        <time>2021-10-09 19:23:06</time>
      </trkpt>
      <trkpt lat="40.098" lon="-1.74053">
        <ele>1249.6</ele>
        <time>2021-10-09 19:23:07</time>
      </trkpt>
      <trkpt lat="40.09798" lon="-1.74051">
        <ele>1249.6</ele>
        <time>2021-10-09 19:23:08</time>
      </trkpt>
      <trkpt lat="40.09797" lon="-1.74049">
        <ele>1250</ele>
        <time>2021-10-09 19:23:09</time>
      </trkpt>
      <trkpt lat="40.09795" lon="-1.74047">
        <ele>1250</ele>
        <time>2021-10-09 19:23:10</time>
      </trkpt>
      <trkpt lat="40.09794" lon="-1.74045">
        <ele>1250.4</ele>
        <time>2021-10-09 19:23:11</time>
      </trkpt>
      <trkpt lat="40.09793" lon="-1.74042">
        <ele>1250.4</ele>
        <time>2021-10-09 19:23:12</time>
      </trkpt>
      <trkpt lat="40.09792" lon="-1.7404">
        <ele>1250.8</ele>
        <time>2021-10-09 19:23:13</time>
      </trkpt>
      <trkpt lat="40.0979" lon="-1.74038">
        <ele>1250.8</ele>
        <time>2021-10-09 19:23:14</time>
      </trkpt>
      <trkpt lat="40.09789" lon="-1.74036">
        <ele>1251.2</ele>
        <time>2021-10-09 19:23:15</time>
      </trkpt>
      <trkpt lat="40.09788" lon="-1.74034">
        <ele>1251.2</ele>
        <time>2021-10-09 19:23:16</time>
      </trkpt>
      <trkpt lat="40.09787" lon="-1.74032">
        <ele>1251.4</ele>
        <time>2021-10-09 19:23:17</time>
      </trkpt>
      <trkpt lat="40.09785" lon="-1.7403">
        <ele>1251.4</ele>
        <time>2021-10-09 19:23:18</time>
      </trkpt>
      <trkpt lat="40.09784" lon="-1.74027">
        <ele>1251.6</ele>
        <time>2021-10-09 19:23:19</time>
      </trkpt>
      <trkpt lat="40.09783" lon="-1.74025">
        <ele>1251.6</ele>
        <time>2021-10-09 19:23:20</time>
      </trkpt>
      <trkpt lat="40.09782" lon="-1.74023">
        <ele>1252</ele>
        <time>2021-10-09 19:23:21</time>
      </trkpt>
      <trkpt lat="40.0978" lon="-1.7402">
        <ele>1252</ele>
        <time>2021-10-09 19:23:22</time>
      </trkpt>
      <trkpt lat="40.09779" lon="-1.74018">
        <ele>1252.2</ele>
        <time>2021-10-09 19:23:23</time>
      </trkpt>
      <trkpt lat="40.09778" lon="-1.74016">
        <ele>1252.2</ele>
        <time>2021-10-09 19:23:24</time>
      </trkpt>
      <trkpt lat="40.09776" lon="-1.74013">
        <ele>1252.4</ele>
        <time>2021-10-09 19:23:25</time>
      </trkpt>
      <trkpt lat="40.09775" lon="-1.74011">
        <ele>1252.4</ele>
        <time>2021-10-09 19:23:26</time>
      </trkpt>
      <trkpt lat="40.09774" lon="-1.74009">
        <ele>1252.8</ele>
        <time>2021-10-09 19:23:27</time>
      </trkpt>
      <trkpt lat="40.09773" lon="-1.74006">
        <ele>1252.8</ele>
        <time>2021-10-09 19:23:28</time>
      </trkpt>
      <trkpt lat="40.09772" lon="-1.74004">
        <ele>1253.2</ele>
        <time>2021-10-09 19:23:29</time>
      </trkpt>
      <trkpt lat="40.0977" lon="-1.74001">
        <ele>1253.2</ele>
        <time>2021-10-09 19:23:30</time>
      </trkpt>
      <trkpt lat="40.09769" lon="-1.73999">
        <ele>1253.4</ele>
        <time>2021-10-09 19:23:31</time>
      </trkpt>
      <trkpt lat="40.09768" lon="-1.73997">
        <ele>1253.4</ele>
        <time>2021-10-09 19:23:32</time>
      </trkpt>
      <trkpt lat="40.09766" lon="-1.73994">
        <ele>1253.8</ele>
        <time>2021-10-09 19:23:33</time>
      </trkpt>
      <trkpt lat="40.09765" lon="-1.73992">
        <ele>1253.8</ele>
        <time>2021-10-09 19:23:34</time>
      </trkpt>
      <trkpt lat="40.09764" lon="-1.73989">
        <ele>1254.2</ele>
        <time>2021-10-09 19:23:35</time>
      </trkpt>
      <trkpt lat="40.09762" lon="-1.73987">
        <ele>1254.2</ele>
        <time>2021-10-09 19:23:36</time>
      </trkpt>
      <trkpt lat="40.09761" lon="-1.73985">
        <ele>1254.4</ele>
        <time>2021-10-09 19:23:37</time>
      </trkpt>
      <trkpt lat="40.09759" lon="-1.73982">
        <ele>1254.4</ele>
        <time>2021-10-09 19:23:38</time>
      </trkpt>
      <trkpt lat="40.09758" lon="-1.7398">
        <ele>1254.8</ele>
        <time>2021-10-09 19:23:39</time>
      </trkpt>
      <trkpt lat="40.09757" lon="-1.73978">
        <ele>1254.8</ele>
        <time>2021-10-09 19:23:40</time>
      </trkpt>
      <trkpt lat="40.09756" lon="-1.73976">
        <ele>1255</ele>
        <time>2021-10-09 19:23:41</time>
      </trkpt>
      <trkpt lat="40.09754" lon="-1.73974">
        <ele>1255.4</ele>
        <time>2021-10-09 19:23:42</time>
      </trkpt>
      <trkpt lat="40.09753" lon="-1.73972">
        <ele>1255.6</ele>
        <time>2021-10-09 19:23:43</time>
      </trkpt>
      <trkpt lat="40.09751" lon="-1.73969">
        <ele>1255.8</ele>
        <time>2021-10-09 19:23:44</time>
      </trkpt>
      <trkpt lat="40.0975" lon="-1.73967">
        <ele>1255.8</ele>
        <time>2021-10-09 19:23:45</time>
      </trkpt>
      <trkpt lat="40.09749" lon="-1.73964">
        <ele>1256</ele>
        <time>2021-10-09 19:23:46</time>
      </trkpt>
      <trkpt lat="40.09747" lon="-1.73962">
        <ele>1256</ele>
        <time>2021-10-09 19:23:47</time>
      </trkpt>
      <trkpt lat="40.09746" lon="-1.7396">
        <ele>1256.4</ele>
        <time>2021-10-09 19:23:48</time>
      </trkpt>
      <trkpt lat="40.09744" lon="-1.73957">
        <ele>1256.4</ele>
        <time>2021-10-09 19:23:49</time>
      </trkpt>
      <trkpt lat="40.09743" lon="-1.73955">
        <ele>1256.8</ele>
        <time>2021-10-09 19:23:50</time>
      </trkpt>
      <trkpt lat="40.09741" lon="-1.73952">
        <ele>1257</ele>
        <time>2021-10-09 19:23:51</time>
      </trkpt>
      <trkpt lat="40.0974" lon="-1.73949">
        <ele>1257</ele>
        <time>2021-10-09 19:23:52</time>
      </trkpt>
      <trkpt lat="40.09738" lon="-1.73947">
        <ele>1257.2</ele>
        <time>2021-10-09 19:23:53</time>
      </trkpt>
      <trkpt lat="40.09737" lon="-1.73945">
        <ele>1257.2</ele>
        <time>2021-10-09 19:23:54</time>
      </trkpt>
      <trkpt lat="40.09736" lon="-1.73942">
        <ele>1257.6</ele>
        <time>2021-10-09 19:23:55</time>
      </trkpt>
      <trkpt lat="40.09735" lon="-1.7394">
        <ele>1257.6</ele>
        <time>2021-10-09 19:23:56</time>
      </trkpt>
      <trkpt lat="40.09734" lon="-1.73937">
        <ele>1257.8</ele>
        <time>2021-10-09 19:23:57</time>
      </trkpt>
      <trkpt lat="40.09732" lon="-1.73934">
        <ele>1257.8</ele>
        <time>2021-10-09 19:23:58</time>
      </trkpt>
      <trkpt lat="40.09731" lon="-1.73932">
        <ele>1258.2</ele>
        <time>2021-10-09 19:23:59</time>
      </trkpt>
      <trkpt lat="40.09729" lon="-1.73929">
        <ele>1258.2</ele>
        <time>2021-10-09 19:24:00</time>
      </trkpt>
      <trkpt lat="40.09728" lon="-1.73927">
        <ele>1258.4</ele>
        <time>2021-10-09 19:24:01</time>
      </trkpt>
      <trkpt lat="40.09727" lon="-1.73924">
        <ele>1258.4</ele>
        <time>2021-10-09 19:24:02</time>
      </trkpt>
      <trkpt lat="40.09726" lon="-1.73921">
        <ele>1258.6</ele>
        <time>2021-10-09 19:24:03</time>
      </trkpt>
      <trkpt lat="40.09725" lon="-1.73918">
        <ele>1258.6</ele>
        <time>2021-10-09 19:24:04</time>
      </trkpt>
      <trkpt lat="40.09724" lon="-1.73916">
        <ele>1259</ele>
        <time>2021-10-09 19:24:05</time>
      </trkpt>
      <trkpt lat="40.09723" lon="-1.73912">
        <ele>1259</ele>
        <time>2021-10-09 19:24:06</time>
      </trkpt>
      <trkpt lat="40.09723" lon="-1.7391">
        <ele>1259.2</ele>
        <time>2021-10-09 19:24:07</time>
      </trkpt>
      <trkpt lat="40.09722" lon="-1.73908">
        <ele>1259.2</ele>
        <time>2021-10-09 19:24:08</time>
      </trkpt>
      <trkpt lat="40.09722" lon="-1.73905">
        <ele>1259.6</ele>
        <time>2021-10-09 19:24:09</time>
      </trkpt>
      <trkpt lat="40.09721" lon="-1.73902">
        <ele>1259.6</ele>
        <time>2021-10-09 19:24:10</time>
      </trkpt>
      <trkpt lat="40.09721" lon="-1.73899">
        <ele>1259.8</ele>
        <time>2021-10-09 19:24:11</time>
      </trkpt>
      <trkpt lat="40.09721" lon="-1.73896">
        <ele>1259.8</ele>
        <time>2021-10-09 19:24:12</time>
      </trkpt>
      <trkpt lat="40.09721" lon="-1.73893">
        <ele>1260</ele>
        <time>2021-10-09 19:24:13</time>
      </trkpt>
      <trkpt lat="40.09721" lon="-1.7389">
        <ele>1260</ele>
        <time>2021-10-09 19:24:14</time>
      </trkpt>
      <trkpt lat="40.09721" lon="-1.73887">
        <ele>1260</ele>
        <time>2021-10-09 19:24:15</time>
      </trkpt>
      <trkpt lat="40.09722" lon="-1.73885">
        <ele>1260.4</ele>
        <time>2021-10-09 19:24:16</time>
      </trkpt>
      <trkpt lat="40.09723" lon="-1.73882">
        <ele>1260.4</ele>
        <time>2021-10-09 19:24:17</time>
      </trkpt>
      <trkpt lat="40.09724" lon="-1.73879">
        <ele>1260.8</ele>
        <time>2021-10-09 19:24:18</time>
      </trkpt>
      <trkpt lat="40.09724" lon="-1.73877">
        <ele>1261</ele>
        <time>2021-10-09 19:24:19</time>
      </trkpt>
      <trkpt lat="40.09725" lon="-1.73874">
        <ele>1261</ele>
        <time>2021-10-09 19:24:20</time>
      </trkpt>
      <trkpt lat="40.09726" lon="-1.73872">
        <ele>1261.2</ele>
        <time>2021-10-09 19:24:21</time>
      </trkpt>
      <trkpt lat="40.09727" lon="-1.73869">
        <ele>1261.2</ele>
        <time>2021-10-09 19:24:22</time>
      </trkpt>
      <trkpt lat="40.09728" lon="-1.73867">
        <ele>1261.6</ele>
        <time>2021-10-09 19:24:23</time>
      </trkpt>
      <trkpt lat="40.09729" lon="-1.73864">
        <ele>1261.6</ele>
        <time>2021-10-09 19:24:24</time>
      </trkpt>
      <trkpt lat="40.09731" lon="-1.73861">
        <ele>1261.8</ele>
        <time>2021-10-09 19:24:25</time>
      </trkpt>
      <trkpt lat="40.09732" lon="-1.73859">
        <ele>1261.8</ele>
        <time>2021-10-09 19:24:26</time>
      </trkpt>
      <trkpt lat="40.09733" lon="-1.73856">
        <ele>1262.2</ele>
        <time>2021-10-09 19:24:27</time>
      </trkpt>
      <trkpt lat="40.09734" lon="-1.73853">
        <ele>1262.4</ele>
        <time>2021-10-09 19:24:28</time>
      </trkpt>
      <trkpt lat="40.09735" lon="-1.73851">
        <ele>1262.4</ele>
        <time>2021-10-09 19:24:29</time>
      </trkpt>
      <trkpt lat="40.09736" lon="-1.73849">
        <ele>1262.6</ele>
        <time>2021-10-09 19:24:30</time>
      </trkpt>
      <trkpt lat="40.09737" lon="-1.73847">
        <ele>1262.6</ele>
        <time>2021-10-09 19:24:31</time>
      </trkpt>
      <trkpt lat="40.09738" lon="-1.73844">
        <ele>1263</ele>
        <time>2021-10-09 19:24:32</time>
      </trkpt>
      <trkpt lat="40.0974" lon="-1.73841">
        <ele>1263</ele>
        <time>2021-10-09 19:24:33</time>
      </trkpt>
      <trkpt lat="40.09741" lon="-1.73838">
        <ele>1263.4</ele>
        <time>2021-10-09 19:24:34</time>
      </trkpt>
      <trkpt lat="40.09742" lon="-1.73836">
        <ele>1263.4</ele>
        <time>2021-10-09 19:24:35</time>
      </trkpt>
      <trkpt lat="40.09743" lon="-1.73833">
        <ele>1263.8</ele>
        <time>2021-10-09 19:24:36</time>
      </trkpt>
      <trkpt lat="40.09744" lon="-1.73831">
        <ele>1263.8</ele>
        <time>2021-10-09 19:24:37</time>
      </trkpt>
      <trkpt lat="40.09746" lon="-1.73829">
        <ele>1264</ele>
        <time>2021-10-09 19:24:38</time>
      </trkpt>
      <trkpt lat="40.09747" lon="-1.73827">
        <ele>1264</ele>
        <time>2021-10-09 19:24:39</time>
      </trkpt>
      <trkpt lat="40.09748" lon="-1.73825">
        <ele>1264.4</ele>
        <time>2021-10-09 19:24:40</time>
      </trkpt>
      <trkpt lat="40.09749" lon="-1.73822">
        <ele>1264.4</ele>
        <time>2021-10-09 19:24:41</time>
      </trkpt>
      <trkpt lat="40.0975" lon="-1.73819">
        <ele>1264.8</ele>
        <time>2021-10-09 19:24:42</time>
      </trkpt>
      <trkpt lat="40.09751" lon="-1.73817">
        <ele>1264.8</ele>
        <time>2021-10-09 19:24:43</time>
      </trkpt>
      <trkpt lat="40.09753" lon="-1.73814">
        <ele>1265</ele>
        <time>2021-10-09 19:24:44</time>
      </trkpt>
      <trkpt lat="40.09754" lon="-1.73812">
        <ele>1265.2</ele>
        <time>2021-10-09 19:24:45</time>
      </trkpt>
      <trkpt lat="40.09755" lon="-1.7381">
        <ele>1265.2</ele>
        <time>2021-10-09 19:24:46</time>
      </trkpt>
      <trkpt lat="40.09756" lon="-1.73808">
        <ele>1265.4</ele>
        <time>2021-10-09 19:24:47</time>
      </trkpt>
      <trkpt lat="40.09757" lon="-1.73806">
        <ele>1265.4</ele>
        <time>2021-10-09 19:24:48</time>
      </trkpt>
      <trkpt lat="40.09758" lon="-1.73803">
        <ele>1265.8</ele>
        <time>2021-10-09 19:24:49</time>
      </trkpt>
      <trkpt lat="40.09759" lon="-1.73801">
        <ele>1265.8</ele>
        <time>2021-10-09 19:24:50</time>
      </trkpt>
      <trkpt lat="40.09761" lon="-1.73798">
        <ele>1266.2</ele>
        <time>2021-10-09 19:24:51</time>
      </trkpt>
      <trkpt lat="40.09762" lon="-1.73796">
        <ele>1266.2</ele>
        <time>2021-10-09 19:24:52</time>
      </trkpt>
      <trkpt lat="40.09763" lon="-1.73794">
        <ele>1266.4</ele>
        <time>2021-10-09 19:24:53</time>
      </trkpt>
      <trkpt lat="40.09764" lon="-1.73792">
        <ele>1266.4</ele>
        <time>2021-10-09 19:24:54</time>
      </trkpt>
      <trkpt lat="40.09765" lon="-1.7379">
        <ele>1266.8</ele>
        <time>2021-10-09 19:24:55</time>
      </trkpt>
      <trkpt lat="40.09766" lon="-1.73788">
        <ele>1266.8</ele>
        <time>2021-10-09 19:24:56</time>
      </trkpt>
      <trkpt lat="40.09767" lon="-1.73785">
        <ele>1267</ele>
        <time>2021-10-09 19:24:57</time>
      </trkpt>
      <trkpt lat="40.09767" lon="-1.73783">
        <ele>1267</ele>
        <time>2021-10-09 19:24:58</time>
      </trkpt>
      <trkpt lat="40.09768" lon="-1.73781">
        <ele>1267.4</ele>
        <time>2021-10-09 19:24:59</time>
      </trkpt>
      <trkpt lat="40.09769" lon="-1.73778">
        <ele>1267.4</ele>
        <time>2021-10-09 19:25:00</time>
      </trkpt>
      <trkpt lat="40.09769" lon="-1.73776">
        <ele>1267.8</ele>
        <time>2021-10-09 19:25:01</time>
      </trkpt>
      <trkpt lat="40.0977" lon="-1.73773">
        <ele>1267.8</ele>
        <time>2021-10-09 19:25:02</time>
      </trkpt>
      <trkpt lat="40.09771" lon="-1.73771">
        <ele>1268</ele>
        <time>2021-10-09 19:25:03</time>
      </trkpt>
      <trkpt lat="40.09772" lon="-1.73768">
        <ele>1268</ele>
        <time>2021-10-09 19:25:04</time>
      </trkpt>
      <trkpt lat="40.09773" lon="-1.73766">
        <ele>1268.4</ele>
        <time>2021-10-09 19:25:05</time>
      </trkpt>
      <trkpt lat="40.09775" lon="-1.73763">
        <ele>1268.4</ele>
        <time>2021-10-09 19:25:06</time>
      </trkpt>
      <trkpt lat="40.09776" lon="-1.73762">
        <ele>1268.8</ele>
        <time>2021-10-09 19:25:07</time>
      </trkpt>
      <trkpt lat="40.09777" lon="-1.7376">
        <ele>1268.8</ele>
        <time>2021-10-09 19:25:08</time>
      </trkpt>
      <trkpt lat="40.09778" lon="-1.73759">
        <ele>1269</ele>
        <time>2021-10-09 19:25:09</time>
      </trkpt>
      <trkpt lat="40.09779" lon="-1.73756">
        <ele>1269</ele>
        <time>2021-10-09 19:25:10</time>
      </trkpt>
      <trkpt lat="40.0978" lon="-1.73754">
        <ele>1269.4</ele>
        <time>2021-10-09 19:25:11</time>
      </trkpt>
      <trkpt lat="40.0978" lon="-1.73752">
        <ele>1269.4</ele>
        <time>2021-10-09 19:25:12</time>
      </trkpt>
      <trkpt lat="40.09781" lon="-1.73749">
        <ele>1269.8</ele>
        <time>2021-10-09 19:25:13</time>
      </trkpt>
      <trkpt lat="40.09782" lon="-1.73747">
        <ele>1269.8</ele>
        <time>2021-10-09 19:25:14</time>
      </trkpt>
      <trkpt lat="40.09783" lon="-1.73745">
        <ele>1270.2</ele>
        <time>2021-10-09 19:25:15</time>
      </trkpt>
      <trkpt lat="40.09784" lon="-1.73743">
        <ele>1270.4</ele>
        <time>2021-10-09 19:25:16</time>
      </trkpt>
      <trkpt lat="40.09785" lon="-1.73741">
        <ele>1270.4</ele>
        <time>2021-10-09 19:25:17</time>
      </trkpt>
      <trkpt lat="40.09786" lon="-1.73738">
        <ele>1270.8</ele>
        <time>2021-10-09 19:25:18</time>
      </trkpt>
      <trkpt lat="40.09786" lon="-1.73736">
        <ele>1271</ele>
        <time>2021-10-09 19:25:19</time>
      </trkpt>
      <trkpt lat="40.09787" lon="-1.73733">
        <ele>1271.2</ele>
        <time>2021-10-09 19:25:20</time>
      </trkpt>
      <trkpt lat="40.09788" lon="-1.73731">
        <ele>1271.2</ele>
        <time>2021-10-09 19:25:21</time>
      </trkpt>
      <trkpt lat="40.09788" lon="-1.7373">
        <ele>1271.8</ele>
        <time>2021-10-09 19:25:22</time>
      </trkpt>
      <trkpt lat="40.09788" lon="-1.73727">
        <ele>1271.8</ele>
        <time>2021-10-09 19:25:23</time>
      </trkpt>
      <trkpt lat="40.09789" lon="-1.73724">
        <ele>1272.2</ele>
        <time>2021-10-09 19:25:24</time>
      </trkpt>
      <trkpt lat="40.0979" lon="-1.73722">
        <ele>1272.4</ele>
        <time>2021-10-09 19:25:25</time>
      </trkpt>
      <trkpt lat="40.09791" lon="-1.7372">
        <ele>1272.6</ele>
        <time>2021-10-09 19:25:26</time>
      </trkpt>
      <trkpt lat="40.09791" lon="-1.73718">
        <ele>1272.8</ele>
        <time>2021-10-09 19:25:27</time>
      </trkpt>
      <trkpt lat="40.09792" lon="-1.73715">
        <ele>1273.2</ele>
        <time>2021-10-09 19:25:28</time>
      </trkpt>
      <trkpt lat="40.09792" lon="-1.73713">
        <ele>1273.4</ele>
        <time>2021-10-09 19:25:29</time>
      </trkpt>
      <trkpt lat="40.09793" lon="-1.7371">
        <ele>1273.4</ele>
        <time>2021-10-09 19:25:30</time>
      </trkpt>
      <trkpt lat="40.09793" lon="-1.73708">
        <ele>1273.8</ele>
        <time>2021-10-09 19:25:31</time>
      </trkpt>
      <trkpt lat="40.09794" lon="-1.73706">
        <ele>1273.8</ele>
        <time>2021-10-09 19:25:32</time>
      </trkpt>
      <trkpt lat="40.09794" lon="-1.73704">
        <ele>1274.2</ele>
        <time>2021-10-09 19:25:33</time>
      </trkpt>
      <trkpt lat="40.09794" lon="-1.737">
        <ele>1274.4</ele>
        <time>2021-10-09 19:25:34</time>
      </trkpt>
      <trkpt lat="40.09794" lon="-1.73697">
        <ele>1274.6</ele>
        <time>2021-10-09 19:25:35</time>
      </trkpt>
      <trkpt lat="40.09794" lon="-1.73694">
        <ele>1274.8</ele>
        <time>2021-10-09 19:25:36</time>
      </trkpt>
      <trkpt lat="40.09794" lon="-1.73692">
        <ele>1275</ele>
        <time>2021-10-09 19:25:37</time>
      </trkpt>
      <trkpt lat="40.09794" lon="-1.73689">
        <ele>1275</ele>
        <time>2021-10-09 19:25:38</time>
      </trkpt>
      <trkpt lat="40.09794" lon="-1.73687">
        <ele>1275.4</ele>
        <time>2021-10-09 19:25:39</time>
      </trkpt>
      <trkpt lat="40.09794" lon="-1.73685">
        <ele>1275.4</ele>
        <time>2021-10-09 19:25:40</time>
      </trkpt>
      <trkpt lat="40.09795" lon="-1.73683">
        <ele>1275.8</ele>
        <time>2021-10-09 19:25:41</time>
      </trkpt>
      <trkpt lat="40.09796" lon="-1.7368">
        <ele>1275.8</ele>
        <time>2021-10-09 19:25:42</time>
      </trkpt>
      <trkpt lat="40.09796" lon="-1.73677">
        <ele>1276</ele>
        <time>2021-10-09 19:25:43</time>
      </trkpt>
      <trkpt lat="40.09796" lon="-1.73675">
        <ele>1276</ele>
        <time>2021-10-09 19:25:44</time>
      </trkpt>
      <trkpt lat="40.09796" lon="-1.73673">
        <ele>1276.4</ele>
        <time>2021-10-09 19:25:45</time>
      </trkpt>
      <trkpt lat="40.09796" lon="-1.73671">
        <ele>1276.6</ele>
        <time>2021-10-09 19:25:46</time>
      </trkpt>
      <trkpt lat="40.09796" lon="-1.73668">
        <ele>1276.6</ele>
        <time>2021-10-09 19:25:47</time>
      </trkpt>
      <trkpt lat="40.09796" lon="-1.73665">
        <ele>1277</ele>
        <time>2021-10-09 19:25:48</time>
      </trkpt>
      <trkpt lat="40.09796" lon="-1.73663">
        <ele>1277</ele>
        <time>2021-10-09 19:25:49</time>
      </trkpt>
      <trkpt lat="40.09797" lon="-1.7366">
        <ele>1277.2</ele>
        <time>2021-10-09 19:25:50</time>
      </trkpt>
      <trkpt lat="40.09796" lon="-1.73658">
        <ele>1277.2</ele>
        <time>2021-10-09 19:25:51</time>
      </trkpt>
      <trkpt lat="40.09796" lon="-1.73654">
        <ele>1277.6</ele>
        <time>2021-10-09 19:25:52</time>
      </trkpt>
      <trkpt lat="40.09796" lon="-1.73651">
        <ele>1277.6</ele>
        <time>2021-10-09 19:25:53</time>
      </trkpt>
      <trkpt lat="40.09796" lon="-1.73649">
        <ele>1278</ele>
        <time>2021-10-09 19:25:54</time>
      </trkpt>
      <trkpt lat="40.09796" lon="-1.73646">
        <ele>1278</ele>
        <time>2021-10-09 19:25:55</time>
      </trkpt>
      <trkpt lat="40.09796" lon="-1.73644">
        <ele>1278.4</ele>
        <time>2021-10-09 19:25:56</time>
      </trkpt>
      <trkpt lat="40.09796" lon="-1.73642">
        <ele>1278.4</ele>
        <time>2021-10-09 19:25:57</time>
      </trkpt>
      <trkpt lat="40.09796" lon="-1.73639">
        <ele>1278.6</ele>
        <time>2021-10-09 19:25:58</time>
      </trkpt>
      <trkpt lat="40.09796" lon="-1.73636">
        <ele>1278.6</ele>
        <time>2021-10-09 19:25:59</time>
      </trkpt>
      <trkpt lat="40.09796" lon="-1.73633">
        <ele>1279</ele>
        <time>2021-10-09 19:26:00</time>
      </trkpt>
      <trkpt lat="40.09795" lon="-1.7363">
        <ele>1279</ele>
        <time>2021-10-09 19:26:01</time>
      </trkpt>
      <trkpt lat="40.09795" lon="-1.73628">
        <ele>1279.4</ele>
        <time>2021-10-09 19:26:02</time>
      </trkpt>
      <trkpt lat="40.09796" lon="-1.73626">
        <ele>1279.6</ele>
        <time>2021-10-09 19:26:03</time>
      </trkpt>
      <trkpt lat="40.09796" lon="-1.73623">
        <ele>1279.8</ele>
        <time>2021-10-09 19:26:04</time>
      </trkpt>
      <trkpt lat="40.09795" lon="-1.7362">
        <ele>1279.8</ele>
        <time>2021-10-09 19:26:05</time>
      </trkpt>
      <trkpt lat="40.09796" lon="-1.73618">
        <ele>1280.2</ele>
        <time>2021-10-09 19:26:06</time>
      </trkpt>
      <trkpt lat="40.09796" lon="-1.73615">
        <ele>1280.4</ele>
        <time>2021-10-09 19:26:07</time>
      </trkpt>
      <trkpt lat="40.09796" lon="-1.73612">
        <ele>1280.6</ele>
        <time>2021-10-09 19:26:08</time>
      </trkpt>
      <trkpt lat="40.09796" lon="-1.7361">
        <ele>1280.6</ele>
        <time>2021-10-09 19:26:09</time>
      </trkpt>
      <trkpt lat="40.09796" lon="-1.73607">
        <ele>1281</ele>
        <time>2021-10-09 19:26:10</time>
      </trkpt>
      <trkpt lat="40.09796" lon="-1.73605">
        <ele>1281.2</ele>
        <time>2021-10-09 19:26:11</time>
      </trkpt>
      <trkpt lat="40.09795" lon="-1.73603">
        <ele>1281.4</ele>
        <time>2021-10-09 19:26:12</time>
      </trkpt>
      <trkpt lat="40.09795" lon="-1.736">
        <ele>1281.6</ele>
        <time>2021-10-09 19:26:13</time>
      </trkpt>
      <trkpt lat="40.09796" lon="-1.73597">
        <ele>1281.6</ele>
        <time>2021-10-09 19:26:14</time>
      </trkpt>
      <trkpt lat="40.09796" lon="-1.73594">
        <ele>1282</ele>
        <time>2021-10-09 19:26:15</time>
      </trkpt>
      <trkpt lat="40.09797" lon="-1.73591">
        <ele>1282.2</ele>
        <time>2021-10-09 19:26:16</time>
      </trkpt>
      <trkpt lat="40.09796" lon="-1.73589">
        <ele>1282.2</ele>
        <time>2021-10-09 19:26:17</time>
      </trkpt>
      <trkpt lat="40.09796" lon="-1.73586">
        <ele>1282.6</ele>
        <time>2021-10-09 19:26:18</time>
      </trkpt>
      <trkpt lat="40.09796" lon="-1.73584">
        <ele>1282.8</ele>
        <time>2021-10-09 19:26:19</time>
      </trkpt>
      <trkpt lat="40.09795" lon="-1.73581">
        <ele>1283</ele>
        <time>2021-10-09 19:26:20</time>
      </trkpt>
      <trkpt lat="40.09794" lon="-1.73579">
        <ele>1283</ele>
        <time>2021-10-09 19:26:21</time>
      </trkpt>
      <trkpt lat="40.09794" lon="-1.73576">
        <ele>1283.4</ele>
        <time>2021-10-09 19:26:22</time>
      </trkpt>
      <trkpt lat="40.09793" lon="-1.73574">
        <ele>1283.4</ele>
        <time>2021-10-09 19:26:23</time>
      </trkpt>
      <trkpt lat="40.09794" lon="-1.73571">
        <ele>1283.8</ele>
        <time>2021-10-09 19:26:24</time>
      </trkpt>
      <trkpt lat="40.09794" lon="-1.73568">
        <ele>1283.8</ele>
        <time>2021-10-09 19:26:25</time>
      </trkpt>
      <trkpt lat="40.09794" lon="-1.73566">
        <ele>1284</ele>
        <time>2021-10-09 19:26:26</time>
      </trkpt>
      <trkpt lat="40.09793" lon="-1.73563">
        <ele>1284</ele>
        <time>2021-10-09 19:26:27</time>
      </trkpt>
      <trkpt lat="40.09792" lon="-1.73561">
        <ele>1284.2</ele>
        <time>2021-10-09 19:26:28</time>
      </trkpt>
      <trkpt lat="40.09792" lon="-1.73559">
        <ele>1284.2</ele>
        <time>2021-10-09 19:26:29</time>
      </trkpt>
      <trkpt lat="40.09792" lon="-1.73556">
        <ele>1284.6</ele>
        <time>2021-10-09 19:26:30</time>
      </trkpt>
      <trkpt lat="40.09792" lon="-1.73554">
        <ele>1284.6</ele>
        <time>2021-10-09 19:26:31</time>
      </trkpt>
      <trkpt lat="40.09792" lon="-1.73552">
        <ele>1285</ele>
        <time>2021-10-09 19:26:32</time>
      </trkpt>
      <trkpt lat="40.09792" lon="-1.73549">
        <ele>1285</ele>
        <time>2021-10-09 19:26:33</time>
      </trkpt>
      <trkpt lat="40.09792" lon="-1.73547">
        <ele>1285.4</ele>
        <time>2021-10-09 19:26:34</time>
      </trkpt>
      <trkpt lat="40.09791" lon="-1.73544">
        <ele>1285.4</ele>
        <time>2021-10-09 19:26:35</time>
      </trkpt>
      <trkpt lat="40.09792" lon="-1.73542">
        <ele>1285.8</ele>
        <time>2021-10-09 19:26:36</time>
      </trkpt>
      <trkpt lat="40.09792" lon="-1.7354">
        <ele>1286.2</ele>
        <time>2021-10-09 19:26:37</time>
      </trkpt>
      <trkpt lat="40.09792" lon="-1.73538">
        <ele>1286.2</ele>
        <time>2021-10-09 19:26:38</time>
      </trkpt>
      <trkpt lat="40.09792" lon="-1.73535">
        <ele>1286.4</ele>
        <time>2021-10-09 19:26:39</time>
      </trkpt>
      <trkpt lat="40.09792" lon="-1.73533">
        <ele>1286.4</ele>
        <time>2021-10-09 19:26:40</time>
      </trkpt>
      <trkpt lat="40.09792" lon="-1.73531">
        <ele>1286.8</ele>
        <time>2021-10-09 19:26:41</time>
      </trkpt>
      <trkpt lat="40.09792" lon="-1.73528">
        <ele>1286.8</ele>
        <time>2021-10-09 19:26:42</time>
      </trkpt>
      <trkpt lat="40.09792" lon="-1.73526">
        <ele>1287</ele>
        <time>2021-10-09 19:26:43</time>
      </trkpt>
      <trkpt lat="40.09792" lon="-1.73524">
        <ele>1287.2</ele>
        <time>2021-10-09 19:26:44</time>
      </trkpt>
      <trkpt lat="40.09792" lon="-1.73521">
        <ele>1287.6</ele>
        <time>2021-10-09 19:26:45</time>
      </trkpt>
      <trkpt lat="40.09791" lon="-1.73519">
        <ele>1287.8</ele>
        <time>2021-10-09 19:26:46</time>
      </trkpt>
      <trkpt lat="40.09791" lon="-1.73516">
        <ele>1288</ele>
        <time>2021-10-09 19:26:47</time>
      </trkpt>
      <trkpt lat="40.09792" lon="-1.73514">
        <ele>1288.2</ele>
        <time>2021-10-09 19:26:48</time>
      </trkpt>
      <trkpt lat="40.09792" lon="-1.73512">
        <ele>1288.2</ele>
        <time>2021-10-09 19:26:49</time>
      </trkpt>
      <trkpt lat="40.09792" lon="-1.73509">
        <ele>1288.6</ele>
        <time>2021-10-09 19:26:50</time>
      </trkpt>
      <trkpt lat="40.09792" lon="-1.73507">
        <ele>1288.6</ele>
        <time>2021-10-09 19:26:51</time>
      </trkpt>
      <trkpt lat="40.09792" lon="-1.73505">
        <ele>1289</ele>
        <time>2021-10-09 19:26:52</time>
      </trkpt>
      <trkpt lat="40.09792" lon="-1.73502">
        <ele>1289</ele>
        <time>2021-10-09 19:26:53</time>
      </trkpt>
      <trkpt lat="40.09793" lon="-1.735">
        <ele>1289.4</ele>
        <time>2021-10-09 19:26:54</time>
      </trkpt>
      <trkpt lat="40.09793" lon="-1.73498">
        <ele>1289.4</ele>
        <time>2021-10-09 19:26:55</time>
      </trkpt>
      <trkpt lat="40.09793" lon="-1.73496">
        <ele>1290</ele>
        <time>2021-10-09 19:26:56</time>
      </trkpt>
      <trkpt lat="40.09794" lon="-1.73493">
        <ele>1290</ele>
        <time>2021-10-09 19:26:57</time>
      </trkpt>
      <trkpt lat="40.09794" lon="-1.73491">
        <ele>1290.2</ele>
        <time>2021-10-09 19:26:58</time>
      </trkpt>
      <trkpt lat="40.09794" lon="-1.73489">
        <ele>1290.2</ele>
        <time>2021-10-09 19:26:59</time>
      </trkpt>
      <trkpt lat="40.09795" lon="-1.73487">
        <ele>1290.6</ele>
        <time>2021-10-09 19:27:00</time>
      </trkpt>
      <trkpt lat="40.09795" lon="-1.73485">
        <ele>1290.8</ele>
        <time>2021-10-09 19:27:01</time>
      </trkpt>
      <trkpt lat="40.09795" lon="-1.73483">
        <ele>1290.2</ele>
        <time>2021-10-09 19:27:02</time>
      </trkpt>
      <trkpt lat="40.09795" lon="-1.73481">
        <ele>1290.2</ele>
        <time>2021-10-09 19:27:03</time>
      </trkpt>
      <trkpt lat="40.09795" lon="-1.73479">
        <ele>1290.8</ele>
        <time>2021-10-09 19:27:04</time>
      </trkpt>
      <trkpt lat="40.09795" lon="-1.73477">
        <ele>1291</ele>
        <time>2021-10-09 19:27:05</time>
      </trkpt>
      <trkpt lat="40.09795" lon="-1.73475">
        <ele>1291</ele>
        <time>2021-10-09 19:27:06</time>
      </trkpt>
      <trkpt lat="40.09795" lon="-1.73472">
        <ele>1291.6</ele>
        <time>2021-10-09 19:27:07</time>
      </trkpt>
      <trkpt lat="40.09795" lon="-1.7347">
        <ele>1291.8</ele>
        <time>2021-10-09 19:27:08</time>
      </trkpt>
      <trkpt lat="40.09795" lon="-1.73468">
        <ele>1292.4</ele>
        <time>2021-10-09 19:27:09</time>
      </trkpt>
      <trkpt lat="40.09796" lon="-1.73466">
        <ele>1292.4</ele>
        <time>2021-10-09 19:27:10</time>
      </trkpt>
      <trkpt lat="40.09796" lon="-1.73463">
        <ele>1292.4</ele>
        <time>2021-10-09 19:27:11</time>
      </trkpt>
      <trkpt lat="40.09795" lon="-1.73461">
        <ele>1292.4</ele>
        <time>2021-10-09 19:27:12</time>
      </trkpt>
      <trkpt lat="40.09795" lon="-1.73458">
        <ele>1292.4</ele>
        <time>2021-10-09 19:27:13</time>
      </trkpt>
      <trkpt lat="40.09795" lon="-1.73456">
        <ele>1292.8</ele>
        <time>2021-10-09 19:27:14</time>
      </trkpt>
      <trkpt lat="40.09795" lon="-1.73454">
        <ele>1292.8</ele>
        <time>2021-10-09 19:27:15</time>
      </trkpt>
      <trkpt lat="40.09796" lon="-1.73452">
        <ele>1293</ele>
        <time>2021-10-09 19:27:16</time>
      </trkpt>
      <trkpt lat="40.09796" lon="-1.7345">
        <ele>1293</ele>
        <time>2021-10-09 19:27:17</time>
      </trkpt>
      <trkpt lat="40.09796" lon="-1.73449">
        <ele>1293.4</ele>
        <time>2021-10-09 19:27:18</time>
      </trkpt>
      <trkpt lat="40.09796" lon="-1.73446">
        <ele>1293.4</ele>
        <time>2021-10-09 19:27:19</time>
      </trkpt>
      <trkpt lat="40.09796" lon="-1.73444">
        <ele>1293.6</ele>
        <time>2021-10-09 19:27:20</time>
      </trkpt>
      <trkpt lat="40.09796" lon="-1.73441">
        <ele>1293.6</ele>
        <time>2021-10-09 19:27:21</time>
      </trkpt>
      <trkpt lat="40.09796" lon="-1.73438">
        <ele>1293.8</ele>
        <time>2021-10-09 19:27:22</time>
      </trkpt>
      <trkpt lat="40.09796" lon="-1.73436">
        <ele>1293.8</ele>
        <time>2021-10-09 19:27:23</time>
      </trkpt>
      <trkpt lat="40.09796" lon="-1.73434">
        <ele>1294.2</ele>
        <time>2021-10-09 19:27:24</time>
      </trkpt>
      <trkpt lat="40.09796" lon="-1.73432">
        <ele>1294.2</ele>
        <time>2021-10-09 19:27:25</time>
      </trkpt>
      <trkpt lat="40.09796" lon="-1.7343">
        <ele>1294.6</ele>
        <time>2021-10-09 19:27:26</time>
      </trkpt>
      <trkpt lat="40.09797" lon="-1.73427">
        <ele>1294.8</ele>
        <time>2021-10-09 19:27:27</time>
      </trkpt>
      <trkpt lat="40.09796" lon="-1.73425">
        <ele>1294.8</ele>
        <time>2021-10-09 19:27:28</time>
      </trkpt>
      <trkpt lat="40.09796" lon="-1.73422">
        <ele>1295.2</ele>
        <time>2021-10-09 19:27:29</time>
      </trkpt>
      <trkpt lat="40.09796" lon="-1.7342">
        <ele>1295.4</ele>
        <time>2021-10-09 19:27:30</time>
      </trkpt>
      <trkpt lat="40.09797" lon="-1.73419">
        <ele>1295.4</ele>
        <time>2021-10-09 19:27:31</time>
      </trkpt>
      <trkpt lat="40.09797" lon="-1.73417">
        <ele>1295.8</ele>
        <time>2021-10-09 19:27:32</time>
      </trkpt>
      <trkpt lat="40.09798" lon="-1.73415">
        <ele>1295.8</ele>
        <time>2021-10-09 19:27:33</time>
      </trkpt>
      <trkpt lat="40.09799" lon="-1.73413">
        <ele>1295.8</ele>
        <time>2021-10-09 19:27:34</time>
      </trkpt>
      <trkpt lat="40.09799" lon="-1.73411">
        <ele>1296.2</ele>
        <time>2021-10-09 19:27:35</time>
      </trkpt>
      <trkpt lat="40.09799" lon="-1.73408">
        <ele>1296.2</ele>
        <time>2021-10-09 19:27:36</time>
      </trkpt>
      <trkpt lat="40.09798" lon="-1.73406">
        <ele>1296.4</ele>
        <time>2021-10-09 19:27:37</time>
      </trkpt>
      <trkpt lat="40.09797" lon="-1.73404">
        <ele>1296.4</ele>
        <time>2021-10-09 19:27:38</time>
      </trkpt>
      <trkpt lat="40.09797" lon="-1.73401">
        <ele>1296.6</ele>
        <time>2021-10-09 19:27:39</time>
      </trkpt>
      <trkpt lat="40.09798" lon="-1.73399">
        <ele>1296.6</ele>
        <time>2021-10-09 19:27:40</time>
      </trkpt>
      <trkpt lat="40.09799" lon="-1.73397">
        <ele>1297</ele>
        <time>2021-10-09 19:27:41</time>
      </trkpt>
      <trkpt lat="40.09799" lon="-1.73394">
        <ele>1297</ele>
        <time>2021-10-09 19:27:42</time>
      </trkpt>
      <trkpt lat="40.09799" lon="-1.73392">
        <ele>1297.2</ele>
        <time>2021-10-09 19:27:43</time>
      </trkpt>
      <trkpt lat="40.09798" lon="-1.7339">
        <ele>1297.2</ele>
        <time>2021-10-09 19:27:44</time>
      </trkpt>
      <trkpt lat="40.09797" lon="-1.73388">
        <ele>1297.6</ele>
        <time>2021-10-09 19:27:45</time>
      </trkpt>
      <trkpt lat="40.09797" lon="-1.73385">
        <ele>1297.6</ele>
        <time>2021-10-09 19:27:46</time>
      </trkpt>
      <trkpt lat="40.09798" lon="-1.73383">
        <ele>1297.8</ele>
        <time>2021-10-09 19:27:47</time>
      </trkpt>
      <trkpt lat="40.09799" lon="-1.7338">
        <ele>1297.8</ele>
        <time>2021-10-09 19:27:48</time>
      </trkpt>
      <trkpt lat="40.098" lon="-1.73378">
        <ele>1298.2</ele>
        <time>2021-10-09 19:27:49</time>
      </trkpt>
      <trkpt lat="40.098" lon="-1.73375">
        <ele>1298.2</ele>
        <time>2021-10-09 19:27:50</time>
      </trkpt>
      <trkpt lat="40.098" lon="-1.73373">
        <ele>1298.4</ele>
        <time>2021-10-09 19:27:51</time>
      </trkpt>
      <trkpt lat="40.098" lon="-1.7337">
        <ele>1298.4</ele>
        <time>2021-10-09 19:27:52</time>
      </trkpt>
      <trkpt lat="40.098" lon="-1.73368">
        <ele>1298.8</ele>
        <time>2021-10-09 19:27:53</time>
      </trkpt>
      <trkpt lat="40.098" lon="-1.73365">
        <ele>1298.8</ele>
        <time>2021-10-09 19:27:54</time>
      </trkpt>
      <trkpt lat="40.098" lon="-1.73363">
        <ele>1299</ele>
        <time>2021-10-09 19:27:55</time>
      </trkpt>
      <trkpt lat="40.098" lon="-1.7336">
        <ele>1299</ele>
        <time>2021-10-09 19:27:56</time>
      </trkpt>
      <trkpt lat="40.098" lon="-1.73357">
        <ele>1299.6</ele>
        <time>2021-10-09 19:27:57</time>
      </trkpt>
      <trkpt lat="40.098" lon="-1.73355">
        <ele>1299.8</ele>
        <time>2021-10-09 19:27:58</time>
      </trkpt>
      <trkpt lat="40.098" lon="-1.73352">
        <ele>1299.8</ele>
        <time>2021-10-09 19:27:59</time>
      </trkpt>
      <trkpt lat="40.09801" lon="-1.7335">
        <ele>1300</ele>
        <time>2021-10-09 19:28:00</time>
      </trkpt>
      <trkpt lat="40.09801" lon="-1.73347">
        <ele>1300.2</ele>
        <time>2021-10-09 19:28:01</time>
      </trkpt>
      <trkpt lat="40.09802" lon="-1.73344">
        <ele>1300.2</ele>
        <time>2021-10-09 19:28:02</time>
      </trkpt>
      <trkpt lat="40.09802" lon="-1.73341">
        <ele>1300.6</ele>
        <time>2021-10-09 19:28:03</time>
      </trkpt>
      <trkpt lat="40.09803" lon="-1.73338">
        <ele>1300.6</ele>
        <time>2021-10-09 19:28:04</time>
      </trkpt>
      <trkpt lat="40.09803" lon="-1.73335">
        <ele>1301</ele>
        <time>2021-10-09 19:28:05</time>
      </trkpt>
      <trkpt lat="40.09804" lon="-1.73333">
        <ele>1301</ele>
        <time>2021-10-09 19:28:06</time>
      </trkpt>
      <trkpt lat="40.09804" lon="-1.7333">
        <ele>1301.2</ele>
        <time>2021-10-09 19:28:07</time>
      </trkpt>
      <trkpt lat="40.09805" lon="-1.73328">
        <ele>1301.2</ele>
        <time>2021-10-09 19:28:08</time>
      </trkpt>
      <trkpt lat="40.09805" lon="-1.73325">
        <ele>1301.6</ele>
        <time>2021-10-09 19:28:09</time>
      </trkpt>
      <trkpt lat="40.09806" lon="-1.73322">
        <ele>1301.6</ele>
        <time>2021-10-09 19:28:10</time>
      </trkpt>
      <trkpt lat="40.09807" lon="-1.7332">
        <ele>1301.8</ele>
        <time>2021-10-09 19:28:11</time>
      </trkpt>
      <trkpt lat="40.09807" lon="-1.73317">
        <ele>1302</ele>
        <time>2021-10-09 19:28:12</time>
      </trkpt>
      <trkpt lat="40.09808" lon="-1.73313">
        <ele>1302</ele>
        <time>2021-10-09 19:28:13</time>
      </trkpt>
      <trkpt lat="40.09808" lon="-1.7331">
        <ele>1302.2</ele>
        <time>2021-10-09 19:28:14</time>
      </trkpt>
      <trkpt lat="40.09809" lon="-1.73308">
        <ele>1302.2</ele>
        <time>2021-10-09 19:28:15</time>
      </trkpt>
      <trkpt lat="40.09809" lon="-1.73306">
        <ele>1302.6</ele>
        <time>2021-10-09 19:28:16</time>
      </trkpt>
      <trkpt lat="40.0981" lon="-1.73304">
        <ele>1302.6</ele>
        <time>2021-10-09 19:28:17</time>
      </trkpt>
      <trkpt lat="40.0981" lon="-1.73301">
        <ele>1302.6</ele>
        <time>2021-10-09 19:28:18</time>
      </trkpt>
      <trkpt lat="40.09811" lon="-1.73298">
        <ele>1302.8</ele>
        <time>2021-10-09 19:28:19</time>
      </trkpt>
      <trkpt lat="40.09811" lon="-1.73296">
        <ele>1302.8</ele>
        <time>2021-10-09 19:28:20</time>
      </trkpt>
      <trkpt lat="40.09812" lon="-1.73293">
        <ele>1302.8</ele>
        <time>2021-10-09 19:28:21</time>
      </trkpt>
      <trkpt lat="40.09812" lon="-1.73291">
        <ele>1303.2</ele>
        <time>2021-10-09 19:28:22</time>
      </trkpt>
      <trkpt lat="40.09813" lon="-1.73288">
        <ele>1303.2</ele>
        <time>2021-10-09 19:28:23</time>
      </trkpt>
      <trkpt lat="40.09813" lon="-1.73286">
        <ele>1303.2</ele>
        <time>2021-10-09 19:28:24</time>
      </trkpt>
      <trkpt lat="40.09814" lon="-1.73283">
        <ele>1303.4</ele>
        <time>2021-10-09 19:28:25</time>
      </trkpt>
      <trkpt lat="40.09814" lon="-1.73281">
        <ele>1303.4</ele>
        <time>2021-10-09 19:28:26</time>
      </trkpt>
      <trkpt lat="40.09815" lon="-1.73278">
        <ele>1303.8</ele>
        <time>2021-10-09 19:28:27</time>
      </trkpt>
      <trkpt lat="40.09816" lon="-1.73276">
        <ele>1303.8</ele>
        <time>2021-10-09 19:28:28</time>
      </trkpt>
      <trkpt lat="40.09816" lon="-1.73273">
        <ele>1304</ele>
        <time>2021-10-09 19:28:29</time>
      </trkpt>
      <trkpt lat="40.09817" lon="-1.73271">
        <ele>1304.2</ele>
        <time>2021-10-09 19:28:30</time>
      </trkpt>
      <trkpt lat="40.09818" lon="-1.73268">
        <ele>1304.2</ele>
        <time>2021-10-09 19:28:31</time>
      </trkpt>
      <trkpt lat="40.09818" lon="-1.73265">
        <ele>1304.2</ele>
        <time>2021-10-09 19:28:32</time>
      </trkpt>
      <trkpt lat="40.09819" lon="-1.73263">
        <ele>1304.2</ele>
        <time>2021-10-09 19:28:33</time>
      </trkpt>
      <trkpt lat="40.09819" lon="-1.7326">
        <ele>1304.2</ele>
        <time>2021-10-09 19:28:34</time>
      </trkpt>
      <trkpt lat="40.0982" lon="-1.73257">
        <ele>1304.4</ele>
        <time>2021-10-09 19:28:35</time>
      </trkpt>
      <trkpt lat="40.0982" lon="-1.73255">
        <ele>1304.4</ele>
        <time>2021-10-09 19:28:36</time>
      </trkpt>
      <trkpt lat="40.09821" lon="-1.73252">
        <ele>1304.4</ele>
        <time>2021-10-09 19:28:37</time>
      </trkpt>
      <trkpt lat="40.09822" lon="-1.7325">
        <ele>1304.6</ele>
        <time>2021-10-09 19:28:38</time>
      </trkpt>
      <trkpt lat="40.09823" lon="-1.73247">
        <ele>1304.6</ele>
        <time>2021-10-09 19:28:39</time>
      </trkpt>
      <trkpt lat="40.09823" lon="-1.73244">
        <ele>1304.6</ele>
        <time>2021-10-09 19:28:40</time>
      </trkpt>
      <trkpt lat="40.09824" lon="-1.73242">
        <ele>1304.6</ele>
        <time>2021-10-09 19:28:41</time>
      </trkpt>
      <trkpt lat="40.09824" lon="-1.73239">
        <ele>1305</ele>
        <time>2021-10-09 19:28:42</time>
      </trkpt>
      <trkpt lat="40.09825" lon="-1.73236">
        <ele>1305</ele>
        <time>2021-10-09 19:28:43</time>
      </trkpt>
      <trkpt lat="40.09825" lon="-1.73234">
        <ele>1305</ele>
        <time>2021-10-09 19:28:44</time>
      </trkpt>
      <trkpt lat="40.09826" lon="-1.73231">
        <ele>1305.2</ele>
        <time>2021-10-09 19:28:45</time>
      </trkpt>
      <trkpt lat="40.09827" lon="-1.73229">
        <ele>1305.2</ele>
        <time>2021-10-09 19:28:46</time>
      </trkpt>
      <trkpt lat="40.09827" lon="-1.73226">
        <ele>1305.4</ele>
        <time>2021-10-09 19:28:47</time>
      </trkpt>
      <trkpt lat="40.09828" lon="-1.73224">
        <ele>1305.4</ele>
        <time>2021-10-09 19:28:48</time>
      </trkpt>
      <trkpt lat="40.09828" lon="-1.73221">
        <ele>1305.4</ele>
        <time>2021-10-09 19:28:49</time>
      </trkpt>
      <trkpt lat="40.09828" lon="-1.73218">
        <ele>1305.6</ele>
        <time>2021-10-09 19:28:50</time>
      </trkpt>
      <trkpt lat="40.09829" lon="-1.73215">
        <ele>1305.6</ele>
        <time>2021-10-09 19:28:51</time>
      </trkpt>
      <trkpt lat="40.09829" lon="-1.73212">
        <ele>1305.8</ele>
        <time>2021-10-09 19:28:52</time>
      </trkpt>
      <trkpt lat="40.0983" lon="-1.7321">
        <ele>1305.8</ele>
        <time>2021-10-09 19:28:53</time>
      </trkpt>
      <trkpt lat="40.0983" lon="-1.73207">
        <ele>1305.8</ele>
        <time>2021-10-09 19:28:54</time>
      </trkpt>
      <trkpt lat="40.09831" lon="-1.73204">
        <ele>1306</ele>
        <time>2021-10-09 19:28:55</time>
      </trkpt>
      <trkpt lat="40.09831" lon="-1.73201">
        <ele>1306</ele>
        <time>2021-10-09 19:28:56</time>
      </trkpt>
      <trkpt lat="40.09832" lon="-1.73199">
        <ele>1306</ele>
        <time>2021-10-09 19:28:57</time>
      </trkpt>
      <trkpt lat="40.09834" lon="-1.73197">
        <ele>1306.2</ele>
        <time>2021-10-09 19:28:58</time>
      </trkpt>
      <trkpt lat="40.09835" lon="-1.73194">
        <ele>1306.2</ele>
        <time>2021-10-09 19:28:59</time>
      </trkpt>
      <trkpt lat="40.09835" lon="-1.73191">
        <ele>1306.2</ele>
        <time>2021-10-09 19:29:00</time>
      </trkpt>
      <trkpt lat="40.09836" lon="-1.73188">
        <ele>1306.6</ele>
        <time>2021-10-09 19:29:01</time>
      </trkpt>
      <trkpt lat="40.09836" lon="-1.73185">
        <ele>1306.8</ele>
        <time>2021-10-09 19:29:02</time>
      </trkpt>
      <trkpt lat="40.09836" lon="-1.73182">
        <ele>1306.8</ele>
        <time>2021-10-09 19:29:03</time>
      </trkpt>
      <trkpt lat="40.09836" lon="-1.73179">
        <ele>1307</ele>
        <time>2021-10-09 19:29:04</time>
      </trkpt>
      <trkpt lat="40.09836" lon="-1.73177">
        <ele>1307</ele>
        <time>2021-10-09 19:29:05</time>
      </trkpt>
      <trkpt lat="40.09836" lon="-1.73175">
        <ele>1307.4</ele>
        <time>2021-10-09 19:29:06</time>
      </trkpt>
      <trkpt lat="40.09836" lon="-1.73173">
        <ele>1307.4</ele>
        <time>2021-10-09 19:29:07</time>
      </trkpt>
      <trkpt lat="40.09837" lon="-1.73171">
        <ele>1307.6</ele>
        <time>2021-10-09 19:29:08</time>
      </trkpt>
      <trkpt lat="40.09837" lon="-1.73169">
        <ele>1307.6</ele>
        <time>2021-10-09 19:29:09</time>
      </trkpt>
      <trkpt lat="40.09837" lon="-1.73166">
        <ele>1307.6</ele>
        <time>2021-10-09 19:29:10</time>
      </trkpt>
      <trkpt lat="40.09836" lon="-1.73163">
        <ele>1307.8</ele>
        <time>2021-10-09 19:29:11</time>
      </trkpt>
      <trkpt lat="40.09836" lon="-1.7316">
        <ele>1307.8</ele>
        <time>2021-10-09 19:29:12</time>
      </trkpt>
      <trkpt lat="40.09837" lon="-1.73158">
        <ele>1308</ele>
        <time>2021-10-09 19:29:13</time>
      </trkpt>
      <trkpt lat="40.09836" lon="-1.73155">
        <ele>1308.2</ele>
        <time>2021-10-09 19:29:14</time>
      </trkpt>
      <trkpt lat="40.09836" lon="-1.73152">
        <ele>1308.2</ele>
        <time>2021-10-09 19:29:15</time>
      </trkpt>
      <trkpt lat="40.09836" lon="-1.73149">
        <ele>1308.6</ele>
        <time>2021-10-09 19:29:16</time>
      </trkpt>
      <trkpt lat="40.09836" lon="-1.73147">
        <ele>1308.6</ele>
        <time>2021-10-09 19:29:17</time>
      </trkpt>
      <trkpt lat="40.09836" lon="-1.73145">
        <ele>1308.8</ele>
        <time>2021-10-09 19:29:18</time>
      </trkpt>
      <trkpt lat="40.09836" lon="-1.73142">
        <ele>1308.8</ele>
        <time>2021-10-09 19:29:19</time>
      </trkpt>
      <trkpt lat="40.09836" lon="-1.73138">
        <ele>1309.2</ele>
        <time>2021-10-09 19:29:20</time>
      </trkpt>
      <trkpt lat="40.09835" lon="-1.73135">
        <ele>1309.2</ele>
        <time>2021-10-09 19:29:21</time>
      </trkpt>
      <trkpt lat="40.09835" lon="-1.73132">
        <ele>1309.6</ele>
        <time>2021-10-09 19:29:22</time>
      </trkpt>
      <trkpt lat="40.09835" lon="-1.73129">
        <ele>1309.6</ele>
        <time>2021-10-09 19:29:23</time>
      </trkpt>
      <trkpt lat="40.09835" lon="-1.73126">
        <ele>1310</ele>
        <time>2021-10-09 19:29:24</time>
      </trkpt>
      <trkpt lat="40.09834" lon="-1.73123">
        <ele>1310</ele>
        <time>2021-10-09 19:29:25</time>
      </trkpt>
      <trkpt lat="40.09834" lon="-1.73121">
        <ele>1310.2</ele>
        <time>2021-10-09 19:29:26</time>
      </trkpt>
      <trkpt lat="40.09834" lon="-1.73119">
        <ele>1310.2</ele>
        <time>2021-10-09 19:29:27</time>
      </trkpt>
      <trkpt lat="40.09833" lon="-1.73116">
        <ele>1310.6</ele>
        <time>2021-10-09 19:29:28</time>
      </trkpt>
      <trkpt lat="40.09832" lon="-1.73113">
        <ele>1310.6</ele>
        <time>2021-10-09 19:29:29</time>
      </trkpt>
      <trkpt lat="40.09831" lon="-1.7311">
        <ele>1311</ele>
        <time>2021-10-09 19:29:30</time>
      </trkpt>
      <trkpt lat="40.09831" lon="-1.73108">
        <ele>1311</ele>
        <time>2021-10-09 19:29:31</time>
      </trkpt>
      <trkpt lat="40.0983" lon="-1.73105">
        <ele>1311.4</ele>
        <time>2021-10-09 19:29:32</time>
      </trkpt>
      <trkpt lat="40.0983" lon="-1.73102">
        <ele>1311.6</ele>
        <time>2021-10-09 19:29:33</time>
      </trkpt>
      <trkpt lat="40.0983" lon="-1.731">
        <ele>1311.6</ele>
        <time>2021-10-09 19:29:34</time>
      </trkpt>
      <trkpt lat="40.0983" lon="-1.73097">
        <ele>1312</ele>
        <time>2021-10-09 19:29:35</time>
      </trkpt>
      <trkpt lat="40.0983" lon="-1.73094">
        <ele>1312</ele>
        <time>2021-10-09 19:29:36</time>
      </trkpt>
      <trkpt lat="40.0983" lon="-1.73091">
        <ele>1312.2</ele>
        <time>2021-10-09 19:29:37</time>
      </trkpt>
      <trkpt lat="40.0983" lon="-1.73088">
        <ele>1312.2</ele>
        <time>2021-10-09 19:29:38</time>
      </trkpt>
      <trkpt lat="40.09829" lon="-1.73086">
        <ele>1312.6</ele>
        <time>2021-10-09 19:29:39</time>
      </trkpt>
      <trkpt lat="40.09828" lon="-1.73084">
        <ele>1313</ele>
        <time>2021-10-09 19:29:40</time>
      </trkpt>
      <trkpt lat="40.09828" lon="-1.73081">
        <ele>1313</ele>
        <time>2021-10-09 19:29:41</time>
      </trkpt>
      <trkpt lat="40.09827" lon="-1.73077">
        <ele>1313.2</ele>
        <time>2021-10-09 19:29:42</time>
      </trkpt>
      <trkpt lat="40.09827" lon="-1.73075">
        <ele>1313.2</ele>
        <time>2021-10-09 19:29:43</time>
      </trkpt>
      <trkpt lat="40.09826" lon="-1.73073">
        <ele>1313.6</ele>
        <time>2021-10-09 19:29:44</time>
      </trkpt>
      <trkpt lat="40.09826" lon="-1.73071">
        <ele>1313.8</ele>
        <time>2021-10-09 19:29:45</time>
      </trkpt>
      <trkpt lat="40.09824" lon="-1.73069">
        <ele>1314</ele>
        <time>2021-10-09 19:29:46</time>
      </trkpt>
      <trkpt lat="40.09823" lon="-1.73066">
        <ele>1314.2</ele>
        <time>2021-10-09 19:29:47</time>
      </trkpt>
      <trkpt lat="40.09823" lon="-1.73063">
        <ele>1314.2</ele>
        <time>2021-10-09 19:29:48</time>
      </trkpt>
      <trkpt lat="40.09822" lon="-1.7306">
        <ele>1314.6</ele>
        <time>2021-10-09 19:29:49</time>
      </trkpt>
      <trkpt lat="40.09821" lon="-1.73058">
        <ele>1314.6</ele>
        <time>2021-10-09 19:29:50</time>
      </trkpt>
      <trkpt lat="40.0982" lon="-1.73056">
        <ele>1314.8</ele>
        <time>2021-10-09 19:29:51</time>
      </trkpt>
      <trkpt lat="40.09819" lon="-1.73053">
        <ele>1314.8</ele>
        <time>2021-10-09 19:29:52</time>
      </trkpt>
      <trkpt lat="40.09818" lon="-1.73051">
        <ele>1315.2</ele>
        <time>2021-10-09 19:29:53</time>
      </trkpt>
      <trkpt lat="40.09817" lon="-1.73048">
        <ele>1315.2</ele>
        <time>2021-10-09 19:29:54</time>
      </trkpt>
      <trkpt lat="40.09817" lon="-1.73046">
        <ele>1315.6</ele>
        <time>2021-10-09 19:29:55</time>
      </trkpt>
      <trkpt lat="40.09816" lon="-1.73043">
        <ele>1315.6</ele>
        <time>2021-10-09 19:29:56</time>
      </trkpt>
      <trkpt lat="40.09816" lon="-1.7304">
        <ele>1315.8</ele>
        <time>2021-10-09 19:29:57</time>
      </trkpt>
      <trkpt lat="40.09815" lon="-1.73037">
        <ele>1316</ele>
        <time>2021-10-09 19:29:58</time>
      </trkpt>
      <trkpt lat="40.09813" lon="-1.73034">
        <ele>1316.2</ele>
        <time>2021-10-09 19:29:59</time>
      </trkpt>
      <trkpt lat="40.09812" lon="-1.73032">
        <ele>1316.2</ele>
        <time>2021-10-09 19:30:00</time>
      </trkpt>
      <trkpt lat="40.09811" lon="-1.7303">
        <ele>1316.6</ele>
        <time>2021-10-09 19:30:01</time>
      </trkpt>
      <trkpt lat="40.0981" lon="-1.73027">
        <ele>1316.6</ele>
        <time>2021-10-09 19:30:02</time>
      </trkpt>
      <trkpt lat="40.09809" lon="-1.73025">
        <ele>1317</ele>
        <time>2021-10-09 19:30:03</time>
      </trkpt>
      <trkpt lat="40.09808" lon="-1.73022">
        <ele>1317</ele>
        <time>2021-10-09 19:30:04</time>
      </trkpt>
      <trkpt lat="40.09808" lon="-1.73019">
        <ele>1317.2</ele>
        <time>2021-10-09 19:30:05</time>
      </trkpt>
      <trkpt lat="40.09807" lon="-1.73016">
        <ele>1317.2</ele>
        <time>2021-10-09 19:30:06</time>
      </trkpt>
      <trkpt lat="40.09806" lon="-1.73014">
        <ele>1317.6</ele>
        <time>2021-10-09 19:30:07</time>
      </trkpt>
      <trkpt lat="40.09806" lon="-1.73011">
        <ele>1317.6</ele>
        <time>2021-10-09 19:30:08</time>
      </trkpt>
      <trkpt lat="40.09806" lon="-1.73008">
        <ele>1318</ele>
        <time>2021-10-09 19:30:09</time>
      </trkpt>
      <trkpt lat="40.09805" lon="-1.73006">
        <ele>1318.2</ele>
        <time>2021-10-09 19:30:10</time>
      </trkpt>
      <trkpt lat="40.09804" lon="-1.73003">
        <ele>1318.4</ele>
        <time>2021-10-09 19:30:11</time>
      </trkpt>
      <trkpt lat="40.09803" lon="-1.73">
        <ele>1318.6</ele>
        <time>2021-10-09 19:30:12</time>
      </trkpt>
      <trkpt lat="40.09802" lon="-1.72998">
        <ele>1318.8</ele>
        <time>2021-10-09 19:30:13</time>
      </trkpt>
      <trkpt lat="40.09802" lon="-1.72995">
        <ele>1318.8</ele>
        <time>2021-10-09 19:30:14</time>
      </trkpt>
      <trkpt lat="40.09801" lon="-1.72993">
        <ele>1319.2</ele>
        <time>2021-10-09 19:30:15</time>
      </trkpt>
      <trkpt lat="40.09801" lon="-1.72991">
        <ele>1319.2</ele>
        <time>2021-10-09 19:30:16</time>
      </trkpt>
      <trkpt lat="40.098" lon="-1.72989">
        <ele>1319.4</ele>
        <time>2021-10-09 19:30:17</time>
      </trkpt>
      <trkpt lat="40.098" lon="-1.72987">
        <ele>1319.4</ele>
        <time>2021-10-09 19:30:18</time>
      </trkpt>
      <trkpt lat="40.098" lon="-1.72984">
        <ele>1319.8</ele>
        <time>2021-10-09 19:30:19</time>
      </trkpt>
      <trkpt lat="40.098" lon="-1.72982">
        <ele>1319.8</ele>
        <time>2021-10-09 19:30:20</time>
      </trkpt>
      <trkpt lat="40.098" lon="-1.7298">
        <ele>1320</ele>
        <time>2021-10-09 19:30:21</time>
      </trkpt>
      <trkpt lat="40.098" lon="-1.72977">
        <ele>1320</ele>
        <time>2021-10-09 19:30:22</time>
      </trkpt>
      <trkpt lat="40.098" lon="-1.72975">
        <ele>1320.2</ele>
        <time>2021-10-09 19:30:23</time>
      </trkpt>
      <trkpt lat="40.098" lon="-1.72973">
        <ele>1320.2</ele>
        <time>2021-10-09 19:30:24</time>
      </trkpt>
      <trkpt lat="40.09799" lon="-1.72971">
        <ele>1320.6</ele>
        <time>2021-10-09 19:30:25</time>
      </trkpt>
      <trkpt lat="40.09799" lon="-1.72968">
        <ele>1320.6</ele>
        <time>2021-10-09 19:30:26</time>
      </trkpt>
      <trkpt lat="40.09799" lon="-1.72966">
        <ele>1320.8</ele>
        <time>2021-10-09 19:30:27</time>
      </trkpt>
      <trkpt lat="40.09799" lon="-1.72964">
        <ele>1320.8</ele>
        <time>2021-10-09 19:30:28</time>
      </trkpt>
      <trkpt lat="40.09798" lon="-1.72961">
        <ele>1320.8</ele>
        <time>2021-10-09 19:30:29</time>
      </trkpt>
      <trkpt lat="40.09798" lon="-1.72958">
        <ele>1321</ele>
        <time>2021-10-09 19:30:30</time>
      </trkpt>
      <trkpt lat="40.09798" lon="-1.72955">
        <ele>1321</ele>
        <time>2021-10-09 19:30:31</time>
      </trkpt>
      <trkpt lat="40.09798" lon="-1.72953">
        <ele>1321</ele>
        <time>2021-10-09 19:30:32</time>
      </trkpt>
      <trkpt lat="40.09798" lon="-1.7295">
        <ele>1321.4</ele>
        <time>2021-10-09 19:30:33</time>
      </trkpt>
      <trkpt lat="40.09798" lon="-1.72947">
        <ele>1321.4</ele>
        <time>2021-10-09 19:30:34</time>
      </trkpt>
      <trkpt lat="40.09798" lon="-1.72944">
        <ele>1321.4</ele>
        <time>2021-10-09 19:30:35</time>
      </trkpt>
      <trkpt lat="40.09799" lon="-1.72941">
        <ele>1321.4</ele>
        <time>2021-10-09 19:30:36</time>
      </trkpt>
      <trkpt lat="40.098" lon="-1.72938">
        <ele>1321.4</ele>
        <time>2021-10-09 19:30:37</time>
      </trkpt>
      <trkpt lat="40.098" lon="-1.72936">
        <ele>1321.4</ele>
        <time>2021-10-09 19:30:38</time>
      </trkpt>
      <trkpt lat="40.098" lon="-1.72933">
        <ele>1321.6</ele>
        <time>2021-10-09 19:30:39</time>
      </trkpt>
      <trkpt lat="40.098" lon="-1.72929">
        <ele>1321.6</ele>
        <time>2021-10-09 19:30:40</time>
      </trkpt>
      <trkpt lat="40.098" lon="-1.72926">
        <ele>1321.6</ele>
        <time>2021-10-09 19:30:41</time>
      </trkpt>
      <trkpt lat="40.098" lon="-1.72922">
        <ele>1321.8</ele>
        <time>2021-10-09 19:30:42</time>
      </trkpt>
      <trkpt lat="40.098" lon="-1.72919">
        <ele>1321.8</ele>
        <time>2021-10-09 19:30:43</time>
      </trkpt>
      <trkpt lat="40.098" lon="-1.72916">
        <ele>1321.8</ele>
        <time>2021-10-09 19:30:44</time>
      </trkpt>
      <trkpt lat="40.098" lon="-1.72913">
        <ele>1321.8</ele>
        <time>2021-10-09 19:30:45</time>
      </trkpt>
      <trkpt lat="40.098" lon="-1.7291">
        <ele>1322</ele>
        <time>2021-10-09 19:30:46</time>
      </trkpt>
      <trkpt lat="40.09801" lon="-1.72907">
        <ele>1322</ele>
        <time>2021-10-09 19:30:47</time>
      </trkpt>
      <trkpt lat="40.09801" lon="-1.72903">
        <ele>1322</ele>
        <time>2021-10-09 19:30:48</time>
      </trkpt>
      <trkpt lat="40.09802" lon="-1.72899">
        <ele>1322</ele>
        <time>2021-10-09 19:30:49</time>
      </trkpt>
      <trkpt lat="40.09801" lon="-1.72895">
        <ele>1322</ele>
        <time>2021-10-09 19:30:50</time>
      </trkpt>
      <trkpt lat="40.09801" lon="-1.72891">
        <ele>1322</ele>
        <time>2021-10-09 19:30:51</time>
      </trkpt>
      <trkpt lat="40.098" lon="-1.72887">
        <ele>1322</ele>
        <time>2021-10-09 19:30:52</time>
      </trkpt>
      <trkpt lat="40.098" lon="-1.72882">
        <ele>1322</ele>
        <time>2021-10-09 19:30:53</time>
      </trkpt>
      <trkpt lat="40.09799" lon="-1.72878">
        <ele>1322</ele>
        <time>2021-10-09 19:30:54</time>
      </trkpt>
      <trkpt lat="40.09798" lon="-1.72874">
        <ele>1322</ele>
        <time>2021-10-09 19:30:55</time>
      </trkpt>
      <trkpt lat="40.09797" lon="-1.7287">
        <ele>1322</ele>
        <time>2021-10-09 19:30:56</time>
      </trkpt>
      <trkpt lat="40.09796" lon="-1.72866">
        <ele>1322</ele>
        <time>2021-10-09 19:30:57</time>
      </trkpt>
      <trkpt lat="40.09794" lon="-1.72862">
        <ele>1322.2</ele>
        <time>2021-10-09 19:30:58</time>
      </trkpt>
      <trkpt lat="40.09793" lon="-1.72859">
        <ele>1322.2</ele>
        <time>2021-10-09 19:30:59</time>
      </trkpt>
      <trkpt lat="40.09791" lon="-1.72856">
        <ele>1322.2</ele>
        <time>2021-10-09 19:31:00</time>
      </trkpt>
      <trkpt lat="40.09789" lon="-1.72853">
        <ele>1322.2</ele>
        <time>2021-10-09 19:31:01</time>
      </trkpt>
      <trkpt lat="40.09786" lon="-1.7285">
        <ele>1322.2</ele>
        <time>2021-10-09 19:31:02</time>
      </trkpt>
      <trkpt lat="40.09784" lon="-1.72847">
        <ele>1322.6</ele>
        <time>2021-10-09 19:31:03</time>
      </trkpt>
      <trkpt lat="40.09782" lon="-1.72844">
        <ele>1322.6</ele>
        <time>2021-10-09 19:31:04</time>
      </trkpt>
      <trkpt lat="40.0978" lon="-1.72842">
        <ele>1322.6</ele>
        <time>2021-10-09 19:31:05</time>
      </trkpt>
      <trkpt lat="40.09777" lon="-1.72839">
        <ele>1322.8</ele>
        <time>2021-10-09 19:31:06</time>
      </trkpt>
      <trkpt lat="40.09775" lon="-1.72837">
        <ele>1322.8</ele>
        <time>2021-10-09 19:31:07</time>
      </trkpt>
      <trkpt lat="40.09773" lon="-1.72835">
        <ele>1323</ele>
        <time>2021-10-09 19:31:08</time>
      </trkpt>
      <trkpt lat="40.0977" lon="-1.72832">
        <ele>1323</ele>
        <time>2021-10-09 19:31:09</time>
      </trkpt>
      <trkpt lat="40.09768" lon="-1.7283">
        <ele>1323.2</ele>
        <time>2021-10-09 19:31:10</time>
      </trkpt>
      <trkpt lat="40.09765" lon="-1.72827">
        <ele>1323.2</ele>
        <time>2021-10-09 19:31:11</time>
      </trkpt>
      <trkpt lat="40.09763" lon="-1.72825">
        <ele>1323.2</ele>
        <time>2021-10-09 19:31:12</time>
      </trkpt>
      <trkpt lat="40.09761" lon="-1.72822">
        <ele>1323.6</ele>
        <time>2021-10-09 19:31:13</time>
      </trkpt>
      <trkpt lat="40.09759" lon="-1.72819">
        <ele>1323.6</ele>
        <time>2021-10-09 19:31:14</time>
      </trkpt>
      <trkpt lat="40.09757" lon="-1.72816">
        <ele>1324</ele>
        <time>2021-10-09 19:31:15</time>
      </trkpt>
      <trkpt lat="40.09755" lon="-1.72812">
        <ele>1324</ele>
        <time>2021-10-09 19:31:16</time>
      </trkpt>
      <trkpt lat="40.09754" lon="-1.72809">
        <ele>1324.2</ele>
        <time>2021-10-09 19:31:17</time>
      </trkpt>
      <trkpt lat="40.09752" lon="-1.72806">
        <ele>1324.2</ele>
        <time>2021-10-09 19:31:18</time>
      </trkpt>
      <trkpt lat="40.0975" lon="-1.72801">
        <ele>1324.4</ele>
        <time>2021-10-09 19:31:19</time>
      </trkpt>
      <trkpt lat="40.09749" lon="-1.72797">
        <ele>1324.4</ele>
        <time>2021-10-09 19:31:20</time>
      </trkpt>
      <trkpt lat="40.09748" lon="-1.72793">
        <ele>1324.8</ele>
        <time>2021-10-09 19:31:21</time>
      </trkpt>
      <trkpt lat="40.09748" lon="-1.72788">
        <ele>1324.8</ele>
        <time>2021-10-09 19:31:22</time>
      </trkpt>
      <trkpt lat="40.09747" lon="-1.72784">
        <ele>1324.8</ele>
        <time>2021-10-09 19:31:23</time>
      </trkpt>
      <trkpt lat="40.09746" lon="-1.7278">
        <ele>1325</ele>
        <time>2021-10-09 19:31:24</time>
      </trkpt>
      <trkpt lat="40.09746" lon="-1.72776">
        <ele>1325</ele>
        <time>2021-10-09 19:31:25</time>
      </trkpt>
      <trkpt lat="40.09745" lon="-1.72772">
        <ele>1325</ele>
        <time>2021-10-09 19:31:26</time>
      </trkpt>
      <trkpt lat="40.09744" lon="-1.72768">
        <ele>1325.4</ele>
        <time>2021-10-09 19:31:27</time>
      </trkpt>
      <trkpt lat="40.09743" lon="-1.72764">
        <ele>1325.4</ele>
        <time>2021-10-09 19:31:28</time>
      </trkpt>
      <trkpt lat="40.09743" lon="-1.72759">
        <ele>1325.6</ele>
        <time>2021-10-09 19:31:29</time>
      </trkpt>
      <trkpt lat="40.09742" lon="-1.72755">
        <ele>1325.6</ele>
        <time>2021-10-09 19:31:30</time>
      </trkpt>
      <trkpt lat="40.09742" lon="-1.72751">
        <ele>1325.6</ele>
        <time>2021-10-09 19:31:31</time>
      </trkpt>
      <trkpt lat="40.09741" lon="-1.72747">
        <ele>1326</ele>
        <time>2021-10-09 19:31:32</time>
      </trkpt>
      <trkpt lat="40.0974" lon="-1.72744">
        <ele>1326</ele>
        <time>2021-10-09 19:31:33</time>
      </trkpt>
      <trkpt lat="40.0974" lon="-1.7274">
        <ele>1326</ele>
        <time>2021-10-09 19:31:34</time>
      </trkpt>
      <trkpt lat="40.09739" lon="-1.72736">
        <ele>1326.2</ele>
        <time>2021-10-09 19:31:35</time>
      </trkpt>
      <trkpt lat="40.09738" lon="-1.72732">
        <ele>1326.2</ele>
        <time>2021-10-09 19:31:36</time>
      </trkpt>
      <trkpt lat="40.09738" lon="-1.72728">
        <ele>1326.4</ele>
        <time>2021-10-09 19:31:37</time>
      </trkpt>
      <trkpt lat="40.09737" lon="-1.72724">
        <ele>1326.4</ele>
        <time>2021-10-09 19:31:38</time>
      </trkpt>
      <trkpt lat="40.09736" lon="-1.7272">
        <ele>1326.6</ele>
        <time>2021-10-09 19:31:39</time>
      </trkpt>
      <trkpt lat="40.09736" lon="-1.72716">
        <ele>1326.6</ele>
        <time>2021-10-09 19:31:40</time>
      </trkpt>
      <trkpt lat="40.09735" lon="-1.72713">
        <ele>1326.8</ele>
        <time>2021-10-09 19:31:41</time>
      </trkpt>
      <trkpt lat="40.09734" lon="-1.72709">
        <ele>1326.8</ele>
        <time>2021-10-09 19:31:42</time>
      </trkpt>
      <trkpt lat="40.09734" lon="-1.72705">
        <ele>1327</ele>
        <time>2021-10-09 19:31:43</time>
      </trkpt>
      <trkpt lat="40.09733" lon="-1.72701">
        <ele>1327</ele>
        <time>2021-10-09 19:31:44</time>
      </trkpt>
      <trkpt lat="40.09732" lon="-1.72697">
        <ele>1327.2</ele>
        <time>2021-10-09 19:31:45</time>
      </trkpt>
      <trkpt lat="40.09731" lon="-1.72693">
        <ele>1327.2</ele>
        <time>2021-10-09 19:31:46</time>
      </trkpt>
      <trkpt lat="40.09731" lon="-1.72689">
        <ele>1327.2</ele>
        <time>2021-10-09 19:31:47</time>
      </trkpt>
      <trkpt lat="40.0973" lon="-1.72685">
        <ele>1327.6</ele>
        <time>2021-10-09 19:31:48</time>
      </trkpt>
      <trkpt lat="40.09729" lon="-1.72681">
        <ele>1327.6</ele>
        <time>2021-10-09 19:31:49</time>
      </trkpt>
      <trkpt lat="40.09729" lon="-1.72678">
        <ele>1327.8</ele>
        <time>2021-10-09 19:31:50</time>
      </trkpt>
      <trkpt lat="40.09728" lon="-1.72674">
        <ele>1327.8</ele>
        <time>2021-10-09 19:31:51</time>
      </trkpt>
      <trkpt lat="40.09727" lon="-1.7267">
        <ele>1328</ele>
        <time>2021-10-09 19:31:52</time>
      </trkpt>
      <trkpt lat="40.09726" lon="-1.72666">
        <ele>1328</ele>
        <time>2021-10-09 19:31:53</time>
      </trkpt>
      <trkpt lat="40.09724" lon="-1.72662">
        <ele>1328.2</ele>
        <time>2021-10-09 19:31:54</time>
      </trkpt>
      <trkpt lat="40.09723" lon="-1.72659">
        <ele>1328.2</ele>
        <time>2021-10-09 19:31:55</time>
      </trkpt>
      <trkpt lat="40.09722" lon="-1.72655">
        <ele>1328.6</ele>
        <time>2021-10-09 19:31:56</time>
      </trkpt>
      <trkpt lat="40.0972" lon="-1.72651">
        <ele>1328.6</ele>
        <time>2021-10-09 19:31:57</time>
      </trkpt>
      <trkpt lat="40.09719" lon="-1.72647">
        <ele>1328.8</ele>
        <time>2021-10-09 19:31:58</time>
      </trkpt>
      <trkpt lat="40.09718" lon="-1.72643">
        <ele>1328.8</ele>
        <time>2021-10-09 19:31:59</time>
      </trkpt>
      <trkpt lat="40.09716" lon="-1.7264">
        <ele>1328.8</ele>
        <time>2021-10-09 19:32:00</time>
      </trkpt>
      <trkpt lat="40.09715" lon="-1.72636">
        <ele>1329</ele>
        <time>2021-10-09 19:32:01</time>
      </trkpt>
      <trkpt lat="40.09714" lon="-1.72632">
        <ele>1329</ele>
        <time>2021-10-09 19:32:02</time>
      </trkpt>
      <trkpt lat="40.09712" lon="-1.72628">
        <ele>1329.4</ele>
        <time>2021-10-09 19:32:03</time>
      </trkpt>
      <trkpt lat="40.09711" lon="-1.72625">
        <ele>1329.4</ele>
        <time>2021-10-09 19:32:04</time>
      </trkpt>
      <trkpt lat="40.09709" lon="-1.72621">
        <ele>1329.4</ele>
        <time>2021-10-09 19:32:05</time>
      </trkpt>
      <trkpt lat="40.09708" lon="-1.72617">
        <ele>1329.6</ele>
        <time>2021-10-09 19:32:06</time>
      </trkpt>
      <trkpt lat="40.09707" lon="-1.72613">
        <ele>1329.6</ele>
        <time>2021-10-09 19:32:07</time>
      </trkpt>
      <trkpt lat="40.09706" lon="-1.7261">
        <ele>1329.8</ele>
        <time>2021-10-09 19:32:08</time>
      </trkpt>
      <trkpt lat="40.09705" lon="-1.72606">
        <ele>1329.8</ele>
        <time>2021-10-09 19:32:09</time>
      </trkpt>
      <trkpt lat="40.09704" lon="-1.72602">
        <ele>1330</ele>
        <time>2021-10-09 19:32:10</time>
      </trkpt>
      <trkpt lat="40.09703" lon="-1.72598">
        <ele>1330</ele>
        <time>2021-10-09 19:32:11</time>
      </trkpt>
      <trkpt lat="40.09702" lon="-1.72595">
        <ele>1330.4</ele>
        <time>2021-10-09 19:32:12</time>
      </trkpt>
      <trkpt lat="40.09701" lon="-1.72591">
        <ele>1330.4</ele>
        <time>2021-10-09 19:32:13</time>
      </trkpt>
      <trkpt lat="40.09701" lon="-1.72587">
        <ele>1330.6</ele>
        <time>2021-10-09 19:32:14</time>
      </trkpt>
      <trkpt lat="40.097" lon="-1.72583">
        <ele>1330.6</ele>
        <time>2021-10-09 19:32:15</time>
      </trkpt>
      <trkpt lat="40.097" lon="-1.72579">
        <ele>1330.6</ele>
        <time>2021-10-09 19:32:16</time>
      </trkpt>
      <trkpt lat="40.097" lon="-1.72575">
        <ele>1331</ele>
        <time>2021-10-09 19:32:17</time>
      </trkpt>
      <trkpt lat="40.097" lon="-1.72571">
        <ele>1331</ele>
        <time>2021-10-09 19:32:18</time>
      </trkpt>
      <trkpt lat="40.097" lon="-1.72567">
        <ele>1331</ele>
        <time>2021-10-09 19:32:19</time>
      </trkpt>
      <trkpt lat="40.09699" lon="-1.72563">
        <ele>1331.2</ele>
        <time>2021-10-09 19:32:20</time>
      </trkpt>
      <trkpt lat="40.09699" lon="-1.72558">
        <ele>1331.2</ele>
        <time>2021-10-09 19:32:21</time>
      </trkpt>
      <trkpt lat="40.09699" lon="-1.72554">
        <ele>1331.2</ele>
        <time>2021-10-09 19:32:22</time>
      </trkpt>
      <trkpt lat="40.09699" lon="-1.7255">
        <ele>1331.4</ele>
        <time>2021-10-09 19:32:23</time>
      </trkpt>
      <trkpt lat="40.09699" lon="-1.72546">
        <ele>1331.4</ele>
        <time>2021-10-09 19:32:24</time>
      </trkpt>
      <trkpt lat="40.09698" lon="-1.72543">
        <ele>1331.4</ele>
        <time>2021-10-09 19:32:25</time>
      </trkpt>
      <trkpt lat="40.09698" lon="-1.7254">
        <ele>1331.4</ele>
        <time>2021-10-09 19:32:26</time>
      </trkpt>
      <trkpt lat="40.09697" lon="-1.72536">
        <ele>1331.4</ele>
        <time>2021-10-09 19:32:27</time>
      </trkpt>
      <trkpt lat="40.09696" lon="-1.72533">
        <ele>1331.4</ele>
        <time>2021-10-09 19:32:28</time>
      </trkpt>
      <trkpt lat="40.09695" lon="-1.72529">
        <ele>1331.6</ele>
        <time>2021-10-09 19:32:29</time>
      </trkpt>
      <trkpt lat="40.09694" lon="-1.72525">
        <ele>1331.6</ele>
        <time>2021-10-09 19:32:30</time>
      </trkpt>
      <trkpt lat="40.09692" lon="-1.72521">
        <ele>1331.6</ele>
        <time>2021-10-09 19:32:31</time>
      </trkpt>
      <trkpt lat="40.0969" lon="-1.72517">
        <ele>1331.6</ele>
        <time>2021-10-09 19:32:32</time>
      </trkpt>
      <trkpt lat="40.09688" lon="-1.72514">
        <ele>1332</ele>
        <time>2021-10-09 19:32:33</time>
      </trkpt>
      <trkpt lat="40.09686" lon="-1.72511">
        <ele>1332</ele>
        <time>2021-10-09 19:32:34</time>
      </trkpt>
      <trkpt lat="40.09683" lon="-1.72508">
        <ele>1332</ele>
        <time>2021-10-09 19:32:35</time>
      </trkpt>
      <trkpt lat="40.0968" lon="-1.72505">
        <ele>1332.2</ele>
        <time>2021-10-09 19:32:36</time>
      </trkpt>
      <trkpt lat="40.09678" lon="-1.72503">
        <ele>1332.2</ele>
        <time>2021-10-09 19:32:37</time>
      </trkpt>
      <trkpt lat="40.09675" lon="-1.725">
        <ele>1332.2</ele>
        <time>2021-10-09 19:32:38</time>
      </trkpt>
      <trkpt lat="40.09672" lon="-1.72498">
        <ele>1332.6</ele>
        <time>2021-10-09 19:32:39</time>
      </trkpt>
      <trkpt lat="40.0967" lon="-1.72496">
        <ele>1332.6</ele>
        <time>2021-10-09 19:32:40</time>
      </trkpt>
      <trkpt lat="40.09667" lon="-1.72493">
        <ele>1332.8</ele>
        <time>2021-10-09 19:32:41</time>
      </trkpt>
      <trkpt lat="40.09664" lon="-1.72491">
        <ele>1332.8</ele>
        <time>2021-10-09 19:32:42</time>
      </trkpt>
      <trkpt lat="40.09662" lon="-1.72489">
        <ele>1333</ele>
        <time>2021-10-09 19:32:43</time>
      </trkpt>
      <trkpt lat="40.09659" lon="-1.72487">
        <ele>1333</ele>
        <time>2021-10-09 19:32:44</time>
      </trkpt>
      <trkpt lat="40.09657" lon="-1.72485">
        <ele>1333.2</ele>
        <time>2021-10-09 19:32:45</time>
      </trkpt>
      <trkpt lat="40.09654" lon="-1.72483">
        <ele>1333.2</ele>
        <time>2021-10-09 19:32:46</time>
      </trkpt>
      <trkpt lat="40.09651" lon="-1.72481">
        <ele>1333.6</ele>
        <time>2021-10-09 19:32:47</time>
      </trkpt>
      <trkpt lat="40.09648" lon="-1.72478">
        <ele>1333.6</ele>
        <time>2021-10-09 19:32:48</time>
      </trkpt>
      <trkpt lat="40.09646" lon="-1.72476">
        <ele>1333.6</ele>
        <time>2021-10-09 19:32:49</time>
      </trkpt>
      <trkpt lat="40.09643" lon="-1.72473">
        <ele>1333.8</ele>
        <time>2021-10-09 19:32:50</time>
      </trkpt>
      <trkpt lat="40.0964" lon="-1.72471">
        <ele>1333.8</ele>
        <time>2021-10-09 19:32:51</time>
      </trkpt>
      <trkpt lat="40.09638" lon="-1.72469">
        <ele>1334</ele>
        <time>2021-10-09 19:32:52</time>
      </trkpt>
      <trkpt lat="40.09635" lon="-1.72466">
        <ele>1334</ele>
        <time>2021-10-09 19:32:53</time>
      </trkpt>
      <trkpt lat="40.09632" lon="-1.72464">
        <ele>1334.4</ele>
        <time>2021-10-09 19:32:54</time>
      </trkpt>
      <trkpt lat="40.09629" lon="-1.72461">
        <ele>1334.4</ele>
        <time>2021-10-09 19:32:55</time>
      </trkpt>
      <trkpt lat="40.09627" lon="-1.72458">
        <ele>1334.6</ele>
        <time>2021-10-09 19:32:56</time>
      </trkpt>
      <trkpt lat="40.09625" lon="-1.72455">
        <ele>1334.6</ele>
        <time>2021-10-09 19:32:57</time>
      </trkpt>
      <trkpt lat="40.09622" lon="-1.72451">
        <ele>1335</ele>
        <time>2021-10-09 19:32:58</time>
      </trkpt>
      <trkpt lat="40.0962" lon="-1.72448">
        <ele>1335</ele>
        <time>2021-10-09 19:32:59</time>
      </trkpt>
      <trkpt lat="40.09619" lon="-1.72444">
        <ele>1335.2</ele>
        <time>2021-10-09 19:33:00</time>
      </trkpt>
      <trkpt lat="40.09617" lon="-1.7244">
        <ele>1335.2</ele>
        <time>2021-10-09 19:33:01</time>
      </trkpt>
      <trkpt lat="40.09615" lon="-1.72437">
        <ele>1335.4</ele>
        <time>2021-10-09 19:33:02</time>
      </trkpt>
      <trkpt lat="40.09614" lon="-1.72433">
        <ele>1335.4</ele>
        <time>2021-10-09 19:33:03</time>
      </trkpt>
      <trkpt lat="40.09612" lon="-1.72429">
        <ele>1335.8</ele>
        <time>2021-10-09 19:33:04</time>
      </trkpt>
      <trkpt lat="40.09611" lon="-1.72425">
        <ele>1335.8</ele>
        <time>2021-10-09 19:33:05</time>
      </trkpt>
      <trkpt lat="40.0961" lon="-1.72421">
        <ele>1336</ele>
        <time>2021-10-09 19:33:06</time>
      </trkpt>
      <trkpt lat="40.09609" lon="-1.72417">
        <ele>1336</ele>
        <time>2021-10-09 19:33:07</time>
      </trkpt>
      <trkpt lat="40.09608" lon="-1.72413">
        <ele>1336.4</ele>
        <time>2021-10-09 19:33:08</time>
      </trkpt>
      <trkpt lat="40.09608" lon="-1.72409">
        <ele>1336.4</ele>
        <time>2021-10-09 19:33:09</time>
      </trkpt>
      <trkpt lat="40.09607" lon="-1.72405">
        <ele>1336.6</ele>
        <time>2021-10-09 19:33:10</time>
      </trkpt>
      <trkpt lat="40.09607" lon="-1.72401">
        <ele>1336.6</ele>
        <time>2021-10-09 19:33:11</time>
      </trkpt>
      <trkpt lat="40.09607" lon="-1.72397">
        <ele>1336.6</ele>
        <time>2021-10-09 19:33:12</time>
      </trkpt>
      <trkpt lat="40.09607" lon="-1.72392">
        <ele>1337</ele>
        <time>2021-10-09 19:33:13</time>
      </trkpt>
      <trkpt lat="40.09606" lon="-1.72388">
        <ele>1337</ele>
        <time>2021-10-09 19:33:14</time>
      </trkpt>
      <trkpt lat="40.09606" lon="-1.72383">
        <ele>1337</ele>
        <time>2021-10-09 19:33:15</time>
      </trkpt>
      <trkpt lat="40.09605" lon="-1.72379">
        <ele>1337.2</ele>
        <time>2021-10-09 19:33:16</time>
      </trkpt>
      <trkpt lat="40.09604" lon="-1.72374">
        <ele>1337.2</ele>
        <time>2021-10-09 19:33:17</time>
      </trkpt>
      <trkpt lat="40.09604" lon="-1.7237">
        <ele>1337.4</ele>
        <time>2021-10-09 19:33:18</time>
      </trkpt>
      <trkpt lat="40.09603" lon="-1.72365">
        <ele>1337.4</ele>
        <time>2021-10-09 19:33:19</time>
      </trkpt>
      <trkpt lat="40.09602" lon="-1.7236">
        <ele>1337.4</ele>
        <time>2021-10-09 19:33:20</time>
      </trkpt>
      <trkpt lat="40.09601" lon="-1.72356">
        <ele>1337.6</ele>
        <time>2021-10-09 19:33:21</time>
      </trkpt>
      <trkpt lat="40.09601" lon="-1.72351">
        <ele>1337.6</ele>
        <time>2021-10-09 19:33:22</time>
      </trkpt>
      <trkpt lat="40.096" lon="-1.72346">
        <ele>1337.6</ele>
        <time>2021-10-09 19:33:23</time>
      </trkpt>
      <trkpt lat="40.09598" lon="-1.72342">
        <ele>1337.8</ele>
        <time>2021-10-09 19:33:24</time>
      </trkpt>
      <trkpt lat="40.09597" lon="-1.72338">
        <ele>1337.8</ele>
        <time>2021-10-09 19:33:25</time>
      </trkpt>
      <trkpt lat="40.09595" lon="-1.72333">
        <ele>1337.8</ele>
        <time>2021-10-09 19:33:26</time>
      </trkpt>
      <trkpt lat="40.09593" lon="-1.7233">
        <ele>1338.2</ele>
        <time>2021-10-09 19:33:27</time>
      </trkpt>
      <trkpt lat="40.09591" lon="-1.72326">
        <ele>1338.2</ele>
        <time>2021-10-09 19:33:28</time>
      </trkpt>
      <trkpt lat="40.09589" lon="-1.72322">
        <ele>1338.2</ele>
        <time>2021-10-09 19:33:29</time>
      </trkpt>
      <trkpt lat="40.09586" lon="-1.72319">
        <ele>1338.2</ele>
        <time>2021-10-09 19:33:30</time>
      </trkpt>
      <trkpt lat="40.09584" lon="-1.72316">
        <ele>1338.4</ele>
        <time>2021-10-09 19:33:31</time>
      </trkpt>
      <trkpt lat="40.09581" lon="-1.72313">
        <ele>1338.4</ele>
        <time>2021-10-09 19:33:32</time>
      </trkpt>
      <trkpt lat="40.09579" lon="-1.7231">
        <ele>1338.4</ele>
        <time>2021-10-09 19:33:33</time>
      </trkpt>
      <trkpt lat="40.09576" lon="-1.72307">
        <ele>1338.6</ele>
        <time>2021-10-09 19:33:34</time>
      </trkpt>
      <trkpt lat="40.09574" lon="-1.72303">
        <ele>1338.6</ele>
        <time>2021-10-09 19:33:35</time>
      </trkpt>
      <trkpt lat="40.09572" lon="-1.723">
        <ele>1338.6</ele>
        <time>2021-10-09 19:33:36</time>
      </trkpt>
      <trkpt lat="40.09569" lon="-1.72297">
        <ele>1338.6</ele>
        <time>2021-10-09 19:33:37</time>
      </trkpt>
      <trkpt lat="40.09567" lon="-1.72294">
        <ele>1339</ele>
        <time>2021-10-09 19:33:38</time>
      </trkpt>
      <trkpt lat="40.09565" lon="-1.72291">
        <ele>1339</ele>
        <time>2021-10-09 19:33:39</time>
      </trkpt>
      <trkpt lat="40.09562" lon="-1.72288">
        <ele>1339</ele>
        <time>2021-10-09 19:33:40</time>
      </trkpt>
      <trkpt lat="40.0956" lon="-1.72286">
        <ele>1339</ele>
        <time>2021-10-09 19:33:41</time>
      </trkpt>
      <trkpt lat="40.09558" lon="-1.72282">
        <ele>1339.2</ele>
        <time>2021-10-09 19:33:42</time>
      </trkpt>
      <trkpt lat="40.09556" lon="-1.72279">
        <ele>1339.2</ele>
        <time>2021-10-09 19:33:43</time>
      </trkpt>
      <trkpt lat="40.09554" lon="-1.72276">
        <ele>1339.4</ele>
        <time>2021-10-09 19:33:44</time>
      </trkpt>
      <trkpt lat="40.09551" lon="-1.72273">
        <ele>1339.4</ele>
        <time>2021-10-09 19:33:45</time>
      </trkpt>
      <trkpt lat="40.09549" lon="-1.7227">
        <ele>1339.6</ele>
        <time>2021-10-09 19:33:46</time>
      </trkpt>
      <trkpt lat="40.09547" lon="-1.72267">
        <ele>1339.6</ele>
        <time>2021-10-09 19:33:47</time>
      </trkpt>
      <trkpt lat="40.09545" lon="-1.72265">
        <ele>1339.8</ele>
        <time>2021-10-09 19:33:48</time>
      </trkpt>
      <trkpt lat="40.09543" lon="-1.72262">
        <ele>1339.8</ele>
        <time>2021-10-09 19:33:49</time>
      </trkpt>
      <trkpt lat="40.09541" lon="-1.72259">
        <ele>1339.8</ele>
        <time>2021-10-09 19:33:50</time>
      </trkpt>
      <trkpt lat="40.09539" lon="-1.72256">
        <ele>1340</ele>
        <time>2021-10-09 19:33:51</time>
      </trkpt>
      <trkpt lat="40.09537" lon="-1.72254">
        <ele>1340</ele>
        <time>2021-10-09 19:33:52</time>
      </trkpt>
      <trkpt lat="40.09535" lon="-1.72251">
        <ele>1340</ele>
        <time>2021-10-09 19:33:53</time>
      </trkpt>
      <trkpt lat="40.09533" lon="-1.72248">
        <ele>1340.4</ele>
        <time>2021-10-09 19:33:54</time>
      </trkpt>
      <trkpt lat="40.09531" lon="-1.72245">
        <ele>1340.4</ele>
        <time>2021-10-09 19:33:55</time>
      </trkpt>
      <trkpt lat="40.09528" lon="-1.72242">
        <ele>1340.6</ele>
        <time>2021-10-09 19:33:56</time>
      </trkpt>
      <trkpt lat="40.09526" lon="-1.72237">
        <ele>1340.6</ele>
        <time>2021-10-09 19:33:57</time>
      </trkpt>
      <trkpt lat="40.09524" lon="-1.72234">
        <ele>1340.8</ele>
        <time>2021-10-09 19:33:58</time>
      </trkpt>
      <trkpt lat="40.09522" lon="-1.7223">
        <ele>1340.8</ele>
        <time>2021-10-09 19:33:59</time>
      </trkpt>
      <trkpt lat="40.09521" lon="-1.72226">
        <ele>1341.2</ele>
        <time>2021-10-09 19:34:00</time>
      </trkpt>
      <trkpt lat="40.09518" lon="-1.72223">
        <ele>1341.2</ele>
        <time>2021-10-09 19:34:01</time>
      </trkpt>
      <trkpt lat="40.09516" lon="-1.7222">
        <ele>1341.6</ele>
        <time>2021-10-09 19:34:02</time>
      </trkpt>
      <trkpt lat="40.09515" lon="-1.72216">
        <ele>1341.6</ele>
        <time>2021-10-09 19:34:03</time>
      </trkpt>
      <trkpt lat="40.09512" lon="-1.72213">
        <ele>1342</ele>
        <time>2021-10-09 19:34:04</time>
      </trkpt>
      <trkpt lat="40.0951" lon="-1.7221">
        <ele>1342</ele>
        <time>2021-10-09 19:34:05</time>
      </trkpt>
      <trkpt lat="40.09508" lon="-1.72206">
        <ele>1342.2</ele>
        <time>2021-10-09 19:34:06</time>
      </trkpt>
      <trkpt lat="40.09507" lon="-1.72203">
        <ele>1342.2</ele>
        <time>2021-10-09 19:34:07</time>
      </trkpt>
      <trkpt lat="40.09505" lon="-1.722">
        <ele>1342.6</ele>
        <time>2021-10-09 19:34:08</time>
      </trkpt>
      <trkpt lat="40.09503" lon="-1.72196">
        <ele>1342.6</ele>
        <time>2021-10-09 19:34:09</time>
      </trkpt>
      <trkpt lat="40.09501" lon="-1.72193">
        <ele>1342.8</ele>
        <time>2021-10-09 19:34:10</time>
      </trkpt>
      <trkpt lat="40.09499" lon="-1.7219">
        <ele>1343.2</ele>
        <time>2021-10-09 19:34:11</time>
      </trkpt>
      <trkpt lat="40.09497" lon="-1.72186">
        <ele>1343.4</ele>
        <time>2021-10-09 19:34:12</time>
      </trkpt>
      <trkpt lat="40.09495" lon="-1.72183">
        <ele>1343.4</ele>
        <time>2021-10-09 19:34:13</time>
      </trkpt>
      <trkpt lat="40.09493" lon="-1.7218">
        <ele>1343.6</ele>
        <time>2021-10-09 19:34:14</time>
      </trkpt>
      <trkpt lat="40.09492" lon="-1.72176">
        <ele>1343.6</ele>
        <time>2021-10-09 19:34:15</time>
      </trkpt>
      <trkpt lat="40.0949" lon="-1.72173">
        <ele>1343.8</ele>
        <time>2021-10-09 19:34:16</time>
      </trkpt>
      <trkpt lat="40.09488" lon="-1.7217">
        <ele>1343.8</ele>
        <time>2021-10-09 19:34:17</time>
      </trkpt>
      <trkpt lat="40.09487" lon="-1.72167">
        <ele>1344.2</ele>
        <time>2021-10-09 19:34:18</time>
      </trkpt>
      <trkpt lat="40.09485" lon="-1.72164">
        <ele>1344.2</ele>
        <time>2021-10-09 19:34:19</time>
      </trkpt>
      <trkpt lat="40.09483" lon="-1.72161">
        <ele>1344.6</ele>
        <time>2021-10-09 19:34:20</time>
      </trkpt>
      <trkpt lat="40.09482" lon="-1.72159">
        <ele>1344.8</ele>
        <time>2021-10-09 19:34:21</time>
      </trkpt>
      <trkpt lat="40.0948" lon="-1.72156">
        <ele>1344.8</ele>
        <time>2021-10-09 19:34:22</time>
      </trkpt>
      <trkpt lat="40.09478" lon="-1.72153">
        <ele>1345.2</ele>
        <time>2021-10-09 19:34:23</time>
      </trkpt>
      <trkpt lat="40.09477" lon="-1.72151">
        <ele>1345.2</ele>
        <time>2021-10-09 19:34:24</time>
      </trkpt>
      <trkpt lat="40.09475" lon="-1.72148">
        <ele>1345.4</ele>
        <time>2021-10-09 19:34:25</time>
      </trkpt>
      <trkpt lat="40.09474" lon="-1.72145">
        <ele>1345.4</ele>
        <time>2021-10-09 19:34:26</time>
      </trkpt>
      <trkpt lat="40.09473" lon="-1.72142">
        <ele>1345.8</ele>
        <time>2021-10-09 19:34:27</time>
      </trkpt>
      <trkpt lat="40.09471" lon="-1.72138">
        <ele>1345.8</ele>
        <time>2021-10-09 19:34:28</time>
      </trkpt>
      <trkpt lat="40.0947" lon="-1.72135">
        <ele>1346</ele>
        <time>2021-10-09 19:34:29</time>
      </trkpt>
      <trkpt lat="40.09469" lon="-1.72131">
        <ele>1346</ele>
        <time>2021-10-09 19:34:30</time>
      </trkpt>
      <trkpt lat="40.09469" lon="-1.72128">
        <ele>1346.4</ele>
        <time>2021-10-09 19:34:31</time>
      </trkpt>
      <trkpt lat="40.09468" lon="-1.72124">
        <ele>1346.8</ele>
        <time>2021-10-09 19:34:32</time>
      </trkpt>
      <trkpt lat="40.09467" lon="-1.72121">
        <ele>1346.8</ele>
        <time>2021-10-09 19:34:33</time>
      </trkpt>
      <trkpt lat="40.09467" lon="-1.72117">
        <ele>1347</ele>
        <time>2021-10-09 19:34:34</time>
      </trkpt>
      <trkpt lat="40.09467" lon="-1.72114">
        <ele>1347.2</ele>
        <time>2021-10-09 19:34:35</time>
      </trkpt>
      <trkpt lat="40.09468" lon="-1.7211">
        <ele>1347.2</ele>
        <time>2021-10-09 19:34:36</time>
      </trkpt>
      <trkpt lat="40.09468" lon="-1.72107">
        <ele>1347.6</ele>
        <time>2021-10-09 19:34:37</time>
      </trkpt>
      <trkpt lat="40.09469" lon="-1.72104">
        <ele>1347.6</ele>
        <time>2021-10-09 19:34:38</time>
      </trkpt>
      <trkpt lat="40.09469" lon="-1.721">
        <ele>1347.8</ele>
        <time>2021-10-09 19:34:39</time>
      </trkpt>
      <trkpt lat="40.09469" lon="-1.72097">
        <ele>1347.8</ele>
        <time>2021-10-09 19:34:40</time>
      </trkpt>
      <trkpt lat="40.0947" lon="-1.72093">
        <ele>1348</ele>
        <time>2021-10-09 19:34:41</time>
      </trkpt>
      <trkpt lat="40.0947" lon="-1.7209">
        <ele>1348</ele>
        <time>2021-10-09 19:34:42</time>
      </trkpt>
      <trkpt lat="40.09472" lon="-1.72084">
        <ele>1348.2</ele>
        <time>2021-10-09 19:34:43</time>
      </trkpt>
      <trkpt lat="40.09473" lon="-1.72082">
        <ele>1348.2</ele>
        <time>2021-10-09 19:34:44</time>
      </trkpt>
      <trkpt lat="40.09474" lon="-1.72079">
        <ele>1348.6</ele>
        <time>2021-10-09 19:34:45</time>
      </trkpt>
      <trkpt lat="40.09475" lon="-1.72076">
        <ele>1348.6</ele>
        <time>2021-10-09 19:34:46</time>
      </trkpt>
      <trkpt lat="40.09477" lon="-1.72073">
        <ele>1348.8</ele>
        <time>2021-10-09 19:34:47</time>
      </trkpt>
      <trkpt lat="40.09478" lon="-1.72071">
        <ele>1348.8</ele>
        <time>2021-10-09 19:34:48</time>
      </trkpt>
      <trkpt lat="40.09479" lon="-1.72068">
        <ele>1348.8</ele>
        <time>2021-10-09 19:34:49</time>
      </trkpt>
      <trkpt lat="40.09481" lon="-1.72066">
        <ele>1349</ele>
        <time>2021-10-09 19:34:50</time>
      </trkpt>
      <trkpt lat="40.09482" lon="-1.72064">
        <ele>1349</ele>
        <time>2021-10-09 19:34:51</time>
      </trkpt>
      <trkpt lat="40.09483" lon="-1.72061">
        <ele>1349.4</ele>
        <time>2021-10-09 19:34:52</time>
      </trkpt>
      <trkpt lat="40.09484" lon="-1.72057">
        <ele>1349.4</ele>
        <time>2021-10-09 19:34:53</time>
      </trkpt>
      <trkpt lat="40.09485" lon="-1.72054">
        <ele>1349.6</ele>
        <time>2021-10-09 19:34:54</time>
      </trkpt>
      <trkpt lat="40.09487" lon="-1.72051">
        <ele>1349.6</ele>
        <time>2021-10-09 19:34:55</time>
      </trkpt>
      <trkpt lat="40.09488" lon="-1.72048">
        <ele>1349.6</ele>
        <time>2021-10-09 19:34:56</time>
      </trkpt>
      <trkpt lat="40.09489" lon="-1.72045">
        <ele>1350</ele>
        <time>2021-10-09 19:34:57</time>
      </trkpt>
      <trkpt lat="40.0949" lon="-1.72042">
        <ele>1350</ele>
        <time>2021-10-09 19:34:58</time>
      </trkpt>
      <trkpt lat="40.09492" lon="-1.72039">
        <ele>1350.2</ele>
        <time>2021-10-09 19:34:59</time>
      </trkpt>
      <trkpt lat="40.09493" lon="-1.72035">
        <ele>1350.2</ele>
        <time>2021-10-09 19:35:00</time>
      </trkpt>
      <trkpt lat="40.09494" lon="-1.72032">
        <ele>1350.2</ele>
        <time>2021-10-09 19:35:01</time>
      </trkpt>
      <trkpt lat="40.09495" lon="-1.72029">
        <ele>1350.6</ele>
        <time>2021-10-09 19:35:02</time>
      </trkpt>
      <trkpt lat="40.09497" lon="-1.72027">
        <ele>1350.6</ele>
        <time>2021-10-09 19:35:03</time>
      </trkpt>
      <trkpt lat="40.09498" lon="-1.72024">
        <ele>1350.8</ele>
        <time>2021-10-09 19:35:04</time>
      </trkpt>
      <trkpt lat="40.095" lon="-1.72022">
        <ele>1350.8</ele>
        <time>2021-10-09 19:35:05</time>
      </trkpt>
      <trkpt lat="40.09502" lon="-1.72019">
        <ele>1351</ele>
        <time>2021-10-09 19:35:06</time>
      </trkpt>
      <trkpt lat="40.09503" lon="-1.72016">
        <ele>1351</ele>
        <time>2021-10-09 19:35:07</time>
      </trkpt>
      <trkpt lat="40.09504" lon="-1.72013">
        <ele>1351</ele>
        <time>2021-10-09 19:35:08</time>
      </trkpt>
      <trkpt lat="40.09505" lon="-1.72011">
        <ele>1351.2</ele>
        <time>2021-10-09 19:35:09</time>
      </trkpt>
      <trkpt lat="40.09505" lon="-1.72009">
        <ele>1351.2</ele>
        <time>2021-10-09 19:35:10</time>
      </trkpt>
      <trkpt lat="40.09507" lon="-1.72007">
        <ele>1351.2</ele>
        <time>2021-10-09 19:35:11</time>
      </trkpt>
      <trkpt lat="40.09508" lon="-1.72004">
        <ele>1351.2</ele>
        <time>2021-10-09 19:35:12</time>
      </trkpt>
      <trkpt lat="40.09509" lon="-1.72002">
        <ele>1351.6</ele>
        <time>2021-10-09 19:35:13</time>
      </trkpt>
      <trkpt lat="40.0951" lon="-1.71999">
        <ele>1351.6</ele>
        <time>2021-10-09 19:35:14</time>
      </trkpt>
      <trkpt lat="40.09511" lon="-1.71996">
        <ele>1351.6</ele>
        <time>2021-10-09 19:35:15</time>
      </trkpt>
      <trkpt lat="40.09513" lon="-1.71992">
        <ele>1351.8</ele>
        <time>2021-10-09 19:35:16</time>
      </trkpt>
      <trkpt lat="40.09514" lon="-1.7199">
        <ele>1351.8</ele>
        <time>2021-10-09 19:35:17</time>
      </trkpt>
      <trkpt lat="40.09515" lon="-1.71987">
        <ele>1352</ele>
        <time>2021-10-09 19:35:18</time>
      </trkpt>
      <trkpt lat="40.09517" lon="-1.71984">
        <ele>1352</ele>
        <time>2021-10-09 19:35:19</time>
      </trkpt>
      <trkpt lat="40.09518" lon="-1.71981">
        <ele>1352.4</ele>
        <time>2021-10-09 19:35:20</time>
      </trkpt>
      <trkpt lat="40.09519" lon="-1.71978">
        <ele>1352.4</ele>
        <time>2021-10-09 19:35:21</time>
      </trkpt>
      <trkpt lat="40.0952" lon="-1.71975">
        <ele>1352.8</ele>
        <time>2021-10-09 19:35:22</time>
      </trkpt>
      <trkpt lat="40.09521" lon="-1.71972">
        <ele>1352.8</ele>
        <time>2021-10-09 19:35:23</time>
      </trkpt>
      <trkpt lat="40.09523" lon="-1.71968">
        <ele>1353</ele>
        <time>2021-10-09 19:35:24</time>
      </trkpt>
      <trkpt lat="40.09524" lon="-1.71964">
        <ele>1353</ele>
        <time>2021-10-09 19:35:25</time>
      </trkpt>
      <trkpt lat="40.09525" lon="-1.7196">
        <ele>1353.4</ele>
        <time>2021-10-09 19:35:26</time>
      </trkpt>
      <trkpt lat="40.09526" lon="-1.71957">
        <ele>1353.4</ele>
        <time>2021-10-09 19:35:27</time>
      </trkpt>
      <trkpt lat="40.09528" lon="-1.71953">
        <ele>1353.6</ele>
        <time>2021-10-09 19:35:28</time>
      </trkpt>
      <trkpt lat="40.09529" lon="-1.71948">
        <ele>1353.6</ele>
        <time>2021-10-09 19:35:29</time>
      </trkpt>
      <trkpt lat="40.0953" lon="-1.71944">
        <ele>1354</ele>
        <time>2021-10-09 19:35:30</time>
      </trkpt>
      <trkpt lat="40.09531" lon="-1.71941">
        <ele>1354</ele>
        <time>2021-10-09 19:35:31</time>
      </trkpt>
      <trkpt lat="40.09532" lon="-1.71938">
        <ele>1354.2</ele>
        <time>2021-10-09 19:35:32</time>
      </trkpt>
      <trkpt lat="40.09533" lon="-1.71935">
        <ele>1354.2</ele>
        <time>2021-10-09 19:35:33</time>
      </trkpt>
      <trkpt lat="40.09535" lon="-1.71932">
        <ele>1354.2</ele>
        <time>2021-10-09 19:35:34</time>
      </trkpt>
      <trkpt lat="40.09536" lon="-1.7193">
        <ele>1354.6</ele>
        <time>2021-10-09 19:35:35</time>
      </trkpt>
      <trkpt lat="40.09537" lon="-1.71927">
        <ele>1354.6</ele>
        <time>2021-10-09 19:35:36</time>
      </trkpt>
      <trkpt lat="40.09539" lon="-1.71924">
        <ele>1355</ele>
        <time>2021-10-09 19:35:37</time>
      </trkpt>
      <trkpt lat="40.0954" lon="-1.71921">
        <ele>1355</ele>
        <time>2021-10-09 19:35:38</time>
      </trkpt>
      <trkpt lat="40.09541" lon="-1.71918">
        <ele>1355.2</ele>
        <time>2021-10-09 19:35:39</time>
      </trkpt>
      <trkpt lat="40.09543" lon="-1.71915">
        <ele>1355.2</ele>
        <time>2021-10-09 19:35:40</time>
      </trkpt>
      <trkpt lat="40.09544" lon="-1.71912">
        <ele>1355.8</ele>
        <time>2021-10-09 19:35:41</time>
      </trkpt>
      <trkpt lat="40.09545" lon="-1.71909">
        <ele>1355.8</ele>
        <time>2021-10-09 19:35:42</time>
      </trkpt>
      <trkpt lat="40.09547" lon="-1.71907">
        <ele>1356</ele>
        <time>2021-10-09 19:35:43</time>
      </trkpt>
      <trkpt lat="40.09548" lon="-1.71905">
        <ele>1356.2</ele>
        <time>2021-10-09 19:35:44</time>
      </trkpt>
      <trkpt lat="40.09549" lon="-1.71902">
        <ele>1356.6</ele>
        <time>2021-10-09 19:35:45</time>
      </trkpt>
      <trkpt lat="40.0955" lon="-1.719">
        <ele>1356.6</ele>
        <time>2021-10-09 19:35:46</time>
      </trkpt>
      <trkpt lat="40.09551" lon="-1.71897">
        <ele>1356.8</ele>
        <time>2021-10-09 19:35:47</time>
      </trkpt>
      <trkpt lat="40.09552" lon="-1.71894">
        <ele>1356.8</ele>
        <time>2021-10-09 19:35:48</time>
      </trkpt>
      <trkpt lat="40.09553" lon="-1.71892">
        <ele>1357.2</ele>
        <time>2021-10-09 19:35:49</time>
      </trkpt>
      <trkpt lat="40.09553" lon="-1.7189">
        <ele>1357.2</ele>
        <time>2021-10-09 19:35:50</time>
      </trkpt>
      <trkpt lat="40.09554" lon="-1.71887">
        <ele>1357.6</ele>
        <time>2021-10-09 19:35:51</time>
      </trkpt>
      <trkpt lat="40.09555" lon="-1.71884">
        <ele>1357.8</ele>
        <time>2021-10-09 19:35:52</time>
      </trkpt>
      <trkpt lat="40.09556" lon="-1.71881">
        <ele>1358</ele>
        <time>2021-10-09 19:35:53</time>
      </trkpt>
      <trkpt lat="40.09557" lon="-1.71878">
        <ele>1358.2</ele>
        <time>2021-10-09 19:35:54</time>
      </trkpt>
      <trkpt lat="40.09558" lon="-1.71875">
        <ele>1358.4</ele>
        <time>2021-10-09 19:35:55</time>
      </trkpt>
      <trkpt lat="40.09559" lon="-1.71873">
        <ele>1358.8</ele>
        <time>2021-10-09 19:35:56</time>
      </trkpt>
      <trkpt lat="40.09559" lon="-1.7187">
        <ele>1359</ele>
        <time>2021-10-09 19:35:57</time>
      </trkpt>
      <trkpt lat="40.0956" lon="-1.71867">
        <ele>1359.2</ele>
        <time>2021-10-09 19:35:58</time>
      </trkpt>
      <trkpt lat="40.09561" lon="-1.71865">
        <ele>1359.4</ele>
        <time>2021-10-09 19:35:59</time>
      </trkpt>
      <trkpt lat="40.09562" lon="-1.71862">
        <ele>1359.8</ele>
        <time>2021-10-09 19:36:00</time>
      </trkpt>
      <trkpt lat="40.09563" lon="-1.7186">
        <ele>1360</ele>
        <time>2021-10-09 19:36:01</time>
      </trkpt>
      <trkpt lat="40.09563" lon="-1.71857">
        <ele>1360.2</ele>
        <time>2021-10-09 19:36:02</time>
      </trkpt>
      <trkpt lat="40.09564" lon="-1.71855">
        <ele>1360.2</ele>
        <time>2021-10-09 19:36:03</time>
      </trkpt>
      <trkpt lat="40.09565" lon="-1.71853">
        <ele>1360.6</ele>
        <time>2021-10-09 19:36:04</time>
      </trkpt>
      <trkpt lat="40.09565" lon="-1.7185">
        <ele>1360.8</ele>
        <time>2021-10-09 19:36:05</time>
      </trkpt>
      <trkpt lat="40.09566" lon="-1.71848">
        <ele>1361</ele>
        <time>2021-10-09 19:36:06</time>
      </trkpt>
      <trkpt lat="40.09566" lon="-1.71846">
        <ele>1361.2</ele>
        <time>2021-10-09 19:36:07</time>
      </trkpt>
      <trkpt lat="40.09567" lon="-1.71843">
        <ele>1361.4</ele>
        <time>2021-10-09 19:36:08</time>
      </trkpt>
      <trkpt lat="40.09567" lon="-1.71841">
        <ele>1361.6</ele>
        <time>2021-10-09 19:36:09</time>
      </trkpt>
      <trkpt lat="40.09568" lon="-1.71838">
        <ele>1362</ele>
        <time>2021-10-09 19:36:10</time>
      </trkpt>
      <trkpt lat="40.09568" lon="-1.71835">
        <ele>1362.2</ele>
        <time>2021-10-09 19:36:11</time>
      </trkpt>
      <trkpt lat="40.09568" lon="-1.71832">
        <ele>1362.4</ele>
        <time>2021-10-09 19:36:12</time>
      </trkpt>
      <trkpt lat="40.09569" lon="-1.71828">
        <ele>1362.4</ele>
        <time>2021-10-09 19:36:13</time>
      </trkpt>
      <trkpt lat="40.0957" lon="-1.71825">
        <ele>1362.8</ele>
        <time>2021-10-09 19:36:14</time>
      </trkpt>
      <trkpt lat="40.0957" lon="-1.71822">
        <ele>1363</ele>
        <time>2021-10-09 19:36:15</time>
      </trkpt>
      <trkpt lat="40.0957" lon="-1.71819">
        <ele>1363</ele>
        <time>2021-10-09 19:36:16</time>
      </trkpt>
      <trkpt lat="40.09571" lon="-1.71815">
        <ele>1363.4</ele>
        <time>2021-10-09 19:36:17</time>
      </trkpt>
      <trkpt lat="40.09571" lon="-1.71812">
        <ele>1363.6</ele>
        <time>2021-10-09 19:36:18</time>
      </trkpt>
      <trkpt lat="40.09571" lon="-1.71809">
        <ele>1363.8</ele>
        <time>2021-10-09 19:36:19</time>
      </trkpt>
      <trkpt lat="40.09571" lon="-1.71806">
        <ele>1364</ele>
        <time>2021-10-09 19:36:20</time>
      </trkpt>
      <trkpt lat="40.09571" lon="-1.71803">
        <ele>1364</ele>
        <time>2021-10-09 19:36:21</time>
      </trkpt>
      <trkpt lat="40.09572" lon="-1.718">
        <ele>1364.6</ele>
        <time>2021-10-09 19:36:22</time>
      </trkpt>
      <trkpt lat="40.09572" lon="-1.71796">
        <ele>1364.8</ele>
        <time>2021-10-09 19:36:23</time>
      </trkpt>
      <trkpt lat="40.09572" lon="-1.71793">
        <ele>1365</ele>
        <time>2021-10-09 19:36:24</time>
      </trkpt>
      <trkpt lat="40.09572" lon="-1.7179">
        <ele>1365.2</ele>
        <time>2021-10-09 19:36:25</time>
      </trkpt>
      <trkpt lat="40.09572" lon="-1.71787">
        <ele>1365.6</ele>
        <time>2021-10-09 19:36:26</time>
      </trkpt>
      <trkpt lat="40.09572" lon="-1.71784">
        <ele>1365.8</ele>
        <time>2021-10-09 19:36:27</time>
      </trkpt>
      <trkpt lat="40.09572" lon="-1.71781">
        <ele>1366</ele>
        <time>2021-10-09 19:36:28</time>
      </trkpt>
      <trkpt lat="40.09572" lon="-1.71777">
        <ele>1366</ele>
        <time>2021-10-09 19:36:29</time>
      </trkpt>
      <trkpt lat="40.09572" lon="-1.71774">
        <ele>1366.4</ele>
        <time>2021-10-09 19:36:30</time>
      </trkpt>
      <trkpt lat="40.09572" lon="-1.71771">
        <ele>1366.6</ele>
        <time>2021-10-09 19:36:31</time>
      </trkpt>
      <trkpt lat="40.09573" lon="-1.71767">
        <ele>1366.6</ele>
        <time>2021-10-09 19:36:32</time>
      </trkpt>
      <trkpt lat="40.09573" lon="-1.71763">
        <ele>1367</ele>
        <time>2021-10-09 19:36:33</time>
      </trkpt>
      <trkpt lat="40.09573" lon="-1.7176">
        <ele>1367</ele>
        <time>2021-10-09 19:36:34</time>
      </trkpt>
      <trkpt lat="40.09573" lon="-1.71757">
        <ele>1367.2</ele>
        <time>2021-10-09 19:36:35</time>
      </trkpt>
      <trkpt lat="40.09573" lon="-1.71754">
        <ele>1367.2</ele>
        <time>2021-10-09 19:36:36</time>
      </trkpt>
      <trkpt lat="40.09573" lon="-1.7175">
        <ele>1367.6</ele>
        <time>2021-10-09 19:36:37</time>
      </trkpt>
      <trkpt lat="40.09573" lon="-1.71747">
        <ele>1367.6</ele>
        <time>2021-10-09 19:36:38</time>
      </trkpt>
      <trkpt lat="40.09573" lon="-1.71744">
        <ele>1368</ele>
        <time>2021-10-09 19:36:39</time>
      </trkpt>
      <trkpt lat="40.09573" lon="-1.71741">
        <ele>1368.4</ele>
        <time>2021-10-09 19:36:40</time>
      </trkpt>
      <trkpt lat="40.09573" lon="-1.71737">
        <ele>1368.6</ele>
        <time>2021-10-09 19:36:41</time>
      </trkpt>
      <trkpt lat="40.09573" lon="-1.71734">
        <ele>1368.6</ele>
        <time>2021-10-09 19:36:42</time>
      </trkpt>
      <trkpt lat="40.09574" lon="-1.71731">
        <ele>1368.8</ele>
        <time>2021-10-09 19:36:43</time>
      </trkpt>
      <trkpt lat="40.09574" lon="-1.71728">
        <ele>1369</ele>
        <time>2021-10-09 19:36:44</time>
      </trkpt>
      <trkpt lat="40.09574" lon="-1.71725">
        <ele>1369.4</ele>
        <time>2021-10-09 19:36:45</time>
      </trkpt>
      <trkpt lat="40.09575" lon="-1.71722">
        <ele>1369.6</ele>
        <time>2021-10-09 19:36:46</time>
      </trkpt>
      <trkpt lat="40.09575" lon="-1.71719">
        <ele>1369.6</ele>
        <time>2021-10-09 19:36:47</time>
      </trkpt>
      <trkpt lat="40.09575" lon="-1.71716">
        <ele>1369.8</ele>
        <time>2021-10-09 19:36:48</time>
      </trkpt>
      <trkpt lat="40.09576" lon="-1.71713">
        <ele>1369.8</ele>
        <time>2021-10-09 19:36:49</time>
      </trkpt>
      <trkpt lat="40.09576" lon="-1.7171">
        <ele>1370.2</ele>
        <time>2021-10-09 19:36:50</time>
      </trkpt>
      <trkpt lat="40.09576" lon="-1.71707">
        <ele>1370.2</ele>
        <time>2021-10-09 19:36:51</time>
      </trkpt>
      <trkpt lat="40.09577" lon="-1.71704">
        <ele>1370.4</ele>
        <time>2021-10-09 19:36:52</time>
      </trkpt>
      <trkpt lat="40.09577" lon="-1.717">
        <ele>1370.4</ele>
        <time>2021-10-09 19:36:53</time>
      </trkpt>
      <trkpt lat="40.09578" lon="-1.71697">
        <ele>1370.6</ele>
        <time>2021-10-09 19:36:54</time>
      </trkpt>
      <trkpt lat="40.09578" lon="-1.71694">
        <ele>1370.6</ele>
        <time>2021-10-09 19:36:55</time>
      </trkpt>
      <trkpt lat="40.09579" lon="-1.71691">
        <ele>1370.8</ele>
        <time>2021-10-09 19:36:56</time>
      </trkpt>
      <trkpt lat="40.09579" lon="-1.71688">
        <ele>1370.8</ele>
        <time>2021-10-09 19:36:57</time>
      </trkpt>
      <trkpt lat="40.0958" lon="-1.71685">
        <ele>1371.2</ele>
        <time>2021-10-09 19:36:58</time>
      </trkpt>
      <trkpt lat="40.09581" lon="-1.71681">
        <ele>1371.2</ele>
        <time>2021-10-09 19:36:59</time>
      </trkpt>
      <trkpt lat="40.09581" lon="-1.71678">
        <ele>1371.4</ele>
        <time>2021-10-09 19:37:00</time>
      </trkpt>
      <trkpt lat="40.09582" lon="-1.71674">
        <ele>1371.4</ele>
        <time>2021-10-09 19:37:01</time>
      </trkpt>
      <trkpt lat="40.09583" lon="-1.71671">
        <ele>1371.6</ele>
        <time>2021-10-09 19:37:02</time>
      </trkpt>
      <trkpt lat="40.09584" lon="-1.71668">
        <ele>1371.6</ele>
        <time>2021-10-09 19:37:03</time>
      </trkpt>
      <trkpt lat="40.09585" lon="-1.71665">
        <ele>1371.6</ele>
        <time>2021-10-09 19:37:04</time>
      </trkpt>
      <trkpt lat="40.09585" lon="-1.71661">
        <ele>1372</ele>
        <time>2021-10-09 19:37:05</time>
      </trkpt>
      <trkpt lat="40.09587" lon="-1.71658">
        <ele>1372</ele>
        <time>2021-10-09 19:37:06</time>
      </trkpt>
      <trkpt lat="40.09588" lon="-1.71654">
        <ele>1372</ele>
        <time>2021-10-09 19:37:07</time>
      </trkpt>
      <trkpt lat="40.0959" lon="-1.7165">
        <ele>1372</ele>
        <time>2021-10-09 19:37:08</time>
      </trkpt>
      <trkpt lat="40.09591" lon="-1.71646">
        <ele>1372</ele>
        <time>2021-10-09 19:37:09</time>
      </trkpt>
      <trkpt lat="40.09593" lon="-1.71642">
        <ele>1372</ele>
        <time>2021-10-09 19:37:10</time>
      </trkpt>
      <trkpt lat="40.09595" lon="-1.71638">
        <ele>1372</ele>
        <time>2021-10-09 19:37:11</time>
      </trkpt>
      <trkpt lat="40.09597" lon="-1.71633">
        <ele>1372</ele>
        <time>2021-10-09 19:37:12</time>
      </trkpt>
      <trkpt lat="40.096" lon="-1.71628">
        <ele>1372</ele>
        <time>2021-10-09 19:37:13</time>
      </trkpt>
      <trkpt lat="40.09602" lon="-1.71623">
        <ele>1372</ele>
        <time>2021-10-09 19:37:14</time>
      </trkpt>
      <trkpt lat="40.09605" lon="-1.71619">
        <ele>1371.8</ele>
        <time>2021-10-09 19:37:15</time>
      </trkpt>
      <trkpt lat="40.09608" lon="-1.71613">
        <ele>1371.8</ele>
        <time>2021-10-09 19:37:16</time>
      </trkpt>
      <trkpt lat="40.0961" lon="-1.71607">
        <ele>1371.8</ele>
        <time>2021-10-09 19:37:17</time>
      </trkpt>
      <trkpt lat="40.09613" lon="-1.71601">
        <ele>1371.8</ele>
        <time>2021-10-09 19:37:18</time>
      </trkpt>
      <trkpt lat="40.09616" lon="-1.71595">
        <ele>1371.2</ele>
        <time>2021-10-09 19:37:19</time>
      </trkpt>
      <trkpt lat="40.09618" lon="-1.71589">
        <ele>1371.2</ele>
        <time>2021-10-09 19:37:20</time>
      </trkpt>
      <trkpt lat="40.09621" lon="-1.71582">
        <ele>1371</ele>
        <time>2021-10-09 19:37:21</time>
      </trkpt>
      <trkpt lat="40.09624" lon="-1.71575">
        <ele>1371</ele>
        <time>2021-10-09 19:37:22</time>
      </trkpt>
      <trkpt lat="40.09627" lon="-1.71568">
        <ele>1370.8</ele>
        <time>2021-10-09 19:37:23</time>
      </trkpt>
      <trkpt lat="40.0963" lon="-1.71561">
        <ele>1370.8</ele>
        <time>2021-10-09 19:37:24</time>
      </trkpt>
      <trkpt lat="40.09633" lon="-1.71554">
        <ele>1370.4</ele>
        <time>2021-10-09 19:37:25</time>
      </trkpt>
      <trkpt lat="40.09636" lon="-1.71546">
        <ele>1370.2</ele>
        <time>2021-10-09 19:37:26</time>
      </trkpt>
      <trkpt lat="40.0964" lon="-1.71537">
        <ele>1369.8</ele>
        <time>2021-10-09 19:37:27</time>
      </trkpt>
      <trkpt lat="40.09643" lon="-1.71529">
        <ele>1369.6</ele>
        <time>2021-10-09 19:37:28</time>
      </trkpt>
      <trkpt lat="40.09647" lon="-1.7152">
        <ele>1369.4</ele>
        <time>2021-10-09 19:37:29</time>
      </trkpt>
      <trkpt lat="40.09651" lon="-1.71511">
        <ele>1369.4</ele>
        <time>2021-10-09 19:37:30</time>
      </trkpt>
      <trkpt lat="40.09655" lon="-1.71503">
        <ele>1369</ele>
        <time>2021-10-09 19:37:31</time>
      </trkpt>
      <trkpt lat="40.09659" lon="-1.71494">
        <ele>1368.6</ele>
        <time>2021-10-09 19:37:32</time>
      </trkpt>
      <trkpt lat="40.09663" lon="-1.71485">
        <ele>1368.4</ele>
        <time>2021-10-09 19:37:33</time>
      </trkpt>
      <trkpt lat="40.09666" lon="-1.71476">
        <ele>1368.2</ele>
        <time>2021-10-09 19:37:34</time>
      </trkpt>
      <trkpt lat="40.0967" lon="-1.71467">
        <ele>1367.8</ele>
        <time>2021-10-09 19:37:35</time>
      </trkpt>
      <trkpt lat="40.09674" lon="-1.71458">
        <ele>1367.6</ele>
        <time>2021-10-09 19:37:36</time>
      </trkpt>
      <trkpt lat="40.09678" lon="-1.71448">
        <ele>1367.2</ele>
        <time>2021-10-09 19:37:37</time>
      </trkpt>
      <trkpt lat="40.09682" lon="-1.71439">
        <ele>1366.8</ele>
        <time>2021-10-09 19:37:38</time>
      </trkpt>
      <trkpt lat="40.09686" lon="-1.71429">
        <ele>1366.4</ele>
        <time>2021-10-09 19:37:39</time>
      </trkpt>
      <trkpt lat="40.09691" lon="-1.71419">
        <ele>1366</ele>
        <time>2021-10-09 19:37:40</time>
      </trkpt>
      <trkpt lat="40.09695" lon="-1.71409">
        <ele>1365.8</ele>
        <time>2021-10-09 19:37:41</time>
      </trkpt>
      <trkpt lat="40.09699" lon="-1.71399">
        <ele>1365.4</ele>
        <time>2021-10-09 19:37:42</time>
      </trkpt>
      <trkpt lat="40.09704" lon="-1.71389">
        <ele>1365</ele>
        <time>2021-10-09 19:37:43</time>
      </trkpt>
      <trkpt lat="40.09709" lon="-1.71378">
        <ele>1364.6</ele>
        <time>2021-10-09 19:37:44</time>
      </trkpt>
      <trkpt lat="40.09713" lon="-1.71367">
        <ele>1364.2</ele>
        <time>2021-10-09 19:37:45</time>
      </trkpt>
      <trkpt lat="40.09718" lon="-1.71357">
        <ele>1363.8</ele>
        <time>2021-10-09 19:37:46</time>
      </trkpt>
      <trkpt lat="40.09721" lon="-1.71345">
        <ele>1363.6</ele>
        <time>2021-10-09 19:37:47</time>
      </trkpt>
      <trkpt lat="40.09722" lon="-1.71333">
        <ele>1363.2</ele>
        <time>2021-10-09 19:37:48</time>
      </trkpt>
      <trkpt lat="40.09723" lon="-1.7132">
        <ele>1362.8</ele>
        <time>2021-10-09 19:37:49</time>
      </trkpt>
      <trkpt lat="40.09723" lon="-1.71307">
        <ele>1362.4</ele>
        <time>2021-10-09 19:37:50</time>
      </trkpt>
      <trkpt lat="40.09722" lon="-1.71294">
        <ele>1361.8</ele>
        <time>2021-10-09 19:37:51</time>
      </trkpt>
      <trkpt lat="40.0972" lon="-1.7128">
        <ele>1361.2</ele>
        <time>2021-10-09 19:37:52</time>
      </trkpt>
      <trkpt lat="40.09718" lon="-1.71267">
        <ele>1360.6</ele>
        <time>2021-10-09 19:37:53</time>
      </trkpt>
      <trkpt lat="40.09714" lon="-1.71253">
        <ele>1360.2</ele>
        <time>2021-10-09 19:37:54</time>
      </trkpt>
      <trkpt lat="40.09707" lon="-1.7124">
        <ele>1359.6</ele>
        <time>2021-10-09 19:37:55</time>
      </trkpt>
      <trkpt lat="40.097" lon="-1.71228">
        <ele>1359</ele>
        <time>2021-10-09 19:37:56</time>
      </trkpt>
      <trkpt lat="40.09693" lon="-1.71216">
        <ele>1358.2</ele>
        <time>2021-10-09 19:37:57</time>
      </trkpt>
      <trkpt lat="40.09685" lon="-1.71204">
        <ele>1357.6</ele>
        <time>2021-10-09 19:37:58</time>
      </trkpt>
      <trkpt lat="40.09677" lon="-1.71193">
        <ele>1357</ele>
        <time>2021-10-09 19:37:59</time>
      </trkpt>
      <trkpt lat="40.09668" lon="-1.71181">
        <ele>1356.4</ele>
        <time>2021-10-09 19:38:00</time>
      </trkpt>
      <trkpt lat="40.09661" lon="-1.71169">
        <ele>1355.8</ele>
        <time>2021-10-09 19:38:01</time>
      </trkpt>
      <trkpt lat="40.09654" lon="-1.71156">
        <ele>1355.4</ele>
        <time>2021-10-09 19:38:02</time>
      </trkpt>
      <trkpt lat="40.09647" lon="-1.71143">
        <ele>1354.8</ele>
        <time>2021-10-09 19:38:03</time>
      </trkpt>
      <trkpt lat="40.0964" lon="-1.7113">
        <ele>1354.2</ele>
        <time>2021-10-09 19:38:04</time>
      </trkpt>
      <trkpt lat="40.09634" lon="-1.71116">
        <ele>1353.4</ele>
        <time>2021-10-09 19:38:05</time>
      </trkpt>
      <trkpt lat="40.09627" lon="-1.71103">
        <ele>1352.8</ele>
        <time>2021-10-09 19:38:06</time>
      </trkpt>
      <trkpt lat="40.09619" lon="-1.71089">
        <ele>1351.8</ele>
        <time>2021-10-09 19:38:07</time>
      </trkpt>
      <trkpt lat="40.09612" lon="-1.71076">
        <ele>1351</ele>
        <time>2021-10-09 19:38:08</time>
      </trkpt>
      <trkpt lat="40.09605" lon="-1.71062">
        <ele>1350.4</ele>
        <time>2021-10-09 19:38:09</time>
      </trkpt>
      <trkpt lat="40.09598" lon="-1.71049">
        <ele>1349.6</ele>
        <time>2021-10-09 19:38:10</time>
      </trkpt>
      <trkpt lat="40.09591" lon="-1.71035">
        <ele>1348.6</ele>
        <time>2021-10-09 19:38:11</time>
      </trkpt>
      <trkpt lat="40.09582" lon="-1.71022">
        <ele>1347.8</ele>
        <time>2021-10-09 19:38:12</time>
      </trkpt>
      <trkpt lat="40.09574" lon="-1.71009">
        <ele>1347</ele>
        <time>2021-10-09 19:38:13</time>
      </trkpt>
      <trkpt lat="40.09565" lon="-1.70999">
        <ele>1346.2</ele>
        <time>2021-10-09 19:38:14</time>
      </trkpt>
      <trkpt lat="40.09554" lon="-1.7099">
        <ele>1345.4</ele>
        <time>2021-10-09 19:38:15</time>
      </trkpt>
      <trkpt lat="40.09542" lon="-1.70983">
        <ele>1344.6</ele>
        <time>2021-10-09 19:38:16</time>
      </trkpt>
      <trkpt lat="40.09531" lon="-1.70977">
        <ele>1344</ele>
        <time>2021-10-09 19:38:17</time>
      </trkpt>
      <trkpt lat="40.09518" lon="-1.70973">
        <ele>1343.2</ele>
        <time>2021-10-09 19:38:18</time>
      </trkpt>
      <trkpt lat="40.09506" lon="-1.70968">
        <ele>1342.4</ele>
        <time>2021-10-09 19:38:19</time>
      </trkpt>
      <trkpt lat="40.09493" lon="-1.70963">
        <ele>1341.6</ele>
        <time>2021-10-09 19:38:20</time>
      </trkpt>
      <trkpt lat="40.0948" lon="-1.70959">
        <ele>1340.8</ele>
        <time>2021-10-09 19:38:21</time>
      </trkpt>
      <trkpt lat="40.09468" lon="-1.70955">
        <ele>1340</ele>
        <time>2021-10-09 19:38:22</time>
      </trkpt>
      <trkpt lat="40.09454" lon="-1.7095">
        <ele>1339.2</ele>
        <time>2021-10-09 19:38:23</time>
      </trkpt>
      <trkpt lat="40.09441" lon="-1.70945">
        <ele>1338.2</ele>
        <time>2021-10-09 19:38:24</time>
      </trkpt>
      <trkpt lat="40.09429" lon="-1.70942">
        <ele>1337.2</ele>
        <time>2021-10-09 19:38:25</time>
      </trkpt>
      <trkpt lat="40.09416" lon="-1.70938">
        <ele>1336.2</ele>
        <time>2021-10-09 19:38:26</time>
      </trkpt>
      <trkpt lat="40.09403" lon="-1.70934">
        <ele>1335.2</ele>
        <time>2021-10-09 19:38:27</time>
      </trkpt>
      <trkpt lat="40.09391" lon="-1.70927">
        <ele>1334.4</ele>
        <time>2021-10-09 19:38:28</time>
      </trkpt>
      <trkpt lat="40.0938" lon="-1.70917">
        <ele>1333.6</ele>
        <time>2021-10-09 19:38:29</time>
      </trkpt>
      <trkpt lat="40.0937" lon="-1.70906">
        <ele>1332.8</ele>
        <time>2021-10-09 19:38:30</time>
      </trkpt>
      <trkpt lat="40.09361" lon="-1.70894">
        <ele>1331.8</ele>
        <time>2021-10-09 19:38:31</time>
      </trkpt>
      <trkpt lat="40.09353" lon="-1.7088">
        <ele>1331</ele>
        <time>2021-10-09 19:38:32</time>
      </trkpt>
      <trkpt lat="40.09345" lon="-1.70865">
        <ele>1330.2</ele>
        <time>2021-10-09 19:38:33</time>
      </trkpt>
      <trkpt lat="40.09338" lon="-1.7085">
        <ele>1329.2</ele>
        <time>2021-10-09 19:38:34</time>
      </trkpt>
      <trkpt lat="40.09331" lon="-1.70835">
        <ele>1328.2</ele>
        <time>2021-10-09 19:38:35</time>
      </trkpt>
      <trkpt lat="40.09324" lon="-1.70819">
        <ele>1327.2</ele>
        <time>2021-10-09 19:38:36</time>
      </trkpt>
      <trkpt lat="40.09317" lon="-1.70803">
        <ele>1325.8</ele>
        <time>2021-10-09 19:38:37</time>
      </trkpt>
      <trkpt lat="40.09309" lon="-1.70787">
        <ele>1324.6</ele>
        <time>2021-10-09 19:38:38</time>
      </trkpt>
      <trkpt lat="40.09303" lon="-1.7077">
        <ele>1323.4</ele>
        <time>2021-10-09 19:38:39</time>
      </trkpt>
      <trkpt lat="40.09295" lon="-1.70754">
        <ele>1322.2</ele>
        <time>2021-10-09 19:38:40</time>
      </trkpt>
      <trkpt lat="40.09288" lon="-1.70737">
        <ele>1321.2</ele>
        <time>2021-10-09 19:38:41</time>
      </trkpt>
      <trkpt lat="40.09281" lon="-1.7072">
        <ele>1319.8</ele>
        <time>2021-10-09 19:38:42</time>
      </trkpt>
      <trkpt lat="40.09274" lon="-1.70703">
        <ele>1318.6</ele>
        <time>2021-10-09 19:38:43</time>
      </trkpt>
      <trkpt lat="40.09267" lon="-1.70686">
        <ele>1317.4</ele>
        <time>2021-10-09 19:38:44</time>
      </trkpt>
      <trkpt lat="40.09259" lon="-1.70669">
        <ele>1316.2</ele>
        <time>2021-10-09 19:38:45</time>
      </trkpt>
      <trkpt lat="40.09252" lon="-1.70652">
        <ele>1315</ele>
        <time>2021-10-09 19:38:46</time>
      </trkpt>
      <trkpt lat="40.09244" lon="-1.70636">
        <ele>1313.8</ele>
        <time>2021-10-09 19:38:47</time>
      </trkpt>
      <trkpt lat="40.09235" lon="-1.7062">
        <ele>1312.6</ele>
        <time>2021-10-09 19:38:48</time>
      </trkpt>
      <trkpt lat="40.09226" lon="-1.70604">
        <ele>1311.4</ele>
        <time>2021-10-09 19:38:49</time>
      </trkpt>
      <trkpt lat="40.09216" lon="-1.7059">
        <ele>1310.2</ele>
        <time>2021-10-09 19:38:50</time>
      </trkpt>
      <trkpt lat="40.09206" lon="-1.70576">
        <ele>1309.2</ele>
        <time>2021-10-09 19:38:51</time>
      </trkpt>
      <trkpt lat="40.09197" lon="-1.70564">
        <ele>1308.4</ele>
        <time>2021-10-09 19:38:52</time>
      </trkpt>
      <trkpt lat="40.09188" lon="-1.70551">
        <ele>1307.6</ele>
        <time>2021-10-09 19:38:53</time>
      </trkpt>
      <trkpt lat="40.09179" lon="-1.70539">
        <ele>1307.6</ele>
        <time>2021-10-09 19:38:54</time>
      </trkpt>
      <trkpt lat="40.09171" lon="-1.70527">
        <ele>1306</ele>
        <time>2021-10-09 19:38:55</time>
      </trkpt>
      <trkpt lat="40.09162" lon="-1.70515">
        <ele>1306</ele>
        <time>2021-10-09 19:38:56</time>
      </trkpt>
      <trkpt lat="40.09154" lon="-1.70504">
        <ele>1305.4</ele>
        <time>2021-10-09 19:38:57</time>
      </trkpt>
      <trkpt lat="40.09145" lon="-1.70493">
        <ele>1305</ele>
        <time>2021-10-09 19:38:58</time>
      </trkpt>
      <trkpt lat="40.09137" lon="-1.70482">
        <ele>1304.6</ele>
        <time>2021-10-09 19:38:59</time>
      </trkpt>
      <trkpt lat="40.09129" lon="-1.70471">
        <ele>1304</ele>
        <time>2021-10-09 19:39:00</time>
      </trkpt>
      <trkpt lat="40.09121" lon="-1.70459">
        <ele>1303.6</ele>
        <time>2021-10-09 19:39:01</time>
      </trkpt>
      <trkpt lat="40.09115" lon="-1.70446">
        <ele>1303.2</ele>
        <time>2021-10-09 19:39:02</time>
      </trkpt>
      <trkpt lat="40.09111" lon="-1.70432">
        <ele>1302.6</ele>
        <time>2021-10-09 19:39:03</time>
      </trkpt>
      <trkpt lat="40.0911" lon="-1.70418">
        <ele>1302</ele>
        <time>2021-10-09 19:39:04</time>
      </trkpt>
      <trkpt lat="40.0911" lon="-1.70403">
        <ele>1301.6</ele>
        <time>2021-10-09 19:39:05</time>
      </trkpt>
      <trkpt lat="40.09113" lon="-1.70389">
        <ele>1301.2</ele>
        <time>2021-10-09 19:39:06</time>
      </trkpt>
      <trkpt lat="40.09118" lon="-1.70376">
        <ele>1300.6</ele>
        <time>2021-10-09 19:39:07</time>
      </trkpt>
      <trkpt lat="40.09124" lon="-1.70364">
        <ele>1300</ele>
        <time>2021-10-09 19:39:08</time>
      </trkpt>
      <trkpt lat="40.09131" lon="-1.70354">
        <ele>1299.6</ele>
        <time>2021-10-09 19:39:09</time>
      </trkpt>
      <trkpt lat="40.09139" lon="-1.70344">
        <ele>1299</ele>
        <time>2021-10-09 19:39:10</time>
      </trkpt>
      <trkpt lat="40.09148" lon="-1.70335">
        <ele>1298.6</ele>
        <time>2021-10-09 19:39:11</time>
      </trkpt>
      <trkpt lat="40.09157" lon="-1.70328">
        <ele>1298.2</ele>
        <time>2021-10-09 19:39:12</time>
      </trkpt>
      <trkpt lat="40.09165" lon="-1.70319">
        <ele>1297.6</ele>
        <time>2021-10-09 19:39:13</time>
      </trkpt>
      <trkpt lat="40.09173" lon="-1.7031">
        <ele>1297.2</ele>
        <time>2021-10-09 19:39:14</time>
      </trkpt>
      <trkpt lat="40.09179" lon="-1.703">
        <ele>1296.8</ele>
        <time>2021-10-09 19:39:15</time>
      </trkpt>
      <trkpt lat="40.09185" lon="-1.70289">
        <ele>1296.6</ele>
        <time>2021-10-09 19:39:16</time>
      </trkpt>
      <trkpt lat="40.09188" lon="-1.70277">
        <ele>1296.2</ele>
        <time>2021-10-09 19:39:17</time>
      </trkpt>
      <trkpt lat="40.09191" lon="-1.70266">
        <ele>1295.8</ele>
        <time>2021-10-09 19:39:18</time>
      </trkpt>
      <trkpt lat="40.09193" lon="-1.70256">
        <ele>1295.6</ele>
        <time>2021-10-09 19:39:19</time>
      </trkpt>
      <trkpt lat="40.09195" lon="-1.70246">
        <ele>1295.6</ele>
        <time>2021-10-09 19:39:20</time>
      </trkpt>
      <trkpt lat="40.09197" lon="-1.70236">
        <ele>1295.2</ele>
        <time>2021-10-09 19:39:21</time>
      </trkpt>
      <trkpt lat="40.09197" lon="-1.70227">
        <ele>1295.2</ele>
        <time>2021-10-09 19:39:22</time>
      </trkpt>
      <trkpt lat="40.09198" lon="-1.70219">
        <ele>1295</ele>
        <time>2021-10-09 19:39:23</time>
      </trkpt>
      <trkpt lat="40.09199" lon="-1.7021">
        <ele>1295</ele>
        <time>2021-10-09 19:39:24</time>
      </trkpt>
      <trkpt lat="40.092" lon="-1.70203">
        <ele>1295</ele>
        <time>2021-10-09 19:39:25</time>
      </trkpt>
      <trkpt lat="40.09201" lon="-1.70195">
        <ele>1295</ele>
        <time>2021-10-09 19:39:26</time>
      </trkpt>
      <trkpt lat="40.09202" lon="-1.70188">
        <ele>1295</ele>
        <time>2021-10-09 19:39:27</time>
      </trkpt>
      <trkpt lat="40.09203" lon="-1.70182">
        <ele>1295.2</ele>
        <time>2021-10-09 19:39:28</time>
      </trkpt>
      <trkpt lat="40.09203" lon="-1.70175">
        <ele>1295.4</ele>
        <time>2021-10-09 19:39:29</time>
      </trkpt>
      <trkpt lat="40.09204" lon="-1.70169">
        <ele>1295.4</ele>
        <time>2021-10-09 19:39:30</time>
      </trkpt>
      <trkpt lat="40.09205" lon="-1.70163">
        <ele>1295.4</ele>
        <time>2021-10-09 19:39:31</time>
      </trkpt>
      <trkpt lat="40.09206" lon="-1.70157">
        <ele>1295.4</ele>
        <time>2021-10-09 19:39:32</time>
      </trkpt>
      <trkpt lat="40.09206" lon="-1.70151">
        <ele>1295.4</ele>
        <time>2021-10-09 19:39:33</time>
      </trkpt>
      <trkpt lat="40.09208" lon="-1.70146">
        <ele>1295.6</ele>
        <time>2021-10-09 19:39:34</time>
      </trkpt>
      <trkpt lat="40.09209" lon="-1.70141">
        <ele>1295.6</ele>
        <time>2021-10-09 19:39:35</time>
      </trkpt>
      <trkpt lat="40.09209" lon="-1.70135">
        <ele>1295.6</ele>
        <time>2021-10-09 19:39:36</time>
      </trkpt>
      <trkpt lat="40.0921" lon="-1.70128">
        <ele>1296</ele>
        <time>2021-10-09 19:39:37</time>
      </trkpt>
      <trkpt lat="40.09211" lon="-1.70123">
        <ele>1296</ele>
        <time>2021-10-09 19:39:38</time>
      </trkpt>
      <trkpt lat="40.09211" lon="-1.70116">
        <ele>1296</ele>
        <time>2021-10-09 19:39:39</time>
      </trkpt>
      <trkpt lat="40.09212" lon="-1.70111">
        <ele>1296.2</ele>
        <time>2021-10-09 19:39:40</time>
      </trkpt>
      <trkpt lat="40.09213" lon="-1.70105">
        <ele>1296.2</ele>
        <time>2021-10-09 19:39:41</time>
      </trkpt>
      <trkpt lat="40.09214" lon="-1.701">
        <ele>1296.2</ele>
        <time>2021-10-09 19:39:42</time>
      </trkpt>
      <trkpt lat="40.09215" lon="-1.70095">
        <ele>1296.2</ele>
        <time>2021-10-09 19:39:43</time>
      </trkpt>
      <trkpt lat="40.09216" lon="-1.70089">
        <ele>1296.2</ele>
        <time>2021-10-09 19:39:44</time>
      </trkpt>
      <trkpt lat="40.09216" lon="-1.70084">
        <ele>1296.4</ele>
        <time>2021-10-09 19:39:45</time>
      </trkpt>
      <trkpt lat="40.09217" lon="-1.70078">
        <ele>1296.4</ele>
        <time>2021-10-09 19:39:46</time>
      </trkpt>
      <trkpt lat="40.09218" lon="-1.70072">
        <ele>1296.4</ele>
        <time>2021-10-09 19:39:47</time>
      </trkpt>
      <trkpt lat="40.09219" lon="-1.70067">
        <ele>1296.4</ele>
        <time>2021-10-09 19:39:48</time>
      </trkpt>
      <trkpt lat="40.0922" lon="-1.70061">
        <ele>1296.4</ele>
        <time>2021-10-09 19:39:49</time>
      </trkpt>
      <trkpt lat="40.09221" lon="-1.70056">
        <ele>1296.6</ele>
        <time>2021-10-09 19:39:50</time>
      </trkpt>
      <trkpt lat="40.09222" lon="-1.7005">
        <ele>1296.6</ele>
        <time>2021-10-09 19:39:51</time>
      </trkpt>
      <trkpt lat="40.09222" lon="-1.70043">
        <ele>1296.6</ele>
        <time>2021-10-09 19:39:52</time>
      </trkpt>
      <trkpt lat="40.09223" lon="-1.70038">
        <ele>1296.6</ele>
        <time>2021-10-09 19:39:53</time>
      </trkpt>
      <trkpt lat="40.09224" lon="-1.70032">
        <ele>1297</ele>
        <time>2021-10-09 19:39:54</time>
      </trkpt>
      <trkpt lat="40.09225" lon="-1.70026">
        <ele>1297</ele>
        <time>2021-10-09 19:39:55</time>
      </trkpt>
      <trkpt lat="40.09226" lon="-1.7002">
        <ele>1297</ele>
        <time>2021-10-09 19:39:56</time>
      </trkpt>
      <trkpt lat="40.09227" lon="-1.70013">
        <ele>1297</ele>
        <time>2021-10-09 19:39:57</time>
      </trkpt>
      <trkpt lat="40.09228" lon="-1.70007">
        <ele>1297.2</ele>
        <time>2021-10-09 19:39:58</time>
      </trkpt>
      <trkpt lat="40.09229" lon="-1.70001">
        <ele>1297.2</ele>
        <time>2021-10-09 19:39:59</time>
      </trkpt>
      <trkpt lat="40.0923" lon="-1.69994">
        <ele>1297.2</ele>
        <time>2021-10-09 19:40:00</time>
      </trkpt>
      <trkpt lat="40.09231" lon="-1.69987">
        <ele>1297.2</ele>
        <time>2021-10-09 19:40:01</time>
      </trkpt>
      <trkpt lat="40.09232" lon="-1.69981">
        <ele>1297.4</ele>
        <time>2021-10-09 19:40:02</time>
      </trkpt>
      <trkpt lat="40.09232" lon="-1.69974">
        <ele>1297.4</ele>
        <time>2021-10-09 19:40:03</time>
      </trkpt>
      <trkpt lat="40.09233" lon="-1.69968">
        <ele>1297.4</ele>
        <time>2021-10-09 19:40:04</time>
      </trkpt>
      <trkpt lat="40.09234" lon="-1.69962">
        <ele>1297.6</ele>
        <time>2021-10-09 19:40:05</time>
      </trkpt>
      <trkpt lat="40.09235" lon="-1.69955">
        <ele>1297.6</ele>
        <time>2021-10-09 19:40:06</time>
      </trkpt>
      <trkpt lat="40.09236" lon="-1.6995">
        <ele>1297.6</ele>
        <time>2021-10-09 19:40:07</time>
      </trkpt>
      <trkpt lat="40.09237" lon="-1.69944">
        <ele>1297.8</ele>
        <time>2021-10-09 19:40:08</time>
      </trkpt>
      <trkpt lat="40.09237" lon="-1.69938">
        <ele>1297.8</ele>
        <time>2021-10-09 19:40:09</time>
      </trkpt>
      <trkpt lat="40.09238" lon="-1.69932">
        <ele>1297.8</ele>
        <time>2021-10-09 19:40:10</time>
      </trkpt>
      <trkpt lat="40.09239" lon="-1.69926">
        <ele>1297.8</ele>
        <time>2021-10-09 19:40:11</time>
      </trkpt>
      <trkpt lat="40.09241" lon="-1.6992">
        <ele>1298.2</ele>
        <time>2021-10-09 19:40:12</time>
      </trkpt>
      <trkpt lat="40.09242" lon="-1.69914">
        <ele>1298.2</ele>
        <time>2021-10-09 19:40:13</time>
      </trkpt>
      <trkpt lat="40.09243" lon="-1.69909">
        <ele>1298.2</ele>
        <time>2021-10-09 19:40:14</time>
      </trkpt>
      <trkpt lat="40.09245" lon="-1.69903">
        <ele>1298.2</ele>
        <time>2021-10-09 19:40:15</time>
      </trkpt>
      <trkpt lat="40.09247" lon="-1.69897">
        <ele>1298.4</ele>
        <time>2021-10-09 19:40:16</time>
      </trkpt>
      <trkpt lat="40.0925" lon="-1.69891">
        <ele>1298.4</ele>
        <time>2021-10-09 19:40:17</time>
      </trkpt>
      <trkpt lat="40.09254" lon="-1.69886">
        <ele>1298.4</ele>
        <time>2021-10-09 19:40:18</time>
      </trkpt>
      <trkpt lat="40.09257" lon="-1.69882">
        <ele>1298.4</ele>
        <time>2021-10-09 19:40:19</time>
      </trkpt>
      <trkpt lat="40.09261" lon="-1.69878">
        <ele>1298.4</ele>
        <time>2021-10-09 19:40:20</time>
      </trkpt>
      <trkpt lat="40.09264" lon="-1.69873">
        <ele>1298.4</ele>
        <time>2021-10-09 19:40:21</time>
      </trkpt>
      <trkpt lat="40.09269" lon="-1.69869">
        <ele>1298.2</ele>
        <time>2021-10-09 19:40:22</time>
      </trkpt>
      <trkpt lat="40.09274" lon="-1.69864">
        <ele>1298.2</ele>
        <time>2021-10-09 19:40:23</time>
      </trkpt>
      <trkpt lat="40.09279" lon="-1.69861">
        <ele>1297.8</ele>
        <time>2021-10-09 19:40:24</time>
      </trkpt>
      <trkpt lat="40.09286" lon="-1.69858">
        <ele>1297.6</ele>
        <time>2021-10-09 19:40:25</time>
      </trkpt>
      <trkpt lat="40.09292" lon="-1.69856">
        <ele>1297.4</ele>
        <time>2021-10-09 19:40:26</time>
      </trkpt>
      <trkpt lat="40.09299" lon="-1.69855">
        <ele>1297.2</ele>
        <time>2021-10-09 19:40:27</time>
      </trkpt>
      <trkpt lat="40.09307" lon="-1.69852">
        <ele>1297</ele>
        <time>2021-10-09 19:40:28</time>
      </trkpt>
      <trkpt lat="40.09314" lon="-1.69851">
        <ele>1296.6</ele>
        <time>2021-10-09 19:40:29</time>
      </trkpt>
      <trkpt lat="40.09322" lon="-1.6985">
        <ele>1296.4</ele>
        <time>2021-10-09 19:40:30</time>
      </trkpt>
      <trkpt lat="40.0933" lon="-1.69849">
        <ele>1296</ele>
        <time>2021-10-09 19:40:31</time>
      </trkpt>
      <trkpt lat="40.09338" lon="-1.69847">
        <ele>1295.6</ele>
        <time>2021-10-09 19:40:32</time>
      </trkpt>
      <trkpt lat="40.09347" lon="-1.69846">
        <ele>1295.4</ele>
        <time>2021-10-09 19:40:33</time>
      </trkpt>
      <trkpt lat="40.09355" lon="-1.69846">
        <ele>1295</ele>
        <time>2021-10-09 19:40:34</time>
      </trkpt>
      <trkpt lat="40.09364" lon="-1.69846">
        <ele>1294.6</ele>
        <time>2021-10-09 19:40:35</time>
      </trkpt>
      <trkpt lat="40.09373" lon="-1.69847">
        <ele>1294.2</ele>
        <time>2021-10-09 19:40:36</time>
      </trkpt>
      <trkpt lat="40.09382" lon="-1.69847">
        <ele>1293.8</ele>
        <time>2021-10-09 19:40:37</time>
      </trkpt>
      <trkpt lat="40.09391" lon="-1.69848">
        <ele>1293.4</ele>
        <time>2021-10-09 19:40:38</time>
      </trkpt>
      <trkpt lat="40.09401" lon="-1.69849">
        <ele>1293</ele>
        <time>2021-10-09 19:40:39</time>
      </trkpt>
      <trkpt lat="40.0941" lon="-1.69851">
        <ele>1292.6</ele>
        <time>2021-10-09 19:40:40</time>
      </trkpt>
      <trkpt lat="40.09419" lon="-1.69854">
        <ele>1292.2</ele>
        <time>2021-10-09 19:40:41</time>
      </trkpt>
      <trkpt lat="40.09429" lon="-1.69856">
        <ele>1291.8</ele>
        <time>2021-10-09 19:40:42</time>
      </trkpt>
      <trkpt lat="40.09439" lon="-1.69858">
        <ele>1291.4</ele>
        <time>2021-10-09 19:40:43</time>
      </trkpt>
      <trkpt lat="40.09449" lon="-1.6986">
        <ele>1291</ele>
        <time>2021-10-09 19:40:44</time>
      </trkpt>
      <trkpt lat="40.09459" lon="-1.69862">
        <ele>1290.8</ele>
        <time>2021-10-09 19:40:45</time>
      </trkpt>
      <trkpt lat="40.09469" lon="-1.69864">
        <ele>1290.4</ele>
        <time>2021-10-09 19:40:46</time>
      </trkpt>
      <trkpt lat="40.09479" lon="-1.69866">
        <ele>1290</ele>
        <time>2021-10-09 19:40:47</time>
      </trkpt>
      <trkpt lat="40.09489" lon="-1.69868">
        <ele>1289.4</ele>
        <time>2021-10-09 19:40:48</time>
      </trkpt>
      <trkpt lat="40.09499" lon="-1.69869">
        <ele>1289.2</ele>
        <time>2021-10-09 19:40:49</time>
      </trkpt>
      <trkpt lat="40.09509" lon="-1.69871">
        <ele>1288.8</ele>
        <time>2021-10-09 19:40:50</time>
      </trkpt>
      <trkpt lat="40.09519" lon="-1.69872">
        <ele>1288.4</ele>
        <time>2021-10-09 19:40:51</time>
      </trkpt>
      <trkpt lat="40.09529" lon="-1.69874">
        <ele>1288</ele>
        <time>2021-10-09 19:40:52</time>
      </trkpt>
      <trkpt lat="40.09539" lon="-1.69875">
        <ele>1287.4</ele>
        <time>2021-10-09 19:40:53</time>
      </trkpt>
      <trkpt lat="40.09549" lon="-1.69877">
        <ele>1287</ele>
        <time>2021-10-09 19:40:54</time>
      </trkpt>
      <trkpt lat="40.0956" lon="-1.69879">
        <ele>1286.6</ele>
        <time>2021-10-09 19:40:55</time>
      </trkpt>
      <trkpt lat="40.0957" lon="-1.69878">
        <ele>1286.2</ele>
        <time>2021-10-09 19:40:56</time>
      </trkpt>
      <trkpt lat="40.0958" lon="-1.69875">
        <ele>1285.6</ele>
        <time>2021-10-09 19:40:57</time>
      </trkpt>
      <trkpt lat="40.09591" lon="-1.69871">
        <ele>1285</ele>
        <time>2021-10-09 19:40:58</time>
      </trkpt>
      <trkpt lat="40.09602" lon="-1.69868">
        <ele>1284.4</ele>
        <time>2021-10-09 19:40:59</time>
      </trkpt>
      <trkpt lat="40.09614" lon="-1.69863">
        <ele>1283.8</ele>
        <time>2021-10-09 19:41:00</time>
      </trkpt>
      <trkpt lat="40.09626" lon="-1.69858">
        <ele>1283.2</ele>
        <time>2021-10-09 19:41:01</time>
      </trkpt>
      <trkpt lat="40.09638" lon="-1.69853">
        <ele>1282.2</ele>
        <time>2021-10-09 19:41:02</time>
      </trkpt>
      <trkpt lat="40.09651" lon="-1.69848">
        <ele>1281.2</ele>
        <time>2021-10-09 19:41:03</time>
      </trkpt>
      <trkpt lat="40.09664" lon="-1.69842">
        <ele>1280.2</ele>
        <time>2021-10-09 19:41:04</time>
      </trkpt>
      <trkpt lat="40.09677" lon="-1.69835">
        <ele>1279</ele>
        <time>2021-10-09 19:41:05</time>
      </trkpt>
      <trkpt lat="40.0969" lon="-1.69826">
        <ele>1277.8</ele>
        <time>2021-10-09 19:41:06</time>
      </trkpt>
      <trkpt lat="40.09703" lon="-1.69816">
        <ele>1276.4</ele>
        <time>2021-10-09 19:41:07</time>
      </trkpt>
      <trkpt lat="40.09715" lon="-1.69805">
        <ele>1275</ele>
        <time>2021-10-09 19:41:08</time>
      </trkpt>
      <trkpt lat="40.09727" lon="-1.69795">
        <ele>1274</ele>
        <time>2021-10-09 19:41:09</time>
      </trkpt>
      <trkpt lat="40.0974" lon="-1.69786">
        <ele>1272.8</ele>
        <time>2021-10-09 19:41:10</time>
      </trkpt>
      <trkpt lat="40.09752" lon="-1.69779">
        <ele>1271.8</ele>
        <time>2021-10-09 19:41:11</time>
      </trkpt>
      <trkpt lat="40.09765" lon="-1.69774">
        <ele>1270.6</ele>
        <time>2021-10-09 19:41:12</time>
      </trkpt>
      <trkpt lat="40.09778" lon="-1.69773">
        <ele>1269.2</ele>
        <time>2021-10-09 19:41:13</time>
      </trkpt>
      <trkpt lat="40.09789" lon="-1.69774">
        <ele>1268</ele>
        <time>2021-10-09 19:41:14</time>
      </trkpt>
      <trkpt lat="40.09797" lon="-1.69779">
        <ele>1266.8</ele>
        <time>2021-10-09 19:41:15</time>
      </trkpt>
      <trkpt lat="40.09805" lon="-1.69781">
        <ele>1265.4</ele>
        <time>2021-10-09 19:41:16</time>
      </trkpt>
      <trkpt lat="40.09811" lon="-1.69778">
        <ele>1264.2</ele>
        <time>2021-10-09 19:41:17</time>
      </trkpt>
      <trkpt lat="40.09816" lon="-1.69772">
        <ele>1263.2</ele>
        <time>2021-10-09 19:41:18</time>
      </trkpt>
      <trkpt lat="40.09818" lon="-1.69766">
        <ele>1262.4</ele>
        <time>2021-10-09 19:41:19</time>
      </trkpt>
      <trkpt lat="40.09819" lon="-1.69762">
        <ele>1261.8</ele>
        <time>2021-10-09 19:41:20</time>
      </trkpt>
      <trkpt lat="40.09821" lon="-1.69758">
        <ele>1261.2</ele>
        <time>2021-10-09 19:41:21</time>
      </trkpt>
      <trkpt lat="40.09823" lon="-1.69754">
        <ele>1260.8</ele>
        <time>2021-10-09 19:41:22</time>
      </trkpt>
      <trkpt lat="40.09824" lon="-1.69751">
        <ele>1260.4</ele>
        <time>2021-10-09 19:41:23</time>
      </trkpt>
      <trkpt lat="40.09826" lon="-1.69749">
        <ele>1260</ele>
        <time>2021-10-09 19:41:24</time>
      </trkpt>
      <trkpt lat="40.09827" lon="-1.69747">
        <ele>1259.8</ele>
        <time>2021-10-09 19:41:25</time>
      </trkpt>
      <trkpt lat="40.09829" lon="-1.69747">
        <ele>1259.8</ele>
        <time>2021-10-09 19:41:26</time>
      </trkpt>
      <trkpt lat="40.09831" lon="-1.69746">
        <ele>1259.6</ele>
        <time>2021-10-09 19:41:27</time>
      </trkpt>
      <trkpt lat="40.09833" lon="-1.69744">
        <ele>1259.6</ele>
        <time>2021-10-09 19:41:28</time>
      </trkpt>
      <trkpt lat="40.09835" lon="-1.69743">
        <ele>1259.6</ele>
        <time>2021-10-09 19:41:29</time>
      </trkpt>
      <trkpt lat="40.09837" lon="-1.69742">
        <ele>1259.2</ele>
        <time>2021-10-09 19:41:30</time>
      </trkpt>
      <trkpt lat="40.0984" lon="-1.69741">
        <ele>1259.2</ele>
        <time>2021-10-09 19:41:31</time>
      </trkpt>
      <trkpt lat="40.09842" lon="-1.6974">
        <ele>1259.2</ele>
        <time>2021-10-09 19:41:32</time>
      </trkpt>
      <trkpt lat="40.09844" lon="-1.69739">
        <ele>1259.2</ele>
        <time>2021-10-09 19:41:33</time>
      </trkpt>
      <trkpt lat="40.09847" lon="-1.69737">
        <ele>1259.2</ele>
        <time>2021-10-09 19:41:34</time>
      </trkpt>
      <trkpt lat="40.09849" lon="-1.69736">
        <ele>1259.2</ele>
        <time>2021-10-09 19:41:35</time>
      </trkpt>
      <trkpt lat="40.09852" lon="-1.69735">
        <ele>1259.2</ele>
        <time>2021-10-09 19:41:36</time>
      </trkpt>
      <trkpt lat="40.09855" lon="-1.69735">
        <ele>1259</ele>
        <time>2021-10-09 19:41:37</time>
      </trkpt>
      <trkpt lat="40.09859" lon="-1.69735">
        <ele>1259</ele>
        <time>2021-10-09 19:41:38</time>
      </trkpt>
      <trkpt lat="40.09862" lon="-1.69737">
        <ele>1259</ele>
        <time>2021-10-09 19:41:39</time>
      </trkpt>
      <trkpt lat="40.09864" lon="-1.69739">
        <ele>1258.8</ele>
        <time>2021-10-09 19:41:40</time>
      </trkpt>
      <trkpt lat="40.09867" lon="-1.69741">
        <ele>1258.8</ele>
        <time>2021-10-09 19:41:41</time>
      </trkpt>
      <trkpt lat="40.0987" lon="-1.69744">
        <ele>1258.6</ele>
        <time>2021-10-09 19:41:42</time>
      </trkpt>
      <trkpt lat="40.09872" lon="-1.69745">
        <ele>1258.6</ele>
        <time>2021-10-09 19:41:43</time>
      </trkpt>
      <trkpt lat="40.09874" lon="-1.69747">
        <ele>1258.2</ele>
        <time>2021-10-09 19:41:44</time>
      </trkpt>
      <trkpt lat="40.09877" lon="-1.69748">
        <ele>1258</ele>
        <time>2021-10-09 19:41:45</time>
      </trkpt>
      <trkpt lat="40.09881" lon="-1.69749">
        <ele>1258</ele>
        <time>2021-10-09 19:41:46</time>
      </trkpt>
      <trkpt lat="40.09885" lon="-1.69748">
        <ele>1257.6</ele>
        <time>2021-10-09 19:41:47</time>
      </trkpt>
      <trkpt lat="40.09889" lon="-1.69746">
        <ele>1257.4</ele>
        <time>2021-10-09 19:41:48</time>
      </trkpt>
      <trkpt lat="40.09894" lon="-1.69744">
        <ele>1257.4</ele>
        <time>2021-10-09 19:41:49</time>
      </trkpt>
      <trkpt lat="40.09899" lon="-1.6974">
        <ele>1257</ele>
        <time>2021-10-09 19:41:50</time>
      </trkpt>
      <trkpt lat="40.09904" lon="-1.69736">
        <ele>1256.8</ele>
        <time>2021-10-09 19:41:51</time>
      </trkpt>
      <trkpt lat="40.09908" lon="-1.69732">
        <ele>1256.8</ele>
        <time>2021-10-09 19:41:52</time>
      </trkpt>
      <trkpt lat="40.09912" lon="-1.69727">
        <ele>1256.4</ele>
        <time>2021-10-09 19:41:53</time>
      </trkpt>
      <trkpt lat="40.09915" lon="-1.69722">
        <ele>1256.2</ele>
        <time>2021-10-09 19:41:54</time>
      </trkpt>
      <trkpt lat="40.09918" lon="-1.69717">
        <ele>1256.2</ele>
        <time>2021-10-09 19:41:55</time>
      </trkpt>
      <trkpt lat="40.09922" lon="-1.69713">
        <ele>1256.2</ele>
        <time>2021-10-09 19:41:56</time>
      </trkpt>
      <trkpt lat="40.09925" lon="-1.69709">
        <ele>1256</ele>
        <time>2021-10-09 19:41:57</time>
      </trkpt>
      <trkpt lat="40.09928" lon="-1.69705">
        <ele>1256</ele>
        <time>2021-10-09 19:41:58</time>
      </trkpt>
      <trkpt lat="40.0993" lon="-1.69701">
        <ele>1256</ele>
        <time>2021-10-09 19:41:59</time>
      </trkpt>
      <trkpt lat="40.09932" lon="-1.69698">
        <ele>1256</ele>
        <time>2021-10-09 19:42:00</time>
      </trkpt>
      <trkpt lat="40.09935" lon="-1.69695">
        <ele>1256</ele>
        <time>2021-10-09 19:42:01</time>
      </trkpt>
      <trkpt lat="40.09937" lon="-1.69691">
        <ele>1256</ele>
        <time>2021-10-09 19:42:02</time>
      </trkpt>
      <trkpt lat="40.09938" lon="-1.69689">
        <ele>1256</ele>
        <time>2021-10-09 19:42:03</time>
      </trkpt>
      <trkpt lat="40.0994" lon="-1.69686">
        <ele>1256</ele>
        <time>2021-10-09 19:42:04</time>
      </trkpt>
      <trkpt lat="40.09941" lon="-1.69684">
        <ele>1255.4</ele>
        <time>2021-10-09 19:42:05</time>
      </trkpt>
      <trkpt lat="40.09943" lon="-1.69682">
        <ele>1255.8</ele>
        <time>2021-10-09 19:42:06</time>
      </trkpt>
      <trkpt lat="40.09944" lon="-1.6968">
        <ele>1256</ele>
        <time>2021-10-09 19:42:07</time>
      </trkpt>
      <trkpt lat="40.09946" lon="-1.69679">
        <ele>1256</ele>
        <time>2021-10-09 19:42:08</time>
      </trkpt>
      <trkpt lat="40.09949" lon="-1.69679">
        <ele>1256.4</ele>
        <time>2021-10-09 19:42:09</time>
      </trkpt>
      <trkpt lat="40.09951" lon="-1.69679">
        <ele>1256.4</ele>
        <time>2021-10-09 19:42:10</time>
      </trkpt>
      <trkpt lat="40.09954" lon="-1.69679">
        <ele>1256.4</ele>
        <time>2021-10-09 19:42:11</time>
      </trkpt>
      <trkpt lat="40.09956" lon="-1.6968">
        <ele>1256.6</ele>
        <time>2021-10-09 19:42:12</time>
      </trkpt>
      <trkpt lat="40.09958" lon="-1.69681">
        <ele>1256.6</ele>
        <time>2021-10-09 19:42:13</time>
      </trkpt>
      <trkpt lat="40.0996" lon="-1.69681">
        <ele>1256.8</ele>
        <time>2021-10-09 19:42:14</time>
      </trkpt>
      <trkpt lat="40.09963" lon="-1.69682">
        <ele>1256.8</ele>
        <time>2021-10-09 19:42:15</time>
      </trkpt>
      <trkpt lat="40.09965" lon="-1.69683">
        <ele>1257</ele>
        <time>2021-10-09 19:42:16</time>
      </trkpt>
      <trkpt lat="40.09967" lon="-1.69684">
        <ele>1257</ele>
        <time>2021-10-09 19:42:17</time>
      </trkpt>
      <trkpt lat="40.0997" lon="-1.69685">
        <ele>1257</ele>
        <time>2021-10-09 19:42:18</time>
      </trkpt>
      <trkpt lat="40.09972" lon="-1.69685">
        <ele>1257.2</ele>
        <time>2021-10-09 19:42:19</time>
      </trkpt>
      <trkpt lat="40.09975" lon="-1.69686">
        <ele>1257.2</ele>
        <time>2021-10-09 19:42:20</time>
      </trkpt>
      <trkpt lat="40.09978" lon="-1.69686">
        <ele>1257.2</ele>
        <time>2021-10-09 19:42:21</time>
      </trkpt>
      <trkpt lat="40.09981" lon="-1.69686">
        <ele>1257.2</ele>
        <time>2021-10-09 19:42:22</time>
      </trkpt>
      <trkpt lat="40.09983" lon="-1.69687">
        <ele>1257.4</ele>
        <time>2021-10-09 19:42:23</time>
      </trkpt>
      <trkpt lat="40.09987" lon="-1.69687">
        <ele>1257.4</ele>
        <time>2021-10-09 19:42:24</time>
      </trkpt>
      <trkpt lat="40.0999" lon="-1.69687">
        <ele>1257.4</ele>
        <time>2021-10-09 19:42:25</time>
      </trkpt>
      <trkpt lat="40.09993" lon="-1.69687">
        <ele>1257.4</ele>
        <time>2021-10-09 19:42:26</time>
      </trkpt>
      <trkpt lat="40.09995" lon="-1.69687">
        <ele>1257.4</ele>
        <time>2021-10-09 19:42:27</time>
      </trkpt>
      <trkpt lat="40.09998" lon="-1.69687">
        <ele>1257.4</ele>
        <time>2021-10-09 19:42:28</time>
      </trkpt>
      <trkpt lat="40.10001" lon="-1.69688">
        <ele>1257.4</ele>
        <time>2021-10-09 19:42:29</time>
      </trkpt>
      <trkpt lat="40.10004" lon="-1.69689">
        <ele>1257.4</ele>
        <time>2021-10-09 19:42:30</time>
      </trkpt>
      <trkpt lat="40.10007" lon="-1.6969">
        <ele>1257.4</ele>
        <time>2021-10-09 19:42:31</time>
      </trkpt>
      <trkpt lat="40.1001" lon="-1.6969">
        <ele>1257.8</ele>
        <time>2021-10-09 19:42:32</time>
      </trkpt>
      <trkpt lat="40.10013" lon="-1.6969">
        <ele>1257.8</ele>
        <time>2021-10-09 19:42:33</time>
      </trkpt>
      <trkpt lat="40.10016" lon="-1.6969">
        <ele>1257.8</ele>
        <time>2021-10-09 19:42:34</time>
      </trkpt>
      <trkpt lat="40.10019" lon="-1.6969">
        <ele>1257.8</ele>
        <time>2021-10-09 19:42:35</time>
      </trkpt>
      <trkpt lat="40.10022" lon="-1.69691">
        <ele>1257.8</ele>
        <time>2021-10-09 19:42:36</time>
      </trkpt>
      <trkpt lat="40.10025" lon="-1.69692">
        <ele>1257.8</ele>
        <time>2021-10-09 19:42:37</time>
      </trkpt>
      <trkpt lat="40.10027" lon="-1.69692">
        <ele>1257.8</ele>
        <time>2021-10-09 19:42:38</time>
      </trkpt>
      <trkpt lat="40.1003" lon="-1.69693">
        <ele>1257.8</ele>
        <time>2021-10-09 19:42:39</time>
      </trkpt>
      <trkpt lat="40.10032" lon="-1.69693">
        <ele>1257.8</ele>
        <time>2021-10-09 19:42:40</time>
      </trkpt>
      <trkpt lat="40.10035" lon="-1.69694">
        <ele>1257.8</ele>
        <time>2021-10-09 19:42:41</time>
      </trkpt>
      <trkpt lat="40.10038" lon="-1.69694">
        <ele>1257.8</ele>
        <time>2021-10-09 19:42:42</time>
      </trkpt>
      <trkpt lat="40.1004" lon="-1.69694">
        <ele>1257.8</ele>
        <time>2021-10-09 19:42:43</time>
      </trkpt>
      <trkpt lat="40.10042" lon="-1.69693">
        <ele>1257.8</ele>
        <time>2021-10-09 19:42:44</time>
      </trkpt>
      <trkpt lat="40.10043" lon="-1.69693">
        <ele>1257.8</ele>
        <time>2021-10-09 19:42:45</time>
      </trkpt>
      <trkpt lat="40.10045" lon="-1.69693">
        <ele>1257.8</ele>
        <time>2021-10-09 19:42:46</time>
      </trkpt>
      <trkpt lat="40.10047" lon="-1.69693">
        <ele>1257.8</ele>
        <time>2021-10-09 19:42:47</time>
      </trkpt>
      <trkpt lat="40.10049" lon="-1.69694">
        <ele>1257.8</ele>
        <time>2021-10-09 19:42:48</time>
      </trkpt>
      <trkpt lat="40.10051" lon="-1.69695">
        <ele>1257.8</ele>
        <time>2021-10-09 19:42:49</time>
      </trkpt>
      <trkpt lat="40.10053" lon="-1.69695">
        <ele>1257.8</ele>
        <time>2021-10-09 19:42:50</time>
      </trkpt>
      <trkpt lat="40.10055" lon="-1.69695">
        <ele>1257.8</ele>
        <time>2021-10-09 19:42:51</time>
      </trkpt>
      <trkpt lat="40.10058" lon="-1.69696">
        <ele>1257.8</ele>
        <time>2021-10-09 19:42:52</time>
      </trkpt>
      <trkpt lat="40.10061" lon="-1.69696">
        <ele>1257.8</ele>
        <time>2021-10-09 19:42:53</time>
      </trkpt>
      <trkpt lat="40.10065" lon="-1.69697">
        <ele>1258</ele>
        <time>2021-10-09 19:42:54</time>
      </trkpt>
      <trkpt lat="40.10068" lon="-1.69697">
        <ele>1258</ele>
        <time>2021-10-09 19:42:55</time>
      </trkpt>
      <trkpt lat="40.10071" lon="-1.69698">
        <ele>1258</ele>
        <time>2021-10-09 19:42:56</time>
      </trkpt>
      <trkpt lat="40.10074" lon="-1.69698">
        <ele>1258</ele>
        <time>2021-10-09 19:42:57</time>
      </trkpt>
      <trkpt lat="40.10078" lon="-1.69699">
        <ele>1258</ele>
        <time>2021-10-09 19:42:58</time>
      </trkpt>
      <trkpt lat="40.10082" lon="-1.697">
        <ele>1258.2</ele>
        <time>2021-10-09 19:42:59</time>
      </trkpt>
      <trkpt lat="40.10085" lon="-1.69701">
        <ele>1258.2</ele>
        <time>2021-10-09 19:43:00</time>
      </trkpt>
      <trkpt lat="40.10089" lon="-1.69702">
        <ele>1258.2</ele>
        <time>2021-10-09 19:43:01</time>
      </trkpt>
      <trkpt lat="40.10093" lon="-1.69703">
        <ele>1258.2</ele>
        <time>2021-10-09 19:43:02</time>
      </trkpt>
      <trkpt lat="40.10096" lon="-1.69704">
        <ele>1258.2</ele>
        <time>2021-10-09 19:43:03</time>
      </trkpt>
      <trkpt lat="40.10099" lon="-1.69704">
        <ele>1258.2</ele>
        <time>2021-10-09 19:43:04</time>
      </trkpt>
      <trkpt lat="40.10102" lon="-1.69705">
        <ele>1258.4</ele>
        <time>2021-10-09 19:43:05</time>
      </trkpt>
      <trkpt lat="40.10105" lon="-1.69705">
        <ele>1258.4</ele>
        <time>2021-10-09 19:43:06</time>
      </trkpt>
      <trkpt lat="40.10108" lon="-1.69706">
        <ele>1258.4</ele>
        <time>2021-10-09 19:43:07</time>
      </trkpt>
      <trkpt lat="40.1011" lon="-1.69707">
        <ele>1258.4</ele>
        <time>2021-10-09 19:43:08</time>
      </trkpt>
      <trkpt lat="40.10112" lon="-1.69709">
        <ele>1258.4</ele>
        <time>2021-10-09 19:43:09</time>
      </trkpt>
      <trkpt lat="40.10113" lon="-1.69711">
        <ele>1258.4</ele>
        <time>2021-10-09 19:43:10</time>
      </trkpt>
      <trkpt lat="40.10113" lon="-1.69713">
        <ele>1258.4</ele>
        <time>2021-10-09 19:43:11</time>
      </trkpt>
      <trkpt lat="40.10112" lon="-1.69715">
        <ele>1258.4</ele>
        <time>2021-10-09 19:43:12</time>
      </trkpt>
      <trkpt lat="40.10112" lon="-1.69717">
        <ele>1258.4</ele>
        <time>2021-10-09 19:43:13</time>
      </trkpt>
      <trkpt lat="40.10112" lon="-1.69719">
        <ele>1258.4</ele>
        <time>2021-10-09 19:43:14</time>
      </trkpt>
      <trkpt lat="40.10112" lon="-1.69721">
        <ele>1258.4</ele>
        <time>2021-10-09 19:43:15</time>
      </trkpt>
      <trkpt lat="40.1011" lon="-1.69721">
        <ele>1258.4</ele>
        <time>2021-10-09 19:43:16</time>
      </trkpt>
      <trkpt lat="40.10109" lon="-1.69719">
        <ele>1258.6</ele>
        <time>2021-10-09 19:43:17</time>
      </trkpt>
      <trkpt lat="40.10109" lon="-1.69716">
        <ele>1258.6</ele>
        <time>2021-10-09 19:43:18</time>
      </trkpt>
      <trkpt lat="40.10111" lon="-1.69714">
        <ele>1258.6</ele>
        <time>2021-10-09 19:43:19</time>
      </trkpt>
      <trkpt lat="40.10113" lon="-1.69713">
        <ele>1258.6</ele>
        <time>2021-10-09 19:43:20</time>
      </trkpt>
      <trkpt lat="40.10115" lon="-1.69712">
        <ele>1258.6</ele>
        <time>2021-10-09 19:43:21</time>
      </trkpt>
      <trkpt lat="40.10118" lon="-1.69711">
        <ele>1258.6</ele>
        <time>2021-10-09 19:43:22</time>
      </trkpt>
      <trkpt lat="40.10121" lon="-1.69709">
        <ele>1258.6</ele>
        <time>2021-10-09 19:43:23</time>
      </trkpt>
      <trkpt lat="40.10123" lon="-1.69706">
        <ele>1258.6</ele>
        <time>2021-10-09 19:43:24</time>
      </trkpt>
      <trkpt lat="40.10126" lon="-1.69704">
        <ele>1258.6</ele>
        <time>2021-10-09 19:43:25</time>
      </trkpt>
      <trkpt lat="40.10129" lon="-1.69701">
        <ele>1258.6</ele>
        <time>2021-10-09 19:43:26</time>
      </trkpt>
      <trkpt lat="40.10131" lon="-1.69698">
        <ele>1258.6</ele>
        <time>2021-10-09 19:43:27</time>
      </trkpt>
      <trkpt lat="40.10134" lon="-1.69694">
        <ele>1258.6</ele>
        <time>2021-10-09 19:43:28</time>
      </trkpt>
      <trkpt lat="40.10139" lon="-1.6969">
        <ele>1258.6</ele>
        <time>2021-10-09 19:43:29</time>
      </trkpt>
      <trkpt lat="40.10143" lon="-1.69687">
        <ele>1258.6</ele>
        <time>2021-10-09 19:43:30</time>
      </trkpt>
      <trkpt lat="40.10147" lon="-1.69685">
        <ele>1258.6</ele>
        <time>2021-10-09 19:43:31</time>
      </trkpt>
      <trkpt lat="40.10151" lon="-1.69684">
        <ele>1258.4</ele>
        <time>2021-10-09 19:43:32</time>
      </trkpt>
      <trkpt lat="40.10156" lon="-1.69685">
        <ele>1258.4</ele>
        <time>2021-10-09 19:43:33</time>
      </trkpt>
      <trkpt lat="40.10159" lon="-1.69686">
        <ele>1258.4</ele>
        <time>2021-10-09 19:43:34</time>
      </trkpt>
      <trkpt lat="40.10162" lon="-1.69689">
        <ele>1258.4</ele>
        <time>2021-10-09 19:43:35</time>
      </trkpt>
      <trkpt lat="40.10164" lon="-1.69691">
        <ele>1258.4</ele>
        <time>2021-10-09 19:43:36</time>
      </trkpt>
      <trkpt lat="40.10167" lon="-1.69694">
        <ele>1258.4</ele>
        <time>2021-10-09 19:43:37</time>
      </trkpt>
      <trkpt lat="40.10169" lon="-1.69695">
        <ele>1258.4</ele>
        <time>2021-10-09 19:43:38</time>
      </trkpt>
      <trkpt lat="40.10171" lon="-1.69698">
        <ele>1258.4</ele>
        <time>2021-10-09 19:43:39</time>
      </trkpt>
      <trkpt lat="40.10175" lon="-1.69698">
        <ele>1258.4</ele>
        <time>2021-10-09 19:43:40</time>
      </trkpt>
      <trkpt lat="40.10178" lon="-1.69699">
        <ele>1258.4</ele>
        <time>2021-10-09 19:43:41</time>
      </trkpt>
      <trkpt lat="40.10182" lon="-1.697">
        <ele>1258.4</ele>
        <time>2021-10-09 19:43:42</time>
      </trkpt>
      <trkpt lat="40.10186" lon="-1.69701">
        <ele>1258.4</ele>
        <time>2021-10-09 19:43:43</time>
      </trkpt>
      <trkpt lat="40.1019" lon="-1.69701">
        <ele>1258.4</ele>
        <time>2021-10-09 19:43:44</time>
      </trkpt>
      <trkpt lat="40.10194" lon="-1.69702">
        <ele>1258.4</ele>
        <time>2021-10-09 19:43:45</time>
      </trkpt>
      <trkpt lat="40.10198" lon="-1.69703">
        <ele>1258.4</ele>
        <time>2021-10-09 19:43:46</time>
      </trkpt>
      <trkpt lat="40.10203" lon="-1.69703">
        <ele>1258.4</ele>
        <time>2021-10-09 19:43:47</time>
      </trkpt>
      <trkpt lat="40.10207" lon="-1.69703">
        <ele>1258.2</ele>
        <time>2021-10-09 19:43:48</time>
      </trkpt>
      <trkpt lat="40.10212" lon="-1.69704">
        <ele>1258.2</ele>
        <time>2021-10-09 19:43:49</time>
      </trkpt>
      <trkpt lat="40.10217" lon="-1.69705">
        <ele>1258.2</ele>
        <time>2021-10-09 19:43:50</time>
      </trkpt>
      <trkpt lat="40.10222" lon="-1.69706">
        <ele>1258.2</ele>
        <time>2021-10-09 19:43:51</time>
      </trkpt>
      <trkpt lat="40.10228" lon="-1.69708">
        <ele>1257.8</ele>
        <time>2021-10-09 19:43:52</time>
      </trkpt>
      <trkpt lat="40.10233" lon="-1.6971">
        <ele>1257.8</ele>
        <time>2021-10-09 19:43:53</time>
      </trkpt>
      <trkpt lat="40.10239" lon="-1.69715">
        <ele>1257.6</ele>
        <time>2021-10-09 19:43:54</time>
      </trkpt>
      <trkpt lat="40.10244" lon="-1.6972">
        <ele>1257.6</ele>
        <time>2021-10-09 19:43:55</time>
      </trkpt>
      <trkpt lat="40.10249" lon="-1.69726">
        <ele>1257.4</ele>
        <time>2021-10-09 19:43:56</time>
      </trkpt>
      <trkpt lat="40.10253" lon="-1.69732">
        <ele>1257.4</ele>
        <time>2021-10-09 19:43:57</time>
      </trkpt>
      <trkpt lat="40.10257" lon="-1.69738">
        <ele>1257</ele>
        <time>2021-10-09 19:43:58</time>
      </trkpt>
      <trkpt lat="40.10262" lon="-1.69743">
        <ele>1257</ele>
        <time>2021-10-09 19:43:59</time>
      </trkpt>
      <trkpt lat="40.10266" lon="-1.69748">
        <ele>1256.6</ele>
        <time>2021-10-09 19:44:00</time>
      </trkpt>
      <trkpt lat="40.1027" lon="-1.69751">
        <ele>1256.4</ele>
        <time>2021-10-09 19:44:01</time>
      </trkpt>
      <trkpt lat="40.10275" lon="-1.69753">
        <ele>1256.2</ele>
        <time>2021-10-09 19:44:02</time>
      </trkpt>
      <trkpt lat="40.10281" lon="-1.69756">
        <ele>1256</ele>
        <time>2021-10-09 19:44:03</time>
      </trkpt>
      <trkpt lat="40.10286" lon="-1.69759">
        <ele>1255.8</ele>
        <time>2021-10-09 19:44:04</time>
      </trkpt>
      <trkpt lat="40.10291" lon="-1.69762">
        <ele>1255.6</ele>
        <time>2021-10-09 19:44:05</time>
      </trkpt>
      <trkpt lat="40.10297" lon="-1.69763">
        <ele>1255.2</ele>
        <time>2021-10-09 19:44:06</time>
      </trkpt>
      <trkpt lat="40.10303" lon="-1.69766">
        <ele>1255</ele>
        <time>2021-10-09 19:44:07</time>
      </trkpt>
      <trkpt lat="40.1031" lon="-1.69768">
        <ele>1254.8</ele>
        <time>2021-10-09 19:44:08</time>
      </trkpt>
      <trkpt lat="40.10316" lon="-1.69769">
        <ele>1254.6</ele>
        <time>2021-10-09 19:44:09</time>
      </trkpt>
      <trkpt lat="40.10323" lon="-1.69771">
        <ele>1254.2</ele>
        <time>2021-10-09 19:44:10</time>
      </trkpt>
      <trkpt lat="40.10331" lon="-1.69772">
        <ele>1254</ele>
        <time>2021-10-09 19:44:11</time>
      </trkpt>
      <trkpt lat="40.10338" lon="-1.69774">
        <ele>1253.6</ele>
        <time>2021-10-09 19:44:12</time>
      </trkpt>
      <trkpt lat="40.10346" lon="-1.69776">
        <ele>1253.4</ele>
        <time>2021-10-09 19:44:13</time>
      </trkpt>
      <trkpt lat="40.10354" lon="-1.69777">
        <ele>1253</ele>
        <time>2021-10-09 19:44:14</time>
      </trkpt>
      <trkpt lat="40.10363" lon="-1.69778">
        <ele>1252.6</ele>
        <time>2021-10-09 19:44:15</time>
      </trkpt>
      <trkpt lat="40.10372" lon="-1.6978">
        <ele>1252.4</ele>
        <time>2021-10-09 19:44:16</time>
      </trkpt>
      <trkpt lat="40.1038" lon="-1.69782">
        <ele>1252</ele>
        <time>2021-10-09 19:44:17</time>
      </trkpt>
      <trkpt lat="40.10389" lon="-1.69785">
        <ele>1251.8</ele>
        <time>2021-10-09 19:44:18</time>
      </trkpt>
      <trkpt lat="40.10397" lon="-1.69787">
        <ele>1251.4</ele>
        <time>2021-10-09 19:44:19</time>
      </trkpt>
      <trkpt lat="40.10405" lon="-1.69792">
        <ele>1251</ele>
        <time>2021-10-09 19:44:20</time>
      </trkpt>
      <trkpt lat="40.10413" lon="-1.69797">
        <ele>1250.8</ele>
        <time>2021-10-09 19:44:21</time>
      </trkpt>
      <trkpt lat="40.1042" lon="-1.69804">
        <ele>1250.4</ele>
        <time>2021-10-09 19:44:22</time>
      </trkpt>
      <trkpt lat="40.10428" lon="-1.6981">
        <ele>1250.2</ele>
        <time>2021-10-09 19:44:23</time>
      </trkpt>
      <trkpt lat="40.10435" lon="-1.69817">
        <ele>1249.8</ele>
        <time>2021-10-09 19:44:24</time>
      </trkpt>
      <trkpt lat="40.10443" lon="-1.69822">
        <ele>1249.4</ele>
        <time>2021-10-09 19:44:25</time>
      </trkpt>
      <trkpt lat="40.10452" lon="-1.69827">
        <ele>1249</ele>
        <time>2021-10-09 19:44:26</time>
      </trkpt>
      <trkpt lat="40.10461" lon="-1.69831">
        <ele>1248.6</ele>
        <time>2021-10-09 19:44:27</time>
      </trkpt>
      <trkpt lat="40.1047" lon="-1.69835">
        <ele>1248.2</ele>
        <time>2021-10-09 19:44:28</time>
      </trkpt>
      <trkpt lat="40.10478" lon="-1.69839">
        <ele>1247.8</ele>
        <time>2021-10-09 19:44:29</time>
      </trkpt>
      <trkpt lat="40.10487" lon="-1.69844">
        <ele>1247.6</ele>
        <time>2021-10-09 19:44:30</time>
      </trkpt>
      <trkpt lat="40.10496" lon="-1.69849">
        <ele>1247.2</ele>
        <time>2021-10-09 19:44:31</time>
      </trkpt>
      <trkpt lat="40.10505" lon="-1.69854">
        <ele>1246.6</ele>
        <time>2021-10-09 19:44:32</time>
      </trkpt>
      <trkpt lat="40.10514" lon="-1.6986">
        <ele>1246.2</ele>
        <time>2021-10-09 19:44:33</time>
      </trkpt>
      <trkpt lat="40.10522" lon="-1.69866">
        <ele>1245.8</ele>
        <time>2021-10-09 19:44:34</time>
      </trkpt>
      <trkpt lat="40.10531" lon="-1.69872">
        <ele>1245.4</ele>
        <time>2021-10-09 19:44:35</time>
      </trkpt>
      <trkpt lat="40.1054" lon="-1.69877">
        <ele>1244.8</ele>
        <time>2021-10-09 19:44:36</time>
      </trkpt>
      <trkpt lat="40.1055" lon="-1.69882">
        <ele>1244.4</ele>
        <time>2021-10-09 19:44:37</time>
      </trkpt>
      <trkpt lat="40.1056" lon="-1.69886">
        <ele>1243.8</ele>
        <time>2021-10-09 19:44:38</time>
      </trkpt>
      <trkpt lat="40.1057" lon="-1.69888">
        <ele>1243.4</ele>
        <time>2021-10-09 19:44:39</time>
      </trkpt>
      <trkpt lat="40.10579" lon="-1.69888">
        <ele>1243</ele>
        <time>2021-10-09 19:44:40</time>
      </trkpt>
      <trkpt lat="40.10589" lon="-1.69888">
        <ele>1242.6</ele>
        <time>2021-10-09 19:44:41</time>
      </trkpt>
      <trkpt lat="40.10598" lon="-1.69887">
        <ele>1242.2</ele>
        <time>2021-10-09 19:44:42</time>
      </trkpt>
      <trkpt lat="40.10607" lon="-1.69887">
        <ele>1241.8</ele>
        <time>2021-10-09 19:44:43</time>
      </trkpt>
      <trkpt lat="40.10617" lon="-1.69886">
        <ele>1241.6</ele>
        <time>2021-10-09 19:44:44</time>
      </trkpt>
      <trkpt lat="40.10626" lon="-1.69886">
        <ele>1241.2</ele>
        <time>2021-10-09 19:44:45</time>
      </trkpt>
      <trkpt lat="40.10635" lon="-1.69885">
        <ele>1241</ele>
        <time>2021-10-09 19:44:46</time>
      </trkpt>
      <trkpt lat="40.10644" lon="-1.69885">
        <ele>1240.6</ele>
        <time>2021-10-09 19:44:47</time>
      </trkpt>
      <trkpt lat="40.10653" lon="-1.69885">
        <ele>1240.4</ele>
        <time>2021-10-09 19:44:48</time>
      </trkpt>
      <trkpt lat="40.10661" lon="-1.69885">
        <ele>1240.2</ele>
        <time>2021-10-09 19:44:49</time>
      </trkpt>
      <trkpt lat="40.10669" lon="-1.69887">
        <ele>1240.2</ele>
        <time>2021-10-09 19:44:50</time>
      </trkpt>
      <trkpt lat="40.10677" lon="-1.69891">
        <ele>1239.8</ele>
        <time>2021-10-09 19:44:51</time>
      </trkpt>
      <trkpt lat="40.10682" lon="-1.69895">
        <ele>1239.8</ele>
        <time>2021-10-09 19:44:52</time>
      </trkpt>
      <trkpt lat="40.10687" lon="-1.69899">
        <ele>1239.8</ele>
        <time>2021-10-09 19:44:53</time>
      </trkpt>
      <trkpt lat="40.10691" lon="-1.69903">
        <ele>1240</ele>
        <time>2021-10-09 19:44:54</time>
      </trkpt>
      <trkpt lat="40.10694" lon="-1.69906">
        <ele>1240</ele>
        <time>2021-10-09 19:44:55</time>
      </trkpt>
      <trkpt lat="40.10698" lon="-1.69908">
        <ele>1240</ele>
        <time>2021-10-09 19:44:56</time>
      </trkpt>
      <trkpt lat="40.10702" lon="-1.6991">
        <ele>1240</ele>
        <time>2021-10-09 19:44:57</time>
      </trkpt>
      <trkpt lat="40.10706" lon="-1.6991">
        <ele>1240</ele>
        <time>2021-10-09 19:44:58</time>
      </trkpt>
      <trkpt lat="40.1071" lon="-1.69911">
        <ele>1240</ele>
        <time>2021-10-09 19:44:59</time>
      </trkpt>
      <trkpt lat="40.10714" lon="-1.6991">
        <ele>1240</ele>
        <time>2021-10-09 19:45:00</time>
      </trkpt>
      <trkpt lat="40.10719" lon="-1.69908">
        <ele>1240</ele>
        <time>2021-10-09 19:45:01</time>
      </trkpt>
      <trkpt lat="40.10724" lon="-1.69907">
        <ele>1240</ele>
        <time>2021-10-09 19:45:02</time>
      </trkpt>
      <trkpt lat="40.10729" lon="-1.69904">
        <ele>1240</ele>
        <time>2021-10-09 19:45:03</time>
      </trkpt>
      <trkpt lat="40.10735" lon="-1.69902">
        <ele>1240</ele>
        <time>2021-10-09 19:45:04</time>
      </trkpt>
      <trkpt lat="40.1074" lon="-1.69901">
        <ele>1240</ele>
        <time>2021-10-09 19:45:05</time>
      </trkpt>
      <trkpt lat="40.10746" lon="-1.69899">
        <ele>1240</ele>
        <time>2021-10-09 19:45:06</time>
      </trkpt>
      <trkpt lat="40.10752" lon="-1.69898">
        <ele>1239.8</ele>
        <time>2021-10-09 19:45:07</time>
      </trkpt>
      <trkpt lat="40.10757" lon="-1.69896">
        <ele>1239.8</ele>
        <time>2021-10-09 19:45:08</time>
      </trkpt>
      <trkpt lat="40.10763" lon="-1.69894">
        <ele>1239.8</ele>
        <time>2021-10-09 19:45:09</time>
      </trkpt>
      <trkpt lat="40.10768" lon="-1.69892">
        <ele>1239.6</ele>
        <time>2021-10-09 19:45:10</time>
      </trkpt>
      <trkpt lat="40.10773" lon="-1.69891">
        <ele>1239.6</ele>
        <time>2021-10-09 19:45:11</time>
      </trkpt>
      <trkpt lat="40.10779" lon="-1.69888">
        <ele>1239.6</ele>
        <time>2021-10-09 19:45:12</time>
      </trkpt>
      <trkpt lat="40.10784" lon="-1.69886">
        <ele>1239.4</ele>
        <time>2021-10-09 19:45:13</time>
      </trkpt>
      <trkpt lat="40.1079" lon="-1.69884">
        <ele>1239.4</ele>
        <time>2021-10-09 19:45:14</time>
      </trkpt>
      <trkpt lat="40.10797" lon="-1.69881">
        <ele>1239.4</ele>
        <time>2021-10-09 19:45:15</time>
      </trkpt>
      <trkpt lat="40.10803" lon="-1.6988">
        <ele>1239.4</ele>
        <time>2021-10-09 19:45:16</time>
      </trkpt>
      <trkpt lat="40.10809" lon="-1.69879">
        <ele>1239.4</ele>
        <time>2021-10-09 19:45:17</time>
      </trkpt>
      <trkpt lat="40.10815" lon="-1.69877">
        <ele>1239.4</ele>
        <time>2021-10-09 19:45:18</time>
      </trkpt>
      <trkpt lat="40.10822" lon="-1.69874">
        <ele>1239.4</ele>
        <time>2021-10-09 19:45:19</time>
      </trkpt>
      <trkpt lat="40.10828" lon="-1.69872">
        <ele>1239.4</ele>
        <time>2021-10-09 19:45:20</time>
      </trkpt>
      <trkpt lat="40.10834" lon="-1.6987">
        <ele>1239.4</ele>
        <time>2021-10-09 19:45:21</time>
      </trkpt>
      <trkpt lat="40.1084" lon="-1.69868">
        <ele>1239.4</ele>
        <time>2021-10-09 19:45:22</time>
      </trkpt>
      <trkpt lat="40.10846" lon="-1.69866">
        <ele>1239.4</ele>
        <time>2021-10-09 19:45:23</time>
      </trkpt>
      <trkpt lat="40.10852" lon="-1.69864">
        <ele>1239.4</ele>
        <time>2021-10-09 19:45:24</time>
      </trkpt>
      <trkpt lat="40.10858" lon="-1.69863">
        <ele>1239.4</ele>
        <time>2021-10-09 19:45:25</time>
      </trkpt>
      <trkpt lat="40.10863" lon="-1.69862">
        <ele>1239.4</ele>
        <time>2021-10-09 19:45:26</time>
      </trkpt>
      <trkpt lat="40.10869" lon="-1.6986">
        <ele>1239.4</ele>
        <time>2021-10-09 19:45:27</time>
      </trkpt>
      <trkpt lat="40.10874" lon="-1.69859">
        <ele>1239.4</ele>
        <time>2021-10-09 19:45:28</time>
      </trkpt>
      <trkpt lat="40.10879" lon="-1.69859">
        <ele>1239.6</ele>
        <time>2021-10-09 19:45:29</time>
      </trkpt>
      <trkpt lat="40.10885" lon="-1.69857">
        <ele>1239.6</ele>
        <time>2021-10-09 19:45:30</time>
      </trkpt>
      <trkpt lat="40.10889" lon="-1.69857">
        <ele>1239.6</ele>
        <time>2021-10-09 19:45:31</time>
      </trkpt>
      <trkpt lat="40.10894" lon="-1.69856">
        <ele>1239.8</ele>
        <time>2021-10-09 19:45:32</time>
      </trkpt>
      <trkpt lat="40.10899" lon="-1.69854">
        <ele>1239.8</ele>
        <time>2021-10-09 19:45:33</time>
      </trkpt>
      <trkpt lat="40.10904" lon="-1.69853">
        <ele>1239.8</ele>
        <time>2021-10-09 19:45:34</time>
      </trkpt>
      <trkpt lat="40.10908" lon="-1.69853">
        <ele>1239.8</ele>
        <time>2021-10-09 19:45:35</time>
      </trkpt>
      <trkpt lat="40.10913" lon="-1.69852">
        <ele>1240.2</ele>
        <time>2021-10-09 19:45:36</time>
      </trkpt>
      <trkpt lat="40.10918" lon="-1.69852">
        <ele>1240.2</ele>
        <time>2021-10-09 19:45:37</time>
      </trkpt>
      <trkpt lat="40.10922" lon="-1.69851">
        <ele>1240.2</ele>
        <time>2021-10-09 19:45:38</time>
      </trkpt>
      <trkpt lat="40.10926" lon="-1.69851">
        <ele>1240.4</ele>
        <time>2021-10-09 19:45:39</time>
      </trkpt>
      <trkpt lat="40.10931" lon="-1.69851">
        <ele>1240.4</ele>
        <time>2021-10-09 19:45:40</time>
      </trkpt>
      <trkpt lat="40.10934" lon="-1.6985">
        <ele>1240.4</ele>
        <time>2021-10-09 19:45:41</time>
      </trkpt>
      <trkpt lat="40.10939" lon="-1.6985">
        <ele>1240.6</ele>
        <time>2021-10-09 19:45:42</time>
      </trkpt>
      <trkpt lat="40.10943" lon="-1.69848">
        <ele>1240.6</ele>
        <time>2021-10-09 19:45:43</time>
      </trkpt>
      <trkpt lat="40.10947" lon="-1.69848">
        <ele>1240.8</ele>
        <time>2021-10-09 19:45:44</time>
      </trkpt>
      <trkpt lat="40.10951" lon="-1.69847">
        <ele>1241</ele>
        <time>2021-10-09 19:45:45</time>
      </trkpt>
      <trkpt lat="40.10955" lon="-1.69846">
        <ele>1241</ele>
        <time>2021-10-09 19:45:46</time>
      </trkpt>
      <trkpt lat="40.10959" lon="-1.69846">
        <ele>1241.2</ele>
        <time>2021-10-09 19:45:47</time>
      </trkpt>
      <trkpt lat="40.10964" lon="-1.69844">
        <ele>1241.2</ele>
        <time>2021-10-09 19:45:48</time>
      </trkpt>
      <trkpt lat="40.10969" lon="-1.69845">
        <ele>1241.6</ele>
        <time>2021-10-09 19:45:49</time>
      </trkpt>
      <trkpt lat="40.10973" lon="-1.69844">
        <ele>1241.6</ele>
        <time>2021-10-09 19:45:50</time>
      </trkpt>
      <trkpt lat="40.10978" lon="-1.69844">
        <ele>1241.8</ele>
        <time>2021-10-09 19:45:51</time>
      </trkpt>
      <trkpt lat="40.10983" lon="-1.69843">
        <ele>1241.8</ele>
        <time>2021-10-09 19:45:52</time>
      </trkpt>
      <trkpt lat="40.10987" lon="-1.69842">
        <ele>1242</ele>
        <time>2021-10-09 19:45:53</time>
      </trkpt>
      <trkpt lat="40.10992" lon="-1.69841">
        <ele>1242</ele>
        <time>2021-10-09 19:45:54</time>
      </trkpt>
      <trkpt lat="40.10997" lon="-1.6984">
        <ele>1242.4</ele>
        <time>2021-10-09 19:45:55</time>
      </trkpt>
      <trkpt lat="40.11001" lon="-1.6984">
        <ele>1242.4</ele>
        <time>2021-10-09 19:45:56</time>
      </trkpt>
      <trkpt lat="40.11005" lon="-1.69841">
        <ele>1242.6</ele>
        <time>2021-10-09 19:45:57</time>
      </trkpt>
      <trkpt lat="40.1101" lon="-1.69841">
        <ele>1242.6</ele>
        <time>2021-10-09 19:45:58</time>
      </trkpt>
      <trkpt lat="40.11014" lon="-1.6984">
        <ele>1243</ele>
        <time>2021-10-09 19:45:59</time>
      </trkpt>
      <trkpt lat="40.11019" lon="-1.69839">
        <ele>1243</ele>
        <time>2021-10-09 19:46:00</time>
      </trkpt>
      <trkpt lat="40.11023" lon="-1.69839">
        <ele>1243.4</ele>
        <time>2021-10-09 19:46:01</time>
      </trkpt>
      <trkpt lat="40.11028" lon="-1.69839">
        <ele>1243.4</ele>
        <time>2021-10-09 19:46:02</time>
      </trkpt>
      <trkpt lat="40.11032" lon="-1.69839">
        <ele>1243.6</ele>
        <time>2021-10-09 19:46:03</time>
      </trkpt>
      <trkpt lat="40.11036" lon="-1.69839">
        <ele>1243.6</ele>
        <time>2021-10-09 19:46:04</time>
      </trkpt>
      <trkpt lat="40.1104" lon="-1.69839">
        <ele>1243.8</ele>
        <time>2021-10-09 19:46:05</time>
      </trkpt>
      <trkpt lat="40.11045" lon="-1.69838">
        <ele>1243.8</ele>
        <time>2021-10-09 19:46:06</time>
      </trkpt>
      <trkpt lat="40.11049" lon="-1.69838">
        <ele>1243.8</ele>
        <time>2021-10-09 19:46:07</time>
      </trkpt>
      <trkpt lat="40.11053" lon="-1.69838">
        <ele>1244</ele>
        <time>2021-10-09 19:46:08</time>
      </trkpt>
      <trkpt lat="40.11057" lon="-1.69838">
        <ele>1244</ele>
        <time>2021-10-09 19:46:09</time>
      </trkpt>
      <trkpt lat="40.11061" lon="-1.69839">
        <ele>1244</ele>
        <time>2021-10-09 19:46:10</time>
      </trkpt>
      <trkpt lat="40.11066" lon="-1.69839">
        <ele>1244.2</ele>
        <time>2021-10-09 19:46:11</time>
      </trkpt>
      <trkpt lat="40.1107" lon="-1.69839">
        <ele>1244.2</ele>
        <time>2021-10-09 19:46:12</time>
      </trkpt>
      <trkpt lat="40.11074" lon="-1.69839">
        <ele>1244.2</ele>
        <time>2021-10-09 19:46:13</time>
      </trkpt>
      <trkpt lat="40.11079" lon="-1.69839">
        <ele>1244.6</ele>
        <time>2021-10-09 19:46:14</time>
      </trkpt>
      <trkpt lat="40.11083" lon="-1.69839">
        <ele>1244.6</ele>
        <time>2021-10-09 19:46:15</time>
      </trkpt>
      <trkpt lat="40.11087" lon="-1.69839">
        <ele>1244.6</ele>
        <time>2021-10-09 19:46:16</time>
      </trkpt>
      <trkpt lat="40.11092" lon="-1.6984">
        <ele>1244.6</ele>
        <time>2021-10-09 19:46:17</time>
      </trkpt>
      <trkpt lat="40.11096" lon="-1.6984">
        <ele>1244.6</ele>
        <time>2021-10-09 19:46:18</time>
      </trkpt>
      <trkpt lat="40.11101" lon="-1.69839">
        <ele>1244.8</ele>
        <time>2021-10-09 19:46:19</time>
      </trkpt>
      <trkpt lat="40.11105" lon="-1.69839">
        <ele>1244.8</ele>
        <time>2021-10-09 19:46:20</time>
      </trkpt>
      <trkpt lat="40.1111" lon="-1.69839">
        <ele>1244.8</ele>
        <time>2021-10-09 19:46:21</time>
      </trkpt>
      <trkpt lat="40.11115" lon="-1.6984">
        <ele>1244.8</ele>
        <time>2021-10-09 19:46:22</time>
      </trkpt>
      <trkpt lat="40.1112" lon="-1.69839">
        <ele>1244.8</ele>
        <time>2021-10-09 19:46:23</time>
      </trkpt>
      <trkpt lat="40.11124" lon="-1.6984">
        <ele>1244.8</ele>
        <time>2021-10-09 19:46:24</time>
      </trkpt>
      <trkpt lat="40.1113" lon="-1.69839">
        <ele>1244.8</ele>
        <time>2021-10-09 19:46:25</time>
      </trkpt>
      <trkpt lat="40.11135" lon="-1.69839">
        <ele>1244.8</ele>
        <time>2021-10-09 19:46:26</time>
      </trkpt>
      <trkpt lat="40.1114" lon="-1.69839">
        <ele>1244.8</ele>
        <time>2021-10-09 19:46:27</time>
      </trkpt>
      <trkpt lat="40.11145" lon="-1.69839">
        <ele>1244.8</ele>
        <time>2021-10-09 19:46:28</time>
      </trkpt>
      <trkpt lat="40.1115" lon="-1.6984">
        <ele>1244.8</ele>
        <time>2021-10-09 19:46:29</time>
      </trkpt>
      <trkpt lat="40.11155" lon="-1.69839">
        <ele>1244.8</ele>
        <time>2021-10-09 19:46:30</time>
      </trkpt>
      <trkpt lat="40.11161" lon="-1.6984">
        <ele>1244.6</ele>
        <time>2021-10-09 19:46:31</time>
      </trkpt>
      <trkpt lat="40.11166" lon="-1.6984">
        <ele>1244.6</ele>
        <time>2021-10-09 19:46:32</time>
      </trkpt>
      <trkpt lat="40.11172" lon="-1.6984">
        <ele>1244.6</ele>
        <time>2021-10-09 19:46:33</time>
      </trkpt>
      <trkpt lat="40.11177" lon="-1.69841">
        <ele>1244.2</ele>
        <time>2021-10-09 19:46:34</time>
      </trkpt>
      <trkpt lat="40.11182" lon="-1.69841">
        <ele>1244.2</ele>
        <time>2021-10-09 19:46:35</time>
      </trkpt>
      <trkpt lat="40.11188" lon="-1.69841">
        <ele>1244</ele>
        <time>2021-10-09 19:46:36</time>
      </trkpt>
      <trkpt lat="40.11193" lon="-1.69841">
        <ele>1244</ele>
        <time>2021-10-09 19:46:37</time>
      </trkpt>
      <trkpt lat="40.112" lon="-1.69841">
        <ele>1243.8</ele>
        <time>2021-10-09 19:46:38</time>
      </trkpt>
      <trkpt lat="40.11206" lon="-1.69842">
        <ele>1243.8</ele>
        <time>2021-10-09 19:46:39</time>
      </trkpt>
      <trkpt lat="40.11212" lon="-1.69842">
        <ele>1243.4</ele>
        <time>2021-10-09 19:46:40</time>
      </trkpt>
      <trkpt lat="40.11219" lon="-1.69842">
        <ele>1243.4</ele>
        <time>2021-10-09 19:46:41</time>
      </trkpt>
      <trkpt lat="40.11226" lon="-1.69842">
        <ele>1243</ele>
        <time>2021-10-09 19:46:42</time>
      </trkpt>
      <trkpt lat="40.11233" lon="-1.69843">
        <ele>1243</ele>
        <time>2021-10-09 19:46:43</time>
      </trkpt>
      <trkpt lat="40.1124" lon="-1.69842">
        <ele>1242.6</ele>
        <time>2021-10-09 19:46:44</time>
      </trkpt>
      <trkpt lat="40.11247" lon="-1.69843">
        <ele>1242.2</ele>
        <time>2021-10-09 19:46:45</time>
      </trkpt>
      <trkpt lat="40.11254" lon="-1.69843">
        <ele>1242</ele>
        <time>2021-10-09 19:46:46</time>
      </trkpt>
      <trkpt lat="40.11261" lon="-1.69843">
        <ele>1241.8</ele>
        <time>2021-10-09 19:46:47</time>
      </trkpt>
      <trkpt lat="40.11268" lon="-1.69843">
        <ele>1241.8</ele>
        <time>2021-10-09 19:46:48</time>
      </trkpt>
      <trkpt lat="40.11274" lon="-1.69843">
        <ele>1241.4</ele>
        <time>2021-10-09 19:46:49</time>
      </trkpt>
      <trkpt lat="40.11281" lon="-1.69843">
        <ele>1241.4</ele>
        <time>2021-10-09 19:46:50</time>
      </trkpt>
      <trkpt lat="40.11287" lon="-1.69844">
        <ele>1241.4</ele>
        <time>2021-10-09 19:46:51</time>
      </trkpt>
      <trkpt lat="40.11293" lon="-1.69843">
        <ele>1241.6</ele>
        <time>2021-10-09 19:46:52</time>
      </trkpt>
      <trkpt lat="40.11299" lon="-1.69843">
        <ele>1241.6</ele>
        <time>2021-10-09 19:46:53</time>
      </trkpt>
      <trkpt lat="40.11305" lon="-1.69843">
        <ele>1241.6</ele>
        <time>2021-10-09 19:46:54</time>
      </trkpt>
      <trkpt lat="40.1131" lon="-1.69842">
        <ele>1241.6</ele>
        <time>2021-10-09 19:46:55</time>
      </trkpt>
      <trkpt lat="40.11316" lon="-1.69842">
        <ele>1242</ele>
        <time>2021-10-09 19:46:56</time>
      </trkpt>
      <trkpt lat="40.11322" lon="-1.69841">
        <ele>1242</ele>
        <time>2021-10-09 19:46:57</time>
      </trkpt>
      <trkpt lat="40.11327" lon="-1.69841">
        <ele>1242.2</ele>
        <time>2021-10-09 19:46:58</time>
      </trkpt>
      <trkpt lat="40.11332" lon="-1.6984">
        <ele>1242.2</ele>
        <time>2021-10-09 19:46:59</time>
      </trkpt>
      <trkpt lat="40.11336" lon="-1.6984">
        <ele>1242.2</ele>
        <time>2021-10-09 19:47:00</time>
      </trkpt>
      <trkpt lat="40.1134" lon="-1.6984">
        <ele>1242.4</ele>
        <time>2021-10-09 19:47:01</time>
      </trkpt>
      <trkpt lat="40.11345" lon="-1.69838">
        <ele>1242.4</ele>
        <time>2021-10-09 19:47:02</time>
      </trkpt>
      <trkpt lat="40.11349" lon="-1.69838">
        <ele>1242.8</ele>
        <time>2021-10-09 19:47:03</time>
      </trkpt>
      <trkpt lat="40.11353" lon="-1.69837">
        <ele>1243</ele>
        <time>2021-10-09 19:47:04</time>
      </trkpt>
      <trkpt lat="40.11357" lon="-1.69836">
        <ele>1243.2</ele>
        <time>2021-10-09 19:47:05</time>
      </trkpt>
      <trkpt lat="40.1136" lon="-1.69837">
        <ele>1243.4</ele>
        <time>2021-10-09 19:47:06</time>
      </trkpt>
      <trkpt lat="40.11364" lon="-1.69836">
        <ele>1243.6</ele>
        <time>2021-10-09 19:47:07</time>
      </trkpt>
      <trkpt lat="40.11368" lon="-1.69835">
        <ele>1243.6</ele>
        <time>2021-10-09 19:47:08</time>
      </trkpt>
      <trkpt lat="40.11372" lon="-1.69835">
        <ele>1244</ele>
        <time>2021-10-09 19:47:09</time>
      </trkpt>
      <trkpt lat="40.11376" lon="-1.69834">
        <ele>1244.2</ele>
        <time>2021-10-09 19:47:10</time>
      </trkpt>
      <trkpt lat="40.1138" lon="-1.69833">
        <ele>1244.6</ele>
        <time>2021-10-09 19:47:11</time>
      </trkpt>
      <trkpt lat="40.11384" lon="-1.69833">
        <ele>1244.8</ele>
        <time>2021-10-09 19:47:12</time>
      </trkpt>
      <trkpt lat="40.11388" lon="-1.69832">
        <ele>1245</ele>
        <time>2021-10-09 19:47:13</time>
      </trkpt>
      <trkpt lat="40.11391" lon="-1.69832">
        <ele>1245.2</ele>
        <time>2021-10-09 19:47:14</time>
      </trkpt>
      <trkpt lat="40.11395" lon="-1.69831">
        <ele>1245.4</ele>
        <time>2021-10-09 19:47:15</time>
      </trkpt>
      <trkpt lat="40.11399" lon="-1.69831">
        <ele>1245.8</ele>
        <time>2021-10-09 19:47:16</time>
      </trkpt>
      <trkpt lat="40.11402" lon="-1.6983">
        <ele>1246</ele>
        <time>2021-10-09 19:47:17</time>
      </trkpt>
      <trkpt lat="40.11406" lon="-1.6983">
        <ele>1246.4</ele>
        <time>2021-10-09 19:47:18</time>
      </trkpt>
      <trkpt lat="40.11409" lon="-1.69829">
        <ele>1246.8</ele>
        <time>2021-10-09 19:47:19</time>
      </trkpt>
      <trkpt lat="40.11413" lon="-1.69829">
        <ele>1247</ele>
        <time>2021-10-09 19:47:20</time>
      </trkpt>
      <trkpt lat="40.11416" lon="-1.69829">
        <ele>1247.2</ele>
        <time>2021-10-09 19:47:21</time>
      </trkpt>
      <trkpt lat="40.1142" lon="-1.69828">
        <ele>1247.6</ele>
        <time>2021-10-09 19:47:22</time>
      </trkpt>
      <trkpt lat="40.11423" lon="-1.69828">
        <ele>1247.8</ele>
        <time>2021-10-09 19:47:23</time>
      </trkpt>
      <trkpt lat="40.11427" lon="-1.69827">
        <ele>1248</ele>
        <time>2021-10-09 19:47:24</time>
      </trkpt>
      <trkpt lat="40.1143" lon="-1.69826">
        <ele>1248.2</ele>
        <time>2021-10-09 19:47:25</time>
      </trkpt>
      <trkpt lat="40.11434" lon="-1.69825">
        <ele>1248.6</ele>
        <time>2021-10-09 19:47:26</time>
      </trkpt>
      <trkpt lat="40.11437" lon="-1.69824">
        <ele>1248.8</ele>
        <time>2021-10-09 19:47:27</time>
      </trkpt>
      <trkpt lat="40.11441" lon="-1.69823">
        <ele>1248.8</ele>
        <time>2021-10-09 19:47:28</time>
      </trkpt>
      <trkpt lat="40.11443" lon="-1.69822">
        <ele>1249</ele>
        <time>2021-10-09 19:47:29</time>
      </trkpt>
      <trkpt lat="40.11446" lon="-1.69821">
        <ele>1249.4</ele>
        <time>2021-10-09 19:47:30</time>
      </trkpt>
      <trkpt lat="40.11448" lon="-1.6982">
        <ele>1249.4</ele>
        <time>2021-10-09 19:47:31</time>
      </trkpt>
      <trkpt lat="40.11451" lon="-1.69818">
        <ele>1249.6</ele>
        <time>2021-10-09 19:47:32</time>
      </trkpt>
      <trkpt lat="40.11454" lon="-1.69817">
        <ele>1249.6</ele>
        <time>2021-10-09 19:47:33</time>
      </trkpt>
      <trkpt lat="40.11457" lon="-1.69816">
        <ele>1250</ele>
        <time>2021-10-09 19:47:34</time>
      </trkpt>
      <trkpt lat="40.1146" lon="-1.69815">
        <ele>1250</ele>
        <time>2021-10-09 19:47:35</time>
      </trkpt>
      <trkpt lat="40.11463" lon="-1.69814">
        <ele>1250.2</ele>
        <time>2021-10-09 19:47:36</time>
      </trkpt>
      <trkpt lat="40.11466" lon="-1.69813">
        <ele>1250.2</ele>
        <time>2021-10-09 19:47:37</time>
      </trkpt>
      <trkpt lat="40.11469" lon="-1.69812">
        <ele>1250.6</ele>
        <time>2021-10-09 19:47:38</time>
      </trkpt>
      <trkpt lat="40.11472" lon="-1.69811">
        <ele>1250.6</ele>
        <time>2021-10-09 19:47:39</time>
      </trkpt>
      <trkpt lat="40.11475" lon="-1.6981">
        <ele>1251</ele>
        <time>2021-10-09 19:47:40</time>
      </trkpt>
      <trkpt lat="40.11479" lon="-1.69809">
        <ele>1251</ele>
        <time>2021-10-09 19:47:41</time>
      </trkpt>
      <trkpt lat="40.11482" lon="-1.69808">
        <ele>1251.2</ele>
        <time>2021-10-09 19:47:42</time>
      </trkpt>
      <trkpt lat="40.11485" lon="-1.69807">
        <ele>1251.2</ele>
        <time>2021-10-09 19:47:43</time>
      </trkpt>
      <trkpt lat="40.11488" lon="-1.69806">
        <ele>1251.6</ele>
        <time>2021-10-09 19:47:44</time>
      </trkpt>
      <trkpt lat="40.11491" lon="-1.69805">
        <ele>1252</ele>
        <time>2021-10-09 19:47:45</time>
      </trkpt>
      <trkpt lat="40.11495" lon="-1.69804">
        <ele>1252.2</ele>
        <time>2021-10-09 19:47:46</time>
      </trkpt>
      <trkpt lat="40.11498" lon="-1.69803">
        <ele>1252.4</ele>
        <time>2021-10-09 19:47:47</time>
      </trkpt>
      <trkpt lat="40.11501" lon="-1.69802">
        <ele>1252.8</ele>
        <time>2021-10-09 19:47:48</time>
      </trkpt>
      <trkpt lat="40.11504" lon="-1.69801">
        <ele>1253</ele>
        <time>2021-10-09 19:47:49</time>
      </trkpt>
      <trkpt lat="40.11507" lon="-1.69801">
        <ele>1253.2</ele>
        <time>2021-10-09 19:47:50</time>
      </trkpt>
      <trkpt lat="40.1151" lon="-1.698">
        <ele>1253.2</ele>
        <time>2021-10-09 19:47:51</time>
      </trkpt>
      <trkpt lat="40.11513" lon="-1.69799">
        <ele>1253.6</ele>
        <time>2021-10-09 19:47:52</time>
      </trkpt>
      <trkpt lat="40.11516" lon="-1.69798">
        <ele>1253.6</ele>
        <time>2021-10-09 19:47:53</time>
      </trkpt>
      <trkpt lat="40.11519" lon="-1.69797">
        <ele>1254</ele>
        <time>2021-10-09 19:47:54</time>
      </trkpt>
      <trkpt lat="40.11522" lon="-1.69796">
        <ele>1254</ele>
        <time>2021-10-09 19:47:55</time>
      </trkpt>
      <trkpt lat="40.11525" lon="-1.69794">
        <ele>1254.2</ele>
        <time>2021-10-09 19:47:56</time>
      </trkpt>
      <trkpt lat="40.11528" lon="-1.69793">
        <ele>1254.2</ele>
        <time>2021-10-09 19:47:57</time>
      </trkpt>
      <trkpt lat="40.11531" lon="-1.69791">
        <ele>1254.6</ele>
        <time>2021-10-09 19:47:58</time>
      </trkpt>
      <trkpt lat="40.11534" lon="-1.6979">
        <ele>1254.6</ele>
        <time>2021-10-09 19:47:59</time>
      </trkpt>
      <trkpt lat="40.11537" lon="-1.69788">
        <ele>1254.8</ele>
        <time>2021-10-09 19:48:00</time>
      </trkpt>
      <trkpt lat="40.1154" lon="-1.69787">
        <ele>1254.8</ele>
        <time>2021-10-09 19:48:01</time>
      </trkpt>
      <trkpt lat="40.11543" lon="-1.69786">
        <ele>1255.2</ele>
        <time>2021-10-09 19:48:02</time>
      </trkpt>
      <trkpt lat="40.11546" lon="-1.69785">
        <ele>1255.2</ele>
        <time>2021-10-09 19:48:03</time>
      </trkpt>
      <trkpt lat="40.1155" lon="-1.69783">
        <ele>1255.6</ele>
        <time>2021-10-09 19:48:04</time>
      </trkpt>
      <trkpt lat="40.11553" lon="-1.69781">
        <ele>1255.6</ele>
        <time>2021-10-09 19:48:05</time>
      </trkpt>
      <trkpt lat="40.11556" lon="-1.6978">
        <ele>1255.8</ele>
        <time>2021-10-09 19:48:06</time>
      </trkpt>
      <trkpt lat="40.1156" lon="-1.69778">
        <ele>1255.8</ele>
        <time>2021-10-09 19:48:07</time>
      </trkpt>
      <trkpt lat="40.11564" lon="-1.69776">
        <ele>1256.2</ele>
        <time>2021-10-09 19:48:08</time>
      </trkpt>
      <trkpt lat="40.11568" lon="-1.69774">
        <ele>1256.2</ele>
        <time>2021-10-09 19:48:09</time>
      </trkpt>
      <trkpt lat="40.11572" lon="-1.69772">
        <ele>1256.6</ele>
        <time>2021-10-09 19:48:10</time>
      </trkpt>
      <trkpt lat="40.11575" lon="-1.6977">
        <ele>1256.8</ele>
        <time>2021-10-09 19:48:11</time>
      </trkpt>
      <trkpt lat="40.11579" lon="-1.69769">
        <ele>1256.8</ele>
        <time>2021-10-09 19:48:12</time>
      </trkpt>
      <trkpt lat="40.11582" lon="-1.69767">
        <ele>1257</ele>
        <time>2021-10-09 19:48:13</time>
      </trkpt>
      <trkpt lat="40.11586" lon="-1.69765">
        <ele>1257</ele>
        <time>2021-10-09 19:48:14</time>
      </trkpt>
      <trkpt lat="40.11589" lon="-1.69763">
        <ele>1257.2</ele>
        <time>2021-10-09 19:48:15</time>
      </trkpt>
      <trkpt lat="40.11593" lon="-1.69762">
        <ele>1257.2</ele>
        <time>2021-10-09 19:48:16</time>
      </trkpt>
      <trkpt lat="40.11596" lon="-1.6976">
        <ele>1257.6</ele>
        <time>2021-10-09 19:48:17</time>
      </trkpt>
      <trkpt lat="40.116" lon="-1.69759">
        <ele>1257.6</ele>
        <time>2021-10-09 19:48:18</time>
      </trkpt>
      <trkpt lat="40.11603" lon="-1.69757">
        <ele>1257.8</ele>
        <time>2021-10-09 19:48:19</time>
      </trkpt>
      <trkpt lat="40.11606" lon="-1.69756">
        <ele>1257.8</ele>
        <time>2021-10-09 19:48:20</time>
      </trkpt>
      <trkpt lat="40.1161" lon="-1.69754">
        <ele>1258.2</ele>
        <time>2021-10-09 19:48:21</time>
      </trkpt>
      <trkpt lat="40.11613" lon="-1.69752">
        <ele>1258.2</ele>
        <time>2021-10-09 19:48:22</time>
      </trkpt>
      <trkpt lat="40.11616" lon="-1.69751">
        <ele>1258.2</ele>
        <time>2021-10-09 19:48:23</time>
      </trkpt>
      <trkpt lat="40.1162" lon="-1.69749">
        <ele>1258.4</ele>
        <time>2021-10-09 19:48:24</time>
      </trkpt>
      <trkpt lat="40.11623" lon="-1.69747">
        <ele>1258.4</ele>
        <time>2021-10-09 19:48:25</time>
      </trkpt>
      <trkpt lat="40.11627" lon="-1.69745">
        <ele>1258.4</ele>
        <time>2021-10-09 19:48:26</time>
      </trkpt>
      <trkpt lat="40.1163" lon="-1.69743">
        <ele>1258.6</ele>
        <time>2021-10-09 19:48:27</time>
      </trkpt>
      <trkpt lat="40.11637" lon="-1.69739">
        <ele>1258.6</ele>
        <time>2021-10-09 19:48:28</time>
      </trkpt>
      <trkpt lat="40.11641" lon="-1.69737">
        <ele>1258.6</ele>
        <time>2021-10-09 19:48:29</time>
      </trkpt>
      <trkpt lat="40.11644" lon="-1.69735">
        <ele>1258.6</ele>
        <time>2021-10-09 19:48:30</time>
      </trkpt>
      <trkpt lat="40.11648" lon="-1.69732">
        <ele>1258.8</ele>
        <time>2021-10-09 19:48:31</time>
      </trkpt>
      <trkpt lat="40.11651" lon="-1.6973">
        <ele>1258.8</ele>
        <time>2021-10-09 19:48:32</time>
      </trkpt>
      <trkpt lat="40.11655" lon="-1.69728">
        <ele>1258.8</ele>
        <time>2021-10-09 19:48:33</time>
      </trkpt>
      <trkpt lat="40.11658" lon="-1.69726">
        <ele>1258.8</ele>
        <time>2021-10-09 19:48:34</time>
      </trkpt>
      <trkpt lat="40.11662" lon="-1.69723">
        <ele>1258.8</ele>
        <time>2021-10-09 19:48:35</time>
      </trkpt>
      <trkpt lat="40.11666" lon="-1.69721">
        <ele>1259</ele>
        <time>2021-10-09 19:48:36</time>
      </trkpt>
      <trkpt lat="40.1167" lon="-1.69718">
        <ele>1259</ele>
        <time>2021-10-09 19:48:37</time>
      </trkpt>
      <trkpt lat="40.11673" lon="-1.69716">
        <ele>1259</ele>
        <time>2021-10-09 19:48:38</time>
      </trkpt>
      <trkpt lat="40.11677" lon="-1.69714">
        <ele>1259</ele>
        <time>2021-10-09 19:48:39</time>
      </trkpt>
      <trkpt lat="40.11681" lon="-1.69711">
        <ele>1259.4</ele>
        <time>2021-10-09 19:48:40</time>
      </trkpt>
      <trkpt lat="40.11685" lon="-1.69709">
        <ele>1259.4</ele>
        <time>2021-10-09 19:48:41</time>
      </trkpt>
      <trkpt lat="40.11689" lon="-1.69707">
        <ele>1259.4</ele>
        <time>2021-10-09 19:48:42</time>
      </trkpt>
      <trkpt lat="40.11693" lon="-1.69705">
        <ele>1259.6</ele>
        <time>2021-10-09 19:48:43</time>
      </trkpt>
      <trkpt lat="40.11696" lon="-1.69702">
        <ele>1259.6</ele>
        <time>2021-10-09 19:48:44</time>
      </trkpt>
      <trkpt lat="40.117" lon="-1.697">
        <ele>1259.6</ele>
        <time>2021-10-09 19:48:45</time>
      </trkpt>
      <trkpt lat="40.11704" lon="-1.69697">
        <ele>1259.6</ele>
        <time>2021-10-09 19:48:46</time>
      </trkpt>
      <trkpt lat="40.11707" lon="-1.69694">
        <ele>1259.6</ele>
        <time>2021-10-09 19:48:47</time>
      </trkpt>
      <trkpt lat="40.11711" lon="-1.69692">
        <ele>1259.6</ele>
        <time>2021-10-09 19:48:48</time>
      </trkpt>
      <trkpt lat="40.11715" lon="-1.6969">
        <ele>1259.8</ele>
        <time>2021-10-09 19:48:49</time>
      </trkpt>
      <trkpt lat="40.11719" lon="-1.69687">
        <ele>1259.8</ele>
        <time>2021-10-09 19:48:50</time>
      </trkpt>
      <trkpt lat="40.11723" lon="-1.69685">
        <ele>1259.8</ele>
        <time>2021-10-09 19:48:51</time>
      </trkpt>
      <trkpt lat="40.11726" lon="-1.69683">
        <ele>1260</ele>
        <time>2021-10-09 19:48:52</time>
      </trkpt>
      <trkpt lat="40.1173" lon="-1.69681">
        <ele>1260</ele>
        <time>2021-10-09 19:48:53</time>
      </trkpt>
      <trkpt lat="40.11734" lon="-1.69679">
        <ele>1260</ele>
        <time>2021-10-09 19:48:54</time>
      </trkpt>
      <trkpt lat="40.11737" lon="-1.69677">
        <ele>1260.4</ele>
        <time>2021-10-09 19:48:55</time>
      </trkpt>
      <trkpt lat="40.11741" lon="-1.69675">
        <ele>1260.4</ele>
        <time>2021-10-09 19:48:56</time>
      </trkpt>
      <trkpt lat="40.11744" lon="-1.69673">
        <ele>1260.6</ele>
        <time>2021-10-09 19:48:57</time>
      </trkpt>
      <trkpt lat="40.11748" lon="-1.69671">
        <ele>1260.6</ele>
        <time>2021-10-09 19:48:58</time>
      </trkpt>
      <trkpt lat="40.11752" lon="-1.69669">
        <ele>1260.6</ele>
        <time>2021-10-09 19:48:59</time>
      </trkpt>
      <trkpt lat="40.11755" lon="-1.69668">
        <ele>1261</ele>
        <time>2021-10-09 19:49:00</time>
      </trkpt>
      <trkpt lat="40.11759" lon="-1.69666">
        <ele>1261</ele>
        <time>2021-10-09 19:49:01</time>
      </trkpt>
      <trkpt lat="40.11762" lon="-1.69664">
        <ele>1261.2</ele>
        <time>2021-10-09 19:49:02</time>
      </trkpt>
      <trkpt lat="40.11765" lon="-1.69663">
        <ele>1261.2</ele>
        <time>2021-10-09 19:49:03</time>
      </trkpt>
      <trkpt lat="40.11769" lon="-1.69661">
        <ele>1261.6</ele>
        <time>2021-10-09 19:49:04</time>
      </trkpt>
      <trkpt lat="40.11772" lon="-1.6966">
        <ele>1261.6</ele>
        <time>2021-10-09 19:49:05</time>
      </trkpt>
      <trkpt lat="40.11775" lon="-1.69659">
        <ele>1261.8</ele>
        <time>2021-10-09 19:49:06</time>
      </trkpt>
      <trkpt lat="40.11779" lon="-1.69658">
        <ele>1261.8</ele>
        <time>2021-10-09 19:49:07</time>
      </trkpt>
      <trkpt lat="40.11782" lon="-1.69657">
        <ele>1262.2</ele>
        <time>2021-10-09 19:49:08</time>
      </trkpt>
      <trkpt lat="40.11785" lon="-1.69656">
        <ele>1262.2</ele>
        <time>2021-10-09 19:49:09</time>
      </trkpt>
      <trkpt lat="40.11788" lon="-1.69655">
        <ele>1262.4</ele>
        <time>2021-10-09 19:49:10</time>
      </trkpt>
      <trkpt lat="40.11791" lon="-1.69654">
        <ele>1262.4</ele>
        <time>2021-10-09 19:49:11</time>
      </trkpt>
      <trkpt lat="40.11793" lon="-1.69653">
        <ele>1262.8</ele>
        <time>2021-10-09 19:49:12</time>
      </trkpt>
      <trkpt lat="40.11796" lon="-1.69652">
        <ele>1262.8</ele>
        <time>2021-10-09 19:49:13</time>
      </trkpt>
      <trkpt lat="40.11799" lon="-1.69652">
        <ele>1263</ele>
        <time>2021-10-09 19:49:14</time>
      </trkpt>
      <trkpt lat="40.11802" lon="-1.69651">
        <ele>1263</ele>
        <time>2021-10-09 19:49:15</time>
      </trkpt>
      <trkpt lat="40.11805" lon="-1.6965">
        <ele>1263</ele>
        <time>2021-10-09 19:49:16</time>
      </trkpt>
      <trkpt lat="40.11808" lon="-1.69649">
        <ele>1263.4</ele>
        <time>2021-10-09 19:49:17</time>
      </trkpt>
      <trkpt lat="40.11811" lon="-1.69648">
        <ele>1263.4</ele>
        <time>2021-10-09 19:49:18</time>
      </trkpt>
      <trkpt lat="40.11815" lon="-1.69648">
        <ele>1263.8</ele>
        <time>2021-10-09 19:49:19</time>
      </trkpt>
      <trkpt lat="40.11818" lon="-1.69647">
        <ele>1264</ele>
        <time>2021-10-09 19:49:20</time>
      </trkpt>
      <trkpt lat="40.11821" lon="-1.69646">
        <ele>1264</ele>
        <time>2021-10-09 19:49:21</time>
      </trkpt>
      <trkpt lat="40.11824" lon="-1.69646">
        <ele>1264.2</ele>
        <time>2021-10-09 19:49:22</time>
      </trkpt>
      <trkpt lat="40.11827" lon="-1.69646">
        <ele>1264.2</ele>
        <time>2021-10-09 19:49:23</time>
      </trkpt>
      <trkpt lat="40.1183" lon="-1.69646">
        <ele>1264.6</ele>
        <time>2021-10-09 19:49:24</time>
      </trkpt>
      <trkpt lat="40.11834" lon="-1.69645">
        <ele>1264.6</ele>
        <time>2021-10-09 19:49:25</time>
      </trkpt>
      <trkpt lat="40.11837" lon="-1.69645">
        <ele>1264.8</ele>
        <time>2021-10-09 19:49:26</time>
      </trkpt>
      <trkpt lat="40.1184" lon="-1.69644">
        <ele>1264.8</ele>
        <time>2021-10-09 19:49:27</time>
      </trkpt>
      <trkpt lat="40.11844" lon="-1.69644">
        <ele>1265.2</ele>
        <time>2021-10-09 19:49:28</time>
      </trkpt>
      <trkpt lat="40.11847" lon="-1.69643">
        <ele>1265.2</ele>
        <time>2021-10-09 19:49:29</time>
      </trkpt>
      <trkpt lat="40.1185" lon="-1.69642">
        <ele>1265.6</ele>
        <time>2021-10-09 19:49:30</time>
      </trkpt>
      <trkpt lat="40.11853" lon="-1.69641">
        <ele>1265.6</ele>
        <time>2021-10-09 19:49:31</time>
      </trkpt>
      <trkpt lat="40.11857" lon="-1.69641">
        <ele>1265.8</ele>
        <time>2021-10-09 19:49:32</time>
      </trkpt>
      <trkpt lat="40.1186" lon="-1.6964">
        <ele>1265.8</ele>
        <time>2021-10-09 19:49:33</time>
      </trkpt>
      <trkpt lat="40.11863" lon="-1.69641">
        <ele>1266.2</ele>
        <time>2021-10-09 19:49:34</time>
      </trkpt>
      <trkpt lat="40.11866" lon="-1.69641">
        <ele>1266.2</ele>
        <time>2021-10-09 19:49:35</time>
      </trkpt>
      <trkpt lat="40.11869" lon="-1.69641">
        <ele>1266.6</ele>
        <time>2021-10-09 19:49:36</time>
      </trkpt>
      <trkpt lat="40.11872" lon="-1.6964">
        <ele>1266.6</ele>
        <time>2021-10-09 19:49:37</time>
      </trkpt>
      <trkpt lat="40.11875" lon="-1.6964">
        <ele>1267</ele>
        <time>2021-10-09 19:49:38</time>
      </trkpt>
      <trkpt lat="40.11879" lon="-1.6964">
        <ele>1267</ele>
        <time>2021-10-09 19:49:39</time>
      </trkpt>
      <trkpt lat="40.11882" lon="-1.6964">
        <ele>1267.4</ele>
        <time>2021-10-09 19:49:40</time>
      </trkpt>
      <trkpt lat="40.11882" lon="-1.6964">
        <ele>1267.6</ele>
        <time>2021-10-09 19:49:41</time>
      </trkpt>
      <trkpt lat="40.11885" lon="-1.69639">
        <ele>1267.6</ele>
        <time>2021-10-09 19:49:42</time>
      </trkpt>
      <trkpt lat="40.11888" lon="-1.69638">
        <ele>1268</ele>
        <time>2021-10-09 19:49:43</time>
      </trkpt>
      <trkpt lat="40.11891" lon="-1.69637">
        <ele>1268</ele>
        <time>2021-10-09 19:49:44</time>
      </trkpt>
      <trkpt lat="40.11895" lon="-1.69637">
        <ele>1268.2</ele>
        <time>2021-10-09 19:49:45</time>
      </trkpt>
      <trkpt lat="40.11898" lon="-1.69636">
        <ele>1268.2</ele>
        <time>2021-10-09 19:49:46</time>
      </trkpt>
      <trkpt lat="40.11901" lon="-1.69636">
        <ele>1268.6</ele>
        <time>2021-10-09 19:49:47</time>
      </trkpt>
      <trkpt lat="40.11905" lon="-1.69636">
        <ele>1268.6</ele>
        <time>2021-10-09 19:49:48</time>
      </trkpt>
      <trkpt lat="40.11908" lon="-1.69635">
        <ele>1269</ele>
        <time>2021-10-09 19:49:49</time>
      </trkpt>
      <trkpt lat="40.11911" lon="-1.69635">
        <ele>1269.2</ele>
        <time>2021-10-09 19:49:50</time>
      </trkpt>
      <trkpt lat="40.11914" lon="-1.69635">
        <ele>1269.4</ele>
        <time>2021-10-09 19:49:51</time>
      </trkpt>
      <trkpt lat="40.11917" lon="-1.69635">
        <ele>1269.4</ele>
        <time>2021-10-09 19:49:52</time>
      </trkpt>
      <trkpt lat="40.11921" lon="-1.69634">
        <ele>1269.8</ele>
        <time>2021-10-09 19:49:53</time>
      </trkpt>
      <trkpt lat="40.11923" lon="-1.69632">
        <ele>1270</ele>
        <time>2021-10-09 19:49:54</time>
      </trkpt>
      <trkpt lat="40.11926" lon="-1.69631">
        <ele>1270.2</ele>
        <time>2021-10-09 19:49:55</time>
      </trkpt>
      <trkpt lat="40.1193" lon="-1.6963">
        <ele>1270.2</ele>
        <time>2021-10-09 19:49:56</time>
      </trkpt>
      <trkpt lat="40.11933" lon="-1.69629">
        <ele>1270.6</ele>
        <time>2021-10-09 19:49:57</time>
      </trkpt>
      <trkpt lat="40.11936" lon="-1.69629">
        <ele>1270.6</ele>
        <time>2021-10-09 19:49:58</time>
      </trkpt>
      <trkpt lat="40.1194" lon="-1.69628">
        <ele>1271</ele>
        <time>2021-10-09 19:49:59</time>
      </trkpt>
      <trkpt lat="40.11943" lon="-1.69628">
        <ele>1271</ele>
        <time>2021-10-09 19:50:00</time>
      </trkpt>
      <trkpt lat="40.11946" lon="-1.69628">
        <ele>1271.2</ele>
        <time>2021-10-09 19:50:01</time>
      </trkpt>
      <trkpt lat="40.11949" lon="-1.69627">
        <ele>1271.2</ele>
        <time>2021-10-09 19:50:02</time>
      </trkpt>
      <trkpt lat="40.11952" lon="-1.69627">
        <ele>1271.6</ele>
        <time>2021-10-09 19:50:03</time>
      </trkpt>
      <trkpt lat="40.11955" lon="-1.69626">
        <ele>1271.6</ele>
        <time>2021-10-09 19:50:04</time>
      </trkpt>
      <trkpt lat="40.11958" lon="-1.69626">
        <ele>1272</ele>
        <time>2021-10-09 19:50:05</time>
      </trkpt>
      <trkpt lat="40.11961" lon="-1.69625">
        <ele>1272</ele>
        <time>2021-10-09 19:50:06</time>
      </trkpt>
      <trkpt lat="40.11964" lon="-1.69624">
        <ele>1272.2</ele>
        <time>2021-10-09 19:50:07</time>
      </trkpt>
      <trkpt lat="40.11967" lon="-1.69624">
        <ele>1272.2</ele>
        <time>2021-10-09 19:50:08</time>
      </trkpt>
      <trkpt lat="40.1197" lon="-1.69623">
        <ele>1272.6</ele>
        <time>2021-10-09 19:50:09</time>
      </trkpt>
      <trkpt lat="40.11973" lon="-1.69622">
        <ele>1272.6</ele>
        <time>2021-10-09 19:50:10</time>
      </trkpt>
      <trkpt lat="40.11976" lon="-1.69621">
        <ele>1273</ele>
        <time>2021-10-09 19:50:11</time>
      </trkpt>
      <trkpt lat="40.1198" lon="-1.69621">
        <ele>1273</ele>
        <time>2021-10-09 19:50:12</time>
      </trkpt>
      <trkpt lat="40.11983" lon="-1.6962">
        <ele>1273.4</ele>
        <time>2021-10-09 19:50:13</time>
      </trkpt>
      <trkpt lat="40.11986" lon="-1.6962">
        <ele>1273.4</ele>
        <time>2021-10-09 19:50:14</time>
      </trkpt>
      <trkpt lat="40.1199" lon="-1.69619">
        <ele>1273.8</ele>
        <time>2021-10-09 19:50:15</time>
      </trkpt>
      <trkpt lat="40.11993" lon="-1.69619">
        <ele>1273.8</ele>
        <time>2021-10-09 19:50:16</time>
      </trkpt>
      <trkpt lat="40.11996" lon="-1.69618">
        <ele>1274</ele>
        <time>2021-10-09 19:50:17</time>
      </trkpt>
      <trkpt lat="40.11999" lon="-1.69617">
        <ele>1274</ele>
        <time>2021-10-09 19:50:18</time>
      </trkpt>
      <trkpt lat="40.12002" lon="-1.69617">
        <ele>1274.4</ele>
        <time>2021-10-09 19:50:19</time>
      </trkpt>
      <trkpt lat="40.12005" lon="-1.69615">
        <ele>1274.4</ele>
        <time>2021-10-09 19:50:20</time>
      </trkpt>
      <trkpt lat="40.12008" lon="-1.69614">
        <ele>1274.6</ele>
        <time>2021-10-09 19:50:21</time>
      </trkpt>
      <trkpt lat="40.12012" lon="-1.69613">
        <ele>1275</ele>
        <time>2021-10-09 19:50:22</time>
      </trkpt>
      <trkpt lat="40.12015" lon="-1.69613">
        <ele>1275</ele>
        <time>2021-10-09 19:50:23</time>
      </trkpt>
      <trkpt lat="40.12019" lon="-1.69612">
        <ele>1275.2</ele>
        <time>2021-10-09 19:50:24</time>
      </trkpt>
      <trkpt lat="40.12022" lon="-1.69611">
        <ele>1275.4</ele>
        <time>2021-10-09 19:50:25</time>
      </trkpt>
      <trkpt lat="40.12025" lon="-1.69611">
        <ele>1275.4</ele>
        <time>2021-10-09 19:50:26</time>
      </trkpt>
      <trkpt lat="40.12028" lon="-1.6961">
        <ele>1275.8</ele>
        <time>2021-10-09 19:50:27</time>
      </trkpt>
      <trkpt lat="40.12031" lon="-1.69609">
        <ele>1275.8</ele>
        <time>2021-10-09 19:50:28</time>
      </trkpt>
      <trkpt lat="40.12034" lon="-1.69608">
        <ele>1276.2</ele>
        <time>2021-10-09 19:50:29</time>
      </trkpt>
      <trkpt lat="40.12037" lon="-1.69607">
        <ele>1276.2</ele>
        <time>2021-10-09 19:50:30</time>
      </trkpt>
      <trkpt lat="40.1204" lon="-1.69606">
        <ele>1276.4</ele>
        <time>2021-10-09 19:50:31</time>
      </trkpt>
      <trkpt lat="40.12043" lon="-1.69605">
        <ele>1276.4</ele>
        <time>2021-10-09 19:50:32</time>
      </trkpt>
      <trkpt lat="40.12046" lon="-1.69605">
        <ele>1276.8</ele>
        <time>2021-10-09 19:50:33</time>
      </trkpt>
      <trkpt lat="40.1205" lon="-1.69605">
        <ele>1277</ele>
        <time>2021-10-09 19:50:34</time>
      </trkpt>
      <trkpt lat="40.12053" lon="-1.69604">
        <ele>1277</ele>
        <time>2021-10-09 19:50:35</time>
      </trkpt>
      <trkpt lat="40.12056" lon="-1.69604">
        <ele>1277.4</ele>
        <time>2021-10-09 19:50:36</time>
      </trkpt>
      <trkpt lat="40.1206" lon="-1.69603">
        <ele>1277.4</ele>
        <time>2021-10-09 19:50:37</time>
      </trkpt>
      <trkpt lat="40.12063" lon="-1.69602">
        <ele>1277.8</ele>
        <time>2021-10-09 19:50:38</time>
      </trkpt>
      <trkpt lat="40.12066" lon="-1.69601">
        <ele>1278</ele>
        <time>2021-10-09 19:50:39</time>
      </trkpt>
      <trkpt lat="40.1207" lon="-1.69601">
        <ele>1278.2</ele>
        <time>2021-10-09 19:50:40</time>
      </trkpt>
      <trkpt lat="40.12073" lon="-1.696">
        <ele>1278.2</ele>
        <time>2021-10-09 19:50:41</time>
      </trkpt>
      <trkpt lat="40.12076" lon="-1.69599">
        <ele>1278.6</ele>
        <time>2021-10-09 19:50:42</time>
      </trkpt>
      <trkpt lat="40.1208" lon="-1.69598">
        <ele>1278.6</ele>
        <time>2021-10-09 19:50:43</time>
      </trkpt>
      <trkpt lat="40.12083" lon="-1.69597">
        <ele>1279</ele>
        <time>2021-10-09 19:50:44</time>
      </trkpt>
      <trkpt lat="40.12086" lon="-1.69595">
        <ele>1279</ele>
        <time>2021-10-09 19:50:45</time>
      </trkpt>
      <trkpt lat="40.12089" lon="-1.69594">
        <ele>1279.2</ele>
        <time>2021-10-09 19:50:46</time>
      </trkpt>
      <trkpt lat="40.12092" lon="-1.69594">
        <ele>1279.4</ele>
        <time>2021-10-09 19:50:47</time>
      </trkpt>
      <trkpt lat="40.12096" lon="-1.69593">
        <ele>1279.4</ele>
        <time>2021-10-09 19:50:48</time>
      </trkpt>
      <trkpt lat="40.12099" lon="-1.69593">
        <ele>1279.8</ele>
        <time>2021-10-09 19:50:49</time>
      </trkpt>
      <trkpt lat="40.12102" lon="-1.69592">
        <ele>1279.8</ele>
        <time>2021-10-09 19:50:50</time>
      </trkpt>
      <trkpt lat="40.12105" lon="-1.69591">
        <ele>1280.2</ele>
        <time>2021-10-09 19:50:51</time>
      </trkpt>
      <trkpt lat="40.12108" lon="-1.69589">
        <ele>1280.4</ele>
        <time>2021-10-09 19:50:52</time>
      </trkpt>
      <trkpt lat="40.12111" lon="-1.69588">
        <ele>1280.4</ele>
        <time>2021-10-09 19:50:53</time>
      </trkpt>
      <trkpt lat="40.12114" lon="-1.69586">
        <ele>1280.8</ele>
        <time>2021-10-09 19:50:54</time>
      </trkpt>
      <trkpt lat="40.12117" lon="-1.69585">
        <ele>1281</ele>
        <time>2021-10-09 19:50:55</time>
      </trkpt>
      <trkpt lat="40.12119" lon="-1.69584">
        <ele>1281</ele>
        <time>2021-10-09 19:50:56</time>
      </trkpt>
      <trkpt lat="40.12122" lon="-1.69582">
        <ele>1281.4</ele>
        <time>2021-10-09 19:50:57</time>
      </trkpt>
      <trkpt lat="40.12125" lon="-1.69581">
        <ele>1281.4</ele>
        <time>2021-10-09 19:50:58</time>
      </trkpt>
      <trkpt lat="40.12127" lon="-1.69579">
        <ele>1281.6</ele>
        <time>2021-10-09 19:50:59</time>
      </trkpt>
      <trkpt lat="40.1213" lon="-1.69578">
        <ele>1281.6</ele>
        <time>2021-10-09 19:51:00</time>
      </trkpt>
      <trkpt lat="40.12133" lon="-1.69576">
        <ele>1281.8</ele>
        <time>2021-10-09 19:51:01</time>
      </trkpt>
      <trkpt lat="40.12136" lon="-1.69574">
        <ele>1281.8</ele>
        <time>2021-10-09 19:51:02</time>
      </trkpt>
      <trkpt lat="40.12138" lon="-1.69572">
        <ele>1282</ele>
        <time>2021-10-09 19:51:03</time>
      </trkpt>
      <trkpt lat="40.12141" lon="-1.6957">
        <ele>1282</ele>
        <time>2021-10-09 19:51:04</time>
      </trkpt>
      <trkpt lat="40.12144" lon="-1.69568">
        <ele>1282.4</ele>
        <time>2021-10-09 19:51:05</time>
      </trkpt>
      <trkpt lat="40.12146" lon="-1.69566">
        <ele>1282.4</ele>
        <time>2021-10-09 19:51:06</time>
      </trkpt>
      <trkpt lat="40.12149" lon="-1.69564">
        <ele>1282.4</ele>
        <time>2021-10-09 19:51:07</time>
      </trkpt>
      <trkpt lat="40.12152" lon="-1.69562">
        <ele>1282.6</ele>
        <time>2021-10-09 19:51:08</time>
      </trkpt>
      <trkpt lat="40.12154" lon="-1.69559">
        <ele>1282.6</ele>
        <time>2021-10-09 19:51:09</time>
      </trkpt>
      <trkpt lat="40.12157" lon="-1.69557">
        <ele>1283</ele>
        <time>2021-10-09 19:51:10</time>
      </trkpt>
      <trkpt lat="40.1216" lon="-1.69554">
        <ele>1283</ele>
        <time>2021-10-09 19:51:11</time>
      </trkpt>
      <trkpt lat="40.12162" lon="-1.69552">
        <ele>1283.2</ele>
        <time>2021-10-09 19:51:12</time>
      </trkpt>
      <trkpt lat="40.12165" lon="-1.69549">
        <ele>1283.2</ele>
        <time>2021-10-09 19:51:13</time>
      </trkpt>
      <trkpt lat="40.12168" lon="-1.69546">
        <ele>1283.4</ele>
        <time>2021-10-09 19:51:14</time>
      </trkpt>
      <trkpt lat="40.1217" lon="-1.69543">
        <ele>1283.4</ele>
        <time>2021-10-09 19:51:15</time>
      </trkpt>
      <trkpt lat="40.12173" lon="-1.6954">
        <ele>1283.8</ele>
        <time>2021-10-09 19:51:16</time>
      </trkpt>
      <trkpt lat="40.12176" lon="-1.69537">
        <ele>1283.8</ele>
        <time>2021-10-09 19:51:17</time>
      </trkpt>
      <trkpt lat="40.12179" lon="-1.69533">
        <ele>1283.8</ele>
        <time>2021-10-09 19:51:18</time>
      </trkpt>
      <trkpt lat="40.12182" lon="-1.6953">
        <ele>1284</ele>
        <time>2021-10-09 19:51:19</time>
      </trkpt>
      <trkpt lat="40.12185" lon="-1.69527">
        <ele>1284</ele>
        <time>2021-10-09 19:51:20</time>
      </trkpt>
      <trkpt lat="40.12187" lon="-1.69524">
        <ele>1284</ele>
        <time>2021-10-09 19:51:21</time>
      </trkpt>
      <trkpt lat="40.1219" lon="-1.69521">
        <ele>1284.2</ele>
        <time>2021-10-09 19:51:22</time>
      </trkpt>
      <trkpt lat="40.12193" lon="-1.69517">
        <ele>1284.2</ele>
        <time>2021-10-09 19:51:23</time>
      </trkpt>
      <trkpt lat="40.12196" lon="-1.69514">
        <ele>1284.2</ele>
        <time>2021-10-09 19:51:24</time>
      </trkpt>
      <trkpt lat="40.12199" lon="-1.6951">
        <ele>1284.4</ele>
        <time>2021-10-09 19:51:25</time>
      </trkpt>
      <trkpt lat="40.12202" lon="-1.69507">
        <ele>1284.4</ele>
        <time>2021-10-09 19:51:26</time>
      </trkpt>
      <trkpt lat="40.12205" lon="-1.69503">
        <ele>1284.4</ele>
        <time>2021-10-09 19:51:27</time>
      </trkpt>
      <trkpt lat="40.12208" lon="-1.69499">
        <ele>1284.8</ele>
        <time>2021-10-09 19:51:28</time>
      </trkpt>
      <trkpt lat="40.12211" lon="-1.69495">
        <ele>1284.8</ele>
        <time>2021-10-09 19:51:29</time>
      </trkpt>
      <trkpt lat="40.12214" lon="-1.69492">
        <ele>1284.8</ele>
        <time>2021-10-09 19:51:30</time>
      </trkpt>
      <trkpt lat="40.12218" lon="-1.69488">
        <ele>1284.8</ele>
        <time>2021-10-09 19:51:31</time>
      </trkpt>
      <trkpt lat="40.12221" lon="-1.69485">
        <ele>1284.8</ele>
        <time>2021-10-09 19:51:32</time>
      </trkpt>
      <trkpt lat="40.12225" lon="-1.69481">
        <ele>1284.8</ele>
        <time>2021-10-09 19:51:33</time>
      </trkpt>
      <trkpt lat="40.12228" lon="-1.69478">
        <ele>1284.8</ele>
        <time>2021-10-09 19:51:34</time>
      </trkpt>
      <trkpt lat="40.12231" lon="-1.69474">
        <ele>1284.8</ele>
        <time>2021-10-09 19:51:35</time>
      </trkpt>
      <trkpt lat="40.12235" lon="-1.69471">
        <ele>1284.8</ele>
        <time>2021-10-09 19:51:36</time>
      </trkpt>
      <trkpt lat="40.1224" lon="-1.69468">
        <ele>1284.8</ele>
        <time>2021-10-09 19:51:37</time>
      </trkpt>
      <trkpt lat="40.12244" lon="-1.69466">
        <ele>1284.8</ele>
        <time>2021-10-09 19:51:38</time>
      </trkpt>
      <trkpt lat="40.12248" lon="-1.69463">
        <ele>1284.8</ele>
        <time>2021-10-09 19:51:39</time>
      </trkpt>
      <trkpt lat="40.12252" lon="-1.6946">
        <ele>1284.8</ele>
        <time>2021-10-09 19:51:40</time>
      </trkpt>
      <trkpt lat="40.12256" lon="-1.69457">
        <ele>1284.8</ele>
        <time>2021-10-09 19:51:41</time>
      </trkpt>
      <trkpt lat="40.1226" lon="-1.69455">
        <ele>1284.8</ele>
        <time>2021-10-09 19:51:42</time>
      </trkpt>
      <trkpt lat="40.12264" lon="-1.69452">
        <ele>1284.8</ele>
        <time>2021-10-09 19:51:43</time>
      </trkpt>
      <trkpt lat="40.12268" lon="-1.6945">
        <ele>1284.8</ele>
        <time>2021-10-09 19:51:44</time>
      </trkpt>
      <trkpt lat="40.12273" lon="-1.69449">
        <ele>1284.8</ele>
        <time>2021-10-09 19:51:45</time>
      </trkpt>
      <trkpt lat="40.12277" lon="-1.69447">
        <ele>1284.8</ele>
        <time>2021-10-09 19:51:46</time>
      </trkpt>
      <trkpt lat="40.12282" lon="-1.69446">
        <ele>1284.8</ele>
        <time>2021-10-09 19:51:47</time>
      </trkpt>
      <trkpt lat="40.12286" lon="-1.69445">
        <ele>1284.8</ele>
        <time>2021-10-09 19:51:48</time>
      </trkpt>
      <trkpt lat="40.12291" lon="-1.69443">
        <ele>1284.8</ele>
        <time>2021-10-09 19:51:49</time>
      </trkpt>
      <trkpt lat="40.12295" lon="-1.69443">
        <ele>1284.8</ele>
        <time>2021-10-09 19:51:50</time>
      </trkpt>
      <trkpt lat="40.123" lon="-1.69442">
        <ele>1285</ele>
        <time>2021-10-09 19:51:51</time>
      </trkpt>
      <trkpt lat="40.12304" lon="-1.69441">
        <ele>1285</ele>
        <time>2021-10-09 19:51:52</time>
      </trkpt>
      <trkpt lat="40.12309" lon="-1.6944">
        <ele>1285</ele>
        <time>2021-10-09 19:51:53</time>
      </trkpt>
      <trkpt lat="40.12313" lon="-1.6944">
        <ele>1285.2</ele>
        <time>2021-10-09 19:51:54</time>
      </trkpt>
      <trkpt lat="40.12317" lon="-1.6944">
        <ele>1285.2</ele>
        <time>2021-10-09 19:51:55</time>
      </trkpt>
      <trkpt lat="40.12321" lon="-1.6944">
        <ele>1285.4</ele>
        <time>2021-10-09 19:51:56</time>
      </trkpt>
      <trkpt lat="40.12325" lon="-1.6944">
        <ele>1285.4</ele>
        <time>2021-10-09 19:51:57</time>
      </trkpt>
      <trkpt lat="40.12329" lon="-1.6944">
        <ele>1285.8</ele>
        <time>2021-10-09 19:51:58</time>
      </trkpt>
      <trkpt lat="40.12333" lon="-1.6944">
        <ele>1285.8</ele>
        <time>2021-10-09 19:51:59</time>
      </trkpt>
      <trkpt lat="40.12337" lon="-1.6944">
        <ele>1286</ele>
        <time>2021-10-09 19:52:00</time>
      </trkpt>
      <trkpt lat="40.12341" lon="-1.6944">
        <ele>1286</ele>
        <time>2021-10-09 19:52:01</time>
      </trkpt>
      <trkpt lat="40.12345" lon="-1.69441">
        <ele>1286</ele>
        <time>2021-10-09 19:52:02</time>
      </trkpt>
      <trkpt lat="40.12348" lon="-1.69442">
        <ele>1286.4</ele>
        <time>2021-10-09 19:52:03</time>
      </trkpt>
      <trkpt lat="40.12351" lon="-1.69443">
        <ele>1286.4</ele>
        <time>2021-10-09 19:52:04</time>
      </trkpt>
      <trkpt lat="40.12355" lon="-1.69443">
        <ele>1286.8</ele>
        <time>2021-10-09 19:52:05</time>
      </trkpt>
      <trkpt lat="40.12358" lon="-1.69444">
        <ele>1286.8</ele>
        <time>2021-10-09 19:52:06</time>
      </trkpt>
      <trkpt lat="40.12361" lon="-1.69445">
        <ele>1287.2</ele>
        <time>2021-10-09 19:52:07</time>
      </trkpt>
      <trkpt lat="40.12364" lon="-1.69446">
        <ele>1287.2</ele>
        <time>2021-10-09 19:52:08</time>
      </trkpt>
      <trkpt lat="40.12368" lon="-1.69448">
        <ele>1287.6</ele>
        <time>2021-10-09 19:52:09</time>
      </trkpt>
      <trkpt lat="40.12372" lon="-1.69449">
        <ele>1287.8</ele>
        <time>2021-10-09 19:52:10</time>
      </trkpt>
      <trkpt lat="40.12375" lon="-1.6945">
        <ele>1288</ele>
        <time>2021-10-09 19:52:11</time>
      </trkpt>
      <trkpt lat="40.12378" lon="-1.69451">
        <ele>1288</ele>
        <time>2021-10-09 19:52:12</time>
      </trkpt>
      <trkpt lat="40.12381" lon="-1.69452">
        <ele>1288.4</ele>
        <time>2021-10-09 19:52:13</time>
      </trkpt>
      <trkpt lat="40.12384" lon="-1.69454">
        <ele>1288.6</ele>
        <time>2021-10-09 19:52:14</time>
      </trkpt>
      <trkpt lat="40.12387" lon="-1.69455">
        <ele>1288.8</ele>
        <time>2021-10-09 19:52:15</time>
      </trkpt>
      <trkpt lat="40.1239" lon="-1.69457">
        <ele>1289</ele>
        <time>2021-10-09 19:52:16</time>
      </trkpt>
      <trkpt lat="40.12393" lon="-1.69459">
        <ele>1289</ele>
        <time>2021-10-09 19:52:17</time>
      </trkpt>
      <trkpt lat="40.12396" lon="-1.69461">
        <ele>1289.4</ele>
        <time>2021-10-09 19:52:18</time>
      </trkpt>
      <trkpt lat="40.12398" lon="-1.69463">
        <ele>1289.4</ele>
        <time>2021-10-09 19:52:19</time>
      </trkpt>
      <trkpt lat="40.12401" lon="-1.69465">
        <ele>1289.8</ele>
        <time>2021-10-09 19:52:20</time>
      </trkpt>
      <trkpt lat="40.12404" lon="-1.69467">
        <ele>1289.8</ele>
        <time>2021-10-09 19:52:21</time>
      </trkpt>
      <trkpt lat="40.12407" lon="-1.69469">
        <ele>1290.2</ele>
        <time>2021-10-09 19:52:22</time>
      </trkpt>
      <trkpt lat="40.12409" lon="-1.69472">
        <ele>1290.2</ele>
        <time>2021-10-09 19:52:23</time>
      </trkpt>
      <trkpt lat="40.12412" lon="-1.69474">
        <ele>1290.4</ele>
        <time>2021-10-09 19:52:24</time>
      </trkpt>
      <trkpt lat="40.12414" lon="-1.69476">
        <ele>1290.4</ele>
        <time>2021-10-09 19:52:25</time>
      </trkpt>
      <trkpt lat="40.12417" lon="-1.69479">
        <ele>1290.8</ele>
        <time>2021-10-09 19:52:26</time>
      </trkpt>
      <trkpt lat="40.1242" lon="-1.69481">
        <ele>1290.8</ele>
        <time>2021-10-09 19:52:27</time>
      </trkpt>
      <trkpt lat="40.12422" lon="-1.69484">
        <ele>1291.2</ele>
        <time>2021-10-09 19:52:28</time>
      </trkpt>
      <trkpt lat="40.12425" lon="-1.69486">
        <ele>1291.2</ele>
        <time>2021-10-09 19:52:29</time>
      </trkpt>
      <trkpt lat="40.12427" lon="-1.69489">
        <ele>1291.6</ele>
        <time>2021-10-09 19:52:30</time>
      </trkpt>
      <trkpt lat="40.1243" lon="-1.69492">
        <ele>1291.8</ele>
        <time>2021-10-09 19:52:31</time>
      </trkpt>
      <trkpt lat="40.12433" lon="-1.69494">
        <ele>1291.8</ele>
        <time>2021-10-09 19:52:32</time>
      </trkpt>
      <trkpt lat="40.12435" lon="-1.69497">
        <ele>1292</ele>
        <time>2021-10-09 19:52:33</time>
      </trkpt>
      <trkpt lat="40.12438" lon="-1.695">
        <ele>1292</ele>
        <time>2021-10-09 19:52:34</time>
      </trkpt>
      <trkpt lat="40.1244" lon="-1.69502">
        <ele>1292.6</ele>
        <time>2021-10-09 19:52:35</time>
      </trkpt>
      <trkpt lat="40.12443" lon="-1.69505">
        <ele>1292.6</ele>
        <time>2021-10-09 19:52:36</time>
      </trkpt>
      <trkpt lat="40.12445" lon="-1.69508">
        <ele>1292.8</ele>
        <time>2021-10-09 19:52:37</time>
      </trkpt>
      <trkpt lat="40.12448" lon="-1.69511">
        <ele>1293.2</ele>
        <time>2021-10-09 19:52:38</time>
      </trkpt>
      <trkpt lat="40.12451" lon="-1.69514">
        <ele>1293.2</ele>
        <time>2021-10-09 19:52:39</time>
      </trkpt>
      <trkpt lat="40.12453" lon="-1.69517">
        <ele>1293.4</ele>
        <time>2021-10-09 19:52:40</time>
      </trkpt>
      <trkpt lat="40.12456" lon="-1.6952">
        <ele>1293.6</ele>
        <time>2021-10-09 19:52:41</time>
      </trkpt>
      <trkpt lat="40.12459" lon="-1.69522">
        <ele>1293.8</ele>
        <time>2021-10-09 19:52:42</time>
      </trkpt>
      <trkpt lat="40.12461" lon="-1.69525">
        <ele>1294</ele>
        <time>2021-10-09 19:52:43</time>
      </trkpt>
      <trkpt lat="40.12464" lon="-1.69528">
        <ele>1294.2</ele>
        <time>2021-10-09 19:52:44</time>
      </trkpt>
      <trkpt lat="40.12467" lon="-1.69531">
        <ele>1294.2</ele>
        <time>2021-10-09 19:52:45</time>
      </trkpt>
      <trkpt lat="40.12469" lon="-1.69534">
        <ele>1294.6</ele>
        <time>2021-10-09 19:52:46</time>
      </trkpt>
      <trkpt lat="40.12472" lon="-1.69537">
        <ele>1294.8</ele>
        <time>2021-10-09 19:52:47</time>
      </trkpt>
      <trkpt lat="40.12475" lon="-1.6954">
        <ele>1294.8</ele>
        <time>2021-10-09 19:52:48</time>
      </trkpt>
      <trkpt lat="40.12477" lon="-1.69542">
        <ele>1295.4</ele>
        <time>2021-10-09 19:52:49</time>
      </trkpt>
      <trkpt lat="40.12479" lon="-1.69545">
        <ele>1295.6</ele>
        <time>2021-10-09 19:52:50</time>
      </trkpt>
      <trkpt lat="40.12482" lon="-1.69548">
        <ele>1295.8</ele>
        <time>2021-10-09 19:52:51</time>
      </trkpt>
      <trkpt lat="40.12484" lon="-1.69551">
        <ele>1296</ele>
        <time>2021-10-09 19:52:52</time>
      </trkpt>
      <trkpt lat="40.12487" lon="-1.69554">
        <ele>1296.4</ele>
        <time>2021-10-09 19:52:53</time>
      </trkpt>
      <trkpt lat="40.1249" lon="-1.69557">
        <ele>1296.6</ele>
        <time>2021-10-09 19:52:54</time>
      </trkpt>
      <trkpt lat="40.12492" lon="-1.69559">
        <ele>1297</ele>
        <time>2021-10-09 19:52:55</time>
      </trkpt>
      <trkpt lat="40.12495" lon="-1.69562">
        <ele>1297.2</ele>
        <time>2021-10-09 19:52:56</time>
      </trkpt>
      <trkpt lat="40.12498" lon="-1.69565">
        <ele>1297.4</ele>
        <time>2021-10-09 19:52:57</time>
      </trkpt>
      <trkpt lat="40.125" lon="-1.69569">
        <ele>1297.8</ele>
        <time>2021-10-09 19:52:58</time>
      </trkpt>
      <trkpt lat="40.12503" lon="-1.69572">
        <ele>1298</ele>
        <time>2021-10-09 19:52:59</time>
      </trkpt>
      <trkpt lat="40.12506" lon="-1.69574">
        <ele>1298.2</ele>
        <time>2021-10-09 19:53:00</time>
      </trkpt>
      <trkpt lat="40.12508" lon="-1.69577">
        <ele>1298.4</ele>
        <time>2021-10-09 19:53:01</time>
      </trkpt>
      <trkpt lat="40.12511" lon="-1.6958">
        <ele>1298.8</ele>
        <time>2021-10-09 19:53:02</time>
      </trkpt>
      <trkpt lat="40.12513" lon="-1.69583">
        <ele>1299.2</ele>
        <time>2021-10-09 19:53:03</time>
      </trkpt>
      <trkpt lat="40.12516" lon="-1.69586">
        <ele>1299.4</ele>
        <time>2021-10-09 19:53:04</time>
      </trkpt>
      <trkpt lat="40.12518" lon="-1.69589">
        <ele>1299.8</ele>
        <time>2021-10-09 19:53:05</time>
      </trkpt>
      <trkpt lat="40.12521" lon="-1.69592">
        <ele>1300</ele>
        <time>2021-10-09 19:53:06</time>
      </trkpt>
      <trkpt lat="40.12524" lon="-1.69595">
        <ele>1300.4</ele>
        <time>2021-10-09 19:53:07</time>
      </trkpt>
      <trkpt lat="40.12526" lon="-1.69598">
        <ele>1300.8</ele>
        <time>2021-10-09 19:53:08</time>
      </trkpt>
      <trkpt lat="40.12529" lon="-1.69601">
        <ele>1301</ele>
        <time>2021-10-09 19:53:09</time>
      </trkpt>
      <trkpt lat="40.12532" lon="-1.69604">
        <ele>1301.2</ele>
        <time>2021-10-09 19:53:10</time>
      </trkpt>
      <trkpt lat="40.12534" lon="-1.69607">
        <ele>1301.6</ele>
        <time>2021-10-09 19:53:11</time>
      </trkpt>
      <trkpt lat="40.12537" lon="-1.69611">
        <ele>1301.8</ele>
        <time>2021-10-09 19:53:12</time>
      </trkpt>
      <trkpt lat="40.1254" lon="-1.69613">
        <ele>1302.2</ele>
        <time>2021-10-09 19:53:13</time>
      </trkpt>
      <trkpt lat="40.12542" lon="-1.69616">
        <ele>1302.4</ele>
        <time>2021-10-09 19:53:14</time>
      </trkpt>
      <trkpt lat="40.12545" lon="-1.69619">
        <ele>1302.8</ele>
        <time>2021-10-09 19:53:15</time>
      </trkpt>
      <trkpt lat="40.12548" lon="-1.69622">
        <ele>1303</ele>
        <time>2021-10-09 19:53:16</time>
      </trkpt>
      <trkpt lat="40.1255" lon="-1.69625">
        <ele>1303.2</ele>
        <time>2021-10-09 19:53:17</time>
      </trkpt>
      <trkpt lat="40.12553" lon="-1.69628">
        <ele>1303.4</ele>
        <time>2021-10-09 19:53:18</time>
      </trkpt>
      <trkpt lat="40.12556" lon="-1.69631">
        <ele>1303.8</ele>
        <time>2021-10-09 19:53:19</time>
      </trkpt>
      <trkpt lat="40.12558" lon="-1.69633">
        <ele>1304</ele>
        <time>2021-10-09 19:53:20</time>
      </trkpt>
      <trkpt lat="40.12561" lon="-1.69636">
        <ele>1304.2</ele>
        <time>2021-10-09 19:53:21</time>
      </trkpt>
      <trkpt lat="40.12563" lon="-1.69639">
        <ele>1304.6</ele>
        <time>2021-10-09 19:53:22</time>
      </trkpt>
      <trkpt lat="40.12566" lon="-1.69642">
        <ele>1304.6</ele>
        <time>2021-10-09 19:53:23</time>
      </trkpt>
      <trkpt lat="40.12568" lon="-1.69645">
        <ele>1305</ele>
        <time>2021-10-09 19:53:24</time>
      </trkpt>
      <trkpt lat="40.12571" lon="-1.69648">
        <ele>1305.2</ele>
        <time>2021-10-09 19:53:25</time>
      </trkpt>
      <trkpt lat="40.12573" lon="-1.69651">
        <ele>1305.6</ele>
        <time>2021-10-09 19:53:26</time>
      </trkpt>
      <trkpt lat="40.12576" lon="-1.69653">
        <ele>1305.8</ele>
        <time>2021-10-09 19:53:27</time>
      </trkpt>
      <trkpt lat="40.12578" lon="-1.69656">
        <ele>1306</ele>
        <time>2021-10-09 19:53:28</time>
      </trkpt>
      <trkpt lat="40.12581" lon="-1.69659">
        <ele>1306.4</ele>
        <time>2021-10-09 19:53:29</time>
      </trkpt>
      <trkpt lat="40.12584" lon="-1.69662">
        <ele>1306.4</ele>
        <time>2021-10-09 19:53:30</time>
      </trkpt>
      <trkpt lat="40.12586" lon="-1.69665">
        <ele>1306.8</ele>
        <time>2021-10-09 19:53:31</time>
      </trkpt>
      <trkpt lat="40.12589" lon="-1.69667">
        <ele>1307</ele>
        <time>2021-10-09 19:53:32</time>
      </trkpt>
      <trkpt lat="40.12591" lon="-1.6967">
        <ele>1307.4</ele>
        <time>2021-10-09 19:53:33</time>
      </trkpt>
      <trkpt lat="40.12594" lon="-1.69673">
        <ele>1307.6</ele>
        <time>2021-10-09 19:53:34</time>
      </trkpt>
      <trkpt lat="40.12596" lon="-1.69676">
        <ele>1307.8</ele>
        <time>2021-10-09 19:53:35</time>
      </trkpt>
      <trkpt lat="40.12599" lon="-1.69678">
        <ele>1308.2</ele>
        <time>2021-10-09 19:53:36</time>
      </trkpt>
      <trkpt lat="40.12601" lon="-1.69681">
        <ele>1308.6</ele>
        <time>2021-10-09 19:53:37</time>
      </trkpt>
      <trkpt lat="40.12603" lon="-1.69684">
        <ele>1308.8</ele>
        <time>2021-10-09 19:53:38</time>
      </trkpt>
      <trkpt lat="40.12606" lon="-1.69686">
        <ele>1308.8</ele>
        <time>2021-10-09 19:53:39</time>
      </trkpt>
      <trkpt lat="40.12608" lon="-1.69689">
        <ele>1309.2</ele>
        <time>2021-10-09 19:53:40</time>
      </trkpt>
      <trkpt lat="40.12611" lon="-1.69692">
        <ele>1309.4</ele>
        <time>2021-10-09 19:53:41</time>
      </trkpt>
      <trkpt lat="40.12613" lon="-1.69694">
        <ele>1309.4</ele>
        <time>2021-10-09 19:53:42</time>
      </trkpt>
      <trkpt lat="40.12615" lon="-1.69697">
        <ele>1309.8</ele>
        <time>2021-10-09 19:53:43</time>
      </trkpt>
      <trkpt lat="40.12617" lon="-1.69699">
        <ele>1310</ele>
        <time>2021-10-09 19:53:44</time>
      </trkpt>
      <trkpt lat="40.1262" lon="-1.69701">
        <ele>1310</ele>
        <time>2021-10-09 19:53:45</time>
      </trkpt>
      <trkpt lat="40.12622" lon="-1.69704">
        <ele>1310.4</ele>
        <time>2021-10-09 19:53:46</time>
      </trkpt>
      <trkpt lat="40.12624" lon="-1.69706">
        <ele>1310.4</ele>
        <time>2021-10-09 19:53:47</time>
      </trkpt>
      <trkpt lat="40.12626" lon="-1.69709">
        <ele>1310.8</ele>
        <time>2021-10-09 19:53:48</time>
      </trkpt>
      <trkpt lat="40.12629" lon="-1.69711">
        <ele>1310.8</ele>
        <time>2021-10-09 19:53:49</time>
      </trkpt>
      <trkpt lat="40.12631" lon="-1.69714">
        <ele>1311.2</ele>
        <time>2021-10-09 19:53:50</time>
      </trkpt>
      <trkpt lat="40.12633" lon="-1.69716">
        <ele>1311.4</ele>
        <time>2021-10-09 19:53:51</time>
      </trkpt>
      <trkpt lat="40.12635" lon="-1.69719">
        <ele>1311.6</ele>
        <time>2021-10-09 19:53:52</time>
      </trkpt>
      <trkpt lat="40.12638" lon="-1.69721">
        <ele>1311.6</ele>
        <time>2021-10-09 19:53:53</time>
      </trkpt>
      <trkpt lat="40.1264" lon="-1.69724">
        <ele>1312</ele>
        <time>2021-10-09 19:53:54</time>
      </trkpt>
      <trkpt lat="40.12642" lon="-1.69726">
        <ele>1312</ele>
        <time>2021-10-09 19:53:55</time>
      </trkpt>
      <trkpt lat="40.12644" lon="-1.69729">
        <ele>1312.4</ele>
        <time>2021-10-09 19:53:56</time>
      </trkpt>
      <trkpt lat="40.12647" lon="-1.69731">
        <ele>1312.4</ele>
        <time>2021-10-09 19:53:57</time>
      </trkpt>
      <trkpt lat="40.12649" lon="-1.69734">
        <ele>1312.8</ele>
        <time>2021-10-09 19:53:58</time>
      </trkpt>
      <trkpt lat="40.12651" lon="-1.69736">
        <ele>1313</ele>
        <time>2021-10-09 19:53:59</time>
      </trkpt>
      <trkpt lat="40.12653" lon="-1.69739">
        <ele>1313.2</ele>
        <time>2021-10-09 19:54:00</time>
      </trkpt>
      <trkpt lat="40.12656" lon="-1.69741">
        <ele>1313.4</ele>
        <time>2021-10-09 19:54:01</time>
      </trkpt>
      <trkpt lat="40.12658" lon="-1.69744">
        <ele>1313.6</ele>
        <time>2021-10-09 19:54:02</time>
      </trkpt>
      <trkpt lat="40.1266" lon="-1.69746">
        <ele>1313.6</ele>
        <time>2021-10-09 19:54:03</time>
      </trkpt>
      <trkpt lat="40.12663" lon="-1.69749">
        <ele>1314</ele>
        <time>2021-10-09 19:54:04</time>
      </trkpt>
      <trkpt lat="40.12665" lon="-1.69751">
        <ele>1314</ele>
        <time>2021-10-09 19:54:05</time>
      </trkpt>
      <trkpt lat="40.12668" lon="-1.69754">
        <ele>1314.4</ele>
        <time>2021-10-09 19:54:06</time>
      </trkpt>
      <trkpt lat="40.1267" lon="-1.69756">
        <ele>1314.4</ele>
        <time>2021-10-09 19:54:07</time>
      </trkpt>
      <trkpt lat="40.12672" lon="-1.69759">
        <ele>1314.4</ele>
        <time>2021-10-09 19:54:08</time>
      </trkpt>
      <trkpt lat="40.12675" lon="-1.69762">
        <ele>1314.6</ele>
        <time>2021-10-09 19:54:09</time>
      </trkpt>
      <trkpt lat="40.12677" lon="-1.69764">
        <ele>1314.6</ele>
        <time>2021-10-09 19:54:10</time>
      </trkpt>
      <trkpt lat="40.12679" lon="-1.69767">
        <ele>1314.6</ele>
        <time>2021-10-09 19:54:11</time>
      </trkpt>
      <trkpt lat="40.12682" lon="-1.69769">
        <ele>1315</ele>
        <time>2021-10-09 19:54:12</time>
      </trkpt>
      <trkpt lat="40.12684" lon="-1.69772">
        <ele>1315</ele>
        <time>2021-10-09 19:54:13</time>
      </trkpt>
      <trkpt lat="40.12686" lon="-1.69775">
        <ele>1315.2</ele>
        <time>2021-10-09 19:54:14</time>
      </trkpt>
      <trkpt lat="40.12689" lon="-1.69777">
        <ele>1315.2</ele>
        <time>2021-10-09 19:54:15</time>
      </trkpt>
      <trkpt lat="40.12691" lon="-1.6978">
        <ele>1315.2</ele>
        <time>2021-10-09 19:54:16</time>
      </trkpt>
      <trkpt lat="40.12693" lon="-1.69783">
        <ele>1315.2</ele>
        <time>2021-10-09 19:54:17</time>
      </trkpt>
      <trkpt lat="40.12696" lon="-1.69786">
        <ele>1315.4</ele>
        <time>2021-10-09 19:54:18</time>
      </trkpt>
      <trkpt lat="40.12698" lon="-1.69789">
        <ele>1315.4</ele>
        <time>2021-10-09 19:54:19</time>
      </trkpt>
      <trkpt lat="40.127" lon="-1.69791">
        <ele>1315.4</ele>
        <time>2021-10-09 19:54:20</time>
      </trkpt>
      <trkpt lat="40.12702" lon="-1.69793">
        <ele>1315.6</ele>
        <time>2021-10-09 19:54:21</time>
      </trkpt>
      <trkpt lat="40.12704" lon="-1.69795">
        <ele>1315.6</ele>
        <time>2021-10-09 19:54:22</time>
      </trkpt>
      <trkpt lat="40.12706" lon="-1.69797">
        <ele>1315.6</ele>
        <time>2021-10-09 19:54:23</time>
      </trkpt>
      <trkpt lat="40.12708" lon="-1.69799">
        <ele>1315.6</ele>
        <time>2021-10-09 19:54:24</time>
      </trkpt>
      <trkpt lat="40.12709" lon="-1.698">
        <ele>1315.6</ele>
        <time>2021-10-09 19:54:25</time>
      </trkpt>
      <trkpt lat="40.12711" lon="-1.69802">
        <ele>1315.6</ele>
        <time>2021-10-09 19:54:26</time>
      </trkpt>
      <trkpt lat="40.12712" lon="-1.69803">
        <ele>1315.6</ele>
        <time>2021-10-09 19:54:27</time>
      </trkpt>
      <trkpt lat="40.12714" lon="-1.69805">
        <ele>1315.6</ele>
        <time>2021-10-09 19:54:28</time>
      </trkpt>
      <trkpt lat="40.12716" lon="-1.69806">
        <ele>1315.6</ele>
        <time>2021-10-09 19:54:29</time>
      </trkpt>
      <trkpt lat="40.12718" lon="-1.69808">
        <ele>1315.6</ele>
        <time>2021-10-09 19:54:30</time>
      </trkpt>
      <trkpt lat="40.1272" lon="-1.69809">
        <ele>1315.6</ele>
        <time>2021-10-09 19:54:31</time>
      </trkpt>
      <trkpt lat="40.12722" lon="-1.69811">
        <ele>1315.6</ele>
        <time>2021-10-09 19:54:32</time>
      </trkpt>
      <trkpt lat="40.12724" lon="-1.69812">
        <ele>1315.6</ele>
        <time>2021-10-09 19:54:33</time>
      </trkpt>
      <trkpt lat="40.12726" lon="-1.69814">
        <ele>1315.6</ele>
        <time>2021-10-09 19:54:34</time>
      </trkpt>
      <trkpt lat="40.12728" lon="-1.69816">
        <ele>1315.4</ele>
        <time>2021-10-09 19:54:35</time>
      </trkpt>
      <trkpt lat="40.1273" lon="-1.69817">
        <ele>1315.4</ele>
        <time>2021-10-09 19:54:36</time>
      </trkpt>
      <trkpt lat="40.12732" lon="-1.69819">
        <ele>1315.6</ele>
        <time>2021-10-09 19:54:37</time>
      </trkpt>
      <trkpt lat="40.12734" lon="-1.69821">
        <ele>1315.6</ele>
        <time>2021-10-09 19:54:38</time>
      </trkpt>
      <trkpt lat="40.12736" lon="-1.69822">
        <ele>1315.6</ele>
        <time>2021-10-09 19:54:39</time>
      </trkpt>
      <trkpt lat="40.12738" lon="-1.69824">
        <ele>1315.8</ele>
        <time>2021-10-09 19:54:40</time>
      </trkpt>
      <trkpt lat="40.1274" lon="-1.69825">
        <ele>1315.8</ele>
        <time>2021-10-09 19:54:41</time>
      </trkpt>
      <trkpt lat="40.12742" lon="-1.69826">
        <ele>1315.8</ele>
        <time>2021-10-09 19:54:42</time>
      </trkpt>
      <trkpt lat="40.12744" lon="-1.69827">
        <ele>1315.8</ele>
        <time>2021-10-09 19:54:43</time>
      </trkpt>
      <trkpt lat="40.12747" lon="-1.69829">
        <ele>1315.8</ele>
        <time>2021-10-09 19:54:44</time>
      </trkpt>
      <trkpt lat="40.12749" lon="-1.69831">
        <ele>1315.8</ele>
        <time>2021-10-09 19:54:45</time>
      </trkpt>
      <trkpt lat="40.12751" lon="-1.69832">
        <ele>1315.8</ele>
        <time>2021-10-09 19:54:46</time>
      </trkpt>
      <trkpt lat="40.12754" lon="-1.69834">
        <ele>1315.8</ele>
        <time>2021-10-09 19:54:47</time>
      </trkpt>
      <trkpt lat="40.12756" lon="-1.69836">
        <ele>1315.8</ele>
        <time>2021-10-09 19:54:48</time>
      </trkpt>
      <trkpt lat="40.12758" lon="-1.69837">
        <ele>1315.8</ele>
        <time>2021-10-09 19:54:49</time>
      </trkpt>
      <trkpt lat="40.12761" lon="-1.69839">
        <ele>1315.8</ele>
        <time>2021-10-09 19:54:50</time>
      </trkpt>
      <trkpt lat="40.12764" lon="-1.69841">
        <ele>1315.8</ele>
        <time>2021-10-09 19:54:51</time>
      </trkpt>
      <trkpt lat="40.12767" lon="-1.69843">
        <ele>1315.8</ele>
        <time>2021-10-09 19:54:52</time>
      </trkpt>
      <trkpt lat="40.1277" lon="-1.69845">
        <ele>1315.8</ele>
        <time>2021-10-09 19:54:53</time>
      </trkpt>
      <trkpt lat="40.12773" lon="-1.69847">
        <ele>1315.8</ele>
        <time>2021-10-09 19:54:54</time>
      </trkpt>
      <trkpt lat="40.12776" lon="-1.69849">
        <ele>1315.8</ele>
        <time>2021-10-09 19:54:55</time>
      </trkpt>
      <trkpt lat="40.12778" lon="-1.69852">
        <ele>1315.8</ele>
        <time>2021-10-09 19:54:56</time>
      </trkpt>
      <trkpt lat="40.1278" lon="-1.69855">
        <ele>1315.8</ele>
        <time>2021-10-09 19:54:57</time>
      </trkpt>
      <trkpt lat="40.12783" lon="-1.69858">
        <ele>1315.6</ele>
        <time>2021-10-09 19:54:58</time>
      </trkpt>
      <trkpt lat="40.12786" lon="-1.6986">
        <ele>1315.6</ele>
        <time>2021-10-09 19:54:59</time>
      </trkpt>
      <trkpt lat="40.1279" lon="-1.69861">
        <ele>1315.6</ele>
        <time>2021-10-09 19:55:00</time>
      </trkpt>
      <trkpt lat="40.12794" lon="-1.69862">
        <ele>1315.6</ele>
        <time>2021-10-09 19:55:01</time>
      </trkpt>
      <trkpt lat="40.12798" lon="-1.69864">
        <ele>1315.4</ele>
        <time>2021-10-09 19:55:02</time>
      </trkpt>
      <trkpt lat="40.12801" lon="-1.69866">
        <ele>1315.4</ele>
        <time>2021-10-09 19:55:03</time>
      </trkpt>
      <trkpt lat="40.12805" lon="-1.6987">
        <ele>1315.4</ele>
        <time>2021-10-09 19:55:04</time>
      </trkpt>
      <trkpt lat="40.12808" lon="-1.69874">
        <ele>1315.2</ele>
        <time>2021-10-09 19:55:05</time>
      </trkpt>
      <trkpt lat="40.12812" lon="-1.69876">
        <ele>1315.2</ele>
        <time>2021-10-09 19:55:06</time>
      </trkpt>
      <trkpt lat="40.12817" lon="-1.69877">
        <ele>1315.2</ele>
        <time>2021-10-09 19:55:07</time>
      </trkpt>
      <trkpt lat="40.12821" lon="-1.6988">
        <ele>1315</ele>
        <time>2021-10-09 19:55:08</time>
      </trkpt>
      <trkpt lat="40.12826" lon="-1.69884">
        <ele>1314.6</ele>
        <time>2021-10-09 19:55:09</time>
      </trkpt>
      <trkpt lat="40.1283" lon="-1.69889">
        <ele>1314.4</ele>
        <time>2021-10-09 19:55:10</time>
      </trkpt>
      <trkpt lat="40.12834" lon="-1.69893">
        <ele>1314.2</ele>
        <time>2021-10-09 19:55:11</time>
      </trkpt>
      <trkpt lat="40.1284" lon="-1.69897">
        <ele>1313.8</ele>
        <time>2021-10-09 19:55:12</time>
      </trkpt>
      <trkpt lat="40.12846" lon="-1.69901">
        <ele>1313.6</ele>
        <time>2021-10-09 19:55:13</time>
      </trkpt>
      <trkpt lat="40.12851" lon="-1.69904">
        <ele>1313.4</ele>
        <time>2021-10-09 19:55:14</time>
      </trkpt>
      <trkpt lat="40.12858" lon="-1.69908">
        <ele>1313.2</ele>
        <time>2021-10-09 19:55:15</time>
      </trkpt>
      <trkpt lat="40.12864" lon="-1.69911">
        <ele>1312.8</ele>
        <time>2021-10-09 19:55:16</time>
      </trkpt>
      <trkpt lat="40.12871" lon="-1.69916">
        <ele>1312.6</ele>
        <time>2021-10-09 19:55:17</time>
      </trkpt>
      <trkpt lat="40.12878" lon="-1.6992">
        <ele>1312.2</ele>
        <time>2021-10-09 19:55:18</time>
      </trkpt>
      <trkpt lat="40.12885" lon="-1.69924">
        <ele>1312</ele>
        <time>2021-10-09 19:55:19</time>
      </trkpt>
      <trkpt lat="40.12892" lon="-1.69929">
        <ele>1311.6</ele>
        <time>2021-10-09 19:55:20</time>
      </trkpt>
      <trkpt lat="40.129" lon="-1.69934">
        <ele>1311.2</ele>
        <time>2021-10-09 19:55:21</time>
      </trkpt>
      <trkpt lat="40.12908" lon="-1.69939">
        <ele>1311</ele>
        <time>2021-10-09 19:55:22</time>
      </trkpt>
      <trkpt lat="40.12916" lon="-1.69944">
        <ele>1310.4</ele>
        <time>2021-10-09 19:55:23</time>
      </trkpt>
      <trkpt lat="40.12925" lon="-1.69949">
        <ele>1310</ele>
        <time>2021-10-09 19:55:24</time>
      </trkpt>
      <trkpt lat="40.12933" lon="-1.69954">
        <ele>1309.6</ele>
        <time>2021-10-09 19:55:25</time>
      </trkpt>
      <trkpt lat="40.12942" lon="-1.69959">
        <ele>1309.2</ele>
        <time>2021-10-09 19:55:26</time>
      </trkpt>
      <trkpt lat="40.1295" lon="-1.69966">
        <ele>1308.8</ele>
        <time>2021-10-09 19:55:27</time>
      </trkpt>
      <trkpt lat="40.12959" lon="-1.69972">
        <ele>1308.2</ele>
        <time>2021-10-09 19:55:28</time>
      </trkpt>
      <trkpt lat="40.12968" lon="-1.69979">
        <ele>1307.6</ele>
        <time>2021-10-09 19:55:29</time>
      </trkpt>
      <trkpt lat="40.12977" lon="-1.69985">
        <ele>1307.2</ele>
        <time>2021-10-09 19:55:30</time>
      </trkpt>
      <trkpt lat="40.12987" lon="-1.69991">
        <ele>1306.6</ele>
        <time>2021-10-09 19:55:31</time>
      </trkpt>
      <trkpt lat="40.12997" lon="-1.69998">
        <ele>1306.2</ele>
        <time>2021-10-09 19:55:32</time>
      </trkpt>
      <trkpt lat="40.13006" lon="-1.70004">
        <ele>1305.6</ele>
        <time>2021-10-09 19:55:33</time>
      </trkpt>
      <trkpt lat="40.13017" lon="-1.7001">
        <ele>1305</ele>
        <time>2021-10-09 19:55:34</time>
      </trkpt>
      <trkpt lat="40.13027" lon="-1.70017">
        <ele>1304.4</ele>
        <time>2021-10-09 19:55:35</time>
      </trkpt>
      <trkpt lat="40.13037" lon="-1.70023">
        <ele>1303.6</ele>
        <time>2021-10-09 19:55:36</time>
      </trkpt>
      <trkpt lat="40.13049" lon="-1.70028">
        <ele>1303</ele>
        <time>2021-10-09 19:55:37</time>
      </trkpt>
      <trkpt lat="40.1306" lon="-1.70032">
        <ele>1302.4</ele>
        <time>2021-10-09 19:55:38</time>
      </trkpt>
      <trkpt lat="40.13071" lon="-1.70036">
        <ele>1301.6</ele>
        <time>2021-10-09 19:55:39</time>
      </trkpt>
      <trkpt lat="40.13083" lon="-1.70038">
        <ele>1301</ele>
        <time>2021-10-09 19:55:40</time>
      </trkpt>
      <trkpt lat="40.13095" lon="-1.7004">
        <ele>1300.4</ele>
        <time>2021-10-09 19:55:41</time>
      </trkpt>
      <trkpt lat="40.13107" lon="-1.7004">
        <ele>1299.8</ele>
        <time>2021-10-09 19:55:42</time>
      </trkpt>
      <trkpt lat="40.13119" lon="-1.7004">
        <ele>1299</ele>
        <time>2021-10-09 19:55:43</time>
      </trkpt>
      <trkpt lat="40.13131" lon="-1.70039">
        <ele>1298.4</ele>
        <time>2021-10-09 19:55:44</time>
      </trkpt>
      <trkpt lat="40.13143" lon="-1.70039">
        <ele>1297.6</ele>
        <time>2021-10-09 19:55:45</time>
      </trkpt>
      <trkpt lat="40.13154" lon="-1.70037">
        <ele>1297.2</ele>
        <time>2021-10-09 19:55:46</time>
      </trkpt>
      <trkpt lat="40.13166" lon="-1.70036">
        <ele>1296.4</ele>
        <time>2021-10-09 19:55:47</time>
      </trkpt>
      <trkpt lat="40.13177" lon="-1.70035">
        <ele>1296</ele>
        <time>2021-10-09 19:55:48</time>
      </trkpt>
      <trkpt lat="40.13188" lon="-1.70033">
        <ele>1295.4</ele>
        <time>2021-10-09 19:55:49</time>
      </trkpt>
      <trkpt lat="40.13199" lon="-1.70031">
        <ele>1295</ele>
        <time>2021-10-09 19:55:50</time>
      </trkpt>
      <trkpt lat="40.13209" lon="-1.70029">
        <ele>1294.6</ele>
        <time>2021-10-09 19:55:51</time>
      </trkpt>
      <trkpt lat="40.1322" lon="-1.70027">
        <ele>1294</ele>
        <time>2021-10-09 19:55:52</time>
      </trkpt>
      <trkpt lat="40.13231" lon="-1.70025">
        <ele>1293.6</ele>
        <time>2021-10-09 19:55:53</time>
      </trkpt>
      <trkpt lat="40.13241" lon="-1.70024">
        <ele>1293.2</ele>
        <time>2021-10-09 19:55:54</time>
      </trkpt>
      <trkpt lat="40.13251" lon="-1.70023">
        <ele>1292.8</ele>
        <time>2021-10-09 19:55:55</time>
      </trkpt>
      <trkpt lat="40.13261" lon="-1.70021">
        <ele>1292.4</ele>
        <time>2021-10-09 19:55:56</time>
      </trkpt>
      <trkpt lat="40.1327" lon="-1.7002">
        <ele>1292.2</ele>
        <time>2021-10-09 19:55:57</time>
      </trkpt>
      <trkpt lat="40.1328" lon="-1.70018">
        <ele>1291.8</ele>
        <time>2021-10-09 19:55:58</time>
      </trkpt>
      <trkpt lat="40.13289" lon="-1.70017">
        <ele>1291.6</ele>
        <time>2021-10-09 19:55:59</time>
      </trkpt>
      <trkpt lat="40.13298" lon="-1.70015">
        <ele>1291.4</ele>
        <time>2021-10-09 19:56:00</time>
      </trkpt>
      <trkpt lat="40.13306" lon="-1.70013">
        <ele>1291</ele>
        <time>2021-10-09 19:56:01</time>
      </trkpt>
      <trkpt lat="40.13315" lon="-1.70011">
        <ele>1290.8</ele>
        <time>2021-10-09 19:56:02</time>
      </trkpt>
      <trkpt lat="40.13323" lon="-1.70007">
        <ele>1290.4</ele>
        <time>2021-10-09 19:56:03</time>
      </trkpt>
      <trkpt lat="40.13331" lon="-1.70004">
        <ele>1290.2</ele>
        <time>2021-10-09 19:56:04</time>
      </trkpt>
      <trkpt lat="40.13339" lon="-1.70001">
        <ele>1290</ele>
        <time>2021-10-09 19:56:05</time>
      </trkpt>
      <trkpt lat="40.13347" lon="-1.69996">
        <ele>1290</ele>
        <time>2021-10-09 19:56:06</time>
      </trkpt>
      <trkpt lat="40.13354" lon="-1.69992">
        <ele>1289.6</ele>
        <time>2021-10-09 19:56:07</time>
      </trkpt>
      <trkpt lat="40.13361" lon="-1.69987">
        <ele>1289.6</ele>
        <time>2021-10-09 19:56:08</time>
      </trkpt>
      <trkpt lat="40.13368" lon="-1.69982">
        <ele>1289.4</ele>
        <time>2021-10-09 19:56:09</time>
      </trkpt>
      <trkpt lat="40.13375" lon="-1.69977">
        <ele>1289.4</ele>
        <time>2021-10-09 19:56:10</time>
      </trkpt>
      <trkpt lat="40.13382" lon="-1.69973">
        <ele>1289</ele>
        <time>2021-10-09 19:56:11</time>
      </trkpt>
      <trkpt lat="40.13388" lon="-1.69968">
        <ele>1289</ele>
        <time>2021-10-09 19:56:12</time>
      </trkpt>
      <trkpt lat="40.13394" lon="-1.69964">
        <ele>1289</ele>
        <time>2021-10-09 19:56:13</time>
      </trkpt>
      <trkpt lat="40.134" lon="-1.69959">
        <ele>1288.8</ele>
        <time>2021-10-09 19:56:14</time>
      </trkpt>
      <trkpt lat="40.13405" lon="-1.69954">
        <ele>1288.8</ele>
        <time>2021-10-09 19:56:15</time>
      </trkpt>
      <trkpt lat="40.13411" lon="-1.6995">
        <ele>1288.8</ele>
        <time>2021-10-09 19:56:16</time>
      </trkpt>
      <trkpt lat="40.13416" lon="-1.69945">
        <ele>1288.8</ele>
        <time>2021-10-09 19:56:17</time>
      </trkpt>
      <trkpt lat="40.13421" lon="-1.6994">
        <ele>1288.6</ele>
        <time>2021-10-09 19:56:18</time>
      </trkpt>
      <trkpt lat="40.13425" lon="-1.69937">
        <ele>1288.6</ele>
        <time>2021-10-09 19:56:19</time>
      </trkpt>
      <trkpt lat="40.13431" lon="-1.69933">
        <ele>1288.6</ele>
        <time>2021-10-09 19:56:20</time>
      </trkpt>
      <trkpt lat="40.13436" lon="-1.6993">
        <ele>1288.2</ele>
        <time>2021-10-09 19:56:21</time>
      </trkpt>
      <trkpt lat="40.1344" lon="-1.69927">
        <ele>1288.2</ele>
        <time>2021-10-09 19:56:22</time>
      </trkpt>
      <trkpt lat="40.13445" lon="-1.69924">
        <ele>1288.2</ele>
        <time>2021-10-09 19:56:23</time>
      </trkpt>
      <trkpt lat="40.13449" lon="-1.6992">
        <ele>1288.2</ele>
        <time>2021-10-09 19:56:24</time>
      </trkpt>
      <trkpt lat="40.13453" lon="-1.69916">
        <ele>1288.2</ele>
        <time>2021-10-09 19:56:25</time>
      </trkpt>
      <trkpt lat="40.13457" lon="-1.69914">
        <ele>1288.2</ele>
        <time>2021-10-09 19:56:26</time>
      </trkpt>
      <trkpt lat="40.13461" lon="-1.69911">
        <ele>1288.2</ele>
        <time>2021-10-09 19:56:27</time>
      </trkpt>
      <trkpt lat="40.13465" lon="-1.69909">
        <ele>1288.2</ele>
        <time>2021-10-09 19:56:28</time>
      </trkpt>
      <trkpt lat="40.13468" lon="-1.69907">
        <ele>1288.2</ele>
        <time>2021-10-09 19:56:29</time>
      </trkpt>
      <trkpt lat="40.13472" lon="-1.69904">
        <ele>1288.2</ele>
        <time>2021-10-09 19:56:30</time>
      </trkpt>
      <trkpt lat="40.13475" lon="-1.69902">
        <ele>1288.2</ele>
        <time>2021-10-09 19:56:31</time>
      </trkpt>
      <trkpt lat="40.13479" lon="-1.699">
        <ele>1288.2</ele>
        <time>2021-10-09 19:56:32</time>
      </trkpt>
      <trkpt lat="40.13482" lon="-1.69898">
        <ele>1288.2</ele>
        <time>2021-10-09 19:56:33</time>
      </trkpt>
      <trkpt lat="40.13485" lon="-1.69896">
        <ele>1288.2</ele>
        <time>2021-10-09 19:56:34</time>
      </trkpt>
      <trkpt lat="40.13489" lon="-1.69894">
        <ele>1288.4</ele>
        <time>2021-10-09 19:56:35</time>
      </trkpt>
      <trkpt lat="40.13492" lon="-1.69892">
        <ele>1288.4</ele>
        <time>2021-10-09 19:56:36</time>
      </trkpt>
      <trkpt lat="40.13496" lon="-1.69889">
        <ele>1288.4</ele>
        <time>2021-10-09 19:56:37</time>
      </trkpt>
      <trkpt lat="40.13499" lon="-1.69887">
        <ele>1288.4</ele>
        <time>2021-10-09 19:56:38</time>
      </trkpt>
      <trkpt lat="40.13502" lon="-1.69885">
        <ele>1288.4</ele>
        <time>2021-10-09 19:56:39</time>
      </trkpt>
      <trkpt lat="40.13505" lon="-1.69883">
        <ele>1288.8</ele>
        <time>2021-10-09 19:56:40</time>
      </trkpt>
      <trkpt lat="40.13508" lon="-1.69882">
        <ele>1288.8</ele>
        <time>2021-10-09 19:56:41</time>
      </trkpt>
      <trkpt lat="40.13511" lon="-1.6988">
        <ele>1288.8</ele>
        <time>2021-10-09 19:56:42</time>
      </trkpt>
      <trkpt lat="40.13514" lon="-1.69879">
        <ele>1288.8</ele>
        <time>2021-10-09 19:56:43</time>
      </trkpt>
      <trkpt lat="40.13518" lon="-1.69877">
        <ele>1288.8</ele>
        <time>2021-10-09 19:56:44</time>
      </trkpt>
      <trkpt lat="40.1352" lon="-1.69875">
        <ele>1289</ele>
        <time>2021-10-09 19:56:45</time>
      </trkpt>
      <trkpt lat="40.13523" lon="-1.69874">
        <ele>1289</ele>
        <time>2021-10-09 19:56:46</time>
      </trkpt>
      <trkpt lat="40.13525" lon="-1.69873">
        <ele>1289</ele>
        <time>2021-10-09 19:56:47</time>
      </trkpt>
      <trkpt lat="40.13528" lon="-1.69871">
        <ele>1289.2</ele>
        <time>2021-10-09 19:56:48</time>
      </trkpt>
      <trkpt lat="40.1353" lon="-1.69869">
        <ele>1289.2</ele>
        <time>2021-10-09 19:56:49</time>
      </trkpt>
      <trkpt lat="40.13532" lon="-1.69868">
        <ele>1289.2</ele>
        <time>2021-10-09 19:56:50</time>
      </trkpt>
      <trkpt lat="40.13535" lon="-1.69866">
        <ele>1289.4</ele>
        <time>2021-10-09 19:56:51</time>
      </trkpt>
      <trkpt lat="40.13537" lon="-1.69864">
        <ele>1289.4</ele>
        <time>2021-10-09 19:56:52</time>
      </trkpt>
      <trkpt lat="40.13539" lon="-1.69863">
        <ele>1289.4</ele>
        <time>2021-10-09 19:56:53</time>
      </trkpt>
      <trkpt lat="40.13542" lon="-1.69861">
        <ele>1289.6</ele>
        <time>2021-10-09 19:56:54</time>
      </trkpt>
      <trkpt lat="40.13544" lon="-1.6986">
        <ele>1289.6</ele>
        <time>2021-10-09 19:56:55</time>
      </trkpt>
      <trkpt lat="40.13547" lon="-1.69859">
        <ele>1289.6</ele>
        <time>2021-10-09 19:56:56</time>
      </trkpt>
      <trkpt lat="40.13549" lon="-1.69857">
        <ele>1290</ele>
        <time>2021-10-09 19:56:57</time>
      </trkpt>
      <trkpt lat="40.13551" lon="-1.69856">
        <ele>1290</ele>
        <time>2021-10-09 19:56:58</time>
      </trkpt>
      <trkpt lat="40.13554" lon="-1.69854">
        <ele>1290</ele>
        <time>2021-10-09 19:56:59</time>
      </trkpt>
      <trkpt lat="40.13556" lon="-1.69853">
        <ele>1290.2</ele>
        <time>2021-10-09 19:57:00</time>
      </trkpt>
      <trkpt lat="40.13558" lon="-1.69852">
        <ele>1290.2</ele>
        <time>2021-10-09 19:57:01</time>
      </trkpt>
      <trkpt lat="40.13561" lon="-1.6985">
        <ele>1290.2</ele>
        <time>2021-10-09 19:57:02</time>
      </trkpt>
      <trkpt lat="40.13563" lon="-1.69849">
        <ele>1290.4</ele>
        <time>2021-10-09 19:57:03</time>
      </trkpt>
      <trkpt lat="40.13565" lon="-1.69848">
        <ele>1290.4</ele>
        <time>2021-10-09 19:57:04</time>
      </trkpt>
      <trkpt lat="40.13567" lon="-1.69847">
        <ele>1290.4</ele>
        <time>2021-10-09 19:57:05</time>
      </trkpt>
      <trkpt lat="40.1357" lon="-1.69845">
        <ele>1290.8</ele>
        <time>2021-10-09 19:57:06</time>
      </trkpt>
      <trkpt lat="40.13572" lon="-1.69844">
        <ele>1290.8</ele>
        <time>2021-10-09 19:57:07</time>
      </trkpt>
      <trkpt lat="40.13574" lon="-1.69842">
        <ele>1290.8</ele>
        <time>2021-10-09 19:57:08</time>
      </trkpt>
      <trkpt lat="40.13576" lon="-1.69841">
        <ele>1291</ele>
        <time>2021-10-09 19:57:09</time>
      </trkpt>
      <trkpt lat="40.13578" lon="-1.6984">
        <ele>1291</ele>
        <time>2021-10-09 19:57:10</time>
      </trkpt>
      <trkpt lat="40.1358" lon="-1.69838">
        <ele>1291</ele>
        <time>2021-10-09 19:57:11</time>
      </trkpt>
      <trkpt lat="40.13583" lon="-1.69837">
        <ele>1291.2</ele>
        <time>2021-10-09 19:57:12</time>
      </trkpt>
      <trkpt lat="40.13585" lon="-1.69836">
        <ele>1291.2</ele>
        <time>2021-10-09 19:57:13</time>
      </trkpt>
      <trkpt lat="40.13587" lon="-1.69835">
        <ele>1291.4</ele>
        <time>2021-10-09 19:57:14</time>
      </trkpt>
      <trkpt lat="40.13589" lon="-1.69833">
        <ele>1291.4</ele>
        <time>2021-10-09 19:57:15</time>
      </trkpt>
      <trkpt lat="40.13591" lon="-1.69832">
        <ele>1291.4</ele>
        <time>2021-10-09 19:57:16</time>
      </trkpt>
      <trkpt lat="40.13593" lon="-1.69831">
        <ele>1291.6</ele>
        <time>2021-10-09 19:57:17</time>
      </trkpt>
      <trkpt lat="40.13595" lon="-1.69829">
        <ele>1291.6</ele>
        <time>2021-10-09 19:57:18</time>
      </trkpt>
      <trkpt lat="40.13597" lon="-1.69828">
        <ele>1291.6</ele>
        <time>2021-10-09 19:57:19</time>
      </trkpt>
      <trkpt lat="40.13599" lon="-1.69827">
        <ele>1292</ele>
        <time>2021-10-09 19:57:20</time>
      </trkpt>
      <trkpt lat="40.13601" lon="-1.69826">
        <ele>1292</ele>
        <time>2021-10-09 19:57:21</time>
      </trkpt>
      <trkpt lat="40.13603" lon="-1.69825">
        <ele>1292.2</ele>
        <time>2021-10-09 19:57:22</time>
      </trkpt>
      <trkpt lat="40.13605" lon="-1.69823">
        <ele>1292.2</ele>
        <time>2021-10-09 19:57:23</time>
      </trkpt>
      <trkpt lat="40.13608" lon="-1.69822">
        <ele>1292.4</ele>
        <time>2021-10-09 19:57:24</time>
      </trkpt>
      <trkpt lat="40.1361" lon="-1.69821">
        <ele>1292.4</ele>
        <time>2021-10-09 19:57:25</time>
      </trkpt>
      <trkpt lat="40.13612" lon="-1.69819">
        <ele>1292.6</ele>
        <time>2021-10-09 19:57:26</time>
      </trkpt>
      <trkpt lat="40.13614" lon="-1.69818">
        <ele>1292.6</ele>
        <time>2021-10-09 19:57:27</time>
      </trkpt>
      <trkpt lat="40.13617" lon="-1.69817">
        <ele>1293</ele>
        <time>2021-10-09 19:57:28</time>
      </trkpt>
      <trkpt lat="40.13619" lon="-1.69815">
        <ele>1293</ele>
        <time>2021-10-09 19:57:29</time>
      </trkpt>
      <trkpt lat="40.13621" lon="-1.69814">
        <ele>1293.2</ele>
        <time>2021-10-09 19:57:30</time>
      </trkpt>
      <trkpt lat="40.13624" lon="-1.69812">
        <ele>1293.2</ele>
        <time>2021-10-09 19:57:31</time>
      </trkpt>
      <trkpt lat="40.13626" lon="-1.6981">
        <ele>1293.2</ele>
        <time>2021-10-09 19:57:32</time>
      </trkpt>
      <trkpt lat="40.13628" lon="-1.69809">
        <ele>1293.4</ele>
        <time>2021-10-09 19:57:33</time>
      </trkpt>
      <trkpt lat="40.13631" lon="-1.69808">
        <ele>1293.4</ele>
        <time>2021-10-09 19:57:34</time>
      </trkpt>
      <trkpt lat="40.13633" lon="-1.69806">
        <ele>1293.4</ele>
        <time>2021-10-09 19:57:35</time>
      </trkpt>
      <trkpt lat="40.13635" lon="-1.69805">
        <ele>1293.6</ele>
        <time>2021-10-09 19:57:36</time>
      </trkpt>
      <trkpt lat="40.13638" lon="-1.69803">
        <ele>1293.6</ele>
        <time>2021-10-09 19:57:37</time>
      </trkpt>
      <trkpt lat="40.1364" lon="-1.69802">
        <ele>1293.8</ele>
        <time>2021-10-09 19:57:38</time>
      </trkpt>
      <trkpt lat="40.13642" lon="-1.698">
        <ele>1293.8</ele>
        <time>2021-10-09 19:57:39</time>
      </trkpt>
      <trkpt lat="40.13645" lon="-1.69799">
        <ele>1293.8</ele>
        <time>2021-10-09 19:57:40</time>
      </trkpt>
      <trkpt lat="40.13647" lon="-1.69797">
        <ele>1294</ele>
        <time>2021-10-09 19:57:41</time>
      </trkpt>
      <trkpt lat="40.13649" lon="-1.69796">
        <ele>1294</ele>
        <time>2021-10-09 19:57:42</time>
      </trkpt>
      <trkpt lat="40.13652" lon="-1.69794">
        <ele>1294</ele>
        <time>2021-10-09 19:57:43</time>
      </trkpt>
      <trkpt lat="40.13654" lon="-1.69793">
        <ele>1294.2</ele>
        <time>2021-10-09 19:57:44</time>
      </trkpt>
      <trkpt lat="40.13656" lon="-1.69791">
        <ele>1294.2</ele>
        <time>2021-10-09 19:57:45</time>
      </trkpt>
      <trkpt lat="40.13659" lon="-1.6979">
        <ele>1294.2</ele>
        <time>2021-10-09 19:57:46</time>
      </trkpt>
      <trkpt lat="40.13661" lon="-1.69789">
        <ele>1294.6</ele>
        <time>2021-10-09 19:57:47</time>
      </trkpt>
      <trkpt lat="40.13663" lon="-1.69787">
        <ele>1294.6</ele>
        <time>2021-10-09 19:57:48</time>
      </trkpt>
      <trkpt lat="40.13665" lon="-1.69786">
        <ele>1294.6</ele>
        <time>2021-10-09 19:57:49</time>
      </trkpt>
      <trkpt lat="40.13668" lon="-1.69784">
        <ele>1294.6</ele>
        <time>2021-10-09 19:57:50</time>
      </trkpt>
      <trkpt lat="40.1367" lon="-1.69783">
        <ele>1294.6</ele>
        <time>2021-10-09 19:57:51</time>
      </trkpt>
      <trkpt lat="40.13672" lon="-1.69781">
        <ele>1294.8</ele>
        <time>2021-10-09 19:57:52</time>
      </trkpt>
      <trkpt lat="40.13674" lon="-1.6978">
        <ele>1294.8</ele>
        <time>2021-10-09 19:57:53</time>
      </trkpt>
      <trkpt lat="40.13677" lon="-1.69779">
        <ele>1294.8</ele>
        <time>2021-10-09 19:57:54</time>
      </trkpt>
      <trkpt lat="40.13679" lon="-1.69777">
        <ele>1294.8</ele>
        <time>2021-10-09 19:57:55</time>
      </trkpt>
      <trkpt lat="40.13682" lon="-1.69776">
        <ele>1294.8</ele>
        <time>2021-10-09 19:57:56</time>
      </trkpt>
      <trkpt lat="40.13684" lon="-1.69775">
        <ele>1295</ele>
        <time>2021-10-09 19:57:57</time>
      </trkpt>
      <trkpt lat="40.13686" lon="-1.69773">
        <ele>1295</ele>
        <time>2021-10-09 19:57:58</time>
      </trkpt>
      <trkpt lat="40.13688" lon="-1.69772">
        <ele>1295</ele>
        <time>2021-10-09 19:57:59</time>
      </trkpt>
      <trkpt lat="40.1369" lon="-1.69771">
        <ele>1295.4</ele>
        <time>2021-10-09 19:58:00</time>
      </trkpt>
      <trkpt lat="40.13693" lon="-1.6977">
        <ele>1295.4</ele>
        <time>2021-10-09 19:58:01</time>
      </trkpt>
      <trkpt lat="40.13695" lon="-1.69769">
        <ele>1295.4</ele>
        <time>2021-10-09 19:58:02</time>
      </trkpt>
      <trkpt lat="40.13697" lon="-1.69767">
        <ele>1295.4</ele>
        <time>2021-10-09 19:58:03</time>
      </trkpt>
      <trkpt lat="40.137" lon="-1.69765">
        <ele>1295.6</ele>
        <time>2021-10-09 19:58:04</time>
      </trkpt>
      <trkpt lat="40.13703" lon="-1.69764">
        <ele>1295.6</ele>
        <time>2021-10-09 19:58:05</time>
      </trkpt>
      <trkpt lat="40.13706" lon="-1.69762">
        <ele>1295.6</ele>
        <time>2021-10-09 19:58:06</time>
      </trkpt>
      <trkpt lat="40.13709" lon="-1.6976">
        <ele>1295.8</ele>
        <time>2021-10-09 19:58:07</time>
      </trkpt>
      <trkpt lat="40.13712" lon="-1.69759">
        <ele>1295.8</ele>
        <time>2021-10-09 19:58:08</time>
      </trkpt>
      <trkpt lat="40.13716" lon="-1.69757">
        <ele>1295.8</ele>
        <time>2021-10-09 19:58:09</time>
      </trkpt>
      <trkpt lat="40.13719" lon="-1.69755">
        <ele>1295.8</ele>
        <time>2021-10-09 19:58:10</time>
      </trkpt>
      <trkpt lat="40.13723" lon="-1.69753">
        <ele>1295.8</ele>
        <time>2021-10-09 19:58:11</time>
      </trkpt>
      <trkpt lat="40.13726" lon="-1.69751">
        <ele>1296</ele>
        <time>2021-10-09 19:58:12</time>
      </trkpt>
      <trkpt lat="40.13729" lon="-1.69749">
        <ele>1296</ele>
        <time>2021-10-09 19:58:13</time>
      </trkpt>
      <trkpt lat="40.13733" lon="-1.69747">
        <ele>1296</ele>
        <time>2021-10-09 19:58:14</time>
      </trkpt>
      <trkpt lat="40.13736" lon="-1.69746">
        <ele>1296</ele>
        <time>2021-10-09 19:58:15</time>
      </trkpt>
      <trkpt lat="40.1374" lon="-1.69744">
        <ele>1296</ele>
        <time>2021-10-09 19:58:16</time>
      </trkpt>
      <trkpt lat="40.13744" lon="-1.69742">
        <ele>1296</ele>
        <time>2021-10-09 19:58:17</time>
      </trkpt>
      <trkpt lat="40.13748" lon="-1.6974">
        <ele>1296.2</ele>
        <time>2021-10-09 19:58:18</time>
      </trkpt>
      <trkpt lat="40.13752" lon="-1.69738">
        <ele>1296.2</ele>
        <time>2021-10-09 19:58:19</time>
      </trkpt>
      <trkpt lat="40.13756" lon="-1.69736">
        <ele>1296.2</ele>
        <time>2021-10-09 19:58:20</time>
      </trkpt>
      <trkpt lat="40.1376" lon="-1.69734">
        <ele>1296.2</ele>
        <time>2021-10-09 19:58:21</time>
      </trkpt>
      <trkpt lat="40.13764" lon="-1.69732">
        <ele>1296.2</ele>
        <time>2021-10-09 19:58:22</time>
      </trkpt>
      <trkpt lat="40.13768" lon="-1.6973">
        <ele>1296.6</ele>
        <time>2021-10-09 19:58:23</time>
      </trkpt>
      <trkpt lat="40.13773" lon="-1.69727">
        <ele>1296.6</ele>
        <time>2021-10-09 19:58:24</time>
      </trkpt>
      <trkpt lat="40.13777" lon="-1.69726">
        <ele>1296.6</ele>
        <time>2021-10-09 19:58:25</time>
      </trkpt>
      <trkpt lat="40.13782" lon="-1.69724">
        <ele>1296.6</ele>
        <time>2021-10-09 19:58:26</time>
      </trkpt>
      <trkpt lat="40.13787" lon="-1.69722">
        <ele>1296.6</ele>
        <time>2021-10-09 19:58:27</time>
      </trkpt>
      <trkpt lat="40.13791" lon="-1.6972">
        <ele>1296.6</ele>
        <time>2021-10-09 19:58:28</time>
      </trkpt>
      <trkpt lat="40.13796" lon="-1.69718">
        <ele>1296.6</ele>
        <time>2021-10-09 19:58:29</time>
      </trkpt>
      <trkpt lat="40.138" lon="-1.69716">
        <ele>1296.6</ele>
        <time>2021-10-09 19:58:30</time>
      </trkpt>
      <trkpt lat="40.13805" lon="-1.69714">
        <ele>1296.6</ele>
        <time>2021-10-09 19:58:31</time>
      </trkpt>
      <trkpt lat="40.1381" lon="-1.69712">
        <ele>1296.6</ele>
        <time>2021-10-09 19:58:32</time>
      </trkpt>
      <trkpt lat="40.13815" lon="-1.6971">
        <ele>1296.6</ele>
        <time>2021-10-09 19:58:33</time>
      </trkpt>
      <trkpt lat="40.1382" lon="-1.69708">
        <ele>1296.6</ele>
        <time>2021-10-09 19:58:34</time>
      </trkpt>
      <trkpt lat="40.13825" lon="-1.69706">
        <ele>1296.6</ele>
        <time>2021-10-09 19:58:35</time>
      </trkpt>
      <trkpt lat="40.13831" lon="-1.69704">
        <ele>1296.6</ele>
        <time>2021-10-09 19:58:36</time>
      </trkpt>
      <trkpt lat="40.13836" lon="-1.69702">
        <ele>1296.6</ele>
        <time>2021-10-09 19:58:37</time>
      </trkpt>
      <trkpt lat="40.13842" lon="-1.69701">
        <ele>1296.6</ele>
        <time>2021-10-09 19:58:38</time>
      </trkpt>
      <trkpt lat="40.13848" lon="-1.69699">
        <ele>1296.6</ele>
        <time>2021-10-09 19:58:39</time>
      </trkpt>
      <trkpt lat="40.13853" lon="-1.69697">
        <ele>1296.6</ele>
        <time>2021-10-09 19:58:40</time>
      </trkpt>
      <trkpt lat="40.13859" lon="-1.69695">
        <ele>1296.6</ele>
        <time>2021-10-09 19:58:41</time>
      </trkpt>
      <trkpt lat="40.13865" lon="-1.69693">
        <ele>1296.6</ele>
        <time>2021-10-09 19:58:42</time>
      </trkpt>
      <trkpt lat="40.13871" lon="-1.69691">
        <ele>1296.6</ele>
        <time>2021-10-09 19:58:43</time>
      </trkpt>
      <trkpt lat="40.13882" lon="-1.69687">
        <ele>1296.6</ele>
        <time>2021-10-09 19:58:44</time>
      </trkpt>
      <trkpt lat="40.13887" lon="-1.69685">
        <ele>1296.6</ele>
        <time>2021-10-09 19:58:45</time>
      </trkpt>
      <trkpt lat="40.13893" lon="-1.69683">
        <ele>1296.6</ele>
        <time>2021-10-09 19:58:46</time>
      </trkpt>
      <trkpt lat="40.139" lon="-1.69682">
        <ele>1296.6</ele>
        <time>2021-10-09 19:58:47</time>
      </trkpt>
      <trkpt lat="40.13906" lon="-1.6968">
        <ele>1296.6</ele>
        <time>2021-10-09 19:58:48</time>
      </trkpt>
      <trkpt lat="40.13912" lon="-1.69678">
        <ele>1296.6</ele>
        <time>2021-10-09 19:58:49</time>
      </trkpt>
      <trkpt lat="40.13917" lon="-1.69676">
        <ele>1296.6</ele>
        <time>2021-10-09 19:58:50</time>
      </trkpt>
      <trkpt lat="40.13923" lon="-1.69673">
        <ele>1296.6</ele>
        <time>2021-10-09 19:58:51</time>
      </trkpt>
      <trkpt lat="40.13928" lon="-1.69672">
        <ele>1296.6</ele>
        <time>2021-10-09 19:58:52</time>
      </trkpt>
      <trkpt lat="40.13934" lon="-1.69669">
        <ele>1296.6</ele>
        <time>2021-10-09 19:58:53</time>
      </trkpt>
      <trkpt lat="40.13939" lon="-1.69667">
        <ele>1296.6</ele>
        <time>2021-10-09 19:58:54</time>
      </trkpt>
      <trkpt lat="40.13944" lon="-1.69665">
        <ele>1296.6</ele>
        <time>2021-10-09 19:58:55</time>
      </trkpt>
      <trkpt lat="40.13949" lon="-1.69663">
        <ele>1296.6</ele>
        <time>2021-10-09 19:58:56</time>
      </trkpt>
      <trkpt lat="40.13954" lon="-1.69662">
        <ele>1296.6</ele>
        <time>2021-10-09 19:58:57</time>
      </trkpt>
      <trkpt lat="40.13959" lon="-1.6966">
        <ele>1296.6</ele>
        <time>2021-10-09 19:58:58</time>
      </trkpt>
      <trkpt lat="40.13963" lon="-1.69657">
        <ele>1296.6</ele>
        <time>2021-10-09 19:58:59</time>
      </trkpt>
      <trkpt lat="40.13967" lon="-1.69655">
        <ele>1296.6</ele>
        <time>2021-10-09 19:59:00</time>
      </trkpt>
      <trkpt lat="40.13972" lon="-1.69653">
        <ele>1296.6</ele>
        <time>2021-10-09 19:59:01</time>
      </trkpt>
      <trkpt lat="40.13976" lon="-1.69651">
        <ele>1296.8</ele>
        <time>2021-10-09 19:59:02</time>
      </trkpt>
      <trkpt lat="40.1398" lon="-1.69649">
        <ele>1296.8</ele>
        <time>2021-10-09 19:59:03</time>
      </trkpt>
      <trkpt lat="40.13984" lon="-1.69647">
        <ele>1296.8</ele>
        <time>2021-10-09 19:59:04</time>
      </trkpt>
      <trkpt lat="40.13988" lon="-1.69645">
        <ele>1297.2</ele>
        <time>2021-10-09 19:59:05</time>
      </trkpt>
      <trkpt lat="40.13992" lon="-1.69643">
        <ele>1297.2</ele>
        <time>2021-10-09 19:59:06</time>
      </trkpt>
      <trkpt lat="40.13996" lon="-1.69641">
        <ele>1297.4</ele>
        <time>2021-10-09 19:59:07</time>
      </trkpt>
      <trkpt lat="40.13999" lon="-1.69638">
        <ele>1297.4</ele>
        <time>2021-10-09 19:59:08</time>
      </trkpt>
      <trkpt lat="40.14003" lon="-1.69637">
        <ele>1297.6</ele>
        <time>2021-10-09 19:59:09</time>
      </trkpt>
      <trkpt lat="40.14006" lon="-1.69634">
        <ele>1297.6</ele>
        <time>2021-10-09 19:59:10</time>
      </trkpt>
      <trkpt lat="40.14009" lon="-1.69632">
        <ele>1297.6</ele>
        <time>2021-10-09 19:59:11</time>
      </trkpt>
      <trkpt lat="40.14012" lon="-1.6963">
        <ele>1297.8</ele>
        <time>2021-10-09 19:59:12</time>
      </trkpt>
      <trkpt lat="40.14015" lon="-1.69628">
        <ele>1297.8</ele>
        <time>2021-10-09 19:59:13</time>
      </trkpt>
      <trkpt lat="40.14018" lon="-1.69625">
        <ele>1298</ele>
        <time>2021-10-09 19:59:14</time>
      </trkpt>
      <trkpt lat="40.14021" lon="-1.69623">
        <ele>1298.4</ele>
        <time>2021-10-09 19:59:15</time>
      </trkpt>
      <trkpt lat="40.14024" lon="-1.69621">
        <ele>1298.4</ele>
        <time>2021-10-09 19:59:16</time>
      </trkpt>
      <trkpt lat="40.14027" lon="-1.69618">
        <ele>1298.4</ele>
        <time>2021-10-09 19:59:17</time>
      </trkpt>
      <trkpt lat="40.1403" lon="-1.69615">
        <ele>1298.6</ele>
        <time>2021-10-09 19:59:18</time>
      </trkpt>
      <trkpt lat="40.14034" lon="-1.69612">
        <ele>1298.6</ele>
        <time>2021-10-09 19:59:19</time>
      </trkpt>
      <trkpt lat="40.14037" lon="-1.6961">
        <ele>1298.8</ele>
        <time>2021-10-09 19:59:20</time>
      </trkpt>
      <trkpt lat="40.14039" lon="-1.69608">
        <ele>1298.8</ele>
        <time>2021-10-09 19:59:21</time>
      </trkpt>
      <trkpt lat="40.14042" lon="-1.69605">
        <ele>1299.2</ele>
        <time>2021-10-09 19:59:22</time>
      </trkpt>
      <trkpt lat="40.14045" lon="-1.69603">
        <ele>1299.2</ele>
        <time>2021-10-09 19:59:23</time>
      </trkpt>
      <trkpt lat="40.14047" lon="-1.69601">
        <ele>1299.2</ele>
        <time>2021-10-09 19:59:24</time>
      </trkpt>
      <trkpt lat="40.1405" lon="-1.69599">
        <ele>1299.4</ele>
        <time>2021-10-09 19:59:25</time>
      </trkpt>
      <trkpt lat="40.14053" lon="-1.69596">
        <ele>1299.4</ele>
        <time>2021-10-09 19:59:26</time>
      </trkpt>
      <trkpt lat="40.14056" lon="-1.69593">
        <ele>1299.4</ele>
        <time>2021-10-09 19:59:27</time>
      </trkpt>
      <trkpt lat="40.14059" lon="-1.6959">
        <ele>1299.6</ele>
        <time>2021-10-09 19:59:28</time>
      </trkpt>
      <trkpt lat="40.14061" lon="-1.69587">
        <ele>1299.6</ele>
        <time>2021-10-09 19:59:29</time>
      </trkpt>
      <trkpt lat="40.14064" lon="-1.69584">
        <ele>1300</ele>
        <time>2021-10-09 19:59:30</time>
      </trkpt>
      <trkpt lat="40.14067" lon="-1.69581">
        <ele>1300</ele>
        <time>2021-10-09 19:59:31</time>
      </trkpt>
      <trkpt lat="40.14069" lon="-1.69578">
        <ele>1300.2</ele>
        <time>2021-10-09 19:59:32</time>
      </trkpt>
      <trkpt lat="40.14072" lon="-1.69576">
        <ele>1300.2</ele>
        <time>2021-10-09 19:59:33</time>
      </trkpt>
      <trkpt lat="40.14075" lon="-1.69573">
        <ele>1300.2</ele>
        <time>2021-10-09 19:59:34</time>
      </trkpt>
      <trkpt lat="40.14077" lon="-1.6957">
        <ele>1300.6</ele>
        <time>2021-10-09 19:59:35</time>
      </trkpt>
      <trkpt lat="40.14079" lon="-1.69567">
        <ele>1300.6</ele>
        <time>2021-10-09 19:59:36</time>
      </trkpt>
      <trkpt lat="40.14082" lon="-1.69564">
        <ele>1300.8</ele>
        <time>2021-10-09 19:59:37</time>
      </trkpt>
      <trkpt lat="40.14084" lon="-1.69561">
        <ele>1300.8</ele>
        <time>2021-10-09 19:59:38</time>
      </trkpt>
      <trkpt lat="40.14086" lon="-1.69558">
        <ele>1301.2</ele>
        <time>2021-10-09 19:59:39</time>
      </trkpt>
      <trkpt lat="40.14089" lon="-1.69554">
        <ele>1301.2</ele>
        <time>2021-10-09 19:59:40</time>
      </trkpt>
      <trkpt lat="40.14091" lon="-1.69551">
        <ele>1301.4</ele>
        <time>2021-10-09 19:59:41</time>
      </trkpt>
      <trkpt lat="40.14094" lon="-1.69547">
        <ele>1301.4</ele>
        <time>2021-10-09 19:59:42</time>
      </trkpt>
      <trkpt lat="40.14097" lon="-1.69544">
        <ele>1301.4</ele>
        <time>2021-10-09 19:59:43</time>
      </trkpt>
      <trkpt lat="40.141" lon="-1.6954">
        <ele>1301.8</ele>
        <time>2021-10-09 19:59:44</time>
      </trkpt>
      <trkpt lat="40.14102" lon="-1.69536">
        <ele>1301.8</ele>
        <time>2021-10-09 19:59:45</time>
      </trkpt>
      <trkpt lat="40.14105" lon="-1.69532">
        <ele>1302</ele>
        <time>2021-10-09 19:59:46</time>
      </trkpt>
      <trkpt lat="40.14107" lon="-1.69529">
        <ele>1302</ele>
        <time>2021-10-09 19:59:47</time>
      </trkpt>
      <trkpt lat="40.14109" lon="-1.69526">
        <ele>1302.4</ele>
        <time>2021-10-09 19:59:48</time>
      </trkpt>
      <trkpt lat="40.14111" lon="-1.69523">
        <ele>1302.4</ele>
        <time>2021-10-09 19:59:49</time>
      </trkpt>
      <trkpt lat="40.14113" lon="-1.69519">
        <ele>1302.6</ele>
        <time>2021-10-09 19:59:50</time>
      </trkpt>
      <trkpt lat="40.14115" lon="-1.69516">
        <ele>1302.6</ele>
        <time>2021-10-09 19:59:51</time>
      </trkpt>
      <trkpt lat="40.14118" lon="-1.69513">
        <ele>1302.6</ele>
        <time>2021-10-09 19:59:52</time>
      </trkpt>
      <trkpt lat="40.1412" lon="-1.69509">
        <ele>1303</ele>
        <time>2021-10-09 19:59:53</time>
      </trkpt>
      <trkpt lat="40.14122" lon="-1.69505">
        <ele>1303</ele>
        <time>2021-10-09 19:59:54</time>
      </trkpt>
      <trkpt lat="40.14124" lon="-1.69501">
        <ele>1303</ele>
        <time>2021-10-09 19:59:55</time>
      </trkpt>
      <trkpt lat="40.14126" lon="-1.69498">
        <ele>1303.2</ele>
        <time>2021-10-09 19:59:56</time>
      </trkpt>
      <trkpt lat="40.14128" lon="-1.69495">
        <ele>1303.2</ele>
        <time>2021-10-09 19:59:57</time>
      </trkpt>
      <trkpt lat="40.1413" lon="-1.69492">
        <ele>1303.4</ele>
        <time>2021-10-09 19:59:58</time>
      </trkpt>
      <trkpt lat="40.14131" lon="-1.69488">
        <ele>1303.4</ele>
        <time>2021-10-09 19:59:59</time>
      </trkpt>
      <trkpt lat="40.14133" lon="-1.69485">
        <ele>1303.6</ele>
        <time>2021-10-09 20:00:00</time>
      </trkpt>
      <trkpt lat="40.14135" lon="-1.69482">
        <ele>1303.6</ele>
        <time>2021-10-09 20:00:01</time>
      </trkpt>
      <trkpt lat="40.14137" lon="-1.69478">
        <ele>1303.8</ele>
        <time>2021-10-09 20:00:02</time>
      </trkpt>
      <trkpt lat="40.14139" lon="-1.69475">
        <ele>1303.8</ele>
        <time>2021-10-09 20:00:03</time>
      </trkpt>
      <trkpt lat="40.14141" lon="-1.69472">
        <ele>1304.2</ele>
        <time>2021-10-09 20:00:04</time>
      </trkpt>
      <trkpt lat="40.14143" lon="-1.69468">
        <ele>1304.2</ele>
        <time>2021-10-09 20:00:05</time>
      </trkpt>
      <trkpt lat="40.14145" lon="-1.69464">
        <ele>1304.4</ele>
        <time>2021-10-09 20:00:06</time>
      </trkpt>
      <trkpt lat="40.14147" lon="-1.69461">
        <ele>1304.4</ele>
        <time>2021-10-09 20:00:07</time>
      </trkpt>
      <trkpt lat="40.14148" lon="-1.69458">
        <ele>1304.4</ele>
        <time>2021-10-09 20:00:08</time>
      </trkpt>
      <trkpt lat="40.1415" lon="-1.69454">
        <ele>1304.8</ele>
        <time>2021-10-09 20:00:09</time>
      </trkpt>
      <trkpt lat="40.14152" lon="-1.69451">
        <ele>1304.8</ele>
        <time>2021-10-09 20:00:10</time>
      </trkpt>
      <trkpt lat="40.14154" lon="-1.69448">
        <ele>1305</ele>
        <time>2021-10-09 20:00:11</time>
      </trkpt>
      <trkpt lat="40.14155" lon="-1.69445">
        <ele>1305</ele>
        <time>2021-10-09 20:00:12</time>
      </trkpt>
      <trkpt lat="40.14157" lon="-1.69442">
        <ele>1305.4</ele>
        <time>2021-10-09 20:00:13</time>
      </trkpt>
      <trkpt lat="40.14159" lon="-1.69439">
        <ele>1305.4</ele>
        <time>2021-10-09 20:00:14</time>
      </trkpt>
      <trkpt lat="40.14161" lon="-1.69436">
        <ele>1305.6</ele>
        <time>2021-10-09 20:00:15</time>
      </trkpt>
      <trkpt lat="40.14163" lon="-1.69433">
        <ele>1305.6</ele>
        <time>2021-10-09 20:00:16</time>
      </trkpt>
      <trkpt lat="40.14165" lon="-1.6943">
        <ele>1305.8</ele>
        <time>2021-10-09 20:00:17</time>
      </trkpt>
      <trkpt lat="40.14166" lon="-1.69427">
        <ele>1305.8</ele>
        <time>2021-10-09 20:00:18</time>
      </trkpt>
      <trkpt lat="40.14168" lon="-1.69424">
        <ele>1306</ele>
        <time>2021-10-09 20:00:19</time>
      </trkpt>
      <trkpt lat="40.1417" lon="-1.69421">
        <ele>1306</ele>
        <time>2021-10-09 20:00:20</time>
      </trkpt>
      <trkpt lat="40.14172" lon="-1.69418">
        <ele>1306</ele>
        <time>2021-10-09 20:00:21</time>
      </trkpt>
      <trkpt lat="40.14174" lon="-1.69416">
        <ele>1306.4</ele>
        <time>2021-10-09 20:00:22</time>
      </trkpt>
      <trkpt lat="40.14176" lon="-1.69413">
        <ele>1306.4</ele>
        <time>2021-10-09 20:00:23</time>
      </trkpt>
      <trkpt lat="40.14178" lon="-1.6941">
        <ele>1306.6</ele>
        <time>2021-10-09 20:00:24</time>
      </trkpt>
      <trkpt lat="40.1418" lon="-1.69407">
        <ele>1306.6</ele>
        <time>2021-10-09 20:00:25</time>
      </trkpt>
      <trkpt lat="40.14183" lon="-1.69404">
        <ele>1306.6</ele>
        <time>2021-10-09 20:00:26</time>
      </trkpt>
      <trkpt lat="40.14185" lon="-1.69402">
        <ele>1306.8</ele>
        <time>2021-10-09 20:00:27</time>
      </trkpt>
      <trkpt lat="40.14187" lon="-1.69399">
        <ele>1306.8</ele>
        <time>2021-10-09 20:00:28</time>
      </trkpt>
      <trkpt lat="40.14189" lon="-1.69396">
        <ele>1306.8</ele>
        <time>2021-10-09 20:00:29</time>
      </trkpt>
      <trkpt lat="40.14191" lon="-1.69394">
        <ele>1307.2</ele>
        <time>2021-10-09 20:00:30</time>
      </trkpt>
      <trkpt lat="40.14194" lon="-1.69391">
        <ele>1307.2</ele>
        <time>2021-10-09 20:00:31</time>
      </trkpt>
      <trkpt lat="40.14196" lon="-1.69389">
        <ele>1307.4</ele>
        <time>2021-10-09 20:00:32</time>
      </trkpt>
      <trkpt lat="40.14198" lon="-1.69386">
        <ele>1307.4</ele>
        <time>2021-10-09 20:00:33</time>
      </trkpt>
      <trkpt lat="40.14201" lon="-1.69383">
        <ele>1307.8</ele>
        <time>2021-10-09 20:00:34</time>
      </trkpt>
      <trkpt lat="40.14203" lon="-1.69381">
        <ele>1307.8</ele>
        <time>2021-10-09 20:00:35</time>
      </trkpt>
      <trkpt lat="40.14206" lon="-1.69379">
        <ele>1308</ele>
        <time>2021-10-09 20:00:36</time>
      </trkpt>
      <trkpt lat="40.14209" lon="-1.69376">
        <ele>1308</ele>
        <time>2021-10-09 20:00:37</time>
      </trkpt>
      <trkpt lat="40.14211" lon="-1.69374">
        <ele>1308</ele>
        <time>2021-10-09 20:00:38</time>
      </trkpt>
      <trkpt lat="40.14214" lon="-1.69372">
        <ele>1308.2</ele>
        <time>2021-10-09 20:00:39</time>
      </trkpt>
      <trkpt lat="40.14214" lon="-1.69372">
        <ele>1308.2</ele>
        <time>2021-10-09 20:00:40</time>
      </trkpt>
      <trkpt lat="40.14217" lon="-1.6937">
        <ele>1308.4</ele>
        <time>2021-10-09 20:00:41</time>
      </trkpt>
      <trkpt lat="40.14219" lon="-1.69368">
        <ele>1308.4</ele>
        <time>2021-10-09 20:00:42</time>
      </trkpt>
      <trkpt lat="40.14222" lon="-1.69366">
        <ele>1308.4</ele>
        <time>2021-10-09 20:00:43</time>
      </trkpt>
      <trkpt lat="40.14225" lon="-1.69364">
        <ele>1308.6</ele>
        <time>2021-10-09 20:00:44</time>
      </trkpt>
      <trkpt lat="40.14228" lon="-1.69362">
        <ele>1308.6</ele>
        <time>2021-10-09 20:00:45</time>
      </trkpt>
      <trkpt lat="40.1423" lon="-1.6936">
        <ele>1309</ele>
        <time>2021-10-09 20:00:46</time>
      </trkpt>
      <trkpt lat="40.14233" lon="-1.69358">
        <ele>1309</ele>
        <time>2021-10-09 20:00:47</time>
      </trkpt>
      <trkpt lat="40.14236" lon="-1.69356">
        <ele>1309</ele>
        <time>2021-10-09 20:00:48</time>
      </trkpt>
      <trkpt lat="40.14239" lon="-1.69354">
        <ele>1309</ele>
        <time>2021-10-09 20:00:49</time>
      </trkpt>
      <trkpt lat="40.14243" lon="-1.69352">
        <ele>1309.2</ele>
        <time>2021-10-09 20:00:50</time>
      </trkpt>
      <trkpt lat="40.14246" lon="-1.69351">
        <ele>1309.2</ele>
        <time>2021-10-09 20:00:51</time>
      </trkpt>
      <trkpt lat="40.14249" lon="-1.69349">
        <ele>1309.2</ele>
        <time>2021-10-09 20:00:52</time>
      </trkpt>
      <trkpt lat="40.14253" lon="-1.69348">
        <ele>1309.4</ele>
        <time>2021-10-09 20:00:53</time>
      </trkpt>
      <trkpt lat="40.14256" lon="-1.69347">
        <ele>1309.4</ele>
        <time>2021-10-09 20:00:54</time>
      </trkpt>
      <trkpt lat="40.1426" lon="-1.69347">
        <ele>1309.4</ele>
        <time>2021-10-09 20:00:55</time>
      </trkpt>
      <trkpt lat="40.14264" lon="-1.69347">
        <ele>1309.4</ele>
        <time>2021-10-09 20:00:56</time>
      </trkpt>
      <trkpt lat="40.14267" lon="-1.69346">
        <ele>1309.4</ele>
        <time>2021-10-09 20:00:57</time>
      </trkpt>
      <trkpt lat="40.14271" lon="-1.69345">
        <ele>1309.4</ele>
        <time>2021-10-09 20:00:58</time>
      </trkpt>
      <trkpt lat="40.14275" lon="-1.69344">
        <ele>1309.4</ele>
        <time>2021-10-09 20:00:59</time>
      </trkpt>
      <trkpt lat="40.14279" lon="-1.69343">
        <ele>1309.4</ele>
        <time>2021-10-09 20:01:00</time>
      </trkpt>
      <trkpt lat="40.14283" lon="-1.69342">
        <ele>1309.4</ele>
        <time>2021-10-09 20:01:01</time>
      </trkpt>
      <trkpt lat="40.14287" lon="-1.69342">
        <ele>1309.2</ele>
        <time>2021-10-09 20:01:02</time>
      </trkpt>
      <trkpt lat="40.14292" lon="-1.69341">
        <ele>1309.2</ele>
        <time>2021-10-09 20:01:03</time>
      </trkpt>
      <trkpt lat="40.14296" lon="-1.69341">
        <ele>1309</ele>
        <time>2021-10-09 20:01:04</time>
      </trkpt>
      <trkpt lat="40.14301" lon="-1.69342">
        <ele>1309</ele>
        <time>2021-10-09 20:01:05</time>
      </trkpt>
      <trkpt lat="40.14306" lon="-1.69342">
        <ele>1308.6</ele>
        <time>2021-10-09 20:01:06</time>
      </trkpt>
      <trkpt lat="40.14311" lon="-1.69341">
        <ele>1308.6</ele>
        <time>2021-10-09 20:01:07</time>
      </trkpt>
      <trkpt lat="40.14316" lon="-1.69341">
        <ele>1308.2</ele>
        <time>2021-10-09 20:01:08</time>
      </trkpt>
      <trkpt lat="40.14322" lon="-1.69341">
        <ele>1308</ele>
        <time>2021-10-09 20:01:09</time>
      </trkpt>
      <trkpt lat="40.14328" lon="-1.6934">
        <ele>1307.8</ele>
        <time>2021-10-09 20:01:10</time>
      </trkpt>
      <trkpt lat="40.14334" lon="-1.69341">
        <ele>1307.8</ele>
        <time>2021-10-09 20:01:11</time>
      </trkpt>
      <trkpt lat="40.1434" lon="-1.69341">
        <ele>1307.6</ele>
        <time>2021-10-09 20:01:12</time>
      </trkpt>
      <trkpt lat="40.14346" lon="-1.6934">
        <ele>1307.6</ele>
        <time>2021-10-09 20:01:13</time>
      </trkpt>
      <trkpt lat="40.14352" lon="-1.69339">
        <ele>1307.2</ele>
        <time>2021-10-09 20:01:14</time>
      </trkpt>
      <trkpt lat="40.14358" lon="-1.69338">
        <ele>1307.2</ele>
        <time>2021-10-09 20:01:15</time>
      </trkpt>
      <trkpt lat="40.14365" lon="-1.69336">
        <ele>1307</ele>
        <time>2021-10-09 20:01:16</time>
      </trkpt>
      <trkpt lat="40.14371" lon="-1.69336">
        <ele>1307</ele>
        <time>2021-10-09 20:01:17</time>
      </trkpt>
      <trkpt lat="40.14377" lon="-1.69335">
        <ele>1306.6</ele>
        <time>2021-10-09 20:01:18</time>
      </trkpt>
      <trkpt lat="40.14384" lon="-1.69333">
        <ele>1306.4</ele>
        <time>2021-10-09 20:01:19</time>
      </trkpt>
      <trkpt lat="40.14391" lon="-1.69331">
        <ele>1306.2</ele>
        <time>2021-10-09 20:01:20</time>
      </trkpt>
      <trkpt lat="40.14397" lon="-1.69329">
        <ele>1306</ele>
        <time>2021-10-09 20:01:21</time>
      </trkpt>
      <trkpt lat="40.14404" lon="-1.69327">
        <ele>1305.8</ele>
        <time>2021-10-09 20:01:22</time>
      </trkpt>
      <trkpt lat="40.1441" lon="-1.69324">
        <ele>1305.6</ele>
        <time>2021-10-09 20:01:23</time>
      </trkpt>
      <trkpt lat="40.14417" lon="-1.6932">
        <ele>1305.6</ele>
        <time>2021-10-09 20:01:24</time>
      </trkpt>
      <trkpt lat="40.14423" lon="-1.69317">
        <ele>1305.2</ele>
        <time>2021-10-09 20:01:25</time>
      </trkpt>
      <trkpt lat="40.1443" lon="-1.69313">
        <ele>1305.2</ele>
        <time>2021-10-09 20:01:26</time>
      </trkpt>
      <trkpt lat="40.14436" lon="-1.69308">
        <ele>1304.8</ele>
        <time>2021-10-09 20:01:27</time>
      </trkpt>
      <trkpt lat="40.14442" lon="-1.69304">
        <ele>1304.8</ele>
        <time>2021-10-09 20:01:28</time>
      </trkpt>
      <trkpt lat="40.14449" lon="-1.69299">
        <ele>1304.4</ele>
        <time>2021-10-09 20:01:29</time>
      </trkpt>
      <trkpt lat="40.14455" lon="-1.69294">
        <ele>1304.4</ele>
        <time>2021-10-09 20:01:30</time>
      </trkpt>
      <trkpt lat="40.14461" lon="-1.69287">
        <ele>1304.2</ele>
        <time>2021-10-09 20:01:31</time>
      </trkpt>
      <trkpt lat="40.14467" lon="-1.69281">
        <ele>1303.8</ele>
        <time>2021-10-09 20:01:32</time>
      </trkpt>
      <trkpt lat="40.14473" lon="-1.69274">
        <ele>1303.6</ele>
        <time>2021-10-09 20:01:33</time>
      </trkpt>
      <trkpt lat="40.14479" lon="-1.69268">
        <ele>1303.2</ele>
        <time>2021-10-09 20:01:34</time>
      </trkpt>
      <trkpt lat="40.14485" lon="-1.69261">
        <ele>1303</ele>
        <time>2021-10-09 20:01:35</time>
      </trkpt>
      <trkpt lat="40.1449" lon="-1.69254">
        <ele>1302.6</ele>
        <time>2021-10-09 20:01:36</time>
      </trkpt>
      <trkpt lat="40.14496" lon="-1.69247">
        <ele>1302.4</ele>
        <time>2021-10-09 20:01:37</time>
      </trkpt>
      <trkpt lat="40.14502" lon="-1.6924">
        <ele>1302.2</ele>
        <time>2021-10-09 20:01:38</time>
      </trkpt>
      <trkpt lat="40.14508" lon="-1.69232">
        <ele>1301.8</ele>
        <time>2021-10-09 20:01:39</time>
      </trkpt>
      <trkpt lat="40.14514" lon="-1.69223">
        <ele>1301.4</ele>
        <time>2021-10-09 20:01:40</time>
      </trkpt>
      <trkpt lat="40.1452" lon="-1.69215">
        <ele>1301.2</ele>
        <time>2021-10-09 20:01:41</time>
      </trkpt>
      <trkpt lat="40.14526" lon="-1.69206">
        <ele>1300.8</ele>
        <time>2021-10-09 20:01:42</time>
      </trkpt>
      <trkpt lat="40.14532" lon="-1.69197">
        <ele>1300.4</ele>
        <time>2021-10-09 20:01:43</time>
      </trkpt>
      <trkpt lat="40.14538" lon="-1.69187">
        <ele>1300</ele>
        <time>2021-10-09 20:01:44</time>
      </trkpt>
      <trkpt lat="40.14543" lon="-1.69176">
        <ele>1299.6</ele>
        <time>2021-10-09 20:01:45</time>
      </trkpt>
      <trkpt lat="40.14547" lon="-1.69165">
        <ele>1299.4</ele>
        <time>2021-10-09 20:01:46</time>
      </trkpt>
      <trkpt lat="40.1455" lon="-1.69152">
        <ele>1298.8</ele>
        <time>2021-10-09 20:01:47</time>
      </trkpt>
      <trkpt lat="40.14553" lon="-1.69139">
        <ele>1298.4</ele>
        <time>2021-10-09 20:01:48</time>
      </trkpt>
      <trkpt lat="40.14554" lon="-1.69125">
        <ele>1297.8</ele>
        <time>2021-10-09 20:01:49</time>
      </trkpt>
      <trkpt lat="40.14554" lon="-1.69112">
        <ele>1297.4</ele>
        <time>2021-10-09 20:01:50</time>
      </trkpt>
      <trkpt lat="40.14553" lon="-1.69098">
        <ele>1296.8</ele>
        <time>2021-10-09 20:01:51</time>
      </trkpt>
      <trkpt lat="40.14552" lon="-1.69085">
        <ele>1296.4</ele>
        <time>2021-10-09 20:01:52</time>
      </trkpt>
      <trkpt lat="40.14549" lon="-1.69074">
        <ele>1295.8</ele>
        <time>2021-10-09 20:01:53</time>
      </trkpt>
      <trkpt lat="40.14547" lon="-1.69064">
        <ele>1295.2</ele>
        <time>2021-10-09 20:01:54</time>
      </trkpt>
      <trkpt lat="40.14545" lon="-1.69055">
        <ele>1294.6</ele>
        <time>2021-10-09 20:01:55</time>
      </trkpt>
      <trkpt lat="40.14544" lon="-1.69048">
        <ele>1294</ele>
        <time>2021-10-09 20:01:56</time>
      </trkpt>
      <trkpt lat="40.14545" lon="-1.69042">
        <ele>1293.2</ele>
        <time>2021-10-09 20:01:57</time>
      </trkpt>
      <trkpt lat="40.14545" lon="-1.69035">
        <ele>1292.8</ele>
        <time>2021-10-09 20:01:58</time>
      </trkpt>
      <trkpt lat="40.14545" lon="-1.69029">
        <ele>1292.2</ele>
        <time>2021-10-09 20:01:59</time>
      </trkpt>
      <trkpt lat="40.14545" lon="-1.69024">
        <ele>1291.6</ele>
        <time>2021-10-09 20:02:00</time>
      </trkpt>
      <trkpt lat="40.14544" lon="-1.69019">
        <ele>1291.2</ele>
        <time>2021-10-09 20:02:01</time>
      </trkpt>
      <trkpt lat="40.14545" lon="-1.69015">
        <ele>1291</ele>
        <time>2021-10-09 20:02:02</time>
      </trkpt>
      <trkpt lat="40.14546" lon="-1.69012">
        <ele>1290.8</ele>
        <time>2021-10-09 20:02:03</time>
      </trkpt>
      <trkpt lat="40.14547" lon="-1.6901">
        <ele>1290.4</ele>
        <time>2021-10-09 20:02:04</time>
      </trkpt>
      <trkpt lat="40.14549" lon="-1.69009">
        <ele>1290.2</ele>
        <time>2021-10-09 20:02:05</time>
      </trkpt>
      <trkpt lat="40.14551" lon="-1.69009">
        <ele>1290.2</ele>
        <time>2021-10-09 20:02:06</time>
      </trkpt>
      <trkpt lat="40.14553" lon="-1.69009">
        <ele>1289.8</ele>
        <time>2021-10-09 20:02:07</time>
      </trkpt>
      <trkpt lat="40.14554" lon="-1.69009">
        <ele>1289.8</ele>
        <time>2021-10-09 20:02:08</time>
      </trkpt>
      <trkpt lat="40.14555" lon="-1.69009">
        <ele>1289.8</ele>
        <time>2021-10-09 20:02:09</time>
      </trkpt>
      <trkpt lat="40.14555" lon="-1.6901">
        <ele>1289.6</ele>
        <time>2021-10-09 20:02:10</time>
      </trkpt>
      <trkpt lat="40.14556" lon="-1.69011">
        <ele>1289.6</ele>
        <time>2021-10-09 20:02:11</time>
      </trkpt>
      <trkpt lat="40.14556" lon="-1.69012">
        <ele>1289.6</ele>
        <time>2021-10-09 20:02:12</time>
      </trkpt>
      <trkpt lat="40.14556" lon="-1.69014">
        <ele>1289.6</ele>
        <time>2021-10-09 20:02:13</time>
      </trkpt>
      <trkpt lat="40.14555" lon="-1.69016">
        <ele>1289.6</ele>
        <time>2021-10-09 20:02:14</time>
      </trkpt>
      <trkpt lat="40.14552" lon="-1.69016">
        <ele>1289.6</ele>
        <time>2021-10-09 20:02:15</time>
      </trkpt>
      <trkpt lat="40.1455" lon="-1.69013">
        <ele>1289.6</ele>
        <time>2021-10-09 20:02:16</time>
      </trkpt>
      <trkpt lat="40.14548" lon="-1.69009">
        <ele>1289.6</ele>
        <time>2021-10-09 20:02:17</time>
      </trkpt>
      <trkpt lat="40.14548" lon="-1.69005">
        <ele>1289.6</ele>
        <time>2021-10-09 20:02:18</time>
      </trkpt>
      <trkpt lat="40.14547" lon="-1.69001">
        <ele>1289.6</ele>
        <time>2021-10-09 20:02:19</time>
      </trkpt>
      <trkpt lat="40.14546" lon="-1.68998">
        <ele>1289.4</ele>
        <time>2021-10-09 20:02:20</time>
      </trkpt>
      <trkpt lat="40.14545" lon="-1.68995">
        <ele>1289.4</ele>
        <time>2021-10-09 20:02:21</time>
      </trkpt>
      <trkpt lat="40.14545" lon="-1.68993">
        <ele>1289.4</ele>
        <time>2021-10-09 20:02:22</time>
      </trkpt>
      <trkpt lat="40.14545" lon="-1.68991">
        <ele>1289.4</ele>
        <time>2021-10-09 20:02:23</time>
      </trkpt>
      <trkpt lat="40.14544" lon="-1.68989">
        <ele>1289.2</ele>
        <time>2021-10-09 20:02:24</time>
      </trkpt>
      <trkpt lat="40.14544" lon="-1.68987">
        <ele>1289.2</ele>
        <time>2021-10-09 20:02:25</time>
      </trkpt>
      <trkpt lat="40.14543" lon="-1.68985">
        <ele>1289.2</ele>
        <time>2021-10-09 20:02:26</time>
      </trkpt>
      <trkpt lat="40.14541" lon="-1.68984">
        <ele>1289.2</ele>
        <time>2021-10-09 20:02:27</time>
      </trkpt>
      <trkpt lat="40.14539" lon="-1.68983">
        <ele>1289.2</ele>
        <time>2021-10-09 20:02:28</time>
      </trkpt>
      <trkpt lat="40.14537" lon="-1.68983">
        <ele>1289.2</ele>
        <time>2021-10-09 20:02:29</time>
      </trkpt>
      <trkpt lat="40.14536" lon="-1.68985">
        <ele>1289.2</ele>
        <time>2021-10-09 20:02:30</time>
      </trkpt>
      <trkpt lat="40.14534" lon="-1.68987">
        <ele>1289</ele>
        <time>2021-10-09 20:02:31</time>
      </trkpt>
      <trkpt lat="40.14534" lon="-1.68989">
        <ele>1289</ele>
        <time>2021-10-09 20:02:32</time>
      </trkpt>
      <trkpt lat="40.14533" lon="-1.68991">
        <ele>1289</ele>
        <time>2021-10-09 20:02:33</time>
      </trkpt>
      <trkpt lat="40.14531" lon="-1.68992">
        <ele>1289</ele>
        <time>2021-10-09 20:02:34</time>
      </trkpt>
      <trkpt lat="40.14528" lon="-1.68992">
        <ele>1289</ele>
        <time>2021-10-09 20:02:35</time>
      </trkpt>
      <trkpt lat="40.14526" lon="-1.6899">
        <ele>1289</ele>
        <time>2021-10-09 20:02:36</time>
      </trkpt>
      <trkpt lat="40.14525" lon="-1.68987">
        <ele>1289</ele>
        <time>2021-10-09 20:02:37</time>
      </trkpt>
      <trkpt lat="40.14524" lon="-1.68984">
        <ele>1289</ele>
        <time>2021-10-09 20:02:38</time>
      </trkpt>
      <trkpt lat="40.14523" lon="-1.68981">
        <ele>1289</ele>
        <time>2021-10-09 20:02:39</time>
      </trkpt>
      <trkpt lat="40.14522" lon="-1.68979">
        <ele>1288.8</ele>
        <time>2021-10-09 20:02:40</time>
      </trkpt>
      <trkpt lat="40.14521" lon="-1.68976">
        <ele>1288.8</ele>
        <time>2021-10-09 20:02:41</time>
      </trkpt>
      <trkpt lat="40.14521" lon="-1.68973">
        <ele>1288.8</ele>
        <time>2021-10-09 20:02:42</time>
      </trkpt>
      <trkpt lat="40.1452" lon="-1.6897">
        <ele>1288.8</ele>
        <time>2021-10-09 20:02:43</time>
      </trkpt>
      <trkpt lat="40.14519" lon="-1.68967">
        <ele>1288.8</ele>
        <time>2021-10-09 20:02:44</time>
      </trkpt>
      <trkpt lat="40.14517" lon="-1.68964">
        <ele>1288.8</ele>
        <time>2021-10-09 20:02:45</time>
      </trkpt>
      <trkpt lat="40.14516" lon="-1.68961">
        <ele>1288.8</ele>
        <time>2021-10-09 20:02:46</time>
      </trkpt>
      <trkpt lat="40.14515" lon="-1.68957">
        <ele>1288.8</ele>
        <time>2021-10-09 20:02:47</time>
      </trkpt>
      <trkpt lat="40.14513" lon="-1.68954">
        <ele>1288.8</ele>
        <time>2021-10-09 20:02:48</time>
      </trkpt>
      <trkpt lat="40.14512" lon="-1.6895">
        <ele>1288.8</ele>
        <time>2021-10-09 20:02:49</time>
      </trkpt>
      <trkpt lat="40.14511" lon="-1.68946">
        <ele>1288.8</ele>
        <time>2021-10-09 20:02:50</time>
      </trkpt>
      <trkpt lat="40.1451" lon="-1.68942">
        <ele>1288.8</ele>
        <time>2021-10-09 20:02:51</time>
      </trkpt>
      <trkpt lat="40.14509" lon="-1.68939">
        <ele>1288.8</ele>
        <time>2021-10-09 20:02:52</time>
      </trkpt>
      <trkpt lat="40.14509" lon="-1.68935">
        <ele>1288.8</ele>
        <time>2021-10-09 20:02:53</time>
      </trkpt>
      <trkpt lat="40.14508" lon="-1.68931">
        <ele>1288.4</ele>
        <time>2021-10-09 20:02:54</time>
      </trkpt>
      <trkpt lat="40.14507" lon="-1.68926">
        <ele>1288.4</ele>
        <time>2021-10-09 20:02:55</time>
      </trkpt>
      <trkpt lat="40.14506" lon="-1.68922">
        <ele>1288.2</ele>
        <time>2021-10-09 20:02:56</time>
      </trkpt>
      <trkpt lat="40.14505" lon="-1.68917">
        <ele>1288.2</ele>
        <time>2021-10-09 20:02:57</time>
      </trkpt>
      <trkpt lat="40.14503" lon="-1.68913">
        <ele>1287.8</ele>
        <time>2021-10-09 20:02:58</time>
      </trkpt>
      <trkpt lat="40.14502" lon="-1.68908">
        <ele>1287.8</ele>
        <time>2021-10-09 20:02:59</time>
      </trkpt>
      <trkpt lat="40.145" lon="-1.68903">
        <ele>1287.4</ele>
        <time>2021-10-09 20:03:00</time>
      </trkpt>
      <trkpt lat="40.14495" lon="-1.68902">
        <ele>1287.2</ele>
        <time>2021-10-09 20:03:01</time>
      </trkpt>
      <trkpt lat="40.14491" lon="-1.689">
        <ele>1287.2</ele>
        <time>2021-10-09 20:03:02</time>
      </trkpt>
      <trkpt lat="40.14487" lon="-1.68898">
        <ele>1287</ele>
        <time>2021-10-09 20:03:03</time>
      </trkpt>
      <trkpt lat="40.14484" lon="-1.68897">
        <ele>1287</ele>
        <time>2021-10-09 20:03:04</time>
      </trkpt>
      <trkpt lat="40.1448" lon="-1.68895">
        <ele>1286.6</ele>
        <time>2021-10-09 20:03:05</time>
      </trkpt>
      <trkpt lat="40.14476" lon="-1.68893">
        <ele>1286.6</ele>
        <time>2021-10-09 20:03:06</time>
      </trkpt>
      <trkpt lat="40.14472" lon="-1.68892">
        <ele>1286.4</ele>
        <time>2021-10-09 20:03:07</time>
      </trkpt>
      <trkpt lat="40.14467" lon="-1.6889">
        <ele>1286.4</ele>
        <time>2021-10-09 20:03:08</time>
      </trkpt>
      <trkpt lat="40.14462" lon="-1.68887">
        <ele>1286.4</ele>
        <time>2021-10-09 20:03:09</time>
      </trkpt>
      <trkpt lat="40.14457" lon="-1.68886">
        <ele>1286.2</ele>
        <time>2021-10-09 20:03:10</time>
      </trkpt>
      <trkpt lat="40.14452" lon="-1.68885">
        <ele>1285.8</ele>
        <time>2021-10-09 20:03:11</time>
      </trkpt>
      <trkpt lat="40.14447" lon="-1.68882">
        <ele>1285.4</ele>
        <time>2021-10-09 20:03:12</time>
      </trkpt>
      <trkpt lat="40.14441" lon="-1.6888">
        <ele>1284.8</ele>
        <time>2021-10-09 20:03:13</time>
      </trkpt>
      <trkpt lat="40.14436" lon="-1.68877">
        <ele>1284.4</ele>
        <time>2021-10-09 20:03:14</time>
      </trkpt>
      <trkpt lat="40.14431" lon="-1.68872">
        <ele>1284.2</ele>
        <time>2021-10-09 20:03:15</time>
      </trkpt>
      <trkpt lat="40.14427" lon="-1.68866">
        <ele>1283.8</ele>
        <time>2021-10-09 20:03:16</time>
      </trkpt>
      <trkpt lat="40.14426" lon="-1.68858">
        <ele>1283.6</ele>
        <time>2021-10-09 20:03:17</time>
      </trkpt>
      <trkpt lat="40.14426" lon="-1.68849">
        <ele>1283</ele>
        <time>2021-10-09 20:03:18</time>
      </trkpt>
      <trkpt lat="40.14427" lon="-1.68841">
        <ele>1282.8</ele>
        <time>2021-10-09 20:03:19</time>
      </trkpt>
      <trkpt lat="40.14428" lon="-1.68832">
        <ele>1282.4</ele>
        <time>2021-10-09 20:03:20</time>
      </trkpt>
      <trkpt lat="40.14431" lon="-1.68824">
        <ele>1281.8</ele>
        <time>2021-10-09 20:03:21</time>
      </trkpt>
      <trkpt lat="40.14434" lon="-1.68816">
        <ele>1281.2</ele>
        <time>2021-10-09 20:03:22</time>
      </trkpt>
      <trkpt lat="40.14438" lon="-1.68808">
        <ele>1280.8</ele>
        <time>2021-10-09 20:03:23</time>
      </trkpt>
      <trkpt lat="40.14443" lon="-1.68802">
        <ele>1280.2</ele>
        <time>2021-10-09 20:03:24</time>
      </trkpt>
      <trkpt lat="40.14449" lon="-1.68799">
        <ele>1279.6</ele>
        <time>2021-10-09 20:03:25</time>
      </trkpt>
      <trkpt lat="40.14455" lon="-1.68798">
        <ele>1279.2</ele>
        <time>2021-10-09 20:03:26</time>
      </trkpt>
      <trkpt lat="40.14461" lon="-1.68796">
        <ele>1278.8</ele>
        <time>2021-10-09 20:03:27</time>
      </trkpt>
      <trkpt lat="40.14466" lon="-1.68795">
        <ele>1278.4</ele>
        <time>2021-10-09 20:03:28</time>
      </trkpt>
      <trkpt lat="40.14472" lon="-1.68793">
        <ele>1278.2</ele>
        <time>2021-10-09 20:03:29</time>
      </trkpt>
      <trkpt lat="40.14477" lon="-1.68792">
        <ele>1277.6</ele>
        <time>2021-10-09 20:03:30</time>
      </trkpt>
      <trkpt lat="40.14482" lon="-1.68789">
        <ele>1277.2</ele>
        <time>2021-10-09 20:03:31</time>
      </trkpt>
      <trkpt lat="40.14487" lon="-1.68786">
        <ele>1276.8</ele>
        <time>2021-10-09 20:03:32</time>
      </trkpt>
      <trkpt lat="40.1449" lon="-1.68783">
        <ele>1276.4</ele>
        <time>2021-10-09 20:03:33</time>
      </trkpt>
      <trkpt lat="40.14494" lon="-1.6878">
        <ele>1276</ele>
        <time>2021-10-09 20:03:34</time>
      </trkpt>
      <trkpt lat="40.14498" lon="-1.68778">
        <ele>1275.6</ele>
        <time>2021-10-09 20:03:35</time>
      </trkpt>
      <trkpt lat="40.14499" lon="-1.68772">
        <ele>1275.2</ele>
        <time>2021-10-09 20:03:36</time>
      </trkpt>
      <trkpt lat="40.145" lon="-1.68768">
        <ele>1275</ele>
        <time>2021-10-09 20:03:37</time>
      </trkpt>
      <trkpt lat="40.14501" lon="-1.68764">
        <ele>1274.6</ele>
        <time>2021-10-09 20:03:38</time>
      </trkpt>
      <trkpt lat="40.14501" lon="-1.68759">
        <ele>1274</ele>
        <time>2021-10-09 20:03:39</time>
      </trkpt>
      <trkpt lat="40.14502" lon="-1.68754">
        <ele>1273.8</ele>
        <time>2021-10-09 20:03:40</time>
      </trkpt>
      <trkpt lat="40.14503" lon="-1.68749">
        <ele>1273.4</ele>
        <time>2021-10-09 20:03:41</time>
      </trkpt>
      <trkpt lat="40.14504" lon="-1.68744">
        <ele>1273.2</ele>
        <time>2021-10-09 20:03:42</time>
      </trkpt>
      <trkpt lat="40.14507" lon="-1.68738">
        <ele>1273</ele>
        <time>2021-10-09 20:03:43</time>
      </trkpt>
      <trkpt lat="40.14509" lon="-1.68733">
        <ele>1272.8</ele>
        <time>2021-10-09 20:03:44</time>
      </trkpt>
      <trkpt lat="40.14512" lon="-1.68728">
        <ele>1272.4</ele>
        <time>2021-10-09 20:03:45</time>
      </trkpt>
      <trkpt lat="40.14515" lon="-1.68723">
        <ele>1272.2</ele>
        <time>2021-10-09 20:03:46</time>
      </trkpt>
      <trkpt lat="40.14518" lon="-1.68717">
        <ele>1272.2</ele>
        <time>2021-10-09 20:03:47</time>
      </trkpt>
      <trkpt lat="40.14523" lon="-1.68712">
        <ele>1271.6</ele>
        <time>2021-10-09 20:03:48</time>
      </trkpt>
      <trkpt lat="40.14525" lon="-1.68706">
        <ele>1271.6</ele>
        <time>2021-10-09 20:03:49</time>
      </trkpt>
      <trkpt lat="40.14528" lon="-1.687">
        <ele>1271.4</ele>
        <time>2021-10-09 20:03:50</time>
      </trkpt>
      <trkpt lat="40.14531" lon="-1.68694">
        <ele>1271.4</ele>
        <time>2021-10-09 20:03:51</time>
      </trkpt>
      <trkpt lat="40.14534" lon="-1.68687">
        <ele>1271</ele>
        <time>2021-10-09 20:03:52</time>
      </trkpt>
      <trkpt lat="40.14538" lon="-1.68681">
        <ele>1271</ele>
        <time>2021-10-09 20:03:53</time>
      </trkpt>
      <trkpt lat="40.14541" lon="-1.68675">
        <ele>1270.8</ele>
        <time>2021-10-09 20:03:54</time>
      </trkpt>
      <trkpt lat="40.14543" lon="-1.68671">
        <ele>1270.8</ele>
        <time>2021-10-09 20:03:55</time>
      </trkpt>
      <trkpt lat="40.14546" lon="-1.68667">
        <ele>1270.6</ele>
        <time>2021-10-09 20:03:56</time>
      </trkpt>
      <trkpt lat="40.14548" lon="-1.68662">
        <ele>1270.6</ele>
        <time>2021-10-09 20:03:57</time>
      </trkpt>
      <trkpt lat="40.1455" lon="-1.68658">
        <ele>1270.6</ele>
        <time>2021-10-09 20:03:58</time>
      </trkpt>
      <trkpt lat="40.14552" lon="-1.68655">
        <ele>1270.2</ele>
        <time>2021-10-09 20:03:59</time>
      </trkpt>
      <trkpt lat="40.14553" lon="-1.68652">
        <ele>1270.2</ele>
        <time>2021-10-09 20:04:00</time>
      </trkpt>
      <trkpt lat="40.14554" lon="-1.6865">
        <ele>1270.2</ele>
        <time>2021-10-09 20:04:01</time>
      </trkpt>
      <trkpt lat="40.14555" lon="-1.6865">
        <ele>1270</ele>
        <time>2021-10-09 20:04:02</time>
      </trkpt>
      <trkpt lat="40.14557" lon="-1.68651">
        <ele>1270</ele>
        <time>2021-10-09 20:04:03</time>
      </trkpt>
      <trkpt lat="40.14558" lon="-1.68653">
        <ele>1270</ele>
        <time>2021-10-09 20:04:04</time>
      </trkpt>
      <trkpt lat="40.14559" lon="-1.68655">
        <ele>1270</ele>
        <time>2021-10-09 20:04:05</time>
      </trkpt>
      <trkpt lat="40.14561" lon="-1.68656">
        <ele>1270</ele>
        <time>2021-10-09 20:04:06</time>
      </trkpt>
      <trkpt lat="40.14562" lon="-1.68658">
        <ele>1270</ele>
        <time>2021-10-09 20:04:07</time>
      </trkpt>
      <trkpt lat="40.14563" lon="-1.6866">
        <ele>1270</ele>
        <time>2021-10-09 20:04:08</time>
      </trkpt>
      <trkpt lat="40.14565" lon="-1.68661">
        <ele>1270</ele>
        <time>2021-10-09 20:04:09</time>
      </trkpt>
      <trkpt lat="40.14566" lon="-1.68662">
        <ele>1270.2</ele>
        <time>2021-10-09 20:04:10</time>
      </trkpt>
      <trkpt lat="40.14567" lon="-1.68663">
        <ele>1270.2</ele>
        <time>2021-10-09 20:04:11</time>
      </trkpt>
      <trkpt lat="40.14568" lon="-1.68662">
        <ele>1270.6</ele>
        <time>2021-10-09 20:04:12</time>
      </trkpt>
      <trkpt lat="40.14569" lon="-1.68661">
        <ele>1270.6</ele>
        <time>2021-10-09 20:04:13</time>
      </trkpt>
      <trkpt lat="40.14571" lon="-1.68661">
        <ele>1270.8</ele>
        <time>2021-10-09 20:04:14</time>
      </trkpt>
      <trkpt lat="40.14572" lon="-1.6866">
        <ele>1270.8</ele>
        <time>2021-10-09 20:04:15</time>
      </trkpt>
      <trkpt lat="40.14574" lon="-1.68661">
        <ele>1271</ele>
        <time>2021-10-09 20:04:16</time>
      </trkpt>
      <trkpt lat="40.14575" lon="-1.68662">
        <ele>1271</ele>
        <time>2021-10-09 20:04:17</time>
      </trkpt>
      <trkpt lat="40.14577" lon="-1.68663">
        <ele>1271.4</ele>
        <time>2021-10-09 20:04:18</time>
      </trkpt>
      <trkpt lat="40.14578" lon="-1.68663">
        <ele>1271.4</ele>
        <time>2021-10-09 20:04:19</time>
      </trkpt>
      <trkpt lat="40.1458" lon="-1.68663">
        <ele>1271.6</ele>
        <time>2021-10-09 20:04:20</time>
      </trkpt>
      <trkpt lat="40.14581" lon="-1.68662">
        <ele>1271.6</ele>
        <time>2021-10-09 20:04:21</time>
      </trkpt>
      <trkpt lat="40.14583" lon="-1.6866">
        <ele>1271.8</ele>
        <time>2021-10-09 20:04:22</time>
      </trkpt>
      <trkpt lat="40.14583" lon="-1.68657">
        <ele>1271.8</ele>
        <time>2021-10-09 20:04:23</time>
      </trkpt>
      <trkpt lat="40.14584" lon="-1.68654">
        <ele>1271.8</ele>
        <time>2021-10-09 20:04:24</time>
      </trkpt>
      <trkpt lat="40.14585" lon="-1.68651">
        <ele>1271.8</ele>
        <time>2021-10-09 20:04:25</time>
      </trkpt>
      <trkpt lat="40.14586" lon="-1.68647">
        <ele>1271.8</ele>
        <time>2021-10-09 20:04:26</time>
      </trkpt>
      <trkpt lat="40.14586" lon="-1.68643">
        <ele>1271.8</ele>
        <time>2021-10-09 20:04:27</time>
      </trkpt>
      <trkpt lat="40.14586" lon="-1.68639">
        <ele>1271.6</ele>
        <time>2021-10-09 20:04:28</time>
      </trkpt>
      <trkpt lat="40.14586" lon="-1.68635">
        <ele>1271.2</ele>
        <time>2021-10-09 20:04:29</time>
      </trkpt>
      <trkpt lat="40.14587" lon="-1.68631">
        <ele>1271</ele>
        <time>2021-10-09 20:04:30</time>
      </trkpt>
      <trkpt lat="40.14587" lon="-1.68629">
        <ele>1270.6</ele>
        <time>2021-10-09 20:04:31</time>
      </trkpt>
      <trkpt lat="40.14587" lon="-1.68628">
        <ele>1270.2</ele>
        <time>2021-10-09 20:04:32</time>
      </trkpt>
      <trkpt lat="40.14588" lon="-1.68626">
        <ele>1269.8</ele>
        <time>2021-10-09 20:04:33</time>
      </trkpt>
      <trkpt lat="40.14588" lon="-1.68625">
        <ele>1269.6</ele>
        <time>2021-10-09 20:04:34</time>
      </trkpt>
      <trkpt lat="40.14588" lon="-1.68622">
        <ele>1269.4</ele>
        <time>2021-10-09 20:04:35</time>
      </trkpt>
      <trkpt lat="40.14587" lon="-1.6862">
        <ele>1269</ele>
        <time>2021-10-09 20:04:36</time>
      </trkpt>
      <trkpt lat="40.14587" lon="-1.68617">
        <ele>1268.6</ele>
        <time>2021-10-09 20:04:37</time>
      </trkpt>
      <trkpt lat="40.14586" lon="-1.68615">
        <ele>1268.2</ele>
        <time>2021-10-09 20:04:38</time>
      </trkpt>
      <trkpt lat="40.14587" lon="-1.68613">
        <ele>1267.8</ele>
        <time>2021-10-09 20:04:39</time>
      </trkpt>
      <trkpt lat="40.14587" lon="-1.68612">
        <ele>1267.6</ele>
        <time>2021-10-09 20:04:40</time>
      </trkpt>
      <trkpt lat="40.14588" lon="-1.68611">
        <ele>1267.2</ele>
        <time>2021-10-09 20:04:41</time>
      </trkpt>
      <trkpt lat="40.14592" lon="-1.68609">
        <ele>1267</ele>
        <time>2021-10-09 20:04:42</time>
      </trkpt>
      <trkpt lat="40.14595" lon="-1.6861">
        <ele>1266.8</ele>
        <time>2021-10-09 20:04:43</time>
      </trkpt>
      <trkpt lat="40.14597" lon="-1.68611">
        <ele>1266.8</ele>
        <time>2021-10-09 20:04:44</time>
      </trkpt>
      <trkpt lat="40.14599" lon="-1.68612">
        <ele>1266.8</ele>
        <time>2021-10-09 20:04:45</time>
      </trkpt>
      <trkpt lat="40.14601" lon="-1.68613">
        <ele>1266.8</ele>
        <time>2021-10-09 20:04:46</time>
      </trkpt>
      <trkpt lat="40.14604" lon="-1.68613">
        <ele>1266.8</ele>
        <time>2021-10-09 20:04:47</time>
      </trkpt>
      <trkpt lat="40.14606" lon="-1.68614">
        <ele>1266.8</ele>
        <time>2021-10-09 20:04:48</time>
      </trkpt>
      <trkpt lat="40.14608" lon="-1.68615">
        <ele>1267</ele>
        <time>2021-10-09 20:04:49</time>
      </trkpt>
      <trkpt lat="40.1461" lon="-1.68617">
        <ele>1267</ele>
        <time>2021-10-09 20:04:50</time>
      </trkpt>
      <trkpt lat="40.14612" lon="-1.68619">
        <ele>1267.4</ele>
        <time>2021-10-09 20:04:51</time>
      </trkpt>
      <trkpt lat="40.14613" lon="-1.68622">
        <ele>1267.4</ele>
        <time>2021-10-09 20:04:52</time>
      </trkpt>
      <trkpt lat="40.14614" lon="-1.68624">
        <ele>1267.8</ele>
        <time>2021-10-09 20:04:53</time>
      </trkpt>
      <trkpt lat="40.14616" lon="-1.68627">
        <ele>1267.8</ele>
        <time>2021-10-09 20:04:54</time>
      </trkpt>
      <trkpt lat="40.14617" lon="-1.68629">
        <ele>1268</ele>
        <time>2021-10-09 20:04:55</time>
      </trkpt>
      <trkpt lat="40.14618" lon="-1.68631">
        <ele>1268</ele>
        <time>2021-10-09 20:04:56</time>
      </trkpt>
      <trkpt lat="40.1462" lon="-1.68633">
        <ele>1268.2</ele>
        <time>2021-10-09 20:04:57</time>
      </trkpt>
      <trkpt lat="40.14622" lon="-1.68635">
        <ele>1268.2</ele>
        <time>2021-10-09 20:04:58</time>
      </trkpt>
      <trkpt lat="40.14623" lon="-1.68637">
        <ele>1268.4</ele>
        <time>2021-10-09 20:04:59</time>
      </trkpt>
      <trkpt lat="40.14625" lon="-1.68639">
        <ele>1268.4</ele>
        <time>2021-10-09 20:05:00</time>
      </trkpt>
      <trkpt lat="40.14626" lon="-1.68641">
        <ele>1268.4</ele>
        <time>2021-10-09 20:05:01</time>
      </trkpt>
      <trkpt lat="40.14628" lon="-1.68644">
        <ele>1268.8</ele>
        <time>2021-10-09 20:05:02</time>
      </trkpt>
      <trkpt lat="40.14628" lon="-1.68646">
        <ele>1268.8</ele>
        <time>2021-10-09 20:05:03</time>
      </trkpt>
      <trkpt lat="40.14629" lon="-1.68648">
        <ele>1268.8</ele>
        <time>2021-10-09 20:05:04</time>
      </trkpt>
      <trkpt lat="40.14629" lon="-1.68651">
        <ele>1269</ele>
        <time>2021-10-09 20:05:05</time>
      </trkpt>
      <trkpt lat="40.14629" lon="-1.68654">
        <ele>1269</ele>
        <time>2021-10-09 20:05:06</time>
      </trkpt>
      <trkpt lat="40.14629" lon="-1.68656">
        <ele>1269.4</ele>
        <time>2021-10-09 20:05:07</time>
      </trkpt>
      <trkpt lat="40.1463" lon="-1.68659">
        <ele>1269.4</ele>
        <time>2021-10-09 20:05:08</time>
      </trkpt>
      <trkpt lat="40.1463" lon="-1.68663">
        <ele>1269.6</ele>
        <time>2021-10-09 20:05:09</time>
      </trkpt>
      <trkpt lat="40.14629" lon="-1.68665">
        <ele>1269.6</ele>
        <time>2021-10-09 20:05:10</time>
      </trkpt>
      <trkpt lat="40.14629" lon="-1.68668">
        <ele>1269.8</ele>
        <time>2021-10-09 20:05:11</time>
      </trkpt>
      <trkpt lat="40.14628" lon="-1.68671">
        <ele>1269.8</ele>
        <time>2021-10-09 20:05:12</time>
      </trkpt>
      <trkpt lat="40.14628" lon="-1.68673">
        <ele>1270.2</ele>
        <time>2021-10-09 20:05:13</time>
      </trkpt>
      <trkpt lat="40.14628" lon="-1.68676">
        <ele>1270.4</ele>
        <time>2021-10-09 20:05:14</time>
      </trkpt>
      <trkpt lat="40.14627" lon="-1.68678">
        <ele>1270.4</ele>
        <time>2021-10-09 20:05:15</time>
      </trkpt>
      <trkpt lat="40.14626" lon="-1.68679">
        <ele>1270.8</ele>
        <time>2021-10-09 20:05:16</time>
      </trkpt>
      <trkpt lat="40.14625" lon="-1.68681">
        <ele>1270.8</ele>
        <time>2021-10-09 20:05:17</time>
      </trkpt>
      <trkpt lat="40.14623" lon="-1.68683">
        <ele>1271</ele>
        <time>2021-10-09 20:05:18</time>
      </trkpt>
      <trkpt lat="40.14621" lon="-1.68684">
        <ele>1271</ele>
        <time>2021-10-09 20:05:19</time>
      </trkpt>
      <trkpt lat="40.14619" lon="-1.68685">
        <ele>1271.2</ele>
        <time>2021-10-09 20:05:20</time>
      </trkpt>
      <trkpt lat="40.14617" lon="-1.68686">
        <ele>1271.2</ele>
        <time>2021-10-09 20:05:21</time>
      </trkpt>
      <trkpt lat="40.14615" lon="-1.68687">
        <ele>1271.6</ele>
        <time>2021-10-09 20:05:22</time>
      </trkpt>
      <trkpt lat="40.14613" lon="-1.68688">
        <ele>1272</ele>
        <time>2021-10-09 20:05:23</time>
      </trkpt>
      <trkpt lat="40.14611" lon="-1.68689">
        <ele>1272.2</ele>
        <time>2021-10-09 20:05:24</time>
      </trkpt>
      <trkpt lat="40.1461" lon="-1.68691">
        <ele>1272.4</ele>
        <time>2021-10-09 20:05:25</time>
      </trkpt>
      <trkpt lat="40.14608" lon="-1.68692">
        <ele>1272.6</ele>
        <time>2021-10-09 20:05:26</time>
      </trkpt>
      <trkpt lat="40.14606" lon="-1.68693">
        <ele>1272.6</ele>
        <time>2021-10-09 20:05:27</time>
      </trkpt>
      <trkpt lat="40.14604" lon="-1.68694">
        <ele>1273</ele>
        <time>2021-10-09 20:05:28</time>
      </trkpt>
      <trkpt lat="40.14602" lon="-1.68694">
        <ele>1273</ele>
        <time>2021-10-09 20:05:29</time>
      </trkpt>
      <trkpt lat="40.146" lon="-1.68695">
        <ele>1273.2</ele>
        <time>2021-10-09 20:05:30</time>
      </trkpt>
      <trkpt lat="40.14598" lon="-1.68696">
        <ele>1273.2</ele>
        <time>2021-10-09 20:05:31</time>
      </trkpt>
      <trkpt lat="40.14596" lon="-1.68697">
        <ele>1273.2</ele>
        <time>2021-10-09 20:05:32</time>
      </trkpt>
      <trkpt lat="40.14593" lon="-1.68698">
        <ele>1273.6</ele>
        <time>2021-10-09 20:05:33</time>
      </trkpt>
      <trkpt lat="40.14591" lon="-1.68698">
        <ele>1273.6</ele>
        <time>2021-10-09 20:05:34</time>
      </trkpt>
      <trkpt lat="40.14589" lon="-1.68699">
        <ele>1273.8</ele>
        <time>2021-10-09 20:05:35</time>
      </trkpt>
      <trkpt lat="40.14587" lon="-1.68701">
        <ele>1273.8</ele>
        <time>2021-10-09 20:05:36</time>
      </trkpt>
      <trkpt lat="40.14584" lon="-1.68702">
        <ele>1273.8</ele>
        <time>2021-10-09 20:05:37</time>
      </trkpt>
      <trkpt lat="40.14581" lon="-1.68704">
        <ele>1273.8</ele>
        <time>2021-10-09 20:05:38</time>
      </trkpt>
      <trkpt lat="40.14578" lon="-1.68706">
        <ele>1273.8</ele>
        <time>2021-10-09 20:05:39</time>
      </trkpt>
      <trkpt lat="40.14576" lon="-1.68708">
        <ele>1273.8</ele>
        <time>2021-10-09 20:05:40</time>
      </trkpt>
      <trkpt lat="40.14573" lon="-1.68711">
        <ele>1273.8</ele>
        <time>2021-10-09 20:05:41</time>
      </trkpt>
      <trkpt lat="40.1457" lon="-1.68713">
        <ele>1273.8</ele>
        <time>2021-10-09 20:05:42</time>
      </trkpt>
      <trkpt lat="40.14569" lon="-1.68716">
        <ele>1273.8</ele>
        <time>2021-10-09 20:05:43</time>
      </trkpt>
      <trkpt lat="40.14566" lon="-1.68718">
        <ele>1273.8</ele>
        <time>2021-10-09 20:05:44</time>
      </trkpt>
      <trkpt lat="40.14564" lon="-1.68721">
        <ele>1273.8</ele>
        <time>2021-10-09 20:05:45</time>
      </trkpt>
      <trkpt lat="40.14562" lon="-1.68724">
        <ele>1274</ele>
        <time>2021-10-09 20:05:46</time>
      </trkpt>
      <trkpt lat="40.14561" lon="-1.68727">
        <ele>1274</ele>
        <time>2021-10-09 20:05:47</time>
      </trkpt>
      <trkpt lat="40.1456" lon="-1.68731">
        <ele>1274</ele>
        <time>2021-10-09 20:05:48</time>
      </trkpt>
      <trkpt lat="40.1456" lon="-1.68734">
        <ele>1274</ele>
        <time>2021-10-09 20:05:49</time>
      </trkpt>
      <trkpt lat="40.1456" lon="-1.68736">
        <ele>1274</ele>
        <time>2021-10-09 20:05:50</time>
      </trkpt>
      <trkpt lat="40.1456" lon="-1.68739">
        <ele>1274</ele>
        <time>2021-10-09 20:05:51</time>
      </trkpt>
      <trkpt lat="40.1456" lon="-1.68742">
        <ele>1274</ele>
        <time>2021-10-09 20:05:52</time>
      </trkpt>
      <trkpt lat="40.14559" lon="-1.68746">
        <ele>1274</ele>
        <time>2021-10-09 20:05:53</time>
      </trkpt>
      <trkpt lat="40.14557" lon="-1.68748">
        <ele>1274</ele>
        <time>2021-10-09 20:05:54</time>
      </trkpt>
      <trkpt lat="40.14555" lon="-1.68751">
        <ele>1274.2</ele>
        <time>2021-10-09 20:05:55</time>
      </trkpt>
      <trkpt lat="40.14554" lon="-1.68754">
        <ele>1274.2</ele>
        <time>2021-10-09 20:05:56</time>
      </trkpt>
      <trkpt lat="40.14553" lon="-1.68758">
        <ele>1274.6</ele>
        <time>2021-10-09 20:05:57</time>
      </trkpt>
      <trkpt lat="40.14552" lon="-1.68761">
        <ele>1274.6</ele>
        <time>2021-10-09 20:05:58</time>
      </trkpt>
      <trkpt lat="40.1455" lon="-1.68765">
        <ele>1274.8</ele>
        <time>2021-10-09 20:05:59</time>
      </trkpt>
      <trkpt lat="40.14549" lon="-1.68768">
        <ele>1274.8</ele>
        <time>2021-10-09 20:06:00</time>
      </trkpt>
      <trkpt lat="40.14547" lon="-1.6877">
        <ele>1275</ele>
        <time>2021-10-09 20:06:01</time>
      </trkpt>
      <trkpt lat="40.14546" lon="-1.68773">
        <ele>1275</ele>
        <time>2021-10-09 20:06:02</time>
      </trkpt>
      <trkpt lat="40.14545" lon="-1.68776">
        <ele>1275.4</ele>
        <time>2021-10-09 20:06:03</time>
      </trkpt>
      <trkpt lat="40.14544" lon="-1.68779">
        <ele>1275.4</ele>
        <time>2021-10-09 20:06:04</time>
      </trkpt>
      <trkpt lat="40.14543" lon="-1.68781">
        <ele>1275.8</ele>
        <time>2021-10-09 20:06:05</time>
      </trkpt>
      <trkpt lat="40.14542" lon="-1.68784">
        <ele>1276</ele>
        <time>2021-10-09 20:06:06</time>
      </trkpt>
      <trkpt lat="40.14541" lon="-1.68786">
        <ele>1276</ele>
        <time>2021-10-09 20:06:07</time>
      </trkpt>
      <trkpt lat="40.1454" lon="-1.68789">
        <ele>1276.4</ele>
        <time>2021-10-09 20:06:08</time>
      </trkpt>
      <trkpt lat="40.14538" lon="-1.68791">
        <ele>1276.4</ele>
        <time>2021-10-09 20:06:09</time>
      </trkpt>
      <trkpt lat="40.14537" lon="-1.68793">
        <ele>1276.6</ele>
        <time>2021-10-09 20:06:10</time>
      </trkpt>
      <trkpt lat="40.14536" lon="-1.68795">
        <ele>1276.6</ele>
        <time>2021-10-09 20:06:11</time>
      </trkpt>
      <trkpt lat="40.14534" lon="-1.68798">
        <ele>1277</ele>
        <time>2021-10-09 20:06:12</time>
      </trkpt>
      <trkpt lat="40.14532" lon="-1.688">
        <ele>1277</ele>
        <time>2021-10-09 20:06:13</time>
      </trkpt>
      <trkpt lat="40.1453" lon="-1.68801">
        <ele>1277</ele>
        <time>2021-10-09 20:06:14</time>
      </trkpt>
      <trkpt lat="40.14528" lon="-1.68803">
        <ele>1277</ele>
        <time>2021-10-09 20:06:15</time>
      </trkpt>
      <trkpt lat="40.14526" lon="-1.68804">
        <ele>1277.4</ele>
        <time>2021-10-09 20:06:16</time>
      </trkpt>
      <trkpt lat="40.14523" lon="-1.68806">
        <ele>1277.4</ele>
        <time>2021-10-09 20:06:17</time>
      </trkpt>
      <trkpt lat="40.1452" lon="-1.68808">
        <ele>1277.4</ele>
        <time>2021-10-09 20:06:18</time>
      </trkpt>
      <trkpt lat="40.14517" lon="-1.6881">
        <ele>1277.6</ele>
        <time>2021-10-09 20:06:19</time>
      </trkpt>
      <trkpt lat="40.14514" lon="-1.68813">
        <ele>1277.6</ele>
        <time>2021-10-09 20:06:20</time>
      </trkpt>
      <trkpt lat="40.14511" lon="-1.68815">
        <ele>1277.6</ele>
        <time>2021-10-09 20:06:21</time>
      </trkpt>
      <trkpt lat="40.14509" lon="-1.68818">
        <ele>1277.6</ele>
        <time>2021-10-09 20:06:22</time>
      </trkpt>
      <trkpt lat="40.14508" lon="-1.68821">
        <ele>1277.6</ele>
        <time>2021-10-09 20:06:23</time>
      </trkpt>
      <trkpt lat="40.14507" lon="-1.68824">
        <ele>1277.6</ele>
        <time>2021-10-09 20:06:24</time>
      </trkpt>
      <trkpt lat="40.14507" lon="-1.68828">
        <ele>1277.6</ele>
        <time>2021-10-09 20:06:25</time>
      </trkpt>
      <trkpt lat="40.14507" lon="-1.68831">
        <ele>1278</ele>
        <time>2021-10-09 20:06:26</time>
      </trkpt>
      <trkpt lat="40.14507" lon="-1.68835">
        <ele>1278</ele>
        <time>2021-10-09 20:06:27</time>
      </trkpt>
      <trkpt lat="40.14507" lon="-1.68838">
        <ele>1278.2</ele>
        <time>2021-10-09 20:06:28</time>
      </trkpt>
      <trkpt lat="40.14507" lon="-1.68841">
        <ele>1278.4</ele>
        <time>2021-10-09 20:06:29</time>
      </trkpt>
      <trkpt lat="40.14508" lon="-1.68844">
        <ele>1278.8</ele>
        <time>2021-10-09 20:06:30</time>
      </trkpt>
      <trkpt lat="40.14508" lon="-1.68847">
        <ele>1279</ele>
        <time>2021-10-09 20:06:31</time>
      </trkpt>
      <trkpt lat="40.14508" lon="-1.6885">
        <ele>1279.4</ele>
        <time>2021-10-09 20:06:32</time>
      </trkpt>
      <trkpt lat="40.14508" lon="-1.68853">
        <ele>1279.6</ele>
        <time>2021-10-09 20:06:33</time>
      </trkpt>
      <trkpt lat="40.14508" lon="-1.68855">
        <ele>1279.8</ele>
        <time>2021-10-09 20:06:34</time>
      </trkpt>
      <trkpt lat="40.14507" lon="-1.68856">
        <ele>1280</ele>
        <time>2021-10-09 20:06:35</time>
      </trkpt>
      <trkpt lat="40.14507" lon="-1.68858">
        <ele>1280.2</ele>
        <time>2021-10-09 20:06:36</time>
      </trkpt>
      <trkpt lat="40.14506" lon="-1.6886">
        <ele>1280.6</ele>
        <time>2021-10-09 20:06:37</time>
      </trkpt>
      <trkpt lat="40.14506" lon="-1.68862">
        <ele>1280.8</ele>
        <time>2021-10-09 20:06:38</time>
      </trkpt>
      <trkpt lat="40.14506" lon="-1.68865">
        <ele>1281</ele>
        <time>2021-10-09 20:06:39</time>
      </trkpt>
      <trkpt lat="40.14507" lon="-1.68868">
        <ele>1281.2</ele>
        <time>2021-10-09 20:06:40</time>
      </trkpt>
      <trkpt lat="40.14506" lon="-1.6887">
        <ele>1281.6</ele>
        <time>2021-10-09 20:06:41</time>
      </trkpt>
      <trkpt lat="40.14506" lon="-1.68873">
        <ele>1281.8</ele>
        <time>2021-10-09 20:06:42</time>
      </trkpt>
      <trkpt lat="40.14506" lon="-1.68876">
        <ele>1282</ele>
        <time>2021-10-09 20:06:43</time>
      </trkpt>
      <trkpt lat="40.14506" lon="-1.68879">
        <ele>1282.4</ele>
        <time>2021-10-09 20:06:44</time>
      </trkpt>
      <trkpt lat="40.14506" lon="-1.68883">
        <ele>1282.8</ele>
        <time>2021-10-09 20:06:45</time>
      </trkpt>
      <trkpt lat="40.14505" lon="-1.68886">
        <ele>1283.2</ele>
        <time>2021-10-09 20:06:46</time>
      </trkpt>
      <trkpt lat="40.14505" lon="-1.68888">
        <ele>1283.4</ele>
        <time>2021-10-09 20:06:47</time>
      </trkpt>
      <trkpt lat="40.14505" lon="-1.68891">
        <ele>1283.8</ele>
        <time>2021-10-09 20:06:48</time>
      </trkpt>
      <trkpt lat="40.14504" lon="-1.68894">
        <ele>1284</ele>
        <time>2021-10-09 20:06:49</time>
      </trkpt>
      <trkpt lat="40.14504" lon="-1.68896">
        <ele>1284.4</ele>
        <time>2021-10-09 20:06:50</time>
      </trkpt>
      <trkpt lat="40.14504" lon="-1.68897">
        <ele>1284.6</ele>
        <time>2021-10-09 20:06:51</time>
      </trkpt>
      <trkpt lat="40.14504" lon="-1.68899">
        <ele>1284.8</ele>
        <time>2021-10-09 20:06:52</time>
      </trkpt>
      <trkpt lat="40.14504" lon="-1.689">
        <ele>1284.8</ele>
        <time>2021-10-09 20:06:53</time>
      </trkpt>
      <trkpt lat="40.14505" lon="-1.68901">
        <ele>1285.2</ele>
        <time>2021-10-09 20:06:54</time>
      </trkpt>
      <trkpt lat="40.14506" lon="-1.68902">
        <ele>1285.2</ele>
        <time>2021-10-09 20:06:55</time>
      </trkpt>
      <trkpt lat="40.14506" lon="-1.68904">
        <ele>1285.4</ele>
        <time>2021-10-09 20:06:56</time>
      </trkpt>
      <trkpt lat="40.14507" lon="-1.68906">
        <ele>1285.4</ele>
        <time>2021-10-09 20:06:57</time>
      </trkpt>
      <trkpt lat="40.14507" lon="-1.68908">
        <ele>1285.4</ele>
        <time>2021-10-09 20:06:58</time>
      </trkpt>
      <trkpt lat="40.14507" lon="-1.68909">
        <ele>1285.4</ele>
        <time>2021-10-09 20:06:59</time>
      </trkpt>
      <trkpt lat="40.14508" lon="-1.6891">
        <ele>1285.6</ele>
        <time>2021-10-09 20:07:00</time>
      </trkpt>
      <trkpt lat="40.14508" lon="-1.68912">
        <ele>1285.6</ele>
        <time>2021-10-09 20:07:01</time>
      </trkpt>
      <trkpt lat="40.14509" lon="-1.68914">
        <ele>1285.6</ele>
        <time>2021-10-09 20:07:02</time>
      </trkpt>
      <trkpt lat="40.14509" lon="-1.68915">
        <ele>1285.8</ele>
        <time>2021-10-09 20:07:03</time>
      </trkpt>
      <trkpt lat="40.14509" lon="-1.68917">
        <ele>1285.8</ele>
        <time>2021-10-09 20:07:04</time>
      </trkpt>
      <trkpt lat="40.14509" lon="-1.68918">
        <ele>1285.8</ele>
        <time>2021-10-09 20:07:05</time>
      </trkpt>
      <trkpt lat="40.1451" lon="-1.6892">
        <ele>1285.8</ele>
        <time>2021-10-09 20:07:06</time>
      </trkpt>
      <trkpt lat="40.1451" lon="-1.68922">
        <ele>1285.8</ele>
        <time>2021-10-09 20:07:07</time>
      </trkpt>
      <trkpt lat="40.1451" lon="-1.68924">
        <ele>1285.8</ele>
        <time>2021-10-09 20:07:08</time>
      </trkpt>
      <trkpt lat="40.14511" lon="-1.68926">
        <ele>1285.4</ele>
        <time>2021-10-09 20:07:09</time>
      </trkpt>
      <trkpt lat="40.14511" lon="-1.68928">
        <ele>1285.4</ele>
        <time>2021-10-09 20:07:10</time>
      </trkpt>
      <trkpt lat="40.14511" lon="-1.6893">
        <ele>1286</ele>
        <time>2021-10-09 20:07:11</time>
      </trkpt>
      <trkpt lat="40.14513" lon="-1.68937">
        <ele>1286.6</ele>
        <time>2021-10-09 20:07:12</time>
      </trkpt>
      <trkpt lat="40.14514" lon="-1.6894">
        <ele>1286.6</ele>
        <time>2021-10-09 20:07:13</time>
      </trkpt>
      <trkpt lat="40.14515" lon="-1.68942">
        <ele>1286.6</ele>
        <time>2021-10-09 20:07:14</time>
      </trkpt>
      <trkpt lat="40.14516" lon="-1.68944">
        <ele>1286.8</ele>
        <time>2021-10-09 20:07:15</time>
      </trkpt>
      <trkpt lat="40.14516" lon="-1.68946">
        <ele>1286.8</ele>
        <time>2021-10-09 20:07:16</time>
      </trkpt>
      <trkpt lat="40.14517" lon="-1.68948">
        <ele>1287</ele>
        <time>2021-10-09 20:07:17</time>
      </trkpt>
      <trkpt lat="40.14518" lon="-1.68951">
        <ele>1287</ele>
        <time>2021-10-09 20:07:18</time>
      </trkpt>
      <trkpt lat="40.14518" lon="-1.68953">
        <ele>1287.4</ele>
        <time>2021-10-09 20:07:19</time>
      </trkpt>
      <trkpt lat="40.14519" lon="-1.68956">
        <ele>1287.4</ele>
        <time>2021-10-09 20:07:20</time>
      </trkpt>
      <trkpt lat="40.14519" lon="-1.68958">
        <ele>1287.4</ele>
        <time>2021-10-09 20:07:21</time>
      </trkpt>
      <trkpt lat="40.1452" lon="-1.6896">
        <ele>1287.6</ele>
        <time>2021-10-09 20:07:22</time>
      </trkpt>
      <trkpt lat="40.1452" lon="-1.68963">
        <ele>1287.6</ele>
        <time>2021-10-09 20:07:23</time>
      </trkpt>
      <trkpt lat="40.14521" lon="-1.68965">
        <ele>1287.8</ele>
        <time>2021-10-09 20:07:24</time>
      </trkpt>
      <trkpt lat="40.14522" lon="-1.68967">
        <ele>1287.8</ele>
        <time>2021-10-09 20:07:25</time>
      </trkpt>
      <trkpt lat="40.14523" lon="-1.6897">
        <ele>1287.8</ele>
        <time>2021-10-09 20:07:26</time>
      </trkpt>
      <trkpt lat="40.14523" lon="-1.68972">
        <ele>1287.8</ele>
        <time>2021-10-09 20:07:27</time>
      </trkpt>
      <trkpt lat="40.14524" lon="-1.68974">
        <ele>1287.8</ele>
        <time>2021-10-09 20:07:28</time>
      </trkpt>
      <trkpt lat="40.14525" lon="-1.68979">
        <ele>1288.2</ele>
        <time>2021-10-09 20:07:29</time>
      </trkpt>
      <trkpt lat="40.14526" lon="-1.68981">
        <ele>1288.2</ele>
        <time>2021-10-09 20:07:30</time>
      </trkpt>
      <trkpt lat="40.14527" lon="-1.68983">
        <ele>1288.2</ele>
        <time>2021-10-09 20:07:31</time>
      </trkpt>
      <trkpt lat="40.14528" lon="-1.68986">
        <ele>1288.2</ele>
        <time>2021-10-09 20:07:32</time>
      </trkpt>
      <trkpt lat="40.14528" lon="-1.68989">
        <ele>1288.2</ele>
        <time>2021-10-09 20:07:33</time>
      </trkpt>
      <trkpt lat="40.14529" lon="-1.68991">
        <ele>1288.2</ele>
        <time>2021-10-09 20:07:34</time>
      </trkpt>
      <trkpt lat="40.14531" lon="-1.68994">
        <ele>1288.4</ele>
        <time>2021-10-09 20:07:35</time>
      </trkpt>
      <trkpt lat="40.14533" lon="-1.68996">
        <ele>1288.4</ele>
        <time>2021-10-09 20:07:36</time>
      </trkpt>
      <trkpt lat="40.14535" lon="-1.68997">
        <ele>1288.4</ele>
        <time>2021-10-09 20:07:37</time>
      </trkpt>
      <trkpt lat="40.14537" lon="-1.68996">
        <ele>1288.4</ele>
        <time>2021-10-09 20:07:38</time>
      </trkpt>
      <trkpt lat="40.14539" lon="-1.68994">
        <ele>1288.4</ele>
        <time>2021-10-09 20:07:39</time>
      </trkpt>
      <trkpt lat="40.14539" lon="-1.68992">
        <ele>1288.4</ele>
        <time>2021-10-09 20:07:40</time>
      </trkpt>
      <trkpt lat="40.1454" lon="-1.6899">
        <ele>1288.6</ele>
        <time>2021-10-09 20:07:41</time>
      </trkpt>
      <trkpt lat="40.14541" lon="-1.68988">
        <ele>1288.6</ele>
        <time>2021-10-09 20:07:42</time>
      </trkpt>
      <trkpt lat="40.14542" lon="-1.68986">
        <ele>1288.6</ele>
        <time>2021-10-09 20:07:43</time>
      </trkpt>
      <trkpt lat="40.14542" lon="-1.68983">
        <ele>1288.6</ele>
        <time>2021-10-09 20:07:44</time>
      </trkpt>
      <trkpt lat="40.14543" lon="-1.68981">
        <ele>1288.6</ele>
        <time>2021-10-09 20:07:45</time>
      </trkpt>
      <trkpt lat="40.14544" lon="-1.68979">
        <ele>1288.8</ele>
        <time>2021-10-09 20:07:46</time>
      </trkpt>
      <trkpt lat="40.14545" lon="-1.68978">
        <ele>1288.8</ele>
        <time>2021-10-09 20:07:47</time>
      </trkpt>
      <trkpt lat="40.14547" lon="-1.68977">
        <ele>1288.8</ele>
        <time>2021-10-09 20:07:48</time>
      </trkpt>
      <trkpt lat="40.14548" lon="-1.68977">
        <ele>1288.8</ele>
        <time>2021-10-09 20:07:49</time>
      </trkpt>
      <trkpt lat="40.14549" lon="-1.68977">
        <ele>1288.8</ele>
        <time>2021-10-09 20:07:50</time>
      </trkpt>
      <trkpt lat="40.1455" lon="-1.68977">
        <ele>1288.8</ele>
        <time>2021-10-09 20:07:51</time>
      </trkpt>
      <trkpt lat="40.14552" lon="-1.68977">
        <ele>1288.8</ele>
        <time>2021-10-09 20:07:52</time>
      </trkpt>
      <trkpt lat="40.14553" lon="-1.68976">
        <ele>1288.8</ele>
        <time>2021-10-09 20:07:53</time>
      </trkpt>
      <trkpt lat="40.14555" lon="-1.68976">
        <ele>1288.8</ele>
        <time>2021-10-09 20:07:54</time>
      </trkpt>
      <trkpt lat="40.14556" lon="-1.68975">
        <ele>1288.8</ele>
        <time>2021-10-09 20:07:55</time>
      </trkpt>
      <trkpt lat="40.14557" lon="-1.68975">
        <ele>1288.8</ele>
        <time>2021-10-09 20:07:56</time>
      </trkpt>
      <trkpt lat="40.14559" lon="-1.68974">
        <ele>1288.8</ele>
        <time>2021-10-09 20:07:57</time>
      </trkpt>
      <trkpt lat="40.14561" lon="-1.68973">
        <ele>1288.8</ele>
        <time>2021-10-09 20:07:58</time>
      </trkpt>
      <trkpt lat="40.14562" lon="-1.68972">
        <ele>1288.8</ele>
        <time>2021-10-09 20:07:59</time>
      </trkpt>
      <trkpt lat="40.14564" lon="-1.68971">
        <ele>1288.8</ele>
        <time>2021-10-09 20:08:00</time>
      </trkpt>
      <trkpt lat="40.14566" lon="-1.68971">
        <ele>1288.8</ele>
        <time>2021-10-09 20:08:01</time>
      </trkpt>
      <trkpt lat="40.14568" lon="-1.68971">
        <ele>1288.8</ele>
        <time>2021-10-09 20:08:02</time>
      </trkpt>
      <trkpt lat="40.1457" lon="-1.68971">
        <ele>1288.8</ele>
        <time>2021-10-09 20:08:03</time>
      </trkpt>
      <trkpt lat="40.14572" lon="-1.6897">
        <ele>1288.8</ele>
        <time>2021-10-09 20:08:04</time>
      </trkpt>
      <trkpt lat="40.14574" lon="-1.68969">
        <ele>1288.8</ele>
        <time>2021-10-09 20:08:05</time>
      </trkpt>
      <trkpt lat="40.14576" lon="-1.68968">
        <ele>1288.8</ele>
        <time>2021-10-09 20:08:06</time>
      </trkpt>
      <trkpt lat="40.14578" lon="-1.68967">
        <ele>1288.8</ele>
        <time>2021-10-09 20:08:07</time>
      </trkpt>
      <trkpt lat="40.1458" lon="-1.68966">
        <ele>1288.8</ele>
        <time>2021-10-09 20:08:08</time>
      </trkpt>
      <trkpt lat="40.14581" lon="-1.68965">
        <ele>1288.8</ele>
        <time>2021-10-09 20:08:09</time>
      </trkpt>
      <trkpt lat="40.14582" lon="-1.68965">
        <ele>1288.8</ele>
        <time>2021-10-09 20:08:10</time>
      </trkpt>
      <trkpt lat="40.14584" lon="-1.68965">
        <ele>1288.8</ele>
        <time>2021-10-09 20:08:11</time>
      </trkpt>
      <trkpt lat="40.14585" lon="-1.68965">
        <ele>1288.8</ele>
        <time>2021-10-09 20:08:12</time>
      </trkpt>
      <trkpt lat="40.14586" lon="-1.68964">
        <ele>1288.8</ele>
        <time>2021-10-09 20:08:13</time>
      </trkpt>
      <trkpt lat="40.14587" lon="-1.68962">
        <ele>1288.8</ele>
        <time>2021-10-09 20:08:14</time>
      </trkpt>
      <trkpt lat="40.14587" lon="-1.6896">
        <ele>1289</ele>
        <time>2021-10-09 20:08:15</time>
      </trkpt>
      <trkpt lat="40.14587" lon="-1.68959">
        <ele>1289</ele>
        <time>2021-10-09 20:08:16</time>
      </trkpt>
      <trkpt lat="40.14586" lon="-1.68959">
        <ele>1289</ele>
        <time>2021-10-09 20:08:17</time>
      </trkpt>
      <trkpt lat="40.14586" lon="-1.68959">
        <ele>1289</ele>
        <time>2021-10-09 20:08:18</time>
      </trkpt>
      <trkpt lat="40.14585" lon="-1.68959">
        <ele>1289</ele>
        <time>2021-10-09 20:08:19</time>
      </trkpt>
      <trkpt lat="40.14586" lon="-1.68958">
        <ele>1289</ele>
        <time>2021-10-09 20:08:20</time>
      </trkpt>
      <trkpt lat="40.14587" lon="-1.68958">
        <ele>1289</ele>
        <time>2021-10-09 20:08:21</time>
      </trkpt>
      <trkpt lat="40.14587" lon="-1.68957">
        <ele>1289</ele>
        <time>2021-10-09 20:08:22</time>
      </trkpt>
      <trkpt lat="40.14588" lon="-1.68956">
        <ele>1289</ele>
        <time>2021-10-09 20:08:23</time>
      </trkpt>
      <trkpt lat="40.14589" lon="-1.68955">
        <ele>1289</ele>
        <time>2021-10-09 20:08:24</time>
      </trkpt>
      <trkpt lat="40.1459" lon="-1.68954">
        <ele>1289</ele>
        <time>2021-10-09 20:08:25</time>
      </trkpt>
      <trkpt lat="40.1459" lon="-1.68953">
        <ele>1289</ele>
        <time>2021-10-09 20:08:26</time>
      </trkpt>
      <trkpt lat="40.1459" lon="-1.68953">
        <ele>1289</ele>
        <time>2021-10-09 20:08:27</time>
      </trkpt>
      <trkpt lat="40.1459" lon="-1.68952">
        <ele>1289</ele>
        <time>2021-10-09 20:08:28</time>
      </trkpt>
      <trkpt lat="40.1459" lon="-1.68952">
        <ele>1289</ele>
        <time>2021-10-09 20:08:29</time>
      </trkpt>
      <trkpt lat="40.14589" lon="-1.68952">
        <ele>1289</ele>
        <time>2021-10-09 20:08:30</time>
      </trkpt>
      <trkpt lat="40.14589" lon="-1.68952">
        <ele>1289</ele>
        <time>2021-10-09 20:08:31</time>
      </trkpt>
      <trkpt lat="40.14589" lon="-1.68952">
        <ele>1289</ele>
        <time>2021-10-09 20:08:32</time>
      </trkpt>
      <trkpt lat="40.14588" lon="-1.68952">
        <ele>1289</ele>
        <time>2021-10-09 20:08:33</time>
      </trkpt>
      <trkpt lat="40.14588" lon="-1.68952">
        <ele>1289</ele>
        <time>2021-10-09 20:08:34</time>
      </trkpt>
      <trkpt lat="40.14587" lon="-1.68952">
        <ele>1288.8</ele>
        <time>2021-10-09 20:08:35</time>
      </trkpt>
      <trkpt lat="40.14587" lon="-1.68952">
        <ele>1288.8</ele>
        <time>2021-10-09 20:08:36</time>
      </trkpt>
      <trkpt lat="40.14587" lon="-1.68952">
        <ele>1288.8</ele>
        <time>2021-10-09 20:08:37</time>
      </trkpt>
      <trkpt lat="40.14584" lon="-1.68957">
        <ele>1288.6</ele>
        <time>2021-10-09 20:08:38</time>
      </trkpt>
      <trkpt lat="40.14583" lon="-1.68957">
        <ele>1288.6</ele>
        <time>2021-10-09 20:08:39</time>
      </trkpt>
      <trkpt lat="40.14583" lon="-1.68957">
        <ele>1288.6</ele>
        <time>2021-10-09 20:08:40</time>
      </trkpt>
    </trkseg>
  </trk>
</gpx>
